<?xml version="1.0" encoding="UTF-8"?>
<gpx xmlns="http://www.topografix.com/GPX/1/1"
     creator="GpsDump 4.79"
     version="1.1"
     xmlns:xsi="http://www.w3.org/2001/XMLSchema-instance"
     xsi:schemaLocation="http://www.topografix.com/GPX/1/1 http://www.topografix.com/GPX/1/1/gpx.xsd">
  <metadata>
    <link href="http://www.gethome.no/stein.sorensen/">
      <text>GPS dump for www.flightlog.org</text>
    </link>
    <time>2015-05-25T08:51:58Z</time>
    <bounds minlat="43.273217" minlon="-4.349550" maxlat="43.306583" maxlon="-4.128517"/>
  </metadata>
  <trk>
    <name>Track 001</name>
    <trkseg>
      <trkpt lat="43.279950" lon="-4.218333">
        <ele>452.0</ele>
        <time>2015-05-23T13:33:08Z</time>
      </trkpt>
      <trkpt lat="43.279983" lon="-4.218333">
        <ele>451.0</ele>
        <time>2015-05-23T13:33:09Z</time>
      </trkpt>
      <trkpt lat="43.280033" lon="-4.218350">
        <ele>451.0</ele>
        <time>2015-05-23T13:33:10Z</time>
      </trkpt>
      <trkpt lat="43.280067" lon="-4.218400">
        <ele>451.0</ele>
        <time>2015-05-23T13:33:11Z</time>
      </trkpt>
      <trkpt lat="43.280083" lon="-4.218417">
        <ele>451.0</ele>
        <time>2015-05-23T13:33:12Z</time>
      </trkpt>
      <trkpt lat="43.280100" lon="-4.218450">
        <ele>451.0</ele>
        <time>2015-05-23T13:33:13Z</time>
      </trkpt>
      <trkpt lat="43.280133" lon="-4.218433">
        <ele>451.0</ele>
        <time>2015-05-23T13:33:14Z</time>
      </trkpt>
      <trkpt lat="43.280183" lon="-4.218433">
        <ele>451.0</ele>
        <time>2015-05-23T13:33:15Z</time>
      </trkpt>
      <trkpt lat="43.280233" lon="-4.218417">
        <ele>451.0</ele>
        <time>2015-05-23T13:33:16Z</time>
      </trkpt>
      <trkpt lat="43.280283" lon="-4.218433">
        <ele>451.0</ele>
        <time>2015-05-23T13:33:17Z</time>
      </trkpt>
      <trkpt lat="43.280333" lon="-4.218450">
        <ele>451.0</ele>
        <time>2015-05-23T13:33:18Z</time>
      </trkpt>
      <trkpt lat="43.280367" lon="-4.218483">
        <ele>452.0</ele>
        <time>2015-05-23T13:33:19Z</time>
      </trkpt>
      <trkpt lat="43.280400" lon="-4.218500">
        <ele>452.0</ele>
        <time>2015-05-23T13:33:20Z</time>
      </trkpt>
      <trkpt lat="43.280433" lon="-4.218533">
        <ele>452.0</ele>
        <time>2015-05-23T13:33:21Z</time>
      </trkpt>
      <trkpt lat="43.280467" lon="-4.218533">
        <ele>452.0</ele>
        <time>2015-05-23T13:33:22Z</time>
      </trkpt>
      <trkpt lat="43.280500" lon="-4.218550">
        <ele>452.0</ele>
        <time>2015-05-23T13:33:23Z</time>
      </trkpt>
      <trkpt lat="43.280533" lon="-4.218550">
        <ele>452.0</ele>
        <time>2015-05-23T13:33:24Z</time>
      </trkpt>
      <trkpt lat="43.280600" lon="-4.218550">
        <ele>453.0</ele>
        <time>2015-05-23T13:33:25Z</time>
      </trkpt>
      <trkpt lat="43.280667" lon="-4.218533">
        <ele>453.0</ele>
        <time>2015-05-23T13:33:26Z</time>
      </trkpt>
      <trkpt lat="43.280717" lon="-4.218500">
        <ele>453.0</ele>
        <time>2015-05-23T13:33:27Z</time>
      </trkpt>
      <trkpt lat="43.280767" lon="-4.218483">
        <ele>453.0</ele>
        <time>2015-05-23T13:33:28Z</time>
      </trkpt>
      <trkpt lat="43.280783" lon="-4.218483">
        <ele>454.0</ele>
        <time>2015-05-23T13:33:29Z</time>
      </trkpt>
      <trkpt lat="43.280817" lon="-4.218467">
        <ele>455.0</ele>
        <time>2015-05-23T13:33:30Z</time>
      </trkpt>
      <trkpt lat="43.280833" lon="-4.218433">
        <ele>455.0</ele>
        <time>2015-05-23T13:33:31Z</time>
      </trkpt>
      <trkpt lat="43.280867" lon="-4.218400">
        <ele>455.0</ele>
        <time>2015-05-23T13:33:32Z</time>
      </trkpt>
      <trkpt lat="43.280900" lon="-4.218350">
        <ele>456.0</ele>
        <time>2015-05-23T13:33:33Z</time>
      </trkpt>
      <trkpt lat="43.280917" lon="-4.218317">
        <ele>456.0</ele>
        <time>2015-05-23T13:33:34Z</time>
      </trkpt>
      <trkpt lat="43.280950" lon="-4.218300">
        <ele>456.0</ele>
        <time>2015-05-23T13:33:35Z</time>
      </trkpt>
      <trkpt lat="43.280983" lon="-4.218283">
        <ele>456.0</ele>
        <time>2015-05-23T13:33:36Z</time>
      </trkpt>
      <trkpt lat="43.280983" lon="-4.218250">
        <ele>457.0</ele>
        <time>2015-05-23T13:33:37Z</time>
      </trkpt>
      <trkpt lat="43.280967" lon="-4.218200">
        <ele>457.0</ele>
        <time>2015-05-23T13:33:38Z</time>
      </trkpt>
      <trkpt lat="43.280967" lon="-4.218150">
        <ele>457.0</ele>
        <time>2015-05-23T13:33:39Z</time>
      </trkpt>
      <trkpt lat="43.280967" lon="-4.218100">
        <ele>457.0</ele>
        <time>2015-05-23T13:33:40Z</time>
      </trkpt>
      <trkpt lat="43.280983" lon="-4.218067">
        <ele>457.0</ele>
        <time>2015-05-23T13:33:41Z</time>
      </trkpt>
      <trkpt lat="43.281033" lon="-4.218050">
        <ele>458.0</ele>
        <time>2015-05-23T13:33:42Z</time>
      </trkpt>
      <trkpt lat="43.281083" lon="-4.218033">
        <ele>458.0</ele>
        <time>2015-05-23T13:33:43Z</time>
      </trkpt>
      <trkpt lat="43.281133" lon="-4.218050">
        <ele>458.0</ele>
        <time>2015-05-23T13:33:44Z</time>
      </trkpt>
      <trkpt lat="43.281183" lon="-4.218083">
        <ele>458.0</ele>
        <time>2015-05-23T13:33:45Z</time>
      </trkpt>
      <trkpt lat="43.281233" lon="-4.218117">
        <ele>458.0</ele>
        <time>2015-05-23T13:33:46Z</time>
      </trkpt>
      <trkpt lat="43.281283" lon="-4.218150">
        <ele>458.0</ele>
        <time>2015-05-23T13:33:47Z</time>
      </trkpt>
      <trkpt lat="43.281333" lon="-4.218183">
        <ele>458.0</ele>
        <time>2015-05-23T13:33:48Z</time>
      </trkpt>
      <trkpt lat="43.281367" lon="-4.218217">
        <ele>459.0</ele>
        <time>2015-05-23T13:33:49Z</time>
      </trkpt>
      <trkpt lat="43.281400" lon="-4.218217">
        <ele>459.0</ele>
        <time>2015-05-23T13:33:50Z</time>
      </trkpt>
      <trkpt lat="43.281433" lon="-4.218217">
        <ele>459.0</ele>
        <time>2015-05-23T13:33:51Z</time>
      </trkpt>
      <trkpt lat="43.281483" lon="-4.218250">
        <ele>459.0</ele>
        <time>2015-05-23T13:33:52Z</time>
      </trkpt>
      <trkpt lat="43.281550" lon="-4.218267">
        <ele>459.0</ele>
        <time>2015-05-23T13:33:53Z</time>
      </trkpt>
      <trkpt lat="43.281600" lon="-4.218300">
        <ele>459.0</ele>
        <time>2015-05-23T13:33:54Z</time>
      </trkpt>
      <trkpt lat="43.281667" lon="-4.218317">
        <ele>459.0</ele>
        <time>2015-05-23T13:33:55Z</time>
      </trkpt>
      <trkpt lat="43.281717" lon="-4.218317">
        <ele>459.0</ele>
        <time>2015-05-23T13:33:56Z</time>
      </trkpt>
      <trkpt lat="43.281783" lon="-4.218333">
        <ele>459.0</ele>
        <time>2015-05-23T13:33:57Z</time>
      </trkpt>
      <trkpt lat="43.281833" lon="-4.218333">
        <ele>460.0</ele>
        <time>2015-05-23T13:33:58Z</time>
      </trkpt>
      <trkpt lat="43.281900" lon="-4.218350">
        <ele>460.0</ele>
        <time>2015-05-23T13:33:59Z</time>
      </trkpt>
      <trkpt lat="43.281950" lon="-4.218350">
        <ele>460.0</ele>
        <time>2015-05-23T13:34:00Z</time>
      </trkpt>
      <trkpt lat="43.282000" lon="-4.218350">
        <ele>460.0</ele>
        <time>2015-05-23T13:34:01Z</time>
      </trkpt>
      <trkpt lat="43.282050" lon="-4.218333">
        <ele>460.0</ele>
        <time>2015-05-23T13:34:02Z</time>
      </trkpt>
      <trkpt lat="43.282100" lon="-4.218317">
        <ele>460.0</ele>
        <time>2015-05-23T13:34:03Z</time>
      </trkpt>
      <trkpt lat="43.282150" lon="-4.218317">
        <ele>460.0</ele>
        <time>2015-05-23T13:34:04Z</time>
      </trkpt>
      <trkpt lat="43.282200" lon="-4.218317">
        <ele>460.0</ele>
        <time>2015-05-23T13:34:05Z</time>
      </trkpt>
      <trkpt lat="43.282267" lon="-4.218317">
        <ele>460.0</ele>
        <time>2015-05-23T13:34:06Z</time>
      </trkpt>
      <trkpt lat="43.282333" lon="-4.218317">
        <ele>460.0</ele>
        <time>2015-05-23T13:34:07Z</time>
      </trkpt>
      <trkpt lat="43.282383" lon="-4.218317">
        <ele>460.0</ele>
        <time>2015-05-23T13:34:08Z</time>
      </trkpt>
      <trkpt lat="43.282433" lon="-4.218300">
        <ele>460.0</ele>
        <time>2015-05-23T13:34:09Z</time>
      </trkpt>
      <trkpt lat="43.282517" lon="-4.218283">
        <ele>460.0</ele>
        <time>2015-05-23T13:34:10Z</time>
      </trkpt>
      <trkpt lat="43.282583" lon="-4.218283">
        <ele>460.0</ele>
        <time>2015-05-23T13:34:11Z</time>
      </trkpt>
      <trkpt lat="43.282650" lon="-4.218267">
        <ele>460.0</ele>
        <time>2015-05-23T13:34:12Z</time>
      </trkpt>
      <trkpt lat="43.282717" lon="-4.218250">
        <ele>460.0</ele>
        <time>2015-05-23T13:34:13Z</time>
      </trkpt>
      <trkpt lat="43.282767" lon="-4.218233">
        <ele>460.0</ele>
        <time>2015-05-23T13:34:14Z</time>
      </trkpt>
      <trkpt lat="43.282833" lon="-4.218233">
        <ele>460.0</ele>
        <time>2015-05-23T13:34:15Z</time>
      </trkpt>
      <trkpt lat="43.282883" lon="-4.218217">
        <ele>460.0</ele>
        <time>2015-05-23T13:34:16Z</time>
      </trkpt>
      <trkpt lat="43.282933" lon="-4.218217">
        <ele>459.0</ele>
        <time>2015-05-23T13:34:17Z</time>
      </trkpt>
      <trkpt lat="43.282983" lon="-4.218217">
        <ele>459.0</ele>
        <time>2015-05-23T13:34:18Z</time>
      </trkpt>
      <trkpt lat="43.283050" lon="-4.218217">
        <ele>459.0</ele>
        <time>2015-05-23T13:34:19Z</time>
      </trkpt>
      <trkpt lat="43.283100" lon="-4.218217">
        <ele>459.0</ele>
        <time>2015-05-23T13:34:20Z</time>
      </trkpt>
      <trkpt lat="43.283150" lon="-4.218233">
        <ele>459.0</ele>
        <time>2015-05-23T13:34:21Z</time>
      </trkpt>
      <trkpt lat="43.283183" lon="-4.218233">
        <ele>459.0</ele>
        <time>2015-05-23T13:34:22Z</time>
      </trkpt>
      <trkpt lat="43.283217" lon="-4.218217">
        <ele>458.0</ele>
        <time>2015-05-23T13:34:23Z</time>
      </trkpt>
      <trkpt lat="43.283267" lon="-4.218217">
        <ele>458.0</ele>
        <time>2015-05-23T13:34:24Z</time>
      </trkpt>
      <trkpt lat="43.283317" lon="-4.218200">
        <ele>458.0</ele>
        <time>2015-05-23T13:34:25Z</time>
      </trkpt>
      <trkpt lat="43.283367" lon="-4.218200">
        <ele>458.0</ele>
        <time>2015-05-23T13:34:26Z</time>
      </trkpt>
      <trkpt lat="43.283433" lon="-4.218183">
        <ele>458.0</ele>
        <time>2015-05-23T13:34:27Z</time>
      </trkpt>
      <trkpt lat="43.283483" lon="-4.218200">
        <ele>457.0</ele>
        <time>2015-05-23T13:34:28Z</time>
      </trkpt>
      <trkpt lat="43.283550" lon="-4.218200">
        <ele>457.0</ele>
        <time>2015-05-23T13:34:29Z</time>
      </trkpt>
      <trkpt lat="43.283583" lon="-4.218200">
        <ele>457.0</ele>
        <time>2015-05-23T13:34:30Z</time>
      </trkpt>
      <trkpt lat="43.283633" lon="-4.218200">
        <ele>457.0</ele>
        <time>2015-05-23T13:34:31Z</time>
      </trkpt>
      <trkpt lat="43.283683" lon="-4.218183">
        <ele>457.0</ele>
        <time>2015-05-23T13:34:32Z</time>
      </trkpt>
      <trkpt lat="43.283733" lon="-4.218167">
        <ele>457.0</ele>
        <time>2015-05-23T13:34:33Z</time>
      </trkpt>
      <trkpt lat="43.283800" lon="-4.218150">
        <ele>456.0</ele>
        <time>2015-05-23T13:34:34Z</time>
      </trkpt>
      <trkpt lat="43.283850" lon="-4.218117">
        <ele>456.0</ele>
        <time>2015-05-23T13:34:35Z</time>
      </trkpt>
      <trkpt lat="43.283900" lon="-4.218100">
        <ele>456.0</ele>
        <time>2015-05-23T13:34:36Z</time>
      </trkpt>
      <trkpt lat="43.283933" lon="-4.218067">
        <ele>456.0</ele>
        <time>2015-05-23T13:34:37Z</time>
      </trkpt>
      <trkpt lat="43.283983" lon="-4.218050">
        <ele>456.0</ele>
        <time>2015-05-23T13:34:38Z</time>
      </trkpt>
      <trkpt lat="43.284050" lon="-4.218050">
        <ele>456.0</ele>
        <time>2015-05-23T13:34:39Z</time>
      </trkpt>
      <trkpt lat="43.284100" lon="-4.218033">
        <ele>455.0</ele>
        <time>2015-05-23T13:34:40Z</time>
      </trkpt>
      <trkpt lat="43.284167" lon="-4.218033">
        <ele>455.0</ele>
        <time>2015-05-23T13:34:41Z</time>
      </trkpt>
      <trkpt lat="43.284217" lon="-4.218067">
        <ele>455.0</ele>
        <time>2015-05-23T13:34:42Z</time>
      </trkpt>
      <trkpt lat="43.284267" lon="-4.218083">
        <ele>454.0</ele>
        <time>2015-05-23T13:34:43Z</time>
      </trkpt>
      <trkpt lat="43.284317" lon="-4.218083">
        <ele>454.0</ele>
        <time>2015-05-23T13:34:44Z</time>
      </trkpt>
      <trkpt lat="43.284350" lon="-4.218083">
        <ele>454.0</ele>
        <time>2015-05-23T13:34:45Z</time>
      </trkpt>
      <trkpt lat="43.284400" lon="-4.218100">
        <ele>454.0</ele>
        <time>2015-05-23T13:34:46Z</time>
      </trkpt>
      <trkpt lat="43.284433" lon="-4.218100">
        <ele>453.0</ele>
        <time>2015-05-23T13:34:47Z</time>
      </trkpt>
      <trkpt lat="43.284500" lon="-4.218117">
        <ele>453.0</ele>
        <time>2015-05-23T13:34:48Z</time>
      </trkpt>
      <trkpt lat="43.284583" lon="-4.218117">
        <ele>452.0</ele>
        <time>2015-05-23T13:34:49Z</time>
      </trkpt>
      <trkpt lat="43.284633" lon="-4.218133">
        <ele>452.0</ele>
        <time>2015-05-23T13:34:50Z</time>
      </trkpt>
      <trkpt lat="43.284667" lon="-4.218150">
        <ele>452.0</ele>
        <time>2015-05-23T13:34:51Z</time>
      </trkpt>
      <trkpt lat="43.284717" lon="-4.218167">
        <ele>452.0</ele>
        <time>2015-05-23T13:34:52Z</time>
      </trkpt>
      <trkpt lat="43.284750" lon="-4.218183">
        <ele>451.0</ele>
        <time>2015-05-23T13:34:53Z</time>
      </trkpt>
      <trkpt lat="43.284817" lon="-4.218200">
        <ele>451.0</ele>
        <time>2015-05-23T13:34:54Z</time>
      </trkpt>
      <trkpt lat="43.284867" lon="-4.218217">
        <ele>451.0</ele>
        <time>2015-05-23T13:34:55Z</time>
      </trkpt>
      <trkpt lat="43.284950" lon="-4.218250">
        <ele>450.0</ele>
        <time>2015-05-23T13:34:56Z</time>
      </trkpt>
      <trkpt lat="43.285017" lon="-4.218267">
        <ele>450.0</ele>
        <time>2015-05-23T13:34:57Z</time>
      </trkpt>
      <trkpt lat="43.285067" lon="-4.218283">
        <ele>450.0</ele>
        <time>2015-05-23T13:34:58Z</time>
      </trkpt>
      <trkpt lat="43.285117" lon="-4.218300">
        <ele>449.0</ele>
        <time>2015-05-23T13:34:59Z</time>
      </trkpt>
      <trkpt lat="43.285200" lon="-4.218333">
        <ele>449.0</ele>
        <time>2015-05-23T13:35:00Z</time>
      </trkpt>
      <trkpt lat="43.285250" lon="-4.218350">
        <ele>448.0</ele>
        <time>2015-05-23T13:35:01Z</time>
      </trkpt>
      <trkpt lat="43.285300" lon="-4.218367">
        <ele>447.0</ele>
        <time>2015-05-23T13:35:02Z</time>
      </trkpt>
      <trkpt lat="43.285383" lon="-4.218383">
        <ele>447.0</ele>
        <time>2015-05-23T13:35:03Z</time>
      </trkpt>
      <trkpt lat="43.285483" lon="-4.218400">
        <ele>446.0</ele>
        <time>2015-05-23T13:35:04Z</time>
      </trkpt>
      <trkpt lat="43.285550" lon="-4.218433">
        <ele>446.0</ele>
        <time>2015-05-23T13:35:05Z</time>
      </trkpt>
      <trkpt lat="43.285617" lon="-4.218467">
        <ele>445.0</ele>
        <time>2015-05-23T13:35:06Z</time>
      </trkpt>
      <trkpt lat="43.285683" lon="-4.218500">
        <ele>445.0</ele>
        <time>2015-05-23T13:35:07Z</time>
      </trkpt>
      <trkpt lat="43.285733" lon="-4.218517">
        <ele>444.0</ele>
        <time>2015-05-23T13:35:08Z</time>
      </trkpt>
      <trkpt lat="43.285783" lon="-4.218533">
        <ele>444.0</ele>
        <time>2015-05-23T13:35:09Z</time>
      </trkpt>
      <trkpt lat="43.285817" lon="-4.218567">
        <ele>443.0</ele>
        <time>2015-05-23T13:35:10Z</time>
      </trkpt>
      <trkpt lat="43.285867" lon="-4.218600">
        <ele>443.0</ele>
        <time>2015-05-23T13:35:11Z</time>
      </trkpt>
      <trkpt lat="43.285917" lon="-4.218633">
        <ele>442.0</ele>
        <time>2015-05-23T13:35:12Z</time>
      </trkpt>
      <trkpt lat="43.285967" lon="-4.218633">
        <ele>442.0</ele>
        <time>2015-05-23T13:35:13Z</time>
      </trkpt>
      <trkpt lat="43.286017" lon="-4.218633">
        <ele>441.0</ele>
        <time>2015-05-23T13:35:14Z</time>
      </trkpt>
      <trkpt lat="43.286067" lon="-4.218650">
        <ele>441.0</ele>
        <time>2015-05-23T13:35:15Z</time>
      </trkpt>
      <trkpt lat="43.286117" lon="-4.218667">
        <ele>440.0</ele>
        <time>2015-05-23T13:35:16Z</time>
      </trkpt>
      <trkpt lat="43.286167" lon="-4.218667">
        <ele>440.0</ele>
        <time>2015-05-23T13:35:17Z</time>
      </trkpt>
      <trkpt lat="43.286200" lon="-4.218667">
        <ele>439.0</ele>
        <time>2015-05-23T13:35:18Z</time>
      </trkpt>
      <trkpt lat="43.286233" lon="-4.218683">
        <ele>439.0</ele>
        <time>2015-05-23T13:35:19Z</time>
      </trkpt>
      <trkpt lat="43.286283" lon="-4.218683">
        <ele>439.0</ele>
        <time>2015-05-23T13:35:20Z</time>
      </trkpt>
      <trkpt lat="43.286350" lon="-4.218667">
        <ele>438.0</ele>
        <time>2015-05-23T13:35:21Z</time>
      </trkpt>
      <trkpt lat="43.286383" lon="-4.218667">
        <ele>438.0</ele>
        <time>2015-05-23T13:35:22Z</time>
      </trkpt>
      <trkpt lat="43.286433" lon="-4.218650">
        <ele>437.0</ele>
        <time>2015-05-23T13:35:23Z</time>
      </trkpt>
      <trkpt lat="43.286483" lon="-4.218633">
        <ele>437.0</ele>
        <time>2015-05-23T13:35:24Z</time>
      </trkpt>
      <trkpt lat="43.286550" lon="-4.218633">
        <ele>437.0</ele>
        <time>2015-05-23T13:35:25Z</time>
      </trkpt>
      <trkpt lat="43.286617" lon="-4.218600">
        <ele>436.0</ele>
        <time>2015-05-23T13:35:26Z</time>
      </trkpt>
      <trkpt lat="43.286650" lon="-4.218600">
        <ele>436.0</ele>
        <time>2015-05-23T13:35:27Z</time>
      </trkpt>
      <trkpt lat="43.286700" lon="-4.218600">
        <ele>435.0</ele>
        <time>2015-05-23T13:35:28Z</time>
      </trkpt>
      <trkpt lat="43.286717" lon="-4.218600">
        <ele>435.0</ele>
        <time>2015-05-23T13:35:29Z</time>
      </trkpt>
      <trkpt lat="43.286750" lon="-4.218600">
        <ele>435.0</ele>
        <time>2015-05-23T13:35:30Z</time>
      </trkpt>
      <trkpt lat="43.286783" lon="-4.218583">
        <ele>434.0</ele>
        <time>2015-05-23T13:35:31Z</time>
      </trkpt>
      <trkpt lat="43.286833" lon="-4.218567">
        <ele>434.0</ele>
        <time>2015-05-23T13:35:32Z</time>
      </trkpt>
      <trkpt lat="43.286867" lon="-4.218550">
        <ele>434.0</ele>
        <time>2015-05-23T13:35:33Z</time>
      </trkpt>
      <trkpt lat="43.286900" lon="-4.218533">
        <ele>433.0</ele>
        <time>2015-05-23T13:35:34Z</time>
      </trkpt>
      <trkpt lat="43.286950" lon="-4.218533">
        <ele>433.0</ele>
        <time>2015-05-23T13:35:35Z</time>
      </trkpt>
      <trkpt lat="43.287000" lon="-4.218517">
        <ele>433.0</ele>
        <time>2015-05-23T13:35:36Z</time>
      </trkpt>
      <trkpt lat="43.287033" lon="-4.218517">
        <ele>432.0</ele>
        <time>2015-05-23T13:35:37Z</time>
      </trkpt>
      <trkpt lat="43.287083" lon="-4.218500">
        <ele>432.0</ele>
        <time>2015-05-23T13:35:38Z</time>
      </trkpt>
      <trkpt lat="43.287133" lon="-4.218450">
        <ele>432.0</ele>
        <time>2015-05-23T13:35:39Z</time>
      </trkpt>
      <trkpt lat="43.287167" lon="-4.218400">
        <ele>431.0</ele>
        <time>2015-05-23T13:35:40Z</time>
      </trkpt>
      <trkpt lat="43.287200" lon="-4.218350">
        <ele>431.0</ele>
        <time>2015-05-23T13:35:41Z</time>
      </trkpt>
      <trkpt lat="43.287250" lon="-4.218317">
        <ele>431.0</ele>
        <time>2015-05-23T13:35:42Z</time>
      </trkpt>
      <trkpt lat="43.287300" lon="-4.218283">
        <ele>430.0</ele>
        <time>2015-05-23T13:35:43Z</time>
      </trkpt>
      <trkpt lat="43.287333" lon="-4.218267">
        <ele>430.0</ele>
        <time>2015-05-23T13:35:44Z</time>
      </trkpt>
      <trkpt lat="43.287383" lon="-4.218267">
        <ele>430.0</ele>
        <time>2015-05-23T13:35:45Z</time>
      </trkpt>
      <trkpt lat="43.287417" lon="-4.218267">
        <ele>429.0</ele>
        <time>2015-05-23T13:35:46Z</time>
      </trkpt>
      <trkpt lat="43.287450" lon="-4.218233">
        <ele>429.0</ele>
        <time>2015-05-23T13:35:47Z</time>
      </trkpt>
      <trkpt lat="43.287500" lon="-4.218200">
        <ele>429.0</ele>
        <time>2015-05-23T13:35:48Z</time>
      </trkpt>
      <trkpt lat="43.287550" lon="-4.218183">
        <ele>429.0</ele>
        <time>2015-05-23T13:35:49Z</time>
      </trkpt>
      <trkpt lat="43.287600" lon="-4.218167">
        <ele>428.0</ele>
        <time>2015-05-23T13:35:50Z</time>
      </trkpt>
      <trkpt lat="43.287667" lon="-4.218200">
        <ele>428.0</ele>
        <time>2015-05-23T13:35:51Z</time>
      </trkpt>
      <trkpt lat="43.287700" lon="-4.218250">
        <ele>428.0</ele>
        <time>2015-05-23T13:35:52Z</time>
      </trkpt>
      <trkpt lat="43.287700" lon="-4.218333">
        <ele>428.0</ele>
        <time>2015-05-23T13:35:53Z</time>
      </trkpt>
      <trkpt lat="43.287700" lon="-4.218433">
        <ele>428.0</ele>
        <time>2015-05-23T13:35:54Z</time>
      </trkpt>
      <trkpt lat="43.287683" lon="-4.218517">
        <ele>427.0</ele>
        <time>2015-05-23T13:35:55Z</time>
      </trkpt>
      <trkpt lat="43.287650" lon="-4.218617">
        <ele>427.0</ele>
        <time>2015-05-23T13:35:56Z</time>
      </trkpt>
      <trkpt lat="43.287633" lon="-4.218700">
        <ele>427.0</ele>
        <time>2015-05-23T13:35:57Z</time>
      </trkpt>
      <trkpt lat="43.287600" lon="-4.218783">
        <ele>427.0</ele>
        <time>2015-05-23T13:35:58Z</time>
      </trkpt>
      <trkpt lat="43.287583" lon="-4.218867">
        <ele>426.0</ele>
        <time>2015-05-23T13:35:59Z</time>
      </trkpt>
      <trkpt lat="43.287550" lon="-4.218950">
        <ele>426.0</ele>
        <time>2015-05-23T13:36:00Z</time>
      </trkpt>
      <trkpt lat="43.287517" lon="-4.219017">
        <ele>426.0</ele>
        <time>2015-05-23T13:36:01Z</time>
      </trkpt>
      <trkpt lat="43.287500" lon="-4.219100">
        <ele>426.0</ele>
        <time>2015-05-23T13:36:02Z</time>
      </trkpt>
      <trkpt lat="43.287467" lon="-4.219183">
        <ele>426.0</ele>
        <time>2015-05-23T13:36:03Z</time>
      </trkpt>
      <trkpt lat="43.287417" lon="-4.219267">
        <ele>426.0</ele>
        <time>2015-05-23T13:36:04Z</time>
      </trkpt>
      <trkpt lat="43.287350" lon="-4.219333">
        <ele>426.0</ele>
        <time>2015-05-23T13:36:05Z</time>
      </trkpt>
      <trkpt lat="43.287267" lon="-4.219383">
        <ele>425.0</ele>
        <time>2015-05-23T13:36:06Z</time>
      </trkpt>
      <trkpt lat="43.287200" lon="-4.219417">
        <ele>425.0</ele>
        <time>2015-05-23T13:36:07Z</time>
      </trkpt>
      <trkpt lat="43.287133" lon="-4.219433">
        <ele>425.0</ele>
        <time>2015-05-23T13:36:08Z</time>
      </trkpt>
      <trkpt lat="43.287050" lon="-4.219433">
        <ele>425.0</ele>
        <time>2015-05-23T13:36:09Z</time>
      </trkpt>
      <trkpt lat="43.286983" lon="-4.219400">
        <ele>425.0</ele>
        <time>2015-05-23T13:36:10Z</time>
      </trkpt>
      <trkpt lat="43.286900" lon="-4.219333">
        <ele>425.0</ele>
        <time>2015-05-23T13:36:11Z</time>
      </trkpt>
      <trkpt lat="43.286850" lon="-4.219250">
        <ele>425.0</ele>
        <time>2015-05-23T13:36:12Z</time>
      </trkpt>
      <trkpt lat="43.286800" lon="-4.219150">
        <ele>425.0</ele>
        <time>2015-05-23T13:36:13Z</time>
      </trkpt>
      <trkpt lat="43.286783" lon="-4.219067">
        <ele>425.0</ele>
        <time>2015-05-23T13:36:14Z</time>
      </trkpt>
      <trkpt lat="43.286800" lon="-4.218983">
        <ele>425.0</ele>
        <time>2015-05-23T13:36:15Z</time>
      </trkpt>
      <trkpt lat="43.286817" lon="-4.218917">
        <ele>425.0</ele>
        <time>2015-05-23T13:36:16Z</time>
      </trkpt>
      <trkpt lat="43.286850" lon="-4.218850">
        <ele>425.0</ele>
        <time>2015-05-23T13:36:17Z</time>
      </trkpt>
      <trkpt lat="43.286867" lon="-4.218783">
        <ele>425.0</ele>
        <time>2015-05-23T13:36:18Z</time>
      </trkpt>
      <trkpt lat="43.286900" lon="-4.218733">
        <ele>425.0</ele>
        <time>2015-05-23T13:36:19Z</time>
      </trkpt>
      <trkpt lat="43.286967" lon="-4.218683">
        <ele>425.0</ele>
        <time>2015-05-23T13:36:20Z</time>
      </trkpt>
      <trkpt lat="43.287017" lon="-4.218633">
        <ele>425.0</ele>
        <time>2015-05-23T13:36:21Z</time>
      </trkpt>
      <trkpt lat="43.287050" lon="-4.218600">
        <ele>425.0</ele>
        <time>2015-05-23T13:36:22Z</time>
      </trkpt>
      <trkpt lat="43.287083" lon="-4.218550">
        <ele>425.0</ele>
        <time>2015-05-23T13:36:23Z</time>
      </trkpt>
      <trkpt lat="43.287133" lon="-4.218517">
        <ele>425.0</ele>
        <time>2015-05-23T13:36:24Z</time>
      </trkpt>
      <trkpt lat="43.287200" lon="-4.218517">
        <ele>426.0</ele>
        <time>2015-05-23T13:36:25Z</time>
      </trkpt>
      <trkpt lat="43.287267" lon="-4.218517">
        <ele>426.0</ele>
        <time>2015-05-23T13:36:26Z</time>
      </trkpt>
      <trkpt lat="43.287317" lon="-4.218517">
        <ele>426.0</ele>
        <time>2015-05-23T13:36:27Z</time>
      </trkpt>
      <trkpt lat="43.287367" lon="-4.218500">
        <ele>426.0</ele>
        <time>2015-05-23T13:36:28Z</time>
      </trkpt>
      <trkpt lat="43.287433" lon="-4.218483">
        <ele>426.0</ele>
        <time>2015-05-23T13:36:29Z</time>
      </trkpt>
      <trkpt lat="43.287483" lon="-4.218467">
        <ele>426.0</ele>
        <time>2015-05-23T13:36:30Z</time>
      </trkpt>
      <trkpt lat="43.287550" lon="-4.218450">
        <ele>426.0</ele>
        <time>2015-05-23T13:36:31Z</time>
      </trkpt>
      <trkpt lat="43.287617" lon="-4.218400">
        <ele>426.0</ele>
        <time>2015-05-23T13:36:32Z</time>
      </trkpt>
      <trkpt lat="43.287683" lon="-4.218317">
        <ele>426.0</ele>
        <time>2015-05-23T13:36:33Z</time>
      </trkpt>
      <trkpt lat="43.287750" lon="-4.218233">
        <ele>426.0</ele>
        <time>2015-05-23T13:36:34Z</time>
      </trkpt>
      <trkpt lat="43.287817" lon="-4.218167">
        <ele>426.0</ele>
        <time>2015-05-23T13:36:35Z</time>
      </trkpt>
      <trkpt lat="43.287867" lon="-4.218133">
        <ele>426.0</ele>
        <time>2015-05-23T13:36:36Z</time>
      </trkpt>
      <trkpt lat="43.287900" lon="-4.218117">
        <ele>426.0</ele>
        <time>2015-05-23T13:36:37Z</time>
      </trkpt>
      <trkpt lat="43.287917" lon="-4.218083">
        <ele>427.0</ele>
        <time>2015-05-23T13:36:38Z</time>
      </trkpt>
      <trkpt lat="43.287950" lon="-4.218033">
        <ele>427.0</ele>
        <time>2015-05-23T13:36:39Z</time>
      </trkpt>
      <trkpt lat="43.287967" lon="-4.218000">
        <ele>427.0</ele>
        <time>2015-05-23T13:36:40Z</time>
      </trkpt>
      <trkpt lat="43.287983" lon="-4.217967">
        <ele>427.0</ele>
        <time>2015-05-23T13:36:41Z</time>
      </trkpt>
      <trkpt lat="43.288017" lon="-4.217933">
        <ele>427.0</ele>
        <time>2015-05-23T13:36:42Z</time>
      </trkpt>
      <trkpt lat="43.288050" lon="-4.217933">
        <ele>427.0</ele>
        <time>2015-05-23T13:36:43Z</time>
      </trkpt>
      <trkpt lat="43.288083" lon="-4.217933">
        <ele>428.0</ele>
        <time>2015-05-23T13:36:44Z</time>
      </trkpt>
      <trkpt lat="43.288100" lon="-4.217983">
        <ele>428.0</ele>
        <time>2015-05-23T13:36:45Z</time>
      </trkpt>
      <trkpt lat="43.288100" lon="-4.218033">
        <ele>428.0</ele>
        <time>2015-05-23T13:36:46Z</time>
      </trkpt>
      <trkpt lat="43.288117" lon="-4.218083">
        <ele>428.0</ele>
        <time>2015-05-23T13:36:47Z</time>
      </trkpt>
      <trkpt lat="43.288133" lon="-4.218150">
        <ele>428.0</ele>
        <time>2015-05-23T13:36:48Z</time>
      </trkpt>
      <trkpt lat="43.288150" lon="-4.218200">
        <ele>429.0</ele>
        <time>2015-05-23T13:36:49Z</time>
      </trkpt>
      <trkpt lat="43.288200" lon="-4.218217">
        <ele>429.0</ele>
        <time>2015-05-23T13:36:50Z</time>
      </trkpt>
      <trkpt lat="43.288233" lon="-4.218250">
        <ele>429.0</ele>
        <time>2015-05-23T13:36:51Z</time>
      </trkpt>
      <trkpt lat="43.288267" lon="-4.218300">
        <ele>429.0</ele>
        <time>2015-05-23T13:36:52Z</time>
      </trkpt>
      <trkpt lat="43.288283" lon="-4.218350">
        <ele>429.0</ele>
        <time>2015-05-23T13:36:53Z</time>
      </trkpt>
      <trkpt lat="43.288283" lon="-4.218450">
        <ele>429.0</ele>
        <time>2015-05-23T13:36:54Z</time>
      </trkpt>
      <trkpt lat="43.288300" lon="-4.218533">
        <ele>430.0</ele>
        <time>2015-05-23T13:36:55Z</time>
      </trkpt>
      <trkpt lat="43.288300" lon="-4.218600">
        <ele>430.0</ele>
        <time>2015-05-23T13:36:56Z</time>
      </trkpt>
      <trkpt lat="43.288317" lon="-4.218667">
        <ele>430.0</ele>
        <time>2015-05-23T13:36:57Z</time>
      </trkpt>
      <trkpt lat="43.288333" lon="-4.218733">
        <ele>430.0</ele>
        <time>2015-05-23T13:36:58Z</time>
      </trkpt>
      <trkpt lat="43.288367" lon="-4.218817">
        <ele>430.0</ele>
        <time>2015-05-23T13:36:59Z</time>
      </trkpt>
      <trkpt lat="43.288400" lon="-4.218867">
        <ele>431.0</ele>
        <time>2015-05-23T13:37:00Z</time>
      </trkpt>
      <trkpt lat="43.288433" lon="-4.218917">
        <ele>431.0</ele>
        <time>2015-05-23T13:37:01Z</time>
      </trkpt>
      <trkpt lat="43.288467" lon="-4.218950">
        <ele>431.0</ele>
        <time>2015-05-23T13:37:02Z</time>
      </trkpt>
      <trkpt lat="43.288500" lon="-4.218983">
        <ele>432.0</ele>
        <time>2015-05-23T13:37:03Z</time>
      </trkpt>
      <trkpt lat="43.288533" lon="-4.219000">
        <ele>432.0</ele>
        <time>2015-05-23T13:37:04Z</time>
      </trkpt>
      <trkpt lat="43.288600" lon="-4.218983">
        <ele>433.0</ele>
        <time>2015-05-23T13:37:05Z</time>
      </trkpt>
      <trkpt lat="43.288650" lon="-4.218967">
        <ele>433.0</ele>
        <time>2015-05-23T13:37:06Z</time>
      </trkpt>
      <trkpt lat="43.288683" lon="-4.218933">
        <ele>433.0</ele>
        <time>2015-05-23T13:37:07Z</time>
      </trkpt>
      <trkpt lat="43.288733" lon="-4.218883">
        <ele>434.0</ele>
        <time>2015-05-23T13:37:08Z</time>
      </trkpt>
      <trkpt lat="43.288750" lon="-4.218817">
        <ele>434.0</ele>
        <time>2015-05-23T13:37:09Z</time>
      </trkpt>
      <trkpt lat="43.288783" lon="-4.218733">
        <ele>434.0</ele>
        <time>2015-05-23T13:37:10Z</time>
      </trkpt>
      <trkpt lat="43.288817" lon="-4.218650">
        <ele>435.0</ele>
        <time>2015-05-23T13:37:11Z</time>
      </trkpt>
      <trkpt lat="43.288817" lon="-4.218567">
        <ele>435.0</ele>
        <time>2015-05-23T13:37:12Z</time>
      </trkpt>
      <trkpt lat="43.288817" lon="-4.218483">
        <ele>435.0</ele>
        <time>2015-05-23T13:37:13Z</time>
      </trkpt>
      <trkpt lat="43.288783" lon="-4.218383">
        <ele>436.0</ele>
        <time>2015-05-23T13:37:14Z</time>
      </trkpt>
      <trkpt lat="43.288750" lon="-4.218300">
        <ele>436.0</ele>
        <time>2015-05-23T13:37:15Z</time>
      </trkpt>
      <trkpt lat="43.288683" lon="-4.218233">
        <ele>436.0</ele>
        <time>2015-05-23T13:37:16Z</time>
      </trkpt>
      <trkpt lat="43.288617" lon="-4.218167">
        <ele>436.0</ele>
        <time>2015-05-23T13:37:17Z</time>
      </trkpt>
      <trkpt lat="43.288533" lon="-4.218133">
        <ele>437.0</ele>
        <time>2015-05-23T13:37:18Z</time>
      </trkpt>
      <trkpt lat="43.288450" lon="-4.218100">
        <ele>437.0</ele>
        <time>2015-05-23T13:37:19Z</time>
      </trkpt>
      <trkpt lat="43.288367" lon="-4.218100">
        <ele>437.0</ele>
        <time>2015-05-23T13:37:20Z</time>
      </trkpt>
      <trkpt lat="43.288283" lon="-4.218100">
        <ele>438.0</ele>
        <time>2015-05-23T13:37:21Z</time>
      </trkpt>
      <trkpt lat="43.288200" lon="-4.218117">
        <ele>438.0</ele>
        <time>2015-05-23T13:37:22Z</time>
      </trkpt>
      <trkpt lat="43.288133" lon="-4.218133">
        <ele>439.0</ele>
        <time>2015-05-23T13:37:23Z</time>
      </trkpt>
      <trkpt lat="43.288067" lon="-4.218167">
        <ele>439.0</ele>
        <time>2015-05-23T13:37:24Z</time>
      </trkpt>
      <trkpt lat="43.288000" lon="-4.218200">
        <ele>439.0</ele>
        <time>2015-05-23T13:37:25Z</time>
      </trkpt>
      <trkpt lat="43.287950" lon="-4.218233">
        <ele>440.0</ele>
        <time>2015-05-23T13:37:26Z</time>
      </trkpt>
      <trkpt lat="43.287900" lon="-4.218267">
        <ele>440.0</ele>
        <time>2015-05-23T13:37:27Z</time>
      </trkpt>
      <trkpt lat="43.287833" lon="-4.218300">
        <ele>441.0</ele>
        <time>2015-05-23T13:37:28Z</time>
      </trkpt>
      <trkpt lat="43.287783" lon="-4.218350">
        <ele>441.0</ele>
        <time>2015-05-23T13:37:29Z</time>
      </trkpt>
      <trkpt lat="43.287717" lon="-4.218400">
        <ele>441.0</ele>
        <time>2015-05-23T13:37:30Z</time>
      </trkpt>
      <trkpt lat="43.287683" lon="-4.218483">
        <ele>442.0</ele>
        <time>2015-05-23T13:37:31Z</time>
      </trkpt>
      <trkpt lat="43.287667" lon="-4.218550">
        <ele>442.0</ele>
        <time>2015-05-23T13:37:32Z</time>
      </trkpt>
      <trkpt lat="43.287667" lon="-4.218617">
        <ele>443.0</ele>
        <time>2015-05-23T13:37:33Z</time>
      </trkpt>
      <trkpt lat="43.287683" lon="-4.218667">
        <ele>443.0</ele>
        <time>2015-05-23T13:37:34Z</time>
      </trkpt>
      <trkpt lat="43.287717" lon="-4.218667">
        <ele>443.0</ele>
        <time>2015-05-23T13:37:35Z</time>
      </trkpt>
      <trkpt lat="43.287750" lon="-4.218650">
        <ele>444.0</ele>
        <time>2015-05-23T13:37:36Z</time>
      </trkpt>
      <trkpt lat="43.287767" lon="-4.218600">
        <ele>444.0</ele>
        <time>2015-05-23T13:37:37Z</time>
      </trkpt>
      <trkpt lat="43.287800" lon="-4.218533">
        <ele>445.0</ele>
        <time>2015-05-23T13:37:38Z</time>
      </trkpt>
      <trkpt lat="43.287800" lon="-4.218433">
        <ele>445.0</ele>
        <time>2015-05-23T13:37:39Z</time>
      </trkpt>
      <trkpt lat="43.287783" lon="-4.218367">
        <ele>446.0</ele>
        <time>2015-05-23T13:37:40Z</time>
      </trkpt>
      <trkpt lat="43.287783" lon="-4.218300">
        <ele>446.0</ele>
        <time>2015-05-23T13:37:41Z</time>
      </trkpt>
      <trkpt lat="43.287767" lon="-4.218233">
        <ele>447.0</ele>
        <time>2015-05-23T13:37:42Z</time>
      </trkpt>
      <trkpt lat="43.287750" lon="-4.218167">
        <ele>447.0</ele>
        <time>2015-05-23T13:37:43Z</time>
      </trkpt>
      <trkpt lat="43.287717" lon="-4.218083">
        <ele>448.0</ele>
        <time>2015-05-23T13:37:44Z</time>
      </trkpt>
      <trkpt lat="43.287683" lon="-4.218000">
        <ele>448.0</ele>
        <time>2015-05-23T13:37:45Z</time>
      </trkpt>
      <trkpt lat="43.287633" lon="-4.217917">
        <ele>448.0</ele>
        <time>2015-05-23T13:37:46Z</time>
      </trkpt>
      <trkpt lat="43.287600" lon="-4.217850">
        <ele>449.0</ele>
        <time>2015-05-23T13:37:47Z</time>
      </trkpt>
      <trkpt lat="43.287567" lon="-4.217767">
        <ele>449.0</ele>
        <time>2015-05-23T13:37:48Z</time>
      </trkpt>
      <trkpt lat="43.287533" lon="-4.217667">
        <ele>450.0</ele>
        <time>2015-05-23T13:37:49Z</time>
      </trkpt>
      <trkpt lat="43.287533" lon="-4.217567">
        <ele>450.0</ele>
        <time>2015-05-23T13:37:50Z</time>
      </trkpt>
      <trkpt lat="43.287550" lon="-4.217500">
        <ele>450.0</ele>
        <time>2015-05-23T13:37:51Z</time>
      </trkpt>
      <trkpt lat="43.287583" lon="-4.217450">
        <ele>451.0</ele>
        <time>2015-05-23T13:37:52Z</time>
      </trkpt>
      <trkpt lat="43.287617" lon="-4.217433">
        <ele>451.0</ele>
        <time>2015-05-23T13:37:53Z</time>
      </trkpt>
      <trkpt lat="43.287633" lon="-4.217433">
        <ele>452.0</ele>
        <time>2015-05-23T13:37:54Z</time>
      </trkpt>
      <trkpt lat="43.287633" lon="-4.217433">
        <ele>453.0</ele>
        <time>2015-05-23T13:37:55Z</time>
      </trkpt>
      <trkpt lat="43.287650" lon="-4.217433">
        <ele>453.0</ele>
        <time>2015-05-23T13:37:56Z</time>
      </trkpt>
      <trkpt lat="43.287667" lon="-4.217433">
        <ele>454.0</ele>
        <time>2015-05-23T13:37:57Z</time>
      </trkpt>
      <trkpt lat="43.287717" lon="-4.217483">
        <ele>454.0</ele>
        <time>2015-05-23T13:37:58Z</time>
      </trkpt>
      <trkpt lat="43.287750" lon="-4.217567">
        <ele>455.0</ele>
        <time>2015-05-23T13:37:59Z</time>
      </trkpt>
      <trkpt lat="43.287767" lon="-4.217650">
        <ele>455.0</ele>
        <time>2015-05-23T13:38:00Z</time>
      </trkpt>
      <trkpt lat="43.287733" lon="-4.217767">
        <ele>456.0</ele>
        <time>2015-05-23T13:38:01Z</time>
      </trkpt>
      <trkpt lat="43.287683" lon="-4.217833">
        <ele>456.0</ele>
        <time>2015-05-23T13:38:02Z</time>
      </trkpt>
      <trkpt lat="43.287633" lon="-4.217900">
        <ele>457.0</ele>
        <time>2015-05-23T13:38:03Z</time>
      </trkpt>
      <trkpt lat="43.287583" lon="-4.217950">
        <ele>458.0</ele>
        <time>2015-05-23T13:38:04Z</time>
      </trkpt>
      <trkpt lat="43.287500" lon="-4.217983">
        <ele>458.0</ele>
        <time>2015-05-23T13:38:05Z</time>
      </trkpt>
      <trkpt lat="43.287417" lon="-4.217983">
        <ele>459.0</ele>
        <time>2015-05-23T13:38:06Z</time>
      </trkpt>
      <trkpt lat="43.287333" lon="-4.217950">
        <ele>460.0</ele>
        <time>2015-05-23T13:38:07Z</time>
      </trkpt>
      <trkpt lat="43.287283" lon="-4.217917">
        <ele>460.0</ele>
        <time>2015-05-23T13:38:08Z</time>
      </trkpt>
      <trkpt lat="43.287217" lon="-4.217833">
        <ele>461.0</ele>
        <time>2015-05-23T13:38:09Z</time>
      </trkpt>
      <trkpt lat="43.287183" lon="-4.217733">
        <ele>462.0</ele>
        <time>2015-05-23T13:38:10Z</time>
      </trkpt>
      <trkpt lat="43.287150" lon="-4.217617">
        <ele>462.0</ele>
        <time>2015-05-23T13:38:11Z</time>
      </trkpt>
      <trkpt lat="43.287150" lon="-4.217517">
        <ele>463.0</ele>
        <time>2015-05-23T13:38:12Z</time>
      </trkpt>
      <trkpt lat="43.287150" lon="-4.217433">
        <ele>464.0</ele>
        <time>2015-05-23T13:38:13Z</time>
      </trkpt>
      <trkpt lat="43.287167" lon="-4.217367">
        <ele>464.0</ele>
        <time>2015-05-23T13:38:14Z</time>
      </trkpt>
      <trkpt lat="43.287183" lon="-4.217300">
        <ele>465.0</ele>
        <time>2015-05-23T13:38:15Z</time>
      </trkpt>
      <trkpt lat="43.287200" lon="-4.217250">
        <ele>465.0</ele>
        <time>2015-05-23T13:38:16Z</time>
      </trkpt>
      <trkpt lat="43.287233" lon="-4.217200">
        <ele>466.0</ele>
        <time>2015-05-23T13:38:17Z</time>
      </trkpt>
      <trkpt lat="43.287267" lon="-4.217167">
        <ele>467.0</ele>
        <time>2015-05-23T13:38:18Z</time>
      </trkpt>
      <trkpt lat="43.287300" lon="-4.217150">
        <ele>467.0</ele>
        <time>2015-05-23T13:38:19Z</time>
      </trkpt>
      <trkpt lat="43.287317" lon="-4.217100">
        <ele>467.0</ele>
        <time>2015-05-23T13:38:20Z</time>
      </trkpt>
      <trkpt lat="43.287333" lon="-4.217067">
        <ele>468.0</ele>
        <time>2015-05-23T13:38:21Z</time>
      </trkpt>
      <trkpt lat="43.287350" lon="-4.217033">
        <ele>468.0</ele>
        <time>2015-05-23T13:38:22Z</time>
      </trkpt>
      <trkpt lat="43.287383" lon="-4.217017">
        <ele>469.0</ele>
        <time>2015-05-23T13:38:23Z</time>
      </trkpt>
      <trkpt lat="43.287433" lon="-4.217017">
        <ele>469.0</ele>
        <time>2015-05-23T13:38:24Z</time>
      </trkpt>
      <trkpt lat="43.287417" lon="-4.217133">
        <ele>469.0</ele>
        <time>2015-05-23T13:38:25Z</time>
      </trkpt>
      <trkpt lat="43.287450" lon="-4.217217">
        <ele>470.0</ele>
        <time>2015-05-23T13:38:26Z</time>
      </trkpt>
      <trkpt lat="43.287467" lon="-4.217300">
        <ele>470.0</ele>
        <time>2015-05-23T13:38:27Z</time>
      </trkpt>
      <trkpt lat="43.287483" lon="-4.217417">
        <ele>471.0</ele>
        <time>2015-05-23T13:38:28Z</time>
      </trkpt>
      <trkpt lat="43.287467" lon="-4.217517">
        <ele>471.0</ele>
        <time>2015-05-23T13:38:29Z</time>
      </trkpt>
      <trkpt lat="43.287467" lon="-4.217600">
        <ele>472.0</ele>
        <time>2015-05-23T13:38:30Z</time>
      </trkpt>
      <trkpt lat="43.287467" lon="-4.217683">
        <ele>472.0</ele>
        <time>2015-05-23T13:38:31Z</time>
      </trkpt>
      <trkpt lat="43.287467" lon="-4.217767">
        <ele>472.0</ele>
        <time>2015-05-23T13:38:32Z</time>
      </trkpt>
      <trkpt lat="43.287450" lon="-4.217867">
        <ele>473.0</ele>
        <time>2015-05-23T13:38:33Z</time>
      </trkpt>
      <trkpt lat="43.287417" lon="-4.217950">
        <ele>474.0</ele>
        <time>2015-05-23T13:38:34Z</time>
      </trkpt>
      <trkpt lat="43.287417" lon="-4.218033">
        <ele>474.0</ele>
        <time>2015-05-23T13:38:35Z</time>
      </trkpt>
      <trkpt lat="43.287400" lon="-4.218117">
        <ele>475.0</ele>
        <time>2015-05-23T13:38:36Z</time>
      </trkpt>
      <trkpt lat="43.287367" lon="-4.218183">
        <ele>476.0</ele>
        <time>2015-05-23T13:38:37Z</time>
      </trkpt>
      <trkpt lat="43.287350" lon="-4.218250">
        <ele>477.0</ele>
        <time>2015-05-23T13:38:38Z</time>
      </trkpt>
      <trkpt lat="43.287250" lon="-4.218283">
        <ele>478.0</ele>
        <time>2015-05-23T13:38:39Z</time>
      </trkpt>
      <trkpt lat="43.287200" lon="-4.218317">
        <ele>479.0</ele>
        <time>2015-05-23T13:38:40Z</time>
      </trkpt>
      <trkpt lat="43.287100" lon="-4.218283">
        <ele>480.0</ele>
        <time>2015-05-23T13:38:41Z</time>
      </trkpt>
      <trkpt lat="43.287017" lon="-4.218233">
        <ele>481.0</ele>
        <time>2015-05-23T13:38:42Z</time>
      </trkpt>
      <trkpt lat="43.286967" lon="-4.218167">
        <ele>483.0</ele>
        <time>2015-05-23T13:38:43Z</time>
      </trkpt>
      <trkpt lat="43.286900" lon="-4.218083">
        <ele>484.0</ele>
        <time>2015-05-23T13:38:44Z</time>
      </trkpt>
      <trkpt lat="43.286833" lon="-4.218000">
        <ele>486.0</ele>
        <time>2015-05-23T13:38:45Z</time>
      </trkpt>
      <trkpt lat="43.286783" lon="-4.217917">
        <ele>487.0</ele>
        <time>2015-05-23T13:38:46Z</time>
      </trkpt>
      <trkpt lat="43.286750" lon="-4.217800">
        <ele>489.0</ele>
        <time>2015-05-23T13:38:47Z</time>
      </trkpt>
      <trkpt lat="43.286733" lon="-4.217683">
        <ele>491.0</ele>
        <time>2015-05-23T13:38:48Z</time>
      </trkpt>
      <trkpt lat="43.286717" lon="-4.217583">
        <ele>492.0</ele>
        <time>2015-05-23T13:38:49Z</time>
      </trkpt>
      <trkpt lat="43.286700" lon="-4.217517">
        <ele>494.0</ele>
        <time>2015-05-23T13:38:50Z</time>
      </trkpt>
      <trkpt lat="43.286683" lon="-4.217417">
        <ele>495.0</ele>
        <time>2015-05-23T13:38:51Z</time>
      </trkpt>
      <trkpt lat="43.286667" lon="-4.217350">
        <ele>497.0</ele>
        <time>2015-05-23T13:38:52Z</time>
      </trkpt>
      <trkpt lat="43.286667" lon="-4.217267">
        <ele>500.0</ele>
        <time>2015-05-23T13:38:53Z</time>
      </trkpt>
      <trkpt lat="43.286667" lon="-4.217267">
        <ele>502.0</ele>
        <time>2015-05-23T13:38:54Z</time>
      </trkpt>
      <trkpt lat="43.286717" lon="-4.217283">
        <ele>505.0</ele>
        <time>2015-05-23T13:38:55Z</time>
      </trkpt>
      <trkpt lat="43.286750" lon="-4.217283">
        <ele>508.0</ele>
        <time>2015-05-23T13:38:56Z</time>
      </trkpt>
      <trkpt lat="43.286800" lon="-4.217300">
        <ele>511.0</ele>
        <time>2015-05-23T13:38:57Z</time>
      </trkpt>
      <trkpt lat="43.286833" lon="-4.217333">
        <ele>513.0</ele>
        <time>2015-05-23T13:38:58Z</time>
      </trkpt>
      <trkpt lat="43.286867" lon="-4.217367">
        <ele>516.0</ele>
        <time>2015-05-23T13:38:59Z</time>
      </trkpt>
      <trkpt lat="43.286900" lon="-4.217400">
        <ele>518.0</ele>
        <time>2015-05-23T13:39:00Z</time>
      </trkpt>
      <trkpt lat="43.286950" lon="-4.217450">
        <ele>520.0</ele>
        <time>2015-05-23T13:39:01Z</time>
      </trkpt>
      <trkpt lat="43.286983" lon="-4.217500">
        <ele>523.0</ele>
        <time>2015-05-23T13:39:02Z</time>
      </trkpt>
      <trkpt lat="43.287000" lon="-4.217567">
        <ele>525.0</ele>
        <time>2015-05-23T13:39:03Z</time>
      </trkpt>
      <trkpt lat="43.287000" lon="-4.217633">
        <ele>528.0</ele>
        <time>2015-05-23T13:39:04Z</time>
      </trkpt>
      <trkpt lat="43.287000" lon="-4.217683">
        <ele>531.0</ele>
        <time>2015-05-23T13:39:05Z</time>
      </trkpt>
      <trkpt lat="43.286983" lon="-4.217733">
        <ele>534.0</ele>
        <time>2015-05-23T13:39:06Z</time>
      </trkpt>
      <trkpt lat="43.286950" lon="-4.217783">
        <ele>538.0</ele>
        <time>2015-05-23T13:39:07Z</time>
      </trkpt>
      <trkpt lat="43.286900" lon="-4.217850">
        <ele>540.0</ele>
        <time>2015-05-23T13:39:08Z</time>
      </trkpt>
      <trkpt lat="43.286733" lon="-4.217850">
        <ele>543.0</ele>
        <time>2015-05-23T13:39:09Z</time>
      </trkpt>
      <trkpt lat="43.286650" lon="-4.217867">
        <ele>546.0</ele>
        <time>2015-05-23T13:39:10Z</time>
      </trkpt>
      <trkpt lat="43.286550" lon="-4.217850">
        <ele>549.0</ele>
        <time>2015-05-23T13:39:11Z</time>
      </trkpt>
      <trkpt lat="43.286450" lon="-4.217817">
        <ele>552.0</ele>
        <time>2015-05-23T13:39:12Z</time>
      </trkpt>
      <trkpt lat="43.286383" lon="-4.217767">
        <ele>557.0</ele>
        <time>2015-05-23T13:39:13Z</time>
      </trkpt>
      <trkpt lat="43.286300" lon="-4.217700">
        <ele>561.0</ele>
        <time>2015-05-23T13:39:14Z</time>
      </trkpt>
      <trkpt lat="43.286233" lon="-4.217650">
        <ele>564.0</ele>
        <time>2015-05-23T13:39:15Z</time>
      </trkpt>
      <trkpt lat="43.286200" lon="-4.217567">
        <ele>568.0</ele>
        <time>2015-05-23T13:39:16Z</time>
      </trkpt>
      <trkpt lat="43.286183" lon="-4.217433">
        <ele>572.0</ele>
        <time>2015-05-23T13:39:17Z</time>
      </trkpt>
      <trkpt lat="43.286167" lon="-4.217300">
        <ele>575.0</ele>
        <time>2015-05-23T13:39:18Z</time>
      </trkpt>
      <trkpt lat="43.286167" lon="-4.217183">
        <ele>579.0</ele>
        <time>2015-05-23T13:39:19Z</time>
      </trkpt>
      <trkpt lat="43.286167" lon="-4.217100">
        <ele>583.0</ele>
        <time>2015-05-23T13:39:20Z</time>
      </trkpt>
      <trkpt lat="43.286200" lon="-4.217033">
        <ele>588.0</ele>
        <time>2015-05-23T13:39:21Z</time>
      </trkpt>
      <trkpt lat="43.286217" lon="-4.217017">
        <ele>592.0</ele>
        <time>2015-05-23T13:39:22Z</time>
      </trkpt>
      <trkpt lat="43.286250" lon="-4.217017">
        <ele>595.0</ele>
        <time>2015-05-23T13:39:23Z</time>
      </trkpt>
      <trkpt lat="43.286283" lon="-4.217033">
        <ele>599.0</ele>
        <time>2015-05-23T13:39:24Z</time>
      </trkpt>
      <trkpt lat="43.286300" lon="-4.217083">
        <ele>601.0</ele>
        <time>2015-05-23T13:39:25Z</time>
      </trkpt>
      <trkpt lat="43.286283" lon="-4.217183">
        <ele>603.0</ele>
        <time>2015-05-23T13:39:26Z</time>
      </trkpt>
      <trkpt lat="43.286250" lon="-4.217283">
        <ele>606.0</ele>
        <time>2015-05-23T13:39:27Z</time>
      </trkpt>
      <trkpt lat="43.286233" lon="-4.217350">
        <ele>608.0</ele>
        <time>2015-05-23T13:39:28Z</time>
      </trkpt>
      <trkpt lat="43.286217" lon="-4.217417">
        <ele>612.0</ele>
        <time>2015-05-23T13:39:29Z</time>
      </trkpt>
      <trkpt lat="43.286183" lon="-4.217483">
        <ele>614.0</ele>
        <time>2015-05-23T13:39:30Z</time>
      </trkpt>
      <trkpt lat="43.286150" lon="-4.217550">
        <ele>617.0</ele>
        <time>2015-05-23T13:39:31Z</time>
      </trkpt>
      <trkpt lat="43.286117" lon="-4.217633">
        <ele>619.0</ele>
        <time>2015-05-23T13:39:32Z</time>
      </trkpt>
      <trkpt lat="43.286050" lon="-4.217667">
        <ele>621.0</ele>
        <time>2015-05-23T13:39:33Z</time>
      </trkpt>
      <trkpt lat="43.286000" lon="-4.217717">
        <ele>624.0</ele>
        <time>2015-05-23T13:39:34Z</time>
      </trkpt>
      <trkpt lat="43.285967" lon="-4.217767">
        <ele>626.0</ele>
        <time>2015-05-23T13:39:35Z</time>
      </trkpt>
      <trkpt lat="43.285900" lon="-4.217800">
        <ele>628.0</ele>
        <time>2015-05-23T13:39:36Z</time>
      </trkpt>
      <trkpt lat="43.285817" lon="-4.217667">
        <ele>631.0</ele>
        <time>2015-05-23T13:39:37Z</time>
      </trkpt>
      <trkpt lat="43.285733" lon="-4.217567">
        <ele>633.0</ele>
        <time>2015-05-23T13:39:38Z</time>
      </trkpt>
      <trkpt lat="43.285667" lon="-4.217467">
        <ele>636.0</ele>
        <time>2015-05-23T13:39:39Z</time>
      </trkpt>
      <trkpt lat="43.285633" lon="-4.217350">
        <ele>638.0</ele>
        <time>2015-05-23T13:39:40Z</time>
      </trkpt>
      <trkpt lat="43.285583" lon="-4.217250">
        <ele>640.0</ele>
        <time>2015-05-23T13:39:41Z</time>
      </trkpt>
      <trkpt lat="43.285550" lon="-4.217150">
        <ele>643.0</ele>
        <time>2015-05-23T13:39:42Z</time>
      </trkpt>
      <trkpt lat="43.285517" lon="-4.217050">
        <ele>645.0</ele>
        <time>2015-05-23T13:39:43Z</time>
      </trkpt>
      <trkpt lat="43.285500" lon="-4.216967">
        <ele>647.0</ele>
        <time>2015-05-23T13:39:44Z</time>
      </trkpt>
      <trkpt lat="43.285483" lon="-4.216900">
        <ele>649.0</ele>
        <time>2015-05-23T13:39:45Z</time>
      </trkpt>
      <trkpt lat="43.285483" lon="-4.216850">
        <ele>652.0</ele>
        <time>2015-05-23T13:39:46Z</time>
      </trkpt>
      <trkpt lat="43.285517" lon="-4.216850">
        <ele>653.0</ele>
        <time>2015-05-23T13:39:47Z</time>
      </trkpt>
      <trkpt lat="43.285633" lon="-4.216917">
        <ele>655.0</ele>
        <time>2015-05-23T13:39:48Z</time>
      </trkpt>
      <trkpt lat="43.285700" lon="-4.216917">
        <ele>656.0</ele>
        <time>2015-05-23T13:39:49Z</time>
      </trkpt>
      <trkpt lat="43.285733" lon="-4.216933">
        <ele>658.0</ele>
        <time>2015-05-23T13:39:50Z</time>
      </trkpt>
      <trkpt lat="43.285783" lon="-4.216950">
        <ele>660.0</ele>
        <time>2015-05-23T13:39:51Z</time>
      </trkpt>
      <trkpt lat="43.285817" lon="-4.217017">
        <ele>661.0</ele>
        <time>2015-05-23T13:39:52Z</time>
      </trkpt>
      <trkpt lat="43.285800" lon="-4.217117">
        <ele>663.0</ele>
        <time>2015-05-23T13:39:53Z</time>
      </trkpt>
      <trkpt lat="43.285783" lon="-4.217217">
        <ele>665.0</ele>
        <time>2015-05-23T13:39:54Z</time>
      </trkpt>
      <trkpt lat="43.285783" lon="-4.217300">
        <ele>666.0</ele>
        <time>2015-05-23T13:39:55Z</time>
      </trkpt>
      <trkpt lat="43.285783" lon="-4.217383">
        <ele>668.0</ele>
        <time>2015-05-23T13:39:56Z</time>
      </trkpt>
      <trkpt lat="43.285800" lon="-4.217467">
        <ele>669.0</ele>
        <time>2015-05-23T13:39:57Z</time>
      </trkpt>
      <trkpt lat="43.285783" lon="-4.217550">
        <ele>671.0</ele>
        <time>2015-05-23T13:39:58Z</time>
      </trkpt>
      <trkpt lat="43.285767" lon="-4.217650">
        <ele>672.0</ele>
        <time>2015-05-23T13:39:59Z</time>
      </trkpt>
      <trkpt lat="43.285750" lon="-4.217733">
        <ele>674.0</ele>
        <time>2015-05-23T13:40:00Z</time>
      </trkpt>
      <trkpt lat="43.285717" lon="-4.217817">
        <ele>675.0</ele>
        <time>2015-05-23T13:40:01Z</time>
      </trkpt>
      <trkpt lat="43.285667" lon="-4.217900">
        <ele>677.0</ele>
        <time>2015-05-23T13:40:02Z</time>
      </trkpt>
      <trkpt lat="43.285633" lon="-4.217967">
        <ele>678.0</ele>
        <time>2015-05-23T13:40:03Z</time>
      </trkpt>
      <trkpt lat="43.285600" lon="-4.218050">
        <ele>679.0</ele>
        <time>2015-05-23T13:40:04Z</time>
      </trkpt>
      <trkpt lat="43.285550" lon="-4.218117">
        <ele>681.0</ele>
        <time>2015-05-23T13:40:05Z</time>
      </trkpt>
      <trkpt lat="43.285517" lon="-4.218200">
        <ele>682.0</ele>
        <time>2015-05-23T13:40:06Z</time>
      </trkpt>
      <trkpt lat="43.285467" lon="-4.218267">
        <ele>684.0</ele>
        <time>2015-05-23T13:40:07Z</time>
      </trkpt>
      <trkpt lat="43.285433" lon="-4.218333">
        <ele>685.0</ele>
        <time>2015-05-23T13:40:08Z</time>
      </trkpt>
      <trkpt lat="43.285367" lon="-4.218383">
        <ele>687.0</ele>
        <time>2015-05-23T13:40:09Z</time>
      </trkpt>
      <trkpt lat="43.285317" lon="-4.218433">
        <ele>688.0</ele>
        <time>2015-05-23T13:40:10Z</time>
      </trkpt>
      <trkpt lat="43.285250" lon="-4.218500">
        <ele>690.0</ele>
        <time>2015-05-23T13:40:11Z</time>
      </trkpt>
      <trkpt lat="43.285183" lon="-4.218533">
        <ele>691.0</ele>
        <time>2015-05-23T13:40:12Z</time>
      </trkpt>
      <trkpt lat="43.285083" lon="-4.218533">
        <ele>693.0</ele>
        <time>2015-05-23T13:40:13Z</time>
      </trkpt>
      <trkpt lat="43.285000" lon="-4.218533">
        <ele>695.0</ele>
        <time>2015-05-23T13:40:14Z</time>
      </trkpt>
      <trkpt lat="43.284933" lon="-4.218550">
        <ele>697.0</ele>
        <time>2015-05-23T13:40:15Z</time>
      </trkpt>
      <trkpt lat="43.284850" lon="-4.218550">
        <ele>700.0</ele>
        <time>2015-05-23T13:40:16Z</time>
      </trkpt>
      <trkpt lat="43.284767" lon="-4.218550">
        <ele>701.0</ele>
        <time>2015-05-23T13:40:17Z</time>
      </trkpt>
      <trkpt lat="43.284700" lon="-4.218467">
        <ele>703.0</ele>
        <time>2015-05-23T13:40:18Z</time>
      </trkpt>
      <trkpt lat="43.284667" lon="-4.218350">
        <ele>706.0</ele>
        <time>2015-05-23T13:40:19Z</time>
      </trkpt>
      <trkpt lat="43.284617" lon="-4.218233">
        <ele>707.0</ele>
        <time>2015-05-23T13:40:20Z</time>
      </trkpt>
      <trkpt lat="43.284600" lon="-4.218150">
        <ele>709.0</ele>
        <time>2015-05-23T13:40:21Z</time>
      </trkpt>
      <trkpt lat="43.284567" lon="-4.218050">
        <ele>711.0</ele>
        <time>2015-05-23T13:40:22Z</time>
      </trkpt>
      <trkpt lat="43.284550" lon="-4.217950">
        <ele>714.0</ele>
        <time>2015-05-23T13:40:23Z</time>
      </trkpt>
      <trkpt lat="43.284617" lon="-4.217917">
        <ele>716.0</ele>
        <time>2015-05-23T13:40:24Z</time>
      </trkpt>
      <trkpt lat="43.284700" lon="-4.217900">
        <ele>718.0</ele>
        <time>2015-05-23T13:40:25Z</time>
      </trkpt>
      <trkpt lat="43.284733" lon="-4.217917">
        <ele>720.0</ele>
        <time>2015-05-23T13:40:26Z</time>
      </trkpt>
      <trkpt lat="43.284783" lon="-4.217950">
        <ele>722.0</ele>
        <time>2015-05-23T13:40:27Z</time>
      </trkpt>
      <trkpt lat="43.284817" lon="-4.218017">
        <ele>714.0</ele>
        <time>2015-05-23T13:40:28Z</time>
      </trkpt>
      <trkpt lat="43.284833" lon="-4.218083">
        <ele>714.0</ele>
        <time>2015-05-23T13:40:29Z</time>
      </trkpt>
      <trkpt lat="43.284817" lon="-4.218150">
        <ele>715.0</ele>
        <time>2015-05-23T13:40:30Z</time>
      </trkpt>
      <trkpt lat="43.284783" lon="-4.218200">
        <ele>717.0</ele>
        <time>2015-05-23T13:40:31Z</time>
      </trkpt>
      <trkpt lat="43.284767" lon="-4.218267">
        <ele>718.0</ele>
        <time>2015-05-23T13:40:32Z</time>
      </trkpt>
      <trkpt lat="43.284733" lon="-4.218317">
        <ele>719.0</ele>
        <time>2015-05-23T13:40:33Z</time>
      </trkpt>
      <trkpt lat="43.284717" lon="-4.218400">
        <ele>720.0</ele>
        <time>2015-05-23T13:40:34Z</time>
      </trkpt>
      <trkpt lat="43.284667" lon="-4.218467">
        <ele>721.0</ele>
        <time>2015-05-23T13:40:35Z</time>
      </trkpt>
      <trkpt lat="43.284617" lon="-4.218550">
        <ele>721.0</ele>
        <time>2015-05-23T13:40:36Z</time>
      </trkpt>
      <trkpt lat="43.284567" lon="-4.218617">
        <ele>722.0</ele>
        <time>2015-05-23T13:40:37Z</time>
      </trkpt>
      <trkpt lat="43.284500" lon="-4.218667">
        <ele>723.0</ele>
        <time>2015-05-23T13:40:38Z</time>
      </trkpt>
      <trkpt lat="43.284450" lon="-4.218700">
        <ele>724.0</ele>
        <time>2015-05-23T13:40:39Z</time>
      </trkpt>
      <trkpt lat="43.284383" lon="-4.218733">
        <ele>725.0</ele>
        <time>2015-05-23T13:40:40Z</time>
      </trkpt>
      <trkpt lat="43.284333" lon="-4.218783">
        <ele>725.0</ele>
        <time>2015-05-23T13:40:41Z</time>
      </trkpt>
      <trkpt lat="43.284250" lon="-4.218817">
        <ele>726.0</ele>
        <time>2015-05-23T13:40:42Z</time>
      </trkpt>
      <trkpt lat="43.284167" lon="-4.218850">
        <ele>727.0</ele>
        <time>2015-05-23T13:40:43Z</time>
      </trkpt>
      <trkpt lat="43.284083" lon="-4.218867">
        <ele>728.0</ele>
        <time>2015-05-23T13:40:44Z</time>
      </trkpt>
      <trkpt lat="43.284000" lon="-4.218883">
        <ele>729.0</ele>
        <time>2015-05-23T13:40:45Z</time>
      </trkpt>
      <trkpt lat="43.283917" lon="-4.218917">
        <ele>730.0</ele>
        <time>2015-05-23T13:40:46Z</time>
      </trkpt>
      <trkpt lat="43.283833" lon="-4.218950">
        <ele>731.0</ele>
        <time>2015-05-23T13:40:47Z</time>
      </trkpt>
      <trkpt lat="43.283767" lon="-4.218983">
        <ele>733.0</ele>
        <time>2015-05-23T13:40:48Z</time>
      </trkpt>
      <trkpt lat="43.283700" lon="-4.219017">
        <ele>735.0</ele>
        <time>2015-05-23T13:40:49Z</time>
      </trkpt>
      <trkpt lat="43.283617" lon="-4.219017">
        <ele>737.0</ele>
        <time>2015-05-23T13:40:50Z</time>
      </trkpt>
      <trkpt lat="43.283550" lon="-4.219017">
        <ele>738.0</ele>
        <time>2015-05-23T13:40:51Z</time>
      </trkpt>
      <trkpt lat="43.283483" lon="-4.219017">
        <ele>740.0</ele>
        <time>2015-05-23T13:40:52Z</time>
      </trkpt>
      <trkpt lat="43.283400" lon="-4.218967">
        <ele>741.0</ele>
        <time>2015-05-23T13:40:53Z</time>
      </trkpt>
      <trkpt lat="43.283333" lon="-4.218917">
        <ele>742.0</ele>
        <time>2015-05-23T13:40:54Z</time>
      </trkpt>
      <trkpt lat="43.283283" lon="-4.218833">
        <ele>744.0</ele>
        <time>2015-05-23T13:40:55Z</time>
      </trkpt>
      <trkpt lat="43.283250" lon="-4.218750">
        <ele>745.0</ele>
        <time>2015-05-23T13:40:56Z</time>
      </trkpt>
      <trkpt lat="43.283233" lon="-4.218667">
        <ele>746.0</ele>
        <time>2015-05-23T13:40:57Z</time>
      </trkpt>
      <trkpt lat="43.283233" lon="-4.218583">
        <ele>746.0</ele>
        <time>2015-05-23T13:40:58Z</time>
      </trkpt>
      <trkpt lat="43.283250" lon="-4.218500">
        <ele>747.0</ele>
        <time>2015-05-23T13:40:59Z</time>
      </trkpt>
      <trkpt lat="43.283283" lon="-4.218417">
        <ele>748.0</ele>
        <time>2015-05-23T13:41:00Z</time>
      </trkpt>
      <trkpt lat="43.283317" lon="-4.218333">
        <ele>749.0</ele>
        <time>2015-05-23T13:41:01Z</time>
      </trkpt>
      <trkpt lat="43.283350" lon="-4.218283">
        <ele>750.0</ele>
        <time>2015-05-23T13:41:02Z</time>
      </trkpt>
      <trkpt lat="43.283400" lon="-4.218250">
        <ele>752.0</ele>
        <time>2015-05-23T13:41:03Z</time>
      </trkpt>
      <trkpt lat="43.283450" lon="-4.218233">
        <ele>753.0</ele>
        <time>2015-05-23T13:41:04Z</time>
      </trkpt>
      <trkpt lat="43.283500" lon="-4.218217">
        <ele>755.0</ele>
        <time>2015-05-23T13:41:05Z</time>
      </trkpt>
      <trkpt lat="43.283533" lon="-4.218250">
        <ele>756.0</ele>
        <time>2015-05-23T13:41:06Z</time>
      </trkpt>
      <trkpt lat="43.283567" lon="-4.218300">
        <ele>757.0</ele>
        <time>2015-05-23T13:41:07Z</time>
      </trkpt>
      <trkpt lat="43.283600" lon="-4.218350">
        <ele>758.0</ele>
        <time>2015-05-23T13:41:08Z</time>
      </trkpt>
      <trkpt lat="43.283633" lon="-4.218400">
        <ele>760.0</ele>
        <time>2015-05-23T13:41:09Z</time>
      </trkpt>
      <trkpt lat="43.283667" lon="-4.218417">
        <ele>761.0</ele>
        <time>2015-05-23T13:41:10Z</time>
      </trkpt>
      <trkpt lat="43.283700" lon="-4.218433">
        <ele>763.0</ele>
        <time>2015-05-23T13:41:11Z</time>
      </trkpt>
      <trkpt lat="43.283733" lon="-4.218483">
        <ele>764.0</ele>
        <time>2015-05-23T13:41:12Z</time>
      </trkpt>
      <trkpt lat="43.283733" lon="-4.218533">
        <ele>765.0</ele>
        <time>2015-05-23T13:41:13Z</time>
      </trkpt>
      <trkpt lat="43.283733" lon="-4.218583">
        <ele>765.0</ele>
        <time>2015-05-23T13:41:14Z</time>
      </trkpt>
      <trkpt lat="43.283733" lon="-4.218633">
        <ele>766.0</ele>
        <time>2015-05-23T13:41:15Z</time>
      </trkpt>
      <trkpt lat="43.283717" lon="-4.218683">
        <ele>766.0</ele>
        <time>2015-05-23T13:41:16Z</time>
      </trkpt>
      <trkpt lat="43.283667" lon="-4.218733">
        <ele>767.0</ele>
        <time>2015-05-23T13:41:17Z</time>
      </trkpt>
      <trkpt lat="43.283617" lon="-4.218800">
        <ele>768.0</ele>
        <time>2015-05-23T13:41:18Z</time>
      </trkpt>
      <trkpt lat="43.283583" lon="-4.218850">
        <ele>768.0</ele>
        <time>2015-05-23T13:41:19Z</time>
      </trkpt>
      <trkpt lat="43.283517" lon="-4.218900">
        <ele>769.0</ele>
        <time>2015-05-23T13:41:20Z</time>
      </trkpt>
      <trkpt lat="43.283450" lon="-4.218967">
        <ele>769.0</ele>
        <time>2015-05-23T13:41:21Z</time>
      </trkpt>
      <trkpt lat="43.283367" lon="-4.218950">
        <ele>770.0</ele>
        <time>2015-05-23T13:41:22Z</time>
      </trkpt>
      <trkpt lat="43.283300" lon="-4.218917">
        <ele>771.0</ele>
        <time>2015-05-23T13:41:23Z</time>
      </trkpt>
      <trkpt lat="43.283217" lon="-4.218917">
        <ele>772.0</ele>
        <time>2015-05-23T13:41:24Z</time>
      </trkpt>
      <trkpt lat="43.283150" lon="-4.218900">
        <ele>772.0</ele>
        <time>2015-05-23T13:41:25Z</time>
      </trkpt>
      <trkpt lat="43.283067" lon="-4.218883">
        <ele>773.0</ele>
        <time>2015-05-23T13:41:26Z</time>
      </trkpt>
      <trkpt lat="43.282983" lon="-4.218850">
        <ele>774.0</ele>
        <time>2015-05-23T13:41:27Z</time>
      </trkpt>
      <trkpt lat="43.282917" lon="-4.218817">
        <ele>774.0</ele>
        <time>2015-05-23T13:41:28Z</time>
      </trkpt>
      <trkpt lat="43.282850" lon="-4.218783">
        <ele>775.0</ele>
        <time>2015-05-23T13:41:29Z</time>
      </trkpt>
      <trkpt lat="43.282767" lon="-4.218767">
        <ele>776.0</ele>
        <time>2015-05-23T13:41:30Z</time>
      </trkpt>
      <trkpt lat="43.282700" lon="-4.218750">
        <ele>777.0</ele>
        <time>2015-05-23T13:41:31Z</time>
      </trkpt>
      <trkpt lat="43.282633" lon="-4.218717">
        <ele>777.0</ele>
        <time>2015-05-23T13:41:32Z</time>
      </trkpt>
      <trkpt lat="43.282567" lon="-4.218667">
        <ele>777.0</ele>
        <time>2015-05-23T13:41:33Z</time>
      </trkpt>
      <trkpt lat="43.282517" lon="-4.218600">
        <ele>778.0</ele>
        <time>2015-05-23T13:41:34Z</time>
      </trkpt>
      <trkpt lat="43.282450" lon="-4.218550">
        <ele>779.0</ele>
        <time>2015-05-23T13:41:35Z</time>
      </trkpt>
      <trkpt lat="43.282400" lon="-4.218483">
        <ele>779.0</ele>
        <time>2015-05-23T13:41:36Z</time>
      </trkpt>
      <trkpt lat="43.282333" lon="-4.218417">
        <ele>780.0</ele>
        <time>2015-05-23T13:41:37Z</time>
      </trkpt>
      <trkpt lat="43.282283" lon="-4.218350">
        <ele>780.0</ele>
        <time>2015-05-23T13:41:38Z</time>
      </trkpt>
      <trkpt lat="43.282250" lon="-4.218267">
        <ele>781.0</ele>
        <time>2015-05-23T13:41:39Z</time>
      </trkpt>
      <trkpt lat="43.282250" lon="-4.218167">
        <ele>782.0</ele>
        <time>2015-05-23T13:41:40Z</time>
      </trkpt>
      <trkpt lat="43.282267" lon="-4.218050">
        <ele>783.0</ele>
        <time>2015-05-23T13:41:41Z</time>
      </trkpt>
      <trkpt lat="43.282333" lon="-4.217967">
        <ele>784.0</ele>
        <time>2015-05-23T13:41:42Z</time>
      </trkpt>
      <trkpt lat="43.282383" lon="-4.217883">
        <ele>785.0</ele>
        <time>2015-05-23T13:41:43Z</time>
      </trkpt>
      <trkpt lat="43.282433" lon="-4.217817">
        <ele>787.0</ele>
        <time>2015-05-23T13:41:44Z</time>
      </trkpt>
      <trkpt lat="43.282450" lon="-4.217750">
        <ele>788.0</ele>
        <time>2015-05-23T13:41:45Z</time>
      </trkpt>
      <trkpt lat="43.282483" lon="-4.217667">
        <ele>789.0</ele>
        <time>2015-05-23T13:41:46Z</time>
      </trkpt>
      <trkpt lat="43.282500" lon="-4.217617">
        <ele>791.0</ele>
        <time>2015-05-23T13:41:47Z</time>
      </trkpt>
      <trkpt lat="43.282550" lon="-4.217567">
        <ele>793.0</ele>
        <time>2015-05-23T13:41:48Z</time>
      </trkpt>
      <trkpt lat="43.282600" lon="-4.217583">
        <ele>795.0</ele>
        <time>2015-05-23T13:41:49Z</time>
      </trkpt>
      <trkpt lat="43.282667" lon="-4.217633">
        <ele>797.0</ele>
        <time>2015-05-23T13:41:50Z</time>
      </trkpt>
      <trkpt lat="43.282717" lon="-4.217667">
        <ele>798.0</ele>
        <time>2015-05-23T13:41:51Z</time>
      </trkpt>
      <trkpt lat="43.282733" lon="-4.217717">
        <ele>800.0</ele>
        <time>2015-05-23T13:41:52Z</time>
      </trkpt>
      <trkpt lat="43.282750" lon="-4.217800">
        <ele>802.0</ele>
        <time>2015-05-23T13:41:53Z</time>
      </trkpt>
      <trkpt lat="43.282767" lon="-4.217850">
        <ele>804.0</ele>
        <time>2015-05-23T13:41:54Z</time>
      </trkpt>
      <trkpt lat="43.282783" lon="-4.217900">
        <ele>806.0</ele>
        <time>2015-05-23T13:41:55Z</time>
      </trkpt>
      <trkpt lat="43.282800" lon="-4.217950">
        <ele>808.0</ele>
        <time>2015-05-23T13:41:56Z</time>
      </trkpt>
      <trkpt lat="43.282817" lon="-4.218000">
        <ele>810.0</ele>
        <time>2015-05-23T13:41:57Z</time>
      </trkpt>
      <trkpt lat="43.282817" lon="-4.218033">
        <ele>811.0</ele>
        <time>2015-05-23T13:41:58Z</time>
      </trkpt>
      <trkpt lat="43.282783" lon="-4.218117">
        <ele>813.0</ele>
        <time>2015-05-23T13:41:59Z</time>
      </trkpt>
      <trkpt lat="43.282767" lon="-4.218183">
        <ele>815.0</ele>
        <time>2015-05-23T13:42:00Z</time>
      </trkpt>
      <trkpt lat="43.282767" lon="-4.218250">
        <ele>817.0</ele>
        <time>2015-05-23T13:42:01Z</time>
      </trkpt>
      <trkpt lat="43.282750" lon="-4.218317">
        <ele>818.0</ele>
        <time>2015-05-23T13:42:02Z</time>
      </trkpt>
      <trkpt lat="43.282750" lon="-4.218400">
        <ele>820.0</ele>
        <time>2015-05-23T13:42:03Z</time>
      </trkpt>
      <trkpt lat="43.282733" lon="-4.218467">
        <ele>822.0</ele>
        <time>2015-05-23T13:42:04Z</time>
      </trkpt>
      <trkpt lat="43.282733" lon="-4.218517">
        <ele>824.0</ele>
        <time>2015-05-23T13:42:05Z</time>
      </trkpt>
      <trkpt lat="43.282733" lon="-4.218600">
        <ele>826.0</ele>
        <time>2015-05-23T13:42:06Z</time>
      </trkpt>
      <trkpt lat="43.282733" lon="-4.218667">
        <ele>828.0</ele>
        <time>2015-05-23T13:42:07Z</time>
      </trkpt>
      <trkpt lat="43.282717" lon="-4.218750">
        <ele>830.0</ele>
        <time>2015-05-23T13:42:08Z</time>
      </trkpt>
      <trkpt lat="43.282700" lon="-4.218817">
        <ele>833.0</ele>
        <time>2015-05-23T13:42:09Z</time>
      </trkpt>
      <trkpt lat="43.282700" lon="-4.218883">
        <ele>834.0</ele>
        <time>2015-05-23T13:42:10Z</time>
      </trkpt>
      <trkpt lat="43.282683" lon="-4.218967">
        <ele>836.0</ele>
        <time>2015-05-23T13:42:11Z</time>
      </trkpt>
      <trkpt lat="43.282667" lon="-4.219033">
        <ele>838.0</ele>
        <time>2015-05-23T13:42:12Z</time>
      </trkpt>
      <trkpt lat="43.282633" lon="-4.219100">
        <ele>841.0</ele>
        <time>2015-05-23T13:42:13Z</time>
      </trkpt>
      <trkpt lat="43.282617" lon="-4.219150">
        <ele>843.0</ele>
        <time>2015-05-23T13:42:14Z</time>
      </trkpt>
      <trkpt lat="43.282583" lon="-4.219200">
        <ele>845.0</ele>
        <time>2015-05-23T13:42:15Z</time>
      </trkpt>
      <trkpt lat="43.282550" lon="-4.219267">
        <ele>849.0</ele>
        <time>2015-05-23T13:42:16Z</time>
      </trkpt>
      <trkpt lat="43.282517" lon="-4.219333">
        <ele>850.0</ele>
        <time>2015-05-23T13:42:17Z</time>
      </trkpt>
      <trkpt lat="43.282483" lon="-4.219367">
        <ele>852.0</ele>
        <time>2015-05-23T13:42:18Z</time>
      </trkpt>
      <trkpt lat="43.282417" lon="-4.219383">
        <ele>856.0</ele>
        <time>2015-05-23T13:42:19Z</time>
      </trkpt>
      <trkpt lat="43.282333" lon="-4.219433">
        <ele>858.0</ele>
        <time>2015-05-23T13:42:20Z</time>
      </trkpt>
      <trkpt lat="43.282250" lon="-4.219483">
        <ele>863.0</ele>
        <time>2015-05-23T13:42:21Z</time>
      </trkpt>
      <trkpt lat="43.282167" lon="-4.219517">
        <ele>868.0</ele>
        <time>2015-05-23T13:42:22Z</time>
      </trkpt>
      <trkpt lat="43.282083" lon="-4.219567">
        <ele>871.0</ele>
        <time>2015-05-23T13:42:23Z</time>
      </trkpt>
      <trkpt lat="43.282017" lon="-4.219567">
        <ele>876.0</ele>
        <time>2015-05-23T13:42:24Z</time>
      </trkpt>
      <trkpt lat="43.281933" lon="-4.219583">
        <ele>880.0</ele>
        <time>2015-05-23T13:42:25Z</time>
      </trkpt>
      <trkpt lat="43.281850" lon="-4.219600">
        <ele>885.0</ele>
        <time>2015-05-23T13:42:26Z</time>
      </trkpt>
      <trkpt lat="43.281717" lon="-4.219467">
        <ele>889.0</ele>
        <time>2015-05-23T13:42:27Z</time>
      </trkpt>
      <trkpt lat="43.281617" lon="-4.219367">
        <ele>896.0</ele>
        <time>2015-05-23T13:42:28Z</time>
      </trkpt>
      <trkpt lat="43.281533" lon="-4.219250">
        <ele>902.0</ele>
        <time>2015-05-23T13:42:29Z</time>
      </trkpt>
      <trkpt lat="43.281450" lon="-4.219183">
        <ele>907.0</ele>
        <time>2015-05-23T13:42:30Z</time>
      </trkpt>
      <trkpt lat="43.281367" lon="-4.219100">
        <ele>912.0</ele>
        <time>2015-05-23T13:42:31Z</time>
      </trkpt>
      <trkpt lat="43.281300" lon="-4.219000">
        <ele>918.0</ele>
        <time>2015-05-23T13:42:32Z</time>
      </trkpt>
      <trkpt lat="43.281267" lon="-4.218917">
        <ele>925.0</ele>
        <time>2015-05-23T13:42:33Z</time>
      </trkpt>
      <trkpt lat="43.281267" lon="-4.218850">
        <ele>930.0</ele>
        <time>2015-05-23T13:42:34Z</time>
      </trkpt>
      <trkpt lat="43.281267" lon="-4.218800">
        <ele>936.0</ele>
        <time>2015-05-23T13:42:35Z</time>
      </trkpt>
      <trkpt lat="43.281333" lon="-4.218717">
        <ele>942.0</ele>
        <time>2015-05-23T13:42:36Z</time>
      </trkpt>
      <trkpt lat="43.281350" lon="-4.218683">
        <ele>949.0</ele>
        <time>2015-05-23T13:42:37Z</time>
      </trkpt>
      <trkpt lat="43.281383" lon="-4.218683">
        <ele>954.0</ele>
        <time>2015-05-23T13:42:38Z</time>
      </trkpt>
      <trkpt lat="43.281417" lon="-4.218717">
        <ele>959.0</ele>
        <time>2015-05-23T13:42:39Z</time>
      </trkpt>
      <trkpt lat="43.281450" lon="-4.218750">
        <ele>966.0</ele>
        <time>2015-05-23T13:42:40Z</time>
      </trkpt>
      <trkpt lat="43.281483" lon="-4.218783">
        <ele>972.0</ele>
        <time>2015-05-23T13:42:41Z</time>
      </trkpt>
      <trkpt lat="43.281517" lon="-4.218800">
        <ele>979.0</ele>
        <time>2015-05-23T13:42:42Z</time>
      </trkpt>
      <trkpt lat="43.281517" lon="-4.218833">
        <ele>985.0</ele>
        <time>2015-05-23T13:42:43Z</time>
      </trkpt>
      <trkpt lat="43.281517" lon="-4.218850">
        <ele>991.0</ele>
        <time>2015-05-23T13:42:44Z</time>
      </trkpt>
      <trkpt lat="43.281517" lon="-4.218883">
        <ele>996.0</ele>
        <time>2015-05-23T13:42:45Z</time>
      </trkpt>
      <trkpt lat="43.281517" lon="-4.218933">
        <ele>1002.0</ele>
        <time>2015-05-23T13:42:46Z</time>
      </trkpt>
      <trkpt lat="43.281500" lon="-4.218983">
        <ele>1008.0</ele>
        <time>2015-05-23T13:42:47Z</time>
      </trkpt>
      <trkpt lat="43.281433" lon="-4.219050">
        <ele>1014.0</ele>
        <time>2015-05-23T13:42:48Z</time>
      </trkpt>
      <trkpt lat="43.281400" lon="-4.219100">
        <ele>1019.0</ele>
        <time>2015-05-23T13:42:49Z</time>
      </trkpt>
      <trkpt lat="43.281383" lon="-4.219150">
        <ele>1025.0</ele>
        <time>2015-05-23T13:42:50Z</time>
      </trkpt>
      <trkpt lat="43.281367" lon="-4.219200">
        <ele>1030.0</ele>
        <time>2015-05-23T13:42:51Z</time>
      </trkpt>
      <trkpt lat="43.281300" lon="-4.219300">
        <ele>1035.0</ele>
        <time>2015-05-23T13:42:52Z</time>
      </trkpt>
      <trkpt lat="43.281267" lon="-4.219383">
        <ele>1040.0</ele>
        <time>2015-05-23T13:42:53Z</time>
      </trkpt>
      <trkpt lat="43.281233" lon="-4.219450">
        <ele>1043.0</ele>
        <time>2015-05-23T13:42:54Z</time>
      </trkpt>
      <trkpt lat="43.281183" lon="-4.219517">
        <ele>1047.0</ele>
        <time>2015-05-23T13:42:55Z</time>
      </trkpt>
      <trkpt lat="43.281133" lon="-4.219583">
        <ele>1051.0</ele>
        <time>2015-05-23T13:42:56Z</time>
      </trkpt>
      <trkpt lat="43.281083" lon="-4.219650">
        <ele>1055.0</ele>
        <time>2015-05-23T13:42:57Z</time>
      </trkpt>
      <trkpt lat="43.281017" lon="-4.219700">
        <ele>1059.0</ele>
        <time>2015-05-23T13:42:58Z</time>
      </trkpt>
      <trkpt lat="43.280933" lon="-4.219750">
        <ele>1063.0</ele>
        <time>2015-05-23T13:42:59Z</time>
      </trkpt>
      <trkpt lat="43.280817" lon="-4.219750">
        <ele>1066.0</ele>
        <time>2015-05-23T13:43:00Z</time>
      </trkpt>
      <trkpt lat="43.280683" lon="-4.219767">
        <ele>1070.0</ele>
        <time>2015-05-23T13:43:01Z</time>
      </trkpt>
      <trkpt lat="43.280600" lon="-4.219800">
        <ele>1073.0</ele>
        <time>2015-05-23T13:43:02Z</time>
      </trkpt>
      <trkpt lat="43.280500" lon="-4.219833">
        <ele>1077.0</ele>
        <time>2015-05-23T13:43:03Z</time>
      </trkpt>
      <trkpt lat="43.280400" lon="-4.219867">
        <ele>1081.0</ele>
        <time>2015-05-23T13:43:04Z</time>
      </trkpt>
      <trkpt lat="43.280300" lon="-4.219900">
        <ele>1084.0</ele>
        <time>2015-05-23T13:43:05Z</time>
      </trkpt>
      <trkpt lat="43.280200" lon="-4.219950">
        <ele>1088.0</ele>
        <time>2015-05-23T13:43:06Z</time>
      </trkpt>
      <trkpt lat="43.280083" lon="-4.219983">
        <ele>1092.0</ele>
        <time>2015-05-23T13:43:07Z</time>
      </trkpt>
      <trkpt lat="43.279983" lon="-4.220000">
        <ele>1095.0</ele>
        <time>2015-05-23T13:43:08Z</time>
      </trkpt>
      <trkpt lat="43.279900" lon="-4.220000">
        <ele>1099.0</ele>
        <time>2015-05-23T13:43:09Z</time>
      </trkpt>
      <trkpt lat="43.279817" lon="-4.219983">
        <ele>1102.0</ele>
        <time>2015-05-23T13:43:10Z</time>
      </trkpt>
      <trkpt lat="43.279733" lon="-4.219967">
        <ele>1106.0</ele>
        <time>2015-05-23T13:43:11Z</time>
      </trkpt>
      <trkpt lat="43.279633" lon="-4.219967">
        <ele>1109.0</ele>
        <time>2015-05-23T13:43:12Z</time>
      </trkpt>
      <trkpt lat="43.279550" lon="-4.219950">
        <ele>1113.0</ele>
        <time>2015-05-23T13:43:13Z</time>
      </trkpt>
      <trkpt lat="43.279467" lon="-4.219917">
        <ele>1116.0</ele>
        <time>2015-05-23T13:43:14Z</time>
      </trkpt>
      <trkpt lat="43.279367" lon="-4.219850">
        <ele>1119.0</ele>
        <time>2015-05-23T13:43:15Z</time>
      </trkpt>
      <trkpt lat="43.279250" lon="-4.219783">
        <ele>1121.0</ele>
        <time>2015-05-23T13:43:16Z</time>
      </trkpt>
      <trkpt lat="43.279150" lon="-4.219700">
        <ele>1123.0</ele>
        <time>2015-05-23T13:43:17Z</time>
      </trkpt>
      <trkpt lat="43.279067" lon="-4.219633">
        <ele>1126.0</ele>
        <time>2015-05-23T13:43:18Z</time>
      </trkpt>
      <trkpt lat="43.278983" lon="-4.219567">
        <ele>1129.0</ele>
        <time>2015-05-23T13:43:19Z</time>
      </trkpt>
      <trkpt lat="43.278917" lon="-4.219483">
        <ele>1131.0</ele>
        <time>2015-05-23T13:43:20Z</time>
      </trkpt>
      <trkpt lat="43.278883" lon="-4.219383">
        <ele>1133.0</ele>
        <time>2015-05-23T13:43:21Z</time>
      </trkpt>
      <trkpt lat="43.278883" lon="-4.219250">
        <ele>1135.0</ele>
        <time>2015-05-23T13:43:22Z</time>
      </trkpt>
      <trkpt lat="43.278850" lon="-4.219133">
        <ele>1137.0</ele>
        <time>2015-05-23T13:43:23Z</time>
      </trkpt>
      <trkpt lat="43.278800" lon="-4.219033">
        <ele>1139.0</ele>
        <time>2015-05-23T13:43:24Z</time>
      </trkpt>
      <trkpt lat="43.278767" lon="-4.218933">
        <ele>1141.0</ele>
        <time>2015-05-23T13:43:25Z</time>
      </trkpt>
      <trkpt lat="43.278733" lon="-4.218833">
        <ele>1144.0</ele>
        <time>2015-05-23T13:43:26Z</time>
      </trkpt>
      <trkpt lat="43.278733" lon="-4.218733">
        <ele>1146.0</ele>
        <time>2015-05-23T13:43:27Z</time>
      </trkpt>
      <trkpt lat="43.278800" lon="-4.218617">
        <ele>1147.0</ele>
        <time>2015-05-23T13:43:28Z</time>
      </trkpt>
      <trkpt lat="43.278800" lon="-4.218517">
        <ele>1150.0</ele>
        <time>2015-05-23T13:43:29Z</time>
      </trkpt>
      <trkpt lat="43.278783" lon="-4.218400">
        <ele>1152.0</ele>
        <time>2015-05-23T13:43:30Z</time>
      </trkpt>
      <trkpt lat="43.278783" lon="-4.218300">
        <ele>1154.0</ele>
        <time>2015-05-23T13:43:31Z</time>
      </trkpt>
      <trkpt lat="43.278800" lon="-4.218200">
        <ele>1156.0</ele>
        <time>2015-05-23T13:43:32Z</time>
      </trkpt>
      <trkpt lat="43.278800" lon="-4.218117">
        <ele>1158.0</ele>
        <time>2015-05-23T13:43:33Z</time>
      </trkpt>
      <trkpt lat="43.278800" lon="-4.218017">
        <ele>1160.0</ele>
        <time>2015-05-23T13:43:34Z</time>
      </trkpt>
      <trkpt lat="43.278817" lon="-4.217917">
        <ele>1162.0</ele>
        <time>2015-05-23T13:43:35Z</time>
      </trkpt>
      <trkpt lat="43.278833" lon="-4.217817">
        <ele>1164.0</ele>
        <time>2015-05-23T13:43:36Z</time>
      </trkpt>
      <trkpt lat="43.278867" lon="-4.217717">
        <ele>1166.0</ele>
        <time>2015-05-23T13:43:37Z</time>
      </trkpt>
      <trkpt lat="43.278900" lon="-4.217633">
        <ele>1168.0</ele>
        <time>2015-05-23T13:43:38Z</time>
      </trkpt>
      <trkpt lat="43.278950" lon="-4.217550">
        <ele>1169.0</ele>
        <time>2015-05-23T13:43:39Z</time>
      </trkpt>
      <trkpt lat="43.279017" lon="-4.217433">
        <ele>1171.0</ele>
        <time>2015-05-23T13:43:40Z</time>
      </trkpt>
      <trkpt lat="43.279033" lon="-4.217300">
        <ele>1173.0</ele>
        <time>2015-05-23T13:43:41Z</time>
      </trkpt>
      <trkpt lat="43.279067" lon="-4.217183">
        <ele>1175.0</ele>
        <time>2015-05-23T13:43:42Z</time>
      </trkpt>
      <trkpt lat="43.279117" lon="-4.217067">
        <ele>1177.0</ele>
        <time>2015-05-23T13:43:43Z</time>
      </trkpt>
      <trkpt lat="43.279150" lon="-4.216933">
        <ele>1178.0</ele>
        <time>2015-05-23T13:43:44Z</time>
      </trkpt>
      <trkpt lat="43.279200" lon="-4.216817">
        <ele>1180.0</ele>
        <time>2015-05-23T13:43:45Z</time>
      </trkpt>
      <trkpt lat="43.279233" lon="-4.216700">
        <ele>1182.0</ele>
        <time>2015-05-23T13:43:46Z</time>
      </trkpt>
      <trkpt lat="43.279283" lon="-4.216583">
        <ele>1184.0</ele>
        <time>2015-05-23T13:43:47Z</time>
      </trkpt>
      <trkpt lat="43.279333" lon="-4.216467">
        <ele>1186.0</ele>
        <time>2015-05-23T13:43:48Z</time>
      </trkpt>
      <trkpt lat="43.279367" lon="-4.216367">
        <ele>1187.0</ele>
        <time>2015-05-23T13:43:49Z</time>
      </trkpt>
      <trkpt lat="43.279417" lon="-4.216250">
        <ele>1189.0</ele>
        <time>2015-05-23T13:43:50Z</time>
      </trkpt>
      <trkpt lat="43.279467" lon="-4.216117">
        <ele>1191.0</ele>
        <time>2015-05-23T13:43:51Z</time>
      </trkpt>
      <trkpt lat="43.279533" lon="-4.216000">
        <ele>1193.0</ele>
        <time>2015-05-23T13:43:52Z</time>
      </trkpt>
      <trkpt lat="43.279600" lon="-4.215900">
        <ele>1194.0</ele>
        <time>2015-05-23T13:43:53Z</time>
      </trkpt>
      <trkpt lat="43.279667" lon="-4.215783">
        <ele>1196.0</ele>
        <time>2015-05-23T13:43:54Z</time>
      </trkpt>
      <trkpt lat="43.279717" lon="-4.215667">
        <ele>1197.0</ele>
        <time>2015-05-23T13:43:55Z</time>
      </trkpt>
      <trkpt lat="43.279767" lon="-4.215550">
        <ele>1198.0</ele>
        <time>2015-05-23T13:43:56Z</time>
      </trkpt>
      <trkpt lat="43.279833" lon="-4.215433">
        <ele>1199.0</ele>
        <time>2015-05-23T13:43:57Z</time>
      </trkpt>
      <trkpt lat="43.279883" lon="-4.215317">
        <ele>1200.0</ele>
        <time>2015-05-23T13:43:58Z</time>
      </trkpt>
      <trkpt lat="43.279950" lon="-4.215217">
        <ele>1201.0</ele>
        <time>2015-05-23T13:43:59Z</time>
      </trkpt>
      <trkpt lat="43.280000" lon="-4.215100">
        <ele>1202.0</ele>
        <time>2015-05-23T13:44:00Z</time>
      </trkpt>
      <trkpt lat="43.280067" lon="-4.214983">
        <ele>1203.0</ele>
        <time>2015-05-23T13:44:01Z</time>
      </trkpt>
      <trkpt lat="43.280133" lon="-4.214867">
        <ele>1204.0</ele>
        <time>2015-05-23T13:44:02Z</time>
      </trkpt>
      <trkpt lat="43.280200" lon="-4.214750">
        <ele>1204.0</ele>
        <time>2015-05-23T13:44:03Z</time>
      </trkpt>
      <trkpt lat="43.280267" lon="-4.214617">
        <ele>1204.0</ele>
        <time>2015-05-23T13:44:04Z</time>
      </trkpt>
      <trkpt lat="43.280317" lon="-4.214483">
        <ele>1205.0</ele>
        <time>2015-05-23T13:44:05Z</time>
      </trkpt>
      <trkpt lat="43.280383" lon="-4.214367">
        <ele>1205.0</ele>
        <time>2015-05-23T13:44:06Z</time>
      </trkpt>
      <trkpt lat="43.280433" lon="-4.214283">
        <ele>1203.0</ele>
        <time>2015-05-23T13:44:07Z</time>
      </trkpt>
      <trkpt lat="43.280483" lon="-4.214217">
        <ele>1197.0</ele>
        <time>2015-05-23T13:44:08Z</time>
      </trkpt>
      <trkpt lat="43.280533" lon="-4.214133">
        <ele>1194.0</ele>
        <time>2015-05-23T13:44:09Z</time>
      </trkpt>
      <trkpt lat="43.280600" lon="-4.214033">
        <ele>1192.0</ele>
        <time>2015-05-23T13:44:10Z</time>
      </trkpt>
      <trkpt lat="43.280650" lon="-4.213933">
        <ele>1191.0</ele>
        <time>2015-05-23T13:44:11Z</time>
      </trkpt>
      <trkpt lat="43.280700" lon="-4.213833">
        <ele>1189.0</ele>
        <time>2015-05-23T13:44:12Z</time>
      </trkpt>
      <trkpt lat="43.280750" lon="-4.213750">
        <ele>1187.0</ele>
        <time>2015-05-23T13:44:13Z</time>
      </trkpt>
      <trkpt lat="43.280817" lon="-4.213667">
        <ele>1186.0</ele>
        <time>2015-05-23T13:44:14Z</time>
      </trkpt>
      <trkpt lat="43.280867" lon="-4.213583">
        <ele>1185.0</ele>
        <time>2015-05-23T13:44:15Z</time>
      </trkpt>
      <trkpt lat="43.280900" lon="-4.213500">
        <ele>1184.0</ele>
        <time>2015-05-23T13:44:16Z</time>
      </trkpt>
      <trkpt lat="43.280933" lon="-4.213417">
        <ele>1183.0</ele>
        <time>2015-05-23T13:44:17Z</time>
      </trkpt>
      <trkpt lat="43.280967" lon="-4.213317">
        <ele>1182.0</ele>
        <time>2015-05-23T13:44:18Z</time>
      </trkpt>
      <trkpt lat="43.281000" lon="-4.213217">
        <ele>1181.0</ele>
        <time>2015-05-23T13:44:19Z</time>
      </trkpt>
      <trkpt lat="43.281050" lon="-4.213100">
        <ele>1180.0</ele>
        <time>2015-05-23T13:44:20Z</time>
      </trkpt>
      <trkpt lat="43.281067" lon="-4.212983">
        <ele>1179.0</ele>
        <time>2015-05-23T13:44:21Z</time>
      </trkpt>
      <trkpt lat="43.281083" lon="-4.212850">
        <ele>1178.0</ele>
        <time>2015-05-23T13:44:22Z</time>
      </trkpt>
      <trkpt lat="43.281100" lon="-4.212717">
        <ele>1177.0</ele>
        <time>2015-05-23T13:44:23Z</time>
      </trkpt>
      <trkpt lat="43.281117" lon="-4.212600">
        <ele>1176.0</ele>
        <time>2015-05-23T13:44:24Z</time>
      </trkpt>
      <trkpt lat="43.281150" lon="-4.212467">
        <ele>1175.0</ele>
        <time>2015-05-23T13:44:25Z</time>
      </trkpt>
      <trkpt lat="43.281167" lon="-4.212317">
        <ele>1174.0</ele>
        <time>2015-05-23T13:44:26Z</time>
      </trkpt>
      <trkpt lat="43.281167" lon="-4.212200">
        <ele>1172.0</ele>
        <time>2015-05-23T13:44:27Z</time>
      </trkpt>
      <trkpt lat="43.281183" lon="-4.212050">
        <ele>1171.0</ele>
        <time>2015-05-23T13:44:28Z</time>
      </trkpt>
      <trkpt lat="43.281200" lon="-4.211917">
        <ele>1169.0</ele>
        <time>2015-05-23T13:44:29Z</time>
      </trkpt>
      <trkpt lat="43.281200" lon="-4.211783">
        <ele>1167.0</ele>
        <time>2015-05-23T13:44:30Z</time>
      </trkpt>
      <trkpt lat="43.281217" lon="-4.211650">
        <ele>1165.0</ele>
        <time>2015-05-23T13:44:31Z</time>
      </trkpt>
      <trkpt lat="43.281217" lon="-4.211517">
        <ele>1162.0</ele>
        <time>2015-05-23T13:44:32Z</time>
      </trkpt>
      <trkpt lat="43.281217" lon="-4.211367">
        <ele>1159.0</ele>
        <time>2015-05-23T13:44:33Z</time>
      </trkpt>
      <trkpt lat="43.281200" lon="-4.211217">
        <ele>1155.0</ele>
        <time>2015-05-23T13:44:34Z</time>
      </trkpt>
      <trkpt lat="43.281200" lon="-4.211050">
        <ele>1152.0</ele>
        <time>2015-05-23T13:44:35Z</time>
      </trkpt>
      <trkpt lat="43.281217" lon="-4.210883">
        <ele>1150.0</ele>
        <time>2015-05-23T13:44:36Z</time>
      </trkpt>
      <trkpt lat="43.281283" lon="-4.210750">
        <ele>1156.0</ele>
        <time>2015-05-23T13:44:37Z</time>
      </trkpt>
      <trkpt lat="43.281317" lon="-4.210617">
        <ele>1154.0</ele>
        <time>2015-05-23T13:44:38Z</time>
      </trkpt>
      <trkpt lat="43.281333" lon="-4.210467">
        <ele>1153.0</ele>
        <time>2015-05-23T13:44:39Z</time>
      </trkpt>
      <trkpt lat="43.281383" lon="-4.210317">
        <ele>1151.0</ele>
        <time>2015-05-23T13:44:40Z</time>
      </trkpt>
      <trkpt lat="43.281433" lon="-4.210183">
        <ele>1150.0</ele>
        <time>2015-05-23T13:44:41Z</time>
      </trkpt>
      <trkpt lat="43.281467" lon="-4.210050">
        <ele>1149.0</ele>
        <time>2015-05-23T13:44:42Z</time>
      </trkpt>
      <trkpt lat="43.281500" lon="-4.209933">
        <ele>1148.0</ele>
        <time>2015-05-23T13:44:43Z</time>
      </trkpt>
      <trkpt lat="43.281533" lon="-4.209817">
        <ele>1147.0</ele>
        <time>2015-05-23T13:44:44Z</time>
      </trkpt>
      <trkpt lat="43.281567" lon="-4.209683">
        <ele>1146.0</ele>
        <time>2015-05-23T13:44:45Z</time>
      </trkpt>
      <trkpt lat="43.281633" lon="-4.209550">
        <ele>1144.0</ele>
        <time>2015-05-23T13:44:46Z</time>
      </trkpt>
      <trkpt lat="43.281700" lon="-4.209417">
        <ele>1142.0</ele>
        <time>2015-05-23T13:44:47Z</time>
      </trkpt>
      <trkpt lat="43.281750" lon="-4.209283">
        <ele>1140.0</ele>
        <time>2015-05-23T13:44:48Z</time>
      </trkpt>
      <trkpt lat="43.281800" lon="-4.209133">
        <ele>1144.0</ele>
        <time>2015-05-23T13:44:49Z</time>
      </trkpt>
      <trkpt lat="43.281833" lon="-4.209017">
        <ele>1143.0</ele>
        <time>2015-05-23T13:44:50Z</time>
      </trkpt>
      <trkpt lat="43.281867" lon="-4.208900">
        <ele>1142.0</ele>
        <time>2015-05-23T13:44:51Z</time>
      </trkpt>
      <trkpt lat="43.281917" lon="-4.208800">
        <ele>1143.0</ele>
        <time>2015-05-23T13:44:52Z</time>
      </trkpt>
      <trkpt lat="43.281950" lon="-4.208683">
        <ele>1142.0</ele>
        <time>2015-05-23T13:44:53Z</time>
      </trkpt>
      <trkpt lat="43.281983" lon="-4.208567">
        <ele>1142.0</ele>
        <time>2015-05-23T13:44:54Z</time>
      </trkpt>
      <trkpt lat="43.282000" lon="-4.208450">
        <ele>1142.0</ele>
        <time>2015-05-23T13:44:55Z</time>
      </trkpt>
      <trkpt lat="43.282050" lon="-4.208350">
        <ele>1141.0</ele>
        <time>2015-05-23T13:44:56Z</time>
      </trkpt>
      <trkpt lat="43.282100" lon="-4.208250">
        <ele>1141.0</ele>
        <time>2015-05-23T13:44:57Z</time>
      </trkpt>
      <trkpt lat="43.282133" lon="-4.208150">
        <ele>1141.0</ele>
        <time>2015-05-23T13:44:58Z</time>
      </trkpt>
      <trkpt lat="43.282183" lon="-4.208050">
        <ele>1140.0</ele>
        <time>2015-05-23T13:44:59Z</time>
      </trkpt>
      <trkpt lat="43.282233" lon="-4.207950">
        <ele>1140.0</ele>
        <time>2015-05-23T13:45:00Z</time>
      </trkpt>
      <trkpt lat="43.282267" lon="-4.207833">
        <ele>1140.0</ele>
        <time>2015-05-23T13:45:01Z</time>
      </trkpt>
      <trkpt lat="43.282333" lon="-4.207717">
        <ele>1139.0</ele>
        <time>2015-05-23T13:45:02Z</time>
      </trkpt>
      <trkpt lat="43.282383" lon="-4.207600">
        <ele>1139.0</ele>
        <time>2015-05-23T13:45:03Z</time>
      </trkpt>
      <trkpt lat="43.282433" lon="-4.207483">
        <ele>1138.0</ele>
        <time>2015-05-23T13:45:04Z</time>
      </trkpt>
      <trkpt lat="43.282483" lon="-4.207367">
        <ele>1137.0</ele>
        <time>2015-05-23T13:45:05Z</time>
      </trkpt>
      <trkpt lat="43.282533" lon="-4.207250">
        <ele>1137.0</ele>
        <time>2015-05-23T13:45:06Z</time>
      </trkpt>
      <trkpt lat="43.282583" lon="-4.207133">
        <ele>1136.0</ele>
        <time>2015-05-23T13:45:07Z</time>
      </trkpt>
      <trkpt lat="43.282650" lon="-4.206983">
        <ele>1136.0</ele>
        <time>2015-05-23T13:45:08Z</time>
      </trkpt>
      <trkpt lat="43.282717" lon="-4.206867">
        <ele>1135.0</ele>
        <time>2015-05-23T13:45:09Z</time>
      </trkpt>
      <trkpt lat="43.282767" lon="-4.206750">
        <ele>1135.0</ele>
        <time>2015-05-23T13:45:10Z</time>
      </trkpt>
      <trkpt lat="43.282817" lon="-4.206633">
        <ele>1134.0</ele>
        <time>2015-05-23T13:45:11Z</time>
      </trkpt>
      <trkpt lat="43.282867" lon="-4.206500">
        <ele>1134.0</ele>
        <time>2015-05-23T13:45:12Z</time>
      </trkpt>
      <trkpt lat="43.282917" lon="-4.206383">
        <ele>1133.0</ele>
        <time>2015-05-23T13:45:13Z</time>
      </trkpt>
      <trkpt lat="43.282983" lon="-4.206250">
        <ele>1133.0</ele>
        <time>2015-05-23T13:45:14Z</time>
      </trkpt>
      <trkpt lat="43.283017" lon="-4.206133">
        <ele>1132.0</ele>
        <time>2015-05-23T13:45:15Z</time>
      </trkpt>
      <trkpt lat="43.283050" lon="-4.206000">
        <ele>1131.0</ele>
        <time>2015-05-23T13:45:16Z</time>
      </trkpt>
      <trkpt lat="43.283067" lon="-4.205867">
        <ele>1130.0</ele>
        <time>2015-05-23T13:45:17Z</time>
      </trkpt>
      <trkpt lat="43.283117" lon="-4.205750">
        <ele>1129.0</ele>
        <time>2015-05-23T13:45:18Z</time>
      </trkpt>
      <trkpt lat="43.283167" lon="-4.205633">
        <ele>1129.0</ele>
        <time>2015-05-23T13:45:19Z</time>
      </trkpt>
      <trkpt lat="43.283200" lon="-4.205517">
        <ele>1128.0</ele>
        <time>2015-05-23T13:45:20Z</time>
      </trkpt>
      <trkpt lat="43.283233" lon="-4.205400">
        <ele>1127.0</ele>
        <time>2015-05-23T13:45:21Z</time>
      </trkpt>
      <trkpt lat="43.283283" lon="-4.205283">
        <ele>1127.0</ele>
        <time>2015-05-23T13:45:22Z</time>
      </trkpt>
      <trkpt lat="43.283317" lon="-4.205167">
        <ele>1126.0</ele>
        <time>2015-05-23T13:45:23Z</time>
      </trkpt>
      <trkpt lat="43.283350" lon="-4.205050">
        <ele>1125.0</ele>
        <time>2015-05-23T13:45:24Z</time>
      </trkpt>
      <trkpt lat="43.283367" lon="-4.204933">
        <ele>1124.0</ele>
        <time>2015-05-23T13:45:25Z</time>
      </trkpt>
      <trkpt lat="43.283383" lon="-4.204800">
        <ele>1123.0</ele>
        <time>2015-05-23T13:45:26Z</time>
      </trkpt>
      <trkpt lat="43.283417" lon="-4.204667">
        <ele>1123.0</ele>
        <time>2015-05-23T13:45:27Z</time>
      </trkpt>
      <trkpt lat="43.283433" lon="-4.204533">
        <ele>1122.0</ele>
        <time>2015-05-23T13:45:28Z</time>
      </trkpt>
      <trkpt lat="43.283467" lon="-4.204400">
        <ele>1121.0</ele>
        <time>2015-05-23T13:45:29Z</time>
      </trkpt>
      <trkpt lat="43.283500" lon="-4.204267">
        <ele>1120.0</ele>
        <time>2015-05-23T13:45:30Z</time>
      </trkpt>
      <trkpt lat="43.283550" lon="-4.204133">
        <ele>1118.0</ele>
        <time>2015-05-23T13:45:31Z</time>
      </trkpt>
      <trkpt lat="43.283583" lon="-4.204017">
        <ele>1116.0</ele>
        <time>2015-05-23T13:45:32Z</time>
      </trkpt>
      <trkpt lat="43.283600" lon="-4.203900">
        <ele>1114.0</ele>
        <time>2015-05-23T13:45:33Z</time>
      </trkpt>
      <trkpt lat="43.283633" lon="-4.203767">
        <ele>1112.0</ele>
        <time>2015-05-23T13:45:34Z</time>
      </trkpt>
      <trkpt lat="43.283683" lon="-4.203650">
        <ele>1114.0</ele>
        <time>2015-05-23T13:45:35Z</time>
      </trkpt>
      <trkpt lat="43.283733" lon="-4.203550">
        <ele>1114.0</ele>
        <time>2015-05-23T13:45:36Z</time>
      </trkpt>
      <trkpt lat="43.283767" lon="-4.203433">
        <ele>1113.0</ele>
        <time>2015-05-23T13:45:37Z</time>
      </trkpt>
      <trkpt lat="43.283817" lon="-4.203317">
        <ele>1111.0</ele>
        <time>2015-05-23T13:45:38Z</time>
      </trkpt>
      <trkpt lat="43.283850" lon="-4.203200">
        <ele>1110.0</ele>
        <time>2015-05-23T13:45:39Z</time>
      </trkpt>
      <trkpt lat="43.283883" lon="-4.203100">
        <ele>1108.0</ele>
        <time>2015-05-23T13:45:40Z</time>
      </trkpt>
      <trkpt lat="43.283917" lon="-4.202983">
        <ele>1107.0</ele>
        <time>2015-05-23T13:45:41Z</time>
      </trkpt>
      <trkpt lat="43.283950" lon="-4.202867">
        <ele>1107.0</ele>
        <time>2015-05-23T13:45:42Z</time>
      </trkpt>
      <trkpt lat="43.284017" lon="-4.202750">
        <ele>1106.0</ele>
        <time>2015-05-23T13:45:43Z</time>
      </trkpt>
      <trkpt lat="43.284067" lon="-4.202650">
        <ele>1104.0</ele>
        <time>2015-05-23T13:45:44Z</time>
      </trkpt>
      <trkpt lat="43.284117" lon="-4.202550">
        <ele>1103.0</ele>
        <time>2015-05-23T13:45:45Z</time>
      </trkpt>
      <trkpt lat="43.284183" lon="-4.202433">
        <ele>1103.0</ele>
        <time>2015-05-23T13:45:46Z</time>
      </trkpt>
      <trkpt lat="43.284233" lon="-4.202333">
        <ele>1102.0</ele>
        <time>2015-05-23T13:45:47Z</time>
      </trkpt>
      <trkpt lat="43.284267" lon="-4.202233">
        <ele>1101.0</ele>
        <time>2015-05-23T13:45:48Z</time>
      </trkpt>
      <trkpt lat="43.284317" lon="-4.202133">
        <ele>1101.0</ele>
        <time>2015-05-23T13:45:49Z</time>
      </trkpt>
      <trkpt lat="43.284367" lon="-4.202033">
        <ele>1100.0</ele>
        <time>2015-05-23T13:45:50Z</time>
      </trkpt>
      <trkpt lat="43.284417" lon="-4.201950">
        <ele>1099.0</ele>
        <time>2015-05-23T13:45:51Z</time>
      </trkpt>
      <trkpt lat="43.284433" lon="-4.201867">
        <ele>1099.0</ele>
        <time>2015-05-23T13:45:52Z</time>
      </trkpt>
      <trkpt lat="43.284483" lon="-4.201783">
        <ele>1098.0</ele>
        <time>2015-05-23T13:45:53Z</time>
      </trkpt>
      <trkpt lat="43.284517" lon="-4.201717">
        <ele>1097.0</ele>
        <time>2015-05-23T13:45:54Z</time>
      </trkpt>
      <trkpt lat="43.284583" lon="-4.201633">
        <ele>1097.0</ele>
        <time>2015-05-23T13:45:55Z</time>
      </trkpt>
      <trkpt lat="43.284633" lon="-4.201567">
        <ele>1096.0</ele>
        <time>2015-05-23T13:45:56Z</time>
      </trkpt>
      <trkpt lat="43.284700" lon="-4.201483">
        <ele>1096.0</ele>
        <time>2015-05-23T13:45:57Z</time>
      </trkpt>
      <trkpt lat="43.284750" lon="-4.201417">
        <ele>1095.0</ele>
        <time>2015-05-23T13:45:58Z</time>
      </trkpt>
      <trkpt lat="43.284817" lon="-4.201350">
        <ele>1095.0</ele>
        <time>2015-05-23T13:45:59Z</time>
      </trkpt>
      <trkpt lat="43.284867" lon="-4.201300">
        <ele>1094.0</ele>
        <time>2015-05-23T13:46:00Z</time>
      </trkpt>
      <trkpt lat="43.284917" lon="-4.201233">
        <ele>1094.0</ele>
        <time>2015-05-23T13:46:01Z</time>
      </trkpt>
      <trkpt lat="43.284983" lon="-4.201167">
        <ele>1093.0</ele>
        <time>2015-05-23T13:46:02Z</time>
      </trkpt>
      <trkpt lat="43.285033" lon="-4.201100">
        <ele>1093.0</ele>
        <time>2015-05-23T13:46:03Z</time>
      </trkpt>
      <trkpt lat="43.285117" lon="-4.201033">
        <ele>1092.0</ele>
        <time>2015-05-23T13:46:04Z</time>
      </trkpt>
      <trkpt lat="43.285183" lon="-4.200983">
        <ele>1091.0</ele>
        <time>2015-05-23T13:46:05Z</time>
      </trkpt>
      <trkpt lat="43.285233" lon="-4.200917">
        <ele>1091.0</ele>
        <time>2015-05-23T13:46:06Z</time>
      </trkpt>
      <trkpt lat="43.285283" lon="-4.200867">
        <ele>1090.0</ele>
        <time>2015-05-23T13:46:07Z</time>
      </trkpt>
      <trkpt lat="43.285333" lon="-4.200800">
        <ele>1090.0</ele>
        <time>2015-05-23T13:46:08Z</time>
      </trkpt>
      <trkpt lat="43.285367" lon="-4.200733">
        <ele>1089.0</ele>
        <time>2015-05-23T13:46:09Z</time>
      </trkpt>
      <trkpt lat="43.285400" lon="-4.200600">
        <ele>1088.0</ele>
        <time>2015-05-23T13:46:10Z</time>
      </trkpt>
      <trkpt lat="43.285433" lon="-4.200500">
        <ele>1088.0</ele>
        <time>2015-05-23T13:46:11Z</time>
      </trkpt>
      <trkpt lat="43.285467" lon="-4.200400">
        <ele>1087.0</ele>
        <time>2015-05-23T13:46:12Z</time>
      </trkpt>
      <trkpt lat="43.285517" lon="-4.200300">
        <ele>1086.0</ele>
        <time>2015-05-23T13:46:13Z</time>
      </trkpt>
      <trkpt lat="43.285550" lon="-4.200217">
        <ele>1086.0</ele>
        <time>2015-05-23T13:46:14Z</time>
      </trkpt>
      <trkpt lat="43.285583" lon="-4.200133">
        <ele>1085.0</ele>
        <time>2015-05-23T13:46:15Z</time>
      </trkpt>
      <trkpt lat="43.285617" lon="-4.200033">
        <ele>1085.0</ele>
        <time>2015-05-23T13:46:16Z</time>
      </trkpt>
      <trkpt lat="43.285667" lon="-4.199950">
        <ele>1084.0</ele>
        <time>2015-05-23T13:46:17Z</time>
      </trkpt>
      <trkpt lat="43.285717" lon="-4.199867">
        <ele>1083.0</ele>
        <time>2015-05-23T13:46:18Z</time>
      </trkpt>
      <trkpt lat="43.285767" lon="-4.199800">
        <ele>1083.0</ele>
        <time>2015-05-23T13:46:19Z</time>
      </trkpt>
      <trkpt lat="43.285800" lon="-4.199733">
        <ele>1083.0</ele>
        <time>2015-05-23T13:46:20Z</time>
      </trkpt>
      <trkpt lat="43.285817" lon="-4.199633">
        <ele>1082.0</ele>
        <time>2015-05-23T13:46:21Z</time>
      </trkpt>
      <trkpt lat="43.285833" lon="-4.199550">
        <ele>1082.0</ele>
        <time>2015-05-23T13:46:22Z</time>
      </trkpt>
      <trkpt lat="43.285850" lon="-4.199467">
        <ele>1081.0</ele>
        <time>2015-05-23T13:46:23Z</time>
      </trkpt>
      <trkpt lat="43.285867" lon="-4.199383">
        <ele>1081.0</ele>
        <time>2015-05-23T13:46:24Z</time>
      </trkpt>
      <trkpt lat="43.285883" lon="-4.199300">
        <ele>1081.0</ele>
        <time>2015-05-23T13:46:25Z</time>
      </trkpt>
      <trkpt lat="43.285900" lon="-4.199233">
        <ele>1080.0</ele>
        <time>2015-05-23T13:46:26Z</time>
      </trkpt>
      <trkpt lat="43.285917" lon="-4.199150">
        <ele>1080.0</ele>
        <time>2015-05-23T13:46:27Z</time>
      </trkpt>
      <trkpt lat="43.285933" lon="-4.199100">
        <ele>1080.0</ele>
        <time>2015-05-23T13:46:28Z</time>
      </trkpt>
      <trkpt lat="43.285950" lon="-4.199033">
        <ele>1079.0</ele>
        <time>2015-05-23T13:46:29Z</time>
      </trkpt>
      <trkpt lat="43.285983" lon="-4.198967">
        <ele>1079.0</ele>
        <time>2015-05-23T13:46:30Z</time>
      </trkpt>
      <trkpt lat="43.286017" lon="-4.198867">
        <ele>1079.0</ele>
        <time>2015-05-23T13:46:31Z</time>
      </trkpt>
      <trkpt lat="43.286067" lon="-4.198767">
        <ele>1078.0</ele>
        <time>2015-05-23T13:46:32Z</time>
      </trkpt>
      <trkpt lat="43.286083" lon="-4.198650">
        <ele>1078.0</ele>
        <time>2015-05-23T13:46:33Z</time>
      </trkpt>
      <trkpt lat="43.286117" lon="-4.198533">
        <ele>1078.0</ele>
        <time>2015-05-23T13:46:34Z</time>
      </trkpt>
      <trkpt lat="43.286150" lon="-4.198417">
        <ele>1077.0</ele>
        <time>2015-05-23T13:46:35Z</time>
      </trkpt>
      <trkpt lat="43.286183" lon="-4.198300">
        <ele>1077.0</ele>
        <time>2015-05-23T13:46:36Z</time>
      </trkpt>
      <trkpt lat="43.286217" lon="-4.198200">
        <ele>1077.0</ele>
        <time>2015-05-23T13:46:37Z</time>
      </trkpt>
      <trkpt lat="43.286233" lon="-4.198083">
        <ele>1076.0</ele>
        <time>2015-05-23T13:46:38Z</time>
      </trkpt>
      <trkpt lat="43.286267" lon="-4.197967">
        <ele>1076.0</ele>
        <time>2015-05-23T13:46:39Z</time>
      </trkpt>
      <trkpt lat="43.286300" lon="-4.197850">
        <ele>1076.0</ele>
        <time>2015-05-23T13:46:40Z</time>
      </trkpt>
      <trkpt lat="43.286333" lon="-4.197750">
        <ele>1075.0</ele>
        <time>2015-05-23T13:46:41Z</time>
      </trkpt>
      <trkpt lat="43.286367" lon="-4.197650">
        <ele>1075.0</ele>
        <time>2015-05-23T13:46:42Z</time>
      </trkpt>
      <trkpt lat="43.286400" lon="-4.197550">
        <ele>1074.0</ele>
        <time>2015-05-23T13:46:43Z</time>
      </trkpt>
      <trkpt lat="43.286417" lon="-4.197450">
        <ele>1074.0</ele>
        <time>2015-05-23T13:46:44Z</time>
      </trkpt>
      <trkpt lat="43.286450" lon="-4.197350">
        <ele>1074.0</ele>
        <time>2015-05-23T13:46:45Z</time>
      </trkpt>
      <trkpt lat="43.286467" lon="-4.197250">
        <ele>1073.0</ele>
        <time>2015-05-23T13:46:46Z</time>
      </trkpt>
      <trkpt lat="43.286467" lon="-4.197133">
        <ele>1073.0</ele>
        <time>2015-05-23T13:46:47Z</time>
      </trkpt>
      <trkpt lat="43.286483" lon="-4.197033">
        <ele>1073.0</ele>
        <time>2015-05-23T13:46:48Z</time>
      </trkpt>
      <trkpt lat="43.286500" lon="-4.196950">
        <ele>1072.0</ele>
        <time>2015-05-23T13:46:49Z</time>
      </trkpt>
      <trkpt lat="43.286517" lon="-4.196867">
        <ele>1072.0</ele>
        <time>2015-05-23T13:46:50Z</time>
      </trkpt>
      <trkpt lat="43.286550" lon="-4.196750">
        <ele>1072.0</ele>
        <time>2015-05-23T13:46:51Z</time>
      </trkpt>
      <trkpt lat="43.286567" lon="-4.196650">
        <ele>1071.0</ele>
        <time>2015-05-23T13:46:52Z</time>
      </trkpt>
      <trkpt lat="43.286600" lon="-4.196550">
        <ele>1071.0</ele>
        <time>2015-05-23T13:46:53Z</time>
      </trkpt>
      <trkpt lat="43.286617" lon="-4.196467">
        <ele>1071.0</ele>
        <time>2015-05-23T13:46:54Z</time>
      </trkpt>
      <trkpt lat="43.286650" lon="-4.196383">
        <ele>1070.0</ele>
        <time>2015-05-23T13:46:55Z</time>
      </trkpt>
      <trkpt lat="43.286667" lon="-4.196300">
        <ele>1070.0</ele>
        <time>2015-05-23T13:46:56Z</time>
      </trkpt>
      <trkpt lat="43.286750" lon="-4.196183">
        <ele>1069.0</ele>
        <time>2015-05-23T13:46:57Z</time>
      </trkpt>
      <trkpt lat="43.286800" lon="-4.196100">
        <ele>1069.0</ele>
        <time>2015-05-23T13:46:58Z</time>
      </trkpt>
      <trkpt lat="43.286850" lon="-4.196033">
        <ele>1068.0</ele>
        <time>2015-05-23T13:46:59Z</time>
      </trkpt>
      <trkpt lat="43.286883" lon="-4.195950">
        <ele>1067.0</ele>
        <time>2015-05-23T13:47:00Z</time>
      </trkpt>
      <trkpt lat="43.286917" lon="-4.195883">
        <ele>1067.0</ele>
        <time>2015-05-23T13:47:01Z</time>
      </trkpt>
      <trkpt lat="43.286950" lon="-4.195817">
        <ele>1066.0</ele>
        <time>2015-05-23T13:47:02Z</time>
      </trkpt>
      <trkpt lat="43.286983" lon="-4.195733">
        <ele>1065.0</ele>
        <time>2015-05-23T13:47:03Z</time>
      </trkpt>
      <trkpt lat="43.287000" lon="-4.195650">
        <ele>1064.0</ele>
        <time>2015-05-23T13:47:04Z</time>
      </trkpt>
      <trkpt lat="43.287033" lon="-4.195567">
        <ele>1063.0</ele>
        <time>2015-05-23T13:47:05Z</time>
      </trkpt>
      <trkpt lat="43.287083" lon="-4.195483">
        <ele>1062.0</ele>
        <time>2015-05-23T13:47:06Z</time>
      </trkpt>
      <trkpt lat="43.287117" lon="-4.195400">
        <ele>1062.0</ele>
        <time>2015-05-23T13:47:07Z</time>
      </trkpt>
      <trkpt lat="43.287117" lon="-4.195350">
        <ele>1061.0</ele>
        <time>2015-05-23T13:47:08Z</time>
      </trkpt>
      <trkpt lat="43.287133" lon="-4.195283">
        <ele>1060.0</ele>
        <time>2015-05-23T13:47:09Z</time>
      </trkpt>
      <trkpt lat="43.287150" lon="-4.195233">
        <ele>1060.0</ele>
        <time>2015-05-23T13:47:10Z</time>
      </trkpt>
      <trkpt lat="43.287167" lon="-4.195167">
        <ele>1059.0</ele>
        <time>2015-05-23T13:47:11Z</time>
      </trkpt>
      <trkpt lat="43.287217" lon="-4.195100">
        <ele>1059.0</ele>
        <time>2015-05-23T13:47:12Z</time>
      </trkpt>
      <trkpt lat="43.287233" lon="-4.195050">
        <ele>1058.0</ele>
        <time>2015-05-23T13:47:13Z</time>
      </trkpt>
      <trkpt lat="43.287267" lon="-4.194983">
        <ele>1057.0</ele>
        <time>2015-05-23T13:47:14Z</time>
      </trkpt>
      <trkpt lat="43.287300" lon="-4.194917">
        <ele>1057.0</ele>
        <time>2015-05-23T13:47:15Z</time>
      </trkpt>
      <trkpt lat="43.287367" lon="-4.194833">
        <ele>1056.0</ele>
        <time>2015-05-23T13:47:16Z</time>
      </trkpt>
      <trkpt lat="43.287400" lon="-4.194767">
        <ele>1055.0</ele>
        <time>2015-05-23T13:47:17Z</time>
      </trkpt>
      <trkpt lat="43.287417" lon="-4.194700">
        <ele>1055.0</ele>
        <time>2015-05-23T13:47:18Z</time>
      </trkpt>
      <trkpt lat="43.287450" lon="-4.194617">
        <ele>1054.0</ele>
        <time>2015-05-23T13:47:19Z</time>
      </trkpt>
      <trkpt lat="43.287483" lon="-4.194533">
        <ele>1054.0</ele>
        <time>2015-05-23T13:47:20Z</time>
      </trkpt>
      <trkpt lat="43.287533" lon="-4.194467">
        <ele>1053.0</ele>
        <time>2015-05-23T13:47:21Z</time>
      </trkpt>
      <trkpt lat="43.287550" lon="-4.194400">
        <ele>1053.0</ele>
        <time>2015-05-23T13:47:22Z</time>
      </trkpt>
      <trkpt lat="43.287583" lon="-4.194317">
        <ele>1052.0</ele>
        <time>2015-05-23T13:47:23Z</time>
      </trkpt>
      <trkpt lat="43.287617" lon="-4.194250">
        <ele>1052.0</ele>
        <time>2015-05-23T13:47:24Z</time>
      </trkpt>
      <trkpt lat="43.287650" lon="-4.194167">
        <ele>1051.0</ele>
        <time>2015-05-23T13:47:25Z</time>
      </trkpt>
      <trkpt lat="43.287683" lon="-4.194100">
        <ele>1050.0</ele>
        <time>2015-05-23T13:47:26Z</time>
      </trkpt>
      <trkpt lat="43.287717" lon="-4.194033">
        <ele>1050.0</ele>
        <time>2015-05-23T13:47:27Z</time>
      </trkpt>
      <trkpt lat="43.287733" lon="-4.193967">
        <ele>1049.0</ele>
        <time>2015-05-23T13:47:28Z</time>
      </trkpt>
      <trkpt lat="43.287783" lon="-4.193900">
        <ele>1049.0</ele>
        <time>2015-05-23T13:47:29Z</time>
      </trkpt>
      <trkpt lat="43.287817" lon="-4.193850">
        <ele>1048.0</ele>
        <time>2015-05-23T13:47:30Z</time>
      </trkpt>
      <trkpt lat="43.287833" lon="-4.193800">
        <ele>1048.0</ele>
        <time>2015-05-23T13:47:31Z</time>
      </trkpt>
      <trkpt lat="43.287850" lon="-4.193750">
        <ele>1047.0</ele>
        <time>2015-05-23T13:47:32Z</time>
      </trkpt>
      <trkpt lat="43.287850" lon="-4.193683">
        <ele>1047.0</ele>
        <time>2015-05-23T13:47:33Z</time>
      </trkpt>
      <trkpt lat="43.287867" lon="-4.193633">
        <ele>1047.0</ele>
        <time>2015-05-23T13:47:34Z</time>
      </trkpt>
      <trkpt lat="43.287883" lon="-4.193583">
        <ele>1046.0</ele>
        <time>2015-05-23T13:47:35Z</time>
      </trkpt>
      <trkpt lat="43.287883" lon="-4.193517">
        <ele>1046.0</ele>
        <time>2015-05-23T13:47:36Z</time>
      </trkpt>
      <trkpt lat="43.287900" lon="-4.193450">
        <ele>1046.0</ele>
        <time>2015-05-23T13:47:37Z</time>
      </trkpt>
      <trkpt lat="43.287917" lon="-4.193383">
        <ele>1045.0</ele>
        <time>2015-05-23T13:47:38Z</time>
      </trkpt>
      <trkpt lat="43.287950" lon="-4.193333">
        <ele>1045.0</ele>
        <time>2015-05-23T13:47:39Z</time>
      </trkpt>
      <trkpt lat="43.287967" lon="-4.193267">
        <ele>1045.0</ele>
        <time>2015-05-23T13:47:40Z</time>
      </trkpt>
      <trkpt lat="43.288000" lon="-4.193217">
        <ele>1045.0</ele>
        <time>2015-05-23T13:47:41Z</time>
      </trkpt>
      <trkpt lat="43.288033" lon="-4.193150">
        <ele>1044.0</ele>
        <time>2015-05-23T13:47:42Z</time>
      </trkpt>
      <trkpt lat="43.288083" lon="-4.193100">
        <ele>1044.0</ele>
        <time>2015-05-23T13:47:43Z</time>
      </trkpt>
      <trkpt lat="43.288117" lon="-4.193050">
        <ele>1044.0</ele>
        <time>2015-05-23T13:47:44Z</time>
      </trkpt>
      <trkpt lat="43.288150" lon="-4.193000">
        <ele>1044.0</ele>
        <time>2015-05-23T13:47:45Z</time>
      </trkpt>
      <trkpt lat="43.288183" lon="-4.192950">
        <ele>1043.0</ele>
        <time>2015-05-23T13:47:46Z</time>
      </trkpt>
      <trkpt lat="43.288217" lon="-4.192917">
        <ele>1043.0</ele>
        <time>2015-05-23T13:47:47Z</time>
      </trkpt>
      <trkpt lat="43.288267" lon="-4.192883">
        <ele>1043.0</ele>
        <time>2015-05-23T13:47:48Z</time>
      </trkpt>
      <trkpt lat="43.288317" lon="-4.192883">
        <ele>1043.0</ele>
        <time>2015-05-23T13:47:49Z</time>
      </trkpt>
      <trkpt lat="43.288350" lon="-4.192900">
        <ele>1043.0</ele>
        <time>2015-05-23T13:47:50Z</time>
      </trkpt>
      <trkpt lat="43.288400" lon="-4.192933">
        <ele>1043.0</ele>
        <time>2015-05-23T13:47:51Z</time>
      </trkpt>
      <trkpt lat="43.288450" lon="-4.192983">
        <ele>1043.0</ele>
        <time>2015-05-23T13:47:52Z</time>
      </trkpt>
      <trkpt lat="43.288483" lon="-4.193033">
        <ele>1043.0</ele>
        <time>2015-05-23T13:47:53Z</time>
      </trkpt>
      <trkpt lat="43.288517" lon="-4.193083">
        <ele>1043.0</ele>
        <time>2015-05-23T13:47:54Z</time>
      </trkpt>
      <trkpt lat="43.288550" lon="-4.193167">
        <ele>1043.0</ele>
        <time>2015-05-23T13:47:55Z</time>
      </trkpt>
      <trkpt lat="43.288567" lon="-4.193267">
        <ele>1043.0</ele>
        <time>2015-05-23T13:47:56Z</time>
      </trkpt>
      <trkpt lat="43.288567" lon="-4.193383">
        <ele>1043.0</ele>
        <time>2015-05-23T13:47:57Z</time>
      </trkpt>
      <trkpt lat="43.288533" lon="-4.193483">
        <ele>1043.0</ele>
        <time>2015-05-23T13:47:58Z</time>
      </trkpt>
      <trkpt lat="43.288500" lon="-4.193567">
        <ele>1043.0</ele>
        <time>2015-05-23T13:47:59Z</time>
      </trkpt>
      <trkpt lat="43.288433" lon="-4.193650">
        <ele>1043.0</ele>
        <time>2015-05-23T13:48:00Z</time>
      </trkpt>
      <trkpt lat="43.288367" lon="-4.193700">
        <ele>1043.0</ele>
        <time>2015-05-23T13:48:01Z</time>
      </trkpt>
      <trkpt lat="43.288283" lon="-4.193733">
        <ele>1043.0</ele>
        <time>2015-05-23T13:48:02Z</time>
      </trkpt>
      <trkpt lat="43.288183" lon="-4.193750">
        <ele>1043.0</ele>
        <time>2015-05-23T13:48:03Z</time>
      </trkpt>
      <trkpt lat="43.288100" lon="-4.193733">
        <ele>1043.0</ele>
        <time>2015-05-23T13:48:04Z</time>
      </trkpt>
      <trkpt lat="43.288017" lon="-4.193700">
        <ele>1043.0</ele>
        <time>2015-05-23T13:48:05Z</time>
      </trkpt>
      <trkpt lat="43.287967" lon="-4.193633">
        <ele>1043.0</ele>
        <time>2015-05-23T13:48:06Z</time>
      </trkpt>
      <trkpt lat="43.287933" lon="-4.193567">
        <ele>1044.0</ele>
        <time>2015-05-23T13:48:07Z</time>
      </trkpt>
      <trkpt lat="43.287900" lon="-4.193483">
        <ele>1044.0</ele>
        <time>2015-05-23T13:48:08Z</time>
      </trkpt>
      <trkpt lat="43.287867" lon="-4.193417">
        <ele>1044.0</ele>
        <time>2015-05-23T13:48:09Z</time>
      </trkpt>
      <trkpt lat="43.287833" lon="-4.193367">
        <ele>1044.0</ele>
        <time>2015-05-23T13:48:10Z</time>
      </trkpt>
      <trkpt lat="43.287800" lon="-4.193300">
        <ele>1044.0</ele>
        <time>2015-05-23T13:48:11Z</time>
      </trkpt>
      <trkpt lat="43.287767" lon="-4.193233">
        <ele>1044.0</ele>
        <time>2015-05-23T13:48:12Z</time>
      </trkpt>
      <trkpt lat="43.287750" lon="-4.193150">
        <ele>1045.0</ele>
        <time>2015-05-23T13:48:13Z</time>
      </trkpt>
      <trkpt lat="43.287733" lon="-4.193083">
        <ele>1045.0</ele>
        <time>2015-05-23T13:48:14Z</time>
      </trkpt>
      <trkpt lat="43.287733" lon="-4.193017">
        <ele>1045.0</ele>
        <time>2015-05-23T13:48:15Z</time>
      </trkpt>
      <trkpt lat="43.287733" lon="-4.192950">
        <ele>1046.0</ele>
        <time>2015-05-23T13:48:16Z</time>
      </trkpt>
      <trkpt lat="43.287733" lon="-4.192883">
        <ele>1046.0</ele>
        <time>2015-05-23T13:48:17Z</time>
      </trkpt>
      <trkpt lat="43.287750" lon="-4.192800">
        <ele>1046.0</ele>
        <time>2015-05-23T13:48:18Z</time>
      </trkpt>
      <trkpt lat="43.287750" lon="-4.192733">
        <ele>1047.0</ele>
        <time>2015-05-23T13:48:19Z</time>
      </trkpt>
      <trkpt lat="43.287750" lon="-4.192667">
        <ele>1047.0</ele>
        <time>2015-05-23T13:48:20Z</time>
      </trkpt>
      <trkpt lat="43.287767" lon="-4.192600">
        <ele>1048.0</ele>
        <time>2015-05-23T13:48:21Z</time>
      </trkpt>
      <trkpt lat="43.287767" lon="-4.192533">
        <ele>1048.0</ele>
        <time>2015-05-23T13:48:22Z</time>
      </trkpt>
      <trkpt lat="43.287833" lon="-4.192467">
        <ele>1049.0</ele>
        <time>2015-05-23T13:48:23Z</time>
      </trkpt>
      <trkpt lat="43.287883" lon="-4.192450">
        <ele>1049.0</ele>
        <time>2015-05-23T13:48:24Z</time>
      </trkpt>
      <trkpt lat="43.287933" lon="-4.192433">
        <ele>1049.0</ele>
        <time>2015-05-23T13:48:25Z</time>
      </trkpt>
      <trkpt lat="43.287983" lon="-4.192417">
        <ele>1050.0</ele>
        <time>2015-05-23T13:48:26Z</time>
      </trkpt>
      <trkpt lat="43.288033" lon="-4.192383">
        <ele>1050.0</ele>
        <time>2015-05-23T13:48:27Z</time>
      </trkpt>
      <trkpt lat="43.288100" lon="-4.192350">
        <ele>1050.0</ele>
        <time>2015-05-23T13:48:28Z</time>
      </trkpt>
      <trkpt lat="43.288167" lon="-4.192267">
        <ele>1050.0</ele>
        <time>2015-05-23T13:48:29Z</time>
      </trkpt>
      <trkpt lat="43.288217" lon="-4.192150">
        <ele>1051.0</ele>
        <time>2015-05-23T13:48:30Z</time>
      </trkpt>
      <trkpt lat="43.288267" lon="-4.192017">
        <ele>1051.0</ele>
        <time>2015-05-23T13:48:31Z</time>
      </trkpt>
      <trkpt lat="43.288300" lon="-4.191917">
        <ele>1051.0</ele>
        <time>2015-05-23T13:48:32Z</time>
      </trkpt>
      <trkpt lat="43.288317" lon="-4.191833">
        <ele>1051.0</ele>
        <time>2015-05-23T13:48:33Z</time>
      </trkpt>
      <trkpt lat="43.288350" lon="-4.191750">
        <ele>1051.0</ele>
        <time>2015-05-23T13:48:34Z</time>
      </trkpt>
      <trkpt lat="43.288383" lon="-4.191650">
        <ele>1051.0</ele>
        <time>2015-05-23T13:48:35Z</time>
      </trkpt>
      <trkpt lat="43.288433" lon="-4.191550">
        <ele>1052.0</ele>
        <time>2015-05-23T13:48:36Z</time>
      </trkpt>
      <trkpt lat="43.288467" lon="-4.191433">
        <ele>1052.0</ele>
        <time>2015-05-23T13:48:37Z</time>
      </trkpt>
      <trkpt lat="43.288517" lon="-4.191317">
        <ele>1052.0</ele>
        <time>2015-05-23T13:48:38Z</time>
      </trkpt>
      <trkpt lat="43.288583" lon="-4.191200">
        <ele>1052.0</ele>
        <time>2015-05-23T13:48:39Z</time>
      </trkpt>
      <trkpt lat="43.288617" lon="-4.191117">
        <ele>1052.0</ele>
        <time>2015-05-23T13:48:40Z</time>
      </trkpt>
      <trkpt lat="43.288650" lon="-4.191017">
        <ele>1052.0</ele>
        <time>2015-05-23T13:48:41Z</time>
      </trkpt>
      <trkpt lat="43.288700" lon="-4.190933">
        <ele>1052.0</ele>
        <time>2015-05-23T13:48:42Z</time>
      </trkpt>
      <trkpt lat="43.288733" lon="-4.190817">
        <ele>1052.0</ele>
        <time>2015-05-23T13:48:43Z</time>
      </trkpt>
      <trkpt lat="43.288783" lon="-4.190700">
        <ele>1052.0</ele>
        <time>2015-05-23T13:48:44Z</time>
      </trkpt>
      <trkpt lat="43.288833" lon="-4.190567">
        <ele>1052.0</ele>
        <time>2015-05-23T13:48:45Z</time>
      </trkpt>
      <trkpt lat="43.288867" lon="-4.190450">
        <ele>1052.0</ele>
        <time>2015-05-23T13:48:46Z</time>
      </trkpt>
      <trkpt lat="43.288917" lon="-4.190333">
        <ele>1052.0</ele>
        <time>2015-05-23T13:48:47Z</time>
      </trkpt>
      <trkpt lat="43.288933" lon="-4.190217">
        <ele>1052.0</ele>
        <time>2015-05-23T13:48:48Z</time>
      </trkpt>
      <trkpt lat="43.288933" lon="-4.190117">
        <ele>1052.0</ele>
        <time>2015-05-23T13:48:49Z</time>
      </trkpt>
      <trkpt lat="43.288967" lon="-4.189983">
        <ele>1052.0</ele>
        <time>2015-05-23T13:48:50Z</time>
      </trkpt>
      <trkpt lat="43.288983" lon="-4.189850">
        <ele>1051.0</ele>
        <time>2015-05-23T13:48:51Z</time>
      </trkpt>
      <trkpt lat="43.289017" lon="-4.189733">
        <ele>1051.0</ele>
        <time>2015-05-23T13:48:52Z</time>
      </trkpt>
      <trkpt lat="43.289050" lon="-4.189617">
        <ele>1051.0</ele>
        <time>2015-05-23T13:48:53Z</time>
      </trkpt>
      <trkpt lat="43.289083" lon="-4.189483">
        <ele>1050.0</ele>
        <time>2015-05-23T13:48:54Z</time>
      </trkpt>
      <trkpt lat="43.289117" lon="-4.189367">
        <ele>1049.0</ele>
        <time>2015-05-23T13:48:55Z</time>
      </trkpt>
      <trkpt lat="43.289150" lon="-4.189233">
        <ele>1048.0</ele>
        <time>2015-05-23T13:48:56Z</time>
      </trkpt>
      <trkpt lat="43.289200" lon="-4.189100">
        <ele>1047.0</ele>
        <time>2015-05-23T13:48:57Z</time>
      </trkpt>
      <trkpt lat="43.289250" lon="-4.188983">
        <ele>1047.0</ele>
        <time>2015-05-23T13:48:58Z</time>
      </trkpt>
      <trkpt lat="43.289283" lon="-4.188867">
        <ele>1046.0</ele>
        <time>2015-05-23T13:48:59Z</time>
      </trkpt>
      <trkpt lat="43.289283" lon="-4.188767">
        <ele>1046.0</ele>
        <time>2015-05-23T13:49:00Z</time>
      </trkpt>
      <trkpt lat="43.289300" lon="-4.188667">
        <ele>1045.0</ele>
        <time>2015-05-23T13:49:01Z</time>
      </trkpt>
      <trkpt lat="43.289333" lon="-4.188567">
        <ele>1045.0</ele>
        <time>2015-05-23T13:49:02Z</time>
      </trkpt>
      <trkpt lat="43.289367" lon="-4.188433">
        <ele>1044.0</ele>
        <time>2015-05-23T13:49:03Z</time>
      </trkpt>
      <trkpt lat="43.289417" lon="-4.188300">
        <ele>1044.0</ele>
        <time>2015-05-23T13:49:04Z</time>
      </trkpt>
      <trkpt lat="43.289450" lon="-4.188167">
        <ele>1043.0</ele>
        <time>2015-05-23T13:49:05Z</time>
      </trkpt>
      <trkpt lat="43.289483" lon="-4.188050">
        <ele>1043.0</ele>
        <time>2015-05-23T13:49:06Z</time>
      </trkpt>
      <trkpt lat="43.289500" lon="-4.187950">
        <ele>1042.0</ele>
        <time>2015-05-23T13:49:07Z</time>
      </trkpt>
      <trkpt lat="43.289517" lon="-4.187850">
        <ele>1042.0</ele>
        <time>2015-05-23T13:49:08Z</time>
      </trkpt>
      <trkpt lat="43.289533" lon="-4.187750">
        <ele>1041.0</ele>
        <time>2015-05-23T13:49:09Z</time>
      </trkpt>
      <trkpt lat="43.289550" lon="-4.187600">
        <ele>1041.0</ele>
        <time>2015-05-23T13:49:10Z</time>
      </trkpt>
      <trkpt lat="43.289567" lon="-4.187450">
        <ele>1040.0</ele>
        <time>2015-05-23T13:49:11Z</time>
      </trkpt>
      <trkpt lat="43.289583" lon="-4.187317">
        <ele>1040.0</ele>
        <time>2015-05-23T13:49:12Z</time>
      </trkpt>
      <trkpt lat="43.289583" lon="-4.187200">
        <ele>1039.0</ele>
        <time>2015-05-23T13:49:13Z</time>
      </trkpt>
      <trkpt lat="43.289567" lon="-4.187083">
        <ele>1039.0</ele>
        <time>2015-05-23T13:49:14Z</time>
      </trkpt>
      <trkpt lat="43.289550" lon="-4.186983">
        <ele>1038.0</ele>
        <time>2015-05-23T13:49:15Z</time>
      </trkpt>
      <trkpt lat="43.289550" lon="-4.186850">
        <ele>1037.0</ele>
        <time>2015-05-23T13:49:16Z</time>
      </trkpt>
      <trkpt lat="43.289567" lon="-4.186717">
        <ele>1036.0</ele>
        <time>2015-05-23T13:49:17Z</time>
      </trkpt>
      <trkpt lat="43.289583" lon="-4.186567">
        <ele>1035.0</ele>
        <time>2015-05-23T13:49:18Z</time>
      </trkpt>
      <trkpt lat="43.289617" lon="-4.186433">
        <ele>1035.0</ele>
        <time>2015-05-23T13:49:19Z</time>
      </trkpt>
      <trkpt lat="43.289617" lon="-4.186300">
        <ele>1034.0</ele>
        <time>2015-05-23T13:49:20Z</time>
      </trkpt>
      <trkpt lat="43.289617" lon="-4.186183">
        <ele>1033.0</ele>
        <time>2015-05-23T13:49:21Z</time>
      </trkpt>
      <trkpt lat="43.289617" lon="-4.186067">
        <ele>1032.0</ele>
        <time>2015-05-23T13:49:22Z</time>
      </trkpt>
      <trkpt lat="43.289633" lon="-4.185950">
        <ele>1032.0</ele>
        <time>2015-05-23T13:49:23Z</time>
      </trkpt>
      <trkpt lat="43.289650" lon="-4.185817">
        <ele>1031.0</ele>
        <time>2015-05-23T13:49:24Z</time>
      </trkpt>
      <trkpt lat="43.289667" lon="-4.185667">
        <ele>1030.0</ele>
        <time>2015-05-23T13:49:25Z</time>
      </trkpt>
      <trkpt lat="43.289683" lon="-4.185517">
        <ele>1029.0</ele>
        <time>2015-05-23T13:49:26Z</time>
      </trkpt>
      <trkpt lat="43.289667" lon="-4.185383">
        <ele>1028.0</ele>
        <time>2015-05-23T13:49:27Z</time>
      </trkpt>
      <trkpt lat="43.289683" lon="-4.185250">
        <ele>1027.0</ele>
        <time>2015-05-23T13:49:28Z</time>
      </trkpt>
      <trkpt lat="43.289683" lon="-4.185117">
        <ele>1026.0</ele>
        <time>2015-05-23T13:49:29Z</time>
      </trkpt>
      <trkpt lat="43.289700" lon="-4.184983">
        <ele>1026.0</ele>
        <time>2015-05-23T13:49:30Z</time>
      </trkpt>
      <trkpt lat="43.289700" lon="-4.184867">
        <ele>1025.0</ele>
        <time>2015-05-23T13:49:31Z</time>
      </trkpt>
      <trkpt lat="43.289683" lon="-4.184733">
        <ele>1024.0</ele>
        <time>2015-05-23T13:49:32Z</time>
      </trkpt>
      <trkpt lat="43.289683" lon="-4.184600">
        <ele>1023.0</ele>
        <time>2015-05-23T13:49:33Z</time>
      </trkpt>
      <trkpt lat="43.289700" lon="-4.184483">
        <ele>1023.0</ele>
        <time>2015-05-23T13:49:34Z</time>
      </trkpt>
      <trkpt lat="43.289717" lon="-4.184350">
        <ele>1022.0</ele>
        <time>2015-05-23T13:49:35Z</time>
      </trkpt>
      <trkpt lat="43.289717" lon="-4.184200">
        <ele>1021.0</ele>
        <time>2015-05-23T13:49:36Z</time>
      </trkpt>
      <trkpt lat="43.289667" lon="-4.184033">
        <ele>1020.0</ele>
        <time>2015-05-23T13:49:37Z</time>
      </trkpt>
      <trkpt lat="43.289633" lon="-4.183867">
        <ele>1017.0</ele>
        <time>2015-05-23T13:49:38Z</time>
      </trkpt>
      <trkpt lat="43.289633" lon="-4.183700">
        <ele>1015.0</ele>
        <time>2015-05-23T13:49:39Z</time>
      </trkpt>
      <trkpt lat="43.289650" lon="-4.183550">
        <ele>1014.0</ele>
        <time>2015-05-23T13:49:40Z</time>
      </trkpt>
      <trkpt lat="43.289667" lon="-4.183433">
        <ele>1012.0</ele>
        <time>2015-05-23T13:49:41Z</time>
      </trkpt>
      <trkpt lat="43.289700" lon="-4.183333">
        <ele>1011.0</ele>
        <time>2015-05-23T13:49:42Z</time>
      </trkpt>
      <trkpt lat="43.289717" lon="-4.183233">
        <ele>1009.0</ele>
        <time>2015-05-23T13:49:43Z</time>
      </trkpt>
      <trkpt lat="43.289717" lon="-4.183117">
        <ele>1006.0</ele>
        <time>2015-05-23T13:49:44Z</time>
      </trkpt>
      <trkpt lat="43.289733" lon="-4.182983">
        <ele>1004.0</ele>
        <time>2015-05-23T13:49:45Z</time>
      </trkpt>
      <trkpt lat="43.289767" lon="-4.182867">
        <ele>1000.0</ele>
        <time>2015-05-23T13:49:46Z</time>
      </trkpt>
      <trkpt lat="43.289817" lon="-4.182783">
        <ele>997.0</ele>
        <time>2015-05-23T13:49:47Z</time>
      </trkpt>
      <trkpt lat="43.289867" lon="-4.182683">
        <ele>994.0</ele>
        <time>2015-05-23T13:49:48Z</time>
      </trkpt>
      <trkpt lat="43.289900" lon="-4.182600">
        <ele>990.0</ele>
        <time>2015-05-23T13:49:49Z</time>
      </trkpt>
      <trkpt lat="43.289933" lon="-4.182500">
        <ele>986.0</ele>
        <time>2015-05-23T13:49:50Z</time>
      </trkpt>
      <trkpt lat="43.289967" lon="-4.182400">
        <ele>982.0</ele>
        <time>2015-05-23T13:49:51Z</time>
      </trkpt>
      <trkpt lat="43.290017" lon="-4.182317">
        <ele>977.0</ele>
        <time>2015-05-23T13:49:52Z</time>
      </trkpt>
      <trkpt lat="43.290100" lon="-4.182233">
        <ele>973.0</ele>
        <time>2015-05-23T13:49:53Z</time>
      </trkpt>
      <trkpt lat="43.290150" lon="-4.182133">
        <ele>968.0</ele>
        <time>2015-05-23T13:49:54Z</time>
      </trkpt>
      <trkpt lat="43.290200" lon="-4.182067">
        <ele>963.0</ele>
        <time>2015-05-23T13:49:55Z</time>
      </trkpt>
      <trkpt lat="43.290233" lon="-4.181983">
        <ele>958.0</ele>
        <time>2015-05-23T13:49:56Z</time>
      </trkpt>
      <trkpt lat="43.290283" lon="-4.181917">
        <ele>954.0</ele>
        <time>2015-05-23T13:49:57Z</time>
      </trkpt>
      <trkpt lat="43.290333" lon="-4.181850">
        <ele>949.0</ele>
        <time>2015-05-23T13:49:58Z</time>
      </trkpt>
      <trkpt lat="43.290383" lon="-4.181767">
        <ele>945.0</ele>
        <time>2015-05-23T13:49:59Z</time>
      </trkpt>
      <trkpt lat="43.290433" lon="-4.181700">
        <ele>941.0</ele>
        <time>2015-05-23T13:50:00Z</time>
      </trkpt>
      <trkpt lat="43.290500" lon="-4.181617">
        <ele>937.0</ele>
        <time>2015-05-23T13:50:01Z</time>
      </trkpt>
      <trkpt lat="43.290550" lon="-4.181533">
        <ele>933.0</ele>
        <time>2015-05-23T13:50:02Z</time>
      </trkpt>
      <trkpt lat="43.290600" lon="-4.181450">
        <ele>930.0</ele>
        <time>2015-05-23T13:50:03Z</time>
      </trkpt>
      <trkpt lat="43.290633" lon="-4.181367">
        <ele>926.0</ele>
        <time>2015-05-23T13:50:04Z</time>
      </trkpt>
      <trkpt lat="43.290683" lon="-4.181283">
        <ele>923.0</ele>
        <time>2015-05-23T13:50:05Z</time>
      </trkpt>
      <trkpt lat="43.290733" lon="-4.181217">
        <ele>920.0</ele>
        <time>2015-05-23T13:50:06Z</time>
      </trkpt>
      <trkpt lat="43.290783" lon="-4.181133">
        <ele>917.0</ele>
        <time>2015-05-23T13:50:07Z</time>
      </trkpt>
      <trkpt lat="43.290833" lon="-4.181050">
        <ele>913.0</ele>
        <time>2015-05-23T13:50:08Z</time>
      </trkpt>
      <trkpt lat="43.290867" lon="-4.180967">
        <ele>911.0</ele>
        <time>2015-05-23T13:50:09Z</time>
      </trkpt>
      <trkpt lat="43.290917" lon="-4.180883">
        <ele>908.0</ele>
        <time>2015-05-23T13:50:10Z</time>
      </trkpt>
      <trkpt lat="43.290950" lon="-4.180800">
        <ele>905.0</ele>
        <time>2015-05-23T13:50:11Z</time>
      </trkpt>
      <trkpt lat="43.290950" lon="-4.180717">
        <ele>902.0</ele>
        <time>2015-05-23T13:50:12Z</time>
      </trkpt>
      <trkpt lat="43.290983" lon="-4.180633">
        <ele>900.0</ele>
        <time>2015-05-23T13:50:13Z</time>
      </trkpt>
      <trkpt lat="43.291017" lon="-4.180550">
        <ele>897.0</ele>
        <time>2015-05-23T13:50:14Z</time>
      </trkpt>
      <trkpt lat="43.291050" lon="-4.180450">
        <ele>895.0</ele>
        <time>2015-05-23T13:50:15Z</time>
      </trkpt>
      <trkpt lat="43.291083" lon="-4.180367">
        <ele>893.0</ele>
        <time>2015-05-23T13:50:16Z</time>
      </trkpt>
      <trkpt lat="43.291117" lon="-4.180267">
        <ele>891.0</ele>
        <time>2015-05-23T13:50:17Z</time>
      </trkpt>
      <trkpt lat="43.291150" lon="-4.180167">
        <ele>888.0</ele>
        <time>2015-05-23T13:50:18Z</time>
      </trkpt>
      <trkpt lat="43.291183" lon="-4.180067">
        <ele>886.0</ele>
        <time>2015-05-23T13:50:19Z</time>
      </trkpt>
      <trkpt lat="43.291233" lon="-4.179950">
        <ele>884.0</ele>
        <time>2015-05-23T13:50:20Z</time>
      </trkpt>
      <trkpt lat="43.291250" lon="-4.179833">
        <ele>882.0</ele>
        <time>2015-05-23T13:50:21Z</time>
      </trkpt>
      <trkpt lat="43.291283" lon="-4.179717">
        <ele>881.0</ele>
        <time>2015-05-23T13:50:22Z</time>
      </trkpt>
      <trkpt lat="43.291317" lon="-4.179600">
        <ele>879.0</ele>
        <time>2015-05-23T13:50:23Z</time>
      </trkpt>
      <trkpt lat="43.291350" lon="-4.179500">
        <ele>877.0</ele>
        <time>2015-05-23T13:50:24Z</time>
      </trkpt>
      <trkpt lat="43.291367" lon="-4.179383">
        <ele>875.0</ele>
        <time>2015-05-23T13:50:25Z</time>
      </trkpt>
      <trkpt lat="43.291400" lon="-4.179267">
        <ele>874.0</ele>
        <time>2015-05-23T13:50:26Z</time>
      </trkpt>
      <trkpt lat="43.291433" lon="-4.179167">
        <ele>872.0</ele>
        <time>2015-05-23T13:50:27Z</time>
      </trkpt>
      <trkpt lat="43.291467" lon="-4.179050">
        <ele>871.0</ele>
        <time>2015-05-23T13:50:28Z</time>
      </trkpt>
      <trkpt lat="43.291500" lon="-4.178950">
        <ele>870.0</ele>
        <time>2015-05-23T13:50:29Z</time>
      </trkpt>
      <trkpt lat="43.291517" lon="-4.178833">
        <ele>869.0</ele>
        <time>2015-05-23T13:50:30Z</time>
      </trkpt>
      <trkpt lat="43.291550" lon="-4.178733">
        <ele>867.0</ele>
        <time>2015-05-23T13:50:31Z</time>
      </trkpt>
      <trkpt lat="43.291567" lon="-4.178617">
        <ele>866.0</ele>
        <time>2015-05-23T13:50:32Z</time>
      </trkpt>
      <trkpt lat="43.291600" lon="-4.178517">
        <ele>865.0</ele>
        <time>2015-05-23T13:50:33Z</time>
      </trkpt>
      <trkpt lat="43.291617" lon="-4.178400">
        <ele>863.0</ele>
        <time>2015-05-23T13:50:34Z</time>
      </trkpt>
      <trkpt lat="43.291650" lon="-4.178300">
        <ele>862.0</ele>
        <time>2015-05-23T13:50:35Z</time>
      </trkpt>
      <trkpt lat="43.291683" lon="-4.178183">
        <ele>860.0</ele>
        <time>2015-05-23T13:50:36Z</time>
      </trkpt>
      <trkpt lat="43.291700" lon="-4.178067">
        <ele>859.0</ele>
        <time>2015-05-23T13:50:37Z</time>
      </trkpt>
      <trkpt lat="43.291733" lon="-4.177967">
        <ele>858.0</ele>
        <time>2015-05-23T13:50:38Z</time>
      </trkpt>
      <trkpt lat="43.291750" lon="-4.177850">
        <ele>856.0</ele>
        <time>2015-05-23T13:50:39Z</time>
      </trkpt>
      <trkpt lat="43.291783" lon="-4.177733">
        <ele>855.0</ele>
        <time>2015-05-23T13:50:40Z</time>
      </trkpt>
      <trkpt lat="43.291817" lon="-4.177633">
        <ele>853.0</ele>
        <time>2015-05-23T13:50:41Z</time>
      </trkpt>
      <trkpt lat="43.291833" lon="-4.177533">
        <ele>852.0</ele>
        <time>2015-05-23T13:50:42Z</time>
      </trkpt>
      <trkpt lat="43.291867" lon="-4.177417">
        <ele>851.0</ele>
        <time>2015-05-23T13:50:43Z</time>
      </trkpt>
      <trkpt lat="43.291933" lon="-4.177283">
        <ele>877.0</ele>
        <time>2015-05-23T13:50:44Z</time>
      </trkpt>
      <trkpt lat="43.291967" lon="-4.177183">
        <ele>880.0</ele>
        <time>2015-05-23T13:50:45Z</time>
      </trkpt>
      <trkpt lat="43.292000" lon="-4.177083">
        <ele>879.0</ele>
        <time>2015-05-23T13:50:46Z</time>
      </trkpt>
      <trkpt lat="43.292033" lon="-4.177000">
        <ele>879.0</ele>
        <time>2015-05-23T13:50:47Z</time>
      </trkpt>
      <trkpt lat="43.292083" lon="-4.176900">
        <ele>879.0</ele>
        <time>2015-05-23T13:50:48Z</time>
      </trkpt>
      <trkpt lat="43.292117" lon="-4.176817">
        <ele>878.0</ele>
        <time>2015-05-23T13:50:49Z</time>
      </trkpt>
      <trkpt lat="43.292133" lon="-4.176717">
        <ele>878.0</ele>
        <time>2015-05-23T13:50:50Z</time>
      </trkpt>
      <trkpt lat="43.292167" lon="-4.176600">
        <ele>877.0</ele>
        <time>2015-05-23T13:50:51Z</time>
      </trkpt>
      <trkpt lat="43.292183" lon="-4.176500">
        <ele>877.0</ele>
        <time>2015-05-23T13:50:52Z</time>
      </trkpt>
      <trkpt lat="43.292217" lon="-4.176400">
        <ele>876.0</ele>
        <time>2015-05-23T13:50:53Z</time>
      </trkpt>
      <trkpt lat="43.292233" lon="-4.176300">
        <ele>876.0</ele>
        <time>2015-05-23T13:50:54Z</time>
      </trkpt>
      <trkpt lat="43.292267" lon="-4.176183">
        <ele>875.0</ele>
        <time>2015-05-23T13:50:55Z</time>
      </trkpt>
      <trkpt lat="43.292283" lon="-4.176083">
        <ele>874.0</ele>
        <time>2015-05-23T13:50:56Z</time>
      </trkpt>
      <trkpt lat="43.292317" lon="-4.175967">
        <ele>874.0</ele>
        <time>2015-05-23T13:50:57Z</time>
      </trkpt>
      <trkpt lat="43.292350" lon="-4.175867">
        <ele>873.0</ele>
        <time>2015-05-23T13:50:58Z</time>
      </trkpt>
      <trkpt lat="43.292383" lon="-4.175750">
        <ele>872.0</ele>
        <time>2015-05-23T13:50:59Z</time>
      </trkpt>
      <trkpt lat="43.292417" lon="-4.175633">
        <ele>872.0</ele>
        <time>2015-05-23T13:51:00Z</time>
      </trkpt>
      <trkpt lat="43.292450" lon="-4.175500">
        <ele>871.0</ele>
        <time>2015-05-23T13:51:01Z</time>
      </trkpt>
      <trkpt lat="43.292500" lon="-4.175383">
        <ele>870.0</ele>
        <time>2015-05-23T13:51:02Z</time>
      </trkpt>
      <trkpt lat="43.292533" lon="-4.175267">
        <ele>870.0</ele>
        <time>2015-05-23T13:51:03Z</time>
      </trkpt>
      <trkpt lat="43.292567" lon="-4.175150">
        <ele>869.0</ele>
        <time>2015-05-23T13:51:04Z</time>
      </trkpt>
      <trkpt lat="43.292600" lon="-4.175033">
        <ele>868.0</ele>
        <time>2015-05-23T13:51:05Z</time>
      </trkpt>
      <trkpt lat="43.292633" lon="-4.174900">
        <ele>867.0</ele>
        <time>2015-05-23T13:51:06Z</time>
      </trkpt>
      <trkpt lat="43.292667" lon="-4.174800">
        <ele>866.0</ele>
        <time>2015-05-23T13:51:07Z</time>
      </trkpt>
      <trkpt lat="43.292700" lon="-4.174700">
        <ele>865.0</ele>
        <time>2015-05-23T13:51:08Z</time>
      </trkpt>
      <trkpt lat="43.292733" lon="-4.174617">
        <ele>865.0</ele>
        <time>2015-05-23T13:51:09Z</time>
      </trkpt>
      <trkpt lat="43.292767" lon="-4.174517">
        <ele>864.0</ele>
        <time>2015-05-23T13:51:10Z</time>
      </trkpt>
      <trkpt lat="43.292800" lon="-4.174400">
        <ele>863.0</ele>
        <time>2015-05-23T13:51:11Z</time>
      </trkpt>
      <trkpt lat="43.292833" lon="-4.174267">
        <ele>862.0</ele>
        <time>2015-05-23T13:51:12Z</time>
      </trkpt>
      <trkpt lat="43.292883" lon="-4.174150">
        <ele>861.0</ele>
        <time>2015-05-23T13:51:13Z</time>
      </trkpt>
      <trkpt lat="43.292917" lon="-4.174017">
        <ele>860.0</ele>
        <time>2015-05-23T13:51:14Z</time>
      </trkpt>
      <trkpt lat="43.292950" lon="-4.173900">
        <ele>859.0</ele>
        <time>2015-05-23T13:51:15Z</time>
      </trkpt>
      <trkpt lat="43.292983" lon="-4.173783">
        <ele>858.0</ele>
        <time>2015-05-23T13:51:16Z</time>
      </trkpt>
      <trkpt lat="43.293033" lon="-4.173667">
        <ele>857.0</ele>
        <time>2015-05-23T13:51:17Z</time>
      </trkpt>
      <trkpt lat="43.293067" lon="-4.173567">
        <ele>857.0</ele>
        <time>2015-05-23T13:51:18Z</time>
      </trkpt>
      <trkpt lat="43.293100" lon="-4.173450">
        <ele>856.0</ele>
        <time>2015-05-23T13:51:19Z</time>
      </trkpt>
      <trkpt lat="43.293133" lon="-4.173333">
        <ele>855.0</ele>
        <time>2015-05-23T13:51:20Z</time>
      </trkpt>
      <trkpt lat="43.293167" lon="-4.173217">
        <ele>854.0</ele>
        <time>2015-05-23T13:51:21Z</time>
      </trkpt>
      <trkpt lat="43.293217" lon="-4.173100">
        <ele>852.0</ele>
        <time>2015-05-23T13:51:22Z</time>
      </trkpt>
      <trkpt lat="43.293250" lon="-4.173000">
        <ele>851.0</ele>
        <time>2015-05-23T13:51:23Z</time>
      </trkpt>
      <trkpt lat="43.293283" lon="-4.172917">
        <ele>850.0</ele>
        <time>2015-05-23T13:51:24Z</time>
      </trkpt>
      <trkpt lat="43.293317" lon="-4.172817">
        <ele>849.0</ele>
        <time>2015-05-23T13:51:25Z</time>
      </trkpt>
      <trkpt lat="43.293350" lon="-4.172700">
        <ele>848.0</ele>
        <time>2015-05-23T13:51:26Z</time>
      </trkpt>
      <trkpt lat="43.293367" lon="-4.172600">
        <ele>847.0</ele>
        <time>2015-05-23T13:51:27Z</time>
      </trkpt>
      <trkpt lat="43.293417" lon="-4.172483">
        <ele>846.0</ele>
        <time>2015-05-23T13:51:28Z</time>
      </trkpt>
      <trkpt lat="43.293450" lon="-4.172367">
        <ele>846.0</ele>
        <time>2015-05-23T13:51:29Z</time>
      </trkpt>
      <trkpt lat="43.293517" lon="-4.172217">
        <ele>845.0</ele>
        <time>2015-05-23T13:51:30Z</time>
      </trkpt>
      <trkpt lat="43.293567" lon="-4.172100">
        <ele>844.0</ele>
        <time>2015-05-23T13:51:31Z</time>
      </trkpt>
      <trkpt lat="43.293617" lon="-4.172000">
        <ele>843.0</ele>
        <time>2015-05-23T13:51:32Z</time>
      </trkpt>
      <trkpt lat="43.293650" lon="-4.171900">
        <ele>842.0</ele>
        <time>2015-05-23T13:51:33Z</time>
      </trkpt>
      <trkpt lat="43.293700" lon="-4.171800">
        <ele>841.0</ele>
        <time>2015-05-23T13:51:34Z</time>
      </trkpt>
      <trkpt lat="43.293750" lon="-4.171700">
        <ele>840.0</ele>
        <time>2015-05-23T13:51:35Z</time>
      </trkpt>
      <trkpt lat="43.293783" lon="-4.171583">
        <ele>839.0</ele>
        <time>2015-05-23T13:51:36Z</time>
      </trkpt>
      <trkpt lat="43.293800" lon="-4.171500">
        <ele>838.0</ele>
        <time>2015-05-23T13:51:37Z</time>
      </trkpt>
      <trkpt lat="43.293833" lon="-4.171400">
        <ele>836.0</ele>
        <time>2015-05-23T13:51:38Z</time>
      </trkpt>
      <trkpt lat="43.293867" lon="-4.171300">
        <ele>835.0</ele>
        <time>2015-05-23T13:51:39Z</time>
      </trkpt>
      <trkpt lat="43.293900" lon="-4.171200">
        <ele>834.0</ele>
        <time>2015-05-23T13:51:40Z</time>
      </trkpt>
      <trkpt lat="43.293950" lon="-4.171083">
        <ele>833.0</ele>
        <time>2015-05-23T13:51:41Z</time>
      </trkpt>
      <trkpt lat="43.293983" lon="-4.170967">
        <ele>832.0</ele>
        <time>2015-05-23T13:51:42Z</time>
      </trkpt>
      <trkpt lat="43.293983" lon="-4.170900">
        <ele>831.0</ele>
        <time>2015-05-23T13:51:43Z</time>
      </trkpt>
      <trkpt lat="43.294017" lon="-4.170833">
        <ele>830.0</ele>
        <time>2015-05-23T13:51:44Z</time>
      </trkpt>
      <trkpt lat="43.294033" lon="-4.170733">
        <ele>829.0</ele>
        <time>2015-05-23T13:51:45Z</time>
      </trkpt>
      <trkpt lat="43.294067" lon="-4.170650">
        <ele>828.0</ele>
        <time>2015-05-23T13:51:46Z</time>
      </trkpt>
      <trkpt lat="43.294100" lon="-4.170550">
        <ele>828.0</ele>
        <time>2015-05-23T13:51:47Z</time>
      </trkpt>
      <trkpt lat="43.294117" lon="-4.170467">
        <ele>827.0</ele>
        <time>2015-05-23T13:51:48Z</time>
      </trkpt>
      <trkpt lat="43.294167" lon="-4.170383">
        <ele>826.0</ele>
        <time>2015-05-23T13:51:49Z</time>
      </trkpt>
      <trkpt lat="43.294217" lon="-4.170283">
        <ele>825.0</ele>
        <time>2015-05-23T13:51:50Z</time>
      </trkpt>
      <trkpt lat="43.294250" lon="-4.170217">
        <ele>824.0</ele>
        <time>2015-05-23T13:51:51Z</time>
      </trkpt>
      <trkpt lat="43.294283" lon="-4.170167">
        <ele>822.0</ele>
        <time>2015-05-23T13:51:52Z</time>
      </trkpt>
      <trkpt lat="43.294317" lon="-4.170083">
        <ele>821.0</ele>
        <time>2015-05-23T13:51:53Z</time>
      </trkpt>
      <trkpt lat="43.294350" lon="-4.169983">
        <ele>821.0</ele>
        <time>2015-05-23T13:51:54Z</time>
      </trkpt>
      <trkpt lat="43.294383" lon="-4.169883">
        <ele>820.0</ele>
        <time>2015-05-23T13:51:55Z</time>
      </trkpt>
      <trkpt lat="43.294433" lon="-4.169817">
        <ele>818.0</ele>
        <time>2015-05-23T13:51:56Z</time>
      </trkpt>
      <trkpt lat="43.294467" lon="-4.169733">
        <ele>818.0</ele>
        <time>2015-05-23T13:51:57Z</time>
      </trkpt>
      <trkpt lat="43.294500" lon="-4.169633">
        <ele>817.0</ele>
        <time>2015-05-23T13:51:58Z</time>
      </trkpt>
      <trkpt lat="43.294533" lon="-4.169533">
        <ele>816.0</ele>
        <time>2015-05-23T13:51:59Z</time>
      </trkpt>
      <trkpt lat="43.294567" lon="-4.169450">
        <ele>815.0</ele>
        <time>2015-05-23T13:52:00Z</time>
      </trkpt>
      <trkpt lat="43.294583" lon="-4.169350">
        <ele>814.0</ele>
        <time>2015-05-23T13:52:01Z</time>
      </trkpt>
      <trkpt lat="43.294600" lon="-4.169267">
        <ele>813.0</ele>
        <time>2015-05-23T13:52:02Z</time>
      </trkpt>
      <trkpt lat="43.294633" lon="-4.169200">
        <ele>812.0</ele>
        <time>2015-05-23T13:52:03Z</time>
      </trkpt>
      <trkpt lat="43.294667" lon="-4.169117">
        <ele>811.0</ele>
        <time>2015-05-23T13:52:04Z</time>
      </trkpt>
      <trkpt lat="43.294667" lon="-4.169017">
        <ele>810.0</ele>
        <time>2015-05-23T13:52:05Z</time>
      </trkpt>
      <trkpt lat="43.294683" lon="-4.168883">
        <ele>809.0</ele>
        <time>2015-05-23T13:52:06Z</time>
      </trkpt>
      <trkpt lat="43.294717" lon="-4.168767">
        <ele>808.0</ele>
        <time>2015-05-23T13:52:07Z</time>
      </trkpt>
      <trkpt lat="43.294733" lon="-4.168633">
        <ele>808.0</ele>
        <time>2015-05-23T13:52:08Z</time>
      </trkpt>
      <trkpt lat="43.294767" lon="-4.168517">
        <ele>807.0</ele>
        <time>2015-05-23T13:52:09Z</time>
      </trkpt>
      <trkpt lat="43.294783" lon="-4.168400">
        <ele>807.0</ele>
        <time>2015-05-23T13:52:10Z</time>
      </trkpt>
      <trkpt lat="43.294783" lon="-4.168300">
        <ele>806.0</ele>
        <time>2015-05-23T13:52:11Z</time>
      </trkpt>
      <trkpt lat="43.294817" lon="-4.168200">
        <ele>806.0</ele>
        <time>2015-05-23T13:52:12Z</time>
      </trkpt>
      <trkpt lat="43.294833" lon="-4.168117">
        <ele>805.0</ele>
        <time>2015-05-23T13:52:13Z</time>
      </trkpt>
      <trkpt lat="43.294867" lon="-4.168000">
        <ele>804.0</ele>
        <time>2015-05-23T13:52:14Z</time>
      </trkpt>
      <trkpt lat="43.294883" lon="-4.167900">
        <ele>804.0</ele>
        <time>2015-05-23T13:52:15Z</time>
      </trkpt>
      <trkpt lat="43.294900" lon="-4.167783">
        <ele>803.0</ele>
        <time>2015-05-23T13:52:16Z</time>
      </trkpt>
      <trkpt lat="43.294900" lon="-4.167667">
        <ele>803.0</ele>
        <time>2015-05-23T13:52:17Z</time>
      </trkpt>
      <trkpt lat="43.294900" lon="-4.167633">
        <ele>802.0</ele>
        <time>2015-05-23T13:52:18Z</time>
      </trkpt>
      <trkpt lat="43.294933" lon="-4.167600">
        <ele>801.0</ele>
        <time>2015-05-23T13:52:19Z</time>
      </trkpt>
      <trkpt lat="43.294950" lon="-4.167550">
        <ele>800.0</ele>
        <time>2015-05-23T13:52:20Z</time>
      </trkpt>
      <trkpt lat="43.294967" lon="-4.167483">
        <ele>799.0</ele>
        <time>2015-05-23T13:52:21Z</time>
      </trkpt>
      <trkpt lat="43.294983" lon="-4.167433">
        <ele>798.0</ele>
        <time>2015-05-23T13:52:22Z</time>
      </trkpt>
      <trkpt lat="43.295000" lon="-4.167350">
        <ele>797.0</ele>
        <time>2015-05-23T13:52:23Z</time>
      </trkpt>
      <trkpt lat="43.295033" lon="-4.167267">
        <ele>796.0</ele>
        <time>2015-05-23T13:52:24Z</time>
      </trkpt>
      <trkpt lat="43.295050" lon="-4.167200">
        <ele>795.0</ele>
        <time>2015-05-23T13:52:25Z</time>
      </trkpt>
      <trkpt lat="43.295117" lon="-4.167100">
        <ele>794.0</ele>
        <time>2015-05-23T13:52:26Z</time>
      </trkpt>
      <trkpt lat="43.295150" lon="-4.167017">
        <ele>793.0</ele>
        <time>2015-05-23T13:52:27Z</time>
      </trkpt>
      <trkpt lat="43.295183" lon="-4.166933">
        <ele>791.0</ele>
        <time>2015-05-23T13:52:28Z</time>
      </trkpt>
      <trkpt lat="43.295217" lon="-4.166850">
        <ele>790.0</ele>
        <time>2015-05-23T13:52:29Z</time>
      </trkpt>
      <trkpt lat="43.295250" lon="-4.166783">
        <ele>789.0</ele>
        <time>2015-05-23T13:52:30Z</time>
      </trkpt>
      <trkpt lat="43.295283" lon="-4.166700">
        <ele>787.0</ele>
        <time>2015-05-23T13:52:31Z</time>
      </trkpt>
      <trkpt lat="43.295300" lon="-4.166633">
        <ele>785.0</ele>
        <time>2015-05-23T13:52:32Z</time>
      </trkpt>
      <trkpt lat="43.295333" lon="-4.166550">
        <ele>784.0</ele>
        <time>2015-05-23T13:52:33Z</time>
      </trkpt>
      <trkpt lat="43.295367" lon="-4.166483">
        <ele>782.0</ele>
        <time>2015-05-23T13:52:34Z</time>
      </trkpt>
      <trkpt lat="43.295383" lon="-4.166400">
        <ele>781.0</ele>
        <time>2015-05-23T13:52:35Z</time>
      </trkpt>
      <trkpt lat="43.295400" lon="-4.166333">
        <ele>779.0</ele>
        <time>2015-05-23T13:52:36Z</time>
      </trkpt>
      <trkpt lat="43.295417" lon="-4.166267">
        <ele>778.0</ele>
        <time>2015-05-23T13:52:37Z</time>
      </trkpt>
      <trkpt lat="43.295433" lon="-4.166183">
        <ele>776.0</ele>
        <time>2015-05-23T13:52:38Z</time>
      </trkpt>
      <trkpt lat="43.295467" lon="-4.166100">
        <ele>774.0</ele>
        <time>2015-05-23T13:52:39Z</time>
      </trkpt>
      <trkpt lat="43.295483" lon="-4.166017">
        <ele>773.0</ele>
        <time>2015-05-23T13:52:40Z</time>
      </trkpt>
      <trkpt lat="43.295500" lon="-4.165917">
        <ele>771.0</ele>
        <time>2015-05-23T13:52:41Z</time>
      </trkpt>
      <trkpt lat="43.295517" lon="-4.165817">
        <ele>769.0</ele>
        <time>2015-05-23T13:52:42Z</time>
      </trkpt>
      <trkpt lat="43.295533" lon="-4.165717">
        <ele>767.0</ele>
        <time>2015-05-23T13:52:43Z</time>
      </trkpt>
      <trkpt lat="43.295550" lon="-4.165617">
        <ele>765.0</ele>
        <time>2015-05-23T13:52:44Z</time>
      </trkpt>
      <trkpt lat="43.295550" lon="-4.165517">
        <ele>763.0</ele>
        <time>2015-05-23T13:52:45Z</time>
      </trkpt>
      <trkpt lat="43.295533" lon="-4.165417">
        <ele>762.0</ele>
        <time>2015-05-23T13:52:46Z</time>
      </trkpt>
      <trkpt lat="43.295533" lon="-4.165317">
        <ele>760.0</ele>
        <time>2015-05-23T13:52:47Z</time>
      </trkpt>
      <trkpt lat="43.295533" lon="-4.165233">
        <ele>758.0</ele>
        <time>2015-05-23T13:52:48Z</time>
      </trkpt>
      <trkpt lat="43.295533" lon="-4.165133">
        <ele>757.0</ele>
        <time>2015-05-23T13:52:49Z</time>
      </trkpt>
      <trkpt lat="43.295533" lon="-4.165100">
        <ele>754.0</ele>
        <time>2015-05-23T13:52:50Z</time>
      </trkpt>
      <trkpt lat="43.295533" lon="-4.165033">
        <ele>753.0</ele>
        <time>2015-05-23T13:52:51Z</time>
      </trkpt>
      <trkpt lat="43.295550" lon="-4.164983">
        <ele>751.0</ele>
        <time>2015-05-23T13:52:52Z</time>
      </trkpt>
      <trkpt lat="43.295600" lon="-4.164933">
        <ele>748.0</ele>
        <time>2015-05-23T13:52:53Z</time>
      </trkpt>
      <trkpt lat="43.295633" lon="-4.164900">
        <ele>746.0</ele>
        <time>2015-05-23T13:52:54Z</time>
      </trkpt>
      <trkpt lat="43.295667" lon="-4.164850">
        <ele>744.0</ele>
        <time>2015-05-23T13:52:55Z</time>
      </trkpt>
      <trkpt lat="43.295683" lon="-4.164783">
        <ele>742.0</ele>
        <time>2015-05-23T13:52:56Z</time>
      </trkpt>
      <trkpt lat="43.295717" lon="-4.164733">
        <ele>740.0</ele>
        <time>2015-05-23T13:52:57Z</time>
      </trkpt>
      <trkpt lat="43.295750" lon="-4.164667">
        <ele>739.0</ele>
        <time>2015-05-23T13:52:58Z</time>
      </trkpt>
      <trkpt lat="43.295783" lon="-4.164600">
        <ele>737.0</ele>
        <time>2015-05-23T13:52:59Z</time>
      </trkpt>
      <trkpt lat="43.295817" lon="-4.164533">
        <ele>735.0</ele>
        <time>2015-05-23T13:53:00Z</time>
      </trkpt>
      <trkpt lat="43.295850" lon="-4.164467">
        <ele>734.0</ele>
        <time>2015-05-23T13:53:01Z</time>
      </trkpt>
      <trkpt lat="43.295883" lon="-4.164333">
        <ele>732.0</ele>
        <time>2015-05-23T13:53:02Z</time>
      </trkpt>
      <trkpt lat="43.295900" lon="-4.164233">
        <ele>730.0</ele>
        <time>2015-05-23T13:53:03Z</time>
      </trkpt>
      <trkpt lat="43.295933" lon="-4.164150">
        <ele>728.0</ele>
        <time>2015-05-23T13:53:04Z</time>
      </trkpt>
      <trkpt lat="43.295950" lon="-4.164067">
        <ele>727.0</ele>
        <time>2015-05-23T13:53:05Z</time>
      </trkpt>
      <trkpt lat="43.295933" lon="-4.163967">
        <ele>725.0</ele>
        <time>2015-05-23T13:53:06Z</time>
      </trkpt>
      <trkpt lat="43.295917" lon="-4.163883">
        <ele>724.0</ele>
        <time>2015-05-23T13:53:07Z</time>
      </trkpt>
      <trkpt lat="43.295900" lon="-4.163833">
        <ele>722.0</ele>
        <time>2015-05-23T13:53:08Z</time>
      </trkpt>
      <trkpt lat="43.295883" lon="-4.163750">
        <ele>721.0</ele>
        <time>2015-05-23T13:53:09Z</time>
      </trkpt>
      <trkpt lat="43.295883" lon="-4.163683">
        <ele>719.0</ele>
        <time>2015-05-23T13:53:10Z</time>
      </trkpt>
      <trkpt lat="43.295867" lon="-4.163600">
        <ele>718.0</ele>
        <time>2015-05-23T13:53:11Z</time>
      </trkpt>
      <trkpt lat="43.295817" lon="-4.163517">
        <ele>717.0</ele>
        <time>2015-05-23T13:53:12Z</time>
      </trkpt>
      <trkpt lat="43.295767" lon="-4.163400">
        <ele>715.0</ele>
        <time>2015-05-23T13:53:13Z</time>
      </trkpt>
      <trkpt lat="43.295750" lon="-4.163283">
        <ele>714.0</ele>
        <time>2015-05-23T13:53:14Z</time>
      </trkpt>
      <trkpt lat="43.295733" lon="-4.163183">
        <ele>713.0</ele>
        <time>2015-05-23T13:53:15Z</time>
      </trkpt>
      <trkpt lat="43.295717" lon="-4.163083">
        <ele>712.0</ele>
        <time>2015-05-23T13:53:16Z</time>
      </trkpt>
      <trkpt lat="43.295733" lon="-4.163033">
        <ele>711.0</ele>
        <time>2015-05-23T13:53:17Z</time>
      </trkpt>
      <trkpt lat="43.295767" lon="-4.162950">
        <ele>710.0</ele>
        <time>2015-05-23T13:53:18Z</time>
      </trkpt>
      <trkpt lat="43.295767" lon="-4.162883">
        <ele>710.0</ele>
        <time>2015-05-23T13:53:19Z</time>
      </trkpt>
      <trkpt lat="43.295800" lon="-4.162800">
        <ele>709.0</ele>
        <time>2015-05-23T13:53:20Z</time>
      </trkpt>
      <trkpt lat="43.295817" lon="-4.162750">
        <ele>708.0</ele>
        <time>2015-05-23T13:53:21Z</time>
      </trkpt>
      <trkpt lat="43.295833" lon="-4.162683">
        <ele>707.0</ele>
        <time>2015-05-23T13:53:22Z</time>
      </trkpt>
      <trkpt lat="43.295850" lon="-4.162650">
        <ele>706.0</ele>
        <time>2015-05-23T13:53:23Z</time>
      </trkpt>
      <trkpt lat="43.295850" lon="-4.162600">
        <ele>706.0</ele>
        <time>2015-05-23T13:53:24Z</time>
      </trkpt>
      <trkpt lat="43.295850" lon="-4.162550">
        <ele>705.0</ele>
        <time>2015-05-23T13:53:25Z</time>
      </trkpt>
      <trkpt lat="43.295867" lon="-4.162483">
        <ele>705.0</ele>
        <time>2015-05-23T13:53:26Z</time>
      </trkpt>
      <trkpt lat="43.295883" lon="-4.162417">
        <ele>705.0</ele>
        <time>2015-05-23T13:53:27Z</time>
      </trkpt>
      <trkpt lat="43.295883" lon="-4.162400">
        <ele>706.0</ele>
        <time>2015-05-23T13:53:28Z</time>
      </trkpt>
      <trkpt lat="43.295883" lon="-4.162350">
        <ele>706.0</ele>
        <time>2015-05-23T13:53:29Z</time>
      </trkpt>
      <trkpt lat="43.295900" lon="-4.162300">
        <ele>706.0</ele>
        <time>2015-05-23T13:53:30Z</time>
      </trkpt>
      <trkpt lat="43.295917" lon="-4.162267">
        <ele>706.0</ele>
        <time>2015-05-23T13:53:31Z</time>
      </trkpt>
      <trkpt lat="43.295950" lon="-4.162250">
        <ele>706.0</ele>
        <time>2015-05-23T13:53:32Z</time>
      </trkpt>
      <trkpt lat="43.296000" lon="-4.162233">
        <ele>708.0</ele>
        <time>2015-05-23T13:53:33Z</time>
      </trkpt>
      <trkpt lat="43.296050" lon="-4.162267">
        <ele>709.0</ele>
        <time>2015-05-23T13:53:34Z</time>
      </trkpt>
      <trkpt lat="43.296100" lon="-4.162300">
        <ele>711.0</ele>
        <time>2015-05-23T13:53:35Z</time>
      </trkpt>
      <trkpt lat="43.296150" lon="-4.162367">
        <ele>712.0</ele>
        <time>2015-05-23T13:53:36Z</time>
      </trkpt>
      <trkpt lat="43.296183" lon="-4.162450">
        <ele>714.0</ele>
        <time>2015-05-23T13:53:37Z</time>
      </trkpt>
      <trkpt lat="43.296183" lon="-4.162533">
        <ele>716.0</ele>
        <time>2015-05-23T13:53:38Z</time>
      </trkpt>
      <trkpt lat="43.296183" lon="-4.162633">
        <ele>718.0</ele>
        <time>2015-05-23T13:53:39Z</time>
      </trkpt>
      <trkpt lat="43.296150" lon="-4.162717">
        <ele>719.0</ele>
        <time>2015-05-23T13:53:40Z</time>
      </trkpt>
      <trkpt lat="43.296117" lon="-4.162833">
        <ele>720.0</ele>
        <time>2015-05-23T13:53:41Z</time>
      </trkpt>
      <trkpt lat="43.296067" lon="-4.162933">
        <ele>720.0</ele>
        <time>2015-05-23T13:53:42Z</time>
      </trkpt>
      <trkpt lat="43.296000" lon="-4.163017">
        <ele>721.0</ele>
        <time>2015-05-23T13:53:43Z</time>
      </trkpt>
      <trkpt lat="43.295917" lon="-4.163083">
        <ele>721.0</ele>
        <time>2015-05-23T13:53:44Z</time>
      </trkpt>
      <trkpt lat="43.295817" lon="-4.163117">
        <ele>723.0</ele>
        <time>2015-05-23T13:53:45Z</time>
      </trkpt>
      <trkpt lat="43.295717" lon="-4.163117">
        <ele>724.0</ele>
        <time>2015-05-23T13:53:46Z</time>
      </trkpt>
      <trkpt lat="43.295633" lon="-4.163100">
        <ele>725.0</ele>
        <time>2015-05-23T13:53:47Z</time>
      </trkpt>
      <trkpt lat="43.295533" lon="-4.163050">
        <ele>725.0</ele>
        <time>2015-05-23T13:53:48Z</time>
      </trkpt>
      <trkpt lat="43.295467" lon="-4.162983">
        <ele>726.0</ele>
        <time>2015-05-23T13:53:49Z</time>
      </trkpt>
      <trkpt lat="43.295400" lon="-4.162917">
        <ele>726.0</ele>
        <time>2015-05-23T13:53:50Z</time>
      </trkpt>
      <trkpt lat="43.295367" lon="-4.162833">
        <ele>727.0</ele>
        <time>2015-05-23T13:53:51Z</time>
      </trkpt>
      <trkpt lat="43.295333" lon="-4.162750">
        <ele>727.0</ele>
        <time>2015-05-23T13:53:52Z</time>
      </trkpt>
      <trkpt lat="43.295300" lon="-4.162683">
        <ele>727.0</ele>
        <time>2015-05-23T13:53:53Z</time>
      </trkpt>
      <trkpt lat="43.295283" lon="-4.162600">
        <ele>727.0</ele>
        <time>2015-05-23T13:53:54Z</time>
      </trkpt>
      <trkpt lat="43.295267" lon="-4.162533">
        <ele>727.0</ele>
        <time>2015-05-23T13:53:55Z</time>
      </trkpt>
      <trkpt lat="43.295250" lon="-4.162450">
        <ele>727.0</ele>
        <time>2015-05-23T13:53:56Z</time>
      </trkpt>
      <trkpt lat="43.295233" lon="-4.162400">
        <ele>727.0</ele>
        <time>2015-05-23T13:53:57Z</time>
      </trkpt>
      <trkpt lat="43.295200" lon="-4.162350">
        <ele>728.0</ele>
        <time>2015-05-23T13:53:58Z</time>
      </trkpt>
      <trkpt lat="43.295183" lon="-4.162283">
        <ele>728.0</ele>
        <time>2015-05-23T13:53:59Z</time>
      </trkpt>
      <trkpt lat="43.295167" lon="-4.162200">
        <ele>728.0</ele>
        <time>2015-05-23T13:54:00Z</time>
      </trkpt>
      <trkpt lat="43.295150" lon="-4.162133">
        <ele>728.0</ele>
        <time>2015-05-23T13:54:01Z</time>
      </trkpt>
      <trkpt lat="43.295150" lon="-4.162050">
        <ele>728.0</ele>
        <time>2015-05-23T13:54:02Z</time>
      </trkpt>
      <trkpt lat="43.295167" lon="-4.162000">
        <ele>728.0</ele>
        <time>2015-05-23T13:54:03Z</time>
      </trkpt>
      <trkpt lat="43.295167" lon="-4.161950">
        <ele>728.0</ele>
        <time>2015-05-23T13:54:04Z</time>
      </trkpt>
      <trkpt lat="43.295183" lon="-4.161900">
        <ele>728.0</ele>
        <time>2015-05-23T13:54:05Z</time>
      </trkpt>
      <trkpt lat="43.295200" lon="-4.161850">
        <ele>728.0</ele>
        <time>2015-05-23T13:54:06Z</time>
      </trkpt>
      <trkpt lat="43.295217" lon="-4.161767">
        <ele>728.0</ele>
        <time>2015-05-23T13:54:07Z</time>
      </trkpt>
      <trkpt lat="43.295250" lon="-4.161700">
        <ele>728.0</ele>
        <time>2015-05-23T13:54:08Z</time>
      </trkpt>
      <trkpt lat="43.295283" lon="-4.161617">
        <ele>728.0</ele>
        <time>2015-05-23T13:54:09Z</time>
      </trkpt>
      <trkpt lat="43.295317" lon="-4.161533">
        <ele>727.0</ele>
        <time>2015-05-23T13:54:10Z</time>
      </trkpt>
      <trkpt lat="43.295350" lon="-4.161450">
        <ele>727.0</ele>
        <time>2015-05-23T13:54:11Z</time>
      </trkpt>
      <trkpt lat="43.295383" lon="-4.161350">
        <ele>727.0</ele>
        <time>2015-05-23T13:54:12Z</time>
      </trkpt>
      <trkpt lat="43.295400" lon="-4.161250">
        <ele>727.0</ele>
        <time>2015-05-23T13:54:13Z</time>
      </trkpt>
      <trkpt lat="43.295433" lon="-4.161150">
        <ele>727.0</ele>
        <time>2015-05-23T13:54:14Z</time>
      </trkpt>
      <trkpt lat="43.295450" lon="-4.161067">
        <ele>726.0</ele>
        <time>2015-05-23T13:54:15Z</time>
      </trkpt>
      <trkpt lat="43.295467" lon="-4.160983">
        <ele>726.0</ele>
        <time>2015-05-23T13:54:16Z</time>
      </trkpt>
      <trkpt lat="43.295500" lon="-4.160900">
        <ele>726.0</ele>
        <time>2015-05-23T13:54:17Z</time>
      </trkpt>
      <trkpt lat="43.295517" lon="-4.160817">
        <ele>726.0</ele>
        <time>2015-05-23T13:54:18Z</time>
      </trkpt>
      <trkpt lat="43.295533" lon="-4.160750">
        <ele>725.0</ele>
        <time>2015-05-23T13:54:19Z</time>
      </trkpt>
      <trkpt lat="43.295567" lon="-4.160667">
        <ele>725.0</ele>
        <time>2015-05-23T13:54:20Z</time>
      </trkpt>
      <trkpt lat="43.295567" lon="-4.160567">
        <ele>725.0</ele>
        <time>2015-05-23T13:54:21Z</time>
      </trkpt>
      <trkpt lat="43.295583" lon="-4.160467">
        <ele>725.0</ele>
        <time>2015-05-23T13:54:22Z</time>
      </trkpt>
      <trkpt lat="43.295600" lon="-4.160367">
        <ele>724.0</ele>
        <time>2015-05-23T13:54:23Z</time>
      </trkpt>
      <trkpt lat="43.295617" lon="-4.160267">
        <ele>724.0</ele>
        <time>2015-05-23T13:54:24Z</time>
      </trkpt>
      <trkpt lat="43.295617" lon="-4.160167">
        <ele>724.0</ele>
        <time>2015-05-23T13:54:25Z</time>
      </trkpt>
      <trkpt lat="43.295633" lon="-4.160050">
        <ele>724.0</ele>
        <time>2015-05-23T13:54:26Z</time>
      </trkpt>
      <trkpt lat="43.295650" lon="-4.159967">
        <ele>724.0</ele>
        <time>2015-05-23T13:54:27Z</time>
      </trkpt>
      <trkpt lat="43.295650" lon="-4.159883">
        <ele>723.0</ele>
        <time>2015-05-23T13:54:28Z</time>
      </trkpt>
      <trkpt lat="43.295633" lon="-4.159800">
        <ele>723.0</ele>
        <time>2015-05-23T13:54:29Z</time>
      </trkpt>
      <trkpt lat="43.295633" lon="-4.159717">
        <ele>723.0</ele>
        <time>2015-05-23T13:54:30Z</time>
      </trkpt>
      <trkpt lat="43.295633" lon="-4.159600">
        <ele>722.0</ele>
        <time>2015-05-23T13:54:31Z</time>
      </trkpt>
      <trkpt lat="43.295650" lon="-4.159517">
        <ele>722.0</ele>
        <time>2015-05-23T13:54:32Z</time>
      </trkpt>
      <trkpt lat="43.295650" lon="-4.159433">
        <ele>722.0</ele>
        <time>2015-05-23T13:54:33Z</time>
      </trkpt>
      <trkpt lat="43.295650" lon="-4.159367">
        <ele>722.0</ele>
        <time>2015-05-23T13:54:34Z</time>
      </trkpt>
      <trkpt lat="43.295650" lon="-4.159300">
        <ele>722.0</ele>
        <time>2015-05-23T13:54:35Z</time>
      </trkpt>
      <trkpt lat="43.295667" lon="-4.159233">
        <ele>722.0</ele>
        <time>2015-05-23T13:54:36Z</time>
      </trkpt>
      <trkpt lat="43.295667" lon="-4.159167">
        <ele>722.0</ele>
        <time>2015-05-23T13:54:37Z</time>
      </trkpt>
      <trkpt lat="43.295683" lon="-4.159083">
        <ele>721.0</ele>
        <time>2015-05-23T13:54:38Z</time>
      </trkpt>
      <trkpt lat="43.295700" lon="-4.159017">
        <ele>721.0</ele>
        <time>2015-05-23T13:54:39Z</time>
      </trkpt>
      <trkpt lat="43.295717" lon="-4.158933">
        <ele>721.0</ele>
        <time>2015-05-23T13:54:40Z</time>
      </trkpt>
      <trkpt lat="43.295717" lon="-4.158850">
        <ele>721.0</ele>
        <time>2015-05-23T13:54:41Z</time>
      </trkpt>
      <trkpt lat="43.295733" lon="-4.158767">
        <ele>721.0</ele>
        <time>2015-05-23T13:54:42Z</time>
      </trkpt>
      <trkpt lat="43.295750" lon="-4.158667">
        <ele>721.0</ele>
        <time>2015-05-23T13:54:43Z</time>
      </trkpt>
      <trkpt lat="43.295767" lon="-4.158600">
        <ele>721.0</ele>
        <time>2015-05-23T13:54:44Z</time>
      </trkpt>
      <trkpt lat="43.295800" lon="-4.158517">
        <ele>721.0</ele>
        <time>2015-05-23T13:54:45Z</time>
      </trkpt>
      <trkpt lat="43.295817" lon="-4.158433">
        <ele>721.0</ele>
        <time>2015-05-23T13:54:46Z</time>
      </trkpt>
      <trkpt lat="43.295833" lon="-4.158350">
        <ele>721.0</ele>
        <time>2015-05-23T13:54:47Z</time>
      </trkpt>
      <trkpt lat="43.295833" lon="-4.158267">
        <ele>721.0</ele>
        <time>2015-05-23T13:54:48Z</time>
      </trkpt>
      <trkpt lat="43.295850" lon="-4.158167">
        <ele>721.0</ele>
        <time>2015-05-23T13:54:49Z</time>
      </trkpt>
      <trkpt lat="43.295850" lon="-4.158050">
        <ele>721.0</ele>
        <time>2015-05-23T13:54:50Z</time>
      </trkpt>
      <trkpt lat="43.295883" lon="-4.157933">
        <ele>721.0</ele>
        <time>2015-05-23T13:54:51Z</time>
      </trkpt>
      <trkpt lat="43.295917" lon="-4.157817">
        <ele>721.0</ele>
        <time>2015-05-23T13:54:52Z</time>
      </trkpt>
      <trkpt lat="43.295967" lon="-4.157717">
        <ele>721.0</ele>
        <time>2015-05-23T13:54:53Z</time>
      </trkpt>
      <trkpt lat="43.295983" lon="-4.157617">
        <ele>720.0</ele>
        <time>2015-05-23T13:54:54Z</time>
      </trkpt>
      <trkpt lat="43.296017" lon="-4.157533">
        <ele>720.0</ele>
        <time>2015-05-23T13:54:55Z</time>
      </trkpt>
      <trkpt lat="43.296050" lon="-4.157450">
        <ele>720.0</ele>
        <time>2015-05-23T13:54:56Z</time>
      </trkpt>
      <trkpt lat="43.296067" lon="-4.157350">
        <ele>720.0</ele>
        <time>2015-05-23T13:54:57Z</time>
      </trkpt>
      <trkpt lat="43.296083" lon="-4.157267">
        <ele>720.0</ele>
        <time>2015-05-23T13:54:58Z</time>
      </trkpt>
      <trkpt lat="43.296100" lon="-4.157167">
        <ele>720.0</ele>
        <time>2015-05-23T13:54:59Z</time>
      </trkpt>
      <trkpt lat="43.296117" lon="-4.157050">
        <ele>719.0</ele>
        <time>2015-05-23T13:55:00Z</time>
      </trkpt>
      <trkpt lat="43.296133" lon="-4.156933">
        <ele>719.0</ele>
        <time>2015-05-23T13:55:01Z</time>
      </trkpt>
      <trkpt lat="43.296150" lon="-4.156817">
        <ele>719.0</ele>
        <time>2015-05-23T13:55:02Z</time>
      </trkpt>
      <trkpt lat="43.296167" lon="-4.156683">
        <ele>719.0</ele>
        <time>2015-05-23T13:55:03Z</time>
      </trkpt>
      <trkpt lat="43.296200" lon="-4.156567">
        <ele>718.0</ele>
        <time>2015-05-23T13:55:04Z</time>
      </trkpt>
      <trkpt lat="43.296217" lon="-4.156433">
        <ele>718.0</ele>
        <time>2015-05-23T13:55:05Z</time>
      </trkpt>
      <trkpt lat="43.296250" lon="-4.156350">
        <ele>718.0</ele>
        <time>2015-05-23T13:55:06Z</time>
      </trkpt>
      <trkpt lat="43.296267" lon="-4.156250">
        <ele>718.0</ele>
        <time>2015-05-23T13:55:07Z</time>
      </trkpt>
      <trkpt lat="43.296300" lon="-4.156167">
        <ele>717.0</ele>
        <time>2015-05-23T13:55:08Z</time>
      </trkpt>
      <trkpt lat="43.296333" lon="-4.156083">
        <ele>717.0</ele>
        <time>2015-05-23T13:55:09Z</time>
      </trkpt>
      <trkpt lat="43.296350" lon="-4.155983">
        <ele>716.0</ele>
        <time>2015-05-23T13:55:10Z</time>
      </trkpt>
      <trkpt lat="43.296383" lon="-4.155867">
        <ele>715.0</ele>
        <time>2015-05-23T13:55:11Z</time>
      </trkpt>
      <trkpt lat="43.296400" lon="-4.155750">
        <ele>714.0</ele>
        <time>2015-05-23T13:55:12Z</time>
      </trkpt>
      <trkpt lat="43.296433" lon="-4.155667">
        <ele>714.0</ele>
        <time>2015-05-23T13:55:13Z</time>
      </trkpt>
      <trkpt lat="43.296467" lon="-4.155583">
        <ele>714.0</ele>
        <time>2015-05-23T13:55:14Z</time>
      </trkpt>
      <trkpt lat="43.296483" lon="-4.155500">
        <ele>713.0</ele>
        <time>2015-05-23T13:55:15Z</time>
      </trkpt>
      <trkpt lat="43.296517" lon="-4.155400">
        <ele>713.0</ele>
        <time>2015-05-23T13:55:16Z</time>
      </trkpt>
      <trkpt lat="43.296550" lon="-4.155300">
        <ele>713.0</ele>
        <time>2015-05-23T13:55:17Z</time>
      </trkpt>
      <trkpt lat="43.296583" lon="-4.155183">
        <ele>713.0</ele>
        <time>2015-05-23T13:55:18Z</time>
      </trkpt>
      <trkpt lat="43.296617" lon="-4.155100">
        <ele>712.0</ele>
        <time>2015-05-23T13:55:19Z</time>
      </trkpt>
      <trkpt lat="43.296650" lon="-4.155017">
        <ele>712.0</ele>
        <time>2015-05-23T13:55:20Z</time>
      </trkpt>
      <trkpt lat="43.296683" lon="-4.154933">
        <ele>711.0</ele>
        <time>2015-05-23T13:55:21Z</time>
      </trkpt>
      <trkpt lat="43.296717" lon="-4.154850">
        <ele>711.0</ele>
        <time>2015-05-23T13:55:22Z</time>
      </trkpt>
      <trkpt lat="43.296733" lon="-4.154783">
        <ele>710.0</ele>
        <time>2015-05-23T13:55:23Z</time>
      </trkpt>
      <trkpt lat="43.296750" lon="-4.154717">
        <ele>710.0</ele>
        <time>2015-05-23T13:55:24Z</time>
      </trkpt>
      <trkpt lat="43.296750" lon="-4.154633">
        <ele>710.0</ele>
        <time>2015-05-23T13:55:25Z</time>
      </trkpt>
      <trkpt lat="43.296767" lon="-4.154550">
        <ele>710.0</ele>
        <time>2015-05-23T13:55:26Z</time>
      </trkpt>
      <trkpt lat="43.296783" lon="-4.154467">
        <ele>710.0</ele>
        <time>2015-05-23T13:55:27Z</time>
      </trkpt>
      <trkpt lat="43.296800" lon="-4.154383">
        <ele>711.0</ele>
        <time>2015-05-23T13:55:28Z</time>
      </trkpt>
      <trkpt lat="43.296800" lon="-4.154300">
        <ele>710.0</ele>
        <time>2015-05-23T13:55:29Z</time>
      </trkpt>
      <trkpt lat="43.296817" lon="-4.154217">
        <ele>710.0</ele>
        <time>2015-05-23T13:55:30Z</time>
      </trkpt>
      <trkpt lat="43.296850" lon="-4.154150">
        <ele>710.0</ele>
        <time>2015-05-23T13:55:31Z</time>
      </trkpt>
      <trkpt lat="43.296883" lon="-4.154083">
        <ele>711.0</ele>
        <time>2015-05-23T13:55:32Z</time>
      </trkpt>
      <trkpt lat="43.296900" lon="-4.154050">
        <ele>711.0</ele>
        <time>2015-05-23T13:55:33Z</time>
      </trkpt>
      <trkpt lat="43.296933" lon="-4.154050">
        <ele>711.0</ele>
        <time>2015-05-23T13:55:34Z</time>
      </trkpt>
      <trkpt lat="43.296950" lon="-4.154083">
        <ele>711.0</ele>
        <time>2015-05-23T13:55:35Z</time>
      </trkpt>
      <trkpt lat="43.296950" lon="-4.154117">
        <ele>711.0</ele>
        <time>2015-05-23T13:55:36Z</time>
      </trkpt>
      <trkpt lat="43.296967" lon="-4.154167">
        <ele>711.0</ele>
        <time>2015-05-23T13:55:37Z</time>
      </trkpt>
      <trkpt lat="43.296967" lon="-4.154217">
        <ele>711.0</ele>
        <time>2015-05-23T13:55:38Z</time>
      </trkpt>
      <trkpt lat="43.296983" lon="-4.154267">
        <ele>710.0</ele>
        <time>2015-05-23T13:55:39Z</time>
      </trkpt>
      <trkpt lat="43.296983" lon="-4.154333">
        <ele>709.0</ele>
        <time>2015-05-23T13:55:40Z</time>
      </trkpt>
      <trkpt lat="43.297000" lon="-4.154400">
        <ele>710.0</ele>
        <time>2015-05-23T13:55:41Z</time>
      </trkpt>
      <trkpt lat="43.297000" lon="-4.154483">
        <ele>709.0</ele>
        <time>2015-05-23T13:55:42Z</time>
      </trkpt>
      <trkpt lat="43.296983" lon="-4.154550">
        <ele>709.0</ele>
        <time>2015-05-23T13:55:43Z</time>
      </trkpt>
      <trkpt lat="43.296950" lon="-4.154600">
        <ele>708.0</ele>
        <time>2015-05-23T13:55:44Z</time>
      </trkpt>
      <trkpt lat="43.296883" lon="-4.154633">
        <ele>708.0</ele>
        <time>2015-05-23T13:55:45Z</time>
      </trkpt>
      <trkpt lat="43.296817" lon="-4.154667">
        <ele>707.0</ele>
        <time>2015-05-23T13:55:46Z</time>
      </trkpt>
      <trkpt lat="43.296733" lon="-4.154683">
        <ele>707.0</ele>
        <time>2015-05-23T13:55:47Z</time>
      </trkpt>
      <trkpt lat="43.296667" lon="-4.154667">
        <ele>707.0</ele>
        <time>2015-05-23T13:55:48Z</time>
      </trkpt>
      <trkpt lat="43.296583" lon="-4.154650">
        <ele>707.0</ele>
        <time>2015-05-23T13:55:49Z</time>
      </trkpt>
      <trkpt lat="43.296517" lon="-4.154633">
        <ele>707.0</ele>
        <time>2015-05-23T13:55:50Z</time>
      </trkpt>
      <trkpt lat="43.296450" lon="-4.154633">
        <ele>707.0</ele>
        <time>2015-05-23T13:55:51Z</time>
      </trkpt>
      <trkpt lat="43.296350" lon="-4.154633">
        <ele>706.0</ele>
        <time>2015-05-23T13:55:52Z</time>
      </trkpt>
      <trkpt lat="43.296250" lon="-4.154650">
        <ele>706.0</ele>
        <time>2015-05-23T13:55:53Z</time>
      </trkpt>
      <trkpt lat="43.296167" lon="-4.154683">
        <ele>706.0</ele>
        <time>2015-05-23T13:55:54Z</time>
      </trkpt>
      <trkpt lat="43.296067" lon="-4.154700">
        <ele>706.0</ele>
        <time>2015-05-23T13:55:55Z</time>
      </trkpt>
      <trkpt lat="43.295967" lon="-4.154683">
        <ele>706.0</ele>
        <time>2015-05-23T13:55:56Z</time>
      </trkpt>
      <trkpt lat="43.295867" lon="-4.154667">
        <ele>708.0</ele>
        <time>2015-05-23T13:55:57Z</time>
      </trkpt>
      <trkpt lat="43.295783" lon="-4.154650">
        <ele>710.0</ele>
        <time>2015-05-23T13:55:58Z</time>
      </trkpt>
      <trkpt lat="43.295700" lon="-4.154633">
        <ele>712.0</ele>
        <time>2015-05-23T13:55:59Z</time>
      </trkpt>
      <trkpt lat="43.295617" lon="-4.154600">
        <ele>710.0</ele>
        <time>2015-05-23T13:56:00Z</time>
      </trkpt>
      <trkpt lat="43.295533" lon="-4.154550">
        <ele>711.0</ele>
        <time>2015-05-23T13:56:01Z</time>
      </trkpt>
      <trkpt lat="43.295433" lon="-4.154467">
        <ele>711.0</ele>
        <time>2015-05-23T13:56:02Z</time>
      </trkpt>
      <trkpt lat="43.295367" lon="-4.154350">
        <ele>712.0</ele>
        <time>2015-05-23T13:56:03Z</time>
      </trkpt>
      <trkpt lat="43.295333" lon="-4.154250">
        <ele>713.0</ele>
        <time>2015-05-23T13:56:04Z</time>
      </trkpt>
      <trkpt lat="43.295333" lon="-4.154167">
        <ele>713.0</ele>
        <time>2015-05-23T13:56:05Z</time>
      </trkpt>
      <trkpt lat="43.295350" lon="-4.154100">
        <ele>713.0</ele>
        <time>2015-05-23T13:56:06Z</time>
      </trkpt>
      <trkpt lat="43.295400" lon="-4.154067">
        <ele>713.0</ele>
        <time>2015-05-23T13:56:07Z</time>
      </trkpt>
      <trkpt lat="43.295433" lon="-4.154050">
        <ele>713.0</ele>
        <time>2015-05-23T13:56:08Z</time>
      </trkpt>
      <trkpt lat="43.295467" lon="-4.154067">
        <ele>714.0</ele>
        <time>2015-05-23T13:56:09Z</time>
      </trkpt>
      <trkpt lat="43.295483" lon="-4.154100">
        <ele>715.0</ele>
        <time>2015-05-23T13:56:10Z</time>
      </trkpt>
      <trkpt lat="43.295483" lon="-4.154167">
        <ele>716.0</ele>
        <time>2015-05-23T13:56:11Z</time>
      </trkpt>
      <trkpt lat="43.295467" lon="-4.154250">
        <ele>718.0</ele>
        <time>2015-05-23T13:56:12Z</time>
      </trkpt>
      <trkpt lat="43.295433" lon="-4.154333">
        <ele>720.0</ele>
        <time>2015-05-23T13:56:13Z</time>
      </trkpt>
      <trkpt lat="43.295350" lon="-4.154400">
        <ele>722.0</ele>
        <time>2015-05-23T13:56:14Z</time>
      </trkpt>
      <trkpt lat="43.295250" lon="-4.154433">
        <ele>723.0</ele>
        <time>2015-05-23T13:56:15Z</time>
      </trkpt>
      <trkpt lat="43.295150" lon="-4.154400">
        <ele>725.0</ele>
        <time>2015-05-23T13:56:16Z</time>
      </trkpt>
      <trkpt lat="43.295050" lon="-4.154350">
        <ele>727.0</ele>
        <time>2015-05-23T13:56:17Z</time>
      </trkpt>
      <trkpt lat="43.294967" lon="-4.154250">
        <ele>728.0</ele>
        <time>2015-05-23T13:56:18Z</time>
      </trkpt>
      <trkpt lat="43.294917" lon="-4.154133">
        <ele>730.0</ele>
        <time>2015-05-23T13:56:19Z</time>
      </trkpt>
      <trkpt lat="43.294883" lon="-4.154033">
        <ele>731.0</ele>
        <time>2015-05-23T13:56:20Z</time>
      </trkpt>
      <trkpt lat="43.294867" lon="-4.153950">
        <ele>729.0</ele>
        <time>2015-05-23T13:56:21Z</time>
      </trkpt>
      <trkpt lat="43.294867" lon="-4.153883">
        <ele>729.0</ele>
        <time>2015-05-23T13:56:22Z</time>
      </trkpt>
      <trkpt lat="43.294867" lon="-4.153800">
        <ele>729.0</ele>
        <time>2015-05-23T13:56:23Z</time>
      </trkpt>
      <trkpt lat="43.294883" lon="-4.153733">
        <ele>730.0</ele>
        <time>2015-05-23T13:56:24Z</time>
      </trkpt>
      <trkpt lat="43.294900" lon="-4.153667">
        <ele>731.0</ele>
        <time>2015-05-23T13:56:25Z</time>
      </trkpt>
      <trkpt lat="43.294933" lon="-4.153617">
        <ele>732.0</ele>
        <time>2015-05-23T13:56:26Z</time>
      </trkpt>
      <trkpt lat="43.294983" lon="-4.153567">
        <ele>732.0</ele>
        <time>2015-05-23T13:56:27Z</time>
      </trkpt>
      <trkpt lat="43.295033" lon="-4.153533">
        <ele>733.0</ele>
        <time>2015-05-23T13:56:28Z</time>
      </trkpt>
      <trkpt lat="43.295067" lon="-4.153500">
        <ele>734.0</ele>
        <time>2015-05-23T13:56:29Z</time>
      </trkpt>
      <trkpt lat="43.295100" lon="-4.153483">
        <ele>736.0</ele>
        <time>2015-05-23T13:56:30Z</time>
      </trkpt>
      <trkpt lat="43.295117" lon="-4.153467">
        <ele>738.0</ele>
        <time>2015-05-23T13:56:31Z</time>
      </trkpt>
      <trkpt lat="43.295133" lon="-4.153467">
        <ele>740.0</ele>
        <time>2015-05-23T13:56:32Z</time>
      </trkpt>
      <trkpt lat="43.295150" lon="-4.153517">
        <ele>742.0</ele>
        <time>2015-05-23T13:56:33Z</time>
      </trkpt>
      <trkpt lat="43.295150" lon="-4.153567">
        <ele>744.0</ele>
        <time>2015-05-23T13:56:34Z</time>
      </trkpt>
      <trkpt lat="43.295133" lon="-4.153650">
        <ele>746.0</ele>
        <time>2015-05-23T13:56:35Z</time>
      </trkpt>
      <trkpt lat="43.295133" lon="-4.153717">
        <ele>748.0</ele>
        <time>2015-05-23T13:56:36Z</time>
      </trkpt>
      <trkpt lat="43.295133" lon="-4.153783">
        <ele>750.0</ele>
        <time>2015-05-23T13:56:37Z</time>
      </trkpt>
      <trkpt lat="43.295133" lon="-4.153867">
        <ele>751.0</ele>
        <time>2015-05-23T13:56:38Z</time>
      </trkpt>
      <trkpt lat="43.295100" lon="-4.153950">
        <ele>752.0</ele>
        <time>2015-05-23T13:56:39Z</time>
      </trkpt>
      <trkpt lat="43.295033" lon="-4.154033">
        <ele>753.0</ele>
        <time>2015-05-23T13:56:40Z</time>
      </trkpt>
      <trkpt lat="43.294967" lon="-4.154067">
        <ele>754.0</ele>
        <time>2015-05-23T13:56:41Z</time>
      </trkpt>
      <trkpt lat="43.294883" lon="-4.154083">
        <ele>754.0</ele>
        <time>2015-05-23T13:56:42Z</time>
      </trkpt>
      <trkpt lat="43.294800" lon="-4.154100">
        <ele>754.0</ele>
        <time>2015-05-23T13:56:43Z</time>
      </trkpt>
      <trkpt lat="43.294717" lon="-4.154100">
        <ele>753.0</ele>
        <time>2015-05-23T13:56:44Z</time>
      </trkpt>
      <trkpt lat="43.294617" lon="-4.154050">
        <ele>754.0</ele>
        <time>2015-05-23T13:56:45Z</time>
      </trkpt>
      <trkpt lat="43.294517" lon="-4.154000">
        <ele>756.0</ele>
        <time>2015-05-23T13:56:46Z</time>
      </trkpt>
      <trkpt lat="43.294433" lon="-4.153933">
        <ele>758.0</ele>
        <time>2015-05-23T13:56:47Z</time>
      </trkpt>
      <trkpt lat="43.294350" lon="-4.153867">
        <ele>761.0</ele>
        <time>2015-05-23T13:56:48Z</time>
      </trkpt>
      <trkpt lat="43.294283" lon="-4.153817">
        <ele>763.0</ele>
        <time>2015-05-23T13:56:49Z</time>
      </trkpt>
      <trkpt lat="43.294200" lon="-4.153767">
        <ele>765.0</ele>
        <time>2015-05-23T13:56:50Z</time>
      </trkpt>
      <trkpt lat="43.294133" lon="-4.153717">
        <ele>763.0</ele>
        <time>2015-05-23T13:56:51Z</time>
      </trkpt>
      <trkpt lat="43.294067" lon="-4.153617">
        <ele>765.0</ele>
        <time>2015-05-23T13:56:52Z</time>
      </trkpt>
      <trkpt lat="43.294000" lon="-4.153500">
        <ele>767.0</ele>
        <time>2015-05-23T13:56:53Z</time>
      </trkpt>
      <trkpt lat="43.293967" lon="-4.153383">
        <ele>770.0</ele>
        <time>2015-05-23T13:56:54Z</time>
      </trkpt>
      <trkpt lat="43.293950" lon="-4.153283">
        <ele>772.0</ele>
        <time>2015-05-23T13:56:55Z</time>
      </trkpt>
      <trkpt lat="43.293933" lon="-4.153183">
        <ele>774.0</ele>
        <time>2015-05-23T13:56:56Z</time>
      </trkpt>
      <trkpt lat="43.293917" lon="-4.153117">
        <ele>777.0</ele>
        <time>2015-05-23T13:56:57Z</time>
      </trkpt>
      <trkpt lat="43.293900" lon="-4.153017">
        <ele>778.0</ele>
        <time>2015-05-23T13:56:58Z</time>
      </trkpt>
      <trkpt lat="43.293883" lon="-4.152933">
        <ele>780.0</ele>
        <time>2015-05-23T13:56:59Z</time>
      </trkpt>
      <trkpt lat="43.293900" lon="-4.152850">
        <ele>781.0</ele>
        <time>2015-05-23T13:57:00Z</time>
      </trkpt>
      <trkpt lat="43.293917" lon="-4.152767">
        <ele>782.0</ele>
        <time>2015-05-23T13:57:01Z</time>
      </trkpt>
      <trkpt lat="43.293950" lon="-4.152717">
        <ele>783.0</ele>
        <time>2015-05-23T13:57:02Z</time>
      </trkpt>
      <trkpt lat="43.293983" lon="-4.152683">
        <ele>784.0</ele>
        <time>2015-05-23T13:57:03Z</time>
      </trkpt>
      <trkpt lat="43.294000" lon="-4.152667">
        <ele>785.0</ele>
        <time>2015-05-23T13:57:04Z</time>
      </trkpt>
      <trkpt lat="43.294017" lon="-4.152650">
        <ele>785.0</ele>
        <time>2015-05-23T13:57:05Z</time>
      </trkpt>
      <trkpt lat="43.294050" lon="-4.152650">
        <ele>786.0</ele>
        <time>2015-05-23T13:57:06Z</time>
      </trkpt>
      <trkpt lat="43.294067" lon="-4.152650">
        <ele>785.0</ele>
        <time>2015-05-23T13:57:07Z</time>
      </trkpt>
      <trkpt lat="43.294100" lon="-4.152650">
        <ele>785.0</ele>
        <time>2015-05-23T13:57:08Z</time>
      </trkpt>
      <trkpt lat="43.294117" lon="-4.152667">
        <ele>784.0</ele>
        <time>2015-05-23T13:57:09Z</time>
      </trkpt>
      <trkpt lat="43.294150" lon="-4.152700">
        <ele>783.0</ele>
        <time>2015-05-23T13:57:10Z</time>
      </trkpt>
      <trkpt lat="43.294183" lon="-4.152717">
        <ele>782.0</ele>
        <time>2015-05-23T13:57:11Z</time>
      </trkpt>
      <trkpt lat="43.294233" lon="-4.152733">
        <ele>781.0</ele>
        <time>2015-05-23T13:57:12Z</time>
      </trkpt>
      <trkpt lat="43.294283" lon="-4.152733">
        <ele>782.0</ele>
        <time>2015-05-23T13:57:13Z</time>
      </trkpt>
      <trkpt lat="43.294333" lon="-4.152750">
        <ele>782.0</ele>
        <time>2015-05-23T13:57:14Z</time>
      </trkpt>
      <trkpt lat="43.294400" lon="-4.152733">
        <ele>781.0</ele>
        <time>2015-05-23T13:57:15Z</time>
      </trkpt>
      <trkpt lat="43.294450" lon="-4.152717">
        <ele>781.0</ele>
        <time>2015-05-23T13:57:16Z</time>
      </trkpt>
      <trkpt lat="43.294517" lon="-4.152700">
        <ele>781.0</ele>
        <time>2015-05-23T13:57:17Z</time>
      </trkpt>
      <trkpt lat="43.294550" lon="-4.152700">
        <ele>781.0</ele>
        <time>2015-05-23T13:57:18Z</time>
      </trkpt>
      <trkpt lat="43.294600" lon="-4.152683">
        <ele>780.0</ele>
        <time>2015-05-23T13:57:19Z</time>
      </trkpt>
      <trkpt lat="43.294650" lon="-4.152667">
        <ele>780.0</ele>
        <time>2015-05-23T13:57:20Z</time>
      </trkpt>
      <trkpt lat="43.294683" lon="-4.152633">
        <ele>779.0</ele>
        <time>2015-05-23T13:57:21Z</time>
      </trkpt>
      <trkpt lat="43.294733" lon="-4.152600">
        <ele>779.0</ele>
        <time>2015-05-23T13:57:22Z</time>
      </trkpt>
      <trkpt lat="43.294783" lon="-4.152583">
        <ele>779.0</ele>
        <time>2015-05-23T13:57:23Z</time>
      </trkpt>
      <trkpt lat="43.294817" lon="-4.152550">
        <ele>779.0</ele>
        <time>2015-05-23T13:57:24Z</time>
      </trkpt>
      <trkpt lat="43.294883" lon="-4.152483">
        <ele>779.0</ele>
        <time>2015-05-23T13:57:25Z</time>
      </trkpt>
      <trkpt lat="43.294950" lon="-4.152417">
        <ele>778.0</ele>
        <time>2015-05-23T13:57:26Z</time>
      </trkpt>
      <trkpt lat="43.295000" lon="-4.152333">
        <ele>778.0</ele>
        <time>2015-05-23T13:57:27Z</time>
      </trkpt>
      <trkpt lat="43.295067" lon="-4.152267">
        <ele>778.0</ele>
        <time>2015-05-23T13:57:28Z</time>
      </trkpt>
      <trkpt lat="43.295133" lon="-4.152200">
        <ele>777.0</ele>
        <time>2015-05-23T13:57:29Z</time>
      </trkpt>
      <trkpt lat="43.295150" lon="-4.152150">
        <ele>777.0</ele>
        <time>2015-05-23T13:57:30Z</time>
      </trkpt>
      <trkpt lat="43.295183" lon="-4.152100">
        <ele>777.0</ele>
        <time>2015-05-23T13:57:31Z</time>
      </trkpt>
      <trkpt lat="43.295233" lon="-4.152033">
        <ele>776.0</ele>
        <time>2015-05-23T13:57:32Z</time>
      </trkpt>
      <trkpt lat="43.295300" lon="-4.151950">
        <ele>776.0</ele>
        <time>2015-05-23T13:57:33Z</time>
      </trkpt>
      <trkpt lat="43.295367" lon="-4.151867">
        <ele>775.0</ele>
        <time>2015-05-23T13:57:34Z</time>
      </trkpt>
      <trkpt lat="43.295433" lon="-4.151783">
        <ele>774.0</ele>
        <time>2015-05-23T13:57:35Z</time>
      </trkpt>
      <trkpt lat="43.295467" lon="-4.151733">
        <ele>773.0</ele>
        <time>2015-05-23T13:57:36Z</time>
      </trkpt>
      <trkpt lat="43.295533" lon="-4.151683">
        <ele>772.0</ele>
        <time>2015-05-23T13:57:37Z</time>
      </trkpt>
      <trkpt lat="43.295583" lon="-4.151650">
        <ele>771.0</ele>
        <time>2015-05-23T13:57:38Z</time>
      </trkpt>
      <trkpt lat="43.295633" lon="-4.151600">
        <ele>770.0</ele>
        <time>2015-05-23T13:57:39Z</time>
      </trkpt>
      <trkpt lat="43.295683" lon="-4.151567">
        <ele>770.0</ele>
        <time>2015-05-23T13:57:40Z</time>
      </trkpt>
      <trkpt lat="43.295750" lon="-4.151550">
        <ele>769.0</ele>
        <time>2015-05-23T13:57:41Z</time>
      </trkpt>
      <trkpt lat="43.295800" lon="-4.151567">
        <ele>768.0</ele>
        <time>2015-05-23T13:57:42Z</time>
      </trkpt>
      <trkpt lat="43.295850" lon="-4.151567">
        <ele>767.0</ele>
        <time>2015-05-23T13:57:43Z</time>
      </trkpt>
      <trkpt lat="43.295900" lon="-4.151567">
        <ele>766.0</ele>
        <time>2015-05-23T13:57:44Z</time>
      </trkpt>
      <trkpt lat="43.295950" lon="-4.151533">
        <ele>766.0</ele>
        <time>2015-05-23T13:57:45Z</time>
      </trkpt>
      <trkpt lat="43.295983" lon="-4.151517">
        <ele>765.0</ele>
        <time>2015-05-23T13:57:46Z</time>
      </trkpt>
      <trkpt lat="43.296033" lon="-4.151500">
        <ele>765.0</ele>
        <time>2015-05-23T13:57:47Z</time>
      </trkpt>
      <trkpt lat="43.296100" lon="-4.151500">
        <ele>764.0</ele>
        <time>2015-05-23T13:57:48Z</time>
      </trkpt>
      <trkpt lat="43.296150" lon="-4.151500">
        <ele>763.0</ele>
        <time>2015-05-23T13:57:49Z</time>
      </trkpt>
      <trkpt lat="43.296200" lon="-4.151483">
        <ele>763.0</ele>
        <time>2015-05-23T13:57:50Z</time>
      </trkpt>
      <trkpt lat="43.296250" lon="-4.151483">
        <ele>762.0</ele>
        <time>2015-05-23T13:57:51Z</time>
      </trkpt>
      <trkpt lat="43.296283" lon="-4.151500">
        <ele>762.0</ele>
        <time>2015-05-23T13:57:52Z</time>
      </trkpt>
      <trkpt lat="43.296317" lon="-4.151500">
        <ele>762.0</ele>
        <time>2015-05-23T13:57:53Z</time>
      </trkpt>
      <trkpt lat="43.296350" lon="-4.151500">
        <ele>761.0</ele>
        <time>2015-05-23T13:57:54Z</time>
      </trkpt>
      <trkpt lat="43.296383" lon="-4.151483">
        <ele>760.0</ele>
        <time>2015-05-23T13:57:55Z</time>
      </trkpt>
      <trkpt lat="43.296400" lon="-4.151500">
        <ele>760.0</ele>
        <time>2015-05-23T13:57:56Z</time>
      </trkpt>
      <trkpt lat="43.296450" lon="-4.151500">
        <ele>760.0</ele>
        <time>2015-05-23T13:57:57Z</time>
      </trkpt>
      <trkpt lat="43.296500" lon="-4.151500">
        <ele>760.0</ele>
        <time>2015-05-23T13:57:58Z</time>
      </trkpt>
      <trkpt lat="43.296567" lon="-4.151500">
        <ele>759.0</ele>
        <time>2015-05-23T13:57:59Z</time>
      </trkpt>
      <trkpt lat="43.296617" lon="-4.151467">
        <ele>759.0</ele>
        <time>2015-05-23T13:58:00Z</time>
      </trkpt>
      <trkpt lat="43.296650" lon="-4.151450">
        <ele>758.0</ele>
        <time>2015-05-23T13:58:01Z</time>
      </trkpt>
      <trkpt lat="43.296683" lon="-4.151433">
        <ele>758.0</ele>
        <time>2015-05-23T13:58:02Z</time>
      </trkpt>
      <trkpt lat="43.296733" lon="-4.151400">
        <ele>758.0</ele>
        <time>2015-05-23T13:58:03Z</time>
      </trkpt>
      <trkpt lat="43.296750" lon="-4.151383">
        <ele>758.0</ele>
        <time>2015-05-23T13:58:04Z</time>
      </trkpt>
      <trkpt lat="43.296783" lon="-4.151350">
        <ele>758.0</ele>
        <time>2015-05-23T13:58:05Z</time>
      </trkpt>
      <trkpt lat="43.296817" lon="-4.151317">
        <ele>758.0</ele>
        <time>2015-05-23T13:58:06Z</time>
      </trkpt>
      <trkpt lat="43.296850" lon="-4.151300">
        <ele>757.0</ele>
        <time>2015-05-23T13:58:07Z</time>
      </trkpt>
      <trkpt lat="43.296883" lon="-4.151250">
        <ele>757.0</ele>
        <time>2015-05-23T13:58:08Z</time>
      </trkpt>
      <trkpt lat="43.296900" lon="-4.151183">
        <ele>757.0</ele>
        <time>2015-05-23T13:58:09Z</time>
      </trkpt>
      <trkpt lat="43.296917" lon="-4.151117">
        <ele>757.0</ele>
        <time>2015-05-23T13:58:10Z</time>
      </trkpt>
      <trkpt lat="43.296917" lon="-4.151000">
        <ele>757.0</ele>
        <time>2015-05-23T13:58:11Z</time>
      </trkpt>
      <trkpt lat="43.296900" lon="-4.150883">
        <ele>757.0</ele>
        <time>2015-05-23T13:58:12Z</time>
      </trkpt>
      <trkpt lat="43.296883" lon="-4.150767">
        <ele>756.0</ele>
        <time>2015-05-23T13:58:13Z</time>
      </trkpt>
      <trkpt lat="43.296867" lon="-4.150650">
        <ele>756.0</ele>
        <time>2015-05-23T13:58:14Z</time>
      </trkpt>
      <trkpt lat="43.296867" lon="-4.150533">
        <ele>756.0</ele>
        <time>2015-05-23T13:58:15Z</time>
      </trkpt>
      <trkpt lat="43.296850" lon="-4.150417">
        <ele>756.0</ele>
        <time>2015-05-23T13:58:16Z</time>
      </trkpt>
      <trkpt lat="43.296833" lon="-4.150317">
        <ele>755.0</ele>
        <time>2015-05-23T13:58:17Z</time>
      </trkpt>
      <trkpt lat="43.296817" lon="-4.150200">
        <ele>755.0</ele>
        <time>2015-05-23T13:58:18Z</time>
      </trkpt>
      <trkpt lat="43.296800" lon="-4.150083">
        <ele>755.0</ele>
        <time>2015-05-23T13:58:19Z</time>
      </trkpt>
      <trkpt lat="43.296783" lon="-4.149950">
        <ele>755.0</ele>
        <time>2015-05-23T13:58:20Z</time>
      </trkpt>
      <trkpt lat="43.296767" lon="-4.149850">
        <ele>755.0</ele>
        <time>2015-05-23T13:58:21Z</time>
      </trkpt>
      <trkpt lat="43.296750" lon="-4.149733">
        <ele>754.0</ele>
        <time>2015-05-23T13:58:22Z</time>
      </trkpt>
      <trkpt lat="43.296717" lon="-4.149600">
        <ele>754.0</ele>
        <time>2015-05-23T13:58:23Z</time>
      </trkpt>
      <trkpt lat="43.296683" lon="-4.149483">
        <ele>754.0</ele>
        <time>2015-05-23T13:58:24Z</time>
      </trkpt>
      <trkpt lat="43.296650" lon="-4.149350">
        <ele>753.0</ele>
        <time>2015-05-23T13:58:25Z</time>
      </trkpt>
      <trkpt lat="43.296617" lon="-4.149233">
        <ele>752.0</ele>
        <time>2015-05-23T13:58:26Z</time>
      </trkpt>
      <trkpt lat="43.296583" lon="-4.149117">
        <ele>752.0</ele>
        <time>2015-05-23T13:58:27Z</time>
      </trkpt>
      <trkpt lat="43.296550" lon="-4.149000">
        <ele>751.0</ele>
        <time>2015-05-23T13:58:28Z</time>
      </trkpt>
      <trkpt lat="43.296533" lon="-4.148883">
        <ele>751.0</ele>
        <time>2015-05-23T13:58:29Z</time>
      </trkpt>
      <trkpt lat="43.296517" lon="-4.148783">
        <ele>751.0</ele>
        <time>2015-05-23T13:58:30Z</time>
      </trkpt>
      <trkpt lat="43.296500" lon="-4.148667">
        <ele>750.0</ele>
        <time>2015-05-23T13:58:31Z</time>
      </trkpt>
      <trkpt lat="43.296483" lon="-4.148567">
        <ele>750.0</ele>
        <time>2015-05-23T13:58:32Z</time>
      </trkpt>
      <trkpt lat="43.296467" lon="-4.148450">
        <ele>750.0</ele>
        <time>2015-05-23T13:58:33Z</time>
      </trkpt>
      <trkpt lat="43.296450" lon="-4.148350">
        <ele>749.0</ele>
        <time>2015-05-23T13:58:34Z</time>
      </trkpt>
      <trkpt lat="43.296433" lon="-4.148233">
        <ele>749.0</ele>
        <time>2015-05-23T13:58:35Z</time>
      </trkpt>
      <trkpt lat="43.296417" lon="-4.148150">
        <ele>749.0</ele>
        <time>2015-05-23T13:58:36Z</time>
      </trkpt>
      <trkpt lat="43.296400" lon="-4.148050">
        <ele>748.0</ele>
        <time>2015-05-23T13:58:37Z</time>
      </trkpt>
      <trkpt lat="43.296400" lon="-4.147933">
        <ele>747.0</ele>
        <time>2015-05-23T13:58:38Z</time>
      </trkpt>
      <trkpt lat="43.296383" lon="-4.147833">
        <ele>747.0</ele>
        <time>2015-05-23T13:58:39Z</time>
      </trkpt>
      <trkpt lat="43.296367" lon="-4.147733">
        <ele>746.0</ele>
        <time>2015-05-23T13:58:40Z</time>
      </trkpt>
      <trkpt lat="43.296367" lon="-4.147650">
        <ele>745.0</ele>
        <time>2015-05-23T13:58:41Z</time>
      </trkpt>
      <trkpt lat="43.296367" lon="-4.147550">
        <ele>745.0</ele>
        <time>2015-05-23T13:58:42Z</time>
      </trkpt>
      <trkpt lat="43.296367" lon="-4.147433">
        <ele>745.0</ele>
        <time>2015-05-23T13:58:43Z</time>
      </trkpt>
      <trkpt lat="43.296333" lon="-4.147333">
        <ele>745.0</ele>
        <time>2015-05-23T13:58:44Z</time>
      </trkpt>
      <trkpt lat="43.296283" lon="-4.147217">
        <ele>744.0</ele>
        <time>2015-05-23T13:58:45Z</time>
      </trkpt>
      <trkpt lat="43.296250" lon="-4.147100">
        <ele>744.0</ele>
        <time>2015-05-23T13:58:46Z</time>
      </trkpt>
      <trkpt lat="43.296233" lon="-4.147000">
        <ele>743.0</ele>
        <time>2015-05-23T13:58:47Z</time>
      </trkpt>
      <trkpt lat="43.296217" lon="-4.146900">
        <ele>743.0</ele>
        <time>2015-05-23T13:58:48Z</time>
      </trkpt>
      <trkpt lat="43.296200" lon="-4.146800">
        <ele>743.0</ele>
        <time>2015-05-23T13:58:49Z</time>
      </trkpt>
      <trkpt lat="43.296167" lon="-4.146717">
        <ele>742.0</ele>
        <time>2015-05-23T13:58:50Z</time>
      </trkpt>
      <trkpt lat="43.296150" lon="-4.146617">
        <ele>742.0</ele>
        <time>2015-05-23T13:58:51Z</time>
      </trkpt>
      <trkpt lat="43.296133" lon="-4.146500">
        <ele>741.0</ele>
        <time>2015-05-23T13:58:52Z</time>
      </trkpt>
      <trkpt lat="43.296117" lon="-4.146400">
        <ele>741.0</ele>
        <time>2015-05-23T13:58:53Z</time>
      </trkpt>
      <trkpt lat="43.296117" lon="-4.146283">
        <ele>741.0</ele>
        <time>2015-05-23T13:58:54Z</time>
      </trkpt>
      <trkpt lat="43.296117" lon="-4.146183">
        <ele>741.0</ele>
        <time>2015-05-23T13:58:55Z</time>
      </trkpt>
      <trkpt lat="43.296100" lon="-4.146083">
        <ele>741.0</ele>
        <time>2015-05-23T13:58:56Z</time>
      </trkpt>
      <trkpt lat="43.296083" lon="-4.145967">
        <ele>742.0</ele>
        <time>2015-05-23T13:58:57Z</time>
      </trkpt>
      <trkpt lat="43.296067" lon="-4.145867">
        <ele>741.0</ele>
        <time>2015-05-23T13:58:58Z</time>
      </trkpt>
      <trkpt lat="43.296067" lon="-4.145783">
        <ele>741.0</ele>
        <time>2015-05-23T13:58:59Z</time>
      </trkpt>
      <trkpt lat="43.296050" lon="-4.145683">
        <ele>741.0</ele>
        <time>2015-05-23T13:59:00Z</time>
      </trkpt>
      <trkpt lat="43.296033" lon="-4.145567">
        <ele>741.0</ele>
        <time>2015-05-23T13:59:01Z</time>
      </trkpt>
      <trkpt lat="43.296017" lon="-4.145450">
        <ele>741.0</ele>
        <time>2015-05-23T13:59:02Z</time>
      </trkpt>
      <trkpt lat="43.295983" lon="-4.145333">
        <ele>741.0</ele>
        <time>2015-05-23T13:59:03Z</time>
      </trkpt>
      <trkpt lat="43.295950" lon="-4.145217">
        <ele>741.0</ele>
        <time>2015-05-23T13:59:04Z</time>
      </trkpt>
      <trkpt lat="43.295900" lon="-4.145117">
        <ele>741.0</ele>
        <time>2015-05-23T13:59:05Z</time>
      </trkpt>
      <trkpt lat="43.295833" lon="-4.145017">
        <ele>741.0</ele>
        <time>2015-05-23T13:59:06Z</time>
      </trkpt>
      <trkpt lat="43.295783" lon="-4.144917">
        <ele>741.0</ele>
        <time>2015-05-23T13:59:07Z</time>
      </trkpt>
      <trkpt lat="43.295733" lon="-4.144817">
        <ele>741.0</ele>
        <time>2015-05-23T13:59:08Z</time>
      </trkpt>
      <trkpt lat="43.295683" lon="-4.144733">
        <ele>741.0</ele>
        <time>2015-05-23T13:59:09Z</time>
      </trkpt>
      <trkpt lat="43.295633" lon="-4.144633">
        <ele>741.0</ele>
        <time>2015-05-23T13:59:10Z</time>
      </trkpt>
      <trkpt lat="43.295583" lon="-4.144517">
        <ele>741.0</ele>
        <time>2015-05-23T13:59:11Z</time>
      </trkpt>
      <trkpt lat="43.295550" lon="-4.144400">
        <ele>741.0</ele>
        <time>2015-05-23T13:59:12Z</time>
      </trkpt>
      <trkpt lat="43.295517" lon="-4.144283">
        <ele>741.0</ele>
        <time>2015-05-23T13:59:13Z</time>
      </trkpt>
      <trkpt lat="43.295483" lon="-4.144183">
        <ele>741.0</ele>
        <time>2015-05-23T13:59:14Z</time>
      </trkpt>
      <trkpt lat="43.295450" lon="-4.144083">
        <ele>742.0</ele>
        <time>2015-05-23T13:59:15Z</time>
      </trkpt>
      <trkpt lat="43.295417" lon="-4.144000">
        <ele>742.0</ele>
        <time>2015-05-23T13:59:16Z</time>
      </trkpt>
      <trkpt lat="43.295383" lon="-4.143917">
        <ele>742.0</ele>
        <time>2015-05-23T13:59:17Z</time>
      </trkpt>
      <trkpt lat="43.295350" lon="-4.143850">
        <ele>743.0</ele>
        <time>2015-05-23T13:59:18Z</time>
      </trkpt>
      <trkpt lat="43.295333" lon="-4.143767">
        <ele>743.0</ele>
        <time>2015-05-23T13:59:19Z</time>
      </trkpt>
      <trkpt lat="43.295300" lon="-4.143683">
        <ele>743.0</ele>
        <time>2015-05-23T13:59:20Z</time>
      </trkpt>
      <trkpt lat="43.295283" lon="-4.143583">
        <ele>744.0</ele>
        <time>2015-05-23T13:59:21Z</time>
      </trkpt>
      <trkpt lat="43.295250" lon="-4.143500">
        <ele>744.0</ele>
        <time>2015-05-23T13:59:22Z</time>
      </trkpt>
      <trkpt lat="43.295233" lon="-4.143417">
        <ele>744.0</ele>
        <time>2015-05-23T13:59:23Z</time>
      </trkpt>
      <trkpt lat="43.295200" lon="-4.143317">
        <ele>744.0</ele>
        <time>2015-05-23T13:59:24Z</time>
      </trkpt>
      <trkpt lat="43.295167" lon="-4.143217">
        <ele>745.0</ele>
        <time>2015-05-23T13:59:25Z</time>
      </trkpt>
      <trkpt lat="43.295133" lon="-4.143133">
        <ele>745.0</ele>
        <time>2015-05-23T13:59:26Z</time>
      </trkpt>
      <trkpt lat="43.295100" lon="-4.143050">
        <ele>746.0</ele>
        <time>2015-05-23T13:59:27Z</time>
      </trkpt>
      <trkpt lat="43.295100" lon="-4.142983">
        <ele>746.0</ele>
        <time>2015-05-23T13:59:28Z</time>
      </trkpt>
      <trkpt lat="43.295067" lon="-4.142900">
        <ele>747.0</ele>
        <time>2015-05-23T13:59:29Z</time>
      </trkpt>
      <trkpt lat="43.295067" lon="-4.142817">
        <ele>747.0</ele>
        <time>2015-05-23T13:59:30Z</time>
      </trkpt>
      <trkpt lat="43.295067" lon="-4.142750">
        <ele>748.0</ele>
        <time>2015-05-23T13:59:31Z</time>
      </trkpt>
      <trkpt lat="43.295083" lon="-4.142683">
        <ele>749.0</ele>
        <time>2015-05-23T13:59:32Z</time>
      </trkpt>
      <trkpt lat="43.295100" lon="-4.142650">
        <ele>749.0</ele>
        <time>2015-05-23T13:59:33Z</time>
      </trkpt>
      <trkpt lat="43.295133" lon="-4.142650">
        <ele>750.0</ele>
        <time>2015-05-23T13:59:34Z</time>
      </trkpt>
      <trkpt lat="43.295167" lon="-4.142667">
        <ele>751.0</ele>
        <time>2015-05-23T13:59:35Z</time>
      </trkpt>
      <trkpt lat="43.295167" lon="-4.142717">
        <ele>753.0</ele>
        <time>2015-05-23T13:59:36Z</time>
      </trkpt>
      <trkpt lat="43.295167" lon="-4.142783">
        <ele>755.0</ele>
        <time>2015-05-23T13:59:37Z</time>
      </trkpt>
      <trkpt lat="43.295133" lon="-4.142850">
        <ele>758.0</ele>
        <time>2015-05-23T13:59:38Z</time>
      </trkpt>
      <trkpt lat="43.295100" lon="-4.142917">
        <ele>761.0</ele>
        <time>2015-05-23T13:59:39Z</time>
      </trkpt>
      <trkpt lat="43.295083" lon="-4.143000">
        <ele>763.0</ele>
        <time>2015-05-23T13:59:40Z</time>
      </trkpt>
      <trkpt lat="43.295050" lon="-4.143083">
        <ele>764.0</ele>
        <time>2015-05-23T13:59:41Z</time>
      </trkpt>
      <trkpt lat="43.295017" lon="-4.143183">
        <ele>766.0</ele>
        <time>2015-05-23T13:59:42Z</time>
      </trkpt>
      <trkpt lat="43.294950" lon="-4.143283">
        <ele>769.0</ele>
        <time>2015-05-23T13:59:43Z</time>
      </trkpt>
      <trkpt lat="43.294883" lon="-4.143367">
        <ele>773.0</ele>
        <time>2015-05-23T13:59:44Z</time>
      </trkpt>
      <trkpt lat="43.294783" lon="-4.143417">
        <ele>776.0</ele>
        <time>2015-05-23T13:59:45Z</time>
      </trkpt>
      <trkpt lat="43.294683" lon="-4.143450">
        <ele>778.0</ele>
        <time>2015-05-23T13:59:46Z</time>
      </trkpt>
      <trkpt lat="43.294583" lon="-4.143450">
        <ele>780.0</ele>
        <time>2015-05-23T13:59:47Z</time>
      </trkpt>
      <trkpt lat="43.294483" lon="-4.143417">
        <ele>782.0</ele>
        <time>2015-05-23T13:59:48Z</time>
      </trkpt>
      <trkpt lat="43.294383" lon="-4.143367">
        <ele>784.0</ele>
        <time>2015-05-23T13:59:49Z</time>
      </trkpt>
      <trkpt lat="43.294300" lon="-4.143283">
        <ele>786.0</ele>
        <time>2015-05-23T13:59:50Z</time>
      </trkpt>
      <trkpt lat="43.294250" lon="-4.143200">
        <ele>788.0</ele>
        <time>2015-05-23T13:59:51Z</time>
      </trkpt>
      <trkpt lat="43.294200" lon="-4.143133">
        <ele>786.0</ele>
        <time>2015-05-23T13:59:52Z</time>
      </trkpt>
      <trkpt lat="43.294150" lon="-4.143067">
        <ele>787.0</ele>
        <time>2015-05-23T13:59:53Z</time>
      </trkpt>
      <trkpt lat="43.294117" lon="-4.142983">
        <ele>788.0</ele>
        <time>2015-05-23T13:59:54Z</time>
      </trkpt>
      <trkpt lat="43.294100" lon="-4.142933">
        <ele>788.0</ele>
        <time>2015-05-23T13:59:55Z</time>
      </trkpt>
      <trkpt lat="43.294067" lon="-4.142850">
        <ele>788.0</ele>
        <time>2015-05-23T13:59:56Z</time>
      </trkpt>
      <trkpt lat="43.294050" lon="-4.142750">
        <ele>788.0</ele>
        <time>2015-05-23T13:59:57Z</time>
      </trkpt>
      <trkpt lat="43.294033" lon="-4.142650">
        <ele>789.0</ele>
        <time>2015-05-23T13:59:58Z</time>
      </trkpt>
      <trkpt lat="43.294033" lon="-4.142567">
        <ele>789.0</ele>
        <time>2015-05-23T13:59:59Z</time>
      </trkpt>
      <trkpt lat="43.294017" lon="-4.142483">
        <ele>790.0</ele>
        <time>2015-05-23T14:00:00Z</time>
      </trkpt>
      <trkpt lat="43.294000" lon="-4.142400">
        <ele>790.0</ele>
        <time>2015-05-23T14:00:01Z</time>
      </trkpt>
      <trkpt lat="43.294000" lon="-4.142317">
        <ele>792.0</ele>
        <time>2015-05-23T14:00:02Z</time>
      </trkpt>
      <trkpt lat="43.294000" lon="-4.142250">
        <ele>792.0</ele>
        <time>2015-05-23T14:00:03Z</time>
      </trkpt>
      <trkpt lat="43.294000" lon="-4.142167">
        <ele>794.0</ele>
        <time>2015-05-23T14:00:04Z</time>
      </trkpt>
      <trkpt lat="43.294000" lon="-4.142100">
        <ele>796.0</ele>
        <time>2015-05-23T14:00:05Z</time>
      </trkpt>
      <trkpt lat="43.294017" lon="-4.142033">
        <ele>796.0</ele>
        <time>2015-05-23T14:00:06Z</time>
      </trkpt>
      <trkpt lat="43.294050" lon="-4.141983">
        <ele>797.0</ele>
        <time>2015-05-23T14:00:07Z</time>
      </trkpt>
      <trkpt lat="43.294083" lon="-4.141967">
        <ele>796.0</ele>
        <time>2015-05-23T14:00:08Z</time>
      </trkpt>
      <trkpt lat="43.294100" lon="-4.141983">
        <ele>796.0</ele>
        <time>2015-05-23T14:00:09Z</time>
      </trkpt>
      <trkpt lat="43.294117" lon="-4.142050">
        <ele>795.0</ele>
        <time>2015-05-23T14:00:10Z</time>
      </trkpt>
      <trkpt lat="43.294117" lon="-4.142150">
        <ele>794.0</ele>
        <time>2015-05-23T14:00:11Z</time>
      </trkpt>
      <trkpt lat="43.294100" lon="-4.142250">
        <ele>794.0</ele>
        <time>2015-05-23T14:00:12Z</time>
      </trkpt>
      <trkpt lat="43.294083" lon="-4.142333">
        <ele>794.0</ele>
        <time>2015-05-23T14:00:13Z</time>
      </trkpt>
      <trkpt lat="43.294067" lon="-4.142400">
        <ele>795.0</ele>
        <time>2015-05-23T14:00:14Z</time>
      </trkpt>
      <trkpt lat="43.294033" lon="-4.142483">
        <ele>796.0</ele>
        <time>2015-05-23T14:00:15Z</time>
      </trkpt>
      <trkpt lat="43.294017" lon="-4.142583">
        <ele>797.0</ele>
        <time>2015-05-23T14:00:16Z</time>
      </trkpt>
      <trkpt lat="43.293967" lon="-4.142683">
        <ele>798.0</ele>
        <time>2015-05-23T14:00:17Z</time>
      </trkpt>
      <trkpt lat="43.293917" lon="-4.142783">
        <ele>800.0</ele>
        <time>2015-05-23T14:00:18Z</time>
      </trkpt>
      <trkpt lat="43.293867" lon="-4.142900">
        <ele>802.0</ele>
        <time>2015-05-23T14:00:19Z</time>
      </trkpt>
      <trkpt lat="43.293800" lon="-4.142983">
        <ele>805.0</ele>
        <time>2015-05-23T14:00:20Z</time>
      </trkpt>
      <trkpt lat="43.293700" lon="-4.143033">
        <ele>808.0</ele>
        <time>2015-05-23T14:00:21Z</time>
      </trkpt>
      <trkpt lat="43.293600" lon="-4.143083">
        <ele>810.0</ele>
        <time>2015-05-23T14:00:22Z</time>
      </trkpt>
      <trkpt lat="43.293500" lon="-4.143100">
        <ele>812.0</ele>
        <time>2015-05-23T14:00:23Z</time>
      </trkpt>
      <trkpt lat="43.293400" lon="-4.143083">
        <ele>814.0</ele>
        <time>2015-05-23T14:00:24Z</time>
      </trkpt>
      <trkpt lat="43.293317" lon="-4.143050">
        <ele>816.0</ele>
        <time>2015-05-23T14:00:25Z</time>
      </trkpt>
      <trkpt lat="43.293217" lon="-4.142983">
        <ele>818.0</ele>
        <time>2015-05-23T14:00:26Z</time>
      </trkpt>
      <trkpt lat="43.293150" lon="-4.142917">
        <ele>821.0</ele>
        <time>2015-05-23T14:00:27Z</time>
      </trkpt>
      <trkpt lat="43.293083" lon="-4.142850">
        <ele>823.0</ele>
        <time>2015-05-23T14:00:28Z</time>
      </trkpt>
      <trkpt lat="43.293033" lon="-4.142767">
        <ele>826.0</ele>
        <time>2015-05-23T14:00:29Z</time>
      </trkpt>
      <trkpt lat="43.292983" lon="-4.142683">
        <ele>829.0</ele>
        <time>2015-05-23T14:00:30Z</time>
      </trkpt>
      <trkpt lat="43.292950" lon="-4.142617">
        <ele>831.0</ele>
        <time>2015-05-23T14:00:31Z</time>
      </trkpt>
      <trkpt lat="43.292933" lon="-4.142550">
        <ele>833.0</ele>
        <time>2015-05-23T14:00:32Z</time>
      </trkpt>
      <trkpt lat="43.292900" lon="-4.142500">
        <ele>834.0</ele>
        <time>2015-05-23T14:00:33Z</time>
      </trkpt>
      <trkpt lat="43.292883" lon="-4.142450">
        <ele>831.0</ele>
        <time>2015-05-23T14:00:34Z</time>
      </trkpt>
      <trkpt lat="43.292883" lon="-4.142367">
        <ele>831.0</ele>
        <time>2015-05-23T14:00:35Z</time>
      </trkpt>
      <trkpt lat="43.292883" lon="-4.142300">
        <ele>831.0</ele>
        <time>2015-05-23T14:00:36Z</time>
      </trkpt>
      <trkpt lat="43.292900" lon="-4.142233">
        <ele>831.0</ele>
        <time>2015-05-23T14:00:37Z</time>
      </trkpt>
      <trkpt lat="43.292917" lon="-4.142167">
        <ele>831.0</ele>
        <time>2015-05-23T14:00:38Z</time>
      </trkpt>
      <trkpt lat="43.292917" lon="-4.142083">
        <ele>831.0</ele>
        <time>2015-05-23T14:00:39Z</time>
      </trkpt>
      <trkpt lat="43.292917" lon="-4.141983">
        <ele>831.0</ele>
        <time>2015-05-23T14:00:40Z</time>
      </trkpt>
      <trkpt lat="43.292900" lon="-4.141883">
        <ele>831.0</ele>
        <time>2015-05-23T14:00:41Z</time>
      </trkpt>
      <trkpt lat="43.292900" lon="-4.141783">
        <ele>831.0</ele>
        <time>2015-05-23T14:00:42Z</time>
      </trkpt>
      <trkpt lat="43.292900" lon="-4.141683">
        <ele>831.0</ele>
        <time>2015-05-23T14:00:43Z</time>
      </trkpt>
      <trkpt lat="43.292900" lon="-4.141600">
        <ele>831.0</ele>
        <time>2015-05-23T14:00:44Z</time>
      </trkpt>
      <trkpt lat="43.292900" lon="-4.141500">
        <ele>830.0</ele>
        <time>2015-05-23T14:00:45Z</time>
      </trkpt>
      <trkpt lat="43.292883" lon="-4.141383">
        <ele>830.0</ele>
        <time>2015-05-23T14:00:46Z</time>
      </trkpt>
      <trkpt lat="43.292883" lon="-4.141283">
        <ele>830.0</ele>
        <time>2015-05-23T14:00:47Z</time>
      </trkpt>
      <trkpt lat="43.292883" lon="-4.141167">
        <ele>830.0</ele>
        <time>2015-05-23T14:00:48Z</time>
      </trkpt>
      <trkpt lat="43.292883" lon="-4.141067">
        <ele>830.0</ele>
        <time>2015-05-23T14:00:49Z</time>
      </trkpt>
      <trkpt lat="43.292883" lon="-4.140950">
        <ele>830.0</ele>
        <time>2015-05-23T14:00:50Z</time>
      </trkpt>
      <trkpt lat="43.292883" lon="-4.140850">
        <ele>829.0</ele>
        <time>2015-05-23T14:00:51Z</time>
      </trkpt>
      <trkpt lat="43.292883" lon="-4.140750">
        <ele>829.0</ele>
        <time>2015-05-23T14:00:52Z</time>
      </trkpt>
      <trkpt lat="43.292883" lon="-4.140667">
        <ele>829.0</ele>
        <time>2015-05-23T14:00:53Z</time>
      </trkpt>
      <trkpt lat="43.292867" lon="-4.140583">
        <ele>829.0</ele>
        <time>2015-05-23T14:00:54Z</time>
      </trkpt>
      <trkpt lat="43.292867" lon="-4.140500">
        <ele>829.0</ele>
        <time>2015-05-23T14:00:55Z</time>
      </trkpt>
      <trkpt lat="43.292850" lon="-4.140400">
        <ele>829.0</ele>
        <time>2015-05-23T14:00:56Z</time>
      </trkpt>
      <trkpt lat="43.292850" lon="-4.140283">
        <ele>829.0</ele>
        <time>2015-05-23T14:00:57Z</time>
      </trkpt>
      <trkpt lat="43.292850" lon="-4.140167">
        <ele>829.0</ele>
        <time>2015-05-23T14:00:58Z</time>
      </trkpt>
      <trkpt lat="43.292850" lon="-4.140067">
        <ele>828.0</ele>
        <time>2015-05-23T14:00:59Z</time>
      </trkpt>
      <trkpt lat="43.292850" lon="-4.139950">
        <ele>828.0</ele>
        <time>2015-05-23T14:01:00Z</time>
      </trkpt>
      <trkpt lat="43.292850" lon="-4.139867">
        <ele>828.0</ele>
        <time>2015-05-23T14:01:01Z</time>
      </trkpt>
      <trkpt lat="43.292850" lon="-4.139767">
        <ele>828.0</ele>
        <time>2015-05-23T14:01:02Z</time>
      </trkpt>
      <trkpt lat="43.292850" lon="-4.139683">
        <ele>828.0</ele>
        <time>2015-05-23T14:01:03Z</time>
      </trkpt>
      <trkpt lat="43.292850" lon="-4.139600">
        <ele>828.0</ele>
        <time>2015-05-23T14:01:04Z</time>
      </trkpt>
      <trkpt lat="43.292850" lon="-4.139517">
        <ele>828.0</ele>
        <time>2015-05-23T14:01:05Z</time>
      </trkpt>
      <trkpt lat="43.292850" lon="-4.139417">
        <ele>828.0</ele>
        <time>2015-05-23T14:01:06Z</time>
      </trkpt>
      <trkpt lat="43.292883" lon="-4.139333">
        <ele>828.0</ele>
        <time>2015-05-23T14:01:07Z</time>
      </trkpt>
      <trkpt lat="43.292917" lon="-4.139250">
        <ele>827.0</ele>
        <time>2015-05-23T14:01:08Z</time>
      </trkpt>
      <trkpt lat="43.292967" lon="-4.139183">
        <ele>827.0</ele>
        <time>2015-05-23T14:01:09Z</time>
      </trkpt>
      <trkpt lat="43.293017" lon="-4.139133">
        <ele>827.0</ele>
        <time>2015-05-23T14:01:10Z</time>
      </trkpt>
      <trkpt lat="43.293050" lon="-4.139050">
        <ele>827.0</ele>
        <time>2015-05-23T14:01:11Z</time>
      </trkpt>
      <trkpt lat="43.293067" lon="-4.138983">
        <ele>827.0</ele>
        <time>2015-05-23T14:01:12Z</time>
      </trkpt>
      <trkpt lat="43.293083" lon="-4.138900">
        <ele>827.0</ele>
        <time>2015-05-23T14:01:13Z</time>
      </trkpt>
      <trkpt lat="43.293117" lon="-4.138850">
        <ele>827.0</ele>
        <time>2015-05-23T14:01:14Z</time>
      </trkpt>
      <trkpt lat="43.293150" lon="-4.138817">
        <ele>826.0</ele>
        <time>2015-05-23T14:01:15Z</time>
      </trkpt>
      <trkpt lat="43.293183" lon="-4.138817">
        <ele>826.0</ele>
        <time>2015-05-23T14:01:16Z</time>
      </trkpt>
      <trkpt lat="43.293233" lon="-4.138833">
        <ele>826.0</ele>
        <time>2015-05-23T14:01:17Z</time>
      </trkpt>
      <trkpt lat="43.293250" lon="-4.138883">
        <ele>826.0</ele>
        <time>2015-05-23T14:01:18Z</time>
      </trkpt>
      <trkpt lat="43.293283" lon="-4.138950">
        <ele>825.0</ele>
        <time>2015-05-23T14:01:19Z</time>
      </trkpt>
      <trkpt lat="43.293300" lon="-4.139017">
        <ele>826.0</ele>
        <time>2015-05-23T14:01:20Z</time>
      </trkpt>
      <trkpt lat="43.293300" lon="-4.139083">
        <ele>825.0</ele>
        <time>2015-05-23T14:01:21Z</time>
      </trkpt>
      <trkpt lat="43.293317" lon="-4.139133">
        <ele>824.0</ele>
        <time>2015-05-23T14:01:22Z</time>
      </trkpt>
      <trkpt lat="43.293317" lon="-4.139167">
        <ele>825.0</ele>
        <time>2015-05-23T14:01:23Z</time>
      </trkpt>
      <trkpt lat="43.293333" lon="-4.139217">
        <ele>825.0</ele>
        <time>2015-05-23T14:01:24Z</time>
      </trkpt>
      <trkpt lat="43.293350" lon="-4.139317">
        <ele>825.0</ele>
        <time>2015-05-23T14:01:25Z</time>
      </trkpt>
      <trkpt lat="43.293383" lon="-4.139417">
        <ele>825.0</ele>
        <time>2015-05-23T14:01:26Z</time>
      </trkpt>
      <trkpt lat="43.293400" lon="-4.139533">
        <ele>824.0</ele>
        <time>2015-05-23T14:01:27Z</time>
      </trkpt>
      <trkpt lat="43.293417" lon="-4.139633">
        <ele>824.0</ele>
        <time>2015-05-23T14:01:28Z</time>
      </trkpt>
      <trkpt lat="43.293433" lon="-4.139750">
        <ele>824.0</ele>
        <time>2015-05-23T14:01:29Z</time>
      </trkpt>
      <trkpt lat="43.293433" lon="-4.139850">
        <ele>823.0</ele>
        <time>2015-05-23T14:01:30Z</time>
      </trkpt>
      <trkpt lat="43.293433" lon="-4.139967">
        <ele>822.0</ele>
        <time>2015-05-23T14:01:31Z</time>
      </trkpt>
      <trkpt lat="43.293450" lon="-4.140067">
        <ele>822.0</ele>
        <time>2015-05-23T14:01:32Z</time>
      </trkpt>
      <trkpt lat="43.293450" lon="-4.140183">
        <ele>822.0</ele>
        <time>2015-05-23T14:01:33Z</time>
      </trkpt>
      <trkpt lat="43.293467" lon="-4.140300">
        <ele>821.0</ele>
        <time>2015-05-23T14:01:34Z</time>
      </trkpt>
      <trkpt lat="43.293467" lon="-4.140417">
        <ele>821.0</ele>
        <time>2015-05-23T14:01:35Z</time>
      </trkpt>
      <trkpt lat="43.293467" lon="-4.140533">
        <ele>820.0</ele>
        <time>2015-05-23T14:01:36Z</time>
      </trkpt>
      <trkpt lat="43.293483" lon="-4.140617">
        <ele>820.0</ele>
        <time>2015-05-23T14:01:37Z</time>
      </trkpt>
      <trkpt lat="43.293483" lon="-4.140717">
        <ele>819.0</ele>
        <time>2015-05-23T14:01:38Z</time>
      </trkpt>
      <trkpt lat="43.293483" lon="-4.140800">
        <ele>818.0</ele>
        <time>2015-05-23T14:01:39Z</time>
      </trkpt>
      <trkpt lat="43.293483" lon="-4.140900">
        <ele>818.0</ele>
        <time>2015-05-23T14:01:40Z</time>
      </trkpt>
      <trkpt lat="43.293467" lon="-4.141000">
        <ele>818.0</ele>
        <time>2015-05-23T14:01:41Z</time>
      </trkpt>
      <trkpt lat="43.293450" lon="-4.141117">
        <ele>817.0</ele>
        <time>2015-05-23T14:01:42Z</time>
      </trkpt>
      <trkpt lat="43.293450" lon="-4.141217">
        <ele>817.0</ele>
        <time>2015-05-23T14:01:43Z</time>
      </trkpt>
      <trkpt lat="43.293467" lon="-4.141333">
        <ele>816.0</ele>
        <time>2015-05-23T14:01:44Z</time>
      </trkpt>
      <trkpt lat="43.293483" lon="-4.141450">
        <ele>815.0</ele>
        <time>2015-05-23T14:01:45Z</time>
      </trkpt>
      <trkpt lat="43.293483" lon="-4.141567">
        <ele>814.0</ele>
        <time>2015-05-23T14:01:46Z</time>
      </trkpt>
      <trkpt lat="43.293500" lon="-4.141683">
        <ele>813.0</ele>
        <time>2015-05-23T14:01:47Z</time>
      </trkpt>
      <trkpt lat="43.293500" lon="-4.141800">
        <ele>812.0</ele>
        <time>2015-05-23T14:01:48Z</time>
      </trkpt>
      <trkpt lat="43.293483" lon="-4.141917">
        <ele>811.0</ele>
        <time>2015-05-23T14:01:49Z</time>
      </trkpt>
      <trkpt lat="43.293483" lon="-4.142033">
        <ele>811.0</ele>
        <time>2015-05-23T14:01:50Z</time>
      </trkpt>
      <trkpt lat="43.293483" lon="-4.142150">
        <ele>811.0</ele>
        <time>2015-05-23T14:01:51Z</time>
      </trkpt>
      <trkpt lat="43.293483" lon="-4.142250">
        <ele>811.0</ele>
        <time>2015-05-23T14:01:52Z</time>
      </trkpt>
      <trkpt lat="43.293467" lon="-4.142350">
        <ele>810.0</ele>
        <time>2015-05-23T14:01:53Z</time>
      </trkpt>
      <trkpt lat="43.293450" lon="-4.142450">
        <ele>810.0</ele>
        <time>2015-05-23T14:01:54Z</time>
      </trkpt>
      <trkpt lat="43.293433" lon="-4.142517">
        <ele>810.0</ele>
        <time>2015-05-23T14:01:55Z</time>
      </trkpt>
      <trkpt lat="43.293417" lon="-4.142567">
        <ele>809.0</ele>
        <time>2015-05-23T14:01:56Z</time>
      </trkpt>
      <trkpt lat="43.293400" lon="-4.142633">
        <ele>809.0</ele>
        <time>2015-05-23T14:01:57Z</time>
      </trkpt>
      <trkpt lat="43.293383" lon="-4.142717">
        <ele>809.0</ele>
        <time>2015-05-23T14:01:58Z</time>
      </trkpt>
      <trkpt lat="43.293367" lon="-4.142833">
        <ele>808.0</ele>
        <time>2015-05-23T14:01:59Z</time>
      </trkpt>
      <trkpt lat="43.293350" lon="-4.142950">
        <ele>808.0</ele>
        <time>2015-05-23T14:02:00Z</time>
      </trkpt>
      <trkpt lat="43.293333" lon="-4.143067">
        <ele>808.0</ele>
        <time>2015-05-23T14:02:01Z</time>
      </trkpt>
      <trkpt lat="43.293300" lon="-4.143150">
        <ele>808.0</ele>
        <time>2015-05-23T14:02:02Z</time>
      </trkpt>
      <trkpt lat="43.293250" lon="-4.143233">
        <ele>808.0</ele>
        <time>2015-05-23T14:02:03Z</time>
      </trkpt>
      <trkpt lat="43.293217" lon="-4.143317">
        <ele>808.0</ele>
        <time>2015-05-23T14:02:04Z</time>
      </trkpt>
      <trkpt lat="43.293167" lon="-4.143400">
        <ele>808.0</ele>
        <time>2015-05-23T14:02:05Z</time>
      </trkpt>
      <trkpt lat="43.293100" lon="-4.143483">
        <ele>808.0</ele>
        <time>2015-05-23T14:02:06Z</time>
      </trkpt>
      <trkpt lat="43.293033" lon="-4.143550">
        <ele>808.0</ele>
        <time>2015-05-23T14:02:07Z</time>
      </trkpt>
      <trkpt lat="43.292950" lon="-4.143633">
        <ele>807.0</ele>
        <time>2015-05-23T14:02:08Z</time>
      </trkpt>
      <trkpt lat="43.292850" lon="-4.143683">
        <ele>807.0</ele>
        <time>2015-05-23T14:02:09Z</time>
      </trkpt>
      <trkpt lat="43.292733" lon="-4.143700">
        <ele>806.0</ele>
        <time>2015-05-23T14:02:10Z</time>
      </trkpt>
      <trkpt lat="43.292633" lon="-4.143700">
        <ele>806.0</ele>
        <time>2015-05-23T14:02:11Z</time>
      </trkpt>
      <trkpt lat="43.292517" lon="-4.143650">
        <ele>805.0</ele>
        <time>2015-05-23T14:02:12Z</time>
      </trkpt>
      <trkpt lat="43.292417" lon="-4.143583">
        <ele>805.0</ele>
        <time>2015-05-23T14:02:13Z</time>
      </trkpt>
      <trkpt lat="43.292333" lon="-4.143517">
        <ele>806.0</ele>
        <time>2015-05-23T14:02:14Z</time>
      </trkpt>
      <trkpt lat="43.292267" lon="-4.143450">
        <ele>807.0</ele>
        <time>2015-05-23T14:02:15Z</time>
      </trkpt>
      <trkpt lat="43.292217" lon="-4.143367">
        <ele>807.0</ele>
        <time>2015-05-23T14:02:16Z</time>
      </trkpt>
      <trkpt lat="43.292167" lon="-4.143283">
        <ele>808.0</ele>
        <time>2015-05-23T14:02:17Z</time>
      </trkpt>
      <trkpt lat="43.292133" lon="-4.143200">
        <ele>809.0</ele>
        <time>2015-05-23T14:02:18Z</time>
      </trkpt>
      <trkpt lat="43.292117" lon="-4.143100">
        <ele>809.0</ele>
        <time>2015-05-23T14:02:19Z</time>
      </trkpt>
      <trkpt lat="43.292100" lon="-4.143017">
        <ele>810.0</ele>
        <time>2015-05-23T14:02:20Z</time>
      </trkpt>
      <trkpt lat="43.292100" lon="-4.142933">
        <ele>808.0</ele>
        <time>2015-05-23T14:02:21Z</time>
      </trkpt>
      <trkpt lat="43.292100" lon="-4.142883">
        <ele>809.0</ele>
        <time>2015-05-23T14:02:22Z</time>
      </trkpt>
      <trkpt lat="43.292100" lon="-4.142850">
        <ele>810.0</ele>
        <time>2015-05-23T14:02:23Z</time>
      </trkpt>
      <trkpt lat="43.292100" lon="-4.142817">
        <ele>810.0</ele>
        <time>2015-05-23T14:02:24Z</time>
      </trkpt>
      <trkpt lat="43.292100" lon="-4.142783">
        <ele>811.0</ele>
        <time>2015-05-23T14:02:25Z</time>
      </trkpt>
      <trkpt lat="43.292117" lon="-4.142717">
        <ele>813.0</ele>
        <time>2015-05-23T14:02:26Z</time>
      </trkpt>
      <trkpt lat="43.292133" lon="-4.142683">
        <ele>812.0</ele>
        <time>2015-05-23T14:02:27Z</time>
      </trkpt>
      <trkpt lat="43.292150" lon="-4.142633">
        <ele>813.0</ele>
        <time>2015-05-23T14:02:28Z</time>
      </trkpt>
      <trkpt lat="43.292167" lon="-4.142600">
        <ele>813.0</ele>
        <time>2015-05-23T14:02:29Z</time>
      </trkpt>
      <trkpt lat="43.292200" lon="-4.142567">
        <ele>814.0</ele>
        <time>2015-05-23T14:02:30Z</time>
      </trkpt>
      <trkpt lat="43.292233" lon="-4.142533">
        <ele>815.0</ele>
        <time>2015-05-23T14:02:31Z</time>
      </trkpt>
      <trkpt lat="43.292250" lon="-4.142483">
        <ele>815.0</ele>
        <time>2015-05-23T14:02:32Z</time>
      </trkpt>
      <trkpt lat="43.292283" lon="-4.142450">
        <ele>815.0</ele>
        <time>2015-05-23T14:02:33Z</time>
      </trkpt>
      <trkpt lat="43.292317" lon="-4.142433">
        <ele>816.0</ele>
        <time>2015-05-23T14:02:34Z</time>
      </trkpt>
      <trkpt lat="43.292350" lon="-4.142400">
        <ele>816.0</ele>
        <time>2015-05-23T14:02:35Z</time>
      </trkpt>
      <trkpt lat="43.292367" lon="-4.142367">
        <ele>817.0</ele>
        <time>2015-05-23T14:02:36Z</time>
      </trkpt>
      <trkpt lat="43.292383" lon="-4.142317">
        <ele>817.0</ele>
        <time>2015-05-23T14:02:37Z</time>
      </trkpt>
      <trkpt lat="43.292400" lon="-4.142267">
        <ele>818.0</ele>
        <time>2015-05-23T14:02:38Z</time>
      </trkpt>
      <trkpt lat="43.292433" lon="-4.142217">
        <ele>818.0</ele>
        <time>2015-05-23T14:02:39Z</time>
      </trkpt>
      <trkpt lat="43.292467" lon="-4.142183">
        <ele>818.0</ele>
        <time>2015-05-23T14:02:40Z</time>
      </trkpt>
      <trkpt lat="43.292500" lon="-4.142150">
        <ele>818.0</ele>
        <time>2015-05-23T14:02:41Z</time>
      </trkpt>
      <trkpt lat="43.292533" lon="-4.142117">
        <ele>818.0</ele>
        <time>2015-05-23T14:02:42Z</time>
      </trkpt>
      <trkpt lat="43.292567" lon="-4.142083">
        <ele>818.0</ele>
        <time>2015-05-23T14:02:43Z</time>
      </trkpt>
      <trkpt lat="43.292600" lon="-4.142050">
        <ele>819.0</ele>
        <time>2015-05-23T14:02:44Z</time>
      </trkpt>
      <trkpt lat="43.292633" lon="-4.142017">
        <ele>819.0</ele>
        <time>2015-05-23T14:02:45Z</time>
      </trkpt>
      <trkpt lat="43.292683" lon="-4.142000">
        <ele>819.0</ele>
        <time>2015-05-23T14:02:46Z</time>
      </trkpt>
      <trkpt lat="43.292733" lon="-4.141967">
        <ele>819.0</ele>
        <time>2015-05-23T14:02:47Z</time>
      </trkpt>
      <trkpt lat="43.292783" lon="-4.141933">
        <ele>819.0</ele>
        <time>2015-05-23T14:02:48Z</time>
      </trkpt>
      <trkpt lat="43.292850" lon="-4.141917">
        <ele>819.0</ele>
        <time>2015-05-23T14:02:49Z</time>
      </trkpt>
      <trkpt lat="43.292917" lon="-4.141883">
        <ele>819.0</ele>
        <time>2015-05-23T14:02:50Z</time>
      </trkpt>
      <trkpt lat="43.292950" lon="-4.141867">
        <ele>819.0</ele>
        <time>2015-05-23T14:02:51Z</time>
      </trkpt>
      <trkpt lat="43.293000" lon="-4.141867">
        <ele>819.0</ele>
        <time>2015-05-23T14:02:52Z</time>
      </trkpt>
      <trkpt lat="43.293033" lon="-4.141850">
        <ele>819.0</ele>
        <time>2015-05-23T14:02:53Z</time>
      </trkpt>
      <trkpt lat="43.293067" lon="-4.141833">
        <ele>819.0</ele>
        <time>2015-05-23T14:02:54Z</time>
      </trkpt>
      <trkpt lat="43.293100" lon="-4.141817">
        <ele>819.0</ele>
        <time>2015-05-23T14:02:55Z</time>
      </trkpt>
      <trkpt lat="43.293167" lon="-4.141800">
        <ele>819.0</ele>
        <time>2015-05-23T14:02:56Z</time>
      </trkpt>
      <trkpt lat="43.293217" lon="-4.141800">
        <ele>819.0</ele>
        <time>2015-05-23T14:02:57Z</time>
      </trkpt>
      <trkpt lat="43.293283" lon="-4.141783">
        <ele>819.0</ele>
        <time>2015-05-23T14:02:58Z</time>
      </trkpt>
      <trkpt lat="43.293333" lon="-4.141783">
        <ele>819.0</ele>
        <time>2015-05-23T14:02:59Z</time>
      </trkpt>
      <trkpt lat="43.293383" lon="-4.141800">
        <ele>819.0</ele>
        <time>2015-05-23T14:03:00Z</time>
      </trkpt>
      <trkpt lat="43.293433" lon="-4.141817">
        <ele>819.0</ele>
        <time>2015-05-23T14:03:01Z</time>
      </trkpt>
      <trkpt lat="43.293467" lon="-4.141817">
        <ele>819.0</ele>
        <time>2015-05-23T14:03:02Z</time>
      </trkpt>
      <trkpt lat="43.293517" lon="-4.141833">
        <ele>819.0</ele>
        <time>2015-05-23T14:03:03Z</time>
      </trkpt>
      <trkpt lat="43.293567" lon="-4.141867">
        <ele>820.0</ele>
        <time>2015-05-23T14:03:04Z</time>
      </trkpt>
      <trkpt lat="43.293600" lon="-4.141900">
        <ele>820.0</ele>
        <time>2015-05-23T14:03:05Z</time>
      </trkpt>
      <trkpt lat="43.293633" lon="-4.141950">
        <ele>820.0</ele>
        <time>2015-05-23T14:03:06Z</time>
      </trkpt>
      <trkpt lat="43.293667" lon="-4.142000">
        <ele>820.0</ele>
        <time>2015-05-23T14:03:07Z</time>
      </trkpt>
      <trkpt lat="43.293717" lon="-4.142050">
        <ele>820.0</ele>
        <time>2015-05-23T14:03:08Z</time>
      </trkpt>
      <trkpt lat="43.293733" lon="-4.142117">
        <ele>820.0</ele>
        <time>2015-05-23T14:03:09Z</time>
      </trkpt>
      <trkpt lat="43.293767" lon="-4.142183">
        <ele>820.0</ele>
        <time>2015-05-23T14:03:10Z</time>
      </trkpt>
      <trkpt lat="43.293800" lon="-4.142233">
        <ele>820.0</ele>
        <time>2015-05-23T14:03:11Z</time>
      </trkpt>
      <trkpt lat="43.293850" lon="-4.142267">
        <ele>820.0</ele>
        <time>2015-05-23T14:03:12Z</time>
      </trkpt>
      <trkpt lat="43.293883" lon="-4.142300">
        <ele>820.0</ele>
        <time>2015-05-23T14:03:13Z</time>
      </trkpt>
      <trkpt lat="43.293933" lon="-4.142317">
        <ele>822.0</ele>
        <time>2015-05-23T14:03:14Z</time>
      </trkpt>
      <trkpt lat="43.293967" lon="-4.142333">
        <ele>824.0</ele>
        <time>2015-05-23T14:03:15Z</time>
      </trkpt>
      <trkpt lat="43.294000" lon="-4.142333">
        <ele>827.0</ele>
        <time>2015-05-23T14:03:16Z</time>
      </trkpt>
      <trkpt lat="43.294033" lon="-4.142350">
        <ele>829.0</ele>
        <time>2015-05-23T14:03:17Z</time>
      </trkpt>
      <trkpt lat="43.294083" lon="-4.142383">
        <ele>831.0</ele>
        <time>2015-05-23T14:03:18Z</time>
      </trkpt>
      <trkpt lat="43.294083" lon="-4.142433">
        <ele>830.0</ele>
        <time>2015-05-23T14:03:19Z</time>
      </trkpt>
      <trkpt lat="43.294100" lon="-4.142500">
        <ele>831.0</ele>
        <time>2015-05-23T14:03:20Z</time>
      </trkpt>
      <trkpt lat="43.294117" lon="-4.142567">
        <ele>834.0</ele>
        <time>2015-05-23T14:03:21Z</time>
      </trkpt>
      <trkpt lat="43.294100" lon="-4.142633">
        <ele>836.0</ele>
        <time>2015-05-23T14:03:22Z</time>
      </trkpt>
      <trkpt lat="43.294083" lon="-4.142717">
        <ele>838.0</ele>
        <time>2015-05-23T14:03:23Z</time>
      </trkpt>
      <trkpt lat="43.294033" lon="-4.142783">
        <ele>839.0</ele>
        <time>2015-05-23T14:03:24Z</time>
      </trkpt>
      <trkpt lat="43.293967" lon="-4.142850">
        <ele>840.0</ele>
        <time>2015-05-23T14:03:25Z</time>
      </trkpt>
      <trkpt lat="43.293883" lon="-4.142900">
        <ele>841.0</ele>
        <time>2015-05-23T14:03:26Z</time>
      </trkpt>
      <trkpt lat="43.293783" lon="-4.142900">
        <ele>842.0</ele>
        <time>2015-05-23T14:03:27Z</time>
      </trkpt>
      <trkpt lat="43.293683" lon="-4.142883">
        <ele>843.0</ele>
        <time>2015-05-23T14:03:28Z</time>
      </trkpt>
      <trkpt lat="43.293583" lon="-4.142833">
        <ele>844.0</ele>
        <time>2015-05-23T14:03:29Z</time>
      </trkpt>
      <trkpt lat="43.293500" lon="-4.142767">
        <ele>845.0</ele>
        <time>2015-05-23T14:03:30Z</time>
      </trkpt>
      <trkpt lat="43.293433" lon="-4.142700">
        <ele>847.0</ele>
        <time>2015-05-23T14:03:31Z</time>
      </trkpt>
      <trkpt lat="43.293367" lon="-4.142617">
        <ele>849.0</ele>
        <time>2015-05-23T14:03:32Z</time>
      </trkpt>
      <trkpt lat="43.293300" lon="-4.142533">
        <ele>851.0</ele>
        <time>2015-05-23T14:03:33Z</time>
      </trkpt>
      <trkpt lat="43.293250" lon="-4.142450">
        <ele>853.0</ele>
        <time>2015-05-23T14:03:34Z</time>
      </trkpt>
      <trkpt lat="43.293200" lon="-4.142367">
        <ele>855.0</ele>
        <time>2015-05-23T14:03:35Z</time>
      </trkpt>
      <trkpt lat="43.293167" lon="-4.142267">
        <ele>856.0</ele>
        <time>2015-05-23T14:03:36Z</time>
      </trkpt>
      <trkpt lat="43.293150" lon="-4.142167">
        <ele>858.0</ele>
        <time>2015-05-23T14:03:37Z</time>
      </trkpt>
      <trkpt lat="43.293150" lon="-4.142083">
        <ele>859.0</ele>
        <time>2015-05-23T14:03:38Z</time>
      </trkpt>
      <trkpt lat="43.293150" lon="-4.142000">
        <ele>861.0</ele>
        <time>2015-05-23T14:03:39Z</time>
      </trkpt>
      <trkpt lat="43.293150" lon="-4.141950">
        <ele>858.0</ele>
        <time>2015-05-23T14:03:40Z</time>
      </trkpt>
      <trkpt lat="43.293133" lon="-4.141867">
        <ele>860.0</ele>
        <time>2015-05-23T14:03:41Z</time>
      </trkpt>
      <trkpt lat="43.293133" lon="-4.141800">
        <ele>860.0</ele>
        <time>2015-05-23T14:03:42Z</time>
      </trkpt>
      <trkpt lat="43.293133" lon="-4.141733">
        <ele>861.0</ele>
        <time>2015-05-23T14:03:43Z</time>
      </trkpt>
      <trkpt lat="43.293150" lon="-4.141667">
        <ele>862.0</ele>
        <time>2015-05-23T14:03:44Z</time>
      </trkpt>
      <trkpt lat="43.293183" lon="-4.141617">
        <ele>865.0</ele>
        <time>2015-05-23T14:03:45Z</time>
      </trkpt>
      <trkpt lat="43.293217" lon="-4.141567">
        <ele>868.0</ele>
        <time>2015-05-23T14:03:46Z</time>
      </trkpt>
      <trkpt lat="43.293250" lon="-4.141567">
        <ele>872.0</ele>
        <time>2015-05-23T14:03:47Z</time>
      </trkpt>
      <trkpt lat="43.293283" lon="-4.141567">
        <ele>875.0</ele>
        <time>2015-05-23T14:03:48Z</time>
      </trkpt>
      <trkpt lat="43.293300" lon="-4.141583">
        <ele>879.0</ele>
        <time>2015-05-23T14:03:49Z</time>
      </trkpt>
      <trkpt lat="43.293333" lon="-4.141600">
        <ele>883.0</ele>
        <time>2015-05-23T14:03:50Z</time>
      </trkpt>
      <trkpt lat="43.293350" lon="-4.141617">
        <ele>885.0</ele>
        <time>2015-05-23T14:03:51Z</time>
      </trkpt>
      <trkpt lat="43.293367" lon="-4.141633">
        <ele>887.0</ele>
        <time>2015-05-23T14:03:52Z</time>
      </trkpt>
      <trkpt lat="43.293383" lon="-4.141650">
        <ele>885.0</ele>
        <time>2015-05-23T14:03:53Z</time>
      </trkpt>
      <trkpt lat="43.293417" lon="-4.141700">
        <ele>886.0</ele>
        <time>2015-05-23T14:03:54Z</time>
      </trkpt>
      <trkpt lat="43.293433" lon="-4.141733">
        <ele>886.0</ele>
        <time>2015-05-23T14:03:55Z</time>
      </trkpt>
      <trkpt lat="43.293450" lon="-4.141767">
        <ele>886.0</ele>
        <time>2015-05-23T14:03:56Z</time>
      </trkpt>
      <trkpt lat="43.293467" lon="-4.141783">
        <ele>886.0</ele>
        <time>2015-05-23T14:03:57Z</time>
      </trkpt>
      <trkpt lat="43.293483" lon="-4.141783">
        <ele>887.0</ele>
        <time>2015-05-23T14:03:58Z</time>
      </trkpt>
      <trkpt lat="43.293500" lon="-4.141783">
        <ele>887.0</ele>
        <time>2015-05-23T14:03:59Z</time>
      </trkpt>
      <trkpt lat="43.293517" lon="-4.141833">
        <ele>887.0</ele>
        <time>2015-05-23T14:04:00Z</time>
      </trkpt>
      <trkpt lat="43.293550" lon="-4.141883">
        <ele>887.0</ele>
        <time>2015-05-23T14:04:01Z</time>
      </trkpt>
      <trkpt lat="43.293583" lon="-4.141950">
        <ele>888.0</ele>
        <time>2015-05-23T14:04:02Z</time>
      </trkpt>
      <trkpt lat="43.293633" lon="-4.142017">
        <ele>888.0</ele>
        <time>2015-05-23T14:04:03Z</time>
      </trkpt>
      <trkpt lat="43.293650" lon="-4.142100">
        <ele>890.0</ele>
        <time>2015-05-23T14:04:04Z</time>
      </trkpt>
      <trkpt lat="43.293683" lon="-4.142167">
        <ele>893.0</ele>
        <time>2015-05-23T14:04:05Z</time>
      </trkpt>
      <trkpt lat="43.293700" lon="-4.142217">
        <ele>896.0</ele>
        <time>2015-05-23T14:04:06Z</time>
      </trkpt>
      <trkpt lat="43.293717" lon="-4.142250">
        <ele>899.0</ele>
        <time>2015-05-23T14:04:07Z</time>
      </trkpt>
      <trkpt lat="43.293733" lon="-4.142283">
        <ele>902.0</ele>
        <time>2015-05-23T14:04:08Z</time>
      </trkpt>
      <trkpt lat="43.293750" lon="-4.142333">
        <ele>905.0</ele>
        <time>2015-05-23T14:04:09Z</time>
      </trkpt>
      <trkpt lat="43.293767" lon="-4.142383">
        <ele>907.0</ele>
        <time>2015-05-23T14:04:10Z</time>
      </trkpt>
      <trkpt lat="43.293783" lon="-4.142433">
        <ele>909.0</ele>
        <time>2015-05-23T14:04:11Z</time>
      </trkpt>
      <trkpt lat="43.293800" lon="-4.142500">
        <ele>911.0</ele>
        <time>2015-05-23T14:04:12Z</time>
      </trkpt>
      <trkpt lat="43.293817" lon="-4.142567">
        <ele>909.0</ele>
        <time>2015-05-23T14:04:13Z</time>
      </trkpt>
      <trkpt lat="43.293800" lon="-4.142650">
        <ele>911.0</ele>
        <time>2015-05-23T14:04:14Z</time>
      </trkpt>
      <trkpt lat="43.293783" lon="-4.142750">
        <ele>912.0</ele>
        <time>2015-05-23T14:04:15Z</time>
      </trkpt>
      <trkpt lat="43.293733" lon="-4.142867">
        <ele>913.0</ele>
        <time>2015-05-23T14:04:16Z</time>
      </trkpt>
      <trkpt lat="43.293683" lon="-4.142983">
        <ele>916.0</ele>
        <time>2015-05-23T14:04:17Z</time>
      </trkpt>
      <trkpt lat="43.293617" lon="-4.143067">
        <ele>918.0</ele>
        <time>2015-05-23T14:04:18Z</time>
      </trkpt>
      <trkpt lat="43.293533" lon="-4.143150">
        <ele>920.0</ele>
        <time>2015-05-23T14:04:19Z</time>
      </trkpt>
      <trkpt lat="43.293433" lon="-4.143200">
        <ele>921.0</ele>
        <time>2015-05-23T14:04:20Z</time>
      </trkpt>
      <trkpt lat="43.293333" lon="-4.143217">
        <ele>921.0</ele>
        <time>2015-05-23T14:04:21Z</time>
      </trkpt>
      <trkpt lat="43.293217" lon="-4.143167">
        <ele>922.0</ele>
        <time>2015-05-23T14:04:22Z</time>
      </trkpt>
      <trkpt lat="43.293100" lon="-4.143083">
        <ele>922.0</ele>
        <time>2015-05-23T14:04:23Z</time>
      </trkpt>
      <trkpt lat="43.293017" lon="-4.142983">
        <ele>923.0</ele>
        <time>2015-05-23T14:04:24Z</time>
      </trkpt>
      <trkpt lat="43.292967" lon="-4.142883">
        <ele>925.0</ele>
        <time>2015-05-23T14:04:25Z</time>
      </trkpt>
      <trkpt lat="43.292933" lon="-4.142800">
        <ele>925.0</ele>
        <time>2015-05-23T14:04:26Z</time>
      </trkpt>
      <trkpt lat="43.292883" lon="-4.142733">
        <ele>927.0</ele>
        <time>2015-05-23T14:04:27Z</time>
      </trkpt>
      <trkpt lat="43.292833" lon="-4.142667">
        <ele>928.0</ele>
        <time>2015-05-23T14:04:28Z</time>
      </trkpt>
      <trkpt lat="43.292800" lon="-4.142600">
        <ele>927.0</ele>
        <time>2015-05-23T14:04:29Z</time>
      </trkpt>
      <trkpt lat="43.292767" lon="-4.142500">
        <ele>927.0</ele>
        <time>2015-05-23T14:04:30Z</time>
      </trkpt>
      <trkpt lat="43.292767" lon="-4.142417">
        <ele>927.0</ele>
        <time>2015-05-23T14:04:31Z</time>
      </trkpt>
      <trkpt lat="43.292750" lon="-4.142333">
        <ele>927.0</ele>
        <time>2015-05-23T14:04:32Z</time>
      </trkpt>
      <trkpt lat="43.292750" lon="-4.142283">
        <ele>928.0</ele>
        <time>2015-05-23T14:04:33Z</time>
      </trkpt>
      <trkpt lat="43.292750" lon="-4.142217">
        <ele>928.0</ele>
        <time>2015-05-23T14:04:34Z</time>
      </trkpt>
      <trkpt lat="43.292767" lon="-4.142133">
        <ele>929.0</ele>
        <time>2015-05-23T14:04:35Z</time>
      </trkpt>
      <trkpt lat="43.292783" lon="-4.142067">
        <ele>930.0</ele>
        <time>2015-05-23T14:04:36Z</time>
      </trkpt>
      <trkpt lat="43.292800" lon="-4.142000">
        <ele>930.0</ele>
        <time>2015-05-23T14:04:37Z</time>
      </trkpt>
      <trkpt lat="43.292817" lon="-4.141950">
        <ele>930.0</ele>
        <time>2015-05-23T14:04:38Z</time>
      </trkpt>
      <trkpt lat="43.292833" lon="-4.141917">
        <ele>931.0</ele>
        <time>2015-05-23T14:04:39Z</time>
      </trkpt>
      <trkpt lat="43.292850" lon="-4.141900">
        <ele>931.0</ele>
        <time>2015-05-23T14:04:40Z</time>
      </trkpt>
      <trkpt lat="43.292883" lon="-4.141867">
        <ele>931.0</ele>
        <time>2015-05-23T14:04:41Z</time>
      </trkpt>
      <trkpt lat="43.292917" lon="-4.141833">
        <ele>932.0</ele>
        <time>2015-05-23T14:04:42Z</time>
      </trkpt>
      <trkpt lat="43.292933" lon="-4.141800">
        <ele>932.0</ele>
        <time>2015-05-23T14:04:43Z</time>
      </trkpt>
      <trkpt lat="43.292950" lon="-4.141700">
        <ele>932.0</ele>
        <time>2015-05-23T14:04:44Z</time>
      </trkpt>
      <trkpt lat="43.292967" lon="-4.141600">
        <ele>932.0</ele>
        <time>2015-05-23T14:04:45Z</time>
      </trkpt>
      <trkpt lat="43.292983" lon="-4.141500">
        <ele>933.0</ele>
        <time>2015-05-23T14:04:46Z</time>
      </trkpt>
      <trkpt lat="43.292983" lon="-4.141383">
        <ele>933.0</ele>
        <time>2015-05-23T14:04:47Z</time>
      </trkpt>
      <trkpt lat="43.293000" lon="-4.141317">
        <ele>933.0</ele>
        <time>2015-05-23T14:04:48Z</time>
      </trkpt>
      <trkpt lat="43.293017" lon="-4.141217">
        <ele>934.0</ele>
        <time>2015-05-23T14:04:49Z</time>
      </trkpt>
      <trkpt lat="43.293033" lon="-4.141133">
        <ele>934.0</ele>
        <time>2015-05-23T14:04:50Z</time>
      </trkpt>
      <trkpt lat="43.293033" lon="-4.141033">
        <ele>934.0</ele>
        <time>2015-05-23T14:04:51Z</time>
      </trkpt>
      <trkpt lat="43.293033" lon="-4.140933">
        <ele>934.0</ele>
        <time>2015-05-23T14:04:52Z</time>
      </trkpt>
      <trkpt lat="43.293033" lon="-4.140850">
        <ele>935.0</ele>
        <time>2015-05-23T14:04:53Z</time>
      </trkpt>
      <trkpt lat="43.293033" lon="-4.140733">
        <ele>935.0</ele>
        <time>2015-05-23T14:04:54Z</time>
      </trkpt>
      <trkpt lat="43.293033" lon="-4.140650">
        <ele>936.0</ele>
        <time>2015-05-23T14:04:55Z</time>
      </trkpt>
      <trkpt lat="43.293033" lon="-4.140567">
        <ele>937.0</ele>
        <time>2015-05-23T14:04:56Z</time>
      </trkpt>
      <trkpt lat="43.293033" lon="-4.140500">
        <ele>938.0</ele>
        <time>2015-05-23T14:04:57Z</time>
      </trkpt>
      <trkpt lat="43.293017" lon="-4.140450">
        <ele>939.0</ele>
        <time>2015-05-23T14:04:58Z</time>
      </trkpt>
      <trkpt lat="43.293033" lon="-4.140367">
        <ele>940.0</ele>
        <time>2015-05-23T14:04:59Z</time>
      </trkpt>
      <trkpt lat="43.293033" lon="-4.140267">
        <ele>940.0</ele>
        <time>2015-05-23T14:05:00Z</time>
      </trkpt>
      <trkpt lat="43.293050" lon="-4.140150">
        <ele>940.0</ele>
        <time>2015-05-23T14:05:01Z</time>
      </trkpt>
      <trkpt lat="43.293067" lon="-4.140050">
        <ele>941.0</ele>
        <time>2015-05-23T14:05:02Z</time>
      </trkpt>
      <trkpt lat="43.293083" lon="-4.139967">
        <ele>941.0</ele>
        <time>2015-05-23T14:05:03Z</time>
      </trkpt>
      <trkpt lat="43.293100" lon="-4.139900">
        <ele>942.0</ele>
        <time>2015-05-23T14:05:04Z</time>
      </trkpt>
      <trkpt lat="43.293117" lon="-4.139833">
        <ele>943.0</ele>
        <time>2015-05-23T14:05:05Z</time>
      </trkpt>
      <trkpt lat="43.293133" lon="-4.139767">
        <ele>943.0</ele>
        <time>2015-05-23T14:05:06Z</time>
      </trkpt>
      <trkpt lat="43.293167" lon="-4.139667">
        <ele>944.0</ele>
        <time>2015-05-23T14:05:07Z</time>
      </trkpt>
      <trkpt lat="43.293183" lon="-4.139550">
        <ele>945.0</ele>
        <time>2015-05-23T14:05:08Z</time>
      </trkpt>
      <trkpt lat="43.293200" lon="-4.139467">
        <ele>946.0</ele>
        <time>2015-05-23T14:05:09Z</time>
      </trkpt>
      <trkpt lat="43.293200" lon="-4.139400">
        <ele>946.0</ele>
        <time>2015-05-23T14:05:10Z</time>
      </trkpt>
      <trkpt lat="43.293200" lon="-4.139333">
        <ele>947.0</ele>
        <time>2015-05-23T14:05:11Z</time>
      </trkpt>
      <trkpt lat="43.293200" lon="-4.139267">
        <ele>947.0</ele>
        <time>2015-05-23T14:05:12Z</time>
      </trkpt>
      <trkpt lat="43.293217" lon="-4.139167">
        <ele>948.0</ele>
        <time>2015-05-23T14:05:13Z</time>
      </trkpt>
      <trkpt lat="43.293233" lon="-4.139067">
        <ele>948.0</ele>
        <time>2015-05-23T14:05:14Z</time>
      </trkpt>
      <trkpt lat="43.293250" lon="-4.138967">
        <ele>948.0</ele>
        <time>2015-05-23T14:05:15Z</time>
      </trkpt>
      <trkpt lat="43.293250" lon="-4.138867">
        <ele>949.0</ele>
        <time>2015-05-23T14:05:16Z</time>
      </trkpt>
      <trkpt lat="43.293250" lon="-4.138783">
        <ele>949.0</ele>
        <time>2015-05-23T14:05:17Z</time>
      </trkpt>
      <trkpt lat="43.293250" lon="-4.138700">
        <ele>949.0</ele>
        <time>2015-05-23T14:05:18Z</time>
      </trkpt>
      <trkpt lat="43.293250" lon="-4.138600">
        <ele>950.0</ele>
        <time>2015-05-23T14:05:19Z</time>
      </trkpt>
      <trkpt lat="43.293250" lon="-4.138483">
        <ele>950.0</ele>
        <time>2015-05-23T14:05:20Z</time>
      </trkpt>
      <trkpt lat="43.293267" lon="-4.138383">
        <ele>951.0</ele>
        <time>2015-05-23T14:05:21Z</time>
      </trkpt>
      <trkpt lat="43.293267" lon="-4.138267">
        <ele>951.0</ele>
        <time>2015-05-23T14:05:22Z</time>
      </trkpt>
      <trkpt lat="43.293267" lon="-4.138167">
        <ele>951.0</ele>
        <time>2015-05-23T14:05:23Z</time>
      </trkpt>
      <trkpt lat="43.293267" lon="-4.138050">
        <ele>952.0</ele>
        <time>2015-05-23T14:05:24Z</time>
      </trkpt>
      <trkpt lat="43.293267" lon="-4.137950">
        <ele>952.0</ele>
        <time>2015-05-23T14:05:25Z</time>
      </trkpt>
      <trkpt lat="43.293283" lon="-4.137833">
        <ele>952.0</ele>
        <time>2015-05-23T14:05:26Z</time>
      </trkpt>
      <trkpt lat="43.293283" lon="-4.137750">
        <ele>952.0</ele>
        <time>2015-05-23T14:05:27Z</time>
      </trkpt>
      <trkpt lat="43.293283" lon="-4.137650">
        <ele>952.0</ele>
        <time>2015-05-23T14:05:28Z</time>
      </trkpt>
      <trkpt lat="43.293283" lon="-4.137550">
        <ele>953.0</ele>
        <time>2015-05-23T14:05:29Z</time>
      </trkpt>
      <trkpt lat="43.293283" lon="-4.137450">
        <ele>953.0</ele>
        <time>2015-05-23T14:05:30Z</time>
      </trkpt>
      <trkpt lat="43.293267" lon="-4.137350">
        <ele>953.0</ele>
        <time>2015-05-23T14:05:31Z</time>
      </trkpt>
      <trkpt lat="43.293267" lon="-4.137250">
        <ele>953.0</ele>
        <time>2015-05-23T14:05:32Z</time>
      </trkpt>
      <trkpt lat="43.293233" lon="-4.137133">
        <ele>953.0</ele>
        <time>2015-05-23T14:05:33Z</time>
      </trkpt>
      <trkpt lat="43.293200" lon="-4.137017">
        <ele>954.0</ele>
        <time>2015-05-23T14:05:34Z</time>
      </trkpt>
      <trkpt lat="43.293167" lon="-4.136900">
        <ele>954.0</ele>
        <time>2015-05-23T14:05:35Z</time>
      </trkpt>
      <trkpt lat="43.293117" lon="-4.136783">
        <ele>954.0</ele>
        <time>2015-05-23T14:05:36Z</time>
      </trkpt>
      <trkpt lat="43.293083" lon="-4.136683">
        <ele>953.0</ele>
        <time>2015-05-23T14:05:37Z</time>
      </trkpt>
      <trkpt lat="43.293067" lon="-4.136550">
        <ele>952.0</ele>
        <time>2015-05-23T14:05:38Z</time>
      </trkpt>
      <trkpt lat="43.293067" lon="-4.136417">
        <ele>951.0</ele>
        <time>2015-05-23T14:05:39Z</time>
      </trkpt>
      <trkpt lat="43.293067" lon="-4.136283">
        <ele>953.0</ele>
        <time>2015-05-23T14:05:40Z</time>
      </trkpt>
      <trkpt lat="43.293067" lon="-4.136167">
        <ele>954.0</ele>
        <time>2015-05-23T14:05:41Z</time>
      </trkpt>
      <trkpt lat="43.293083" lon="-4.136083">
        <ele>954.0</ele>
        <time>2015-05-23T14:05:42Z</time>
      </trkpt>
      <trkpt lat="43.293100" lon="-4.136000">
        <ele>954.0</ele>
        <time>2015-05-23T14:05:43Z</time>
      </trkpt>
      <trkpt lat="43.293133" lon="-4.135917">
        <ele>954.0</ele>
        <time>2015-05-23T14:05:44Z</time>
      </trkpt>
      <trkpt lat="43.293150" lon="-4.135817">
        <ele>954.0</ele>
        <time>2015-05-23T14:05:45Z</time>
      </trkpt>
      <trkpt lat="43.293183" lon="-4.135733">
        <ele>953.0</ele>
        <time>2015-05-23T14:05:46Z</time>
      </trkpt>
      <trkpt lat="43.293217" lon="-4.135650">
        <ele>952.0</ele>
        <time>2015-05-23T14:05:47Z</time>
      </trkpt>
      <trkpt lat="43.293250" lon="-4.135567">
        <ele>952.0</ele>
        <time>2015-05-23T14:05:48Z</time>
      </trkpt>
      <trkpt lat="43.293300" lon="-4.135467">
        <ele>952.0</ele>
        <time>2015-05-23T14:05:49Z</time>
      </trkpt>
      <trkpt lat="43.293333" lon="-4.135400">
        <ele>952.0</ele>
        <time>2015-05-23T14:05:50Z</time>
      </trkpt>
      <trkpt lat="43.293350" lon="-4.135333">
        <ele>951.0</ele>
        <time>2015-05-23T14:05:51Z</time>
      </trkpt>
      <trkpt lat="43.293383" lon="-4.135250">
        <ele>951.0</ele>
        <time>2015-05-23T14:05:52Z</time>
      </trkpt>
      <trkpt lat="43.293400" lon="-4.135183">
        <ele>951.0</ele>
        <time>2015-05-23T14:05:53Z</time>
      </trkpt>
      <trkpt lat="43.293433" lon="-4.135083">
        <ele>950.0</ele>
        <time>2015-05-23T14:05:54Z</time>
      </trkpt>
      <trkpt lat="43.293467" lon="-4.134983">
        <ele>950.0</ele>
        <time>2015-05-23T14:05:55Z</time>
      </trkpt>
      <trkpt lat="43.293500" lon="-4.134883">
        <ele>950.0</ele>
        <time>2015-05-23T14:05:56Z</time>
      </trkpt>
      <trkpt lat="43.293533" lon="-4.134783">
        <ele>950.0</ele>
        <time>2015-05-23T14:05:57Z</time>
      </trkpt>
      <trkpt lat="43.293567" lon="-4.134667">
        <ele>949.0</ele>
        <time>2015-05-23T14:05:58Z</time>
      </trkpt>
      <trkpt lat="43.293600" lon="-4.134567">
        <ele>949.0</ele>
        <time>2015-05-23T14:05:59Z</time>
      </trkpt>
      <trkpt lat="43.293617" lon="-4.134450">
        <ele>949.0</ele>
        <time>2015-05-23T14:06:00Z</time>
      </trkpt>
      <trkpt lat="43.293633" lon="-4.134333">
        <ele>948.0</ele>
        <time>2015-05-23T14:06:01Z</time>
      </trkpt>
      <trkpt lat="43.293667" lon="-4.134200">
        <ele>948.0</ele>
        <time>2015-05-23T14:06:02Z</time>
      </trkpt>
      <trkpt lat="43.293700" lon="-4.134083">
        <ele>947.0</ele>
        <time>2015-05-23T14:06:03Z</time>
      </trkpt>
      <trkpt lat="43.293733" lon="-4.133967">
        <ele>947.0</ele>
        <time>2015-05-23T14:06:04Z</time>
      </trkpt>
      <trkpt lat="43.293767" lon="-4.133850">
        <ele>946.0</ele>
        <time>2015-05-23T14:06:05Z</time>
      </trkpt>
      <trkpt lat="43.293800" lon="-4.133750">
        <ele>946.0</ele>
        <time>2015-05-23T14:06:06Z</time>
      </trkpt>
      <trkpt lat="43.293833" lon="-4.133667">
        <ele>946.0</ele>
        <time>2015-05-23T14:06:07Z</time>
      </trkpt>
      <trkpt lat="43.293867" lon="-4.133567">
        <ele>945.0</ele>
        <time>2015-05-23T14:06:08Z</time>
      </trkpt>
      <trkpt lat="43.293900" lon="-4.133467">
        <ele>945.0</ele>
        <time>2015-05-23T14:06:09Z</time>
      </trkpt>
      <trkpt lat="43.293933" lon="-4.133350">
        <ele>945.0</ele>
        <time>2015-05-23T14:06:10Z</time>
      </trkpt>
      <trkpt lat="43.293967" lon="-4.133250">
        <ele>944.0</ele>
        <time>2015-05-23T14:06:11Z</time>
      </trkpt>
      <trkpt lat="43.294000" lon="-4.133150">
        <ele>943.0</ele>
        <time>2015-05-23T14:06:12Z</time>
      </trkpt>
      <trkpt lat="43.294033" lon="-4.133050">
        <ele>943.0</ele>
        <time>2015-05-23T14:06:13Z</time>
      </trkpt>
      <trkpt lat="43.294050" lon="-4.132967">
        <ele>942.0</ele>
        <time>2015-05-23T14:06:14Z</time>
      </trkpt>
      <trkpt lat="43.294083" lon="-4.132867">
        <ele>942.0</ele>
        <time>2015-05-23T14:06:15Z</time>
      </trkpt>
      <trkpt lat="43.294100" lon="-4.132767">
        <ele>942.0</ele>
        <time>2015-05-23T14:06:16Z</time>
      </trkpt>
      <trkpt lat="43.294150" lon="-4.132683">
        <ele>941.0</ele>
        <time>2015-05-23T14:06:17Z</time>
      </trkpt>
      <trkpt lat="43.294183" lon="-4.132600">
        <ele>940.0</ele>
        <time>2015-05-23T14:06:18Z</time>
      </trkpt>
      <trkpt lat="43.294217" lon="-4.132533">
        <ele>940.0</ele>
        <time>2015-05-23T14:06:19Z</time>
      </trkpt>
      <trkpt lat="43.294250" lon="-4.132467">
        <ele>940.0</ele>
        <time>2015-05-23T14:06:20Z</time>
      </trkpt>
      <trkpt lat="43.294300" lon="-4.132400">
        <ele>939.0</ele>
        <time>2015-05-23T14:06:21Z</time>
      </trkpt>
      <trkpt lat="43.294333" lon="-4.132317">
        <ele>939.0</ele>
        <time>2015-05-23T14:06:22Z</time>
      </trkpt>
      <trkpt lat="43.294367" lon="-4.132233">
        <ele>938.0</ele>
        <time>2015-05-23T14:06:23Z</time>
      </trkpt>
      <trkpt lat="43.294417" lon="-4.132183">
        <ele>938.0</ele>
        <time>2015-05-23T14:06:24Z</time>
      </trkpt>
      <trkpt lat="43.294433" lon="-4.132117">
        <ele>938.0</ele>
        <time>2015-05-23T14:06:25Z</time>
      </trkpt>
      <trkpt lat="43.294483" lon="-4.132033">
        <ele>937.0</ele>
        <time>2015-05-23T14:06:26Z</time>
      </trkpt>
      <trkpt lat="43.294500" lon="-4.131950">
        <ele>937.0</ele>
        <time>2015-05-23T14:06:27Z</time>
      </trkpt>
      <trkpt lat="43.294533" lon="-4.131867">
        <ele>936.0</ele>
        <time>2015-05-23T14:06:28Z</time>
      </trkpt>
      <trkpt lat="43.294550" lon="-4.131783">
        <ele>936.0</ele>
        <time>2015-05-23T14:06:29Z</time>
      </trkpt>
      <trkpt lat="43.294567" lon="-4.131683">
        <ele>936.0</ele>
        <time>2015-05-23T14:06:30Z</time>
      </trkpt>
      <trkpt lat="43.294600" lon="-4.131583">
        <ele>935.0</ele>
        <time>2015-05-23T14:06:31Z</time>
      </trkpt>
      <trkpt lat="43.294633" lon="-4.131500">
        <ele>935.0</ele>
        <time>2015-05-23T14:06:32Z</time>
      </trkpt>
      <trkpt lat="43.294650" lon="-4.131433">
        <ele>935.0</ele>
        <time>2015-05-23T14:06:33Z</time>
      </trkpt>
      <trkpt lat="43.294667" lon="-4.131333">
        <ele>934.0</ele>
        <time>2015-05-23T14:06:34Z</time>
      </trkpt>
      <trkpt lat="43.294700" lon="-4.131250">
        <ele>934.0</ele>
        <time>2015-05-23T14:06:35Z</time>
      </trkpt>
      <trkpt lat="43.294717" lon="-4.131150">
        <ele>933.0</ele>
        <time>2015-05-23T14:06:36Z</time>
      </trkpt>
      <trkpt lat="43.294733" lon="-4.131050">
        <ele>933.0</ele>
        <time>2015-05-23T14:06:37Z</time>
      </trkpt>
      <trkpt lat="43.294750" lon="-4.130950">
        <ele>932.0</ele>
        <time>2015-05-23T14:06:38Z</time>
      </trkpt>
      <trkpt lat="43.294767" lon="-4.130850">
        <ele>932.0</ele>
        <time>2015-05-23T14:06:39Z</time>
      </trkpt>
      <trkpt lat="43.294767" lon="-4.130750">
        <ele>931.0</ele>
        <time>2015-05-23T14:06:40Z</time>
      </trkpt>
      <trkpt lat="43.294783" lon="-4.130633">
        <ele>930.0</ele>
        <time>2015-05-23T14:06:41Z</time>
      </trkpt>
      <trkpt lat="43.294817" lon="-4.130517">
        <ele>929.0</ele>
        <time>2015-05-23T14:06:42Z</time>
      </trkpt>
      <trkpt lat="43.294833" lon="-4.130400">
        <ele>927.0</ele>
        <time>2015-05-23T14:06:43Z</time>
      </trkpt>
      <trkpt lat="43.294833" lon="-4.130317">
        <ele>926.0</ele>
        <time>2015-05-23T14:06:44Z</time>
      </trkpt>
      <trkpt lat="43.294850" lon="-4.130217">
        <ele>925.0</ele>
        <time>2015-05-23T14:06:45Z</time>
      </trkpt>
      <trkpt lat="43.294850" lon="-4.130117">
        <ele>923.0</ele>
        <time>2015-05-23T14:06:46Z</time>
      </trkpt>
      <trkpt lat="43.294883" lon="-4.130017">
        <ele>922.0</ele>
        <time>2015-05-23T14:06:47Z</time>
      </trkpt>
      <trkpt lat="43.294900" lon="-4.129933">
        <ele>922.0</ele>
        <time>2015-05-23T14:06:48Z</time>
      </trkpt>
      <trkpt lat="43.294933" lon="-4.129833">
        <ele>921.0</ele>
        <time>2015-05-23T14:06:49Z</time>
      </trkpt>
      <trkpt lat="43.294950" lon="-4.129733">
        <ele>920.0</ele>
        <time>2015-05-23T14:06:50Z</time>
      </trkpt>
      <trkpt lat="43.294950" lon="-4.129617">
        <ele>920.0</ele>
        <time>2015-05-23T14:06:51Z</time>
      </trkpt>
      <trkpt lat="43.294950" lon="-4.129517">
        <ele>919.0</ele>
        <time>2015-05-23T14:06:52Z</time>
      </trkpt>
      <trkpt lat="43.294950" lon="-4.129433">
        <ele>918.0</ele>
        <time>2015-05-23T14:06:53Z</time>
      </trkpt>
      <trkpt lat="43.294950" lon="-4.129333">
        <ele>918.0</ele>
        <time>2015-05-23T14:06:54Z</time>
      </trkpt>
      <trkpt lat="43.294967" lon="-4.129250">
        <ele>917.0</ele>
        <time>2015-05-23T14:06:55Z</time>
      </trkpt>
      <trkpt lat="43.294967" lon="-4.129150">
        <ele>917.0</ele>
        <time>2015-05-23T14:06:56Z</time>
      </trkpt>
      <trkpt lat="43.294967" lon="-4.129033">
        <ele>916.0</ele>
        <time>2015-05-23T14:06:57Z</time>
      </trkpt>
      <trkpt lat="43.294967" lon="-4.128917">
        <ele>916.0</ele>
        <time>2015-05-23T14:06:58Z</time>
      </trkpt>
      <trkpt lat="43.295017" lon="-4.128850">
        <ele>915.0</ele>
        <time>2015-05-23T14:06:59Z</time>
      </trkpt>
      <trkpt lat="43.295033" lon="-4.128733">
        <ele>914.0</ele>
        <time>2015-05-23T14:07:00Z</time>
      </trkpt>
      <trkpt lat="43.295050" lon="-4.128633">
        <ele>913.0</ele>
        <time>2015-05-23T14:07:01Z</time>
      </trkpt>
      <trkpt lat="43.295083" lon="-4.128550">
        <ele>911.0</ele>
        <time>2015-05-23T14:07:02Z</time>
      </trkpt>
      <trkpt lat="43.295100" lon="-4.128517">
        <ele>909.0</ele>
        <time>2015-05-23T14:07:03Z</time>
      </trkpt>
      <trkpt lat="43.295133" lon="-4.128517">
        <ele>904.0</ele>
        <time>2015-05-23T14:07:04Z</time>
      </trkpt>
      <trkpt lat="43.295167" lon="-4.128567">
        <ele>898.0</ele>
        <time>2015-05-23T14:07:05Z</time>
      </trkpt>
      <trkpt lat="43.295167" lon="-4.128633">
        <ele>893.0</ele>
        <time>2015-05-23T14:07:06Z</time>
      </trkpt>
      <trkpt lat="43.295183" lon="-4.128717">
        <ele>888.0</ele>
        <time>2015-05-23T14:07:07Z</time>
      </trkpt>
      <trkpt lat="43.295183" lon="-4.128817">
        <ele>884.0</ele>
        <time>2015-05-23T14:07:08Z</time>
      </trkpt>
      <trkpt lat="43.295183" lon="-4.128900">
        <ele>885.0</ele>
        <time>2015-05-23T14:07:09Z</time>
      </trkpt>
      <trkpt lat="43.295200" lon="-4.128983">
        <ele>884.0</ele>
        <time>2015-05-23T14:07:10Z</time>
      </trkpt>
      <trkpt lat="43.295200" lon="-4.129067">
        <ele>884.0</ele>
        <time>2015-05-23T14:07:11Z</time>
      </trkpt>
      <trkpt lat="43.295200" lon="-4.129167">
        <ele>884.0</ele>
        <time>2015-05-23T14:07:12Z</time>
      </trkpt>
      <trkpt lat="43.295200" lon="-4.129283">
        <ele>883.0</ele>
        <time>2015-05-23T14:07:13Z</time>
      </trkpt>
      <trkpt lat="43.295183" lon="-4.129400">
        <ele>883.0</ele>
        <time>2015-05-23T14:07:14Z</time>
      </trkpt>
      <trkpt lat="43.295167" lon="-4.129550">
        <ele>882.0</ele>
        <time>2015-05-23T14:07:15Z</time>
      </trkpt>
      <trkpt lat="43.295167" lon="-4.129683">
        <ele>881.0</ele>
        <time>2015-05-23T14:07:16Z</time>
      </trkpt>
      <trkpt lat="43.295150" lon="-4.129833">
        <ele>881.0</ele>
        <time>2015-05-23T14:07:17Z</time>
      </trkpt>
      <trkpt lat="43.295133" lon="-4.129967">
        <ele>879.0</ele>
        <time>2015-05-23T14:07:18Z</time>
      </trkpt>
      <trkpt lat="43.295133" lon="-4.130100">
        <ele>877.0</ele>
        <time>2015-05-23T14:07:19Z</time>
      </trkpt>
      <trkpt lat="43.295117" lon="-4.130217">
        <ele>877.0</ele>
        <time>2015-05-23T14:07:20Z</time>
      </trkpt>
      <trkpt lat="43.295117" lon="-4.130333">
        <ele>877.0</ele>
        <time>2015-05-23T14:07:21Z</time>
      </trkpt>
      <trkpt lat="43.295117" lon="-4.130417">
        <ele>876.0</ele>
        <time>2015-05-23T14:07:22Z</time>
      </trkpt>
      <trkpt lat="43.295117" lon="-4.130517">
        <ele>876.0</ele>
        <time>2015-05-23T14:07:23Z</time>
      </trkpt>
      <trkpt lat="43.295100" lon="-4.130617">
        <ele>875.0</ele>
        <time>2015-05-23T14:07:24Z</time>
      </trkpt>
      <trkpt lat="43.295083" lon="-4.130733">
        <ele>875.0</ele>
        <time>2015-05-23T14:07:25Z</time>
      </trkpt>
      <trkpt lat="43.295067" lon="-4.130850">
        <ele>874.0</ele>
        <time>2015-05-23T14:07:26Z</time>
      </trkpt>
      <trkpt lat="43.295050" lon="-4.130967">
        <ele>873.0</ele>
        <time>2015-05-23T14:07:27Z</time>
      </trkpt>
      <trkpt lat="43.295067" lon="-4.131067">
        <ele>872.0</ele>
        <time>2015-05-23T14:07:28Z</time>
      </trkpt>
      <trkpt lat="43.295067" lon="-4.131183">
        <ele>871.0</ele>
        <time>2015-05-23T14:07:29Z</time>
      </trkpt>
      <trkpt lat="43.295067" lon="-4.131283">
        <ele>870.0</ele>
        <time>2015-05-23T14:07:30Z</time>
      </trkpt>
      <trkpt lat="43.295067" lon="-4.131400">
        <ele>870.0</ele>
        <time>2015-05-23T14:07:31Z</time>
      </trkpt>
      <trkpt lat="43.295033" lon="-4.131483">
        <ele>869.0</ele>
        <time>2015-05-23T14:07:32Z</time>
      </trkpt>
      <trkpt lat="43.295017" lon="-4.131583">
        <ele>866.0</ele>
        <time>2015-05-23T14:07:33Z</time>
      </trkpt>
      <trkpt lat="43.295033" lon="-4.131667">
        <ele>864.0</ele>
        <time>2015-05-23T14:07:34Z</time>
      </trkpt>
      <trkpt lat="43.295033" lon="-4.131767">
        <ele>862.0</ele>
        <time>2015-05-23T14:07:35Z</time>
      </trkpt>
      <trkpt lat="43.295050" lon="-4.131850">
        <ele>862.0</ele>
        <time>2015-05-23T14:07:36Z</time>
      </trkpt>
      <trkpt lat="43.295067" lon="-4.131933">
        <ele>862.0</ele>
        <time>2015-05-23T14:07:37Z</time>
      </trkpt>
      <trkpt lat="43.295100" lon="-4.131983">
        <ele>861.0</ele>
        <time>2015-05-23T14:07:38Z</time>
      </trkpt>
      <trkpt lat="43.295150" lon="-4.132000">
        <ele>860.0</ele>
        <time>2015-05-23T14:07:39Z</time>
      </trkpt>
      <trkpt lat="43.295183" lon="-4.132017">
        <ele>860.0</ele>
        <time>2015-05-23T14:07:40Z</time>
      </trkpt>
      <trkpt lat="43.295233" lon="-4.132033">
        <ele>858.0</ele>
        <time>2015-05-23T14:07:41Z</time>
      </trkpt>
      <trkpt lat="43.295267" lon="-4.132067">
        <ele>856.0</ele>
        <time>2015-05-23T14:07:42Z</time>
      </trkpt>
      <trkpt lat="43.295283" lon="-4.132133">
        <ele>855.0</ele>
        <time>2015-05-23T14:07:43Z</time>
      </trkpt>
      <trkpt lat="43.295300" lon="-4.132200">
        <ele>854.0</ele>
        <time>2015-05-23T14:07:44Z</time>
      </trkpt>
      <trkpt lat="43.295300" lon="-4.132300">
        <ele>853.0</ele>
        <time>2015-05-23T14:07:45Z</time>
      </trkpt>
      <trkpt lat="43.295300" lon="-4.132383">
        <ele>851.0</ele>
        <time>2015-05-23T14:07:46Z</time>
      </trkpt>
      <trkpt lat="43.295317" lon="-4.132483">
        <ele>849.0</ele>
        <time>2015-05-23T14:07:47Z</time>
      </trkpt>
      <trkpt lat="43.295333" lon="-4.132583">
        <ele>851.0</ele>
        <time>2015-05-23T14:07:48Z</time>
      </trkpt>
      <trkpt lat="43.295333" lon="-4.132683">
        <ele>851.0</ele>
        <time>2015-05-23T14:07:49Z</time>
      </trkpt>
      <trkpt lat="43.295367" lon="-4.132800">
        <ele>850.0</ele>
        <time>2015-05-23T14:07:50Z</time>
      </trkpt>
      <trkpt lat="43.295383" lon="-4.132917">
        <ele>850.0</ele>
        <time>2015-05-23T14:07:51Z</time>
      </trkpt>
      <trkpt lat="43.295383" lon="-4.133017">
        <ele>849.0</ele>
        <time>2015-05-23T14:07:52Z</time>
      </trkpt>
      <trkpt lat="43.295383" lon="-4.133117">
        <ele>848.0</ele>
        <time>2015-05-23T14:07:53Z</time>
      </trkpt>
      <trkpt lat="43.295383" lon="-4.133233">
        <ele>847.0</ele>
        <time>2015-05-23T14:07:54Z</time>
      </trkpt>
      <trkpt lat="43.295383" lon="-4.133333">
        <ele>846.0</ele>
        <time>2015-05-23T14:07:55Z</time>
      </trkpt>
      <trkpt lat="43.295383" lon="-4.133450">
        <ele>845.0</ele>
        <time>2015-05-23T14:07:56Z</time>
      </trkpt>
      <trkpt lat="43.295383" lon="-4.133583">
        <ele>843.0</ele>
        <time>2015-05-23T14:07:57Z</time>
      </trkpt>
      <trkpt lat="43.295383" lon="-4.133700">
        <ele>842.0</ele>
        <time>2015-05-23T14:07:58Z</time>
      </trkpt>
      <trkpt lat="43.295383" lon="-4.133833">
        <ele>841.0</ele>
        <time>2015-05-23T14:07:59Z</time>
      </trkpt>
      <trkpt lat="43.295367" lon="-4.133967">
        <ele>839.0</ele>
        <time>2015-05-23T14:08:00Z</time>
      </trkpt>
      <trkpt lat="43.295350" lon="-4.134083">
        <ele>837.0</ele>
        <time>2015-05-23T14:08:01Z</time>
      </trkpt>
      <trkpt lat="43.295333" lon="-4.134200">
        <ele>839.0</ele>
        <time>2015-05-23T14:08:02Z</time>
      </trkpt>
      <trkpt lat="43.295333" lon="-4.134317">
        <ele>839.0</ele>
        <time>2015-05-23T14:08:03Z</time>
      </trkpt>
      <trkpt lat="43.295317" lon="-4.134433">
        <ele>838.0</ele>
        <time>2015-05-23T14:08:04Z</time>
      </trkpt>
      <trkpt lat="43.295283" lon="-4.134550">
        <ele>838.0</ele>
        <time>2015-05-23T14:08:05Z</time>
      </trkpt>
      <trkpt lat="43.295267" lon="-4.134650">
        <ele>837.0</ele>
        <time>2015-05-23T14:08:06Z</time>
      </trkpt>
      <trkpt lat="43.295267" lon="-4.134750">
        <ele>837.0</ele>
        <time>2015-05-23T14:08:07Z</time>
      </trkpt>
      <trkpt lat="43.295233" lon="-4.134850">
        <ele>837.0</ele>
        <time>2015-05-23T14:08:08Z</time>
      </trkpt>
      <trkpt lat="43.295217" lon="-4.134950">
        <ele>837.0</ele>
        <time>2015-05-23T14:08:09Z</time>
      </trkpt>
      <trkpt lat="43.295183" lon="-4.135050">
        <ele>837.0</ele>
        <time>2015-05-23T14:08:10Z</time>
      </trkpt>
      <trkpt lat="43.295150" lon="-4.135167">
        <ele>836.0</ele>
        <time>2015-05-23T14:08:11Z</time>
      </trkpt>
      <trkpt lat="43.295117" lon="-4.135283">
        <ele>836.0</ele>
        <time>2015-05-23T14:08:12Z</time>
      </trkpt>
      <trkpt lat="43.295050" lon="-4.135417">
        <ele>836.0</ele>
        <time>2015-05-23T14:08:13Z</time>
      </trkpt>
      <trkpt lat="43.294983" lon="-4.135533">
        <ele>836.0</ele>
        <time>2015-05-23T14:08:14Z</time>
      </trkpt>
      <trkpt lat="43.294933" lon="-4.135667">
        <ele>835.0</ele>
        <time>2015-05-23T14:08:15Z</time>
      </trkpt>
      <trkpt lat="43.294900" lon="-4.135800">
        <ele>834.0</ele>
        <time>2015-05-23T14:08:16Z</time>
      </trkpt>
      <trkpt lat="43.294867" lon="-4.135933">
        <ele>833.0</ele>
        <time>2015-05-23T14:08:17Z</time>
      </trkpt>
      <trkpt lat="43.294867" lon="-4.136067">
        <ele>832.0</ele>
        <time>2015-05-23T14:08:18Z</time>
      </trkpt>
      <trkpt lat="43.294850" lon="-4.136183">
        <ele>831.0</ele>
        <time>2015-05-23T14:08:19Z</time>
      </trkpt>
      <trkpt lat="43.294850" lon="-4.136300">
        <ele>830.0</ele>
        <time>2015-05-23T14:08:20Z</time>
      </trkpt>
      <trkpt lat="43.294850" lon="-4.136383">
        <ele>830.0</ele>
        <time>2015-05-23T14:08:21Z</time>
      </trkpt>
      <trkpt lat="43.294833" lon="-4.136483">
        <ele>830.0</ele>
        <time>2015-05-23T14:08:22Z</time>
      </trkpt>
      <trkpt lat="43.294817" lon="-4.136583">
        <ele>830.0</ele>
        <time>2015-05-23T14:08:23Z</time>
      </trkpt>
      <trkpt lat="43.294800" lon="-4.136683">
        <ele>830.0</ele>
        <time>2015-05-23T14:08:24Z</time>
      </trkpt>
      <trkpt lat="43.294817" lon="-4.136767">
        <ele>830.0</ele>
        <time>2015-05-23T14:08:25Z</time>
      </trkpt>
      <trkpt lat="43.294817" lon="-4.136850">
        <ele>830.0</ele>
        <time>2015-05-23T14:08:26Z</time>
      </trkpt>
      <trkpt lat="43.294833" lon="-4.136917">
        <ele>829.0</ele>
        <time>2015-05-23T14:08:27Z</time>
      </trkpt>
      <trkpt lat="43.294833" lon="-4.136967">
        <ele>829.0</ele>
        <time>2015-05-23T14:08:28Z</time>
      </trkpt>
      <trkpt lat="43.294850" lon="-4.137017">
        <ele>829.0</ele>
        <time>2015-05-23T14:08:29Z</time>
      </trkpt>
      <trkpt lat="43.294867" lon="-4.137067">
        <ele>829.0</ele>
        <time>2015-05-23T14:08:30Z</time>
      </trkpt>
      <trkpt lat="43.294883" lon="-4.137100">
        <ele>829.0</ele>
        <time>2015-05-23T14:08:31Z</time>
      </trkpt>
      <trkpt lat="43.294883" lon="-4.137133">
        <ele>829.0</ele>
        <time>2015-05-23T14:08:32Z</time>
      </trkpt>
      <trkpt lat="43.294900" lon="-4.137167">
        <ele>830.0</ele>
        <time>2015-05-23T14:08:33Z</time>
      </trkpt>
      <trkpt lat="43.294933" lon="-4.137183">
        <ele>830.0</ele>
        <time>2015-05-23T14:08:34Z</time>
      </trkpt>
      <trkpt lat="43.294967" lon="-4.137200">
        <ele>830.0</ele>
        <time>2015-05-23T14:08:35Z</time>
      </trkpt>
      <trkpt lat="43.294983" lon="-4.137217">
        <ele>831.0</ele>
        <time>2015-05-23T14:08:36Z</time>
      </trkpt>
      <trkpt lat="43.295000" lon="-4.137233">
        <ele>832.0</ele>
        <time>2015-05-23T14:08:37Z</time>
      </trkpt>
      <trkpt lat="43.295017" lon="-4.137233">
        <ele>832.0</ele>
        <time>2015-05-23T14:08:38Z</time>
      </trkpt>
      <trkpt lat="43.295033" lon="-4.137233">
        <ele>832.0</ele>
        <time>2015-05-23T14:08:39Z</time>
      </trkpt>
      <trkpt lat="43.295067" lon="-4.137217">
        <ele>832.0</ele>
        <time>2015-05-23T14:08:40Z</time>
      </trkpt>
      <trkpt lat="43.295083" lon="-4.137167">
        <ele>832.0</ele>
        <time>2015-05-23T14:08:41Z</time>
      </trkpt>
      <trkpt lat="43.295100" lon="-4.137117">
        <ele>833.0</ele>
        <time>2015-05-23T14:08:42Z</time>
      </trkpt>
      <trkpt lat="43.295117" lon="-4.137050">
        <ele>833.0</ele>
        <time>2015-05-23T14:08:43Z</time>
      </trkpt>
      <trkpt lat="43.295117" lon="-4.136983">
        <ele>833.0</ele>
        <time>2015-05-23T14:08:44Z</time>
      </trkpt>
      <trkpt lat="43.295117" lon="-4.136917">
        <ele>833.0</ele>
        <time>2015-05-23T14:08:45Z</time>
      </trkpt>
      <trkpt lat="43.295100" lon="-4.136850">
        <ele>834.0</ele>
        <time>2015-05-23T14:08:46Z</time>
      </trkpt>
      <trkpt lat="43.295100" lon="-4.136817">
        <ele>835.0</ele>
        <time>2015-05-23T14:08:47Z</time>
      </trkpt>
      <trkpt lat="43.295100" lon="-4.136767">
        <ele>837.0</ele>
        <time>2015-05-23T14:08:48Z</time>
      </trkpt>
      <trkpt lat="43.295117" lon="-4.136717">
        <ele>838.0</ele>
        <time>2015-05-23T14:08:49Z</time>
      </trkpt>
      <trkpt lat="43.295133" lon="-4.136683">
        <ele>840.0</ele>
        <time>2015-05-23T14:08:50Z</time>
      </trkpt>
      <trkpt lat="43.295150" lon="-4.136667">
        <ele>841.0</ele>
        <time>2015-05-23T14:08:51Z</time>
      </trkpt>
      <trkpt lat="43.295167" lon="-4.136667">
        <ele>841.0</ele>
        <time>2015-05-23T14:08:52Z</time>
      </trkpt>
      <trkpt lat="43.295183" lon="-4.136650">
        <ele>841.0</ele>
        <time>2015-05-23T14:08:53Z</time>
      </trkpt>
      <trkpt lat="43.295183" lon="-4.136650">
        <ele>841.0</ele>
        <time>2015-05-23T14:08:54Z</time>
      </trkpt>
      <trkpt lat="43.295200" lon="-4.136650">
        <ele>841.0</ele>
        <time>2015-05-23T14:08:55Z</time>
      </trkpt>
      <trkpt lat="43.295217" lon="-4.136650">
        <ele>842.0</ele>
        <time>2015-05-23T14:08:56Z</time>
      </trkpt>
      <trkpt lat="43.295217" lon="-4.136633">
        <ele>842.0</ele>
        <time>2015-05-23T14:08:57Z</time>
      </trkpt>
      <trkpt lat="43.295217" lon="-4.136617">
        <ele>842.0</ele>
        <time>2015-05-23T14:08:58Z</time>
      </trkpt>
      <trkpt lat="43.295233" lon="-4.136583">
        <ele>844.0</ele>
        <time>2015-05-23T14:08:59Z</time>
      </trkpt>
      <trkpt lat="43.295250" lon="-4.136533">
        <ele>845.0</ele>
        <time>2015-05-23T14:09:00Z</time>
      </trkpt>
      <trkpt lat="43.295283" lon="-4.136533">
        <ele>847.0</ele>
        <time>2015-05-23T14:09:01Z</time>
      </trkpt>
      <trkpt lat="43.295283" lon="-4.136550">
        <ele>848.0</ele>
        <time>2015-05-23T14:09:02Z</time>
      </trkpt>
      <trkpt lat="43.295300" lon="-4.136583">
        <ele>849.0</ele>
        <time>2015-05-23T14:09:03Z</time>
      </trkpt>
      <trkpt lat="43.295317" lon="-4.136617">
        <ele>851.0</ele>
        <time>2015-05-23T14:09:04Z</time>
      </trkpt>
      <trkpt lat="43.295300" lon="-4.136667">
        <ele>852.0</ele>
        <time>2015-05-23T14:09:05Z</time>
      </trkpt>
      <trkpt lat="43.295300" lon="-4.136733">
        <ele>854.0</ele>
        <time>2015-05-23T14:09:06Z</time>
      </trkpt>
      <trkpt lat="43.295283" lon="-4.136800">
        <ele>855.0</ele>
        <time>2015-05-23T14:09:07Z</time>
      </trkpt>
      <trkpt lat="43.295233" lon="-4.136883">
        <ele>857.0</ele>
        <time>2015-05-23T14:09:08Z</time>
      </trkpt>
      <trkpt lat="43.295183" lon="-4.136967">
        <ele>859.0</ele>
        <time>2015-05-23T14:09:09Z</time>
      </trkpt>
      <trkpt lat="43.295133" lon="-4.137033">
        <ele>861.0</ele>
        <time>2015-05-23T14:09:10Z</time>
      </trkpt>
      <trkpt lat="43.295050" lon="-4.137083">
        <ele>863.0</ele>
        <time>2015-05-23T14:09:11Z</time>
      </trkpt>
      <trkpt lat="43.294967" lon="-4.137133">
        <ele>864.0</ele>
        <time>2015-05-23T14:09:12Z</time>
      </trkpt>
      <trkpt lat="43.294883" lon="-4.137183">
        <ele>865.0</ele>
        <time>2015-05-23T14:09:13Z</time>
      </trkpt>
      <trkpt lat="43.294783" lon="-4.137233">
        <ele>866.0</ele>
        <time>2015-05-23T14:09:14Z</time>
      </trkpt>
      <trkpt lat="43.294667" lon="-4.137250">
        <ele>868.0</ele>
        <time>2015-05-23T14:09:15Z</time>
      </trkpt>
      <trkpt lat="43.294550" lon="-4.137233">
        <ele>870.0</ele>
        <time>2015-05-23T14:09:16Z</time>
      </trkpt>
      <trkpt lat="43.294433" lon="-4.137183">
        <ele>871.0</ele>
        <time>2015-05-23T14:09:17Z</time>
      </trkpt>
      <trkpt lat="43.294333" lon="-4.137133">
        <ele>872.0</ele>
        <time>2015-05-23T14:09:18Z</time>
      </trkpt>
      <trkpt lat="43.294233" lon="-4.137050">
        <ele>873.0</ele>
        <time>2015-05-23T14:09:19Z</time>
      </trkpt>
      <trkpt lat="43.294150" lon="-4.136967">
        <ele>874.0</ele>
        <time>2015-05-23T14:09:20Z</time>
      </trkpt>
      <trkpt lat="43.294050" lon="-4.136883">
        <ele>874.0</ele>
        <time>2015-05-23T14:09:21Z</time>
      </trkpt>
      <trkpt lat="43.293967" lon="-4.136783">
        <ele>875.0</ele>
        <time>2015-05-23T14:09:22Z</time>
      </trkpt>
      <trkpt lat="43.293883" lon="-4.136667">
        <ele>877.0</ele>
        <time>2015-05-23T14:09:23Z</time>
      </trkpt>
      <trkpt lat="43.293833" lon="-4.136550">
        <ele>880.0</ele>
        <time>2015-05-23T14:09:24Z</time>
      </trkpt>
      <trkpt lat="43.293783" lon="-4.136467">
        <ele>882.0</ele>
        <time>2015-05-23T14:09:25Z</time>
      </trkpt>
      <trkpt lat="43.293750" lon="-4.136383">
        <ele>884.0</ele>
        <time>2015-05-23T14:09:26Z</time>
      </trkpt>
      <trkpt lat="43.293750" lon="-4.136300">
        <ele>885.0</ele>
        <time>2015-05-23T14:09:27Z</time>
      </trkpt>
      <trkpt lat="43.293750" lon="-4.136233">
        <ele>887.0</ele>
        <time>2015-05-23T14:09:28Z</time>
      </trkpt>
      <trkpt lat="43.293767" lon="-4.136200">
        <ele>885.0</ele>
        <time>2015-05-23T14:09:29Z</time>
      </trkpt>
      <trkpt lat="43.293783" lon="-4.136150">
        <ele>886.0</ele>
        <time>2015-05-23T14:09:30Z</time>
      </trkpt>
      <trkpt lat="43.293783" lon="-4.136117">
        <ele>887.0</ele>
        <time>2015-05-23T14:09:31Z</time>
      </trkpt>
      <trkpt lat="43.293783" lon="-4.136067">
        <ele>889.0</ele>
        <time>2015-05-23T14:09:32Z</time>
      </trkpt>
      <trkpt lat="43.293783" lon="-4.136033">
        <ele>888.0</ele>
        <time>2015-05-23T14:09:33Z</time>
      </trkpt>
      <trkpt lat="43.293800" lon="-4.135983">
        <ele>890.0</ele>
        <time>2015-05-23T14:09:34Z</time>
      </trkpt>
      <trkpt lat="43.293817" lon="-4.135933">
        <ele>892.0</ele>
        <time>2015-05-23T14:09:35Z</time>
      </trkpt>
      <trkpt lat="43.293833" lon="-4.135900">
        <ele>895.0</ele>
        <time>2015-05-23T14:09:36Z</time>
      </trkpt>
      <trkpt lat="43.293833" lon="-4.135867">
        <ele>898.0</ele>
        <time>2015-05-23T14:09:37Z</time>
      </trkpt>
      <trkpt lat="43.293833" lon="-4.135833">
        <ele>898.0</ele>
        <time>2015-05-23T14:09:38Z</time>
      </trkpt>
      <trkpt lat="43.293833" lon="-4.135800">
        <ele>899.0</ele>
        <time>2015-05-23T14:09:39Z</time>
      </trkpt>
      <trkpt lat="43.293833" lon="-4.135750">
        <ele>899.0</ele>
        <time>2015-05-23T14:09:40Z</time>
      </trkpt>
      <trkpt lat="43.293850" lon="-4.135717">
        <ele>900.0</ele>
        <time>2015-05-23T14:09:41Z</time>
      </trkpt>
      <trkpt lat="43.293867" lon="-4.135683">
        <ele>900.0</ele>
        <time>2015-05-23T14:09:42Z</time>
      </trkpt>
      <trkpt lat="43.293883" lon="-4.135667">
        <ele>901.0</ele>
        <time>2015-05-23T14:09:43Z</time>
      </trkpt>
      <trkpt lat="43.293883" lon="-4.135633">
        <ele>901.0</ele>
        <time>2015-05-23T14:09:44Z</time>
      </trkpt>
      <trkpt lat="43.293900" lon="-4.135617">
        <ele>901.0</ele>
        <time>2015-05-23T14:09:45Z</time>
      </trkpt>
      <trkpt lat="43.293917" lon="-4.135617">
        <ele>902.0</ele>
        <time>2015-05-23T14:09:46Z</time>
      </trkpt>
      <trkpt lat="43.293950" lon="-4.135617">
        <ele>902.0</ele>
        <time>2015-05-23T14:09:47Z</time>
      </trkpt>
      <trkpt lat="43.293967" lon="-4.135600">
        <ele>903.0</ele>
        <time>2015-05-23T14:09:48Z</time>
      </trkpt>
      <trkpt lat="43.293983" lon="-4.135600">
        <ele>903.0</ele>
        <time>2015-05-23T14:09:49Z</time>
      </trkpt>
      <trkpt lat="43.294000" lon="-4.135583">
        <ele>903.0</ele>
        <time>2015-05-23T14:09:50Z</time>
      </trkpt>
      <trkpt lat="43.294017" lon="-4.135567">
        <ele>904.0</ele>
        <time>2015-05-23T14:09:51Z</time>
      </trkpt>
      <trkpt lat="43.294017" lon="-4.135567">
        <ele>904.0</ele>
        <time>2015-05-23T14:09:52Z</time>
      </trkpt>
      <trkpt lat="43.294033" lon="-4.135550">
        <ele>904.0</ele>
        <time>2015-05-23T14:09:53Z</time>
      </trkpt>
      <trkpt lat="43.294050" lon="-4.135533">
        <ele>905.0</ele>
        <time>2015-05-23T14:09:54Z</time>
      </trkpt>
      <trkpt lat="43.294083" lon="-4.135533">
        <ele>905.0</ele>
        <time>2015-05-23T14:09:55Z</time>
      </trkpt>
      <trkpt lat="43.294100" lon="-4.135550">
        <ele>905.0</ele>
        <time>2015-05-23T14:09:56Z</time>
      </trkpt>
      <trkpt lat="43.294117" lon="-4.135567">
        <ele>905.0</ele>
        <time>2015-05-23T14:09:57Z</time>
      </trkpt>
      <trkpt lat="43.294133" lon="-4.135567">
        <ele>906.0</ele>
        <time>2015-05-23T14:09:58Z</time>
      </trkpt>
      <trkpt lat="43.294167" lon="-4.135567">
        <ele>906.0</ele>
        <time>2015-05-23T14:09:59Z</time>
      </trkpt>
      <trkpt lat="43.294183" lon="-4.135567">
        <ele>906.0</ele>
        <time>2015-05-23T14:10:00Z</time>
      </trkpt>
      <trkpt lat="43.294217" lon="-4.135550">
        <ele>907.0</ele>
        <time>2015-05-23T14:10:01Z</time>
      </trkpt>
      <trkpt lat="43.294233" lon="-4.135550">
        <ele>907.0</ele>
        <time>2015-05-23T14:10:02Z</time>
      </trkpt>
      <trkpt lat="43.294250" lon="-4.135533">
        <ele>907.0</ele>
        <time>2015-05-23T14:10:03Z</time>
      </trkpt>
      <trkpt lat="43.294283" lon="-4.135533">
        <ele>907.0</ele>
        <time>2015-05-23T14:10:04Z</time>
      </trkpt>
      <trkpt lat="43.294317" lon="-4.135533">
        <ele>907.0</ele>
        <time>2015-05-23T14:10:05Z</time>
      </trkpt>
      <trkpt lat="43.294350" lon="-4.135533">
        <ele>908.0</ele>
        <time>2015-05-23T14:10:06Z</time>
      </trkpt>
      <trkpt lat="43.294367" lon="-4.135533">
        <ele>908.0</ele>
        <time>2015-05-23T14:10:07Z</time>
      </trkpt>
      <trkpt lat="43.294383" lon="-4.135533">
        <ele>908.0</ele>
        <time>2015-05-23T14:10:08Z</time>
      </trkpt>
      <trkpt lat="43.294417" lon="-4.135533">
        <ele>909.0</ele>
        <time>2015-05-23T14:10:09Z</time>
      </trkpt>
      <trkpt lat="43.294450" lon="-4.135533">
        <ele>909.0</ele>
        <time>2015-05-23T14:10:10Z</time>
      </trkpt>
      <trkpt lat="43.294483" lon="-4.135500">
        <ele>909.0</ele>
        <time>2015-05-23T14:10:11Z</time>
      </trkpt>
      <trkpt lat="43.294533" lon="-4.135483">
        <ele>910.0</ele>
        <time>2015-05-23T14:10:12Z</time>
      </trkpt>
      <trkpt lat="43.294567" lon="-4.135450">
        <ele>911.0</ele>
        <time>2015-05-23T14:10:13Z</time>
      </trkpt>
      <trkpt lat="43.294600" lon="-4.135417">
        <ele>912.0</ele>
        <time>2015-05-23T14:10:14Z</time>
      </trkpt>
      <trkpt lat="43.294617" lon="-4.135383">
        <ele>912.0</ele>
        <time>2015-05-23T14:10:15Z</time>
      </trkpt>
      <trkpt lat="43.294650" lon="-4.135350">
        <ele>912.0</ele>
        <time>2015-05-23T14:10:16Z</time>
      </trkpt>
      <trkpt lat="43.294683" lon="-4.135333">
        <ele>913.0</ele>
        <time>2015-05-23T14:10:17Z</time>
      </trkpt>
      <trkpt lat="43.294733" lon="-4.135317">
        <ele>914.0</ele>
        <time>2015-05-23T14:10:18Z</time>
      </trkpt>
      <trkpt lat="43.294767" lon="-4.135300">
        <ele>914.0</ele>
        <time>2015-05-23T14:10:19Z</time>
      </trkpt>
      <trkpt lat="43.294800" lon="-4.135300">
        <ele>915.0</ele>
        <time>2015-05-23T14:10:20Z</time>
      </trkpt>
      <trkpt lat="43.294833" lon="-4.135317">
        <ele>915.0</ele>
        <time>2015-05-23T14:10:21Z</time>
      </trkpt>
      <trkpt lat="43.294867" lon="-4.135333">
        <ele>915.0</ele>
        <time>2015-05-23T14:10:22Z</time>
      </trkpt>
      <trkpt lat="43.294900" lon="-4.135333">
        <ele>916.0</ele>
        <time>2015-05-23T14:10:23Z</time>
      </trkpt>
      <trkpt lat="43.294933" lon="-4.135317">
        <ele>916.0</ele>
        <time>2015-05-23T14:10:24Z</time>
      </trkpt>
      <trkpt lat="43.294967" lon="-4.135317">
        <ele>916.0</ele>
        <time>2015-05-23T14:10:25Z</time>
      </trkpt>
      <trkpt lat="43.295000" lon="-4.135283">
        <ele>917.0</ele>
        <time>2015-05-23T14:10:26Z</time>
      </trkpt>
      <trkpt lat="43.295033" lon="-4.135267">
        <ele>917.0</ele>
        <time>2015-05-23T14:10:27Z</time>
      </trkpt>
      <trkpt lat="43.295067" lon="-4.135283">
        <ele>918.0</ele>
        <time>2015-05-23T14:10:28Z</time>
      </trkpt>
      <trkpt lat="43.295100" lon="-4.135300">
        <ele>918.0</ele>
        <time>2015-05-23T14:10:29Z</time>
      </trkpt>
      <trkpt lat="43.295150" lon="-4.135317">
        <ele>918.0</ele>
        <time>2015-05-23T14:10:30Z</time>
      </trkpt>
      <trkpt lat="43.295183" lon="-4.135367">
        <ele>919.0</ele>
        <time>2015-05-23T14:10:31Z</time>
      </trkpt>
      <trkpt lat="43.295217" lon="-4.135417">
        <ele>919.0</ele>
        <time>2015-05-23T14:10:32Z</time>
      </trkpt>
      <trkpt lat="43.295200" lon="-4.135500">
        <ele>919.0</ele>
        <time>2015-05-23T14:10:33Z</time>
      </trkpt>
      <trkpt lat="43.295217" lon="-4.135583">
        <ele>920.0</ele>
        <time>2015-05-23T14:10:34Z</time>
      </trkpt>
      <trkpt lat="43.295217" lon="-4.135650">
        <ele>920.0</ele>
        <time>2015-05-23T14:10:35Z</time>
      </trkpt>
      <trkpt lat="43.295183" lon="-4.135733">
        <ele>920.0</ele>
        <time>2015-05-23T14:10:36Z</time>
      </trkpt>
      <trkpt lat="43.295117" lon="-4.135833">
        <ele>921.0</ele>
        <time>2015-05-23T14:10:37Z</time>
      </trkpt>
      <trkpt lat="43.295033" lon="-4.135933">
        <ele>921.0</ele>
        <time>2015-05-23T14:10:38Z</time>
      </trkpt>
      <trkpt lat="43.294967" lon="-4.136033">
        <ele>921.0</ele>
        <time>2015-05-23T14:10:39Z</time>
      </trkpt>
      <trkpt lat="43.294917" lon="-4.136117">
        <ele>922.0</ele>
        <time>2015-05-23T14:10:40Z</time>
      </trkpt>
      <trkpt lat="43.294867" lon="-4.136183">
        <ele>922.0</ele>
        <time>2015-05-23T14:10:41Z</time>
      </trkpt>
      <trkpt lat="43.294817" lon="-4.136250">
        <ele>923.0</ele>
        <time>2015-05-23T14:10:42Z</time>
      </trkpt>
      <trkpt lat="43.294767" lon="-4.136317">
        <ele>923.0</ele>
        <time>2015-05-23T14:10:43Z</time>
      </trkpt>
      <trkpt lat="43.294733" lon="-4.136383">
        <ele>924.0</ele>
        <time>2015-05-23T14:10:44Z</time>
      </trkpt>
      <trkpt lat="43.294717" lon="-4.136500">
        <ele>924.0</ele>
        <time>2015-05-23T14:10:45Z</time>
      </trkpt>
      <trkpt lat="43.294700" lon="-4.136600">
        <ele>924.0</ele>
        <time>2015-05-23T14:10:46Z</time>
      </trkpt>
      <trkpt lat="43.294700" lon="-4.136683">
        <ele>925.0</ele>
        <time>2015-05-23T14:10:47Z</time>
      </trkpt>
      <trkpt lat="43.294667" lon="-4.136750">
        <ele>925.0</ele>
        <time>2015-05-23T14:10:48Z</time>
      </trkpt>
      <trkpt lat="43.294667" lon="-4.136833">
        <ele>926.0</ele>
        <time>2015-05-23T14:10:49Z</time>
      </trkpt>
      <trkpt lat="43.294667" lon="-4.136917">
        <ele>926.0</ele>
        <time>2015-05-23T14:10:50Z</time>
      </trkpt>
      <trkpt lat="43.294667" lon="-4.137000">
        <ele>926.0</ele>
        <time>2015-05-23T14:10:51Z</time>
      </trkpt>
      <trkpt lat="43.294683" lon="-4.137067">
        <ele>927.0</ele>
        <time>2015-05-23T14:10:52Z</time>
      </trkpt>
      <trkpt lat="43.294683" lon="-4.137133">
        <ele>927.0</ele>
        <time>2015-05-23T14:10:53Z</time>
      </trkpt>
      <trkpt lat="43.294700" lon="-4.137217">
        <ele>928.0</ele>
        <time>2015-05-23T14:10:54Z</time>
      </trkpt>
      <trkpt lat="43.294733" lon="-4.137283">
        <ele>928.0</ele>
        <time>2015-05-23T14:10:55Z</time>
      </trkpt>
      <trkpt lat="43.294767" lon="-4.137317">
        <ele>929.0</ele>
        <time>2015-05-23T14:10:56Z</time>
      </trkpt>
      <trkpt lat="43.294800" lon="-4.137317">
        <ele>930.0</ele>
        <time>2015-05-23T14:10:57Z</time>
      </trkpt>
      <trkpt lat="43.294833" lon="-4.137333">
        <ele>931.0</ele>
        <time>2015-05-23T14:10:58Z</time>
      </trkpt>
      <trkpt lat="43.294867" lon="-4.137333">
        <ele>931.0</ele>
        <time>2015-05-23T14:10:59Z</time>
      </trkpt>
      <trkpt lat="43.294900" lon="-4.137333">
        <ele>932.0</ele>
        <time>2015-05-23T14:11:00Z</time>
      </trkpt>
      <trkpt lat="43.294933" lon="-4.137317">
        <ele>932.0</ele>
        <time>2015-05-23T14:11:01Z</time>
      </trkpt>
      <trkpt lat="43.294983" lon="-4.137283">
        <ele>933.0</ele>
        <time>2015-05-23T14:11:02Z</time>
      </trkpt>
      <trkpt lat="43.295017" lon="-4.137233">
        <ele>934.0</ele>
        <time>2015-05-23T14:11:03Z</time>
      </trkpt>
      <trkpt lat="43.295033" lon="-4.137200">
        <ele>934.0</ele>
        <time>2015-05-23T14:11:04Z</time>
      </trkpt>
      <trkpt lat="43.295067" lon="-4.137167">
        <ele>935.0</ele>
        <time>2015-05-23T14:11:05Z</time>
      </trkpt>
      <trkpt lat="43.295083" lon="-4.137100">
        <ele>935.0</ele>
        <time>2015-05-23T14:11:06Z</time>
      </trkpt>
      <trkpt lat="43.295100" lon="-4.137017">
        <ele>935.0</ele>
        <time>2015-05-23T14:11:07Z</time>
      </trkpt>
      <trkpt lat="43.295117" lon="-4.136917">
        <ele>936.0</ele>
        <time>2015-05-23T14:11:08Z</time>
      </trkpt>
      <trkpt lat="43.295133" lon="-4.136833">
        <ele>936.0</ele>
        <time>2015-05-23T14:11:09Z</time>
      </trkpt>
      <trkpt lat="43.295133" lon="-4.136733">
        <ele>937.0</ele>
        <time>2015-05-23T14:11:10Z</time>
      </trkpt>
      <trkpt lat="43.295117" lon="-4.136667">
        <ele>937.0</ele>
        <time>2015-05-23T14:11:11Z</time>
      </trkpt>
      <trkpt lat="43.295083" lon="-4.136583">
        <ele>938.0</ele>
        <time>2015-05-23T14:11:12Z</time>
      </trkpt>
      <trkpt lat="43.295067" lon="-4.136517">
        <ele>938.0</ele>
        <time>2015-05-23T14:11:13Z</time>
      </trkpt>
      <trkpt lat="43.295050" lon="-4.136417">
        <ele>938.0</ele>
        <time>2015-05-23T14:11:14Z</time>
      </trkpt>
      <trkpt lat="43.295017" lon="-4.136300">
        <ele>939.0</ele>
        <time>2015-05-23T14:11:15Z</time>
      </trkpt>
      <trkpt lat="43.295000" lon="-4.136217">
        <ele>939.0</ele>
        <time>2015-05-23T14:11:16Z</time>
      </trkpt>
      <trkpt lat="43.294967" lon="-4.136133">
        <ele>939.0</ele>
        <time>2015-05-23T14:11:17Z</time>
      </trkpt>
      <trkpt lat="43.294933" lon="-4.136033">
        <ele>939.0</ele>
        <time>2015-05-23T14:11:18Z</time>
      </trkpt>
      <trkpt lat="43.294900" lon="-4.135917">
        <ele>939.0</ele>
        <time>2015-05-23T14:11:19Z</time>
      </trkpt>
      <trkpt lat="43.294867" lon="-4.135817">
        <ele>940.0</ele>
        <time>2015-05-23T14:11:20Z</time>
      </trkpt>
      <trkpt lat="43.294833" lon="-4.135717">
        <ele>940.0</ele>
        <time>2015-05-23T14:11:21Z</time>
      </trkpt>
      <trkpt lat="43.294750" lon="-4.135600">
        <ele>940.0</ele>
        <time>2015-05-23T14:11:22Z</time>
      </trkpt>
      <trkpt lat="43.294667" lon="-4.135517">
        <ele>941.0</ele>
        <time>2015-05-23T14:11:23Z</time>
      </trkpt>
      <trkpt lat="43.294583" lon="-4.135417">
        <ele>941.0</ele>
        <time>2015-05-23T14:11:24Z</time>
      </trkpt>
      <trkpt lat="43.294500" lon="-4.135317">
        <ele>941.0</ele>
        <time>2015-05-23T14:11:25Z</time>
      </trkpt>
      <trkpt lat="43.294417" lon="-4.135217">
        <ele>941.0</ele>
        <time>2015-05-23T14:11:26Z</time>
      </trkpt>
      <trkpt lat="43.294317" lon="-4.135150">
        <ele>942.0</ele>
        <time>2015-05-23T14:11:27Z</time>
      </trkpt>
      <trkpt lat="43.294217" lon="-4.135100">
        <ele>942.0</ele>
        <time>2015-05-23T14:11:28Z</time>
      </trkpt>
      <trkpt lat="43.294100" lon="-4.135050">
        <ele>942.0</ele>
        <time>2015-05-23T14:11:29Z</time>
      </trkpt>
      <trkpt lat="43.294000" lon="-4.135017">
        <ele>943.0</ele>
        <time>2015-05-23T14:11:30Z</time>
      </trkpt>
      <trkpt lat="43.293883" lon="-4.135033">
        <ele>944.0</ele>
        <time>2015-05-23T14:11:31Z</time>
      </trkpt>
      <trkpt lat="43.293783" lon="-4.135067">
        <ele>945.0</ele>
        <time>2015-05-23T14:11:32Z</time>
      </trkpt>
      <trkpt lat="43.293717" lon="-4.135133">
        <ele>945.0</ele>
        <time>2015-05-23T14:11:33Z</time>
      </trkpt>
      <trkpt lat="43.293667" lon="-4.135217">
        <ele>947.0</ele>
        <time>2015-05-23T14:11:34Z</time>
      </trkpt>
      <trkpt lat="43.293633" lon="-4.135317">
        <ele>947.0</ele>
        <time>2015-05-23T14:11:35Z</time>
      </trkpt>
      <trkpt lat="43.293600" lon="-4.135417">
        <ele>948.0</ele>
        <time>2015-05-23T14:11:36Z</time>
      </trkpt>
      <trkpt lat="43.293583" lon="-4.135500">
        <ele>948.0</ele>
        <time>2015-05-23T14:11:37Z</time>
      </trkpt>
      <trkpt lat="43.293567" lon="-4.135583">
        <ele>948.0</ele>
        <time>2015-05-23T14:11:38Z</time>
      </trkpt>
      <trkpt lat="43.293550" lon="-4.135667">
        <ele>949.0</ele>
        <time>2015-05-23T14:11:39Z</time>
      </trkpt>
      <trkpt lat="43.293517" lon="-4.135733">
        <ele>949.0</ele>
        <time>2015-05-23T14:11:40Z</time>
      </trkpt>
      <trkpt lat="43.293500" lon="-4.135800">
        <ele>950.0</ele>
        <time>2015-05-23T14:11:41Z</time>
      </trkpt>
      <trkpt lat="43.293500" lon="-4.135867">
        <ele>950.0</ele>
        <time>2015-05-23T14:11:42Z</time>
      </trkpt>
      <trkpt lat="43.293483" lon="-4.135950">
        <ele>950.0</ele>
        <time>2015-05-23T14:11:43Z</time>
      </trkpt>
      <trkpt lat="43.293483" lon="-4.136050">
        <ele>951.0</ele>
        <time>2015-05-23T14:11:44Z</time>
      </trkpt>
      <trkpt lat="43.293467" lon="-4.136133">
        <ele>951.0</ele>
        <time>2015-05-23T14:11:45Z</time>
      </trkpt>
      <trkpt lat="43.293450" lon="-4.136200">
        <ele>951.0</ele>
        <time>2015-05-23T14:11:46Z</time>
      </trkpt>
      <trkpt lat="43.293450" lon="-4.136250">
        <ele>952.0</ele>
        <time>2015-05-23T14:11:47Z</time>
      </trkpt>
      <trkpt lat="43.293433" lon="-4.136317">
        <ele>952.0</ele>
        <time>2015-05-23T14:11:48Z</time>
      </trkpt>
      <trkpt lat="43.293433" lon="-4.136400">
        <ele>953.0</ele>
        <time>2015-05-23T14:11:49Z</time>
      </trkpt>
      <trkpt lat="43.293433" lon="-4.136500">
        <ele>953.0</ele>
        <time>2015-05-23T14:11:50Z</time>
      </trkpt>
      <trkpt lat="43.293433" lon="-4.136583">
        <ele>953.0</ele>
        <time>2015-05-23T14:11:51Z</time>
      </trkpt>
      <trkpt lat="43.293467" lon="-4.136650">
        <ele>955.0</ele>
        <time>2015-05-23T14:11:52Z</time>
      </trkpt>
      <trkpt lat="43.293483" lon="-4.136717">
        <ele>955.0</ele>
        <time>2015-05-23T14:11:53Z</time>
      </trkpt>
      <trkpt lat="43.293483" lon="-4.136767">
        <ele>956.0</ele>
        <time>2015-05-23T14:11:54Z</time>
      </trkpt>
      <trkpt lat="43.293517" lon="-4.136800">
        <ele>956.0</ele>
        <time>2015-05-23T14:11:55Z</time>
      </trkpt>
      <trkpt lat="43.293533" lon="-4.136833">
        <ele>957.0</ele>
        <time>2015-05-23T14:11:56Z</time>
      </trkpt>
      <trkpt lat="43.293550" lon="-4.136867">
        <ele>957.0</ele>
        <time>2015-05-23T14:11:57Z</time>
      </trkpt>
      <trkpt lat="43.293583" lon="-4.136900">
        <ele>958.0</ele>
        <time>2015-05-23T14:11:58Z</time>
      </trkpt>
      <trkpt lat="43.293617" lon="-4.136917">
        <ele>958.0</ele>
        <time>2015-05-23T14:11:59Z</time>
      </trkpt>
      <trkpt lat="43.293650" lon="-4.136933">
        <ele>959.0</ele>
        <time>2015-05-23T14:12:00Z</time>
      </trkpt>
      <trkpt lat="43.293667" lon="-4.136967">
        <ele>959.0</ele>
        <time>2015-05-23T14:12:01Z</time>
      </trkpt>
      <trkpt lat="43.293717" lon="-4.137000">
        <ele>959.0</ele>
        <time>2015-05-23T14:12:02Z</time>
      </trkpt>
      <trkpt lat="43.293750" lon="-4.137033">
        <ele>959.0</ele>
        <time>2015-05-23T14:12:03Z</time>
      </trkpt>
      <trkpt lat="43.293767" lon="-4.137100">
        <ele>960.0</ele>
        <time>2015-05-23T14:12:04Z</time>
      </trkpt>
      <trkpt lat="43.293800" lon="-4.137133">
        <ele>960.0</ele>
        <time>2015-05-23T14:12:05Z</time>
      </trkpt>
      <trkpt lat="43.293833" lon="-4.137167">
        <ele>960.0</ele>
        <time>2015-05-23T14:12:06Z</time>
      </trkpt>
      <trkpt lat="43.293883" lon="-4.137183">
        <ele>961.0</ele>
        <time>2015-05-23T14:12:07Z</time>
      </trkpt>
      <trkpt lat="43.293917" lon="-4.137217">
        <ele>961.0</ele>
        <time>2015-05-23T14:12:08Z</time>
      </trkpt>
      <trkpt lat="43.293950" lon="-4.137233">
        <ele>962.0</ele>
        <time>2015-05-23T14:12:09Z</time>
      </trkpt>
      <trkpt lat="43.293967" lon="-4.137267">
        <ele>962.0</ele>
        <time>2015-05-23T14:12:10Z</time>
      </trkpt>
      <trkpt lat="43.294000" lon="-4.137267">
        <ele>962.0</ele>
        <time>2015-05-23T14:12:11Z</time>
      </trkpt>
      <trkpt lat="43.294050" lon="-4.137267">
        <ele>963.0</ele>
        <time>2015-05-23T14:12:12Z</time>
      </trkpt>
      <trkpt lat="43.294083" lon="-4.137283">
        <ele>963.0</ele>
        <time>2015-05-23T14:12:13Z</time>
      </trkpt>
      <trkpt lat="43.294133" lon="-4.137333">
        <ele>964.0</ele>
        <time>2015-05-23T14:12:14Z</time>
      </trkpt>
      <trkpt lat="43.294167" lon="-4.137383">
        <ele>964.0</ele>
        <time>2015-05-23T14:12:15Z</time>
      </trkpt>
      <trkpt lat="43.294200" lon="-4.137450">
        <ele>965.0</ele>
        <time>2015-05-23T14:12:16Z</time>
      </trkpt>
      <trkpt lat="43.294217" lon="-4.137500">
        <ele>965.0</ele>
        <time>2015-05-23T14:12:17Z</time>
      </trkpt>
      <trkpt lat="43.294250" lon="-4.137567">
        <ele>966.0</ele>
        <time>2015-05-23T14:12:18Z</time>
      </trkpt>
      <trkpt lat="43.294283" lon="-4.137633">
        <ele>967.0</ele>
        <time>2015-05-23T14:12:19Z</time>
      </trkpt>
      <trkpt lat="43.294300" lon="-4.137700">
        <ele>967.0</ele>
        <time>2015-05-23T14:12:20Z</time>
      </trkpt>
      <trkpt lat="43.294333" lon="-4.137767">
        <ele>968.0</ele>
        <time>2015-05-23T14:12:21Z</time>
      </trkpt>
      <trkpt lat="43.294333" lon="-4.137850">
        <ele>969.0</ele>
        <time>2015-05-23T14:12:22Z</time>
      </trkpt>
      <trkpt lat="43.294333" lon="-4.137933">
        <ele>969.0</ele>
        <time>2015-05-23T14:12:23Z</time>
      </trkpt>
      <trkpt lat="43.294333" lon="-4.138033">
        <ele>969.0</ele>
        <time>2015-05-23T14:12:24Z</time>
      </trkpt>
      <trkpt lat="43.294333" lon="-4.138133">
        <ele>970.0</ele>
        <time>2015-05-23T14:12:25Z</time>
      </trkpt>
      <trkpt lat="43.294350" lon="-4.138233">
        <ele>970.0</ele>
        <time>2015-05-23T14:12:26Z</time>
      </trkpt>
      <trkpt lat="43.294350" lon="-4.138300">
        <ele>971.0</ele>
        <time>2015-05-23T14:12:27Z</time>
      </trkpt>
      <trkpt lat="43.294350" lon="-4.138383">
        <ele>971.0</ele>
        <time>2015-05-23T14:12:28Z</time>
      </trkpt>
      <trkpt lat="43.294367" lon="-4.138467">
        <ele>971.0</ele>
        <time>2015-05-23T14:12:29Z</time>
      </trkpt>
      <trkpt lat="43.294383" lon="-4.138550">
        <ele>972.0</ele>
        <time>2015-05-23T14:12:30Z</time>
      </trkpt>
      <trkpt lat="43.294400" lon="-4.138633">
        <ele>972.0</ele>
        <time>2015-05-23T14:12:31Z</time>
      </trkpt>
      <trkpt lat="43.294417" lon="-4.138700">
        <ele>972.0</ele>
        <time>2015-05-23T14:12:32Z</time>
      </trkpt>
      <trkpt lat="43.294450" lon="-4.138767">
        <ele>972.0</ele>
        <time>2015-05-23T14:12:33Z</time>
      </trkpt>
      <trkpt lat="43.294467" lon="-4.138817">
        <ele>973.0</ele>
        <time>2015-05-23T14:12:34Z</time>
      </trkpt>
      <trkpt lat="43.294483" lon="-4.138883">
        <ele>973.0</ele>
        <time>2015-05-23T14:12:35Z</time>
      </trkpt>
      <trkpt lat="43.294517" lon="-4.138967">
        <ele>973.0</ele>
        <time>2015-05-23T14:12:36Z</time>
      </trkpt>
      <trkpt lat="43.294533" lon="-4.139050">
        <ele>973.0</ele>
        <time>2015-05-23T14:12:37Z</time>
      </trkpt>
      <trkpt lat="43.294550" lon="-4.139133">
        <ele>973.0</ele>
        <time>2015-05-23T14:12:38Z</time>
      </trkpt>
      <trkpt lat="43.294583" lon="-4.139217">
        <ele>973.0</ele>
        <time>2015-05-23T14:12:39Z</time>
      </trkpt>
      <trkpt lat="43.294617" lon="-4.139300">
        <ele>973.0</ele>
        <time>2015-05-23T14:12:40Z</time>
      </trkpt>
      <trkpt lat="43.294650" lon="-4.139383">
        <ele>973.0</ele>
        <time>2015-05-23T14:12:41Z</time>
      </trkpt>
      <trkpt lat="43.294667" lon="-4.139450">
        <ele>973.0</ele>
        <time>2015-05-23T14:12:42Z</time>
      </trkpt>
      <trkpt lat="43.294700" lon="-4.139517">
        <ele>973.0</ele>
        <time>2015-05-23T14:12:43Z</time>
      </trkpt>
      <trkpt lat="43.294700" lon="-4.139583">
        <ele>973.0</ele>
        <time>2015-05-23T14:12:44Z</time>
      </trkpt>
      <trkpt lat="43.294700" lon="-4.139683">
        <ele>973.0</ele>
        <time>2015-05-23T14:12:45Z</time>
      </trkpt>
      <trkpt lat="43.294700" lon="-4.139800">
        <ele>973.0</ele>
        <time>2015-05-23T14:12:46Z</time>
      </trkpt>
      <trkpt lat="43.294717" lon="-4.139900">
        <ele>974.0</ele>
        <time>2015-05-23T14:12:47Z</time>
      </trkpt>
      <trkpt lat="43.294767" lon="-4.139967">
        <ele>974.0</ele>
        <time>2015-05-23T14:12:48Z</time>
      </trkpt>
      <trkpt lat="43.294817" lon="-4.139983">
        <ele>974.0</ele>
        <time>2015-05-23T14:12:49Z</time>
      </trkpt>
      <trkpt lat="43.294850" lon="-4.140017">
        <ele>975.0</ele>
        <time>2015-05-23T14:12:50Z</time>
      </trkpt>
      <trkpt lat="43.294867" lon="-4.140083">
        <ele>975.0</ele>
        <time>2015-05-23T14:12:51Z</time>
      </trkpt>
      <trkpt lat="43.294883" lon="-4.140150">
        <ele>975.0</ele>
        <time>2015-05-23T14:12:52Z</time>
      </trkpt>
      <trkpt lat="43.294900" lon="-4.140217">
        <ele>974.0</ele>
        <time>2015-05-23T14:12:53Z</time>
      </trkpt>
      <trkpt lat="43.294917" lon="-4.140300">
        <ele>975.0</ele>
        <time>2015-05-23T14:12:54Z</time>
      </trkpt>
      <trkpt lat="43.294950" lon="-4.140400">
        <ele>975.0</ele>
        <time>2015-05-23T14:12:55Z</time>
      </trkpt>
      <trkpt lat="43.294967" lon="-4.140483">
        <ele>975.0</ele>
        <time>2015-05-23T14:12:56Z</time>
      </trkpt>
      <trkpt lat="43.294983" lon="-4.140583">
        <ele>975.0</ele>
        <time>2015-05-23T14:12:57Z</time>
      </trkpt>
      <trkpt lat="43.294983" lon="-4.140683">
        <ele>975.0</ele>
        <time>2015-05-23T14:12:58Z</time>
      </trkpt>
      <trkpt lat="43.294983" lon="-4.140783">
        <ele>975.0</ele>
        <time>2015-05-23T14:12:59Z</time>
      </trkpt>
      <trkpt lat="43.294967" lon="-4.140883">
        <ele>975.0</ele>
        <time>2015-05-23T14:13:00Z</time>
      </trkpt>
      <trkpt lat="43.294933" lon="-4.140967">
        <ele>975.0</ele>
        <time>2015-05-23T14:13:01Z</time>
      </trkpt>
      <trkpt lat="43.294900" lon="-4.141067">
        <ele>974.0</ele>
        <time>2015-05-23T14:13:02Z</time>
      </trkpt>
      <trkpt lat="43.294867" lon="-4.141150">
        <ele>975.0</ele>
        <time>2015-05-23T14:13:03Z</time>
      </trkpt>
      <trkpt lat="43.294850" lon="-4.141267">
        <ele>975.0</ele>
        <time>2015-05-23T14:13:04Z</time>
      </trkpt>
      <trkpt lat="43.294800" lon="-4.141383">
        <ele>975.0</ele>
        <time>2015-05-23T14:13:05Z</time>
      </trkpt>
      <trkpt lat="43.294733" lon="-4.141483">
        <ele>975.0</ele>
        <time>2015-05-23T14:13:06Z</time>
      </trkpt>
      <trkpt lat="43.294667" lon="-4.141583">
        <ele>975.0</ele>
        <time>2015-05-23T14:13:07Z</time>
      </trkpt>
      <trkpt lat="43.294583" lon="-4.141667">
        <ele>975.0</ele>
        <time>2015-05-23T14:13:08Z</time>
      </trkpt>
      <trkpt lat="43.294517" lon="-4.141767">
        <ele>975.0</ele>
        <time>2015-05-23T14:13:09Z</time>
      </trkpt>
      <trkpt lat="43.294450" lon="-4.141883">
        <ele>975.0</ele>
        <time>2015-05-23T14:13:10Z</time>
      </trkpt>
      <trkpt lat="43.294383" lon="-4.141983">
        <ele>975.0</ele>
        <time>2015-05-23T14:13:11Z</time>
      </trkpt>
      <trkpt lat="43.294317" lon="-4.142083">
        <ele>975.0</ele>
        <time>2015-05-23T14:13:12Z</time>
      </trkpt>
      <trkpt lat="43.294317" lon="-4.142200">
        <ele>973.0</ele>
        <time>2015-05-23T14:13:13Z</time>
      </trkpt>
      <trkpt lat="43.294333" lon="-4.142283">
        <ele>976.0</ele>
        <time>2015-05-23T14:13:14Z</time>
      </trkpt>
      <trkpt lat="43.294383" lon="-4.142333">
        <ele>975.0</ele>
        <time>2015-05-23T14:13:15Z</time>
      </trkpt>
      <trkpt lat="43.294400" lon="-4.142383">
        <ele>975.0</ele>
        <time>2015-05-23T14:13:16Z</time>
      </trkpt>
      <trkpt lat="43.294417" lon="-4.142450">
        <ele>975.0</ele>
        <time>2015-05-23T14:13:17Z</time>
      </trkpt>
      <trkpt lat="43.294417" lon="-4.142533">
        <ele>974.0</ele>
        <time>2015-05-23T14:13:18Z</time>
      </trkpt>
      <trkpt lat="43.294417" lon="-4.142600">
        <ele>972.0</ele>
        <time>2015-05-23T14:13:19Z</time>
      </trkpt>
      <trkpt lat="43.294417" lon="-4.142667">
        <ele>970.0</ele>
        <time>2015-05-23T14:13:20Z</time>
      </trkpt>
      <trkpt lat="43.294433" lon="-4.142750">
        <ele>967.0</ele>
        <time>2015-05-23T14:13:21Z</time>
      </trkpt>
      <trkpt lat="43.294450" lon="-4.142850">
        <ele>965.0</ele>
        <time>2015-05-23T14:13:22Z</time>
      </trkpt>
      <trkpt lat="43.294467" lon="-4.142933">
        <ele>964.0</ele>
        <time>2015-05-23T14:13:23Z</time>
      </trkpt>
      <trkpt lat="43.294483" lon="-4.143000">
        <ele>966.0</ele>
        <time>2015-05-23T14:13:24Z</time>
      </trkpt>
      <trkpt lat="43.294483" lon="-4.143083">
        <ele>966.0</ele>
        <time>2015-05-23T14:13:25Z</time>
      </trkpt>
      <trkpt lat="43.294467" lon="-4.143150">
        <ele>966.0</ele>
        <time>2015-05-23T14:13:26Z</time>
      </trkpt>
      <trkpt lat="43.294450" lon="-4.143250">
        <ele>966.0</ele>
        <time>2015-05-23T14:13:27Z</time>
      </trkpt>
      <trkpt lat="43.294450" lon="-4.143350">
        <ele>965.0</ele>
        <time>2015-05-23T14:13:28Z</time>
      </trkpt>
      <trkpt lat="43.294433" lon="-4.143433">
        <ele>965.0</ele>
        <time>2015-05-23T14:13:29Z</time>
      </trkpt>
      <trkpt lat="43.294417" lon="-4.143550">
        <ele>965.0</ele>
        <time>2015-05-23T14:13:30Z</time>
      </trkpt>
      <trkpt lat="43.294383" lon="-4.143650">
        <ele>964.0</ele>
        <time>2015-05-23T14:13:31Z</time>
      </trkpt>
      <trkpt lat="43.294367" lon="-4.143767">
        <ele>964.0</ele>
        <time>2015-05-23T14:13:32Z</time>
      </trkpt>
      <trkpt lat="43.294350" lon="-4.143883">
        <ele>964.0</ele>
        <time>2015-05-23T14:13:33Z</time>
      </trkpt>
      <trkpt lat="43.294333" lon="-4.144000">
        <ele>963.0</ele>
        <time>2015-05-23T14:13:34Z</time>
      </trkpt>
      <trkpt lat="43.294317" lon="-4.144117">
        <ele>963.0</ele>
        <time>2015-05-23T14:13:35Z</time>
      </trkpt>
      <trkpt lat="43.294283" lon="-4.144217">
        <ele>963.0</ele>
        <time>2015-05-23T14:13:36Z</time>
      </trkpt>
      <trkpt lat="43.294267" lon="-4.144317">
        <ele>963.0</ele>
        <time>2015-05-23T14:13:37Z</time>
      </trkpt>
      <trkpt lat="43.294250" lon="-4.144433">
        <ele>962.0</ele>
        <time>2015-05-23T14:13:38Z</time>
      </trkpt>
      <trkpt lat="43.294250" lon="-4.144550">
        <ele>962.0</ele>
        <time>2015-05-23T14:13:39Z</time>
      </trkpt>
      <trkpt lat="43.294200" lon="-4.144683">
        <ele>962.0</ele>
        <time>2015-05-23T14:13:40Z</time>
      </trkpt>
      <trkpt lat="43.294133" lon="-4.144800">
        <ele>961.0</ele>
        <time>2015-05-23T14:13:41Z</time>
      </trkpt>
      <trkpt lat="43.294083" lon="-4.144900">
        <ele>961.0</ele>
        <time>2015-05-23T14:13:42Z</time>
      </trkpt>
      <trkpt lat="43.294050" lon="-4.144983">
        <ele>960.0</ele>
        <time>2015-05-23T14:13:43Z</time>
      </trkpt>
      <trkpt lat="43.294017" lon="-4.145100">
        <ele>960.0</ele>
        <time>2015-05-23T14:13:44Z</time>
      </trkpt>
      <trkpt lat="43.294000" lon="-4.145217">
        <ele>960.0</ele>
        <time>2015-05-23T14:13:45Z</time>
      </trkpt>
      <trkpt lat="43.293983" lon="-4.145333">
        <ele>960.0</ele>
        <time>2015-05-23T14:13:46Z</time>
      </trkpt>
      <trkpt lat="43.293950" lon="-4.145450">
        <ele>960.0</ele>
        <time>2015-05-23T14:13:47Z</time>
      </trkpt>
      <trkpt lat="43.293917" lon="-4.145583">
        <ele>959.0</ele>
        <time>2015-05-23T14:13:48Z</time>
      </trkpt>
      <trkpt lat="43.293900" lon="-4.145683">
        <ele>958.0</ele>
        <time>2015-05-23T14:13:49Z</time>
      </trkpt>
      <trkpt lat="43.293900" lon="-4.145800">
        <ele>958.0</ele>
        <time>2015-05-23T14:13:50Z</time>
      </trkpt>
      <trkpt lat="43.293900" lon="-4.145917">
        <ele>957.0</ele>
        <time>2015-05-23T14:13:51Z</time>
      </trkpt>
      <trkpt lat="43.293900" lon="-4.146050">
        <ele>957.0</ele>
        <time>2015-05-23T14:13:52Z</time>
      </trkpt>
      <trkpt lat="43.293900" lon="-4.146167">
        <ele>957.0</ele>
        <time>2015-05-23T14:13:53Z</time>
      </trkpt>
      <trkpt lat="43.293900" lon="-4.146300">
        <ele>956.0</ele>
        <time>2015-05-23T14:13:54Z</time>
      </trkpt>
      <trkpt lat="43.293900" lon="-4.146433">
        <ele>956.0</ele>
        <time>2015-05-23T14:13:55Z</time>
      </trkpt>
      <trkpt lat="43.293917" lon="-4.146550">
        <ele>955.0</ele>
        <time>2015-05-23T14:13:56Z</time>
      </trkpt>
      <trkpt lat="43.293917" lon="-4.146683">
        <ele>954.0</ele>
        <time>2015-05-23T14:13:57Z</time>
      </trkpt>
      <trkpt lat="43.293917" lon="-4.146817">
        <ele>953.0</ele>
        <time>2015-05-23T14:13:58Z</time>
      </trkpt>
      <trkpt lat="43.293900" lon="-4.146950">
        <ele>952.0</ele>
        <time>2015-05-23T14:13:59Z</time>
      </trkpt>
      <trkpt lat="43.293883" lon="-4.147083">
        <ele>950.0</ele>
        <time>2015-05-23T14:14:00Z</time>
      </trkpt>
      <trkpt lat="43.293850" lon="-4.147200">
        <ele>947.0</ele>
        <time>2015-05-23T14:14:01Z</time>
      </trkpt>
      <trkpt lat="43.293850" lon="-4.147317">
        <ele>946.0</ele>
        <time>2015-05-23T14:14:02Z</time>
      </trkpt>
      <trkpt lat="43.293833" lon="-4.147417">
        <ele>946.0</ele>
        <time>2015-05-23T14:14:03Z</time>
      </trkpt>
      <trkpt lat="43.293817" lon="-4.147517">
        <ele>946.0</ele>
        <time>2015-05-23T14:14:04Z</time>
      </trkpt>
      <trkpt lat="43.293817" lon="-4.147633">
        <ele>945.0</ele>
        <time>2015-05-23T14:14:05Z</time>
      </trkpt>
      <trkpt lat="43.293800" lon="-4.147750">
        <ele>944.0</ele>
        <time>2015-05-23T14:14:06Z</time>
      </trkpt>
      <trkpt lat="43.293800" lon="-4.147867">
        <ele>943.0</ele>
        <time>2015-05-23T14:14:07Z</time>
      </trkpt>
      <trkpt lat="43.293817" lon="-4.147983">
        <ele>943.0</ele>
        <time>2015-05-23T14:14:08Z</time>
      </trkpt>
      <trkpt lat="43.293833" lon="-4.148083">
        <ele>942.0</ele>
        <time>2015-05-23T14:14:09Z</time>
      </trkpt>
      <trkpt lat="43.293817" lon="-4.148167">
        <ele>941.0</ele>
        <time>2015-05-23T14:14:10Z</time>
      </trkpt>
      <trkpt lat="43.293800" lon="-4.148250">
        <ele>939.0</ele>
        <time>2015-05-23T14:14:11Z</time>
      </trkpt>
      <trkpt lat="43.293783" lon="-4.148317">
        <ele>938.0</ele>
        <time>2015-05-23T14:14:12Z</time>
      </trkpt>
      <trkpt lat="43.293783" lon="-4.148417">
        <ele>936.0</ele>
        <time>2015-05-23T14:14:13Z</time>
      </trkpt>
      <trkpt lat="43.293800" lon="-4.148533">
        <ele>935.0</ele>
        <time>2015-05-23T14:14:14Z</time>
      </trkpt>
      <trkpt lat="43.293817" lon="-4.148633">
        <ele>935.0</ele>
        <time>2015-05-23T14:14:15Z</time>
      </trkpt>
      <trkpt lat="43.293800" lon="-4.148717">
        <ele>934.0</ele>
        <time>2015-05-23T14:14:16Z</time>
      </trkpt>
      <trkpt lat="43.293800" lon="-4.148800">
        <ele>933.0</ele>
        <time>2015-05-23T14:14:17Z</time>
      </trkpt>
      <trkpt lat="43.293800" lon="-4.148883">
        <ele>933.0</ele>
        <time>2015-05-23T14:14:18Z</time>
      </trkpt>
      <trkpt lat="43.293817" lon="-4.148967">
        <ele>932.0</ele>
        <time>2015-05-23T14:14:19Z</time>
      </trkpt>
      <trkpt lat="43.293833" lon="-4.149067">
        <ele>932.0</ele>
        <time>2015-05-23T14:14:20Z</time>
      </trkpt>
      <trkpt lat="43.293833" lon="-4.149167">
        <ele>932.0</ele>
        <time>2015-05-23T14:14:21Z</time>
      </trkpt>
      <trkpt lat="43.293833" lon="-4.149267">
        <ele>932.0</ele>
        <time>2015-05-23T14:14:22Z</time>
      </trkpt>
      <trkpt lat="43.293817" lon="-4.149350">
        <ele>932.0</ele>
        <time>2015-05-23T14:14:23Z</time>
      </trkpt>
      <trkpt lat="43.293817" lon="-4.149450">
        <ele>931.0</ele>
        <time>2015-05-23T14:14:24Z</time>
      </trkpt>
      <trkpt lat="43.293817" lon="-4.149550">
        <ele>931.0</ele>
        <time>2015-05-23T14:14:25Z</time>
      </trkpt>
      <trkpt lat="43.293833" lon="-4.149633">
        <ele>931.0</ele>
        <time>2015-05-23T14:14:26Z</time>
      </trkpt>
      <trkpt lat="43.293850" lon="-4.149733">
        <ele>931.0</ele>
        <time>2015-05-23T14:14:27Z</time>
      </trkpt>
      <trkpt lat="43.293850" lon="-4.149817">
        <ele>931.0</ele>
        <time>2015-05-23T14:14:28Z</time>
      </trkpt>
      <trkpt lat="43.293850" lon="-4.149900">
        <ele>931.0</ele>
        <time>2015-05-23T14:14:29Z</time>
      </trkpt>
      <trkpt lat="43.293867" lon="-4.149967">
        <ele>931.0</ele>
        <time>2015-05-23T14:14:30Z</time>
      </trkpt>
      <trkpt lat="43.293900" lon="-4.150050">
        <ele>931.0</ele>
        <time>2015-05-23T14:14:31Z</time>
      </trkpt>
      <trkpt lat="43.293917" lon="-4.150117">
        <ele>931.0</ele>
        <time>2015-05-23T14:14:32Z</time>
      </trkpt>
      <trkpt lat="43.293950" lon="-4.150167">
        <ele>931.0</ele>
        <time>2015-05-23T14:14:33Z</time>
      </trkpt>
      <trkpt lat="43.293967" lon="-4.150217">
        <ele>931.0</ele>
        <time>2015-05-23T14:14:34Z</time>
      </trkpt>
      <trkpt lat="43.293983" lon="-4.150267">
        <ele>930.0</ele>
        <time>2015-05-23T14:14:35Z</time>
      </trkpt>
      <trkpt lat="43.294000" lon="-4.150300">
        <ele>929.0</ele>
        <time>2015-05-23T14:14:36Z</time>
      </trkpt>
      <trkpt lat="43.294033" lon="-4.150350">
        <ele>927.0</ele>
        <time>2015-05-23T14:14:37Z</time>
      </trkpt>
      <trkpt lat="43.294067" lon="-4.150400">
        <ele>926.0</ele>
        <time>2015-05-23T14:14:38Z</time>
      </trkpt>
      <trkpt lat="43.294100" lon="-4.150433">
        <ele>925.0</ele>
        <time>2015-05-23T14:14:39Z</time>
      </trkpt>
      <trkpt lat="43.294150" lon="-4.150483">
        <ele>924.0</ele>
        <time>2015-05-23T14:14:40Z</time>
      </trkpt>
      <trkpt lat="43.294200" lon="-4.150533">
        <ele>924.0</ele>
        <time>2015-05-23T14:14:41Z</time>
      </trkpt>
      <trkpt lat="43.294233" lon="-4.150583">
        <ele>923.0</ele>
        <time>2015-05-23T14:14:42Z</time>
      </trkpt>
      <trkpt lat="43.294267" lon="-4.150633">
        <ele>925.0</ele>
        <time>2015-05-23T14:14:43Z</time>
      </trkpt>
      <trkpt lat="43.294300" lon="-4.150700">
        <ele>925.0</ele>
        <time>2015-05-23T14:14:44Z</time>
      </trkpt>
      <trkpt lat="43.294350" lon="-4.150750">
        <ele>925.0</ele>
        <time>2015-05-23T14:14:45Z</time>
      </trkpt>
      <trkpt lat="43.294383" lon="-4.150817">
        <ele>925.0</ele>
        <time>2015-05-23T14:14:46Z</time>
      </trkpt>
      <trkpt lat="43.294400" lon="-4.150867">
        <ele>925.0</ele>
        <time>2015-05-23T14:14:47Z</time>
      </trkpt>
      <trkpt lat="43.294417" lon="-4.150917">
        <ele>925.0</ele>
        <time>2015-05-23T14:14:48Z</time>
      </trkpt>
      <trkpt lat="43.294433" lon="-4.150967">
        <ele>925.0</ele>
        <time>2015-05-23T14:14:49Z</time>
      </trkpt>
      <trkpt lat="43.294450" lon="-4.151017">
        <ele>925.0</ele>
        <time>2015-05-23T14:14:50Z</time>
      </trkpt>
      <trkpt lat="43.294483" lon="-4.151067">
        <ele>925.0</ele>
        <time>2015-05-23T14:14:51Z</time>
      </trkpt>
      <trkpt lat="43.294533" lon="-4.151117">
        <ele>925.0</ele>
        <time>2015-05-23T14:14:52Z</time>
      </trkpt>
      <trkpt lat="43.294567" lon="-4.151150">
        <ele>925.0</ele>
        <time>2015-05-23T14:14:53Z</time>
      </trkpt>
      <trkpt lat="43.294600" lon="-4.151150">
        <ele>925.0</ele>
        <time>2015-05-23T14:14:54Z</time>
      </trkpt>
      <trkpt lat="43.294633" lon="-4.151150">
        <ele>925.0</ele>
        <time>2015-05-23T14:14:55Z</time>
      </trkpt>
      <trkpt lat="43.294667" lon="-4.151150">
        <ele>923.0</ele>
        <time>2015-05-23T14:14:56Z</time>
      </trkpt>
      <trkpt lat="43.294717" lon="-4.151167">
        <ele>921.0</ele>
        <time>2015-05-23T14:14:57Z</time>
      </trkpt>
      <trkpt lat="43.294767" lon="-4.151217">
        <ele>918.0</ele>
        <time>2015-05-23T14:14:58Z</time>
      </trkpt>
      <trkpt lat="43.294817" lon="-4.151250">
        <ele>916.0</ele>
        <time>2015-05-23T14:14:59Z</time>
      </trkpt>
      <trkpt lat="43.294867" lon="-4.151283">
        <ele>918.0</ele>
        <time>2015-05-23T14:15:00Z</time>
      </trkpt>
      <trkpt lat="43.294900" lon="-4.151333">
        <ele>918.0</ele>
        <time>2015-05-23T14:15:01Z</time>
      </trkpt>
      <trkpt lat="43.294933" lon="-4.151383">
        <ele>918.0</ele>
        <time>2015-05-23T14:15:02Z</time>
      </trkpt>
      <trkpt lat="43.294967" lon="-4.151433">
        <ele>918.0</ele>
        <time>2015-05-23T14:15:03Z</time>
      </trkpt>
      <trkpt lat="43.295000" lon="-4.151500">
        <ele>918.0</ele>
        <time>2015-05-23T14:15:04Z</time>
      </trkpt>
      <trkpt lat="43.295017" lon="-4.151600">
        <ele>917.0</ele>
        <time>2015-05-23T14:15:05Z</time>
      </trkpt>
      <trkpt lat="43.295033" lon="-4.151700">
        <ele>917.0</ele>
        <time>2015-05-23T14:15:06Z</time>
      </trkpt>
      <trkpt lat="43.295050" lon="-4.151783">
        <ele>917.0</ele>
        <time>2015-05-23T14:15:07Z</time>
      </trkpt>
      <trkpt lat="43.295067" lon="-4.151883">
        <ele>916.0</ele>
        <time>2015-05-23T14:15:08Z</time>
      </trkpt>
      <trkpt lat="43.295083" lon="-4.151950">
        <ele>916.0</ele>
        <time>2015-05-23T14:15:09Z</time>
      </trkpt>
      <trkpt lat="43.295100" lon="-4.152033">
        <ele>916.0</ele>
        <time>2015-05-23T14:15:10Z</time>
      </trkpt>
      <trkpt lat="43.295133" lon="-4.152167">
        <ele>915.0</ele>
        <time>2015-05-23T14:15:11Z</time>
      </trkpt>
      <trkpt lat="43.295167" lon="-4.152267">
        <ele>915.0</ele>
        <time>2015-05-23T14:15:12Z</time>
      </trkpt>
      <trkpt lat="43.295167" lon="-4.152383">
        <ele>914.0</ele>
        <time>2015-05-23T14:15:13Z</time>
      </trkpt>
      <trkpt lat="43.295183" lon="-4.152467">
        <ele>914.0</ele>
        <time>2015-05-23T14:15:14Z</time>
      </trkpt>
      <trkpt lat="43.295183" lon="-4.152550">
        <ele>913.0</ele>
        <time>2015-05-23T14:15:15Z</time>
      </trkpt>
      <trkpt lat="43.295200" lon="-4.152617">
        <ele>913.0</ele>
        <time>2015-05-23T14:15:16Z</time>
      </trkpt>
      <trkpt lat="43.295217" lon="-4.152667">
        <ele>913.0</ele>
        <time>2015-05-23T14:15:17Z</time>
      </trkpt>
      <trkpt lat="43.295217" lon="-4.152717">
        <ele>912.0</ele>
        <time>2015-05-23T14:15:18Z</time>
      </trkpt>
      <trkpt lat="43.295233" lon="-4.152767">
        <ele>912.0</ele>
        <time>2015-05-23T14:15:19Z</time>
      </trkpt>
      <trkpt lat="43.295233" lon="-4.152833">
        <ele>912.0</ele>
        <time>2015-05-23T14:15:20Z</time>
      </trkpt>
      <trkpt lat="43.295233" lon="-4.152917">
        <ele>911.0</ele>
        <time>2015-05-23T14:15:21Z</time>
      </trkpt>
      <trkpt lat="43.295233" lon="-4.153017">
        <ele>911.0</ele>
        <time>2015-05-23T14:15:22Z</time>
      </trkpt>
      <trkpt lat="43.295200" lon="-4.153100">
        <ele>911.0</ele>
        <time>2015-05-23T14:15:23Z</time>
      </trkpt>
      <trkpt lat="43.295167" lon="-4.153183">
        <ele>911.0</ele>
        <time>2015-05-23T14:15:24Z</time>
      </trkpt>
      <trkpt lat="43.295133" lon="-4.153267">
        <ele>910.0</ele>
        <time>2015-05-23T14:15:25Z</time>
      </trkpt>
      <trkpt lat="43.295100" lon="-4.153367">
        <ele>910.0</ele>
        <time>2015-05-23T14:15:26Z</time>
      </trkpt>
      <trkpt lat="43.295050" lon="-4.153467">
        <ele>910.0</ele>
        <time>2015-05-23T14:15:27Z</time>
      </trkpt>
      <trkpt lat="43.295017" lon="-4.153567">
        <ele>910.0</ele>
        <time>2015-05-23T14:15:28Z</time>
      </trkpt>
      <trkpt lat="43.294967" lon="-4.153683">
        <ele>910.0</ele>
        <time>2015-05-23T14:15:29Z</time>
      </trkpt>
      <trkpt lat="43.294933" lon="-4.153783">
        <ele>910.0</ele>
        <time>2015-05-23T14:15:30Z</time>
      </trkpt>
      <trkpt lat="43.294933" lon="-4.153900">
        <ele>909.0</ele>
        <time>2015-05-23T14:15:31Z</time>
      </trkpt>
      <trkpt lat="43.294950" lon="-4.154000">
        <ele>909.0</ele>
        <time>2015-05-23T14:15:32Z</time>
      </trkpt>
      <trkpt lat="43.294967" lon="-4.154083">
        <ele>909.0</ele>
        <time>2015-05-23T14:15:33Z</time>
      </trkpt>
      <trkpt lat="43.295000" lon="-4.154183">
        <ele>908.0</ele>
        <time>2015-05-23T14:15:34Z</time>
      </trkpt>
      <trkpt lat="43.295017" lon="-4.154267">
        <ele>908.0</ele>
        <time>2015-05-23T14:15:35Z</time>
      </trkpt>
      <trkpt lat="43.295017" lon="-4.154367">
        <ele>908.0</ele>
        <time>2015-05-23T14:15:36Z</time>
      </trkpt>
      <trkpt lat="43.295033" lon="-4.154450">
        <ele>908.0</ele>
        <time>2015-05-23T14:15:37Z</time>
      </trkpt>
      <trkpt lat="43.295050" lon="-4.154500">
        <ele>907.0</ele>
        <time>2015-05-23T14:15:38Z</time>
      </trkpt>
      <trkpt lat="43.295083" lon="-4.154567">
        <ele>907.0</ele>
        <time>2015-05-23T14:15:39Z</time>
      </trkpt>
      <trkpt lat="43.295117" lon="-4.154650">
        <ele>907.0</ele>
        <time>2015-05-23T14:15:40Z</time>
      </trkpt>
      <trkpt lat="43.295150" lon="-4.154733">
        <ele>906.0</ele>
        <time>2015-05-23T14:15:41Z</time>
      </trkpt>
      <trkpt lat="43.295200" lon="-4.154817">
        <ele>906.0</ele>
        <time>2015-05-23T14:15:42Z</time>
      </trkpt>
      <trkpt lat="43.295233" lon="-4.154900">
        <ele>906.0</ele>
        <time>2015-05-23T14:15:43Z</time>
      </trkpt>
      <trkpt lat="43.295267" lon="-4.154967">
        <ele>905.0</ele>
        <time>2015-05-23T14:15:44Z</time>
      </trkpt>
      <trkpt lat="43.295300" lon="-4.155017">
        <ele>905.0</ele>
        <time>2015-05-23T14:15:45Z</time>
      </trkpt>
      <trkpt lat="43.295333" lon="-4.155050">
        <ele>905.0</ele>
        <time>2015-05-23T14:15:46Z</time>
      </trkpt>
      <trkpt lat="43.295333" lon="-4.155083">
        <ele>906.0</ele>
        <time>2015-05-23T14:15:47Z</time>
      </trkpt>
      <trkpt lat="43.295333" lon="-4.155117">
        <ele>907.0</ele>
        <time>2015-05-23T14:15:48Z</time>
      </trkpt>
      <trkpt lat="43.295350" lon="-4.155133">
        <ele>908.0</ele>
        <time>2015-05-23T14:15:49Z</time>
      </trkpt>
      <trkpt lat="43.295367" lon="-4.155133">
        <ele>908.0</ele>
        <time>2015-05-23T14:15:50Z</time>
      </trkpt>
      <trkpt lat="43.295367" lon="-4.155150">
        <ele>908.0</ele>
        <time>2015-05-23T14:15:51Z</time>
      </trkpt>
      <trkpt lat="43.295383" lon="-4.155183">
        <ele>907.0</ele>
        <time>2015-05-23T14:15:52Z</time>
      </trkpt>
      <trkpt lat="43.295383" lon="-4.155250">
        <ele>907.0</ele>
        <time>2015-05-23T14:15:53Z</time>
      </trkpt>
      <trkpt lat="43.295350" lon="-4.155333">
        <ele>906.0</ele>
        <time>2015-05-23T14:15:54Z</time>
      </trkpt>
      <trkpt lat="43.295317" lon="-4.155417">
        <ele>907.0</ele>
        <time>2015-05-23T14:15:55Z</time>
      </trkpt>
      <trkpt lat="43.295267" lon="-4.155500">
        <ele>907.0</ele>
        <time>2015-05-23T14:15:56Z</time>
      </trkpt>
      <trkpt lat="43.295200" lon="-4.155567">
        <ele>908.0</ele>
        <time>2015-05-23T14:15:57Z</time>
      </trkpt>
      <trkpt lat="43.295117" lon="-4.155617">
        <ele>908.0</ele>
        <time>2015-05-23T14:15:58Z</time>
      </trkpt>
      <trkpt lat="43.295017" lon="-4.155650">
        <ele>909.0</ele>
        <time>2015-05-23T14:15:59Z</time>
      </trkpt>
      <trkpt lat="43.294917" lon="-4.155667">
        <ele>909.0</ele>
        <time>2015-05-23T14:16:00Z</time>
      </trkpt>
      <trkpt lat="43.294817" lon="-4.155617">
        <ele>908.0</ele>
        <time>2015-05-23T14:16:01Z</time>
      </trkpt>
      <trkpt lat="43.294700" lon="-4.155550">
        <ele>908.0</ele>
        <time>2015-05-23T14:16:02Z</time>
      </trkpt>
      <trkpt lat="43.294617" lon="-4.155467">
        <ele>907.0</ele>
        <time>2015-05-23T14:16:03Z</time>
      </trkpt>
      <trkpt lat="43.294533" lon="-4.155383">
        <ele>907.0</ele>
        <time>2015-05-23T14:16:04Z</time>
      </trkpt>
      <trkpt lat="43.294467" lon="-4.155283">
        <ele>907.0</ele>
        <time>2015-05-23T14:16:05Z</time>
      </trkpt>
      <trkpt lat="43.294400" lon="-4.155183">
        <ele>907.0</ele>
        <time>2015-05-23T14:16:06Z</time>
      </trkpt>
      <trkpt lat="43.294350" lon="-4.155083">
        <ele>907.0</ele>
        <time>2015-05-23T14:16:07Z</time>
      </trkpt>
      <trkpt lat="43.294317" lon="-4.154967">
        <ele>907.0</ele>
        <time>2015-05-23T14:16:08Z</time>
      </trkpt>
      <trkpt lat="43.294300" lon="-4.154867">
        <ele>908.0</ele>
        <time>2015-05-23T14:16:09Z</time>
      </trkpt>
      <trkpt lat="43.294283" lon="-4.154767">
        <ele>909.0</ele>
        <time>2015-05-23T14:16:10Z</time>
      </trkpt>
      <trkpt lat="43.294267" lon="-4.154683">
        <ele>910.0</ele>
        <time>2015-05-23T14:16:11Z</time>
      </trkpt>
      <trkpt lat="43.294283" lon="-4.154633">
        <ele>910.0</ele>
        <time>2015-05-23T14:16:12Z</time>
      </trkpt>
      <trkpt lat="43.294300" lon="-4.154567">
        <ele>910.0</ele>
        <time>2015-05-23T14:16:13Z</time>
      </trkpt>
      <trkpt lat="43.294333" lon="-4.154533">
        <ele>909.0</ele>
        <time>2015-05-23T14:16:14Z</time>
      </trkpt>
      <trkpt lat="43.294367" lon="-4.154500">
        <ele>910.0</ele>
        <time>2015-05-23T14:16:15Z</time>
      </trkpt>
      <trkpt lat="43.294400" lon="-4.154467">
        <ele>910.0</ele>
        <time>2015-05-23T14:16:16Z</time>
      </trkpt>
      <trkpt lat="43.294433" lon="-4.154467">
        <ele>911.0</ele>
        <time>2015-05-23T14:16:17Z</time>
      </trkpt>
      <trkpt lat="43.294467" lon="-4.154483">
        <ele>911.0</ele>
        <time>2015-05-23T14:16:18Z</time>
      </trkpt>
      <trkpt lat="43.294500" lon="-4.154500">
        <ele>912.0</ele>
        <time>2015-05-23T14:16:19Z</time>
      </trkpt>
      <trkpt lat="43.294550" lon="-4.154517">
        <ele>913.0</ele>
        <time>2015-05-23T14:16:20Z</time>
      </trkpt>
      <trkpt lat="43.294583" lon="-4.154550">
        <ele>915.0</ele>
        <time>2015-05-23T14:16:21Z</time>
      </trkpt>
      <trkpt lat="43.294617" lon="-4.154567">
        <ele>918.0</ele>
        <time>2015-05-23T14:16:22Z</time>
      </trkpt>
      <trkpt lat="43.294650" lon="-4.154583">
        <ele>921.0</ele>
        <time>2015-05-23T14:16:23Z</time>
      </trkpt>
      <trkpt lat="43.294683" lon="-4.154583">
        <ele>924.0</ele>
        <time>2015-05-23T14:16:24Z</time>
      </trkpt>
      <trkpt lat="43.294717" lon="-4.154600">
        <ele>927.0</ele>
        <time>2015-05-23T14:16:25Z</time>
      </trkpt>
      <trkpt lat="43.294750" lon="-4.154633">
        <ele>930.0</ele>
        <time>2015-05-23T14:16:26Z</time>
      </trkpt>
      <trkpt lat="43.294767" lon="-4.154667">
        <ele>932.0</ele>
        <time>2015-05-23T14:16:27Z</time>
      </trkpt>
      <trkpt lat="43.294783" lon="-4.154683">
        <ele>934.0</ele>
        <time>2015-05-23T14:16:28Z</time>
      </trkpt>
      <trkpt lat="43.294800" lon="-4.154733">
        <ele>935.0</ele>
        <time>2015-05-23T14:16:29Z</time>
      </trkpt>
      <trkpt lat="43.294833" lon="-4.154783">
        <ele>936.0</ele>
        <time>2015-05-23T14:16:30Z</time>
      </trkpt>
      <trkpt lat="43.294883" lon="-4.154850">
        <ele>938.0</ele>
        <time>2015-05-23T14:16:31Z</time>
      </trkpt>
      <trkpt lat="43.294933" lon="-4.154917">
        <ele>940.0</ele>
        <time>2015-05-23T14:16:32Z</time>
      </trkpt>
      <trkpt lat="43.294967" lon="-4.154967">
        <ele>943.0</ele>
        <time>2015-05-23T14:16:33Z</time>
      </trkpt>
      <trkpt lat="43.295017" lon="-4.155017">
        <ele>946.0</ele>
        <time>2015-05-23T14:16:34Z</time>
      </trkpt>
      <trkpt lat="43.295067" lon="-4.155067">
        <ele>949.0</ele>
        <time>2015-05-23T14:16:35Z</time>
      </trkpt>
      <trkpt lat="43.295100" lon="-4.155117">
        <ele>952.0</ele>
        <time>2015-05-23T14:16:36Z</time>
      </trkpt>
      <trkpt lat="43.295117" lon="-4.155183">
        <ele>955.0</ele>
        <time>2015-05-23T14:16:37Z</time>
      </trkpt>
      <trkpt lat="43.295117" lon="-4.155283">
        <ele>956.0</ele>
        <time>2015-05-23T14:16:38Z</time>
      </trkpt>
      <trkpt lat="43.295117" lon="-4.155383">
        <ele>959.0</ele>
        <time>2015-05-23T14:16:39Z</time>
      </trkpt>
      <trkpt lat="43.295100" lon="-4.155500">
        <ele>961.0</ele>
        <time>2015-05-23T14:16:40Z</time>
      </trkpt>
      <trkpt lat="43.295083" lon="-4.155583">
        <ele>964.0</ele>
        <time>2015-05-23T14:16:41Z</time>
      </trkpt>
      <trkpt lat="43.295050" lon="-4.155683">
        <ele>966.0</ele>
        <time>2015-05-23T14:16:42Z</time>
      </trkpt>
      <trkpt lat="43.295000" lon="-4.155800">
        <ele>967.0</ele>
        <time>2015-05-23T14:16:43Z</time>
      </trkpt>
      <trkpt lat="43.294917" lon="-4.155900">
        <ele>969.0</ele>
        <time>2015-05-23T14:16:44Z</time>
      </trkpt>
      <trkpt lat="43.294833" lon="-4.155983">
        <ele>970.0</ele>
        <time>2015-05-23T14:16:45Z</time>
      </trkpt>
      <trkpt lat="43.294717" lon="-4.156050">
        <ele>971.0</ele>
        <time>2015-05-23T14:16:46Z</time>
      </trkpt>
      <trkpt lat="43.294600" lon="-4.156083">
        <ele>972.0</ele>
        <time>2015-05-23T14:16:47Z</time>
      </trkpt>
      <trkpt lat="43.294483" lon="-4.156083">
        <ele>973.0</ele>
        <time>2015-05-23T14:16:48Z</time>
      </trkpt>
      <trkpt lat="43.294367" lon="-4.156083">
        <ele>974.0</ele>
        <time>2015-05-23T14:16:49Z</time>
      </trkpt>
      <trkpt lat="43.294250" lon="-4.156033">
        <ele>975.0</ele>
        <time>2015-05-23T14:16:50Z</time>
      </trkpt>
      <trkpt lat="43.294150" lon="-4.155983">
        <ele>976.0</ele>
        <time>2015-05-23T14:16:51Z</time>
      </trkpt>
      <trkpt lat="43.294083" lon="-4.155900">
        <ele>978.0</ele>
        <time>2015-05-23T14:16:52Z</time>
      </trkpt>
      <trkpt lat="43.294017" lon="-4.155833">
        <ele>979.0</ele>
        <time>2015-05-23T14:16:53Z</time>
      </trkpt>
      <trkpt lat="43.293983" lon="-4.155750">
        <ele>980.0</ele>
        <time>2015-05-23T14:16:54Z</time>
      </trkpt>
      <trkpt lat="43.293950" lon="-4.155667">
        <ele>981.0</ele>
        <time>2015-05-23T14:16:55Z</time>
      </trkpt>
      <trkpt lat="43.293933" lon="-4.155583">
        <ele>979.0</ele>
        <time>2015-05-23T14:16:56Z</time>
      </trkpt>
      <trkpt lat="43.293933" lon="-4.155517">
        <ele>980.0</ele>
        <time>2015-05-23T14:16:57Z</time>
      </trkpt>
      <trkpt lat="43.293950" lon="-4.155467">
        <ele>980.0</ele>
        <time>2015-05-23T14:16:58Z</time>
      </trkpt>
      <trkpt lat="43.293967" lon="-4.155433">
        <ele>981.0</ele>
        <time>2015-05-23T14:16:59Z</time>
      </trkpt>
      <trkpt lat="43.293983" lon="-4.155383">
        <ele>983.0</ele>
        <time>2015-05-23T14:17:00Z</time>
      </trkpt>
      <trkpt lat="43.294000" lon="-4.155367">
        <ele>985.0</ele>
        <time>2015-05-23T14:17:01Z</time>
      </trkpt>
      <trkpt lat="43.294033" lon="-4.155333">
        <ele>987.0</ele>
        <time>2015-05-23T14:17:02Z</time>
      </trkpt>
      <trkpt lat="43.294050" lon="-4.155333">
        <ele>989.0</ele>
        <time>2015-05-23T14:17:03Z</time>
      </trkpt>
      <trkpt lat="43.294083" lon="-4.155317">
        <ele>993.0</ele>
        <time>2015-05-23T14:17:04Z</time>
      </trkpt>
      <trkpt lat="43.294100" lon="-4.155333">
        <ele>997.0</ele>
        <time>2015-05-23T14:17:05Z</time>
      </trkpt>
      <trkpt lat="43.294117" lon="-4.155333">
        <ele>1000.0</ele>
        <time>2015-05-23T14:17:06Z</time>
      </trkpt>
      <trkpt lat="43.294117" lon="-4.155333">
        <ele>1002.0</ele>
        <time>2015-05-23T14:17:07Z</time>
      </trkpt>
      <trkpt lat="43.294133" lon="-4.155317">
        <ele>1003.0</ele>
        <time>2015-05-23T14:17:08Z</time>
      </trkpt>
      <trkpt lat="43.294150" lon="-4.155317">
        <ele>1005.0</ele>
        <time>2015-05-23T14:17:09Z</time>
      </trkpt>
      <trkpt lat="43.294167" lon="-4.155317">
        <ele>1006.0</ele>
        <time>2015-05-23T14:17:10Z</time>
      </trkpt>
      <trkpt lat="43.294183" lon="-4.155333">
        <ele>1007.0</ele>
        <time>2015-05-23T14:17:11Z</time>
      </trkpt>
      <trkpt lat="43.294217" lon="-4.155367">
        <ele>1007.0</ele>
        <time>2015-05-23T14:17:12Z</time>
      </trkpt>
      <trkpt lat="43.294250" lon="-4.155433">
        <ele>1007.0</ele>
        <time>2015-05-23T14:17:13Z</time>
      </trkpt>
      <trkpt lat="43.294283" lon="-4.155483">
        <ele>1008.0</ele>
        <time>2015-05-23T14:17:14Z</time>
      </trkpt>
      <trkpt lat="43.294317" lon="-4.155533">
        <ele>1007.0</ele>
        <time>2015-05-23T14:17:15Z</time>
      </trkpt>
      <trkpt lat="43.294317" lon="-4.155567">
        <ele>1007.0</ele>
        <time>2015-05-23T14:17:16Z</time>
      </trkpt>
      <trkpt lat="43.294317" lon="-4.155583">
        <ele>1009.0</ele>
        <time>2015-05-23T14:17:17Z</time>
      </trkpt>
      <trkpt lat="43.294317" lon="-4.155567">
        <ele>1010.0</ele>
        <time>2015-05-23T14:17:18Z</time>
      </trkpt>
      <trkpt lat="43.294333" lon="-4.155567">
        <ele>1011.0</ele>
        <time>2015-05-23T14:17:19Z</time>
      </trkpt>
      <trkpt lat="43.294367" lon="-4.155567">
        <ele>1011.0</ele>
        <time>2015-05-23T14:17:20Z</time>
      </trkpt>
      <trkpt lat="43.294400" lon="-4.155600">
        <ele>1011.0</ele>
        <time>2015-05-23T14:17:21Z</time>
      </trkpt>
      <trkpt lat="43.294433" lon="-4.155633">
        <ele>1011.0</ele>
        <time>2015-05-23T14:17:22Z</time>
      </trkpt>
      <trkpt lat="43.294450" lon="-4.155683">
        <ele>1011.0</ele>
        <time>2015-05-23T14:17:23Z</time>
      </trkpt>
      <trkpt lat="43.294467" lon="-4.155750">
        <ele>1011.0</ele>
        <time>2015-05-23T14:17:24Z</time>
      </trkpt>
      <trkpt lat="43.294483" lon="-4.155800">
        <ele>1011.0</ele>
        <time>2015-05-23T14:17:25Z</time>
      </trkpt>
      <trkpt lat="43.294500" lon="-4.155867">
        <ele>1012.0</ele>
        <time>2015-05-23T14:17:26Z</time>
      </trkpt>
      <trkpt lat="43.294533" lon="-4.155917">
        <ele>1012.0</ele>
        <time>2015-05-23T14:17:27Z</time>
      </trkpt>
      <trkpt lat="43.294550" lon="-4.155967">
        <ele>1012.0</ele>
        <time>2015-05-23T14:17:28Z</time>
      </trkpt>
      <trkpt lat="43.294567" lon="-4.156017">
        <ele>1012.0</ele>
        <time>2015-05-23T14:17:29Z</time>
      </trkpt>
      <trkpt lat="43.294583" lon="-4.156067">
        <ele>1013.0</ele>
        <time>2015-05-23T14:17:30Z</time>
      </trkpt>
      <trkpt lat="43.294600" lon="-4.156117">
        <ele>1014.0</ele>
        <time>2015-05-23T14:17:31Z</time>
      </trkpt>
      <trkpt lat="43.294633" lon="-4.156183">
        <ele>1014.0</ele>
        <time>2015-05-23T14:17:32Z</time>
      </trkpt>
      <trkpt lat="43.294667" lon="-4.156250">
        <ele>1014.0</ele>
        <time>2015-05-23T14:17:33Z</time>
      </trkpt>
      <trkpt lat="43.294700" lon="-4.156317">
        <ele>1014.0</ele>
        <time>2015-05-23T14:17:34Z</time>
      </trkpt>
      <trkpt lat="43.294733" lon="-4.156400">
        <ele>1015.0</ele>
        <time>2015-05-23T14:17:35Z</time>
      </trkpt>
      <trkpt lat="43.294767" lon="-4.156500">
        <ele>1014.0</ele>
        <time>2015-05-23T14:17:36Z</time>
      </trkpt>
      <trkpt lat="43.294800" lon="-4.156600">
        <ele>1014.0</ele>
        <time>2015-05-23T14:17:37Z</time>
      </trkpt>
      <trkpt lat="43.294817" lon="-4.156700">
        <ele>1014.0</ele>
        <time>2015-05-23T14:17:38Z</time>
      </trkpt>
      <trkpt lat="43.294833" lon="-4.156800">
        <ele>1014.0</ele>
        <time>2015-05-23T14:17:39Z</time>
      </trkpt>
      <trkpt lat="43.294850" lon="-4.156883">
        <ele>1014.0</ele>
        <time>2015-05-23T14:17:40Z</time>
      </trkpt>
      <trkpt lat="43.294883" lon="-4.156983">
        <ele>1013.0</ele>
        <time>2015-05-23T14:17:41Z</time>
      </trkpt>
      <trkpt lat="43.294933" lon="-4.157083">
        <ele>1012.0</ele>
        <time>2015-05-23T14:17:42Z</time>
      </trkpt>
      <trkpt lat="43.294967" lon="-4.157183">
        <ele>1011.0</ele>
        <time>2015-05-23T14:17:43Z</time>
      </trkpt>
      <trkpt lat="43.294967" lon="-4.157283">
        <ele>1011.0</ele>
        <time>2015-05-23T14:17:44Z</time>
      </trkpt>
      <trkpt lat="43.294983" lon="-4.157383">
        <ele>1011.0</ele>
        <time>2015-05-23T14:17:45Z</time>
      </trkpt>
      <trkpt lat="43.295000" lon="-4.157467">
        <ele>1011.0</ele>
        <time>2015-05-23T14:17:46Z</time>
      </trkpt>
      <trkpt lat="43.295017" lon="-4.157567">
        <ele>1010.0</ele>
        <time>2015-05-23T14:17:47Z</time>
      </trkpt>
      <trkpt lat="43.295050" lon="-4.157667">
        <ele>1009.0</ele>
        <time>2015-05-23T14:17:48Z</time>
      </trkpt>
      <trkpt lat="43.295083" lon="-4.157767">
        <ele>1011.0</ele>
        <time>2015-05-23T14:17:49Z</time>
      </trkpt>
      <trkpt lat="43.295100" lon="-4.157850">
        <ele>1013.0</ele>
        <time>2015-05-23T14:17:50Z</time>
      </trkpt>
      <trkpt lat="43.295117" lon="-4.157933">
        <ele>1012.0</ele>
        <time>2015-05-23T14:17:51Z</time>
      </trkpt>
      <trkpt lat="43.295133" lon="-4.158017">
        <ele>1012.0</ele>
        <time>2015-05-23T14:17:52Z</time>
      </trkpt>
      <trkpt lat="43.295150" lon="-4.158100">
        <ele>1012.0</ele>
        <time>2015-05-23T14:17:53Z</time>
      </trkpt>
      <trkpt lat="43.295167" lon="-4.158183">
        <ele>1012.0</ele>
        <time>2015-05-23T14:17:54Z</time>
      </trkpt>
      <trkpt lat="43.295183" lon="-4.158267">
        <ele>1012.0</ele>
        <time>2015-05-23T14:17:55Z</time>
      </trkpt>
      <trkpt lat="43.295200" lon="-4.158350">
        <ele>1012.0</ele>
        <time>2015-05-23T14:17:56Z</time>
      </trkpt>
      <trkpt lat="43.295217" lon="-4.158433">
        <ele>1012.0</ele>
        <time>2015-05-23T14:17:57Z</time>
      </trkpt>
      <trkpt lat="43.295233" lon="-4.158533">
        <ele>1012.0</ele>
        <time>2015-05-23T14:17:58Z</time>
      </trkpt>
      <trkpt lat="43.295250" lon="-4.158633">
        <ele>1012.0</ele>
        <time>2015-05-23T14:17:59Z</time>
      </trkpt>
      <trkpt lat="43.295267" lon="-4.158750">
        <ele>1012.0</ele>
        <time>2015-05-23T14:18:00Z</time>
      </trkpt>
      <trkpt lat="43.295267" lon="-4.158833">
        <ele>1012.0</ele>
        <time>2015-05-23T14:18:01Z</time>
      </trkpt>
      <trkpt lat="43.295267" lon="-4.158933">
        <ele>1011.0</ele>
        <time>2015-05-23T14:18:02Z</time>
      </trkpt>
      <trkpt lat="43.295283" lon="-4.159000">
        <ele>1011.0</ele>
        <time>2015-05-23T14:18:03Z</time>
      </trkpt>
      <trkpt lat="43.295317" lon="-4.159083">
        <ele>1011.0</ele>
        <time>2015-05-23T14:18:04Z</time>
      </trkpt>
      <trkpt lat="43.295350" lon="-4.159150">
        <ele>1011.0</ele>
        <time>2015-05-23T14:18:05Z</time>
      </trkpt>
      <trkpt lat="43.295400" lon="-4.159217">
        <ele>1011.0</ele>
        <time>2015-05-23T14:18:06Z</time>
      </trkpt>
      <trkpt lat="43.295417" lon="-4.159300">
        <ele>1010.0</ele>
        <time>2015-05-23T14:18:07Z</time>
      </trkpt>
      <trkpt lat="43.295433" lon="-4.159367">
        <ele>1010.0</ele>
        <time>2015-05-23T14:18:08Z</time>
      </trkpt>
      <trkpt lat="43.295467" lon="-4.159417">
        <ele>1010.0</ele>
        <time>2015-05-23T14:18:09Z</time>
      </trkpt>
      <trkpt lat="43.295500" lon="-4.159483">
        <ele>1009.0</ele>
        <time>2015-05-23T14:18:10Z</time>
      </trkpt>
      <trkpt lat="43.295533" lon="-4.159567">
        <ele>1009.0</ele>
        <time>2015-05-23T14:18:11Z</time>
      </trkpt>
      <trkpt lat="43.295550" lon="-4.159667">
        <ele>1008.0</ele>
        <time>2015-05-23T14:18:12Z</time>
      </trkpt>
      <trkpt lat="43.295567" lon="-4.159767">
        <ele>1008.0</ele>
        <time>2015-05-23T14:18:13Z</time>
      </trkpt>
      <trkpt lat="43.295567" lon="-4.159867">
        <ele>1008.0</ele>
        <time>2015-05-23T14:18:14Z</time>
      </trkpt>
      <trkpt lat="43.295567" lon="-4.159983">
        <ele>1008.0</ele>
        <time>2015-05-23T14:18:15Z</time>
      </trkpt>
      <trkpt lat="43.295567" lon="-4.160050">
        <ele>1008.0</ele>
        <time>2015-05-23T14:18:16Z</time>
      </trkpt>
      <trkpt lat="43.295583" lon="-4.160133">
        <ele>1007.0</ele>
        <time>2015-05-23T14:18:17Z</time>
      </trkpt>
      <trkpt lat="43.295617" lon="-4.160217">
        <ele>1007.0</ele>
        <time>2015-05-23T14:18:18Z</time>
      </trkpt>
      <trkpt lat="43.295617" lon="-4.160333">
        <ele>1007.0</ele>
        <time>2015-05-23T14:18:19Z</time>
      </trkpt>
      <trkpt lat="43.295617" lon="-4.160433">
        <ele>1006.0</ele>
        <time>2015-05-23T14:18:20Z</time>
      </trkpt>
      <trkpt lat="43.295617" lon="-4.160550">
        <ele>1006.0</ele>
        <time>2015-05-23T14:18:21Z</time>
      </trkpt>
      <trkpt lat="43.295633" lon="-4.160650">
        <ele>1006.0</ele>
        <time>2015-05-23T14:18:22Z</time>
      </trkpt>
      <trkpt lat="43.295617" lon="-4.160733">
        <ele>1005.0</ele>
        <time>2015-05-23T14:18:23Z</time>
      </trkpt>
      <trkpt lat="43.295617" lon="-4.160833">
        <ele>1004.0</ele>
        <time>2015-05-23T14:18:24Z</time>
      </trkpt>
      <trkpt lat="43.295600" lon="-4.160950">
        <ele>1004.0</ele>
        <time>2015-05-23T14:18:25Z</time>
      </trkpt>
      <trkpt lat="43.295600" lon="-4.161067">
        <ele>1003.0</ele>
        <time>2015-05-23T14:18:26Z</time>
      </trkpt>
      <trkpt lat="43.295567" lon="-4.161167">
        <ele>1002.0</ele>
        <time>2015-05-23T14:18:27Z</time>
      </trkpt>
      <trkpt lat="43.295567" lon="-4.161267">
        <ele>1001.0</ele>
        <time>2015-05-23T14:18:28Z</time>
      </trkpt>
      <trkpt lat="43.295550" lon="-4.161367">
        <ele>1001.0</ele>
        <time>2015-05-23T14:18:29Z</time>
      </trkpt>
      <trkpt lat="43.295550" lon="-4.161483">
        <ele>1000.0</ele>
        <time>2015-05-23T14:18:30Z</time>
      </trkpt>
      <trkpt lat="43.295550" lon="-4.161617">
        <ele>999.0</ele>
        <time>2015-05-23T14:18:31Z</time>
      </trkpt>
      <trkpt lat="43.295550" lon="-4.161750">
        <ele>999.0</ele>
        <time>2015-05-23T14:18:32Z</time>
      </trkpt>
      <trkpt lat="43.295533" lon="-4.161867">
        <ele>998.0</ele>
        <time>2015-05-23T14:18:33Z</time>
      </trkpt>
      <trkpt lat="43.295517" lon="-4.161983">
        <ele>997.0</ele>
        <time>2015-05-23T14:18:34Z</time>
      </trkpt>
      <trkpt lat="43.295517" lon="-4.162100">
        <ele>996.0</ele>
        <time>2015-05-23T14:18:35Z</time>
      </trkpt>
      <trkpt lat="43.295517" lon="-4.162217">
        <ele>996.0</ele>
        <time>2015-05-23T14:18:36Z</time>
      </trkpt>
      <trkpt lat="43.295517" lon="-4.162317">
        <ele>995.0</ele>
        <time>2015-05-23T14:18:37Z</time>
      </trkpt>
      <trkpt lat="43.295517" lon="-4.162433">
        <ele>994.0</ele>
        <time>2015-05-23T14:18:38Z</time>
      </trkpt>
      <trkpt lat="43.295517" lon="-4.162550">
        <ele>994.0</ele>
        <time>2015-05-23T14:18:39Z</time>
      </trkpt>
      <trkpt lat="43.295500" lon="-4.162683">
        <ele>993.0</ele>
        <time>2015-05-23T14:18:40Z</time>
      </trkpt>
      <trkpt lat="43.295500" lon="-4.162817">
        <ele>992.0</ele>
        <time>2015-05-23T14:18:41Z</time>
      </trkpt>
      <trkpt lat="43.295483" lon="-4.162933">
        <ele>991.0</ele>
        <time>2015-05-23T14:18:42Z</time>
      </trkpt>
      <trkpt lat="43.295467" lon="-4.163050">
        <ele>990.0</ele>
        <time>2015-05-23T14:18:43Z</time>
      </trkpt>
      <trkpt lat="43.295450" lon="-4.163183">
        <ele>989.0</ele>
        <time>2015-05-23T14:18:44Z</time>
      </trkpt>
      <trkpt lat="43.295433" lon="-4.163300">
        <ele>989.0</ele>
        <time>2015-05-23T14:18:45Z</time>
      </trkpt>
      <trkpt lat="43.295400" lon="-4.163433">
        <ele>987.0</ele>
        <time>2015-05-23T14:18:46Z</time>
      </trkpt>
      <trkpt lat="43.295367" lon="-4.163550">
        <ele>986.0</ele>
        <time>2015-05-23T14:18:47Z</time>
      </trkpt>
      <trkpt lat="43.295317" lon="-4.163667">
        <ele>985.0</ele>
        <time>2015-05-23T14:18:48Z</time>
      </trkpt>
      <trkpt lat="43.295267" lon="-4.163767">
        <ele>985.0</ele>
        <time>2015-05-23T14:18:49Z</time>
      </trkpt>
      <trkpt lat="43.295200" lon="-4.163867">
        <ele>983.0</ele>
        <time>2015-05-23T14:18:50Z</time>
      </trkpt>
      <trkpt lat="43.295133" lon="-4.163967">
        <ele>982.0</ele>
        <time>2015-05-23T14:18:51Z</time>
      </trkpt>
      <trkpt lat="43.295067" lon="-4.164067">
        <ele>981.0</ele>
        <time>2015-05-23T14:18:52Z</time>
      </trkpt>
      <trkpt lat="43.294983" lon="-4.164150">
        <ele>979.0</ele>
        <time>2015-05-23T14:18:53Z</time>
      </trkpt>
      <trkpt lat="43.294900" lon="-4.164217">
        <ele>978.0</ele>
        <time>2015-05-23T14:18:54Z</time>
      </trkpt>
      <trkpt lat="43.294817" lon="-4.164283">
        <ele>976.0</ele>
        <time>2015-05-23T14:18:55Z</time>
      </trkpt>
      <trkpt lat="43.294733" lon="-4.164333">
        <ele>974.0</ele>
        <time>2015-05-23T14:18:56Z</time>
      </trkpt>
      <trkpt lat="43.294650" lon="-4.164383">
        <ele>972.0</ele>
        <time>2015-05-23T14:18:57Z</time>
      </trkpt>
      <trkpt lat="43.294550" lon="-4.164417">
        <ele>967.0</ele>
        <time>2015-05-23T14:18:58Z</time>
      </trkpt>
      <trkpt lat="43.294467" lon="-4.164483">
        <ele>964.0</ele>
        <time>2015-05-23T14:18:59Z</time>
      </trkpt>
      <trkpt lat="43.294400" lon="-4.164533">
        <ele>966.0</ele>
        <time>2015-05-23T14:19:00Z</time>
      </trkpt>
      <trkpt lat="43.294333" lon="-4.164633">
        <ele>966.0</ele>
        <time>2015-05-23T14:19:01Z</time>
      </trkpt>
      <trkpt lat="43.294267" lon="-4.164733">
        <ele>965.0</ele>
        <time>2015-05-23T14:19:02Z</time>
      </trkpt>
      <trkpt lat="43.294217" lon="-4.164817">
        <ele>964.0</ele>
        <time>2015-05-23T14:19:03Z</time>
      </trkpt>
      <trkpt lat="43.294167" lon="-4.164933">
        <ele>963.0</ele>
        <time>2015-05-23T14:19:04Z</time>
      </trkpt>
      <trkpt lat="43.294133" lon="-4.165033">
        <ele>962.0</ele>
        <time>2015-05-23T14:19:05Z</time>
      </trkpt>
      <trkpt lat="43.294100" lon="-4.165150">
        <ele>960.0</ele>
        <time>2015-05-23T14:19:06Z</time>
      </trkpt>
      <trkpt lat="43.294067" lon="-4.165250">
        <ele>958.0</ele>
        <time>2015-05-23T14:19:07Z</time>
      </trkpt>
      <trkpt lat="43.294033" lon="-4.165367">
        <ele>957.0</ele>
        <time>2015-05-23T14:19:08Z</time>
      </trkpt>
      <trkpt lat="43.294017" lon="-4.165500">
        <ele>955.0</ele>
        <time>2015-05-23T14:19:09Z</time>
      </trkpt>
      <trkpt lat="43.294000" lon="-4.165633">
        <ele>955.0</ele>
        <time>2015-05-23T14:19:10Z</time>
      </trkpt>
      <trkpt lat="43.294000" lon="-4.165733">
        <ele>954.0</ele>
        <time>2015-05-23T14:19:11Z</time>
      </trkpt>
      <trkpt lat="43.293983" lon="-4.165833">
        <ele>954.0</ele>
        <time>2015-05-23T14:19:12Z</time>
      </trkpt>
      <trkpt lat="43.293967" lon="-4.165967">
        <ele>954.0</ele>
        <time>2015-05-23T14:19:13Z</time>
      </trkpt>
      <trkpt lat="43.293950" lon="-4.166100">
        <ele>954.0</ele>
        <time>2015-05-23T14:19:14Z</time>
      </trkpt>
      <trkpt lat="43.293933" lon="-4.166217">
        <ele>954.0</ele>
        <time>2015-05-23T14:19:15Z</time>
      </trkpt>
      <trkpt lat="43.293900" lon="-4.166350">
        <ele>954.0</ele>
        <time>2015-05-23T14:19:16Z</time>
      </trkpt>
      <trkpt lat="43.293883" lon="-4.166483">
        <ele>953.0</ele>
        <time>2015-05-23T14:19:17Z</time>
      </trkpt>
      <trkpt lat="43.293883" lon="-4.166600">
        <ele>952.0</ele>
        <time>2015-05-23T14:19:18Z</time>
      </trkpt>
      <trkpt lat="43.293883" lon="-4.166750">
        <ele>952.0</ele>
        <time>2015-05-23T14:19:19Z</time>
      </trkpt>
      <trkpt lat="43.293900" lon="-4.166917">
        <ele>952.0</ele>
        <time>2015-05-23T14:19:20Z</time>
      </trkpt>
      <trkpt lat="43.293883" lon="-4.167067">
        <ele>952.0</ele>
        <time>2015-05-23T14:19:21Z</time>
      </trkpt>
      <trkpt lat="43.293883" lon="-4.167217">
        <ele>953.0</ele>
        <time>2015-05-23T14:19:22Z</time>
      </trkpt>
      <trkpt lat="43.293850" lon="-4.167333">
        <ele>953.0</ele>
        <time>2015-05-23T14:19:23Z</time>
      </trkpt>
      <trkpt lat="43.293833" lon="-4.167467">
        <ele>953.0</ele>
        <time>2015-05-23T14:19:24Z</time>
      </trkpt>
      <trkpt lat="43.293800" lon="-4.167583">
        <ele>953.0</ele>
        <time>2015-05-23T14:19:25Z</time>
      </trkpt>
      <trkpt lat="43.293783" lon="-4.167717">
        <ele>953.0</ele>
        <time>2015-05-23T14:19:26Z</time>
      </trkpt>
      <trkpt lat="43.293767" lon="-4.167850">
        <ele>953.0</ele>
        <time>2015-05-23T14:19:27Z</time>
      </trkpt>
      <trkpt lat="43.293733" lon="-4.168000">
        <ele>953.0</ele>
        <time>2015-05-23T14:19:28Z</time>
      </trkpt>
      <trkpt lat="43.293717" lon="-4.168117">
        <ele>952.0</ele>
        <time>2015-05-23T14:19:29Z</time>
      </trkpt>
      <trkpt lat="43.293717" lon="-4.168250">
        <ele>950.0</ele>
        <time>2015-05-23T14:19:30Z</time>
      </trkpt>
      <trkpt lat="43.293700" lon="-4.168400">
        <ele>949.0</ele>
        <time>2015-05-23T14:19:31Z</time>
      </trkpt>
      <trkpt lat="43.293683" lon="-4.168550">
        <ele>948.0</ele>
        <time>2015-05-23T14:19:32Z</time>
      </trkpt>
      <trkpt lat="43.293683" lon="-4.168683">
        <ele>947.0</ele>
        <time>2015-05-23T14:19:33Z</time>
      </trkpt>
      <trkpt lat="43.293667" lon="-4.168817">
        <ele>945.0</ele>
        <time>2015-05-23T14:19:34Z</time>
      </trkpt>
      <trkpt lat="43.293667" lon="-4.168917">
        <ele>942.0</ele>
        <time>2015-05-23T14:19:35Z</time>
      </trkpt>
      <trkpt lat="43.293667" lon="-4.169033">
        <ele>939.0</ele>
        <time>2015-05-23T14:19:36Z</time>
      </trkpt>
      <trkpt lat="43.293683" lon="-4.169117">
        <ele>935.0</ele>
        <time>2015-05-23T14:19:37Z</time>
      </trkpt>
      <trkpt lat="43.293700" lon="-4.169167">
        <ele>930.0</ele>
        <time>2015-05-23T14:19:38Z</time>
      </trkpt>
      <trkpt lat="43.293750" lon="-4.169233">
        <ele>926.0</ele>
        <time>2015-05-23T14:19:39Z</time>
      </trkpt>
      <trkpt lat="43.293783" lon="-4.169283">
        <ele>922.0</ele>
        <time>2015-05-23T14:19:40Z</time>
      </trkpt>
      <trkpt lat="43.293817" lon="-4.169283">
        <ele>918.0</ele>
        <time>2015-05-23T14:19:41Z</time>
      </trkpt>
      <trkpt lat="43.293867" lon="-4.169283">
        <ele>916.0</ele>
        <time>2015-05-23T14:19:42Z</time>
      </trkpt>
      <trkpt lat="43.293900" lon="-4.169250">
        <ele>913.0</ele>
        <time>2015-05-23T14:19:43Z</time>
      </trkpt>
      <trkpt lat="43.293917" lon="-4.169233">
        <ele>909.0</ele>
        <time>2015-05-23T14:19:44Z</time>
      </trkpt>
      <trkpt lat="43.293950" lon="-4.169217">
        <ele>906.0</ele>
        <time>2015-05-23T14:19:45Z</time>
      </trkpt>
      <trkpt lat="43.293967" lon="-4.169200">
        <ele>902.0</ele>
        <time>2015-05-23T14:19:46Z</time>
      </trkpt>
      <trkpt lat="43.294000" lon="-4.169167">
        <ele>899.0</ele>
        <time>2015-05-23T14:19:47Z</time>
      </trkpt>
      <trkpt lat="43.294000" lon="-4.169133">
        <ele>895.0</ele>
        <time>2015-05-23T14:19:48Z</time>
      </trkpt>
      <trkpt lat="43.294033" lon="-4.169083">
        <ele>892.0</ele>
        <time>2015-05-23T14:19:49Z</time>
      </trkpt>
      <trkpt lat="43.294050" lon="-4.169017">
        <ele>889.0</ele>
        <time>2015-05-23T14:19:50Z</time>
      </trkpt>
      <trkpt lat="43.294100" lon="-4.168883">
        <ele>884.0</ele>
        <time>2015-05-23T14:19:51Z</time>
      </trkpt>
      <trkpt lat="43.294133" lon="-4.168817">
        <ele>881.0</ele>
        <time>2015-05-23T14:19:52Z</time>
      </trkpt>
      <trkpt lat="43.294183" lon="-4.168750">
        <ele>878.0</ele>
        <time>2015-05-23T14:19:53Z</time>
      </trkpt>
      <trkpt lat="43.294200" lon="-4.168700">
        <ele>876.0</ele>
        <time>2015-05-23T14:19:54Z</time>
      </trkpt>
      <trkpt lat="43.294233" lon="-4.168650">
        <ele>875.0</ele>
        <time>2015-05-23T14:19:55Z</time>
      </trkpt>
      <trkpt lat="43.294267" lon="-4.168667">
        <ele>869.0</ele>
        <time>2015-05-23T14:19:56Z</time>
      </trkpt>
      <trkpt lat="43.294300" lon="-4.168717">
        <ele>866.0</ele>
        <time>2015-05-23T14:19:57Z</time>
      </trkpt>
      <trkpt lat="43.294350" lon="-4.168783">
        <ele>866.0</ele>
        <time>2015-05-23T14:19:58Z</time>
      </trkpt>
      <trkpt lat="43.294400" lon="-4.168883">
        <ele>863.0</ele>
        <time>2015-05-23T14:19:59Z</time>
      </trkpt>
      <trkpt lat="43.294467" lon="-4.168983">
        <ele>860.0</ele>
        <time>2015-05-23T14:20:00Z</time>
      </trkpt>
      <trkpt lat="43.294517" lon="-4.169067">
        <ele>858.0</ele>
        <time>2015-05-23T14:20:01Z</time>
      </trkpt>
      <trkpt lat="43.294567" lon="-4.169167">
        <ele>856.0</ele>
        <time>2015-05-23T14:20:02Z</time>
      </trkpt>
      <trkpt lat="43.294600" lon="-4.169283">
        <ele>854.0</ele>
        <time>2015-05-23T14:20:03Z</time>
      </trkpt>
      <trkpt lat="43.294650" lon="-4.169400">
        <ele>852.0</ele>
        <time>2015-05-23T14:20:04Z</time>
      </trkpt>
      <trkpt lat="43.294683" lon="-4.169500">
        <ele>850.0</ele>
        <time>2015-05-23T14:20:05Z</time>
      </trkpt>
      <trkpt lat="43.294733" lon="-4.169600">
        <ele>847.0</ele>
        <time>2015-05-23T14:20:06Z</time>
      </trkpt>
      <trkpt lat="43.294767" lon="-4.169717">
        <ele>845.0</ele>
        <time>2015-05-23T14:20:07Z</time>
      </trkpt>
      <trkpt lat="43.294800" lon="-4.169833">
        <ele>842.0</ele>
        <time>2015-05-23T14:20:08Z</time>
      </trkpt>
      <trkpt lat="43.294833" lon="-4.169950">
        <ele>840.0</ele>
        <time>2015-05-23T14:20:09Z</time>
      </trkpt>
      <trkpt lat="43.294867" lon="-4.170083">
        <ele>838.0</ele>
        <time>2015-05-23T14:20:10Z</time>
      </trkpt>
      <trkpt lat="43.294883" lon="-4.170200">
        <ele>836.0</ele>
        <time>2015-05-23T14:20:11Z</time>
      </trkpt>
      <trkpt lat="43.294900" lon="-4.170300">
        <ele>834.0</ele>
        <time>2015-05-23T14:20:12Z</time>
      </trkpt>
      <trkpt lat="43.294933" lon="-4.170417">
        <ele>832.0</ele>
        <time>2015-05-23T14:20:13Z</time>
      </trkpt>
      <trkpt lat="43.294933" lon="-4.170533">
        <ele>830.0</ele>
        <time>2015-05-23T14:20:14Z</time>
      </trkpt>
      <trkpt lat="43.294933" lon="-4.170650">
        <ele>828.0</ele>
        <time>2015-05-23T14:20:15Z</time>
      </trkpt>
      <trkpt lat="43.294933" lon="-4.170767">
        <ele>826.0</ele>
        <time>2015-05-23T14:20:16Z</time>
      </trkpt>
      <trkpt lat="43.294933" lon="-4.170900">
        <ele>824.0</ele>
        <time>2015-05-23T14:20:17Z</time>
      </trkpt>
      <trkpt lat="43.294950" lon="-4.171033">
        <ele>822.0</ele>
        <time>2015-05-23T14:20:18Z</time>
      </trkpt>
      <trkpt lat="43.294950" lon="-4.171150">
        <ele>820.0</ele>
        <time>2015-05-23T14:20:19Z</time>
      </trkpt>
      <trkpt lat="43.294950" lon="-4.171283">
        <ele>818.0</ele>
        <time>2015-05-23T14:20:20Z</time>
      </trkpt>
      <trkpt lat="43.294950" lon="-4.171383">
        <ele>816.0</ele>
        <time>2015-05-23T14:20:21Z</time>
      </trkpt>
      <trkpt lat="43.294950" lon="-4.171500">
        <ele>814.0</ele>
        <time>2015-05-23T14:20:22Z</time>
      </trkpt>
      <trkpt lat="43.294967" lon="-4.171617">
        <ele>811.0</ele>
        <time>2015-05-23T14:20:23Z</time>
      </trkpt>
      <trkpt lat="43.294983" lon="-4.171767">
        <ele>809.0</ele>
        <time>2015-05-23T14:20:24Z</time>
      </trkpt>
      <trkpt lat="43.294983" lon="-4.171900">
        <ele>807.0</ele>
        <time>2015-05-23T14:20:25Z</time>
      </trkpt>
      <trkpt lat="43.295000" lon="-4.172033">
        <ele>805.0</ele>
        <time>2015-05-23T14:20:26Z</time>
      </trkpt>
      <trkpt lat="43.294983" lon="-4.172150">
        <ele>804.0</ele>
        <time>2015-05-23T14:20:27Z</time>
      </trkpt>
      <trkpt lat="43.294967" lon="-4.172250">
        <ele>802.0</ele>
        <time>2015-05-23T14:20:28Z</time>
      </trkpt>
      <trkpt lat="43.294967" lon="-4.172350">
        <ele>801.0</ele>
        <time>2015-05-23T14:20:29Z</time>
      </trkpt>
      <trkpt lat="43.294950" lon="-4.172450">
        <ele>800.0</ele>
        <time>2015-05-23T14:20:30Z</time>
      </trkpt>
      <trkpt lat="43.294950" lon="-4.172567">
        <ele>803.0</ele>
        <time>2015-05-23T14:20:31Z</time>
      </trkpt>
      <trkpt lat="43.294933" lon="-4.172683">
        <ele>802.0</ele>
        <time>2015-05-23T14:20:32Z</time>
      </trkpt>
      <trkpt lat="43.294917" lon="-4.172783">
        <ele>802.0</ele>
        <time>2015-05-23T14:20:33Z</time>
      </trkpt>
      <trkpt lat="43.294900" lon="-4.172883">
        <ele>801.0</ele>
        <time>2015-05-23T14:20:34Z</time>
      </trkpt>
      <trkpt lat="43.294883" lon="-4.173000">
        <ele>801.0</ele>
        <time>2015-05-23T14:20:35Z</time>
      </trkpt>
      <trkpt lat="43.294867" lon="-4.173100">
        <ele>800.0</ele>
        <time>2015-05-23T14:20:36Z</time>
      </trkpt>
      <trkpt lat="43.294867" lon="-4.173233">
        <ele>801.0</ele>
        <time>2015-05-23T14:20:37Z</time>
      </trkpt>
      <trkpt lat="43.294850" lon="-4.173350">
        <ele>800.0</ele>
        <time>2015-05-23T14:20:38Z</time>
      </trkpt>
      <trkpt lat="43.294850" lon="-4.173483">
        <ele>800.0</ele>
        <time>2015-05-23T14:20:39Z</time>
      </trkpt>
      <trkpt lat="43.294833" lon="-4.173600">
        <ele>800.0</ele>
        <time>2015-05-23T14:20:40Z</time>
      </trkpt>
      <trkpt lat="43.294833" lon="-4.173700">
        <ele>799.0</ele>
        <time>2015-05-23T14:20:41Z</time>
      </trkpt>
      <trkpt lat="43.294817" lon="-4.173800">
        <ele>799.0</ele>
        <time>2015-05-23T14:20:42Z</time>
      </trkpt>
      <trkpt lat="43.294833" lon="-4.173900">
        <ele>799.0</ele>
        <time>2015-05-23T14:20:43Z</time>
      </trkpt>
      <trkpt lat="43.294833" lon="-4.174017">
        <ele>799.0</ele>
        <time>2015-05-23T14:20:44Z</time>
      </trkpt>
      <trkpt lat="43.294833" lon="-4.174150">
        <ele>799.0</ele>
        <time>2015-05-23T14:20:45Z</time>
      </trkpt>
      <trkpt lat="43.294833" lon="-4.174283">
        <ele>798.0</ele>
        <time>2015-05-23T14:20:46Z</time>
      </trkpt>
      <trkpt lat="43.294817" lon="-4.174400">
        <ele>798.0</ele>
        <time>2015-05-23T14:20:47Z</time>
      </trkpt>
      <trkpt lat="43.294817" lon="-4.174533">
        <ele>797.0</ele>
        <time>2015-05-23T14:20:48Z</time>
      </trkpt>
      <trkpt lat="43.294817" lon="-4.174667">
        <ele>797.0</ele>
        <time>2015-05-23T14:20:49Z</time>
      </trkpt>
      <trkpt lat="43.294800" lon="-4.174800">
        <ele>796.0</ele>
        <time>2015-05-23T14:20:50Z</time>
      </trkpt>
      <trkpt lat="43.294800" lon="-4.174933">
        <ele>795.0</ele>
        <time>2015-05-23T14:20:51Z</time>
      </trkpt>
      <trkpt lat="43.294800" lon="-4.175067">
        <ele>794.0</ele>
        <time>2015-05-23T14:20:52Z</time>
      </trkpt>
      <trkpt lat="43.294783" lon="-4.175200">
        <ele>793.0</ele>
        <time>2015-05-23T14:20:53Z</time>
      </trkpt>
      <trkpt lat="43.294767" lon="-4.175350">
        <ele>792.0</ele>
        <time>2015-05-23T14:20:54Z</time>
      </trkpt>
      <trkpt lat="43.294750" lon="-4.175500">
        <ele>792.0</ele>
        <time>2015-05-23T14:20:55Z</time>
      </trkpt>
      <trkpt lat="43.294733" lon="-4.175617">
        <ele>791.0</ele>
        <time>2015-05-23T14:20:56Z</time>
      </trkpt>
      <trkpt lat="43.294717" lon="-4.175750">
        <ele>790.0</ele>
        <time>2015-05-23T14:20:57Z</time>
      </trkpt>
      <trkpt lat="43.294717" lon="-4.175867">
        <ele>789.0</ele>
        <time>2015-05-23T14:20:58Z</time>
      </trkpt>
      <trkpt lat="43.294700" lon="-4.176017">
        <ele>787.0</ele>
        <time>2015-05-23T14:20:59Z</time>
      </trkpt>
      <trkpt lat="43.294700" lon="-4.176150">
        <ele>785.0</ele>
        <time>2015-05-23T14:21:00Z</time>
      </trkpt>
      <trkpt lat="43.294683" lon="-4.176300">
        <ele>783.0</ele>
        <time>2015-05-23T14:21:01Z</time>
      </trkpt>
      <trkpt lat="43.294667" lon="-4.176450">
        <ele>782.0</ele>
        <time>2015-05-23T14:21:02Z</time>
      </trkpt>
      <trkpt lat="43.294667" lon="-4.176583">
        <ele>781.0</ele>
        <time>2015-05-23T14:21:03Z</time>
      </trkpt>
      <trkpt lat="43.294650" lon="-4.176700">
        <ele>781.0</ele>
        <time>2015-05-23T14:21:04Z</time>
      </trkpt>
      <trkpt lat="43.294633" lon="-4.176833">
        <ele>783.0</ele>
        <time>2015-05-23T14:21:05Z</time>
      </trkpt>
      <trkpt lat="43.294633" lon="-4.176950">
        <ele>783.0</ele>
        <time>2015-05-23T14:21:06Z</time>
      </trkpt>
      <trkpt lat="43.294633" lon="-4.177067">
        <ele>782.0</ele>
        <time>2015-05-23T14:21:07Z</time>
      </trkpt>
      <trkpt lat="43.294617" lon="-4.177200">
        <ele>781.0</ele>
        <time>2015-05-23T14:21:08Z</time>
      </trkpt>
      <trkpt lat="43.294600" lon="-4.177317">
        <ele>781.0</ele>
        <time>2015-05-23T14:21:09Z</time>
      </trkpt>
      <trkpt lat="43.294583" lon="-4.177433">
        <ele>781.0</ele>
        <time>2015-05-23T14:21:10Z</time>
      </trkpt>
      <trkpt lat="43.294550" lon="-4.177550">
        <ele>780.0</ele>
        <time>2015-05-23T14:21:11Z</time>
      </trkpt>
      <trkpt lat="43.294533" lon="-4.177667">
        <ele>780.0</ele>
        <time>2015-05-23T14:21:12Z</time>
      </trkpt>
      <trkpt lat="43.294500" lon="-4.177783">
        <ele>779.0</ele>
        <time>2015-05-23T14:21:13Z</time>
      </trkpt>
      <trkpt lat="43.294483" lon="-4.177917">
        <ele>779.0</ele>
        <time>2015-05-23T14:21:14Z</time>
      </trkpt>
      <trkpt lat="43.294467" lon="-4.178050">
        <ele>779.0</ele>
        <time>2015-05-23T14:21:15Z</time>
      </trkpt>
      <trkpt lat="43.294450" lon="-4.178167">
        <ele>779.0</ele>
        <time>2015-05-23T14:21:16Z</time>
      </trkpt>
      <trkpt lat="43.294433" lon="-4.178283">
        <ele>778.0</ele>
        <time>2015-05-23T14:21:17Z</time>
      </trkpt>
      <trkpt lat="43.294450" lon="-4.178383">
        <ele>778.0</ele>
        <time>2015-05-23T14:21:18Z</time>
      </trkpt>
      <trkpt lat="43.294450" lon="-4.178500">
        <ele>777.0</ele>
        <time>2015-05-23T14:21:19Z</time>
      </trkpt>
      <trkpt lat="43.294450" lon="-4.178617">
        <ele>776.0</ele>
        <time>2015-05-23T14:21:20Z</time>
      </trkpt>
      <trkpt lat="43.294433" lon="-4.178733">
        <ele>774.0</ele>
        <time>2015-05-23T14:21:21Z</time>
      </trkpt>
      <trkpt lat="43.294417" lon="-4.178850">
        <ele>773.0</ele>
        <time>2015-05-23T14:21:22Z</time>
      </trkpt>
      <trkpt lat="43.294400" lon="-4.178967">
        <ele>772.0</ele>
        <time>2015-05-23T14:21:23Z</time>
      </trkpt>
      <trkpt lat="43.294383" lon="-4.179083">
        <ele>771.0</ele>
        <time>2015-05-23T14:21:24Z</time>
      </trkpt>
      <trkpt lat="43.294350" lon="-4.179217">
        <ele>769.0</ele>
        <time>2015-05-23T14:21:25Z</time>
      </trkpt>
      <trkpt lat="43.294350" lon="-4.179333">
        <ele>767.0</ele>
        <time>2015-05-23T14:21:26Z</time>
      </trkpt>
      <trkpt lat="43.294333" lon="-4.179467">
        <ele>765.0</ele>
        <time>2015-05-23T14:21:27Z</time>
      </trkpt>
      <trkpt lat="43.294317" lon="-4.179583">
        <ele>763.0</ele>
        <time>2015-05-23T14:21:28Z</time>
      </trkpt>
      <trkpt lat="43.294283" lon="-4.179700">
        <ele>762.0</ele>
        <time>2015-05-23T14:21:29Z</time>
      </trkpt>
      <trkpt lat="43.294267" lon="-4.179817">
        <ele>760.0</ele>
        <time>2015-05-23T14:21:30Z</time>
      </trkpt>
      <trkpt lat="43.294250" lon="-4.179933">
        <ele>759.0</ele>
        <time>2015-05-23T14:21:31Z</time>
      </trkpt>
      <trkpt lat="43.294233" lon="-4.180050">
        <ele>757.0</ele>
        <time>2015-05-23T14:21:32Z</time>
      </trkpt>
      <trkpt lat="43.294233" lon="-4.180167">
        <ele>759.0</ele>
        <time>2015-05-23T14:21:33Z</time>
      </trkpt>
      <trkpt lat="43.294217" lon="-4.180283">
        <ele>758.0</ele>
        <time>2015-05-23T14:21:34Z</time>
      </trkpt>
      <trkpt lat="43.294200" lon="-4.180417">
        <ele>757.0</ele>
        <time>2015-05-23T14:21:35Z</time>
      </trkpt>
      <trkpt lat="43.294183" lon="-4.180517">
        <ele>757.0</ele>
        <time>2015-05-23T14:21:36Z</time>
      </trkpt>
      <trkpt lat="43.294167" lon="-4.180633">
        <ele>756.0</ele>
        <time>2015-05-23T14:21:37Z</time>
      </trkpt>
      <trkpt lat="43.294167" lon="-4.180750">
        <ele>755.0</ele>
        <time>2015-05-23T14:21:38Z</time>
      </trkpt>
      <trkpt lat="43.294150" lon="-4.180867">
        <ele>754.0</ele>
        <time>2015-05-23T14:21:39Z</time>
      </trkpt>
      <trkpt lat="43.294133" lon="-4.180967">
        <ele>752.0</ele>
        <time>2015-05-23T14:21:40Z</time>
      </trkpt>
      <trkpt lat="43.294100" lon="-4.181083">
        <ele>748.0</ele>
        <time>2015-05-23T14:21:41Z</time>
      </trkpt>
      <trkpt lat="43.294067" lon="-4.181200">
        <ele>746.0</ele>
        <time>2015-05-23T14:21:42Z</time>
      </trkpt>
      <trkpt lat="43.294033" lon="-4.181333">
        <ele>744.0</ele>
        <time>2015-05-23T14:21:43Z</time>
      </trkpt>
      <trkpt lat="43.293983" lon="-4.181433">
        <ele>742.0</ele>
        <time>2015-05-23T14:21:44Z</time>
      </trkpt>
      <trkpt lat="43.293933" lon="-4.181550">
        <ele>739.0</ele>
        <time>2015-05-23T14:21:45Z</time>
      </trkpt>
      <trkpt lat="43.293883" lon="-4.181667">
        <ele>737.0</ele>
        <time>2015-05-23T14:21:46Z</time>
      </trkpt>
      <trkpt lat="43.293833" lon="-4.181783">
        <ele>735.0</ele>
        <time>2015-05-23T14:21:47Z</time>
      </trkpt>
      <trkpt lat="43.293800" lon="-4.181917">
        <ele>733.0</ele>
        <time>2015-05-23T14:21:48Z</time>
      </trkpt>
      <trkpt lat="43.293767" lon="-4.182050">
        <ele>732.0</ele>
        <time>2015-05-23T14:21:49Z</time>
      </trkpt>
      <trkpt lat="43.293733" lon="-4.182167">
        <ele>730.0</ele>
        <time>2015-05-23T14:21:50Z</time>
      </trkpt>
      <trkpt lat="43.293700" lon="-4.182283">
        <ele>727.0</ele>
        <time>2015-05-23T14:21:51Z</time>
      </trkpt>
      <trkpt lat="43.293667" lon="-4.182400">
        <ele>725.0</ele>
        <time>2015-05-23T14:21:52Z</time>
      </trkpt>
      <trkpt lat="43.293617" lon="-4.182533">
        <ele>722.0</ele>
        <time>2015-05-23T14:21:53Z</time>
      </trkpt>
      <trkpt lat="43.293567" lon="-4.182650">
        <ele>720.0</ele>
        <time>2015-05-23T14:21:54Z</time>
      </trkpt>
      <trkpt lat="43.293500" lon="-4.182783">
        <ele>717.0</ele>
        <time>2015-05-23T14:21:55Z</time>
      </trkpt>
      <trkpt lat="43.293433" lon="-4.182900">
        <ele>716.0</ele>
        <time>2015-05-23T14:21:56Z</time>
      </trkpt>
      <trkpt lat="43.293400" lon="-4.183017">
        <ele>714.0</ele>
        <time>2015-05-23T14:21:57Z</time>
      </trkpt>
      <trkpt lat="43.293350" lon="-4.183133">
        <ele>713.0</ele>
        <time>2015-05-23T14:21:58Z</time>
      </trkpt>
      <trkpt lat="43.293317" lon="-4.183250">
        <ele>710.0</ele>
        <time>2015-05-23T14:21:59Z</time>
      </trkpt>
      <trkpt lat="43.293267" lon="-4.183400">
        <ele>708.0</ele>
        <time>2015-05-23T14:22:00Z</time>
      </trkpt>
      <trkpt lat="43.293217" lon="-4.183533">
        <ele>706.0</ele>
        <time>2015-05-23T14:22:01Z</time>
      </trkpt>
      <trkpt lat="43.293167" lon="-4.183667">
        <ele>705.0</ele>
        <time>2015-05-23T14:22:02Z</time>
      </trkpt>
      <trkpt lat="43.293133" lon="-4.183783">
        <ele>703.0</ele>
        <time>2015-05-23T14:22:03Z</time>
      </trkpt>
      <trkpt lat="43.293083" lon="-4.183900">
        <ele>702.0</ele>
        <time>2015-05-23T14:22:04Z</time>
      </trkpt>
      <trkpt lat="43.293033" lon="-4.184017">
        <ele>700.0</ele>
        <time>2015-05-23T14:22:05Z</time>
      </trkpt>
      <trkpt lat="43.293000" lon="-4.184117">
        <ele>705.0</ele>
        <time>2015-05-23T14:22:06Z</time>
      </trkpt>
      <trkpt lat="43.292950" lon="-4.184233">
        <ele>705.0</ele>
        <time>2015-05-23T14:22:07Z</time>
      </trkpt>
      <trkpt lat="43.292883" lon="-4.184367">
        <ele>703.0</ele>
        <time>2015-05-23T14:22:08Z</time>
      </trkpt>
      <trkpt lat="43.292817" lon="-4.184517">
        <ele>702.0</ele>
        <time>2015-05-23T14:22:09Z</time>
      </trkpt>
      <trkpt lat="43.292750" lon="-4.184633">
        <ele>700.0</ele>
        <time>2015-05-23T14:22:10Z</time>
      </trkpt>
      <trkpt lat="43.292683" lon="-4.184750">
        <ele>699.0</ele>
        <time>2015-05-23T14:22:11Z</time>
      </trkpt>
      <trkpt lat="43.292617" lon="-4.184867">
        <ele>698.0</ele>
        <time>2015-05-23T14:22:12Z</time>
      </trkpt>
      <trkpt lat="43.292567" lon="-4.184983">
        <ele>697.0</ele>
        <time>2015-05-23T14:22:13Z</time>
      </trkpt>
      <trkpt lat="43.292517" lon="-4.185100">
        <ele>696.0</ele>
        <time>2015-05-23T14:22:14Z</time>
      </trkpt>
      <trkpt lat="43.292450" lon="-4.185217">
        <ele>695.0</ele>
        <time>2015-05-23T14:22:15Z</time>
      </trkpt>
      <trkpt lat="43.292383" lon="-4.185333">
        <ele>695.0</ele>
        <time>2015-05-23T14:22:16Z</time>
      </trkpt>
      <trkpt lat="43.292333" lon="-4.185450">
        <ele>694.0</ele>
        <time>2015-05-23T14:22:17Z</time>
      </trkpt>
      <trkpt lat="43.292283" lon="-4.185567">
        <ele>693.0</ele>
        <time>2015-05-23T14:22:18Z</time>
      </trkpt>
      <trkpt lat="43.292233" lon="-4.185683">
        <ele>693.0</ele>
        <time>2015-05-23T14:22:19Z</time>
      </trkpt>
      <trkpt lat="43.292200" lon="-4.185800">
        <ele>692.0</ele>
        <time>2015-05-23T14:22:20Z</time>
      </trkpt>
      <trkpt lat="43.292167" lon="-4.185917">
        <ele>691.0</ele>
        <time>2015-05-23T14:22:21Z</time>
      </trkpt>
      <trkpt lat="43.292133" lon="-4.186033">
        <ele>690.0</ele>
        <time>2015-05-23T14:22:22Z</time>
      </trkpt>
      <trkpt lat="43.292100" lon="-4.186150">
        <ele>689.0</ele>
        <time>2015-05-23T14:22:23Z</time>
      </trkpt>
      <trkpt lat="43.292050" lon="-4.186283">
        <ele>688.0</ele>
        <time>2015-05-23T14:22:24Z</time>
      </trkpt>
      <trkpt lat="43.292017" lon="-4.186400">
        <ele>686.0</ele>
        <time>2015-05-23T14:22:25Z</time>
      </trkpt>
      <trkpt lat="43.291983" lon="-4.186533">
        <ele>685.0</ele>
        <time>2015-05-23T14:22:26Z</time>
      </trkpt>
      <trkpt lat="43.291967" lon="-4.186650">
        <ele>685.0</ele>
        <time>2015-05-23T14:22:27Z</time>
      </trkpt>
      <trkpt lat="43.291933" lon="-4.186750">
        <ele>686.0</ele>
        <time>2015-05-23T14:22:28Z</time>
      </trkpt>
      <trkpt lat="43.291917" lon="-4.186850">
        <ele>685.0</ele>
        <time>2015-05-23T14:22:29Z</time>
      </trkpt>
      <trkpt lat="43.291900" lon="-4.186917">
        <ele>685.0</ele>
        <time>2015-05-23T14:22:30Z</time>
      </trkpt>
      <trkpt lat="43.291900" lon="-4.186983">
        <ele>685.0</ele>
        <time>2015-05-23T14:22:31Z</time>
      </trkpt>
      <trkpt lat="43.291900" lon="-4.187050">
        <ele>685.0</ele>
        <time>2015-05-23T14:22:32Z</time>
      </trkpt>
      <trkpt lat="43.291917" lon="-4.187100">
        <ele>685.0</ele>
        <time>2015-05-23T14:22:33Z</time>
      </trkpt>
      <trkpt lat="43.291933" lon="-4.187150">
        <ele>685.0</ele>
        <time>2015-05-23T14:22:34Z</time>
      </trkpt>
      <trkpt lat="43.291967" lon="-4.187200">
        <ele>685.0</ele>
        <time>2015-05-23T14:22:35Z</time>
      </trkpt>
      <trkpt lat="43.292000" lon="-4.187217">
        <ele>685.0</ele>
        <time>2015-05-23T14:22:36Z</time>
      </trkpt>
      <trkpt lat="43.292050" lon="-4.187217">
        <ele>684.0</ele>
        <time>2015-05-23T14:22:37Z</time>
      </trkpt>
      <trkpt lat="43.292083" lon="-4.187183">
        <ele>684.0</ele>
        <time>2015-05-23T14:22:38Z</time>
      </trkpt>
      <trkpt lat="43.292117" lon="-4.187100">
        <ele>684.0</ele>
        <time>2015-05-23T14:22:39Z</time>
      </trkpt>
      <trkpt lat="43.292117" lon="-4.187017">
        <ele>684.0</ele>
        <time>2015-05-23T14:22:40Z</time>
      </trkpt>
      <trkpt lat="43.292117" lon="-4.186933">
        <ele>684.0</ele>
        <time>2015-05-23T14:22:41Z</time>
      </trkpt>
      <trkpt lat="43.292100" lon="-4.186850">
        <ele>684.0</ele>
        <time>2015-05-23T14:22:42Z</time>
      </trkpt>
      <trkpt lat="43.292067" lon="-4.186733">
        <ele>683.0</ele>
        <time>2015-05-23T14:22:43Z</time>
      </trkpt>
      <trkpt lat="43.292017" lon="-4.186633">
        <ele>683.0</ele>
        <time>2015-05-23T14:22:44Z</time>
      </trkpt>
      <trkpt lat="43.291950" lon="-4.186533">
        <ele>683.0</ele>
        <time>2015-05-23T14:22:45Z</time>
      </trkpt>
      <trkpt lat="43.291883" lon="-4.186450">
        <ele>683.0</ele>
        <time>2015-05-23T14:22:46Z</time>
      </trkpt>
      <trkpt lat="43.291783" lon="-4.186400">
        <ele>683.0</ele>
        <time>2015-05-23T14:22:47Z</time>
      </trkpt>
      <trkpt lat="43.291683" lon="-4.186383">
        <ele>683.0</ele>
        <time>2015-05-23T14:22:48Z</time>
      </trkpt>
      <trkpt lat="43.291600" lon="-4.186367">
        <ele>683.0</ele>
        <time>2015-05-23T14:22:49Z</time>
      </trkpt>
      <trkpt lat="43.291500" lon="-4.186400">
        <ele>683.0</ele>
        <time>2015-05-23T14:22:50Z</time>
      </trkpt>
      <trkpt lat="43.291417" lon="-4.186433">
        <ele>683.0</ele>
        <time>2015-05-23T14:22:51Z</time>
      </trkpt>
      <trkpt lat="43.291350" lon="-4.186483">
        <ele>683.0</ele>
        <time>2015-05-23T14:22:52Z</time>
      </trkpt>
      <trkpt lat="43.291267" lon="-4.186533">
        <ele>683.0</ele>
        <time>2015-05-23T14:22:53Z</time>
      </trkpt>
      <trkpt lat="43.291183" lon="-4.186583">
        <ele>682.0</ele>
        <time>2015-05-23T14:22:54Z</time>
      </trkpt>
      <trkpt lat="43.291100" lon="-4.186650">
        <ele>682.0</ele>
        <time>2015-05-23T14:22:55Z</time>
      </trkpt>
      <trkpt lat="43.291017" lon="-4.186733">
        <ele>682.0</ele>
        <time>2015-05-23T14:22:56Z</time>
      </trkpt>
      <trkpt lat="43.290950" lon="-4.186817">
        <ele>682.0</ele>
        <time>2015-05-23T14:22:57Z</time>
      </trkpt>
      <trkpt lat="43.290883" lon="-4.186883">
        <ele>681.0</ele>
        <time>2015-05-23T14:22:58Z</time>
      </trkpt>
      <trkpt lat="43.290833" lon="-4.186967">
        <ele>681.0</ele>
        <time>2015-05-23T14:22:59Z</time>
      </trkpt>
      <trkpt lat="43.290783" lon="-4.187067">
        <ele>681.0</ele>
        <time>2015-05-23T14:23:00Z</time>
      </trkpt>
      <trkpt lat="43.290733" lon="-4.187150">
        <ele>681.0</ele>
        <time>2015-05-23T14:23:01Z</time>
      </trkpt>
      <trkpt lat="43.290700" lon="-4.187250">
        <ele>680.0</ele>
        <time>2015-05-23T14:23:02Z</time>
      </trkpt>
      <trkpt lat="43.290650" lon="-4.187350">
        <ele>680.0</ele>
        <time>2015-05-23T14:23:03Z</time>
      </trkpt>
      <trkpt lat="43.290600" lon="-4.187433">
        <ele>680.0</ele>
        <time>2015-05-23T14:23:04Z</time>
      </trkpt>
      <trkpt lat="43.290567" lon="-4.187533">
        <ele>680.0</ele>
        <time>2015-05-23T14:23:05Z</time>
      </trkpt>
      <trkpt lat="43.290517" lon="-4.187633">
        <ele>680.0</ele>
        <time>2015-05-23T14:23:06Z</time>
      </trkpt>
      <trkpt lat="43.290500" lon="-4.187733">
        <ele>679.0</ele>
        <time>2015-05-23T14:23:07Z</time>
      </trkpt>
      <trkpt lat="43.290467" lon="-4.187833">
        <ele>679.0</ele>
        <time>2015-05-23T14:23:08Z</time>
      </trkpt>
      <trkpt lat="43.290450" lon="-4.187933">
        <ele>679.0</ele>
        <time>2015-05-23T14:23:09Z</time>
      </trkpt>
      <trkpt lat="43.290433" lon="-4.188067">
        <ele>679.0</ele>
        <time>2015-05-23T14:23:10Z</time>
      </trkpt>
      <trkpt lat="43.290417" lon="-4.188167">
        <ele>679.0</ele>
        <time>2015-05-23T14:23:11Z</time>
      </trkpt>
      <trkpt lat="43.290400" lon="-4.188283">
        <ele>679.0</ele>
        <time>2015-05-23T14:23:12Z</time>
      </trkpt>
      <trkpt lat="43.290400" lon="-4.188383">
        <ele>680.0</ele>
        <time>2015-05-23T14:23:13Z</time>
      </trkpt>
      <trkpt lat="43.290400" lon="-4.188450">
        <ele>682.0</ele>
        <time>2015-05-23T14:23:14Z</time>
      </trkpt>
      <trkpt lat="43.290400" lon="-4.188517">
        <ele>683.0</ele>
        <time>2015-05-23T14:23:15Z</time>
      </trkpt>
      <trkpt lat="43.290383" lon="-4.188583">
        <ele>682.0</ele>
        <time>2015-05-23T14:23:16Z</time>
      </trkpt>
      <trkpt lat="43.290383" lon="-4.188633">
        <ele>683.0</ele>
        <time>2015-05-23T14:23:17Z</time>
      </trkpt>
      <trkpt lat="43.290383" lon="-4.188700">
        <ele>684.0</ele>
        <time>2015-05-23T14:23:18Z</time>
      </trkpt>
      <trkpt lat="43.290367" lon="-4.188783">
        <ele>684.0</ele>
        <time>2015-05-23T14:23:19Z</time>
      </trkpt>
      <trkpt lat="43.290333" lon="-4.188883">
        <ele>684.0</ele>
        <time>2015-05-23T14:23:20Z</time>
      </trkpt>
      <trkpt lat="43.290300" lon="-4.189000">
        <ele>685.0</ele>
        <time>2015-05-23T14:23:21Z</time>
      </trkpt>
      <trkpt lat="43.290217" lon="-4.189083">
        <ele>686.0</ele>
        <time>2015-05-23T14:23:22Z</time>
      </trkpt>
      <trkpt lat="43.290133" lon="-4.189183">
        <ele>687.0</ele>
        <time>2015-05-23T14:23:23Z</time>
      </trkpt>
      <trkpt lat="43.290050" lon="-4.189233">
        <ele>689.0</ele>
        <time>2015-05-23T14:23:24Z</time>
      </trkpt>
      <trkpt lat="43.289950" lon="-4.189283">
        <ele>691.0</ele>
        <time>2015-05-23T14:23:25Z</time>
      </trkpt>
      <trkpt lat="43.289867" lon="-4.189283">
        <ele>693.0</ele>
        <time>2015-05-23T14:23:26Z</time>
      </trkpt>
      <trkpt lat="43.289800" lon="-4.189250">
        <ele>694.0</ele>
        <time>2015-05-23T14:23:27Z</time>
      </trkpt>
      <trkpt lat="43.289717" lon="-4.189217">
        <ele>696.0</ele>
        <time>2015-05-23T14:23:28Z</time>
      </trkpt>
      <trkpt lat="43.289633" lon="-4.189183">
        <ele>697.0</ele>
        <time>2015-05-23T14:23:29Z</time>
      </trkpt>
      <trkpt lat="43.289583" lon="-4.189133">
        <ele>698.0</ele>
        <time>2015-05-23T14:23:30Z</time>
      </trkpt>
      <trkpt lat="43.289533" lon="-4.189067">
        <ele>698.0</ele>
        <time>2015-05-23T14:23:31Z</time>
      </trkpt>
      <trkpt lat="43.289500" lon="-4.188983">
        <ele>699.0</ele>
        <time>2015-05-23T14:23:32Z</time>
      </trkpt>
      <trkpt lat="43.289483" lon="-4.188900">
        <ele>700.0</ele>
        <time>2015-05-23T14:23:33Z</time>
      </trkpt>
      <trkpt lat="43.289467" lon="-4.188817">
        <ele>701.0</ele>
        <time>2015-05-23T14:23:34Z</time>
      </trkpt>
      <trkpt lat="43.289483" lon="-4.188750">
        <ele>702.0</ele>
        <time>2015-05-23T14:23:35Z</time>
      </trkpt>
      <trkpt lat="43.289500" lon="-4.188700">
        <ele>704.0</ele>
        <time>2015-05-23T14:23:36Z</time>
      </trkpt>
      <trkpt lat="43.289517" lon="-4.188667">
        <ele>706.0</ele>
        <time>2015-05-23T14:23:37Z</time>
      </trkpt>
      <trkpt lat="43.289550" lon="-4.188650">
        <ele>708.0</ele>
        <time>2015-05-23T14:23:38Z</time>
      </trkpt>
      <trkpt lat="43.289567" lon="-4.188633">
        <ele>710.0</ele>
        <time>2015-05-23T14:23:39Z</time>
      </trkpt>
      <trkpt lat="43.289600" lon="-4.188617">
        <ele>711.0</ele>
        <time>2015-05-23T14:23:40Z</time>
      </trkpt>
      <trkpt lat="43.289633" lon="-4.188617">
        <ele>713.0</ele>
        <time>2015-05-23T14:23:41Z</time>
      </trkpt>
      <trkpt lat="43.289650" lon="-4.188617">
        <ele>714.0</ele>
        <time>2015-05-23T14:23:42Z</time>
      </trkpt>
      <trkpt lat="43.289667" lon="-4.188667">
        <ele>715.0</ele>
        <time>2015-05-23T14:23:43Z</time>
      </trkpt>
      <trkpt lat="43.289683" lon="-4.188733">
        <ele>715.0</ele>
        <time>2015-05-23T14:23:44Z</time>
      </trkpt>
      <trkpt lat="43.289667" lon="-4.188817">
        <ele>716.0</ele>
        <time>2015-05-23T14:23:45Z</time>
      </trkpt>
      <trkpt lat="43.289650" lon="-4.188900">
        <ele>717.0</ele>
        <time>2015-05-23T14:23:46Z</time>
      </trkpt>
      <trkpt lat="43.289633" lon="-4.188983">
        <ele>717.0</ele>
        <time>2015-05-23T14:23:47Z</time>
      </trkpt>
      <trkpt lat="43.289600" lon="-4.189083">
        <ele>718.0</ele>
        <time>2015-05-23T14:23:48Z</time>
      </trkpt>
      <trkpt lat="43.289550" lon="-4.189167">
        <ele>718.0</ele>
        <time>2015-05-23T14:23:49Z</time>
      </trkpt>
      <trkpt lat="43.289500" lon="-4.189267">
        <ele>717.0</ele>
        <time>2015-05-23T14:23:50Z</time>
      </trkpt>
      <trkpt lat="43.289450" lon="-4.189367">
        <ele>718.0</ele>
        <time>2015-05-23T14:23:51Z</time>
      </trkpt>
      <trkpt lat="43.289383" lon="-4.189467">
        <ele>719.0</ele>
        <time>2015-05-23T14:23:52Z</time>
      </trkpt>
      <trkpt lat="43.289300" lon="-4.189533">
        <ele>719.0</ele>
        <time>2015-05-23T14:23:53Z</time>
      </trkpt>
      <trkpt lat="43.289200" lon="-4.189600">
        <ele>720.0</ele>
        <time>2015-05-23T14:23:54Z</time>
      </trkpt>
      <trkpt lat="43.289083" lon="-4.189633">
        <ele>721.0</ele>
        <time>2015-05-23T14:23:55Z</time>
      </trkpt>
      <trkpt lat="43.288983" lon="-4.189633">
        <ele>723.0</ele>
        <time>2015-05-23T14:23:56Z</time>
      </trkpt>
      <trkpt lat="43.288883" lon="-4.189600">
        <ele>726.0</ele>
        <time>2015-05-23T14:23:57Z</time>
      </trkpt>
      <trkpt lat="43.288800" lon="-4.189567">
        <ele>727.0</ele>
        <time>2015-05-23T14:23:58Z</time>
      </trkpt>
      <trkpt lat="43.288717" lon="-4.189533">
        <ele>729.0</ele>
        <time>2015-05-23T14:23:59Z</time>
      </trkpt>
      <trkpt lat="43.288633" lon="-4.189467">
        <ele>730.0</ele>
        <time>2015-05-23T14:24:00Z</time>
      </trkpt>
      <trkpt lat="43.288567" lon="-4.189400">
        <ele>731.0</ele>
        <time>2015-05-23T14:24:01Z</time>
      </trkpt>
      <trkpt lat="43.288517" lon="-4.189300">
        <ele>733.0</ele>
        <time>2015-05-23T14:24:02Z</time>
      </trkpt>
      <trkpt lat="43.288467" lon="-4.189217">
        <ele>735.0</ele>
        <time>2015-05-23T14:24:03Z</time>
      </trkpt>
      <trkpt lat="43.288433" lon="-4.189117">
        <ele>736.0</ele>
        <time>2015-05-23T14:24:04Z</time>
      </trkpt>
      <trkpt lat="43.288417" lon="-4.189033">
        <ele>738.0</ele>
        <time>2015-05-23T14:24:05Z</time>
      </trkpt>
      <trkpt lat="43.288433" lon="-4.188967">
        <ele>739.0</ele>
        <time>2015-05-23T14:24:06Z</time>
      </trkpt>
      <trkpt lat="43.288450" lon="-4.188917">
        <ele>740.0</ele>
        <time>2015-05-23T14:24:07Z</time>
      </trkpt>
      <trkpt lat="43.288483" lon="-4.188900">
        <ele>741.0</ele>
        <time>2015-05-23T14:24:08Z</time>
      </trkpt>
      <trkpt lat="43.288500" lon="-4.188900">
        <ele>742.0</ele>
        <time>2015-05-23T14:24:09Z</time>
      </trkpt>
      <trkpt lat="43.288533" lon="-4.188933">
        <ele>743.0</ele>
        <time>2015-05-23T14:24:10Z</time>
      </trkpt>
      <trkpt lat="43.288550" lon="-4.188983">
        <ele>743.0</ele>
        <time>2015-05-23T14:24:11Z</time>
      </trkpt>
      <trkpt lat="43.288567" lon="-4.189033">
        <ele>744.0</ele>
        <time>2015-05-23T14:24:12Z</time>
      </trkpt>
      <trkpt lat="43.288583" lon="-4.189100">
        <ele>744.0</ele>
        <time>2015-05-23T14:24:13Z</time>
      </trkpt>
      <trkpt lat="43.288583" lon="-4.189167">
        <ele>744.0</ele>
        <time>2015-05-23T14:24:14Z</time>
      </trkpt>
      <trkpt lat="43.288583" lon="-4.189267">
        <ele>745.0</ele>
        <time>2015-05-23T14:24:15Z</time>
      </trkpt>
      <trkpt lat="43.288583" lon="-4.189367">
        <ele>745.0</ele>
        <time>2015-05-23T14:24:16Z</time>
      </trkpt>
      <trkpt lat="43.288567" lon="-4.189467">
        <ele>746.0</ele>
        <time>2015-05-23T14:24:17Z</time>
      </trkpt>
      <trkpt lat="43.288533" lon="-4.189550">
        <ele>746.0</ele>
        <time>2015-05-23T14:24:18Z</time>
      </trkpt>
      <trkpt lat="43.288483" lon="-4.189650">
        <ele>747.0</ele>
        <time>2015-05-23T14:24:19Z</time>
      </trkpt>
      <trkpt lat="43.288433" lon="-4.189733">
        <ele>748.0</ele>
        <time>2015-05-23T14:24:20Z</time>
      </trkpt>
      <trkpt lat="43.288383" lon="-4.189833">
        <ele>749.0</ele>
        <time>2015-05-23T14:24:21Z</time>
      </trkpt>
      <trkpt lat="43.288300" lon="-4.189917">
        <ele>749.0</ele>
        <time>2015-05-23T14:24:22Z</time>
      </trkpt>
      <trkpt lat="43.288217" lon="-4.190000">
        <ele>750.0</ele>
        <time>2015-05-23T14:24:23Z</time>
      </trkpt>
      <trkpt lat="43.288117" lon="-4.190067">
        <ele>751.0</ele>
        <time>2015-05-23T14:24:24Z</time>
      </trkpt>
      <trkpt lat="43.288000" lon="-4.190100">
        <ele>756.0</ele>
        <time>2015-05-23T14:24:25Z</time>
      </trkpt>
      <trkpt lat="43.287900" lon="-4.190100">
        <ele>759.0</ele>
        <time>2015-05-23T14:24:26Z</time>
      </trkpt>
      <trkpt lat="43.287800" lon="-4.190067">
        <ele>762.0</ele>
        <time>2015-05-23T14:24:27Z</time>
      </trkpt>
      <trkpt lat="43.287717" lon="-4.190033">
        <ele>765.0</ele>
        <time>2015-05-23T14:24:28Z</time>
      </trkpt>
      <trkpt lat="43.287633" lon="-4.189983">
        <ele>767.0</ele>
        <time>2015-05-23T14:24:29Z</time>
      </trkpt>
      <trkpt lat="43.287567" lon="-4.189933">
        <ele>770.0</ele>
        <time>2015-05-23T14:24:30Z</time>
      </trkpt>
      <trkpt lat="43.287500" lon="-4.189883">
        <ele>772.0</ele>
        <time>2015-05-23T14:24:31Z</time>
      </trkpt>
      <trkpt lat="43.287467" lon="-4.189817">
        <ele>772.0</ele>
        <time>2015-05-23T14:24:32Z</time>
      </trkpt>
      <trkpt lat="43.287467" lon="-4.189733">
        <ele>773.0</ele>
        <time>2015-05-23T14:24:33Z</time>
      </trkpt>
      <trkpt lat="43.287467" lon="-4.189683">
        <ele>774.0</ele>
        <time>2015-05-23T14:24:34Z</time>
      </trkpt>
      <trkpt lat="43.287500" lon="-4.189667">
        <ele>775.0</ele>
        <time>2015-05-23T14:24:35Z</time>
      </trkpt>
      <trkpt lat="43.287533" lon="-4.189683">
        <ele>776.0</ele>
        <time>2015-05-23T14:24:36Z</time>
      </trkpt>
      <trkpt lat="43.287567" lon="-4.189733">
        <ele>777.0</ele>
        <time>2015-05-23T14:24:37Z</time>
      </trkpt>
      <trkpt lat="43.287583" lon="-4.189800">
        <ele>778.0</ele>
        <time>2015-05-23T14:24:38Z</time>
      </trkpt>
      <trkpt lat="43.287600" lon="-4.189883">
        <ele>780.0</ele>
        <time>2015-05-23T14:24:39Z</time>
      </trkpt>
      <trkpt lat="43.287617" lon="-4.189950">
        <ele>782.0</ele>
        <time>2015-05-23T14:24:40Z</time>
      </trkpt>
      <trkpt lat="43.287633" lon="-4.190017">
        <ele>784.0</ele>
        <time>2015-05-23T14:24:41Z</time>
      </trkpt>
      <trkpt lat="43.287650" lon="-4.190083">
        <ele>785.0</ele>
        <time>2015-05-23T14:24:42Z</time>
      </trkpt>
      <trkpt lat="43.287667" lon="-4.190150">
        <ele>787.0</ele>
        <time>2015-05-23T14:24:43Z</time>
      </trkpt>
      <trkpt lat="43.287667" lon="-4.190217">
        <ele>785.0</ele>
        <time>2015-05-23T14:24:44Z</time>
      </trkpt>
      <trkpt lat="43.287683" lon="-4.190300">
        <ele>786.0</ele>
        <time>2015-05-23T14:24:45Z</time>
      </trkpt>
      <trkpt lat="43.287700" lon="-4.190383">
        <ele>787.0</ele>
        <time>2015-05-23T14:24:46Z</time>
      </trkpt>
      <trkpt lat="43.287700" lon="-4.190467">
        <ele>789.0</ele>
        <time>2015-05-23T14:24:47Z</time>
      </trkpt>
      <trkpt lat="43.287683" lon="-4.190567">
        <ele>790.0</ele>
        <time>2015-05-23T14:24:48Z</time>
      </trkpt>
      <trkpt lat="43.287667" lon="-4.190683">
        <ele>791.0</ele>
        <time>2015-05-23T14:24:49Z</time>
      </trkpt>
      <trkpt lat="43.287633" lon="-4.190783">
        <ele>792.0</ele>
        <time>2015-05-23T14:24:50Z</time>
      </trkpt>
      <trkpt lat="43.287583" lon="-4.190883">
        <ele>794.0</ele>
        <time>2015-05-23T14:24:51Z</time>
      </trkpt>
      <trkpt lat="43.287533" lon="-4.190967">
        <ele>795.0</ele>
        <time>2015-05-23T14:24:52Z</time>
      </trkpt>
      <trkpt lat="43.287483" lon="-4.191067">
        <ele>796.0</ele>
        <time>2015-05-23T14:24:53Z</time>
      </trkpt>
      <trkpt lat="43.287433" lon="-4.191150">
        <ele>797.0</ele>
        <time>2015-05-23T14:24:54Z</time>
      </trkpt>
      <trkpt lat="43.287367" lon="-4.191250">
        <ele>798.0</ele>
        <time>2015-05-23T14:24:55Z</time>
      </trkpt>
      <trkpt lat="43.287300" lon="-4.191333">
        <ele>798.0</ele>
        <time>2015-05-23T14:24:56Z</time>
      </trkpt>
      <trkpt lat="43.287200" lon="-4.191400">
        <ele>798.0</ele>
        <time>2015-05-23T14:24:57Z</time>
      </trkpt>
      <trkpt lat="43.287083" lon="-4.191467">
        <ele>798.0</ele>
        <time>2015-05-23T14:24:58Z</time>
      </trkpt>
      <trkpt lat="43.286967" lon="-4.191500">
        <ele>799.0</ele>
        <time>2015-05-23T14:24:59Z</time>
      </trkpt>
      <trkpt lat="43.286850" lon="-4.191500">
        <ele>800.0</ele>
        <time>2015-05-23T14:25:00Z</time>
      </trkpt>
      <trkpt lat="43.286750" lon="-4.191483">
        <ele>801.0</ele>
        <time>2015-05-23T14:25:01Z</time>
      </trkpt>
      <trkpt lat="43.286667" lon="-4.191433">
        <ele>800.0</ele>
        <time>2015-05-23T14:25:02Z</time>
      </trkpt>
      <trkpt lat="43.286583" lon="-4.191367">
        <ele>798.0</ele>
        <time>2015-05-23T14:25:03Z</time>
      </trkpt>
      <trkpt lat="43.286500" lon="-4.191300">
        <ele>798.0</ele>
        <time>2015-05-23T14:25:04Z</time>
      </trkpt>
      <trkpt lat="43.286433" lon="-4.191233">
        <ele>798.0</ele>
        <time>2015-05-23T14:25:05Z</time>
      </trkpt>
      <trkpt lat="43.286367" lon="-4.191167">
        <ele>799.0</ele>
        <time>2015-05-23T14:25:06Z</time>
      </trkpt>
      <trkpt lat="43.286317" lon="-4.191100">
        <ele>800.0</ele>
        <time>2015-05-23T14:25:07Z</time>
      </trkpt>
      <trkpt lat="43.286283" lon="-4.191033">
        <ele>800.0</ele>
        <time>2015-05-23T14:25:08Z</time>
      </trkpt>
      <trkpt lat="43.286250" lon="-4.190950">
        <ele>800.0</ele>
        <time>2015-05-23T14:25:09Z</time>
      </trkpt>
      <trkpt lat="43.286233" lon="-4.190850">
        <ele>800.0</ele>
        <time>2015-05-23T14:25:10Z</time>
      </trkpt>
      <trkpt lat="43.286217" lon="-4.190767">
        <ele>801.0</ele>
        <time>2015-05-23T14:25:11Z</time>
      </trkpt>
      <trkpt lat="43.286233" lon="-4.190683">
        <ele>801.0</ele>
        <time>2015-05-23T14:25:12Z</time>
      </trkpt>
      <trkpt lat="43.286250" lon="-4.190633">
        <ele>802.0</ele>
        <time>2015-05-23T14:25:13Z</time>
      </trkpt>
      <trkpt lat="43.286267" lon="-4.190583">
        <ele>804.0</ele>
        <time>2015-05-23T14:25:14Z</time>
      </trkpt>
      <trkpt lat="43.286300" lon="-4.190567">
        <ele>805.0</ele>
        <time>2015-05-23T14:25:15Z</time>
      </trkpt>
      <trkpt lat="43.286333" lon="-4.190550">
        <ele>807.0</ele>
        <time>2015-05-23T14:25:16Z</time>
      </trkpt>
      <trkpt lat="43.286367" lon="-4.190567">
        <ele>809.0</ele>
        <time>2015-05-23T14:25:17Z</time>
      </trkpt>
      <trkpt lat="43.286400" lon="-4.190567">
        <ele>810.0</ele>
        <time>2015-05-23T14:25:18Z</time>
      </trkpt>
      <trkpt lat="43.286433" lon="-4.190550">
        <ele>812.0</ele>
        <time>2015-05-23T14:25:19Z</time>
      </trkpt>
      <trkpt lat="43.286467" lon="-4.190533">
        <ele>811.0</ele>
        <time>2015-05-23T14:25:20Z</time>
      </trkpt>
      <trkpt lat="43.286483" lon="-4.190517">
        <ele>813.0</ele>
        <time>2015-05-23T14:25:21Z</time>
      </trkpt>
      <trkpt lat="43.286500" lon="-4.190500">
        <ele>815.0</ele>
        <time>2015-05-23T14:25:22Z</time>
      </trkpt>
      <trkpt lat="43.286517" lon="-4.190483">
        <ele>817.0</ele>
        <time>2015-05-23T14:25:23Z</time>
      </trkpt>
      <trkpt lat="43.286533" lon="-4.190467">
        <ele>818.0</ele>
        <time>2015-05-23T14:25:24Z</time>
      </trkpt>
      <trkpt lat="43.286583" lon="-4.190483">
        <ele>819.0</ele>
        <time>2015-05-23T14:25:25Z</time>
      </trkpt>
      <trkpt lat="43.286617" lon="-4.190517">
        <ele>820.0</ele>
        <time>2015-05-23T14:25:26Z</time>
      </trkpt>
      <trkpt lat="43.286650" lon="-4.190600">
        <ele>821.0</ele>
        <time>2015-05-23T14:25:27Z</time>
      </trkpt>
      <trkpt lat="43.286650" lon="-4.190700">
        <ele>822.0</ele>
        <time>2015-05-23T14:25:28Z</time>
      </trkpt>
      <trkpt lat="43.286600" lon="-4.190800">
        <ele>823.0</ele>
        <time>2015-05-23T14:25:29Z</time>
      </trkpt>
      <trkpt lat="43.286550" lon="-4.190900">
        <ele>824.0</ele>
        <time>2015-05-23T14:25:30Z</time>
      </trkpt>
      <trkpt lat="43.286517" lon="-4.190967">
        <ele>826.0</ele>
        <time>2015-05-23T14:25:31Z</time>
      </trkpt>
      <trkpt lat="43.286483" lon="-4.191050">
        <ele>828.0</ele>
        <time>2015-05-23T14:25:32Z</time>
      </trkpt>
      <trkpt lat="43.286450" lon="-4.191133">
        <ele>829.0</ele>
        <time>2015-05-23T14:25:33Z</time>
      </trkpt>
      <trkpt lat="43.286417" lon="-4.191233">
        <ele>831.0</ele>
        <time>2015-05-23T14:25:34Z</time>
      </trkpt>
      <trkpt lat="43.286383" lon="-4.191333">
        <ele>832.0</ele>
        <time>2015-05-23T14:25:35Z</time>
      </trkpt>
      <trkpt lat="43.286333" lon="-4.191417">
        <ele>834.0</ele>
        <time>2015-05-23T14:25:36Z</time>
      </trkpt>
      <trkpt lat="43.286267" lon="-4.191483">
        <ele>835.0</ele>
        <time>2015-05-23T14:25:37Z</time>
      </trkpt>
      <trkpt lat="43.286183" lon="-4.191550">
        <ele>835.0</ele>
        <time>2015-05-23T14:25:38Z</time>
      </trkpt>
      <trkpt lat="43.286083" lon="-4.191583">
        <ele>835.0</ele>
        <time>2015-05-23T14:25:39Z</time>
      </trkpt>
      <trkpt lat="43.285967" lon="-4.191583">
        <ele>834.0</ele>
        <time>2015-05-23T14:25:40Z</time>
      </trkpt>
      <trkpt lat="43.285850" lon="-4.191550">
        <ele>835.0</ele>
        <time>2015-05-23T14:25:41Z</time>
      </trkpt>
      <trkpt lat="43.285750" lon="-4.191483">
        <ele>836.0</ele>
        <time>2015-05-23T14:25:42Z</time>
      </trkpt>
      <trkpt lat="43.285700" lon="-4.191400">
        <ele>837.0</ele>
        <time>2015-05-23T14:25:43Z</time>
      </trkpt>
      <trkpt lat="43.285650" lon="-4.191300">
        <ele>838.0</ele>
        <time>2015-05-23T14:25:44Z</time>
      </trkpt>
      <trkpt lat="43.285633" lon="-4.191217">
        <ele>840.0</ele>
        <time>2015-05-23T14:25:45Z</time>
      </trkpt>
      <trkpt lat="43.285617" lon="-4.191150">
        <ele>842.0</ele>
        <time>2015-05-23T14:25:46Z</time>
      </trkpt>
      <trkpt lat="43.285600" lon="-4.191083">
        <ele>844.0</ele>
        <time>2015-05-23T14:25:47Z</time>
      </trkpt>
      <trkpt lat="43.285600" lon="-4.191033">
        <ele>846.0</ele>
        <time>2015-05-23T14:25:48Z</time>
      </trkpt>
      <trkpt lat="43.285617" lon="-4.190967">
        <ele>847.0</ele>
        <time>2015-05-23T14:25:49Z</time>
      </trkpt>
      <trkpt lat="43.285633" lon="-4.190900">
        <ele>847.0</ele>
        <time>2015-05-23T14:25:50Z</time>
      </trkpt>
      <trkpt lat="43.285667" lon="-4.190867">
        <ele>849.0</ele>
        <time>2015-05-23T14:25:51Z</time>
      </trkpt>
      <trkpt lat="43.285700" lon="-4.190883">
        <ele>850.0</ele>
        <time>2015-05-23T14:25:52Z</time>
      </trkpt>
      <trkpt lat="43.285733" lon="-4.190950">
        <ele>851.0</ele>
        <time>2015-05-23T14:25:53Z</time>
      </trkpt>
      <trkpt lat="43.285767" lon="-4.191050">
        <ele>852.0</ele>
        <time>2015-05-23T14:25:54Z</time>
      </trkpt>
      <trkpt lat="43.285783" lon="-4.191167">
        <ele>854.0</ele>
        <time>2015-05-23T14:25:55Z</time>
      </trkpt>
      <trkpt lat="43.285767" lon="-4.191267">
        <ele>857.0</ele>
        <time>2015-05-23T14:25:56Z</time>
      </trkpt>
      <trkpt lat="43.285717" lon="-4.191350">
        <ele>859.0</ele>
        <time>2015-05-23T14:25:57Z</time>
      </trkpt>
      <trkpt lat="43.285667" lon="-4.191400">
        <ele>861.0</ele>
        <time>2015-05-23T14:25:58Z</time>
      </trkpt>
      <trkpt lat="43.285583" lon="-4.191467">
        <ele>863.0</ele>
        <time>2015-05-23T14:25:59Z</time>
      </trkpt>
      <trkpt lat="43.285500" lon="-4.191517">
        <ele>862.0</ele>
        <time>2015-05-23T14:26:00Z</time>
      </trkpt>
      <trkpt lat="43.285400" lon="-4.191550">
        <ele>862.0</ele>
        <time>2015-05-23T14:26:01Z</time>
      </trkpt>
      <trkpt lat="43.285283" lon="-4.191550">
        <ele>863.0</ele>
        <time>2015-05-23T14:26:02Z</time>
      </trkpt>
      <trkpt lat="43.285183" lon="-4.191500">
        <ele>864.0</ele>
        <time>2015-05-23T14:26:03Z</time>
      </trkpt>
      <trkpt lat="43.285100" lon="-4.191417">
        <ele>865.0</ele>
        <time>2015-05-23T14:26:04Z</time>
      </trkpt>
      <trkpt lat="43.285050" lon="-4.191317">
        <ele>866.0</ele>
        <time>2015-05-23T14:26:05Z</time>
      </trkpt>
      <trkpt lat="43.285033" lon="-4.191217">
        <ele>868.0</ele>
        <time>2015-05-23T14:26:06Z</time>
      </trkpt>
      <trkpt lat="43.285050" lon="-4.191117">
        <ele>870.0</ele>
        <time>2015-05-23T14:26:07Z</time>
      </trkpt>
      <trkpt lat="43.285050" lon="-4.191050">
        <ele>873.0</ele>
        <time>2015-05-23T14:26:08Z</time>
      </trkpt>
      <trkpt lat="43.285067" lon="-4.191000">
        <ele>878.0</ele>
        <time>2015-05-23T14:26:09Z</time>
      </trkpt>
      <trkpt lat="43.285083" lon="-4.190967">
        <ele>881.0</ele>
        <time>2015-05-23T14:26:10Z</time>
      </trkpt>
      <trkpt lat="43.285117" lon="-4.190950">
        <ele>883.0</ele>
        <time>2015-05-23T14:26:11Z</time>
      </trkpt>
      <trkpt lat="43.285150" lon="-4.190967">
        <ele>884.0</ele>
        <time>2015-05-23T14:26:12Z</time>
      </trkpt>
      <trkpt lat="43.285183" lon="-4.190983">
        <ele>885.0</ele>
        <time>2015-05-23T14:26:13Z</time>
      </trkpt>
      <trkpt lat="43.285233" lon="-4.191033">
        <ele>886.0</ele>
        <time>2015-05-23T14:26:14Z</time>
      </trkpt>
      <trkpt lat="43.285283" lon="-4.191083">
        <ele>887.0</ele>
        <time>2015-05-23T14:26:15Z</time>
      </trkpt>
      <trkpt lat="43.285300" lon="-4.191150">
        <ele>888.0</ele>
        <time>2015-05-23T14:26:16Z</time>
      </trkpt>
      <trkpt lat="43.285317" lon="-4.191217">
        <ele>889.0</ele>
        <time>2015-05-23T14:26:17Z</time>
      </trkpt>
      <trkpt lat="43.285317" lon="-4.191300">
        <ele>888.0</ele>
        <time>2015-05-23T14:26:18Z</time>
      </trkpt>
      <trkpt lat="43.285317" lon="-4.191383">
        <ele>889.0</ele>
        <time>2015-05-23T14:26:19Z</time>
      </trkpt>
      <trkpt lat="43.285317" lon="-4.191483">
        <ele>890.0</ele>
        <time>2015-05-23T14:26:20Z</time>
      </trkpt>
      <trkpt lat="43.285300" lon="-4.191583">
        <ele>891.0</ele>
        <time>2015-05-23T14:26:21Z</time>
      </trkpt>
      <trkpt lat="43.285283" lon="-4.191683">
        <ele>892.0</ele>
        <time>2015-05-23T14:26:22Z</time>
      </trkpt>
      <trkpt lat="43.285250" lon="-4.191783">
        <ele>892.0</ele>
        <time>2015-05-23T14:26:23Z</time>
      </trkpt>
      <trkpt lat="43.285217" lon="-4.191867">
        <ele>893.0</ele>
        <time>2015-05-23T14:26:24Z</time>
      </trkpt>
      <trkpt lat="43.285183" lon="-4.191933">
        <ele>893.0</ele>
        <time>2015-05-23T14:26:25Z</time>
      </trkpt>
      <trkpt lat="43.285150" lon="-4.192017">
        <ele>893.0</ele>
        <time>2015-05-23T14:26:26Z</time>
      </trkpt>
      <trkpt lat="43.285083" lon="-4.192100">
        <ele>892.0</ele>
        <time>2015-05-23T14:26:27Z</time>
      </trkpt>
      <trkpt lat="43.285017" lon="-4.192183">
        <ele>892.0</ele>
        <time>2015-05-23T14:26:28Z</time>
      </trkpt>
      <trkpt lat="43.284950" lon="-4.192267">
        <ele>892.0</ele>
        <time>2015-05-23T14:26:29Z</time>
      </trkpt>
      <trkpt lat="43.284900" lon="-4.192350">
        <ele>891.0</ele>
        <time>2015-05-23T14:26:30Z</time>
      </trkpt>
      <trkpt lat="43.284867" lon="-4.192450">
        <ele>889.0</ele>
        <time>2015-05-23T14:26:31Z</time>
      </trkpt>
      <trkpt lat="43.284850" lon="-4.192550">
        <ele>887.0</ele>
        <time>2015-05-23T14:26:32Z</time>
      </trkpt>
      <trkpt lat="43.284833" lon="-4.192650">
        <ele>886.0</ele>
        <time>2015-05-23T14:26:33Z</time>
      </trkpt>
      <trkpt lat="43.284850" lon="-4.192733">
        <ele>884.0</ele>
        <time>2015-05-23T14:26:34Z</time>
      </trkpt>
      <trkpt lat="43.284850" lon="-4.192833">
        <ele>883.0</ele>
        <time>2015-05-23T14:26:35Z</time>
      </trkpt>
      <trkpt lat="43.284867" lon="-4.192917">
        <ele>881.0</ele>
        <time>2015-05-23T14:26:36Z</time>
      </trkpt>
      <trkpt lat="43.284900" lon="-4.193017">
        <ele>879.0</ele>
        <time>2015-05-23T14:26:37Z</time>
      </trkpt>
      <trkpt lat="43.284917" lon="-4.193100">
        <ele>879.0</ele>
        <time>2015-05-23T14:26:38Z</time>
      </trkpt>
      <trkpt lat="43.284950" lon="-4.193200">
        <ele>878.0</ele>
        <time>2015-05-23T14:26:39Z</time>
      </trkpt>
      <trkpt lat="43.284967" lon="-4.193283">
        <ele>877.0</ele>
        <time>2015-05-23T14:26:40Z</time>
      </trkpt>
      <trkpt lat="43.285000" lon="-4.193383">
        <ele>876.0</ele>
        <time>2015-05-23T14:26:41Z</time>
      </trkpt>
      <trkpt lat="43.285033" lon="-4.193450">
        <ele>874.0</ele>
        <time>2015-05-23T14:26:42Z</time>
      </trkpt>
      <trkpt lat="43.285067" lon="-4.193533">
        <ele>873.0</ele>
        <time>2015-05-23T14:26:43Z</time>
      </trkpt>
      <trkpt lat="43.285117" lon="-4.193600">
        <ele>871.0</ele>
        <time>2015-05-23T14:26:44Z</time>
      </trkpt>
      <trkpt lat="43.285150" lon="-4.193683">
        <ele>870.0</ele>
        <time>2015-05-23T14:26:45Z</time>
      </trkpt>
      <trkpt lat="43.285183" lon="-4.193750">
        <ele>869.0</ele>
        <time>2015-05-23T14:26:46Z</time>
      </trkpt>
      <trkpt lat="43.285217" lon="-4.193817">
        <ele>868.0</ele>
        <time>2015-05-23T14:26:47Z</time>
      </trkpt>
      <trkpt lat="43.285250" lon="-4.193883">
        <ele>867.0</ele>
        <time>2015-05-23T14:26:48Z</time>
      </trkpt>
      <trkpt lat="43.285283" lon="-4.193933">
        <ele>866.0</ele>
        <time>2015-05-23T14:26:49Z</time>
      </trkpt>
      <trkpt lat="43.285317" lon="-4.194017">
        <ele>865.0</ele>
        <time>2015-05-23T14:26:50Z</time>
      </trkpt>
      <trkpt lat="43.285350" lon="-4.194100">
        <ele>863.0</ele>
        <time>2015-05-23T14:26:51Z</time>
      </trkpt>
      <trkpt lat="43.285367" lon="-4.194167">
        <ele>862.0</ele>
        <time>2015-05-23T14:26:52Z</time>
      </trkpt>
      <trkpt lat="43.285383" lon="-4.194250">
        <ele>862.0</ele>
        <time>2015-05-23T14:26:53Z</time>
      </trkpt>
      <trkpt lat="43.285417" lon="-4.194300">
        <ele>861.0</ele>
        <time>2015-05-23T14:26:54Z</time>
      </trkpt>
      <trkpt lat="43.285450" lon="-4.194350">
        <ele>860.0</ele>
        <time>2015-05-23T14:26:55Z</time>
      </trkpt>
      <trkpt lat="43.285483" lon="-4.194400">
        <ele>859.0</ele>
        <time>2015-05-23T14:26:56Z</time>
      </trkpt>
      <trkpt lat="43.285517" lon="-4.194467">
        <ele>857.0</ele>
        <time>2015-05-23T14:26:57Z</time>
      </trkpt>
      <trkpt lat="43.285550" lon="-4.194550">
        <ele>854.0</ele>
        <time>2015-05-23T14:26:58Z</time>
      </trkpt>
      <trkpt lat="43.285567" lon="-4.194650">
        <ele>853.0</ele>
        <time>2015-05-23T14:26:59Z</time>
      </trkpt>
      <trkpt lat="43.285600" lon="-4.194733">
        <ele>852.0</ele>
        <time>2015-05-23T14:27:00Z</time>
      </trkpt>
      <trkpt lat="43.285617" lon="-4.194817">
        <ele>852.0</ele>
        <time>2015-05-23T14:27:01Z</time>
      </trkpt>
      <trkpt lat="43.285650" lon="-4.194900">
        <ele>851.0</ele>
        <time>2015-05-23T14:27:02Z</time>
      </trkpt>
      <trkpt lat="43.285667" lon="-4.194967">
        <ele>850.0</ele>
        <time>2015-05-23T14:27:03Z</time>
      </trkpt>
      <trkpt lat="43.285700" lon="-4.195050">
        <ele>848.0</ele>
        <time>2015-05-23T14:27:04Z</time>
      </trkpt>
      <trkpt lat="43.285733" lon="-4.195150">
        <ele>847.0</ele>
        <time>2015-05-23T14:27:05Z</time>
      </trkpt>
      <trkpt lat="43.285750" lon="-4.195233">
        <ele>845.0</ele>
        <time>2015-05-23T14:27:06Z</time>
      </trkpt>
      <trkpt lat="43.285767" lon="-4.195333">
        <ele>844.0</ele>
        <time>2015-05-23T14:27:07Z</time>
      </trkpt>
      <trkpt lat="43.285783" lon="-4.195400">
        <ele>844.0</ele>
        <time>2015-05-23T14:27:08Z</time>
      </trkpt>
      <trkpt lat="43.285800" lon="-4.195483">
        <ele>843.0</ele>
        <time>2015-05-23T14:27:09Z</time>
      </trkpt>
      <trkpt lat="43.285800" lon="-4.195567">
        <ele>842.0</ele>
        <time>2015-05-23T14:27:10Z</time>
      </trkpt>
      <trkpt lat="43.285817" lon="-4.195667">
        <ele>840.0</ele>
        <time>2015-05-23T14:27:11Z</time>
      </trkpt>
      <trkpt lat="43.285817" lon="-4.195767">
        <ele>838.0</ele>
        <time>2015-05-23T14:27:12Z</time>
      </trkpt>
      <trkpt lat="43.285833" lon="-4.195883">
        <ele>840.0</ele>
        <time>2015-05-23T14:27:13Z</time>
      </trkpt>
      <trkpt lat="43.285850" lon="-4.195983">
        <ele>839.0</ele>
        <time>2015-05-23T14:27:14Z</time>
      </trkpt>
      <trkpt lat="43.285867" lon="-4.196083">
        <ele>838.0</ele>
        <time>2015-05-23T14:27:15Z</time>
      </trkpt>
      <trkpt lat="43.285867" lon="-4.196167">
        <ele>837.0</ele>
        <time>2015-05-23T14:27:16Z</time>
      </trkpt>
      <trkpt lat="43.285883" lon="-4.196267">
        <ele>836.0</ele>
        <time>2015-05-23T14:27:17Z</time>
      </trkpt>
      <trkpt lat="43.285883" lon="-4.196367">
        <ele>835.0</ele>
        <time>2015-05-23T14:27:18Z</time>
      </trkpt>
      <trkpt lat="43.285900" lon="-4.196467">
        <ele>833.0</ele>
        <time>2015-05-23T14:27:19Z</time>
      </trkpt>
      <trkpt lat="43.285900" lon="-4.196567">
        <ele>832.0</ele>
        <time>2015-05-23T14:27:20Z</time>
      </trkpt>
      <trkpt lat="43.285917" lon="-4.196667">
        <ele>830.0</ele>
        <time>2015-05-23T14:27:21Z</time>
      </trkpt>
      <trkpt lat="43.285917" lon="-4.196767">
        <ele>829.0</ele>
        <time>2015-05-23T14:27:22Z</time>
      </trkpt>
      <trkpt lat="43.285917" lon="-4.196850">
        <ele>829.0</ele>
        <time>2015-05-23T14:27:23Z</time>
      </trkpt>
      <trkpt lat="43.285917" lon="-4.196950">
        <ele>828.0</ele>
        <time>2015-05-23T14:27:24Z</time>
      </trkpt>
      <trkpt lat="43.285917" lon="-4.197050">
        <ele>827.0</ele>
        <time>2015-05-23T14:27:25Z</time>
      </trkpt>
      <trkpt lat="43.285933" lon="-4.197150">
        <ele>828.0</ele>
        <time>2015-05-23T14:27:26Z</time>
      </trkpt>
      <trkpt lat="43.285950" lon="-4.197233">
        <ele>827.0</ele>
        <time>2015-05-23T14:27:27Z</time>
      </trkpt>
      <trkpt lat="43.285950" lon="-4.197317">
        <ele>826.0</ele>
        <time>2015-05-23T14:27:28Z</time>
      </trkpt>
      <trkpt lat="43.285933" lon="-4.197400">
        <ele>827.0</ele>
        <time>2015-05-23T14:27:29Z</time>
      </trkpt>
      <trkpt lat="43.285933" lon="-4.197500">
        <ele>826.0</ele>
        <time>2015-05-23T14:27:30Z</time>
      </trkpt>
      <trkpt lat="43.285933" lon="-4.197583">
        <ele>824.0</ele>
        <time>2015-05-23T14:27:31Z</time>
      </trkpt>
      <trkpt lat="43.285933" lon="-4.197683">
        <ele>822.0</ele>
        <time>2015-05-23T14:27:32Z</time>
      </trkpt>
      <trkpt lat="43.285933" lon="-4.197783">
        <ele>821.0</ele>
        <time>2015-05-23T14:27:33Z</time>
      </trkpt>
      <trkpt lat="43.285933" lon="-4.197883">
        <ele>820.0</ele>
        <time>2015-05-23T14:27:34Z</time>
      </trkpt>
      <trkpt lat="43.285933" lon="-4.197967">
        <ele>819.0</ele>
        <time>2015-05-23T14:27:35Z</time>
      </trkpt>
      <trkpt lat="43.285933" lon="-4.198033">
        <ele>818.0</ele>
        <time>2015-05-23T14:27:36Z</time>
      </trkpt>
      <trkpt lat="43.285933" lon="-4.198100">
        <ele>816.0</ele>
        <time>2015-05-23T14:27:37Z</time>
      </trkpt>
      <trkpt lat="43.285950" lon="-4.198200">
        <ele>818.0</ele>
        <time>2015-05-23T14:27:38Z</time>
      </trkpt>
      <trkpt lat="43.285967" lon="-4.198283">
        <ele>816.0</ele>
        <time>2015-05-23T14:27:39Z</time>
      </trkpt>
      <trkpt lat="43.285983" lon="-4.198400">
        <ele>815.0</ele>
        <time>2015-05-23T14:27:40Z</time>
      </trkpt>
      <trkpt lat="43.286000" lon="-4.198483">
        <ele>813.0</ele>
        <time>2015-05-23T14:27:41Z</time>
      </trkpt>
      <trkpt lat="43.286000" lon="-4.198567">
        <ele>812.0</ele>
        <time>2015-05-23T14:27:42Z</time>
      </trkpt>
      <trkpt lat="43.286017" lon="-4.198650">
        <ele>810.0</ele>
        <time>2015-05-23T14:27:43Z</time>
      </trkpt>
      <trkpt lat="43.286050" lon="-4.198733">
        <ele>808.0</ele>
        <time>2015-05-23T14:27:44Z</time>
      </trkpt>
      <trkpt lat="43.286083" lon="-4.198817">
        <ele>807.0</ele>
        <time>2015-05-23T14:27:45Z</time>
      </trkpt>
      <trkpt lat="43.286117" lon="-4.198900">
        <ele>805.0</ele>
        <time>2015-05-23T14:27:46Z</time>
      </trkpt>
      <trkpt lat="43.286150" lon="-4.198983">
        <ele>803.0</ele>
        <time>2015-05-23T14:27:47Z</time>
      </trkpt>
      <trkpt lat="43.286183" lon="-4.199067">
        <ele>801.0</ele>
        <time>2015-05-23T14:27:48Z</time>
      </trkpt>
      <trkpt lat="43.286200" lon="-4.199133">
        <ele>799.0</ele>
        <time>2015-05-23T14:27:49Z</time>
      </trkpt>
      <trkpt lat="43.286233" lon="-4.199217">
        <ele>796.0</ele>
        <time>2015-05-23T14:27:50Z</time>
      </trkpt>
      <trkpt lat="43.286267" lon="-4.199283">
        <ele>799.0</ele>
        <time>2015-05-23T14:27:51Z</time>
      </trkpt>
      <trkpt lat="43.286317" lon="-4.199367">
        <ele>798.0</ele>
        <time>2015-05-23T14:27:52Z</time>
      </trkpt>
      <trkpt lat="43.286350" lon="-4.199450">
        <ele>796.0</ele>
        <time>2015-05-23T14:27:53Z</time>
      </trkpt>
      <trkpt lat="43.286383" lon="-4.199550">
        <ele>796.0</ele>
        <time>2015-05-23T14:27:54Z</time>
      </trkpt>
      <trkpt lat="43.286417" lon="-4.199633">
        <ele>794.0</ele>
        <time>2015-05-23T14:27:55Z</time>
      </trkpt>
      <trkpt lat="43.286450" lon="-4.199717">
        <ele>793.0</ele>
        <time>2015-05-23T14:27:56Z</time>
      </trkpt>
      <trkpt lat="43.286500" lon="-4.199817">
        <ele>792.0</ele>
        <time>2015-05-23T14:27:57Z</time>
      </trkpt>
      <trkpt lat="43.286533" lon="-4.199900">
        <ele>791.0</ele>
        <time>2015-05-23T14:27:58Z</time>
      </trkpt>
      <trkpt lat="43.286567" lon="-4.199983">
        <ele>789.0</ele>
        <time>2015-05-23T14:27:59Z</time>
      </trkpt>
      <trkpt lat="43.286617" lon="-4.200067">
        <ele>788.0</ele>
        <time>2015-05-23T14:28:00Z</time>
      </trkpt>
      <trkpt lat="43.286650" lon="-4.200167">
        <ele>788.0</ele>
        <time>2015-05-23T14:28:01Z</time>
      </trkpt>
      <trkpt lat="43.286683" lon="-4.200250">
        <ele>786.0</ele>
        <time>2015-05-23T14:28:02Z</time>
      </trkpt>
      <trkpt lat="43.286717" lon="-4.200333">
        <ele>785.0</ele>
        <time>2015-05-23T14:28:03Z</time>
      </trkpt>
      <trkpt lat="43.286750" lon="-4.200417">
        <ele>784.0</ele>
        <time>2015-05-23T14:28:04Z</time>
      </trkpt>
      <trkpt lat="43.286800" lon="-4.200483">
        <ele>782.0</ele>
        <time>2015-05-23T14:28:05Z</time>
      </trkpt>
      <trkpt lat="43.286833" lon="-4.200583">
        <ele>780.0</ele>
        <time>2015-05-23T14:28:06Z</time>
      </trkpt>
      <trkpt lat="43.286867" lon="-4.200667">
        <ele>778.0</ele>
        <time>2015-05-23T14:28:07Z</time>
      </trkpt>
      <trkpt lat="43.286917" lon="-4.200733">
        <ele>776.0</ele>
        <time>2015-05-23T14:28:08Z</time>
      </trkpt>
      <trkpt lat="43.286950" lon="-4.200817">
        <ele>775.0</ele>
        <time>2015-05-23T14:28:09Z</time>
      </trkpt>
      <trkpt lat="43.287000" lon="-4.200900">
        <ele>773.0</ele>
        <time>2015-05-23T14:28:10Z</time>
      </trkpt>
      <trkpt lat="43.287033" lon="-4.200967">
        <ele>771.0</ele>
        <time>2015-05-23T14:28:11Z</time>
      </trkpt>
      <trkpt lat="43.287067" lon="-4.201033">
        <ele>768.0</ele>
        <time>2015-05-23T14:28:12Z</time>
      </trkpt>
      <trkpt lat="43.287117" lon="-4.201117">
        <ele>766.0</ele>
        <time>2015-05-23T14:28:13Z</time>
      </trkpt>
      <trkpt lat="43.287167" lon="-4.201200">
        <ele>767.0</ele>
        <time>2015-05-23T14:28:14Z</time>
      </trkpt>
      <trkpt lat="43.287200" lon="-4.201283">
        <ele>765.0</ele>
        <time>2015-05-23T14:28:15Z</time>
      </trkpt>
      <trkpt lat="43.287233" lon="-4.201333">
        <ele>763.0</ele>
        <time>2015-05-23T14:28:16Z</time>
      </trkpt>
      <trkpt lat="43.287250" lon="-4.201417">
        <ele>760.0</ele>
        <time>2015-05-23T14:28:17Z</time>
      </trkpt>
      <trkpt lat="43.287300" lon="-4.201483">
        <ele>758.0</ele>
        <time>2015-05-23T14:28:18Z</time>
      </trkpt>
      <trkpt lat="43.287350" lon="-4.201583">
        <ele>755.0</ele>
        <time>2015-05-23T14:28:19Z</time>
      </trkpt>
      <trkpt lat="43.287383" lon="-4.201650">
        <ele>756.0</ele>
        <time>2015-05-23T14:28:20Z</time>
      </trkpt>
      <trkpt lat="43.287417" lon="-4.201733">
        <ele>754.0</ele>
        <time>2015-05-23T14:28:21Z</time>
      </trkpt>
      <trkpt lat="43.287450" lon="-4.201800">
        <ele>751.0</ele>
        <time>2015-05-23T14:28:22Z</time>
      </trkpt>
      <trkpt lat="43.287483" lon="-4.201867">
        <ele>751.0</ele>
        <time>2015-05-23T14:28:23Z</time>
      </trkpt>
      <trkpt lat="43.287533" lon="-4.201950">
        <ele>749.0</ele>
        <time>2015-05-23T14:28:24Z</time>
      </trkpt>
      <trkpt lat="43.287567" lon="-4.202017">
        <ele>747.0</ele>
        <time>2015-05-23T14:28:25Z</time>
      </trkpt>
      <trkpt lat="43.287600" lon="-4.202100">
        <ele>746.0</ele>
        <time>2015-05-23T14:28:26Z</time>
      </trkpt>
      <trkpt lat="43.287650" lon="-4.202183">
        <ele>745.0</ele>
        <time>2015-05-23T14:28:27Z</time>
      </trkpt>
      <trkpt lat="43.287683" lon="-4.202283">
        <ele>743.0</ele>
        <time>2015-05-23T14:28:28Z</time>
      </trkpt>
      <trkpt lat="43.287717" lon="-4.202367">
        <ele>741.0</ele>
        <time>2015-05-23T14:28:29Z</time>
      </trkpt>
      <trkpt lat="43.287733" lon="-4.202450">
        <ele>739.0</ele>
        <time>2015-05-23T14:28:30Z</time>
      </trkpt>
      <trkpt lat="43.287767" lon="-4.202517">
        <ele>737.0</ele>
        <time>2015-05-23T14:28:31Z</time>
      </trkpt>
      <trkpt lat="43.287783" lon="-4.202600">
        <ele>734.0</ele>
        <time>2015-05-23T14:28:32Z</time>
      </trkpt>
      <trkpt lat="43.287817" lon="-4.202667">
        <ele>732.0</ele>
        <time>2015-05-23T14:28:33Z</time>
      </trkpt>
      <trkpt lat="43.287850" lon="-4.202750">
        <ele>733.0</ele>
        <time>2015-05-23T14:28:34Z</time>
      </trkpt>
      <trkpt lat="43.287883" lon="-4.202817">
        <ele>732.0</ele>
        <time>2015-05-23T14:28:35Z</time>
      </trkpt>
      <trkpt lat="43.287900" lon="-4.202900">
        <ele>731.0</ele>
        <time>2015-05-23T14:28:36Z</time>
      </trkpt>
      <trkpt lat="43.287933" lon="-4.202983">
        <ele>730.0</ele>
        <time>2015-05-23T14:28:37Z</time>
      </trkpt>
      <trkpt lat="43.287950" lon="-4.203050">
        <ele>728.0</ele>
        <time>2015-05-23T14:28:38Z</time>
      </trkpt>
      <trkpt lat="43.287983" lon="-4.203117">
        <ele>727.0</ele>
        <time>2015-05-23T14:28:39Z</time>
      </trkpt>
      <trkpt lat="43.288000" lon="-4.203200">
        <ele>723.0</ele>
        <time>2015-05-23T14:28:40Z</time>
      </trkpt>
      <trkpt lat="43.288033" lon="-4.203283">
        <ele>719.0</ele>
        <time>2015-05-23T14:28:41Z</time>
      </trkpt>
      <trkpt lat="43.288050" lon="-4.203367">
        <ele>717.0</ele>
        <time>2015-05-23T14:28:42Z</time>
      </trkpt>
      <trkpt lat="43.288067" lon="-4.203467">
        <ele>715.0</ele>
        <time>2015-05-23T14:28:43Z</time>
      </trkpt>
      <trkpt lat="43.288083" lon="-4.203567">
        <ele>714.0</ele>
        <time>2015-05-23T14:28:44Z</time>
      </trkpt>
      <trkpt lat="43.288067" lon="-4.203667">
        <ele>713.0</ele>
        <time>2015-05-23T14:28:45Z</time>
      </trkpt>
      <trkpt lat="43.288067" lon="-4.203750">
        <ele>711.0</ele>
        <time>2015-05-23T14:28:46Z</time>
      </trkpt>
      <trkpt lat="43.288050" lon="-4.203850">
        <ele>710.0</ele>
        <time>2015-05-23T14:28:47Z</time>
      </trkpt>
      <trkpt lat="43.288050" lon="-4.203950">
        <ele>708.0</ele>
        <time>2015-05-23T14:28:48Z</time>
      </trkpt>
      <trkpt lat="43.288050" lon="-4.204067">
        <ele>706.0</ele>
        <time>2015-05-23T14:28:49Z</time>
      </trkpt>
      <trkpt lat="43.288050" lon="-4.204167">
        <ele>704.0</ele>
        <time>2015-05-23T14:28:50Z</time>
      </trkpt>
      <trkpt lat="43.288050" lon="-4.204267">
        <ele>703.0</ele>
        <time>2015-05-23T14:28:51Z</time>
      </trkpt>
      <trkpt lat="43.288050" lon="-4.204350">
        <ele>702.0</ele>
        <time>2015-05-23T14:28:52Z</time>
      </trkpt>
      <trkpt lat="43.288050" lon="-4.204433">
        <ele>700.0</ele>
        <time>2015-05-23T14:28:53Z</time>
      </trkpt>
      <trkpt lat="43.288067" lon="-4.204517">
        <ele>698.0</ele>
        <time>2015-05-23T14:28:54Z</time>
      </trkpt>
      <trkpt lat="43.288083" lon="-4.204617">
        <ele>696.0</ele>
        <time>2015-05-23T14:28:55Z</time>
      </trkpt>
      <trkpt lat="43.288083" lon="-4.204700">
        <ele>694.0</ele>
        <time>2015-05-23T14:28:56Z</time>
      </trkpt>
      <trkpt lat="43.288100" lon="-4.204800">
        <ele>693.0</ele>
        <time>2015-05-23T14:28:57Z</time>
      </trkpt>
      <trkpt lat="43.288117" lon="-4.204883">
        <ele>691.0</ele>
        <time>2015-05-23T14:28:58Z</time>
      </trkpt>
      <trkpt lat="43.288117" lon="-4.204983">
        <ele>690.0</ele>
        <time>2015-05-23T14:28:59Z</time>
      </trkpt>
      <trkpt lat="43.288117" lon="-4.205083">
        <ele>689.0</ele>
        <time>2015-05-23T14:29:00Z</time>
      </trkpt>
      <trkpt lat="43.288100" lon="-4.205183">
        <ele>688.0</ele>
        <time>2015-05-23T14:29:01Z</time>
      </trkpt>
      <trkpt lat="43.288100" lon="-4.205283">
        <ele>687.0</ele>
        <time>2015-05-23T14:29:02Z</time>
      </trkpt>
      <trkpt lat="43.288083" lon="-4.205383">
        <ele>686.0</ele>
        <time>2015-05-23T14:29:03Z</time>
      </trkpt>
      <trkpt lat="43.288067" lon="-4.205500">
        <ele>684.0</ele>
        <time>2015-05-23T14:29:04Z</time>
      </trkpt>
      <trkpt lat="43.288050" lon="-4.205617">
        <ele>683.0</ele>
        <time>2015-05-23T14:29:05Z</time>
      </trkpt>
      <trkpt lat="43.288050" lon="-4.205733">
        <ele>684.0</ele>
        <time>2015-05-23T14:29:06Z</time>
      </trkpt>
      <trkpt lat="43.288033" lon="-4.205850">
        <ele>683.0</ele>
        <time>2015-05-23T14:29:07Z</time>
      </trkpt>
      <trkpt lat="43.288033" lon="-4.205967">
        <ele>682.0</ele>
        <time>2015-05-23T14:29:08Z</time>
      </trkpt>
      <trkpt lat="43.288033" lon="-4.206083">
        <ele>683.0</ele>
        <time>2015-05-23T14:29:09Z</time>
      </trkpt>
      <trkpt lat="43.288033" lon="-4.206200">
        <ele>682.0</ele>
        <time>2015-05-23T14:29:10Z</time>
      </trkpt>
      <trkpt lat="43.288033" lon="-4.206317">
        <ele>682.0</ele>
        <time>2015-05-23T14:29:11Z</time>
      </trkpt>
      <trkpt lat="43.288017" lon="-4.206433">
        <ele>682.0</ele>
        <time>2015-05-23T14:29:12Z</time>
      </trkpt>
      <trkpt lat="43.288000" lon="-4.206533">
        <ele>681.0</ele>
        <time>2015-05-23T14:29:13Z</time>
      </trkpt>
      <trkpt lat="43.287983" lon="-4.206650">
        <ele>679.0</ele>
        <time>2015-05-23T14:29:14Z</time>
      </trkpt>
      <trkpt lat="43.287967" lon="-4.206767">
        <ele>676.0</ele>
        <time>2015-05-23T14:29:15Z</time>
      </trkpt>
      <trkpt lat="43.287950" lon="-4.206883">
        <ele>674.0</ele>
        <time>2015-05-23T14:29:16Z</time>
      </trkpt>
      <trkpt lat="43.287950" lon="-4.207000">
        <ele>672.0</ele>
        <time>2015-05-23T14:29:17Z</time>
      </trkpt>
      <trkpt lat="43.287950" lon="-4.207117">
        <ele>671.0</ele>
        <time>2015-05-23T14:29:18Z</time>
      </trkpt>
      <trkpt lat="43.287950" lon="-4.207233">
        <ele>669.0</ele>
        <time>2015-05-23T14:29:19Z</time>
      </trkpt>
      <trkpt lat="43.287933" lon="-4.207367">
        <ele>669.0</ele>
        <time>2015-05-23T14:29:20Z</time>
      </trkpt>
      <trkpt lat="43.287933" lon="-4.207483">
        <ele>668.0</ele>
        <time>2015-05-23T14:29:21Z</time>
      </trkpt>
      <trkpt lat="43.287933" lon="-4.207583">
        <ele>668.0</ele>
        <time>2015-05-23T14:29:22Z</time>
      </trkpt>
      <trkpt lat="43.287933" lon="-4.207683">
        <ele>667.0</ele>
        <time>2015-05-23T14:29:23Z</time>
      </trkpt>
      <trkpt lat="43.287950" lon="-4.207783">
        <ele>666.0</ele>
        <time>2015-05-23T14:29:24Z</time>
      </trkpt>
      <trkpt lat="43.287950" lon="-4.207883">
        <ele>665.0</ele>
        <time>2015-05-23T14:29:25Z</time>
      </trkpt>
      <trkpt lat="43.287967" lon="-4.207983">
        <ele>664.0</ele>
        <time>2015-05-23T14:29:26Z</time>
      </trkpt>
      <trkpt lat="43.287983" lon="-4.208083">
        <ele>663.0</ele>
        <time>2015-05-23T14:29:27Z</time>
      </trkpt>
      <trkpt lat="43.288000" lon="-4.208200">
        <ele>662.0</ele>
        <time>2015-05-23T14:29:28Z</time>
      </trkpt>
      <trkpt lat="43.288017" lon="-4.208317">
        <ele>662.0</ele>
        <time>2015-05-23T14:29:29Z</time>
      </trkpt>
      <trkpt lat="43.288017" lon="-4.208433">
        <ele>662.0</ele>
        <time>2015-05-23T14:29:30Z</time>
      </trkpt>
      <trkpt lat="43.288033" lon="-4.208550">
        <ele>662.0</ele>
        <time>2015-05-23T14:29:31Z</time>
      </trkpt>
      <trkpt lat="43.288050" lon="-4.208650">
        <ele>662.0</ele>
        <time>2015-05-23T14:29:32Z</time>
      </trkpt>
      <trkpt lat="43.288067" lon="-4.208750">
        <ele>662.0</ele>
        <time>2015-05-23T14:29:33Z</time>
      </trkpt>
      <trkpt lat="43.288083" lon="-4.208850">
        <ele>662.0</ele>
        <time>2015-05-23T14:29:34Z</time>
      </trkpt>
      <trkpt lat="43.288117" lon="-4.208933">
        <ele>663.0</ele>
        <time>2015-05-23T14:29:35Z</time>
      </trkpt>
      <trkpt lat="43.288133" lon="-4.209017">
        <ele>663.0</ele>
        <time>2015-05-23T14:29:36Z</time>
      </trkpt>
      <trkpt lat="43.288133" lon="-4.209083">
        <ele>664.0</ele>
        <time>2015-05-23T14:29:37Z</time>
      </trkpt>
      <trkpt lat="43.288150" lon="-4.209167">
        <ele>664.0</ele>
        <time>2015-05-23T14:29:38Z</time>
      </trkpt>
      <trkpt lat="43.288150" lon="-4.209250">
        <ele>663.0</ele>
        <time>2015-05-23T14:29:39Z</time>
      </trkpt>
      <trkpt lat="43.288167" lon="-4.209350">
        <ele>663.0</ele>
        <time>2015-05-23T14:29:40Z</time>
      </trkpt>
      <trkpt lat="43.288167" lon="-4.209450">
        <ele>663.0</ele>
        <time>2015-05-23T14:29:41Z</time>
      </trkpt>
      <trkpt lat="43.288167" lon="-4.209567">
        <ele>663.0</ele>
        <time>2015-05-23T14:29:42Z</time>
      </trkpt>
      <trkpt lat="43.288167" lon="-4.209683">
        <ele>663.0</ele>
        <time>2015-05-23T14:29:43Z</time>
      </trkpt>
      <trkpt lat="43.288167" lon="-4.209783">
        <ele>663.0</ele>
        <time>2015-05-23T14:29:44Z</time>
      </trkpt>
      <trkpt lat="43.288183" lon="-4.209900">
        <ele>663.0</ele>
        <time>2015-05-23T14:29:45Z</time>
      </trkpt>
      <trkpt lat="43.288217" lon="-4.210000">
        <ele>662.0</ele>
        <time>2015-05-23T14:29:46Z</time>
      </trkpt>
      <trkpt lat="43.288233" lon="-4.210100">
        <ele>662.0</ele>
        <time>2015-05-23T14:29:47Z</time>
      </trkpt>
      <trkpt lat="43.288250" lon="-4.210217">
        <ele>662.0</ele>
        <time>2015-05-23T14:29:48Z</time>
      </trkpt>
      <trkpt lat="43.288233" lon="-4.210317">
        <ele>662.0</ele>
        <time>2015-05-23T14:29:49Z</time>
      </trkpt>
      <trkpt lat="43.288233" lon="-4.210433">
        <ele>663.0</ele>
        <time>2015-05-23T14:29:50Z</time>
      </trkpt>
      <trkpt lat="43.288217" lon="-4.210533">
        <ele>663.0</ele>
        <time>2015-05-23T14:29:51Z</time>
      </trkpt>
      <trkpt lat="43.288200" lon="-4.210650">
        <ele>664.0</ele>
        <time>2015-05-23T14:29:52Z</time>
      </trkpt>
      <trkpt lat="43.288200" lon="-4.210750">
        <ele>665.0</ele>
        <time>2015-05-23T14:29:53Z</time>
      </trkpt>
      <trkpt lat="43.288183" lon="-4.210850">
        <ele>665.0</ele>
        <time>2015-05-23T14:29:54Z</time>
      </trkpt>
      <trkpt lat="43.288167" lon="-4.210950">
        <ele>666.0</ele>
        <time>2015-05-23T14:29:55Z</time>
      </trkpt>
      <trkpt lat="43.288150" lon="-4.211067">
        <ele>667.0</ele>
        <time>2015-05-23T14:29:56Z</time>
      </trkpt>
      <trkpt lat="43.288133" lon="-4.211167">
        <ele>667.0</ele>
        <time>2015-05-23T14:29:57Z</time>
      </trkpt>
      <trkpt lat="43.288117" lon="-4.211267">
        <ele>667.0</ele>
        <time>2015-05-23T14:29:58Z</time>
      </trkpt>
      <trkpt lat="43.288100" lon="-4.211367">
        <ele>666.0</ele>
        <time>2015-05-23T14:29:59Z</time>
      </trkpt>
      <trkpt lat="43.288100" lon="-4.211483">
        <ele>665.0</ele>
        <time>2015-05-23T14:30:00Z</time>
      </trkpt>
      <trkpt lat="43.288083" lon="-4.211583">
        <ele>665.0</ele>
        <time>2015-05-23T14:30:01Z</time>
      </trkpt>
      <trkpt lat="43.288083" lon="-4.211700">
        <ele>665.0</ele>
        <time>2015-05-23T14:30:02Z</time>
      </trkpt>
      <trkpt lat="43.288100" lon="-4.211800">
        <ele>665.0</ele>
        <time>2015-05-23T14:30:03Z</time>
      </trkpt>
      <trkpt lat="43.288100" lon="-4.211900">
        <ele>665.0</ele>
        <time>2015-05-23T14:30:04Z</time>
      </trkpt>
      <trkpt lat="43.288100" lon="-4.212000">
        <ele>665.0</ele>
        <time>2015-05-23T14:30:05Z</time>
      </trkpt>
      <trkpt lat="43.288100" lon="-4.212117">
        <ele>665.0</ele>
        <time>2015-05-23T14:30:06Z</time>
      </trkpt>
      <trkpt lat="43.288117" lon="-4.212217">
        <ele>665.0</ele>
        <time>2015-05-23T14:30:07Z</time>
      </trkpt>
      <trkpt lat="43.288117" lon="-4.212317">
        <ele>664.0</ele>
        <time>2015-05-23T14:30:08Z</time>
      </trkpt>
      <trkpt lat="43.288133" lon="-4.212433">
        <ele>663.0</ele>
        <time>2015-05-23T14:30:09Z</time>
      </trkpt>
      <trkpt lat="43.288150" lon="-4.212533">
        <ele>662.0</ele>
        <time>2015-05-23T14:30:10Z</time>
      </trkpt>
      <trkpt lat="43.288167" lon="-4.212633">
        <ele>661.0</ele>
        <time>2015-05-23T14:30:11Z</time>
      </trkpt>
      <trkpt lat="43.288200" lon="-4.212733">
        <ele>661.0</ele>
        <time>2015-05-23T14:30:12Z</time>
      </trkpt>
      <trkpt lat="43.288217" lon="-4.212833">
        <ele>659.0</ele>
        <time>2015-05-23T14:30:13Z</time>
      </trkpt>
      <trkpt lat="43.288233" lon="-4.212933">
        <ele>658.0</ele>
        <time>2015-05-23T14:30:14Z</time>
      </trkpt>
      <trkpt lat="43.288250" lon="-4.213050">
        <ele>656.0</ele>
        <time>2015-05-23T14:30:15Z</time>
      </trkpt>
      <trkpt lat="43.288283" lon="-4.213150">
        <ele>653.0</ele>
        <time>2015-05-23T14:30:16Z</time>
      </trkpt>
      <trkpt lat="43.288317" lon="-4.213250">
        <ele>651.0</ele>
        <time>2015-05-23T14:30:17Z</time>
      </trkpt>
      <trkpt lat="43.288367" lon="-4.213350">
        <ele>654.0</ele>
        <time>2015-05-23T14:30:18Z</time>
      </trkpt>
      <trkpt lat="43.288383" lon="-4.213433">
        <ele>653.0</ele>
        <time>2015-05-23T14:30:19Z</time>
      </trkpt>
      <trkpt lat="43.288417" lon="-4.213517">
        <ele>652.0</ele>
        <time>2015-05-23T14:30:20Z</time>
      </trkpt>
      <trkpt lat="43.288433" lon="-4.213600">
        <ele>651.0</ele>
        <time>2015-05-23T14:30:21Z</time>
      </trkpt>
      <trkpt lat="43.288450" lon="-4.213700">
        <ele>648.0</ele>
        <time>2015-05-23T14:30:22Z</time>
      </trkpt>
      <trkpt lat="43.288483" lon="-4.213817">
        <ele>646.0</ele>
        <time>2015-05-23T14:30:23Z</time>
      </trkpt>
      <trkpt lat="43.288500" lon="-4.213917">
        <ele>644.0</ele>
        <time>2015-05-23T14:30:24Z</time>
      </trkpt>
      <trkpt lat="43.288533" lon="-4.214033">
        <ele>642.0</ele>
        <time>2015-05-23T14:30:25Z</time>
      </trkpt>
      <trkpt lat="43.288567" lon="-4.214150">
        <ele>642.0</ele>
        <time>2015-05-23T14:30:26Z</time>
      </trkpt>
      <trkpt lat="43.288583" lon="-4.214267">
        <ele>640.0</ele>
        <time>2015-05-23T14:30:27Z</time>
      </trkpt>
      <trkpt lat="43.288600" lon="-4.214383">
        <ele>638.0</ele>
        <time>2015-05-23T14:30:28Z</time>
      </trkpt>
      <trkpt lat="43.288617" lon="-4.214500">
        <ele>636.0</ele>
        <time>2015-05-23T14:30:29Z</time>
      </trkpt>
      <trkpt lat="43.288633" lon="-4.214633">
        <ele>634.0</ele>
        <time>2015-05-23T14:30:30Z</time>
      </trkpt>
      <trkpt lat="43.288650" lon="-4.214750">
        <ele>632.0</ele>
        <time>2015-05-23T14:30:31Z</time>
      </trkpt>
      <trkpt lat="43.288667" lon="-4.214883">
        <ele>631.0</ele>
        <time>2015-05-23T14:30:32Z</time>
      </trkpt>
      <trkpt lat="43.288667" lon="-4.215000">
        <ele>630.0</ele>
        <time>2015-05-23T14:30:33Z</time>
      </trkpt>
      <trkpt lat="43.288667" lon="-4.215117">
        <ele>629.0</ele>
        <time>2015-05-23T14:30:34Z</time>
      </trkpt>
      <trkpt lat="43.288667" lon="-4.215233">
        <ele>628.0</ele>
        <time>2015-05-23T14:30:35Z</time>
      </trkpt>
      <trkpt lat="43.288650" lon="-4.215367">
        <ele>626.0</ele>
        <time>2015-05-23T14:30:36Z</time>
      </trkpt>
      <trkpt lat="43.288650" lon="-4.215483">
        <ele>625.0</ele>
        <time>2015-05-23T14:30:37Z</time>
      </trkpt>
      <trkpt lat="43.288650" lon="-4.215633">
        <ele>623.0</ele>
        <time>2015-05-23T14:30:38Z</time>
      </trkpt>
      <trkpt lat="43.288633" lon="-4.215767">
        <ele>621.0</ele>
        <time>2015-05-23T14:30:39Z</time>
      </trkpt>
      <trkpt lat="43.288617" lon="-4.215900">
        <ele>619.0</ele>
        <time>2015-05-23T14:30:40Z</time>
      </trkpt>
      <trkpt lat="43.288600" lon="-4.216050">
        <ele>618.0</ele>
        <time>2015-05-23T14:30:41Z</time>
      </trkpt>
      <trkpt lat="43.288583" lon="-4.216167">
        <ele>617.0</ele>
        <time>2015-05-23T14:30:42Z</time>
      </trkpt>
      <trkpt lat="43.288567" lon="-4.216300">
        <ele>616.0</ele>
        <time>2015-05-23T14:30:43Z</time>
      </trkpt>
      <trkpt lat="43.288533" lon="-4.216433">
        <ele>614.0</ele>
        <time>2015-05-23T14:30:44Z</time>
      </trkpt>
      <trkpt lat="43.288517" lon="-4.216567">
        <ele>612.0</ele>
        <time>2015-05-23T14:30:45Z</time>
      </trkpt>
      <trkpt lat="43.288483" lon="-4.216717">
        <ele>611.0</ele>
        <time>2015-05-23T14:30:46Z</time>
      </trkpt>
      <trkpt lat="43.288467" lon="-4.216850">
        <ele>609.0</ele>
        <time>2015-05-23T14:30:47Z</time>
      </trkpt>
      <trkpt lat="43.288433" lon="-4.216983">
        <ele>608.0</ele>
        <time>2015-05-23T14:30:48Z</time>
      </trkpt>
      <trkpt lat="43.288400" lon="-4.217100">
        <ele>607.0</ele>
        <time>2015-05-23T14:30:49Z</time>
      </trkpt>
      <trkpt lat="43.288367" lon="-4.217233">
        <ele>605.0</ele>
        <time>2015-05-23T14:30:50Z</time>
      </trkpt>
      <trkpt lat="43.288317" lon="-4.217367">
        <ele>603.0</ele>
        <time>2015-05-23T14:30:51Z</time>
      </trkpt>
      <trkpt lat="43.288283" lon="-4.217517">
        <ele>601.0</ele>
        <time>2015-05-23T14:30:52Z</time>
      </trkpt>
      <trkpt lat="43.288233" lon="-4.217667">
        <ele>600.0</ele>
        <time>2015-05-23T14:30:53Z</time>
      </trkpt>
      <trkpt lat="43.288217" lon="-4.217800">
        <ele>599.0</ele>
        <time>2015-05-23T14:30:54Z</time>
      </trkpt>
      <trkpt lat="43.288200" lon="-4.217933">
        <ele>599.0</ele>
        <time>2015-05-23T14:30:55Z</time>
      </trkpt>
      <trkpt lat="43.288200" lon="-4.218067">
        <ele>598.0</ele>
        <time>2015-05-23T14:30:56Z</time>
      </trkpt>
      <trkpt lat="43.288167" lon="-4.218183">
        <ele>598.0</ele>
        <time>2015-05-23T14:30:57Z</time>
      </trkpt>
      <trkpt lat="43.288150" lon="-4.218300">
        <ele>597.0</ele>
        <time>2015-05-23T14:30:58Z</time>
      </trkpt>
      <trkpt lat="43.288150" lon="-4.218433">
        <ele>597.0</ele>
        <time>2015-05-23T14:30:59Z</time>
      </trkpt>
      <trkpt lat="43.288167" lon="-4.218567">
        <ele>596.0</ele>
        <time>2015-05-23T14:31:00Z</time>
      </trkpt>
      <trkpt lat="43.288167" lon="-4.218683">
        <ele>596.0</ele>
        <time>2015-05-23T14:31:01Z</time>
      </trkpt>
      <trkpt lat="43.288183" lon="-4.218800">
        <ele>597.0</ele>
        <time>2015-05-23T14:31:02Z</time>
      </trkpt>
      <trkpt lat="43.288200" lon="-4.218917">
        <ele>598.0</ele>
        <time>2015-05-23T14:31:03Z</time>
      </trkpt>
      <trkpt lat="43.288217" lon="-4.219017">
        <ele>599.0</ele>
        <time>2015-05-23T14:31:04Z</time>
      </trkpt>
      <trkpt lat="43.288233" lon="-4.219100">
        <ele>601.0</ele>
        <time>2015-05-23T14:31:05Z</time>
      </trkpt>
      <trkpt lat="43.288267" lon="-4.219167">
        <ele>601.0</ele>
        <time>2015-05-23T14:31:06Z</time>
      </trkpt>
      <trkpt lat="43.288283" lon="-4.219233">
        <ele>601.0</ele>
        <time>2015-05-23T14:31:07Z</time>
      </trkpt>
      <trkpt lat="43.288317" lon="-4.219317">
        <ele>601.0</ele>
        <time>2015-05-23T14:31:08Z</time>
      </trkpt>
      <trkpt lat="43.288333" lon="-4.219383">
        <ele>601.0</ele>
        <time>2015-05-23T14:31:09Z</time>
      </trkpt>
      <trkpt lat="43.288367" lon="-4.219467">
        <ele>602.0</ele>
        <time>2015-05-23T14:31:10Z</time>
      </trkpt>
      <trkpt lat="43.288400" lon="-4.219517">
        <ele>604.0</ele>
        <time>2015-05-23T14:31:11Z</time>
      </trkpt>
      <trkpt lat="43.288417" lon="-4.219567">
        <ele>605.0</ele>
        <time>2015-05-23T14:31:12Z</time>
      </trkpt>
      <trkpt lat="43.288450" lon="-4.219600">
        <ele>606.0</ele>
        <time>2015-05-23T14:31:13Z</time>
      </trkpt>
      <trkpt lat="43.288467" lon="-4.219617">
        <ele>606.0</ele>
        <time>2015-05-23T14:31:14Z</time>
      </trkpt>
      <trkpt lat="43.288500" lon="-4.219650">
        <ele>607.0</ele>
        <time>2015-05-23T14:31:15Z</time>
      </trkpt>
      <trkpt lat="43.288517" lon="-4.219683">
        <ele>607.0</ele>
        <time>2015-05-23T14:31:16Z</time>
      </trkpt>
      <trkpt lat="43.288550" lon="-4.219717">
        <ele>608.0</ele>
        <time>2015-05-23T14:31:17Z</time>
      </trkpt>
      <trkpt lat="43.288583" lon="-4.219750">
        <ele>609.0</ele>
        <time>2015-05-23T14:31:18Z</time>
      </trkpt>
      <trkpt lat="43.288600" lon="-4.219800">
        <ele>610.0</ele>
        <time>2015-05-23T14:31:19Z</time>
      </trkpt>
      <trkpt lat="43.288633" lon="-4.219833">
        <ele>611.0</ele>
        <time>2015-05-23T14:31:20Z</time>
      </trkpt>
      <trkpt lat="43.288650" lon="-4.219867">
        <ele>611.0</ele>
        <time>2015-05-23T14:31:21Z</time>
      </trkpt>
      <trkpt lat="43.288683" lon="-4.219883">
        <ele>610.0</ele>
        <time>2015-05-23T14:31:22Z</time>
      </trkpt>
      <trkpt lat="43.288700" lon="-4.219900">
        <ele>611.0</ele>
        <time>2015-05-23T14:31:23Z</time>
      </trkpt>
      <trkpt lat="43.288750" lon="-4.219917">
        <ele>611.0</ele>
        <time>2015-05-23T14:31:24Z</time>
      </trkpt>
      <trkpt lat="43.288783" lon="-4.219933">
        <ele>612.0</ele>
        <time>2015-05-23T14:31:25Z</time>
      </trkpt>
      <trkpt lat="43.288817" lon="-4.219950">
        <ele>614.0</ele>
        <time>2015-05-23T14:31:26Z</time>
      </trkpt>
      <trkpt lat="43.288850" lon="-4.219983">
        <ele>615.0</ele>
        <time>2015-05-23T14:31:27Z</time>
      </trkpt>
      <trkpt lat="43.288867" lon="-4.220000">
        <ele>617.0</ele>
        <time>2015-05-23T14:31:28Z</time>
      </trkpt>
      <trkpt lat="43.288900" lon="-4.220000">
        <ele>618.0</ele>
        <time>2015-05-23T14:31:29Z</time>
      </trkpt>
      <trkpt lat="43.288933" lon="-4.220017">
        <ele>618.0</ele>
        <time>2015-05-23T14:31:30Z</time>
      </trkpt>
      <trkpt lat="43.288967" lon="-4.220000">
        <ele>620.0</ele>
        <time>2015-05-23T14:31:31Z</time>
      </trkpt>
      <trkpt lat="43.289000" lon="-4.220000">
        <ele>622.0</ele>
        <time>2015-05-23T14:31:32Z</time>
      </trkpt>
      <trkpt lat="43.289017" lon="-4.219983">
        <ele>624.0</ele>
        <time>2015-05-23T14:31:33Z</time>
      </trkpt>
      <trkpt lat="43.289033" lon="-4.219983">
        <ele>626.0</ele>
        <time>2015-05-23T14:31:34Z</time>
      </trkpt>
      <trkpt lat="43.289067" lon="-4.220000">
        <ele>628.0</ele>
        <time>2015-05-23T14:31:35Z</time>
      </trkpt>
      <trkpt lat="43.289083" lon="-4.220017">
        <ele>629.0</ele>
        <time>2015-05-23T14:31:36Z</time>
      </trkpt>
      <trkpt lat="43.289117" lon="-4.220033">
        <ele>631.0</ele>
        <time>2015-05-23T14:31:37Z</time>
      </trkpt>
      <trkpt lat="43.289133" lon="-4.220050">
        <ele>633.0</ele>
        <time>2015-05-23T14:31:38Z</time>
      </trkpt>
      <trkpt lat="43.289150" lon="-4.220033">
        <ele>635.0</ele>
        <time>2015-05-23T14:31:39Z</time>
      </trkpt>
      <trkpt lat="43.289183" lon="-4.220033">
        <ele>637.0</ele>
        <time>2015-05-23T14:31:40Z</time>
      </trkpt>
      <trkpt lat="43.289217" lon="-4.220033">
        <ele>638.0</ele>
        <time>2015-05-23T14:31:41Z</time>
      </trkpt>
      <trkpt lat="43.289233" lon="-4.220033">
        <ele>641.0</ele>
        <time>2015-05-23T14:31:42Z</time>
      </trkpt>
      <trkpt lat="43.289267" lon="-4.220033">
        <ele>643.0</ele>
        <time>2015-05-23T14:31:43Z</time>
      </trkpt>
      <trkpt lat="43.289283" lon="-4.220033">
        <ele>645.0</ele>
        <time>2015-05-23T14:31:44Z</time>
      </trkpt>
      <trkpt lat="43.289300" lon="-4.220033">
        <ele>647.0</ele>
        <time>2015-05-23T14:31:45Z</time>
      </trkpt>
      <trkpt lat="43.289317" lon="-4.220083">
        <ele>649.0</ele>
        <time>2015-05-23T14:31:46Z</time>
      </trkpt>
      <trkpt lat="43.289333" lon="-4.220133">
        <ele>651.0</ele>
        <time>2015-05-23T14:31:47Z</time>
      </trkpt>
      <trkpt lat="43.289350" lon="-4.220200">
        <ele>653.0</ele>
        <time>2015-05-23T14:31:48Z</time>
      </trkpt>
      <trkpt lat="43.289333" lon="-4.220250">
        <ele>654.0</ele>
        <time>2015-05-23T14:31:49Z</time>
      </trkpt>
      <trkpt lat="43.289350" lon="-4.220283">
        <ele>654.0</ele>
        <time>2015-05-23T14:31:50Z</time>
      </trkpt>
      <trkpt lat="43.289350" lon="-4.220333">
        <ele>653.0</ele>
        <time>2015-05-23T14:31:51Z</time>
      </trkpt>
      <trkpt lat="43.289333" lon="-4.220383">
        <ele>652.0</ele>
        <time>2015-05-23T14:31:52Z</time>
      </trkpt>
      <trkpt lat="43.289333" lon="-4.220467">
        <ele>651.0</ele>
        <time>2015-05-23T14:31:53Z</time>
      </trkpt>
      <trkpt lat="43.289317" lon="-4.220567">
        <ele>652.0</ele>
        <time>2015-05-23T14:31:54Z</time>
      </trkpt>
      <trkpt lat="43.289283" lon="-4.220683">
        <ele>654.0</ele>
        <time>2015-05-23T14:31:55Z</time>
      </trkpt>
      <trkpt lat="43.289233" lon="-4.220767">
        <ele>656.0</ele>
        <time>2015-05-23T14:31:56Z</time>
      </trkpt>
      <trkpt lat="43.289183" lon="-4.220833">
        <ele>657.0</ele>
        <time>2015-05-23T14:31:57Z</time>
      </trkpt>
      <trkpt lat="43.289117" lon="-4.220900">
        <ele>657.0</ele>
        <time>2015-05-23T14:31:58Z</time>
      </trkpt>
      <trkpt lat="43.289033" lon="-4.220967">
        <ele>658.0</ele>
        <time>2015-05-23T14:31:59Z</time>
      </trkpt>
      <trkpt lat="43.288933" lon="-4.221033">
        <ele>659.0</ele>
        <time>2015-05-23T14:32:00Z</time>
      </trkpt>
      <trkpt lat="43.288833" lon="-4.221067">
        <ele>661.0</ele>
        <time>2015-05-23T14:32:01Z</time>
      </trkpt>
      <trkpt lat="43.288717" lon="-4.221067">
        <ele>663.0</ele>
        <time>2015-05-23T14:32:02Z</time>
      </trkpt>
      <trkpt lat="43.288617" lon="-4.221050">
        <ele>665.0</ele>
        <time>2015-05-23T14:32:03Z</time>
      </trkpt>
      <trkpt lat="43.288500" lon="-4.221033">
        <ele>667.0</ele>
        <time>2015-05-23T14:32:04Z</time>
      </trkpt>
      <trkpt lat="43.288417" lon="-4.221017">
        <ele>670.0</ele>
        <time>2015-05-23T14:32:05Z</time>
      </trkpt>
      <trkpt lat="43.288317" lon="-4.220983">
        <ele>673.0</ele>
        <time>2015-05-23T14:32:06Z</time>
      </trkpt>
      <trkpt lat="43.288233" lon="-4.220933">
        <ele>675.0</ele>
        <time>2015-05-23T14:32:07Z</time>
      </trkpt>
      <trkpt lat="43.288167" lon="-4.220867">
        <ele>677.0</ele>
        <time>2015-05-23T14:32:08Z</time>
      </trkpt>
      <trkpt lat="43.288100" lon="-4.220783">
        <ele>679.0</ele>
        <time>2015-05-23T14:32:09Z</time>
      </trkpt>
      <trkpt lat="43.288033" lon="-4.220683">
        <ele>680.0</ele>
        <time>2015-05-23T14:32:10Z</time>
      </trkpt>
      <trkpt lat="43.287983" lon="-4.220583">
        <ele>683.0</ele>
        <time>2015-05-23T14:32:11Z</time>
      </trkpt>
      <trkpt lat="43.287950" lon="-4.220500">
        <ele>686.0</ele>
        <time>2015-05-23T14:32:12Z</time>
      </trkpt>
      <trkpt lat="43.287933" lon="-4.220417">
        <ele>688.0</ele>
        <time>2015-05-23T14:32:13Z</time>
      </trkpt>
      <trkpt lat="43.287900" lon="-4.220350">
        <ele>691.0</ele>
        <time>2015-05-23T14:32:14Z</time>
      </trkpt>
      <trkpt lat="43.287883" lon="-4.220283">
        <ele>693.0</ele>
        <time>2015-05-23T14:32:15Z</time>
      </trkpt>
      <trkpt lat="43.287867" lon="-4.220233">
        <ele>695.0</ele>
        <time>2015-05-23T14:32:16Z</time>
      </trkpt>
      <trkpt lat="43.287867" lon="-4.220167">
        <ele>697.0</ele>
        <time>2015-05-23T14:32:17Z</time>
      </trkpt>
      <trkpt lat="43.287867" lon="-4.220117">
        <ele>699.0</ele>
        <time>2015-05-23T14:32:18Z</time>
      </trkpt>
      <trkpt lat="43.287900" lon="-4.220100">
        <ele>701.0</ele>
        <time>2015-05-23T14:32:19Z</time>
      </trkpt>
      <trkpt lat="43.287917" lon="-4.220100">
        <ele>703.0</ele>
        <time>2015-05-23T14:32:20Z</time>
      </trkpt>
      <trkpt lat="43.287933" lon="-4.220100">
        <ele>702.0</ele>
        <time>2015-05-23T14:32:21Z</time>
      </trkpt>
      <trkpt lat="43.287950" lon="-4.220117">
        <ele>703.0</ele>
        <time>2015-05-23T14:32:22Z</time>
      </trkpt>
      <trkpt lat="43.287950" lon="-4.220150">
        <ele>704.0</ele>
        <time>2015-05-23T14:32:23Z</time>
      </trkpt>
      <trkpt lat="43.287950" lon="-4.220217">
        <ele>704.0</ele>
        <time>2015-05-23T14:32:24Z</time>
      </trkpt>
      <trkpt lat="43.287950" lon="-4.220283">
        <ele>704.0</ele>
        <time>2015-05-23T14:32:25Z</time>
      </trkpt>
      <trkpt lat="43.287950" lon="-4.220367">
        <ele>705.0</ele>
        <time>2015-05-23T14:32:26Z</time>
      </trkpt>
      <trkpt lat="43.287917" lon="-4.220467">
        <ele>705.0</ele>
        <time>2015-05-23T14:32:27Z</time>
      </trkpt>
      <trkpt lat="43.287867" lon="-4.220567">
        <ele>706.0</ele>
        <time>2015-05-23T14:32:28Z</time>
      </trkpt>
      <trkpt lat="43.287800" lon="-4.220667">
        <ele>707.0</ele>
        <time>2015-05-23T14:32:29Z</time>
      </trkpt>
      <trkpt lat="43.287717" lon="-4.220750">
        <ele>708.0</ele>
        <time>2015-05-23T14:32:30Z</time>
      </trkpt>
      <trkpt lat="43.287617" lon="-4.220817">
        <ele>711.0</ele>
        <time>2015-05-23T14:32:31Z</time>
      </trkpt>
      <trkpt lat="43.287517" lon="-4.220850">
        <ele>714.0</ele>
        <time>2015-05-23T14:32:32Z</time>
      </trkpt>
      <trkpt lat="43.287417" lon="-4.220883">
        <ele>717.0</ele>
        <time>2015-05-23T14:32:33Z</time>
      </trkpt>
      <trkpt lat="43.287317" lon="-4.220900">
        <ele>719.0</ele>
        <time>2015-05-23T14:32:34Z</time>
      </trkpt>
      <trkpt lat="43.287200" lon="-4.220900">
        <ele>721.0</ele>
        <time>2015-05-23T14:32:35Z</time>
      </trkpt>
      <trkpt lat="43.287083" lon="-4.220883">
        <ele>724.0</ele>
        <time>2015-05-23T14:32:36Z</time>
      </trkpt>
      <trkpt lat="43.286983" lon="-4.220850">
        <ele>728.0</ele>
        <time>2015-05-23T14:32:37Z</time>
      </trkpt>
      <trkpt lat="43.286900" lon="-4.220800">
        <ele>730.0</ele>
        <time>2015-05-23T14:32:38Z</time>
      </trkpt>
      <trkpt lat="43.286817" lon="-4.220733">
        <ele>733.0</ele>
        <time>2015-05-23T14:32:39Z</time>
      </trkpt>
      <trkpt lat="43.286750" lon="-4.220650">
        <ele>734.0</ele>
        <time>2015-05-23T14:32:40Z</time>
      </trkpt>
      <trkpt lat="43.286700" lon="-4.220567">
        <ele>737.0</ele>
        <time>2015-05-23T14:32:41Z</time>
      </trkpt>
      <trkpt lat="43.286650" lon="-4.220500">
        <ele>740.0</ele>
        <time>2015-05-23T14:32:42Z</time>
      </trkpt>
      <trkpt lat="43.286600" lon="-4.220433">
        <ele>742.0</ele>
        <time>2015-05-23T14:32:43Z</time>
      </trkpt>
      <trkpt lat="43.286567" lon="-4.220367">
        <ele>745.0</ele>
        <time>2015-05-23T14:32:44Z</time>
      </trkpt>
      <trkpt lat="43.286533" lon="-4.220300">
        <ele>747.0</ele>
        <time>2015-05-23T14:32:45Z</time>
      </trkpt>
      <trkpt lat="43.286500" lon="-4.220233">
        <ele>750.0</ele>
        <time>2015-05-23T14:32:46Z</time>
      </trkpt>
      <trkpt lat="43.286467" lon="-4.220167">
        <ele>752.0</ele>
        <time>2015-05-23T14:32:47Z</time>
      </trkpt>
      <trkpt lat="43.286450" lon="-4.220100">
        <ele>755.0</ele>
        <time>2015-05-23T14:32:48Z</time>
      </trkpt>
      <trkpt lat="43.286433" lon="-4.220050">
        <ele>758.0</ele>
        <time>2015-05-23T14:32:49Z</time>
      </trkpt>
      <trkpt lat="43.286417" lon="-4.220000">
        <ele>760.0</ele>
        <time>2015-05-23T14:32:50Z</time>
      </trkpt>
      <trkpt lat="43.286417" lon="-4.219950">
        <ele>763.0</ele>
        <time>2015-05-23T14:32:51Z</time>
      </trkpt>
      <trkpt lat="43.286433" lon="-4.219883">
        <ele>765.0</ele>
        <time>2015-05-23T14:32:52Z</time>
      </trkpt>
      <trkpt lat="43.286433" lon="-4.219833">
        <ele>767.0</ele>
        <time>2015-05-23T14:32:53Z</time>
      </trkpt>
      <trkpt lat="43.286450" lon="-4.219833">
        <ele>770.0</ele>
        <time>2015-05-23T14:32:54Z</time>
      </trkpt>
      <trkpt lat="43.286467" lon="-4.219850">
        <ele>772.0</ele>
        <time>2015-05-23T14:32:55Z</time>
      </trkpt>
      <trkpt lat="43.286483" lon="-4.219883">
        <ele>774.0</ele>
        <time>2015-05-23T14:32:56Z</time>
      </trkpt>
      <trkpt lat="43.286500" lon="-4.219917">
        <ele>776.0</ele>
        <time>2015-05-23T14:32:57Z</time>
      </trkpt>
      <trkpt lat="43.286517" lon="-4.219950">
        <ele>778.0</ele>
        <time>2015-05-23T14:32:58Z</time>
      </trkpt>
      <trkpt lat="43.286517" lon="-4.219983">
        <ele>779.0</ele>
        <time>2015-05-23T14:32:59Z</time>
      </trkpt>
      <trkpt lat="43.286533" lon="-4.220017">
        <ele>779.0</ele>
        <time>2015-05-23T14:33:00Z</time>
      </trkpt>
      <trkpt lat="43.286533" lon="-4.220067">
        <ele>778.0</ele>
        <time>2015-05-23T14:33:01Z</time>
      </trkpt>
      <trkpt lat="43.286550" lon="-4.220133">
        <ele>779.0</ele>
        <time>2015-05-23T14:33:02Z</time>
      </trkpt>
      <trkpt lat="43.286550" lon="-4.220200">
        <ele>779.0</ele>
        <time>2015-05-23T14:33:03Z</time>
      </trkpt>
      <trkpt lat="43.286583" lon="-4.220250">
        <ele>780.0</ele>
        <time>2015-05-23T14:33:04Z</time>
      </trkpt>
      <trkpt lat="43.286600" lon="-4.220283">
        <ele>781.0</ele>
        <time>2015-05-23T14:33:05Z</time>
      </trkpt>
      <trkpt lat="43.286617" lon="-4.220300">
        <ele>783.0</ele>
        <time>2015-05-23T14:33:06Z</time>
      </trkpt>
      <trkpt lat="43.286633" lon="-4.220317">
        <ele>784.0</ele>
        <time>2015-05-23T14:33:07Z</time>
      </trkpt>
      <trkpt lat="43.286650" lon="-4.220350">
        <ele>784.0</ele>
        <time>2015-05-23T14:33:08Z</time>
      </trkpt>
      <trkpt lat="43.286667" lon="-4.220367">
        <ele>784.0</ele>
        <time>2015-05-23T14:33:09Z</time>
      </trkpt>
      <trkpt lat="43.286683" lon="-4.220383">
        <ele>785.0</ele>
        <time>2015-05-23T14:33:10Z</time>
      </trkpt>
      <trkpt lat="43.286717" lon="-4.220400">
        <ele>785.0</ele>
        <time>2015-05-23T14:33:11Z</time>
      </trkpt>
      <trkpt lat="43.286733" lon="-4.220417">
        <ele>786.0</ele>
        <time>2015-05-23T14:33:12Z</time>
      </trkpt>
      <trkpt lat="43.286750" lon="-4.220433">
        <ele>786.0</ele>
        <time>2015-05-23T14:33:13Z</time>
      </trkpt>
      <trkpt lat="43.286767" lon="-4.220467">
        <ele>787.0</ele>
        <time>2015-05-23T14:33:14Z</time>
      </trkpt>
      <trkpt lat="43.286783" lon="-4.220500">
        <ele>788.0</ele>
        <time>2015-05-23T14:33:15Z</time>
      </trkpt>
      <trkpt lat="43.286800" lon="-4.220533">
        <ele>789.0</ele>
        <time>2015-05-23T14:33:16Z</time>
      </trkpt>
      <trkpt lat="43.286817" lon="-4.220583">
        <ele>790.0</ele>
        <time>2015-05-23T14:33:17Z</time>
      </trkpt>
      <trkpt lat="43.286850" lon="-4.220617">
        <ele>791.0</ele>
        <time>2015-05-23T14:33:18Z</time>
      </trkpt>
      <trkpt lat="43.286867" lon="-4.220650">
        <ele>792.0</ele>
        <time>2015-05-23T14:33:19Z</time>
      </trkpt>
      <trkpt lat="43.286900" lon="-4.220683">
        <ele>792.0</ele>
        <time>2015-05-23T14:33:20Z</time>
      </trkpt>
      <trkpt lat="43.286917" lon="-4.220717">
        <ele>792.0</ele>
        <time>2015-05-23T14:33:21Z</time>
      </trkpt>
      <trkpt lat="43.286950" lon="-4.220750">
        <ele>792.0</ele>
        <time>2015-05-23T14:33:22Z</time>
      </trkpt>
      <trkpt lat="43.286983" lon="-4.220800">
        <ele>792.0</ele>
        <time>2015-05-23T14:33:23Z</time>
      </trkpt>
      <trkpt lat="43.287017" lon="-4.220850">
        <ele>793.0</ele>
        <time>2015-05-23T14:33:24Z</time>
      </trkpt>
      <trkpt lat="43.287067" lon="-4.220867">
        <ele>794.0</ele>
        <time>2015-05-23T14:33:25Z</time>
      </trkpt>
      <trkpt lat="43.287117" lon="-4.220883">
        <ele>795.0</ele>
        <time>2015-05-23T14:33:26Z</time>
      </trkpt>
      <trkpt lat="43.287167" lon="-4.220883">
        <ele>795.0</ele>
        <time>2015-05-23T14:33:27Z</time>
      </trkpt>
      <trkpt lat="43.287233" lon="-4.220883">
        <ele>796.0</ele>
        <time>2015-05-23T14:33:28Z</time>
      </trkpt>
      <trkpt lat="43.287300" lon="-4.220883">
        <ele>798.0</ele>
        <time>2015-05-23T14:33:29Z</time>
      </trkpt>
      <trkpt lat="43.287350" lon="-4.220900">
        <ele>799.0</ele>
        <time>2015-05-23T14:33:30Z</time>
      </trkpt>
      <trkpt lat="43.287383" lon="-4.220933">
        <ele>801.0</ele>
        <time>2015-05-23T14:33:31Z</time>
      </trkpt>
      <trkpt lat="43.287417" lon="-4.220950">
        <ele>802.0</ele>
        <time>2015-05-23T14:33:32Z</time>
      </trkpt>
      <trkpt lat="43.287450" lon="-4.220967">
        <ele>803.0</ele>
        <time>2015-05-23T14:33:33Z</time>
      </trkpt>
      <trkpt lat="43.287467" lon="-4.220983">
        <ele>803.0</ele>
        <time>2015-05-23T14:33:34Z</time>
      </trkpt>
      <trkpt lat="43.287517" lon="-4.221000">
        <ele>803.0</ele>
        <time>2015-05-23T14:33:35Z</time>
      </trkpt>
      <trkpt lat="43.287567" lon="-4.221033">
        <ele>802.0</ele>
        <time>2015-05-23T14:33:36Z</time>
      </trkpt>
      <trkpt lat="43.287617" lon="-4.221067">
        <ele>802.0</ele>
        <time>2015-05-23T14:33:37Z</time>
      </trkpt>
      <trkpt lat="43.287667" lon="-4.221083">
        <ele>801.0</ele>
        <time>2015-05-23T14:33:38Z</time>
      </trkpt>
      <trkpt lat="43.287733" lon="-4.221100">
        <ele>800.0</ele>
        <time>2015-05-23T14:33:39Z</time>
      </trkpt>
      <trkpt lat="43.287800" lon="-4.221133">
        <ele>799.0</ele>
        <time>2015-05-23T14:33:40Z</time>
      </trkpt>
      <trkpt lat="43.287867" lon="-4.221150">
        <ele>797.0</ele>
        <time>2015-05-23T14:33:41Z</time>
      </trkpt>
      <trkpt lat="43.287917" lon="-4.221183">
        <ele>795.0</ele>
        <time>2015-05-23T14:33:42Z</time>
      </trkpt>
      <trkpt lat="43.287983" lon="-4.221200">
        <ele>794.0</ele>
        <time>2015-05-23T14:33:43Z</time>
      </trkpt>
      <trkpt lat="43.288033" lon="-4.221217">
        <ele>792.0</ele>
        <time>2015-05-23T14:33:44Z</time>
      </trkpt>
      <trkpt lat="43.288100" lon="-4.221250">
        <ele>791.0</ele>
        <time>2015-05-23T14:33:45Z</time>
      </trkpt>
      <trkpt lat="43.288150" lon="-4.221283">
        <ele>791.0</ele>
        <time>2015-05-23T14:33:46Z</time>
      </trkpt>
      <trkpt lat="43.288217" lon="-4.221333">
        <ele>788.0</ele>
        <time>2015-05-23T14:33:47Z</time>
      </trkpt>
      <trkpt lat="43.288267" lon="-4.221367">
        <ele>785.0</ele>
        <time>2015-05-23T14:33:48Z</time>
      </trkpt>
      <trkpt lat="43.288333" lon="-4.221400">
        <ele>784.0</ele>
        <time>2015-05-23T14:33:49Z</time>
      </trkpt>
      <trkpt lat="43.288383" lon="-4.221433">
        <ele>782.0</ele>
        <time>2015-05-23T14:33:50Z</time>
      </trkpt>
      <trkpt lat="43.288433" lon="-4.221467">
        <ele>780.0</ele>
        <time>2015-05-23T14:33:51Z</time>
      </trkpt>
      <trkpt lat="43.288483" lon="-4.221517">
        <ele>777.0</ele>
        <time>2015-05-23T14:33:52Z</time>
      </trkpt>
      <trkpt lat="43.288533" lon="-4.221567">
        <ele>774.0</ele>
        <time>2015-05-23T14:33:53Z</time>
      </trkpt>
      <trkpt lat="43.288600" lon="-4.221600">
        <ele>771.0</ele>
        <time>2015-05-23T14:33:54Z</time>
      </trkpt>
      <trkpt lat="43.288650" lon="-4.221617">
        <ele>768.0</ele>
        <time>2015-05-23T14:33:55Z</time>
      </trkpt>
      <trkpt lat="43.288717" lon="-4.221617">
        <ele>766.0</ele>
        <time>2015-05-23T14:33:56Z</time>
      </trkpt>
      <trkpt lat="43.288767" lon="-4.221600">
        <ele>764.0</ele>
        <time>2015-05-23T14:33:57Z</time>
      </trkpt>
      <trkpt lat="43.288817" lon="-4.221583">
        <ele>761.0</ele>
        <time>2015-05-23T14:33:58Z</time>
      </trkpt>
      <trkpt lat="43.288867" lon="-4.221583">
        <ele>758.0</ele>
        <time>2015-05-23T14:33:59Z</time>
      </trkpt>
      <trkpt lat="43.288917" lon="-4.221583">
        <ele>754.0</ele>
        <time>2015-05-23T14:34:00Z</time>
      </trkpt>
      <trkpt lat="43.289000" lon="-4.221567">
        <ele>751.0</ele>
        <time>2015-05-23T14:34:01Z</time>
      </trkpt>
      <trkpt lat="43.289067" lon="-4.221533">
        <ele>747.0</ele>
        <time>2015-05-23T14:34:02Z</time>
      </trkpt>
      <trkpt lat="43.289133" lon="-4.221500">
        <ele>745.0</ele>
        <time>2015-05-23T14:34:03Z</time>
      </trkpt>
      <trkpt lat="43.289217" lon="-4.221483">
        <ele>742.0</ele>
        <time>2015-05-23T14:34:04Z</time>
      </trkpt>
      <trkpt lat="43.289283" lon="-4.221467">
        <ele>740.0</ele>
        <time>2015-05-23T14:34:05Z</time>
      </trkpt>
      <trkpt lat="43.289350" lon="-4.221450">
        <ele>741.0</ele>
        <time>2015-05-23T14:34:06Z</time>
      </trkpt>
      <trkpt lat="43.289433" lon="-4.221450">
        <ele>739.0</ele>
        <time>2015-05-23T14:34:07Z</time>
      </trkpt>
      <trkpt lat="43.289500" lon="-4.221450">
        <ele>737.0</ele>
        <time>2015-05-23T14:34:08Z</time>
      </trkpt>
      <trkpt lat="43.289567" lon="-4.221450">
        <ele>736.0</ele>
        <time>2015-05-23T14:34:09Z</time>
      </trkpt>
      <trkpt lat="43.289617" lon="-4.221467">
        <ele>734.0</ele>
        <time>2015-05-23T14:34:10Z</time>
      </trkpt>
      <trkpt lat="43.289683" lon="-4.221500">
        <ele>731.0</ele>
        <time>2015-05-23T14:34:11Z</time>
      </trkpt>
      <trkpt lat="43.289733" lon="-4.221533">
        <ele>728.0</ele>
        <time>2015-05-23T14:34:12Z</time>
      </trkpt>
      <trkpt lat="43.289800" lon="-4.221583">
        <ele>726.0</ele>
        <time>2015-05-23T14:34:13Z</time>
      </trkpt>
      <trkpt lat="43.289867" lon="-4.221633">
        <ele>724.0</ele>
        <time>2015-05-23T14:34:14Z</time>
      </trkpt>
      <trkpt lat="43.289917" lon="-4.221683">
        <ele>722.0</ele>
        <time>2015-05-23T14:34:15Z</time>
      </trkpt>
      <trkpt lat="43.289983" lon="-4.221733">
        <ele>719.0</ele>
        <time>2015-05-23T14:34:16Z</time>
      </trkpt>
      <trkpt lat="43.290033" lon="-4.221783">
        <ele>717.0</ele>
        <time>2015-05-23T14:34:17Z</time>
      </trkpt>
      <trkpt lat="43.290100" lon="-4.221833">
        <ele>715.0</ele>
        <time>2015-05-23T14:34:18Z</time>
      </trkpt>
      <trkpt lat="43.290167" lon="-4.221883">
        <ele>713.0</ele>
        <time>2015-05-23T14:34:19Z</time>
      </trkpt>
      <trkpt lat="43.290233" lon="-4.221917">
        <ele>711.0</ele>
        <time>2015-05-23T14:34:20Z</time>
      </trkpt>
      <trkpt lat="43.290300" lon="-4.221933">
        <ele>710.0</ele>
        <time>2015-05-23T14:34:21Z</time>
      </trkpt>
      <trkpt lat="43.290383" lon="-4.221950">
        <ele>709.0</ele>
        <time>2015-05-23T14:34:22Z</time>
      </trkpt>
      <trkpt lat="43.290483" lon="-4.221950">
        <ele>707.0</ele>
        <time>2015-05-23T14:34:23Z</time>
      </trkpt>
      <trkpt lat="43.290567" lon="-4.221933">
        <ele>709.0</ele>
        <time>2015-05-23T14:34:24Z</time>
      </trkpt>
      <trkpt lat="43.290617" lon="-4.221883">
        <ele>708.0</ele>
        <time>2015-05-23T14:34:25Z</time>
      </trkpt>
      <trkpt lat="43.290650" lon="-4.221850">
        <ele>708.0</ele>
        <time>2015-05-23T14:34:26Z</time>
      </trkpt>
      <trkpt lat="43.290683" lon="-4.221850">
        <ele>708.0</ele>
        <time>2015-05-23T14:34:27Z</time>
      </trkpt>
      <trkpt lat="43.290717" lon="-4.221850">
        <ele>708.0</ele>
        <time>2015-05-23T14:34:28Z</time>
      </trkpt>
      <trkpt lat="43.290750" lon="-4.221883">
        <ele>708.0</ele>
        <time>2015-05-23T14:34:29Z</time>
      </trkpt>
      <trkpt lat="43.290783" lon="-4.221900">
        <ele>708.0</ele>
        <time>2015-05-23T14:34:30Z</time>
      </trkpt>
      <trkpt lat="43.290800" lon="-4.221933">
        <ele>708.0</ele>
        <time>2015-05-23T14:34:31Z</time>
      </trkpt>
      <trkpt lat="43.290833" lon="-4.221967">
        <ele>708.0</ele>
        <time>2015-05-23T14:34:32Z</time>
      </trkpt>
      <trkpt lat="43.290850" lon="-4.222017">
        <ele>708.0</ele>
        <time>2015-05-23T14:34:33Z</time>
      </trkpt>
      <trkpt lat="43.290883" lon="-4.222067">
        <ele>708.0</ele>
        <time>2015-05-23T14:34:34Z</time>
      </trkpt>
      <trkpt lat="43.290917" lon="-4.222100">
        <ele>708.0</ele>
        <time>2015-05-23T14:34:35Z</time>
      </trkpt>
      <trkpt lat="43.290950" lon="-4.222150">
        <ele>709.0</ele>
        <time>2015-05-23T14:34:36Z</time>
      </trkpt>
      <trkpt lat="43.290983" lon="-4.222200">
        <ele>709.0</ele>
        <time>2015-05-23T14:34:37Z</time>
      </trkpt>
      <trkpt lat="43.291000" lon="-4.222250">
        <ele>710.0</ele>
        <time>2015-05-23T14:34:38Z</time>
      </trkpt>
      <trkpt lat="43.291033" lon="-4.222300">
        <ele>711.0</ele>
        <time>2015-05-23T14:34:39Z</time>
      </trkpt>
      <trkpt lat="43.291050" lon="-4.222350">
        <ele>712.0</ele>
        <time>2015-05-23T14:34:40Z</time>
      </trkpt>
      <trkpt lat="43.291067" lon="-4.222417">
        <ele>714.0</ele>
        <time>2015-05-23T14:34:41Z</time>
      </trkpt>
      <trkpt lat="43.291067" lon="-4.222483">
        <ele>715.0</ele>
        <time>2015-05-23T14:34:42Z</time>
      </trkpt>
      <trkpt lat="43.291067" lon="-4.222567">
        <ele>713.0</ele>
        <time>2015-05-23T14:34:43Z</time>
      </trkpt>
      <trkpt lat="43.291083" lon="-4.222650">
        <ele>714.0</ele>
        <time>2015-05-23T14:34:44Z</time>
      </trkpt>
      <trkpt lat="43.291100" lon="-4.222717">
        <ele>714.0</ele>
        <time>2015-05-23T14:34:45Z</time>
      </trkpt>
      <trkpt lat="43.291133" lon="-4.222800">
        <ele>715.0</ele>
        <time>2015-05-23T14:34:46Z</time>
      </trkpt>
      <trkpt lat="43.291167" lon="-4.222867">
        <ele>716.0</ele>
        <time>2015-05-23T14:34:47Z</time>
      </trkpt>
      <trkpt lat="43.291183" lon="-4.222933">
        <ele>718.0</ele>
        <time>2015-05-23T14:34:48Z</time>
      </trkpt>
      <trkpt lat="43.291217" lon="-4.222983">
        <ele>720.0</ele>
        <time>2015-05-23T14:34:49Z</time>
      </trkpt>
      <trkpt lat="43.291233" lon="-4.223017">
        <ele>723.0</ele>
        <time>2015-05-23T14:34:50Z</time>
      </trkpt>
      <trkpt lat="43.291250" lon="-4.223067">
        <ele>720.0</ele>
        <time>2015-05-23T14:34:51Z</time>
      </trkpt>
      <trkpt lat="43.291267" lon="-4.223100">
        <ele>721.0</ele>
        <time>2015-05-23T14:34:52Z</time>
      </trkpt>
      <trkpt lat="43.291300" lon="-4.223150">
        <ele>723.0</ele>
        <time>2015-05-23T14:34:53Z</time>
      </trkpt>
      <trkpt lat="43.291317" lon="-4.223200">
        <ele>725.0</ele>
        <time>2015-05-23T14:34:54Z</time>
      </trkpt>
      <trkpt lat="43.291333" lon="-4.223233">
        <ele>727.0</ele>
        <time>2015-05-23T14:34:55Z</time>
      </trkpt>
      <trkpt lat="43.291367" lon="-4.223283">
        <ele>730.0</ele>
        <time>2015-05-23T14:34:56Z</time>
      </trkpt>
      <trkpt lat="43.291383" lon="-4.223333">
        <ele>732.0</ele>
        <time>2015-05-23T14:34:57Z</time>
      </trkpt>
      <trkpt lat="43.291383" lon="-4.223417">
        <ele>735.0</ele>
        <time>2015-05-23T14:34:58Z</time>
      </trkpt>
      <trkpt lat="43.291383" lon="-4.223517">
        <ele>737.0</ele>
        <time>2015-05-23T14:34:59Z</time>
      </trkpt>
      <trkpt lat="43.291350" lon="-4.223617">
        <ele>739.0</ele>
        <time>2015-05-23T14:35:00Z</time>
      </trkpt>
      <trkpt lat="43.291300" lon="-4.223717">
        <ele>741.0</ele>
        <time>2015-05-23T14:35:01Z</time>
      </trkpt>
      <trkpt lat="43.291233" lon="-4.223817">
        <ele>743.0</ele>
        <time>2015-05-23T14:35:02Z</time>
      </trkpt>
      <trkpt lat="43.291167" lon="-4.223900">
        <ele>745.0</ele>
        <time>2015-05-23T14:35:03Z</time>
      </trkpt>
      <trkpt lat="43.291083" lon="-4.223967">
        <ele>747.0</ele>
        <time>2015-05-23T14:35:04Z</time>
      </trkpt>
      <trkpt lat="43.291000" lon="-4.224017">
        <ele>749.0</ele>
        <time>2015-05-23T14:35:05Z</time>
      </trkpt>
      <trkpt lat="43.290900" lon="-4.224050">
        <ele>751.0</ele>
        <time>2015-05-23T14:35:06Z</time>
      </trkpt>
      <trkpt lat="43.290800" lon="-4.224050">
        <ele>753.0</ele>
        <time>2015-05-23T14:35:07Z</time>
      </trkpt>
      <trkpt lat="43.290700" lon="-4.224033">
        <ele>755.0</ele>
        <time>2015-05-23T14:35:08Z</time>
      </trkpt>
      <trkpt lat="43.290600" lon="-4.223983">
        <ele>758.0</ele>
        <time>2015-05-23T14:35:09Z</time>
      </trkpt>
      <trkpt lat="43.290517" lon="-4.223933">
        <ele>761.0</ele>
        <time>2015-05-23T14:35:10Z</time>
      </trkpt>
      <trkpt lat="43.290450" lon="-4.223867">
        <ele>763.0</ele>
        <time>2015-05-23T14:35:11Z</time>
      </trkpt>
      <trkpt lat="43.290400" lon="-4.223783">
        <ele>765.0</ele>
        <time>2015-05-23T14:35:12Z</time>
      </trkpt>
      <trkpt lat="43.290383" lon="-4.223717">
        <ele>766.0</ele>
        <time>2015-05-23T14:35:13Z</time>
      </trkpt>
      <trkpt lat="43.290367" lon="-4.223633">
        <ele>768.0</ele>
        <time>2015-05-23T14:35:14Z</time>
      </trkpt>
      <trkpt lat="43.290383" lon="-4.223567">
        <ele>770.0</ele>
        <time>2015-05-23T14:35:15Z</time>
      </trkpt>
      <trkpt lat="43.290417" lon="-4.223517">
        <ele>772.0</ele>
        <time>2015-05-23T14:35:16Z</time>
      </trkpt>
      <trkpt lat="43.290433" lon="-4.223483">
        <ele>775.0</ele>
        <time>2015-05-23T14:35:17Z</time>
      </trkpt>
      <trkpt lat="43.290450" lon="-4.223467">
        <ele>779.0</ele>
        <time>2015-05-23T14:35:18Z</time>
      </trkpt>
      <trkpt lat="43.290450" lon="-4.223433">
        <ele>781.0</ele>
        <time>2015-05-23T14:35:19Z</time>
      </trkpt>
      <trkpt lat="43.290467" lon="-4.223400">
        <ele>782.0</ele>
        <time>2015-05-23T14:35:20Z</time>
      </trkpt>
      <trkpt lat="43.290500" lon="-4.223367">
        <ele>783.0</ele>
        <time>2015-05-23T14:35:21Z</time>
      </trkpt>
      <trkpt lat="43.290533" lon="-4.223367">
        <ele>784.0</ele>
        <time>2015-05-23T14:35:22Z</time>
      </trkpt>
      <trkpt lat="43.290567" lon="-4.223383">
        <ele>785.0</ele>
        <time>2015-05-23T14:35:23Z</time>
      </trkpt>
      <trkpt lat="43.290600" lon="-4.223417">
        <ele>786.0</ele>
        <time>2015-05-23T14:35:24Z</time>
      </trkpt>
      <trkpt lat="43.290633" lon="-4.223450">
        <ele>787.0</ele>
        <time>2015-05-23T14:35:25Z</time>
      </trkpt>
      <trkpt lat="43.290650" lon="-4.223467">
        <ele>789.0</ele>
        <time>2015-05-23T14:35:26Z</time>
      </trkpt>
      <trkpt lat="43.290683" lon="-4.223500">
        <ele>789.0</ele>
        <time>2015-05-23T14:35:27Z</time>
      </trkpt>
      <trkpt lat="43.290700" lon="-4.223533">
        <ele>790.0</ele>
        <time>2015-05-23T14:35:28Z</time>
      </trkpt>
      <trkpt lat="43.290733" lon="-4.223583">
        <ele>791.0</ele>
        <time>2015-05-23T14:35:29Z</time>
      </trkpt>
      <trkpt lat="43.290767" lon="-4.223633">
        <ele>791.0</ele>
        <time>2015-05-23T14:35:30Z</time>
      </trkpt>
      <trkpt lat="43.290783" lon="-4.223700">
        <ele>792.0</ele>
        <time>2015-05-23T14:35:31Z</time>
      </trkpt>
      <trkpt lat="43.290800" lon="-4.223750">
        <ele>793.0</ele>
        <time>2015-05-23T14:35:32Z</time>
      </trkpt>
      <trkpt lat="43.290817" lon="-4.223800">
        <ele>793.0</ele>
        <time>2015-05-23T14:35:33Z</time>
      </trkpt>
      <trkpt lat="43.290850" lon="-4.223867">
        <ele>793.0</ele>
        <time>2015-05-23T14:35:34Z</time>
      </trkpt>
      <trkpt lat="43.290867" lon="-4.223933">
        <ele>794.0</ele>
        <time>2015-05-23T14:35:35Z</time>
      </trkpt>
      <trkpt lat="43.290883" lon="-4.224000">
        <ele>795.0</ele>
        <time>2015-05-23T14:35:36Z</time>
      </trkpt>
      <trkpt lat="43.290900" lon="-4.224083">
        <ele>796.0</ele>
        <time>2015-05-23T14:35:37Z</time>
      </trkpt>
      <trkpt lat="43.290917" lon="-4.224150">
        <ele>797.0</ele>
        <time>2015-05-23T14:35:38Z</time>
      </trkpt>
      <trkpt lat="43.290933" lon="-4.224217">
        <ele>798.0</ele>
        <time>2015-05-23T14:35:39Z</time>
      </trkpt>
      <trkpt lat="43.290933" lon="-4.224283">
        <ele>798.0</ele>
        <time>2015-05-23T14:35:40Z</time>
      </trkpt>
      <trkpt lat="43.290933" lon="-4.224350">
        <ele>798.0</ele>
        <time>2015-05-23T14:35:41Z</time>
      </trkpt>
      <trkpt lat="43.290933" lon="-4.224433">
        <ele>797.0</ele>
        <time>2015-05-23T14:35:42Z</time>
      </trkpt>
      <trkpt lat="43.290933" lon="-4.224550">
        <ele>795.0</ele>
        <time>2015-05-23T14:35:43Z</time>
      </trkpt>
      <trkpt lat="43.290900" lon="-4.224667">
        <ele>794.0</ele>
        <time>2015-05-23T14:35:44Z</time>
      </trkpt>
      <trkpt lat="43.290850" lon="-4.224783">
        <ele>794.0</ele>
        <time>2015-05-23T14:35:45Z</time>
      </trkpt>
      <trkpt lat="43.290800" lon="-4.224867">
        <ele>795.0</ele>
        <time>2015-05-23T14:35:46Z</time>
      </trkpt>
      <trkpt lat="43.290767" lon="-4.224967">
        <ele>796.0</ele>
        <time>2015-05-23T14:35:47Z</time>
      </trkpt>
      <trkpt lat="43.290733" lon="-4.225033">
        <ele>798.0</ele>
        <time>2015-05-23T14:35:48Z</time>
      </trkpt>
      <trkpt lat="43.290700" lon="-4.225117">
        <ele>799.0</ele>
        <time>2015-05-23T14:35:49Z</time>
      </trkpt>
      <trkpt lat="43.290650" lon="-4.225200">
        <ele>800.0</ele>
        <time>2015-05-23T14:35:50Z</time>
      </trkpt>
      <trkpt lat="43.290600" lon="-4.225300">
        <ele>801.0</ele>
        <time>2015-05-23T14:35:51Z</time>
      </trkpt>
      <trkpt lat="43.290533" lon="-4.225400">
        <ele>803.0</ele>
        <time>2015-05-23T14:35:52Z</time>
      </trkpt>
      <trkpt lat="43.290483" lon="-4.225483">
        <ele>805.0</ele>
        <time>2015-05-23T14:35:53Z</time>
      </trkpt>
      <trkpt lat="43.290433" lon="-4.225550">
        <ele>807.0</ele>
        <time>2015-05-23T14:35:54Z</time>
      </trkpt>
      <trkpt lat="43.290367" lon="-4.225617">
        <ele>808.0</ele>
        <time>2015-05-23T14:35:55Z</time>
      </trkpt>
      <trkpt lat="43.290300" lon="-4.225683">
        <ele>808.0</ele>
        <time>2015-05-23T14:35:56Z</time>
      </trkpt>
      <trkpt lat="43.290200" lon="-4.225750">
        <ele>809.0</ele>
        <time>2015-05-23T14:35:57Z</time>
      </trkpt>
      <trkpt lat="43.290117" lon="-4.225817">
        <ele>809.0</ele>
        <time>2015-05-23T14:35:58Z</time>
      </trkpt>
      <trkpt lat="43.290000" lon="-4.225850">
        <ele>810.0</ele>
        <time>2015-05-23T14:35:59Z</time>
      </trkpt>
      <trkpt lat="43.289900" lon="-4.225867">
        <ele>810.0</ele>
        <time>2015-05-23T14:36:00Z</time>
      </trkpt>
      <trkpt lat="43.289817" lon="-4.225850">
        <ele>810.0</ele>
        <time>2015-05-23T14:36:01Z</time>
      </trkpt>
      <trkpt lat="43.289717" lon="-4.225817">
        <ele>810.0</ele>
        <time>2015-05-23T14:36:02Z</time>
      </trkpt>
      <trkpt lat="43.289633" lon="-4.225750">
        <ele>810.0</ele>
        <time>2015-05-23T14:36:03Z</time>
      </trkpt>
      <trkpt lat="43.289550" lon="-4.225683">
        <ele>810.0</ele>
        <time>2015-05-23T14:36:04Z</time>
      </trkpt>
      <trkpt lat="43.289483" lon="-4.225600">
        <ele>811.0</ele>
        <time>2015-05-23T14:36:05Z</time>
      </trkpt>
      <trkpt lat="43.289433" lon="-4.225500">
        <ele>811.0</ele>
        <time>2015-05-23T14:36:06Z</time>
      </trkpt>
      <trkpt lat="43.289400" lon="-4.225417">
        <ele>811.0</ele>
        <time>2015-05-23T14:36:07Z</time>
      </trkpt>
      <trkpt lat="43.289400" lon="-4.225317">
        <ele>811.0</ele>
        <time>2015-05-23T14:36:08Z</time>
      </trkpt>
      <trkpt lat="43.289400" lon="-4.225250">
        <ele>811.0</ele>
        <time>2015-05-23T14:36:09Z</time>
      </trkpt>
      <trkpt lat="43.289417" lon="-4.225183">
        <ele>811.0</ele>
        <time>2015-05-23T14:36:10Z</time>
      </trkpt>
      <trkpt lat="43.289433" lon="-4.225133">
        <ele>812.0</ele>
        <time>2015-05-23T14:36:11Z</time>
      </trkpt>
      <trkpt lat="43.289450" lon="-4.225083">
        <ele>812.0</ele>
        <time>2015-05-23T14:36:12Z</time>
      </trkpt>
      <trkpt lat="43.289467" lon="-4.225017">
        <ele>811.0</ele>
        <time>2015-05-23T14:36:13Z</time>
      </trkpt>
      <trkpt lat="43.289483" lon="-4.224967">
        <ele>811.0</ele>
        <time>2015-05-23T14:36:14Z</time>
      </trkpt>
      <trkpt lat="43.289500" lon="-4.224917">
        <ele>811.0</ele>
        <time>2015-05-23T14:36:15Z</time>
      </trkpt>
      <trkpt lat="43.289533" lon="-4.224850">
        <ele>811.0</ele>
        <time>2015-05-23T14:36:16Z</time>
      </trkpt>
      <trkpt lat="43.289550" lon="-4.224800">
        <ele>811.0</ele>
        <time>2015-05-23T14:36:17Z</time>
      </trkpt>
      <trkpt lat="43.289583" lon="-4.224750">
        <ele>810.0</ele>
        <time>2015-05-23T14:36:18Z</time>
      </trkpt>
      <trkpt lat="43.289617" lon="-4.224700">
        <ele>810.0</ele>
        <time>2015-05-23T14:36:19Z</time>
      </trkpt>
      <trkpt lat="43.289667" lon="-4.224633">
        <ele>809.0</ele>
        <time>2015-05-23T14:36:20Z</time>
      </trkpt>
      <trkpt lat="43.289717" lon="-4.224583">
        <ele>808.0</ele>
        <time>2015-05-23T14:36:21Z</time>
      </trkpt>
      <trkpt lat="43.289767" lon="-4.224550">
        <ele>807.0</ele>
        <time>2015-05-23T14:36:22Z</time>
      </trkpt>
      <trkpt lat="43.289817" lon="-4.224533">
        <ele>807.0</ele>
        <time>2015-05-23T14:36:23Z</time>
      </trkpt>
      <trkpt lat="43.289867" lon="-4.224517">
        <ele>806.0</ele>
        <time>2015-05-23T14:36:24Z</time>
      </trkpt>
      <trkpt lat="43.289933" lon="-4.224517">
        <ele>805.0</ele>
        <time>2015-05-23T14:36:25Z</time>
      </trkpt>
      <trkpt lat="43.289983" lon="-4.224533">
        <ele>804.0</ele>
        <time>2015-05-23T14:36:26Z</time>
      </trkpt>
      <trkpt lat="43.290050" lon="-4.224533">
        <ele>804.0</ele>
        <time>2015-05-23T14:36:27Z</time>
      </trkpt>
      <trkpt lat="43.290100" lon="-4.224533">
        <ele>804.0</ele>
        <time>2015-05-23T14:36:28Z</time>
      </trkpt>
      <trkpt lat="43.290150" lon="-4.224517">
        <ele>805.0</ele>
        <time>2015-05-23T14:36:29Z</time>
      </trkpt>
      <trkpt lat="43.290200" lon="-4.224500">
        <ele>806.0</ele>
        <time>2015-05-23T14:36:30Z</time>
      </trkpt>
      <trkpt lat="43.290233" lon="-4.224483">
        <ele>806.0</ele>
        <time>2015-05-23T14:36:31Z</time>
      </trkpt>
      <trkpt lat="43.290267" lon="-4.224483">
        <ele>806.0</ele>
        <time>2015-05-23T14:36:32Z</time>
      </trkpt>
      <trkpt lat="43.290317" lon="-4.224467">
        <ele>805.0</ele>
        <time>2015-05-23T14:36:33Z</time>
      </trkpt>
      <trkpt lat="43.290367" lon="-4.224467">
        <ele>805.0</ele>
        <time>2015-05-23T14:36:34Z</time>
      </trkpt>
      <trkpt lat="43.290433" lon="-4.224483">
        <ele>805.0</ele>
        <time>2015-05-23T14:36:35Z</time>
      </trkpt>
      <trkpt lat="43.290483" lon="-4.224483">
        <ele>804.0</ele>
        <time>2015-05-23T14:36:36Z</time>
      </trkpt>
      <trkpt lat="43.290550" lon="-4.224467">
        <ele>804.0</ele>
        <time>2015-05-23T14:36:37Z</time>
      </trkpt>
      <trkpt lat="43.290617" lon="-4.224450">
        <ele>804.0</ele>
        <time>2015-05-23T14:36:38Z</time>
      </trkpt>
      <trkpt lat="43.290667" lon="-4.224433">
        <ele>804.0</ele>
        <time>2015-05-23T14:36:39Z</time>
      </trkpt>
      <trkpt lat="43.290717" lon="-4.224417">
        <ele>804.0</ele>
        <time>2015-05-23T14:36:40Z</time>
      </trkpt>
      <trkpt lat="43.290767" lon="-4.224400">
        <ele>804.0</ele>
        <time>2015-05-23T14:36:41Z</time>
      </trkpt>
      <trkpt lat="43.290817" lon="-4.224400">
        <ele>804.0</ele>
        <time>2015-05-23T14:36:42Z</time>
      </trkpt>
      <trkpt lat="43.290883" lon="-4.224400">
        <ele>804.0</ele>
        <time>2015-05-23T14:36:43Z</time>
      </trkpt>
      <trkpt lat="43.290933" lon="-4.224400">
        <ele>805.0</ele>
        <time>2015-05-23T14:36:44Z</time>
      </trkpt>
      <trkpt lat="43.290983" lon="-4.224383">
        <ele>807.0</ele>
        <time>2015-05-23T14:36:45Z</time>
      </trkpt>
      <trkpt lat="43.291033" lon="-4.224350">
        <ele>808.0</ele>
        <time>2015-05-23T14:36:46Z</time>
      </trkpt>
      <trkpt lat="43.291083" lon="-4.224333">
        <ele>808.0</ele>
        <time>2015-05-23T14:36:47Z</time>
      </trkpt>
      <trkpt lat="43.291117" lon="-4.224283">
        <ele>809.0</ele>
        <time>2015-05-23T14:36:48Z</time>
      </trkpt>
      <trkpt lat="43.291133" lon="-4.224217">
        <ele>810.0</ele>
        <time>2015-05-23T14:36:49Z</time>
      </trkpt>
      <trkpt lat="43.291167" lon="-4.224133">
        <ele>810.0</ele>
        <time>2015-05-23T14:36:50Z</time>
      </trkpt>
      <trkpt lat="43.291200" lon="-4.224050">
        <ele>811.0</ele>
        <time>2015-05-23T14:36:51Z</time>
      </trkpt>
      <trkpt lat="43.291250" lon="-4.224000">
        <ele>812.0</ele>
        <time>2015-05-23T14:36:52Z</time>
      </trkpt>
      <trkpt lat="43.291283" lon="-4.223967">
        <ele>813.0</ele>
        <time>2015-05-23T14:36:53Z</time>
      </trkpt>
      <trkpt lat="43.291317" lon="-4.223933">
        <ele>815.0</ele>
        <time>2015-05-23T14:36:54Z</time>
      </trkpt>
      <trkpt lat="43.291333" lon="-4.223883">
        <ele>815.0</ele>
        <time>2015-05-23T14:36:55Z</time>
      </trkpt>
      <trkpt lat="43.291367" lon="-4.223850">
        <ele>814.0</ele>
        <time>2015-05-23T14:36:56Z</time>
      </trkpt>
      <trkpt lat="43.291400" lon="-4.223800">
        <ele>813.0</ele>
        <time>2015-05-23T14:36:57Z</time>
      </trkpt>
      <trkpt lat="43.291450" lon="-4.223750">
        <ele>812.0</ele>
        <time>2015-05-23T14:36:58Z</time>
      </trkpt>
      <trkpt lat="43.291483" lon="-4.223683">
        <ele>811.0</ele>
        <time>2015-05-23T14:36:59Z</time>
      </trkpt>
      <trkpt lat="43.291517" lon="-4.223600">
        <ele>810.0</ele>
        <time>2015-05-23T14:37:00Z</time>
      </trkpt>
      <trkpt lat="43.291550" lon="-4.223500">
        <ele>810.0</ele>
        <time>2015-05-23T14:37:01Z</time>
      </trkpt>
      <trkpt lat="43.291550" lon="-4.223400">
        <ele>811.0</ele>
        <time>2015-05-23T14:37:02Z</time>
      </trkpt>
      <trkpt lat="43.291583" lon="-4.223317">
        <ele>810.0</ele>
        <time>2015-05-23T14:37:03Z</time>
      </trkpt>
      <trkpt lat="43.291617" lon="-4.223267">
        <ele>810.0</ele>
        <time>2015-05-23T14:37:04Z</time>
      </trkpt>
      <trkpt lat="43.291650" lon="-4.223233">
        <ele>809.0</ele>
        <time>2015-05-23T14:37:05Z</time>
      </trkpt>
      <trkpt lat="43.291700" lon="-4.223217">
        <ele>808.0</ele>
        <time>2015-05-23T14:37:06Z</time>
      </trkpt>
      <trkpt lat="43.291750" lon="-4.223200">
        <ele>809.0</ele>
        <time>2015-05-23T14:37:07Z</time>
      </trkpt>
      <trkpt lat="43.291783" lon="-4.223200">
        <ele>808.0</ele>
        <time>2015-05-23T14:37:08Z</time>
      </trkpt>
      <trkpt lat="43.291833" lon="-4.223183">
        <ele>807.0</ele>
        <time>2015-05-23T14:37:09Z</time>
      </trkpt>
      <trkpt lat="43.291867" lon="-4.223200">
        <ele>806.0</ele>
        <time>2015-05-23T14:37:10Z</time>
      </trkpt>
      <trkpt lat="43.291917" lon="-4.223200">
        <ele>804.0</ele>
        <time>2015-05-23T14:37:11Z</time>
      </trkpt>
      <trkpt lat="43.291983" lon="-4.223233">
        <ele>802.0</ele>
        <time>2015-05-23T14:37:12Z</time>
      </trkpt>
      <trkpt lat="43.292050" lon="-4.223250">
        <ele>801.0</ele>
        <time>2015-05-23T14:37:13Z</time>
      </trkpt>
      <trkpt lat="43.292117" lon="-4.223267">
        <ele>799.0</ele>
        <time>2015-05-23T14:37:14Z</time>
      </trkpt>
      <trkpt lat="43.292183" lon="-4.223267">
        <ele>798.0</ele>
        <time>2015-05-23T14:37:15Z</time>
      </trkpt>
      <trkpt lat="43.292233" lon="-4.223267">
        <ele>797.0</ele>
        <time>2015-05-23T14:37:16Z</time>
      </trkpt>
      <trkpt lat="43.292300" lon="-4.223267">
        <ele>796.0</ele>
        <time>2015-05-23T14:37:17Z</time>
      </trkpt>
      <trkpt lat="43.292350" lon="-4.223267">
        <ele>795.0</ele>
        <time>2015-05-23T14:37:18Z</time>
      </trkpt>
      <trkpt lat="43.292417" lon="-4.223283">
        <ele>794.0</ele>
        <time>2015-05-23T14:37:19Z</time>
      </trkpt>
      <trkpt lat="43.292483" lon="-4.223283">
        <ele>794.0</ele>
        <time>2015-05-23T14:37:20Z</time>
      </trkpt>
      <trkpt lat="43.292533" lon="-4.223283">
        <ele>793.0</ele>
        <time>2015-05-23T14:37:21Z</time>
      </trkpt>
      <trkpt lat="43.292600" lon="-4.223283">
        <ele>792.0</ele>
        <time>2015-05-23T14:37:22Z</time>
      </trkpt>
      <trkpt lat="43.292633" lon="-4.223250">
        <ele>791.0</ele>
        <time>2015-05-23T14:37:23Z</time>
      </trkpt>
      <trkpt lat="43.292683" lon="-4.223217">
        <ele>789.0</ele>
        <time>2015-05-23T14:37:24Z</time>
      </trkpt>
      <trkpt lat="43.292733" lon="-4.223167">
        <ele>788.0</ele>
        <time>2015-05-23T14:37:25Z</time>
      </trkpt>
      <trkpt lat="43.292767" lon="-4.223100">
        <ele>787.0</ele>
        <time>2015-05-23T14:37:26Z</time>
      </trkpt>
      <trkpt lat="43.292817" lon="-4.223033">
        <ele>787.0</ele>
        <time>2015-05-23T14:37:27Z</time>
      </trkpt>
      <trkpt lat="43.292850" lon="-4.222950">
        <ele>787.0</ele>
        <time>2015-05-23T14:37:28Z</time>
      </trkpt>
      <trkpt lat="43.292900" lon="-4.222883">
        <ele>787.0</ele>
        <time>2015-05-23T14:37:29Z</time>
      </trkpt>
      <trkpt lat="43.292933" lon="-4.222817">
        <ele>788.0</ele>
        <time>2015-05-23T14:37:30Z</time>
      </trkpt>
      <trkpt lat="43.292967" lon="-4.222767">
        <ele>789.0</ele>
        <time>2015-05-23T14:37:31Z</time>
      </trkpt>
      <trkpt lat="43.293000" lon="-4.222733">
        <ele>790.0</ele>
        <time>2015-05-23T14:37:32Z</time>
      </trkpt>
      <trkpt lat="43.293000" lon="-4.222717">
        <ele>791.0</ele>
        <time>2015-05-23T14:37:33Z</time>
      </trkpt>
      <trkpt lat="43.293017" lon="-4.222700">
        <ele>791.0</ele>
        <time>2015-05-23T14:37:34Z</time>
      </trkpt>
      <trkpt lat="43.293050" lon="-4.222667">
        <ele>791.0</ele>
        <time>2015-05-23T14:37:35Z</time>
      </trkpt>
      <trkpt lat="43.293083" lon="-4.222667">
        <ele>792.0</ele>
        <time>2015-05-23T14:37:36Z</time>
      </trkpt>
      <trkpt lat="43.293133" lon="-4.222667">
        <ele>793.0</ele>
        <time>2015-05-23T14:37:37Z</time>
      </trkpt>
      <trkpt lat="43.293167" lon="-4.222700">
        <ele>794.0</ele>
        <time>2015-05-23T14:37:38Z</time>
      </trkpt>
      <trkpt lat="43.293183" lon="-4.222733">
        <ele>795.0</ele>
        <time>2015-05-23T14:37:39Z</time>
      </trkpt>
      <trkpt lat="43.293200" lon="-4.222783">
        <ele>796.0</ele>
        <time>2015-05-23T14:37:40Z</time>
      </trkpt>
      <trkpt lat="43.293217" lon="-4.222817">
        <ele>797.0</ele>
        <time>2015-05-23T14:37:41Z</time>
      </trkpt>
      <trkpt lat="43.293217" lon="-4.222850">
        <ele>796.0</ele>
        <time>2015-05-23T14:37:42Z</time>
      </trkpt>
      <trkpt lat="43.293233" lon="-4.222917">
        <ele>795.0</ele>
        <time>2015-05-23T14:37:43Z</time>
      </trkpt>
      <trkpt lat="43.293233" lon="-4.223000">
        <ele>795.0</ele>
        <time>2015-05-23T14:37:44Z</time>
      </trkpt>
      <trkpt lat="43.293217" lon="-4.223083">
        <ele>794.0</ele>
        <time>2015-05-23T14:37:45Z</time>
      </trkpt>
      <trkpt lat="43.293200" lon="-4.223183">
        <ele>794.0</ele>
        <time>2015-05-23T14:37:46Z</time>
      </trkpt>
      <trkpt lat="43.293183" lon="-4.223267">
        <ele>794.0</ele>
        <time>2015-05-23T14:37:47Z</time>
      </trkpt>
      <trkpt lat="43.293200" lon="-4.223350">
        <ele>794.0</ele>
        <time>2015-05-23T14:37:48Z</time>
      </trkpt>
      <trkpt lat="43.293200" lon="-4.223417">
        <ele>794.0</ele>
        <time>2015-05-23T14:37:49Z</time>
      </trkpt>
      <trkpt lat="43.293200" lon="-4.223483">
        <ele>794.0</ele>
        <time>2015-05-23T14:37:50Z</time>
      </trkpt>
      <trkpt lat="43.293183" lon="-4.223550">
        <ele>794.0</ele>
        <time>2015-05-23T14:37:51Z</time>
      </trkpt>
      <trkpt lat="43.293167" lon="-4.223650">
        <ele>793.0</ele>
        <time>2015-05-23T14:37:52Z</time>
      </trkpt>
      <trkpt lat="43.293150" lon="-4.223733">
        <ele>792.0</ele>
        <time>2015-05-23T14:37:53Z</time>
      </trkpt>
      <trkpt lat="43.293150" lon="-4.223817">
        <ele>791.0</ele>
        <time>2015-05-23T14:37:54Z</time>
      </trkpt>
      <trkpt lat="43.293133" lon="-4.223900">
        <ele>791.0</ele>
        <time>2015-05-23T14:37:55Z</time>
      </trkpt>
      <trkpt lat="43.293117" lon="-4.223983">
        <ele>790.0</ele>
        <time>2015-05-23T14:37:56Z</time>
      </trkpt>
      <trkpt lat="43.293100" lon="-4.224067">
        <ele>790.0</ele>
        <time>2015-05-23T14:37:57Z</time>
      </trkpt>
      <trkpt lat="43.293083" lon="-4.224150">
        <ele>789.0</ele>
        <time>2015-05-23T14:37:58Z</time>
      </trkpt>
      <trkpt lat="43.293067" lon="-4.224250">
        <ele>788.0</ele>
        <time>2015-05-23T14:37:59Z</time>
      </trkpt>
      <trkpt lat="43.293050" lon="-4.224367">
        <ele>787.0</ele>
        <time>2015-05-23T14:38:00Z</time>
      </trkpt>
      <trkpt lat="43.293033" lon="-4.224467">
        <ele>786.0</ele>
        <time>2015-05-23T14:38:01Z</time>
      </trkpt>
      <trkpt lat="43.293017" lon="-4.224583">
        <ele>785.0</ele>
        <time>2015-05-23T14:38:02Z</time>
      </trkpt>
      <trkpt lat="43.292983" lon="-4.224700">
        <ele>783.0</ele>
        <time>2015-05-23T14:38:03Z</time>
      </trkpt>
      <trkpt lat="43.292950" lon="-4.224800">
        <ele>782.0</ele>
        <time>2015-05-23T14:38:04Z</time>
      </trkpt>
      <trkpt lat="43.292917" lon="-4.224917">
        <ele>781.0</ele>
        <time>2015-05-23T14:38:05Z</time>
      </trkpt>
      <trkpt lat="43.292883" lon="-4.225000">
        <ele>782.0</ele>
        <time>2015-05-23T14:38:06Z</time>
      </trkpt>
      <trkpt lat="43.292850" lon="-4.225083">
        <ele>783.0</ele>
        <time>2015-05-23T14:38:07Z</time>
      </trkpt>
      <trkpt lat="43.292800" lon="-4.225133">
        <ele>783.0</ele>
        <time>2015-05-23T14:38:08Z</time>
      </trkpt>
      <trkpt lat="43.292717" lon="-4.225183">
        <ele>782.0</ele>
        <time>2015-05-23T14:38:09Z</time>
      </trkpt>
      <trkpt lat="43.292633" lon="-4.225217">
        <ele>783.0</ele>
        <time>2015-05-23T14:38:10Z</time>
      </trkpt>
      <trkpt lat="43.292550" lon="-4.225250">
        <ele>782.0</ele>
        <time>2015-05-23T14:38:11Z</time>
      </trkpt>
      <trkpt lat="43.292467" lon="-4.225283">
        <ele>782.0</ele>
        <time>2015-05-23T14:38:12Z</time>
      </trkpt>
      <trkpt lat="43.292383" lon="-4.225300">
        <ele>782.0</ele>
        <time>2015-05-23T14:38:13Z</time>
      </trkpt>
      <trkpt lat="43.292317" lon="-4.225333">
        <ele>782.0</ele>
        <time>2015-05-23T14:38:14Z</time>
      </trkpt>
      <trkpt lat="43.292217" lon="-4.225350">
        <ele>781.0</ele>
        <time>2015-05-23T14:38:15Z</time>
      </trkpt>
      <trkpt lat="43.292133" lon="-4.225383">
        <ele>781.0</ele>
        <time>2015-05-23T14:38:16Z</time>
      </trkpt>
      <trkpt lat="43.292050" lon="-4.225450">
        <ele>780.0</ele>
        <time>2015-05-23T14:38:17Z</time>
      </trkpt>
      <trkpt lat="43.291983" lon="-4.225517">
        <ele>780.0</ele>
        <time>2015-05-23T14:38:18Z</time>
      </trkpt>
      <trkpt lat="43.291917" lon="-4.225583">
        <ele>779.0</ele>
        <time>2015-05-23T14:38:19Z</time>
      </trkpt>
      <trkpt lat="43.291850" lon="-4.225633">
        <ele>778.0</ele>
        <time>2015-05-23T14:38:20Z</time>
      </trkpt>
      <trkpt lat="43.291767" lon="-4.225667">
        <ele>778.0</ele>
        <time>2015-05-23T14:38:21Z</time>
      </trkpt>
      <trkpt lat="43.291683" lon="-4.225700">
        <ele>777.0</ele>
        <time>2015-05-23T14:38:22Z</time>
      </trkpt>
      <trkpt lat="43.291583" lon="-4.225717">
        <ele>776.0</ele>
        <time>2015-05-23T14:38:23Z</time>
      </trkpt>
      <trkpt lat="43.291500" lon="-4.225733">
        <ele>774.0</ele>
        <time>2015-05-23T14:38:24Z</time>
      </trkpt>
      <trkpt lat="43.291417" lon="-4.225767">
        <ele>773.0</ele>
        <time>2015-05-23T14:38:25Z</time>
      </trkpt>
      <trkpt lat="43.291317" lon="-4.225783">
        <ele>772.0</ele>
        <time>2015-05-23T14:38:26Z</time>
      </trkpt>
      <trkpt lat="43.291233" lon="-4.225800">
        <ele>771.0</ele>
        <time>2015-05-23T14:38:27Z</time>
      </trkpt>
      <trkpt lat="43.291133" lon="-4.225800">
        <ele>769.0</ele>
        <time>2015-05-23T14:38:28Z</time>
      </trkpt>
      <trkpt lat="43.291033" lon="-4.225800">
        <ele>768.0</ele>
        <time>2015-05-23T14:38:29Z</time>
      </trkpt>
      <trkpt lat="43.290950" lon="-4.225767">
        <ele>766.0</ele>
        <time>2015-05-23T14:38:30Z</time>
      </trkpt>
      <trkpt lat="43.290850" lon="-4.225767">
        <ele>765.0</ele>
        <time>2015-05-23T14:38:31Z</time>
      </trkpt>
      <trkpt lat="43.290750" lon="-4.225750">
        <ele>763.0</ele>
        <time>2015-05-23T14:38:32Z</time>
      </trkpt>
      <trkpt lat="43.290650" lon="-4.225750">
        <ele>762.0</ele>
        <time>2015-05-23T14:38:33Z</time>
      </trkpt>
      <trkpt lat="43.290550" lon="-4.225767">
        <ele>761.0</ele>
        <time>2015-05-23T14:38:34Z</time>
      </trkpt>
      <trkpt lat="43.290450" lon="-4.225783">
        <ele>761.0</ele>
        <time>2015-05-23T14:38:35Z</time>
      </trkpt>
      <trkpt lat="43.290350" lon="-4.225800">
        <ele>760.0</ele>
        <time>2015-05-23T14:38:36Z</time>
      </trkpt>
      <trkpt lat="43.290233" lon="-4.225817">
        <ele>759.0</ele>
        <time>2015-05-23T14:38:37Z</time>
      </trkpt>
      <trkpt lat="43.290133" lon="-4.225833">
        <ele>759.0</ele>
        <time>2015-05-23T14:38:38Z</time>
      </trkpt>
      <trkpt lat="43.290017" lon="-4.225850">
        <ele>758.0</ele>
        <time>2015-05-23T14:38:39Z</time>
      </trkpt>
      <trkpt lat="43.289900" lon="-4.225883">
        <ele>757.0</ele>
        <time>2015-05-23T14:38:40Z</time>
      </trkpt>
      <trkpt lat="43.289800" lon="-4.225917">
        <ele>757.0</ele>
        <time>2015-05-23T14:38:41Z</time>
      </trkpt>
      <trkpt lat="43.289683" lon="-4.225967">
        <ele>757.0</ele>
        <time>2015-05-23T14:38:42Z</time>
      </trkpt>
      <trkpt lat="43.289583" lon="-4.226000">
        <ele>757.0</ele>
        <time>2015-05-23T14:38:43Z</time>
      </trkpt>
      <trkpt lat="43.289500" lon="-4.226033">
        <ele>758.0</ele>
        <time>2015-05-23T14:38:44Z</time>
      </trkpt>
      <trkpt lat="43.289417" lon="-4.226050">
        <ele>759.0</ele>
        <time>2015-05-23T14:38:45Z</time>
      </trkpt>
      <trkpt lat="43.289333" lon="-4.226083">
        <ele>760.0</ele>
        <time>2015-05-23T14:38:46Z</time>
      </trkpt>
      <trkpt lat="43.289250" lon="-4.226117">
        <ele>760.0</ele>
        <time>2015-05-23T14:38:47Z</time>
      </trkpt>
      <trkpt lat="43.289183" lon="-4.226150">
        <ele>760.0</ele>
        <time>2015-05-23T14:38:48Z</time>
      </trkpt>
      <trkpt lat="43.289100" lon="-4.226200">
        <ele>760.0</ele>
        <time>2015-05-23T14:38:49Z</time>
      </trkpt>
      <trkpt lat="43.289017" lon="-4.226250">
        <ele>760.0</ele>
        <time>2015-05-23T14:38:50Z</time>
      </trkpt>
      <trkpt lat="43.288933" lon="-4.226300">
        <ele>761.0</ele>
        <time>2015-05-23T14:38:51Z</time>
      </trkpt>
      <trkpt lat="43.288883" lon="-4.226350">
        <ele>761.0</ele>
        <time>2015-05-23T14:38:52Z</time>
      </trkpt>
      <trkpt lat="43.288817" lon="-4.226400">
        <ele>761.0</ele>
        <time>2015-05-23T14:38:53Z</time>
      </trkpt>
      <trkpt lat="43.288767" lon="-4.226467">
        <ele>761.0</ele>
        <time>2015-05-23T14:38:54Z</time>
      </trkpt>
      <trkpt lat="43.288700" lon="-4.226533">
        <ele>761.0</ele>
        <time>2015-05-23T14:38:55Z</time>
      </trkpt>
      <trkpt lat="43.288650" lon="-4.226600">
        <ele>761.0</ele>
        <time>2015-05-23T14:38:56Z</time>
      </trkpt>
      <trkpt lat="43.288583" lon="-4.226650">
        <ele>761.0</ele>
        <time>2015-05-23T14:38:57Z</time>
      </trkpt>
      <trkpt lat="43.288517" lon="-4.226717">
        <ele>762.0</ele>
        <time>2015-05-23T14:38:58Z</time>
      </trkpt>
      <trkpt lat="43.288433" lon="-4.226767">
        <ele>762.0</ele>
        <time>2015-05-23T14:38:59Z</time>
      </trkpt>
      <trkpt lat="43.288367" lon="-4.226800">
        <ele>762.0</ele>
        <time>2015-05-23T14:39:00Z</time>
      </trkpt>
      <trkpt lat="43.288283" lon="-4.226833">
        <ele>762.0</ele>
        <time>2015-05-23T14:39:01Z</time>
      </trkpt>
      <trkpt lat="43.288183" lon="-4.226850">
        <ele>762.0</ele>
        <time>2015-05-23T14:39:02Z</time>
      </trkpt>
      <trkpt lat="43.288100" lon="-4.226850">
        <ele>761.0</ele>
        <time>2015-05-23T14:39:03Z</time>
      </trkpt>
      <trkpt lat="43.288017" lon="-4.226867">
        <ele>761.0</ele>
        <time>2015-05-23T14:39:04Z</time>
      </trkpt>
      <trkpt lat="43.287917" lon="-4.226883">
        <ele>761.0</ele>
        <time>2015-05-23T14:39:05Z</time>
      </trkpt>
      <trkpt lat="43.287817" lon="-4.226933">
        <ele>760.0</ele>
        <time>2015-05-23T14:39:06Z</time>
      </trkpt>
      <trkpt lat="43.287717" lon="-4.226983">
        <ele>760.0</ele>
        <time>2015-05-23T14:39:07Z</time>
      </trkpt>
      <trkpt lat="43.287633" lon="-4.227033">
        <ele>760.0</ele>
        <time>2015-05-23T14:39:08Z</time>
      </trkpt>
      <trkpt lat="43.287550" lon="-4.227100">
        <ele>761.0</ele>
        <time>2015-05-23T14:39:09Z</time>
      </trkpt>
      <trkpt lat="43.287467" lon="-4.227150">
        <ele>762.0</ele>
        <time>2015-05-23T14:39:10Z</time>
      </trkpt>
      <trkpt lat="43.287400" lon="-4.227200">
        <ele>762.0</ele>
        <time>2015-05-23T14:39:11Z</time>
      </trkpt>
      <trkpt lat="43.287333" lon="-4.227250">
        <ele>763.0</ele>
        <time>2015-05-23T14:39:12Z</time>
      </trkpt>
      <trkpt lat="43.287250" lon="-4.227283">
        <ele>763.0</ele>
        <time>2015-05-23T14:39:13Z</time>
      </trkpt>
      <trkpt lat="43.287150" lon="-4.227300">
        <ele>764.0</ele>
        <time>2015-05-23T14:39:14Z</time>
      </trkpt>
      <trkpt lat="43.287050" lon="-4.227300">
        <ele>765.0</ele>
        <time>2015-05-23T14:39:15Z</time>
      </trkpt>
      <trkpt lat="43.286950" lon="-4.227267">
        <ele>765.0</ele>
        <time>2015-05-23T14:39:16Z</time>
      </trkpt>
      <trkpt lat="43.286867" lon="-4.227217">
        <ele>766.0</ele>
        <time>2015-05-23T14:39:17Z</time>
      </trkpt>
      <trkpt lat="43.286783" lon="-4.227150">
        <ele>767.0</ele>
        <time>2015-05-23T14:39:18Z</time>
      </trkpt>
      <trkpt lat="43.286717" lon="-4.227067">
        <ele>768.0</ele>
        <time>2015-05-23T14:39:19Z</time>
      </trkpt>
      <trkpt lat="43.286667" lon="-4.226983">
        <ele>769.0</ele>
        <time>2015-05-23T14:39:20Z</time>
      </trkpt>
      <trkpt lat="43.286650" lon="-4.226900">
        <ele>770.0</ele>
        <time>2015-05-23T14:39:21Z</time>
      </trkpt>
      <trkpt lat="43.286633" lon="-4.226833">
        <ele>768.0</ele>
        <time>2015-05-23T14:39:22Z</time>
      </trkpt>
      <trkpt lat="43.286617" lon="-4.226750">
        <ele>769.0</ele>
        <time>2015-05-23T14:39:23Z</time>
      </trkpt>
      <trkpt lat="43.286617" lon="-4.226667">
        <ele>769.0</ele>
        <time>2015-05-23T14:39:24Z</time>
      </trkpt>
      <trkpt lat="43.286633" lon="-4.226600">
        <ele>769.0</ele>
        <time>2015-05-23T14:39:25Z</time>
      </trkpt>
      <trkpt lat="43.286667" lon="-4.226550">
        <ele>769.0</ele>
        <time>2015-05-23T14:39:26Z</time>
      </trkpt>
      <trkpt lat="43.286700" lon="-4.226550">
        <ele>768.0</ele>
        <time>2015-05-23T14:39:27Z</time>
      </trkpt>
      <trkpt lat="43.286733" lon="-4.226550">
        <ele>768.0</ele>
        <time>2015-05-23T14:39:28Z</time>
      </trkpt>
      <trkpt lat="43.286767" lon="-4.226567">
        <ele>768.0</ele>
        <time>2015-05-23T14:39:29Z</time>
      </trkpt>
      <trkpt lat="43.286800" lon="-4.226567">
        <ele>767.0</ele>
        <time>2015-05-23T14:39:30Z</time>
      </trkpt>
      <trkpt lat="43.286833" lon="-4.226567">
        <ele>767.0</ele>
        <time>2015-05-23T14:39:31Z</time>
      </trkpt>
      <trkpt lat="43.286883" lon="-4.226567">
        <ele>766.0</ele>
        <time>2015-05-23T14:39:32Z</time>
      </trkpt>
      <trkpt lat="43.286917" lon="-4.226600">
        <ele>765.0</ele>
        <time>2015-05-23T14:39:33Z</time>
      </trkpt>
      <trkpt lat="43.286933" lon="-4.226650">
        <ele>765.0</ele>
        <time>2015-05-23T14:39:34Z</time>
      </trkpt>
      <trkpt lat="43.286950" lon="-4.226700">
        <ele>764.0</ele>
        <time>2015-05-23T14:39:35Z</time>
      </trkpt>
      <trkpt lat="43.286967" lon="-4.226783">
        <ele>763.0</ele>
        <time>2015-05-23T14:39:36Z</time>
      </trkpt>
      <trkpt lat="43.286967" lon="-4.226850">
        <ele>762.0</ele>
        <time>2015-05-23T14:39:37Z</time>
      </trkpt>
      <trkpt lat="43.286983" lon="-4.226933">
        <ele>761.0</ele>
        <time>2015-05-23T14:39:38Z</time>
      </trkpt>
      <trkpt lat="43.287000" lon="-4.227017">
        <ele>759.0</ele>
        <time>2015-05-23T14:39:39Z</time>
      </trkpt>
      <trkpt lat="43.287033" lon="-4.227100">
        <ele>758.0</ele>
        <time>2015-05-23T14:39:40Z</time>
      </trkpt>
      <trkpt lat="43.287067" lon="-4.227183">
        <ele>756.0</ele>
        <time>2015-05-23T14:39:41Z</time>
      </trkpt>
      <trkpt lat="43.287100" lon="-4.227267">
        <ele>755.0</ele>
        <time>2015-05-23T14:39:42Z</time>
      </trkpt>
      <trkpt lat="43.287117" lon="-4.227350">
        <ele>754.0</ele>
        <time>2015-05-23T14:39:43Z</time>
      </trkpt>
      <trkpt lat="43.287150" lon="-4.227433">
        <ele>753.0</ele>
        <time>2015-05-23T14:39:44Z</time>
      </trkpt>
      <trkpt lat="43.287167" lon="-4.227533">
        <ele>752.0</ele>
        <time>2015-05-23T14:39:45Z</time>
      </trkpt>
      <trkpt lat="43.287200" lon="-4.227633">
        <ele>751.0</ele>
        <time>2015-05-23T14:39:46Z</time>
      </trkpt>
      <trkpt lat="43.287233" lon="-4.227733">
        <ele>750.0</ele>
        <time>2015-05-23T14:39:47Z</time>
      </trkpt>
      <trkpt lat="43.287250" lon="-4.227850">
        <ele>752.0</ele>
        <time>2015-05-23T14:39:48Z</time>
      </trkpt>
      <trkpt lat="43.287267" lon="-4.227950">
        <ele>751.0</ele>
        <time>2015-05-23T14:39:49Z</time>
      </trkpt>
      <trkpt lat="43.287283" lon="-4.228033">
        <ele>752.0</ele>
        <time>2015-05-23T14:39:50Z</time>
      </trkpt>
      <trkpt lat="43.287300" lon="-4.228133">
        <ele>751.0</ele>
        <time>2015-05-23T14:39:51Z</time>
      </trkpt>
      <trkpt lat="43.287317" lon="-4.228217">
        <ele>751.0</ele>
        <time>2015-05-23T14:39:52Z</time>
      </trkpt>
      <trkpt lat="43.287317" lon="-4.228317">
        <ele>751.0</ele>
        <time>2015-05-23T14:39:53Z</time>
      </trkpt>
      <trkpt lat="43.287333" lon="-4.228400">
        <ele>751.0</ele>
        <time>2015-05-23T14:39:54Z</time>
      </trkpt>
      <trkpt lat="43.287350" lon="-4.228500">
        <ele>750.0</ele>
        <time>2015-05-23T14:39:55Z</time>
      </trkpt>
      <trkpt lat="43.287367" lon="-4.228600">
        <ele>749.0</ele>
        <time>2015-05-23T14:39:56Z</time>
      </trkpt>
      <trkpt lat="43.287383" lon="-4.228733">
        <ele>750.0</ele>
        <time>2015-05-23T14:39:57Z</time>
      </trkpt>
      <trkpt lat="43.287383" lon="-4.228850">
        <ele>750.0</ele>
        <time>2015-05-23T14:39:58Z</time>
      </trkpt>
      <trkpt lat="43.287400" lon="-4.228950">
        <ele>750.0</ele>
        <time>2015-05-23T14:39:59Z</time>
      </trkpt>
      <trkpt lat="43.287417" lon="-4.229050">
        <ele>750.0</ele>
        <time>2015-05-23T14:40:00Z</time>
      </trkpt>
      <trkpt lat="43.287417" lon="-4.229150">
        <ele>750.0</ele>
        <time>2015-05-23T14:40:01Z</time>
      </trkpt>
      <trkpt lat="43.287433" lon="-4.229250">
        <ele>750.0</ele>
        <time>2015-05-23T14:40:02Z</time>
      </trkpt>
      <trkpt lat="43.287433" lon="-4.229333">
        <ele>750.0</ele>
        <time>2015-05-23T14:40:03Z</time>
      </trkpt>
      <trkpt lat="43.287433" lon="-4.229417">
        <ele>750.0</ele>
        <time>2015-05-23T14:40:04Z</time>
      </trkpt>
      <trkpt lat="43.287450" lon="-4.229500">
        <ele>750.0</ele>
        <time>2015-05-23T14:40:05Z</time>
      </trkpt>
      <trkpt lat="43.287467" lon="-4.229600">
        <ele>748.0</ele>
        <time>2015-05-23T14:40:06Z</time>
      </trkpt>
      <trkpt lat="43.287483" lon="-4.229683">
        <ele>747.0</ele>
        <time>2015-05-23T14:40:07Z</time>
      </trkpt>
      <trkpt lat="43.287517" lon="-4.229767">
        <ele>746.0</ele>
        <time>2015-05-23T14:40:08Z</time>
      </trkpt>
      <trkpt lat="43.287550" lon="-4.229833">
        <ele>745.0</ele>
        <time>2015-05-23T14:40:09Z</time>
      </trkpt>
      <trkpt lat="43.287600" lon="-4.229883">
        <ele>744.0</ele>
        <time>2015-05-23T14:40:10Z</time>
      </trkpt>
      <trkpt lat="43.287667" lon="-4.229950">
        <ele>743.0</ele>
        <time>2015-05-23T14:40:11Z</time>
      </trkpt>
      <trkpt lat="43.287717" lon="-4.230000">
        <ele>743.0</ele>
        <time>2015-05-23T14:40:12Z</time>
      </trkpt>
      <trkpt lat="43.287783" lon="-4.230033">
        <ele>744.0</ele>
        <time>2015-05-23T14:40:13Z</time>
      </trkpt>
      <trkpt lat="43.287833" lon="-4.230067">
        <ele>745.0</ele>
        <time>2015-05-23T14:40:14Z</time>
      </trkpt>
      <trkpt lat="43.287883" lon="-4.230100">
        <ele>745.0</ele>
        <time>2015-05-23T14:40:15Z</time>
      </trkpt>
      <trkpt lat="43.287933" lon="-4.230150">
        <ele>744.0</ele>
        <time>2015-05-23T14:40:16Z</time>
      </trkpt>
      <trkpt lat="43.288000" lon="-4.230183">
        <ele>744.0</ele>
        <time>2015-05-23T14:40:17Z</time>
      </trkpt>
      <trkpt lat="43.288050" lon="-4.230217">
        <ele>743.0</ele>
        <time>2015-05-23T14:40:18Z</time>
      </trkpt>
      <trkpt lat="43.288117" lon="-4.230217">
        <ele>743.0</ele>
        <time>2015-05-23T14:40:19Z</time>
      </trkpt>
      <trkpt lat="43.288183" lon="-4.230217">
        <ele>744.0</ele>
        <time>2015-05-23T14:40:20Z</time>
      </trkpt>
      <trkpt lat="43.288217" lon="-4.230167">
        <ele>744.0</ele>
        <time>2015-05-23T14:40:21Z</time>
      </trkpt>
      <trkpt lat="43.288250" lon="-4.230117">
        <ele>744.0</ele>
        <time>2015-05-23T14:40:22Z</time>
      </trkpt>
      <trkpt lat="43.288283" lon="-4.230067">
        <ele>744.0</ele>
        <time>2015-05-23T14:40:23Z</time>
      </trkpt>
      <trkpt lat="43.288317" lon="-4.230017">
        <ele>744.0</ele>
        <time>2015-05-23T14:40:24Z</time>
      </trkpt>
      <trkpt lat="43.288367" lon="-4.229967">
        <ele>744.0</ele>
        <time>2015-05-23T14:40:25Z</time>
      </trkpt>
      <trkpt lat="43.288400" lon="-4.229917">
        <ele>744.0</ele>
        <time>2015-05-23T14:40:26Z</time>
      </trkpt>
      <trkpt lat="43.288433" lon="-4.229850">
        <ele>744.0</ele>
        <time>2015-05-23T14:40:27Z</time>
      </trkpt>
      <trkpt lat="43.288450" lon="-4.229783">
        <ele>743.0</ele>
        <time>2015-05-23T14:40:28Z</time>
      </trkpt>
      <trkpt lat="43.288450" lon="-4.229700">
        <ele>742.0</ele>
        <time>2015-05-23T14:40:29Z</time>
      </trkpt>
      <trkpt lat="43.288467" lon="-4.229633">
        <ele>741.0</ele>
        <time>2015-05-23T14:40:30Z</time>
      </trkpt>
      <trkpt lat="43.288500" lon="-4.229567">
        <ele>741.0</ele>
        <time>2015-05-23T14:40:31Z</time>
      </trkpt>
      <trkpt lat="43.288533" lon="-4.229483">
        <ele>742.0</ele>
        <time>2015-05-23T14:40:32Z</time>
      </trkpt>
      <trkpt lat="43.288567" lon="-4.229400">
        <ele>742.0</ele>
        <time>2015-05-23T14:40:33Z</time>
      </trkpt>
      <trkpt lat="43.288583" lon="-4.229317">
        <ele>742.0</ele>
        <time>2015-05-23T14:40:34Z</time>
      </trkpt>
      <trkpt lat="43.288600" lon="-4.229217">
        <ele>741.0</ele>
        <time>2015-05-23T14:40:35Z</time>
      </trkpt>
      <trkpt lat="43.288600" lon="-4.229117">
        <ele>741.0</ele>
        <time>2015-05-23T14:40:36Z</time>
      </trkpt>
      <trkpt lat="43.288600" lon="-4.229017">
        <ele>740.0</ele>
        <time>2015-05-23T14:40:37Z</time>
      </trkpt>
      <trkpt lat="43.288583" lon="-4.228933">
        <ele>740.0</ele>
        <time>2015-05-23T14:40:38Z</time>
      </trkpt>
      <trkpt lat="43.288567" lon="-4.228833">
        <ele>739.0</ele>
        <time>2015-05-23T14:40:39Z</time>
      </trkpt>
      <trkpt lat="43.288550" lon="-4.228733">
        <ele>737.0</ele>
        <time>2015-05-23T14:40:40Z</time>
      </trkpt>
      <trkpt lat="43.288533" lon="-4.228633">
        <ele>735.0</ele>
        <time>2015-05-23T14:40:41Z</time>
      </trkpt>
      <trkpt lat="43.288517" lon="-4.228517">
        <ele>733.0</ele>
        <time>2015-05-23T14:40:42Z</time>
      </trkpt>
      <trkpt lat="43.288483" lon="-4.228417">
        <ele>731.0</ele>
        <time>2015-05-23T14:40:43Z</time>
      </trkpt>
      <trkpt lat="43.288433" lon="-4.228333">
        <ele>729.0</ele>
        <time>2015-05-23T14:40:44Z</time>
      </trkpt>
      <trkpt lat="43.288383" lon="-4.228233">
        <ele>730.0</ele>
        <time>2015-05-23T14:40:45Z</time>
      </trkpt>
      <trkpt lat="43.288350" lon="-4.228133">
        <ele>728.0</ele>
        <time>2015-05-23T14:40:46Z</time>
      </trkpt>
      <trkpt lat="43.288317" lon="-4.228050">
        <ele>726.0</ele>
        <time>2015-05-23T14:40:47Z</time>
      </trkpt>
      <trkpt lat="43.288267" lon="-4.227967">
        <ele>723.0</ele>
        <time>2015-05-23T14:40:48Z</time>
      </trkpt>
      <trkpt lat="43.288200" lon="-4.227883">
        <ele>719.0</ele>
        <time>2015-05-23T14:40:49Z</time>
      </trkpt>
      <trkpt lat="43.288117" lon="-4.227833">
        <ele>716.0</ele>
        <time>2015-05-23T14:40:50Z</time>
      </trkpt>
      <trkpt lat="43.288033" lon="-4.227783">
        <ele>713.0</ele>
        <time>2015-05-23T14:40:51Z</time>
      </trkpt>
      <trkpt lat="43.287933" lon="-4.227767">
        <ele>711.0</ele>
        <time>2015-05-23T14:40:52Z</time>
      </trkpt>
      <trkpt lat="43.287833" lon="-4.227733">
        <ele>708.0</ele>
        <time>2015-05-23T14:40:53Z</time>
      </trkpt>
      <trkpt lat="43.287717" lon="-4.227700">
        <ele>704.0</ele>
        <time>2015-05-23T14:40:54Z</time>
      </trkpt>
      <trkpt lat="43.287600" lon="-4.227667">
        <ele>702.0</ele>
        <time>2015-05-23T14:40:55Z</time>
      </trkpt>
      <trkpt lat="43.287483" lon="-4.227650">
        <ele>700.0</ele>
        <time>2015-05-23T14:40:56Z</time>
      </trkpt>
      <trkpt lat="43.287367" lon="-4.227617">
        <ele>699.0</ele>
        <time>2015-05-23T14:40:57Z</time>
      </trkpt>
      <trkpt lat="43.287250" lon="-4.227617">
        <ele>697.0</ele>
        <time>2015-05-23T14:40:58Z</time>
      </trkpt>
      <trkpt lat="43.287133" lon="-4.227600">
        <ele>695.0</ele>
        <time>2015-05-23T14:40:59Z</time>
      </trkpt>
      <trkpt lat="43.287017" lon="-4.227583">
        <ele>693.0</ele>
        <time>2015-05-23T14:41:00Z</time>
      </trkpt>
      <trkpt lat="43.286900" lon="-4.227583">
        <ele>692.0</ele>
        <time>2015-05-23T14:41:01Z</time>
      </trkpt>
      <trkpt lat="43.286767" lon="-4.227567">
        <ele>691.0</ele>
        <time>2015-05-23T14:41:02Z</time>
      </trkpt>
      <trkpt lat="43.286650" lon="-4.227567">
        <ele>690.0</ele>
        <time>2015-05-23T14:41:03Z</time>
      </trkpt>
      <trkpt lat="43.286533" lon="-4.227583">
        <ele>689.0</ele>
        <time>2015-05-23T14:41:04Z</time>
      </trkpt>
      <trkpt lat="43.286417" lon="-4.227600">
        <ele>689.0</ele>
        <time>2015-05-23T14:41:05Z</time>
      </trkpt>
      <trkpt lat="43.286300" lon="-4.227617">
        <ele>689.0</ele>
        <time>2015-05-23T14:41:06Z</time>
      </trkpt>
      <trkpt lat="43.286167" lon="-4.227633">
        <ele>689.0</ele>
        <time>2015-05-23T14:41:07Z</time>
      </trkpt>
      <trkpt lat="43.286050" lon="-4.227667">
        <ele>689.0</ele>
        <time>2015-05-23T14:41:08Z</time>
      </trkpt>
      <trkpt lat="43.285950" lon="-4.227700">
        <ele>689.0</ele>
        <time>2015-05-23T14:41:09Z</time>
      </trkpt>
      <trkpt lat="43.285833" lon="-4.227717">
        <ele>688.0</ele>
        <time>2015-05-23T14:41:10Z</time>
      </trkpt>
      <trkpt lat="43.285717" lon="-4.227733">
        <ele>687.0</ele>
        <time>2015-05-23T14:41:11Z</time>
      </trkpt>
      <trkpt lat="43.285583" lon="-4.227750">
        <ele>685.0</ele>
        <time>2015-05-23T14:41:12Z</time>
      </trkpt>
      <trkpt lat="43.285450" lon="-4.227783">
        <ele>684.0</ele>
        <time>2015-05-23T14:41:13Z</time>
      </trkpt>
      <trkpt lat="43.285317" lon="-4.227850">
        <ele>684.0</ele>
        <time>2015-05-23T14:41:14Z</time>
      </trkpt>
      <trkpt lat="43.285200" lon="-4.227900">
        <ele>683.0</ele>
        <time>2015-05-23T14:41:15Z</time>
      </trkpt>
      <trkpt lat="43.285067" lon="-4.227967">
        <ele>683.0</ele>
        <time>2015-05-23T14:41:16Z</time>
      </trkpt>
      <trkpt lat="43.284950" lon="-4.228033">
        <ele>682.0</ele>
        <time>2015-05-23T14:41:17Z</time>
      </trkpt>
      <trkpt lat="43.284817" lon="-4.228083">
        <ele>682.0</ele>
        <time>2015-05-23T14:41:18Z</time>
      </trkpt>
      <trkpt lat="43.284683" lon="-4.228117">
        <ele>684.0</ele>
        <time>2015-05-23T14:41:19Z</time>
      </trkpt>
      <trkpt lat="43.284567" lon="-4.228167">
        <ele>686.0</ele>
        <time>2015-05-23T14:41:20Z</time>
      </trkpt>
      <trkpt lat="43.284450" lon="-4.228200">
        <ele>687.0</ele>
        <time>2015-05-23T14:41:21Z</time>
      </trkpt>
      <trkpt lat="43.284367" lon="-4.228250">
        <ele>687.0</ele>
        <time>2015-05-23T14:41:22Z</time>
      </trkpt>
      <trkpt lat="43.284267" lon="-4.228283">
        <ele>686.0</ele>
        <time>2015-05-23T14:41:23Z</time>
      </trkpt>
      <trkpt lat="43.284150" lon="-4.228317">
        <ele>685.0</ele>
        <time>2015-05-23T14:41:24Z</time>
      </trkpt>
      <trkpt lat="43.284033" lon="-4.228350">
        <ele>685.0</ele>
        <time>2015-05-23T14:41:25Z</time>
      </trkpt>
      <trkpt lat="43.283917" lon="-4.228367">
        <ele>686.0</ele>
        <time>2015-05-23T14:41:26Z</time>
      </trkpt>
      <trkpt lat="43.283817" lon="-4.228367">
        <ele>687.0</ele>
        <time>2015-05-23T14:41:27Z</time>
      </trkpt>
      <trkpt lat="43.283700" lon="-4.228383">
        <ele>687.0</ele>
        <time>2015-05-23T14:41:28Z</time>
      </trkpt>
      <trkpt lat="43.283600" lon="-4.228383">
        <ele>688.0</ele>
        <time>2015-05-23T14:41:29Z</time>
      </trkpt>
      <trkpt lat="43.283483" lon="-4.228383">
        <ele>688.0</ele>
        <time>2015-05-23T14:41:30Z</time>
      </trkpt>
      <trkpt lat="43.283367" lon="-4.228383">
        <ele>689.0</ele>
        <time>2015-05-23T14:41:31Z</time>
      </trkpt>
      <trkpt lat="43.283267" lon="-4.228383">
        <ele>690.0</ele>
        <time>2015-05-23T14:41:32Z</time>
      </trkpt>
      <trkpt lat="43.283167" lon="-4.228350">
        <ele>691.0</ele>
        <time>2015-05-23T14:41:33Z</time>
      </trkpt>
      <trkpt lat="43.283067" lon="-4.228317">
        <ele>691.0</ele>
        <time>2015-05-23T14:41:34Z</time>
      </trkpt>
      <trkpt lat="43.282967" lon="-4.228250">
        <ele>691.0</ele>
        <time>2015-05-23T14:41:35Z</time>
      </trkpt>
      <trkpt lat="43.282883" lon="-4.228167">
        <ele>691.0</ele>
        <time>2015-05-23T14:41:36Z</time>
      </trkpt>
      <trkpt lat="43.282817" lon="-4.228083">
        <ele>692.0</ele>
        <time>2015-05-23T14:41:37Z</time>
      </trkpt>
      <trkpt lat="43.282767" lon="-4.228017">
        <ele>695.0</ele>
        <time>2015-05-23T14:41:38Z</time>
      </trkpt>
      <trkpt lat="43.282717" lon="-4.227950">
        <ele>696.0</ele>
        <time>2015-05-23T14:41:39Z</time>
      </trkpt>
      <trkpt lat="43.282683" lon="-4.227883">
        <ele>694.0</ele>
        <time>2015-05-23T14:41:40Z</time>
      </trkpt>
      <trkpt lat="43.282667" lon="-4.227800">
        <ele>694.0</ele>
        <time>2015-05-23T14:41:41Z</time>
      </trkpt>
      <trkpt lat="43.282667" lon="-4.227733">
        <ele>694.0</ele>
        <time>2015-05-23T14:41:42Z</time>
      </trkpt>
      <trkpt lat="43.282667" lon="-4.227667">
        <ele>695.0</ele>
        <time>2015-05-23T14:41:43Z</time>
      </trkpt>
      <trkpt lat="43.282683" lon="-4.227633">
        <ele>695.0</ele>
        <time>2015-05-23T14:41:44Z</time>
      </trkpt>
      <trkpt lat="43.282700" lon="-4.227650">
        <ele>696.0</ele>
        <time>2015-05-23T14:41:45Z</time>
      </trkpt>
      <trkpt lat="43.282717" lon="-4.227683">
        <ele>698.0</ele>
        <time>2015-05-23T14:41:46Z</time>
      </trkpt>
      <trkpt lat="43.282733" lon="-4.227717">
        <ele>699.0</ele>
        <time>2015-05-23T14:41:47Z</time>
      </trkpt>
      <trkpt lat="43.282767" lon="-4.227767">
        <ele>701.0</ele>
        <time>2015-05-23T14:41:48Z</time>
      </trkpt>
      <trkpt lat="43.282767" lon="-4.227817">
        <ele>703.0</ele>
        <time>2015-05-23T14:41:49Z</time>
      </trkpt>
      <trkpt lat="43.282767" lon="-4.227900">
        <ele>704.0</ele>
        <time>2015-05-23T14:41:50Z</time>
      </trkpt>
      <trkpt lat="43.282733" lon="-4.227983">
        <ele>705.0</ele>
        <time>2015-05-23T14:41:51Z</time>
      </trkpt>
      <trkpt lat="43.282717" lon="-4.228067">
        <ele>706.0</ele>
        <time>2015-05-23T14:41:52Z</time>
      </trkpt>
      <trkpt lat="43.282683" lon="-4.228167">
        <ele>707.0</ele>
        <time>2015-05-23T14:41:53Z</time>
      </trkpt>
      <trkpt lat="43.282650" lon="-4.228267">
        <ele>708.0</ele>
        <time>2015-05-23T14:41:54Z</time>
      </trkpt>
      <trkpt lat="43.282600" lon="-4.228367">
        <ele>709.0</ele>
        <time>2015-05-23T14:41:55Z</time>
      </trkpt>
      <trkpt lat="43.282550" lon="-4.228467">
        <ele>711.0</ele>
        <time>2015-05-23T14:41:56Z</time>
      </trkpt>
      <trkpt lat="43.282483" lon="-4.228567">
        <ele>712.0</ele>
        <time>2015-05-23T14:41:57Z</time>
      </trkpt>
      <trkpt lat="43.282400" lon="-4.228667">
        <ele>713.0</ele>
        <time>2015-05-23T14:41:58Z</time>
      </trkpt>
      <trkpt lat="43.282300" lon="-4.228733">
        <ele>715.0</ele>
        <time>2015-05-23T14:41:59Z</time>
      </trkpt>
      <trkpt lat="43.282200" lon="-4.228783">
        <ele>716.0</ele>
        <time>2015-05-23T14:42:00Z</time>
      </trkpt>
      <trkpt lat="43.282083" lon="-4.228817">
        <ele>717.0</ele>
        <time>2015-05-23T14:42:01Z</time>
      </trkpt>
      <trkpt lat="43.281967" lon="-4.228833">
        <ele>719.0</ele>
        <time>2015-05-23T14:42:02Z</time>
      </trkpt>
      <trkpt lat="43.281850" lon="-4.228817">
        <ele>722.0</ele>
        <time>2015-05-23T14:42:03Z</time>
      </trkpt>
      <trkpt lat="43.281750" lon="-4.228767">
        <ele>724.0</ele>
        <time>2015-05-23T14:42:04Z</time>
      </trkpt>
      <trkpt lat="43.281667" lon="-4.228700">
        <ele>726.0</ele>
        <time>2015-05-23T14:42:05Z</time>
      </trkpt>
      <trkpt lat="43.281600" lon="-4.228633">
        <ele>727.0</ele>
        <time>2015-05-23T14:42:06Z</time>
      </trkpt>
      <trkpt lat="43.281533" lon="-4.228550">
        <ele>728.0</ele>
        <time>2015-05-23T14:42:07Z</time>
      </trkpt>
      <trkpt lat="43.281500" lon="-4.228450">
        <ele>729.0</ele>
        <time>2015-05-23T14:42:08Z</time>
      </trkpt>
      <trkpt lat="43.281450" lon="-4.228350">
        <ele>730.0</ele>
        <time>2015-05-23T14:42:09Z</time>
      </trkpt>
      <trkpt lat="43.281433" lon="-4.228267">
        <ele>732.0</ele>
        <time>2015-05-23T14:42:10Z</time>
      </trkpt>
      <trkpt lat="43.281417" lon="-4.228200">
        <ele>734.0</ele>
        <time>2015-05-23T14:42:11Z</time>
      </trkpt>
      <trkpt lat="43.281400" lon="-4.228150">
        <ele>736.0</ele>
        <time>2015-05-23T14:42:12Z</time>
      </trkpt>
      <trkpt lat="43.281400" lon="-4.228117">
        <ele>738.0</ele>
        <time>2015-05-23T14:42:13Z</time>
      </trkpt>
      <trkpt lat="43.281383" lon="-4.228083">
        <ele>739.0</ele>
        <time>2015-05-23T14:42:14Z</time>
      </trkpt>
      <trkpt lat="43.281400" lon="-4.228050">
        <ele>739.0</ele>
        <time>2015-05-23T14:42:15Z</time>
      </trkpt>
      <trkpt lat="43.281433" lon="-4.228033">
        <ele>741.0</ele>
        <time>2015-05-23T14:42:16Z</time>
      </trkpt>
      <trkpt lat="43.281450" lon="-4.228050">
        <ele>742.0</ele>
        <time>2015-05-23T14:42:17Z</time>
      </trkpt>
      <trkpt lat="43.281467" lon="-4.228083">
        <ele>744.0</ele>
        <time>2015-05-23T14:42:18Z</time>
      </trkpt>
      <trkpt lat="43.281467" lon="-4.228117">
        <ele>746.0</ele>
        <time>2015-05-23T14:42:19Z</time>
      </trkpt>
      <trkpt lat="43.281483" lon="-4.228167">
        <ele>748.0</ele>
        <time>2015-05-23T14:42:20Z</time>
      </trkpt>
      <trkpt lat="43.281483" lon="-4.228217">
        <ele>749.0</ele>
        <time>2015-05-23T14:42:21Z</time>
      </trkpt>
      <trkpt lat="43.281517" lon="-4.228250">
        <ele>752.0</ele>
        <time>2015-05-23T14:42:22Z</time>
      </trkpt>
      <trkpt lat="43.281533" lon="-4.228300">
        <ele>755.0</ele>
        <time>2015-05-23T14:42:23Z</time>
      </trkpt>
      <trkpt lat="43.281550" lon="-4.228350">
        <ele>758.0</ele>
        <time>2015-05-23T14:42:24Z</time>
      </trkpt>
      <trkpt lat="43.281550" lon="-4.228400">
        <ele>761.0</ele>
        <time>2015-05-23T14:42:25Z</time>
      </trkpt>
      <trkpt lat="43.281550" lon="-4.228450">
        <ele>764.0</ele>
        <time>2015-05-23T14:42:26Z</time>
      </trkpt>
      <trkpt lat="43.281567" lon="-4.228517">
        <ele>766.0</ele>
        <time>2015-05-23T14:42:27Z</time>
      </trkpt>
      <trkpt lat="43.281567" lon="-4.228583">
        <ele>768.0</ele>
        <time>2015-05-23T14:42:28Z</time>
      </trkpt>
      <trkpt lat="43.281567" lon="-4.228667">
        <ele>771.0</ele>
        <time>2015-05-23T14:42:29Z</time>
      </trkpt>
      <trkpt lat="43.281567" lon="-4.228783">
        <ele>773.0</ele>
        <time>2015-05-23T14:42:30Z</time>
      </trkpt>
      <trkpt lat="43.281533" lon="-4.228883">
        <ele>775.0</ele>
        <time>2015-05-23T14:42:31Z</time>
      </trkpt>
      <trkpt lat="43.281517" lon="-4.229000">
        <ele>777.0</ele>
        <time>2015-05-23T14:42:32Z</time>
      </trkpt>
      <trkpt lat="43.281467" lon="-4.229100">
        <ele>779.0</ele>
        <time>2015-05-23T14:42:33Z</time>
      </trkpt>
      <trkpt lat="43.281400" lon="-4.229200">
        <ele>780.0</ele>
        <time>2015-05-23T14:42:34Z</time>
      </trkpt>
      <trkpt lat="43.281300" lon="-4.229267">
        <ele>781.0</ele>
        <time>2015-05-23T14:42:35Z</time>
      </trkpt>
      <trkpt lat="43.281200" lon="-4.229333">
        <ele>782.0</ele>
        <time>2015-05-23T14:42:36Z</time>
      </trkpt>
      <trkpt lat="43.281083" lon="-4.229350">
        <ele>784.0</ele>
        <time>2015-05-23T14:42:37Z</time>
      </trkpt>
      <trkpt lat="43.280983" lon="-4.229350">
        <ele>785.0</ele>
        <time>2015-05-23T14:42:38Z</time>
      </trkpt>
      <trkpt lat="43.280883" lon="-4.229300">
        <ele>787.0</ele>
        <time>2015-05-23T14:42:39Z</time>
      </trkpt>
      <trkpt lat="43.280783" lon="-4.229233">
        <ele>788.0</ele>
        <time>2015-05-23T14:42:40Z</time>
      </trkpt>
      <trkpt lat="43.280717" lon="-4.229167">
        <ele>790.0</ele>
        <time>2015-05-23T14:42:41Z</time>
      </trkpt>
      <trkpt lat="43.280650" lon="-4.229083">
        <ele>792.0</ele>
        <time>2015-05-23T14:42:42Z</time>
      </trkpt>
      <trkpt lat="43.280600" lon="-4.229000">
        <ele>794.0</ele>
        <time>2015-05-23T14:42:43Z</time>
      </trkpt>
      <trkpt lat="43.280567" lon="-4.228933">
        <ele>796.0</ele>
        <time>2015-05-23T14:42:44Z</time>
      </trkpt>
      <trkpt lat="43.280567" lon="-4.228850">
        <ele>797.0</ele>
        <time>2015-05-23T14:42:45Z</time>
      </trkpt>
      <trkpt lat="43.280550" lon="-4.228767">
        <ele>798.0</ele>
        <time>2015-05-23T14:42:46Z</time>
      </trkpt>
      <trkpt lat="43.280550" lon="-4.228683">
        <ele>799.0</ele>
        <time>2015-05-23T14:42:47Z</time>
      </trkpt>
      <trkpt lat="43.280567" lon="-4.228617">
        <ele>800.0</ele>
        <time>2015-05-23T14:42:48Z</time>
      </trkpt>
      <trkpt lat="43.280583" lon="-4.228567">
        <ele>801.0</ele>
        <time>2015-05-23T14:42:49Z</time>
      </trkpt>
      <trkpt lat="43.280617" lon="-4.228533">
        <ele>802.0</ele>
        <time>2015-05-23T14:42:50Z</time>
      </trkpt>
      <trkpt lat="43.280667" lon="-4.228517">
        <ele>804.0</ele>
        <time>2015-05-23T14:42:51Z</time>
      </trkpt>
      <trkpt lat="43.280700" lon="-4.228550">
        <ele>806.0</ele>
        <time>2015-05-23T14:42:52Z</time>
      </trkpt>
      <trkpt lat="43.280717" lon="-4.228583">
        <ele>808.0</ele>
        <time>2015-05-23T14:42:53Z</time>
      </trkpt>
      <trkpt lat="43.280733" lon="-4.228617">
        <ele>809.0</ele>
        <time>2015-05-23T14:42:54Z</time>
      </trkpt>
      <trkpt lat="43.280767" lon="-4.228650">
        <ele>811.0</ele>
        <time>2015-05-23T14:42:55Z</time>
      </trkpt>
      <trkpt lat="43.280817" lon="-4.228683">
        <ele>812.0</ele>
        <time>2015-05-23T14:42:56Z</time>
      </trkpt>
      <trkpt lat="43.280833" lon="-4.228733">
        <ele>815.0</ele>
        <time>2015-05-23T14:42:57Z</time>
      </trkpt>
      <trkpt lat="43.280850" lon="-4.228783">
        <ele>819.0</ele>
        <time>2015-05-23T14:42:58Z</time>
      </trkpt>
      <trkpt lat="43.280867" lon="-4.228833">
        <ele>822.0</ele>
        <time>2015-05-23T14:42:59Z</time>
      </trkpt>
      <trkpt lat="43.280883" lon="-4.228867">
        <ele>825.0</ele>
        <time>2015-05-23T14:43:00Z</time>
      </trkpt>
      <trkpt lat="43.280900" lon="-4.228917">
        <ele>828.0</ele>
        <time>2015-05-23T14:43:01Z</time>
      </trkpt>
      <trkpt lat="43.280900" lon="-4.228967">
        <ele>830.0</ele>
        <time>2015-05-23T14:43:02Z</time>
      </trkpt>
      <trkpt lat="43.280883" lon="-4.229033">
        <ele>831.0</ele>
        <time>2015-05-23T14:43:03Z</time>
      </trkpt>
      <trkpt lat="43.280883" lon="-4.229117">
        <ele>832.0</ele>
        <time>2015-05-23T14:43:04Z</time>
      </trkpt>
      <trkpt lat="43.280883" lon="-4.229183">
        <ele>832.0</ele>
        <time>2015-05-23T14:43:05Z</time>
      </trkpt>
      <trkpt lat="43.280867" lon="-4.229267">
        <ele>832.0</ele>
        <time>2015-05-23T14:43:06Z</time>
      </trkpt>
      <trkpt lat="43.280867" lon="-4.229367">
        <ele>833.0</ele>
        <time>2015-05-23T14:43:07Z</time>
      </trkpt>
      <trkpt lat="43.280833" lon="-4.229483">
        <ele>833.0</ele>
        <time>2015-05-23T14:43:08Z</time>
      </trkpt>
      <trkpt lat="43.280783" lon="-4.229600">
        <ele>834.0</ele>
        <time>2015-05-23T14:43:09Z</time>
      </trkpt>
      <trkpt lat="43.280717" lon="-4.229717">
        <ele>835.0</ele>
        <time>2015-05-23T14:43:10Z</time>
      </trkpt>
      <trkpt lat="43.280617" lon="-4.229800">
        <ele>835.0</ele>
        <time>2015-05-23T14:43:11Z</time>
      </trkpt>
      <trkpt lat="43.280517" lon="-4.229833">
        <ele>837.0</ele>
        <time>2015-05-23T14:43:12Z</time>
      </trkpt>
      <trkpt lat="43.280400" lon="-4.229833">
        <ele>840.0</ele>
        <time>2015-05-23T14:43:13Z</time>
      </trkpt>
      <trkpt lat="43.280317" lon="-4.229800">
        <ele>843.0</ele>
        <time>2015-05-23T14:43:14Z</time>
      </trkpt>
      <trkpt lat="43.280233" lon="-4.229733">
        <ele>845.0</ele>
        <time>2015-05-23T14:43:15Z</time>
      </trkpt>
      <trkpt lat="43.280167" lon="-4.229667">
        <ele>847.0</ele>
        <time>2015-05-23T14:43:16Z</time>
      </trkpt>
      <trkpt lat="43.280100" lon="-4.229583">
        <ele>850.0</ele>
        <time>2015-05-23T14:43:17Z</time>
      </trkpt>
      <trkpt lat="43.280050" lon="-4.229500">
        <ele>853.0</ele>
        <time>2015-05-23T14:43:18Z</time>
      </trkpt>
      <trkpt lat="43.280033" lon="-4.229417">
        <ele>855.0</ele>
        <time>2015-05-23T14:43:19Z</time>
      </trkpt>
      <trkpt lat="43.280050" lon="-4.229333">
        <ele>857.0</ele>
        <time>2015-05-23T14:43:20Z</time>
      </trkpt>
      <trkpt lat="43.280067" lon="-4.229250">
        <ele>860.0</ele>
        <time>2015-05-23T14:43:21Z</time>
      </trkpt>
      <trkpt lat="43.280083" lon="-4.229200">
        <ele>864.0</ele>
        <time>2015-05-23T14:43:22Z</time>
      </trkpt>
      <trkpt lat="43.280083" lon="-4.229167">
        <ele>867.0</ele>
        <time>2015-05-23T14:43:23Z</time>
      </trkpt>
      <trkpt lat="43.280100" lon="-4.229133">
        <ele>868.0</ele>
        <time>2015-05-23T14:43:24Z</time>
      </trkpt>
      <trkpt lat="43.280117" lon="-4.229133">
        <ele>869.0</ele>
        <time>2015-05-23T14:43:25Z</time>
      </trkpt>
      <trkpt lat="43.280150" lon="-4.229133">
        <ele>871.0</ele>
        <time>2015-05-23T14:43:26Z</time>
      </trkpt>
      <trkpt lat="43.280200" lon="-4.229150">
        <ele>868.0</ele>
        <time>2015-05-23T14:43:27Z</time>
      </trkpt>
      <trkpt lat="43.280233" lon="-4.229150">
        <ele>868.0</ele>
        <time>2015-05-23T14:43:28Z</time>
      </trkpt>
      <trkpt lat="43.280267" lon="-4.229167">
        <ele>868.0</ele>
        <time>2015-05-23T14:43:29Z</time>
      </trkpt>
      <trkpt lat="43.280283" lon="-4.229183">
        <ele>868.0</ele>
        <time>2015-05-23T14:43:30Z</time>
      </trkpt>
      <trkpt lat="43.280317" lon="-4.229233">
        <ele>869.0</ele>
        <time>2015-05-23T14:43:31Z</time>
      </trkpt>
      <trkpt lat="43.280333" lon="-4.229300">
        <ele>869.0</ele>
        <time>2015-05-23T14:43:32Z</time>
      </trkpt>
      <trkpt lat="43.280367" lon="-4.229400">
        <ele>869.0</ele>
        <time>2015-05-23T14:43:33Z</time>
      </trkpt>
      <trkpt lat="43.280383" lon="-4.229500">
        <ele>869.0</ele>
        <time>2015-05-23T14:43:34Z</time>
      </trkpt>
      <trkpt lat="43.280400" lon="-4.229600">
        <ele>871.0</ele>
        <time>2015-05-23T14:43:35Z</time>
      </trkpt>
      <trkpt lat="43.280417" lon="-4.229700">
        <ele>873.0</ele>
        <time>2015-05-23T14:43:36Z</time>
      </trkpt>
      <trkpt lat="43.280433" lon="-4.229783">
        <ele>875.0</ele>
        <time>2015-05-23T14:43:37Z</time>
      </trkpt>
      <trkpt lat="43.280450" lon="-4.229850">
        <ele>876.0</ele>
        <time>2015-05-23T14:43:38Z</time>
      </trkpt>
      <trkpt lat="43.280483" lon="-4.229933">
        <ele>877.0</ele>
        <time>2015-05-23T14:43:39Z</time>
      </trkpt>
      <trkpt lat="43.280500" lon="-4.229983">
        <ele>877.0</ele>
        <time>2015-05-23T14:43:40Z</time>
      </trkpt>
      <trkpt lat="43.280533" lon="-4.230050">
        <ele>878.0</ele>
        <time>2015-05-23T14:43:41Z</time>
      </trkpt>
      <trkpt lat="43.280567" lon="-4.230100">
        <ele>879.0</ele>
        <time>2015-05-23T14:43:42Z</time>
      </trkpt>
      <trkpt lat="43.280600" lon="-4.230167">
        <ele>880.0</ele>
        <time>2015-05-23T14:43:43Z</time>
      </trkpt>
      <trkpt lat="43.280617" lon="-4.230217">
        <ele>880.0</ele>
        <time>2015-05-23T14:43:44Z</time>
      </trkpt>
      <trkpt lat="43.280650" lon="-4.230283">
        <ele>880.0</ele>
        <time>2015-05-23T14:43:45Z</time>
      </trkpt>
      <trkpt lat="43.280683" lon="-4.230350">
        <ele>881.0</ele>
        <time>2015-05-23T14:43:46Z</time>
      </trkpt>
      <trkpt lat="43.280733" lon="-4.230400">
        <ele>882.0</ele>
        <time>2015-05-23T14:43:47Z</time>
      </trkpt>
      <trkpt lat="43.280767" lon="-4.230450">
        <ele>883.0</ele>
        <time>2015-05-23T14:43:48Z</time>
      </trkpt>
      <trkpt lat="43.280800" lon="-4.230517">
        <ele>884.0</ele>
        <time>2015-05-23T14:43:49Z</time>
      </trkpt>
      <trkpt lat="43.280833" lon="-4.230583">
        <ele>886.0</ele>
        <time>2015-05-23T14:43:50Z</time>
      </trkpt>
      <trkpt lat="43.280883" lon="-4.230667">
        <ele>887.0</ele>
        <time>2015-05-23T14:43:51Z</time>
      </trkpt>
      <trkpt lat="43.280900" lon="-4.230717">
        <ele>889.0</ele>
        <time>2015-05-23T14:43:52Z</time>
      </trkpt>
      <trkpt lat="43.280933" lon="-4.230783">
        <ele>891.0</ele>
        <time>2015-05-23T14:43:53Z</time>
      </trkpt>
      <trkpt lat="43.280983" lon="-4.230833">
        <ele>892.0</ele>
        <time>2015-05-23T14:43:54Z</time>
      </trkpt>
      <trkpt lat="43.281017" lon="-4.230900">
        <ele>893.0</ele>
        <time>2015-05-23T14:43:55Z</time>
      </trkpt>
      <trkpt lat="43.281050" lon="-4.230967">
        <ele>893.0</ele>
        <time>2015-05-23T14:43:56Z</time>
      </trkpt>
      <trkpt lat="43.281083" lon="-4.231033">
        <ele>894.0</ele>
        <time>2015-05-23T14:43:57Z</time>
      </trkpt>
      <trkpt lat="43.281117" lon="-4.231100">
        <ele>895.0</ele>
        <time>2015-05-23T14:43:58Z</time>
      </trkpt>
      <trkpt lat="43.281167" lon="-4.231167">
        <ele>897.0</ele>
        <time>2015-05-23T14:43:59Z</time>
      </trkpt>
      <trkpt lat="43.281200" lon="-4.231233">
        <ele>899.0</ele>
        <time>2015-05-23T14:44:00Z</time>
      </trkpt>
      <trkpt lat="43.281233" lon="-4.231317">
        <ele>900.0</ele>
        <time>2015-05-23T14:44:01Z</time>
      </trkpt>
      <trkpt lat="43.281267" lon="-4.231400">
        <ele>901.0</ele>
        <time>2015-05-23T14:44:02Z</time>
      </trkpt>
      <trkpt lat="43.281283" lon="-4.231467">
        <ele>902.0</ele>
        <time>2015-05-23T14:44:03Z</time>
      </trkpt>
      <trkpt lat="43.281317" lon="-4.231550">
        <ele>903.0</ele>
        <time>2015-05-23T14:44:04Z</time>
      </trkpt>
      <trkpt lat="43.281333" lon="-4.231617">
        <ele>904.0</ele>
        <time>2015-05-23T14:44:05Z</time>
      </trkpt>
      <trkpt lat="43.281367" lon="-4.231683">
        <ele>904.0</ele>
        <time>2015-05-23T14:44:06Z</time>
      </trkpt>
      <trkpt lat="43.281383" lon="-4.231750">
        <ele>902.0</ele>
        <time>2015-05-23T14:44:07Z</time>
      </trkpt>
      <trkpt lat="43.281417" lon="-4.231817">
        <ele>902.0</ele>
        <time>2015-05-23T14:44:08Z</time>
      </trkpt>
      <trkpt lat="43.281433" lon="-4.231883">
        <ele>901.0</ele>
        <time>2015-05-23T14:44:09Z</time>
      </trkpt>
      <trkpt lat="43.281450" lon="-4.231950">
        <ele>900.0</ele>
        <time>2015-05-23T14:44:10Z</time>
      </trkpt>
      <trkpt lat="43.281483" lon="-4.232017">
        <ele>899.0</ele>
        <time>2015-05-23T14:44:11Z</time>
      </trkpt>
      <trkpt lat="43.281517" lon="-4.232100">
        <ele>899.0</ele>
        <time>2015-05-23T14:44:12Z</time>
      </trkpt>
      <trkpt lat="43.281550" lon="-4.232183">
        <ele>898.0</ele>
        <time>2015-05-23T14:44:13Z</time>
      </trkpt>
      <trkpt lat="43.281583" lon="-4.232267">
        <ele>897.0</ele>
        <time>2015-05-23T14:44:14Z</time>
      </trkpt>
      <trkpt lat="43.281600" lon="-4.232333">
        <ele>897.0</ele>
        <time>2015-05-23T14:44:15Z</time>
      </trkpt>
      <trkpt lat="43.281633" lon="-4.232417">
        <ele>897.0</ele>
        <time>2015-05-23T14:44:16Z</time>
      </trkpt>
      <trkpt lat="43.281650" lon="-4.232467">
        <ele>897.0</ele>
        <time>2015-05-23T14:44:17Z</time>
      </trkpt>
      <trkpt lat="43.281667" lon="-4.232550">
        <ele>895.0</ele>
        <time>2015-05-23T14:44:18Z</time>
      </trkpt>
      <trkpt lat="43.281700" lon="-4.232617">
        <ele>894.0</ele>
        <time>2015-05-23T14:44:19Z</time>
      </trkpt>
      <trkpt lat="43.281717" lon="-4.232717">
        <ele>893.0</ele>
        <time>2015-05-23T14:44:20Z</time>
      </trkpt>
      <trkpt lat="43.281733" lon="-4.232783">
        <ele>892.0</ele>
        <time>2015-05-23T14:44:21Z</time>
      </trkpt>
      <trkpt lat="43.281767" lon="-4.232850">
        <ele>891.0</ele>
        <time>2015-05-23T14:44:22Z</time>
      </trkpt>
      <trkpt lat="43.281783" lon="-4.232917">
        <ele>890.0</ele>
        <time>2015-05-23T14:44:23Z</time>
      </trkpt>
      <trkpt lat="43.281817" lon="-4.232967">
        <ele>889.0</ele>
        <time>2015-05-23T14:44:24Z</time>
      </trkpt>
      <trkpt lat="43.281850" lon="-4.233033">
        <ele>887.0</ele>
        <time>2015-05-23T14:44:25Z</time>
      </trkpt>
      <trkpt lat="43.281883" lon="-4.233100">
        <ele>886.0</ele>
        <time>2015-05-23T14:44:26Z</time>
      </trkpt>
      <trkpt lat="43.281917" lon="-4.233150">
        <ele>884.0</ele>
        <time>2015-05-23T14:44:27Z</time>
      </trkpt>
      <trkpt lat="43.281950" lon="-4.233217">
        <ele>883.0</ele>
        <time>2015-05-23T14:44:28Z</time>
      </trkpt>
      <trkpt lat="43.281983" lon="-4.233267">
        <ele>881.0</ele>
        <time>2015-05-23T14:44:29Z</time>
      </trkpt>
      <trkpt lat="43.282017" lon="-4.233333">
        <ele>880.0</ele>
        <time>2015-05-23T14:44:30Z</time>
      </trkpt>
      <trkpt lat="43.282067" lon="-4.233400">
        <ele>879.0</ele>
        <time>2015-05-23T14:44:31Z</time>
      </trkpt>
      <trkpt lat="43.282100" lon="-4.233450">
        <ele>879.0</ele>
        <time>2015-05-23T14:44:32Z</time>
      </trkpt>
      <trkpt lat="43.282133" lon="-4.233500">
        <ele>878.0</ele>
        <time>2015-05-23T14:44:33Z</time>
      </trkpt>
      <trkpt lat="43.282167" lon="-4.233550">
        <ele>877.0</ele>
        <time>2015-05-23T14:44:34Z</time>
      </trkpt>
      <trkpt lat="43.282200" lon="-4.233600">
        <ele>878.0</ele>
        <time>2015-05-23T14:44:35Z</time>
      </trkpt>
      <trkpt lat="43.282233" lon="-4.233667">
        <ele>877.0</ele>
        <time>2015-05-23T14:44:36Z</time>
      </trkpt>
      <trkpt lat="43.282283" lon="-4.233717">
        <ele>877.0</ele>
        <time>2015-05-23T14:44:37Z</time>
      </trkpt>
      <trkpt lat="43.282333" lon="-4.233750">
        <ele>876.0</ele>
        <time>2015-05-23T14:44:38Z</time>
      </trkpt>
      <trkpt lat="43.282383" lon="-4.233800">
        <ele>877.0</ele>
        <time>2015-05-23T14:44:39Z</time>
      </trkpt>
      <trkpt lat="43.282433" lon="-4.233850">
        <ele>876.0</ele>
        <time>2015-05-23T14:44:40Z</time>
      </trkpt>
      <trkpt lat="43.282500" lon="-4.233900">
        <ele>875.0</ele>
        <time>2015-05-23T14:44:41Z</time>
      </trkpt>
      <trkpt lat="43.282533" lon="-4.233983">
        <ele>874.0</ele>
        <time>2015-05-23T14:44:42Z</time>
      </trkpt>
      <trkpt lat="43.282583" lon="-4.234083">
        <ele>873.0</ele>
        <time>2015-05-23T14:44:43Z</time>
      </trkpt>
      <trkpt lat="43.282617" lon="-4.234183">
        <ele>872.0</ele>
        <time>2015-05-23T14:44:44Z</time>
      </trkpt>
      <trkpt lat="43.282650" lon="-4.234267">
        <ele>871.0</ele>
        <time>2015-05-23T14:44:45Z</time>
      </trkpt>
      <trkpt lat="43.282700" lon="-4.234350">
        <ele>870.0</ele>
        <time>2015-05-23T14:44:46Z</time>
      </trkpt>
      <trkpt lat="43.282733" lon="-4.234433">
        <ele>869.0</ele>
        <time>2015-05-23T14:44:47Z</time>
      </trkpt>
      <trkpt lat="43.282750" lon="-4.234550">
        <ele>867.0</ele>
        <time>2015-05-23T14:44:48Z</time>
      </trkpt>
      <trkpt lat="43.282767" lon="-4.234683">
        <ele>866.0</ele>
        <time>2015-05-23T14:44:49Z</time>
      </trkpt>
      <trkpt lat="43.282800" lon="-4.234817">
        <ele>865.0</ele>
        <time>2015-05-23T14:44:50Z</time>
      </trkpt>
      <trkpt lat="43.282817" lon="-4.234933">
        <ele>863.0</ele>
        <time>2015-05-23T14:44:51Z</time>
      </trkpt>
      <trkpt lat="43.282850" lon="-4.235067">
        <ele>862.0</ele>
        <time>2015-05-23T14:44:52Z</time>
      </trkpt>
      <trkpt lat="43.282867" lon="-4.235183">
        <ele>860.0</ele>
        <time>2015-05-23T14:44:53Z</time>
      </trkpt>
      <trkpt lat="43.282883" lon="-4.235317">
        <ele>859.0</ele>
        <time>2015-05-23T14:44:54Z</time>
      </trkpt>
      <trkpt lat="43.282883" lon="-4.235467">
        <ele>857.0</ele>
        <time>2015-05-23T14:44:55Z</time>
      </trkpt>
      <trkpt lat="43.282883" lon="-4.235617">
        <ele>855.0</ele>
        <time>2015-05-23T14:44:56Z</time>
      </trkpt>
      <trkpt lat="43.282900" lon="-4.235783">
        <ele>852.0</ele>
        <time>2015-05-23T14:44:57Z</time>
      </trkpt>
      <trkpt lat="43.282900" lon="-4.235950">
        <ele>850.0</ele>
        <time>2015-05-23T14:44:58Z</time>
      </trkpt>
      <trkpt lat="43.282900" lon="-4.236117">
        <ele>849.0</ele>
        <time>2015-05-23T14:44:59Z</time>
      </trkpt>
      <trkpt lat="43.282900" lon="-4.236267">
        <ele>849.0</ele>
        <time>2015-05-23T14:45:00Z</time>
      </trkpt>
      <trkpt lat="43.282883" lon="-4.236417">
        <ele>849.0</ele>
        <time>2015-05-23T14:45:01Z</time>
      </trkpt>
      <trkpt lat="43.282883" lon="-4.236567">
        <ele>849.0</ele>
        <time>2015-05-23T14:45:02Z</time>
      </trkpt>
      <trkpt lat="43.282867" lon="-4.236717">
        <ele>848.0</ele>
        <time>2015-05-23T14:45:03Z</time>
      </trkpt>
      <trkpt lat="43.282867" lon="-4.236883">
        <ele>847.0</ele>
        <time>2015-05-23T14:45:04Z</time>
      </trkpt>
      <trkpt lat="43.282850" lon="-4.237050">
        <ele>847.0</ele>
        <time>2015-05-23T14:45:05Z</time>
      </trkpt>
      <trkpt lat="43.282850" lon="-4.237200">
        <ele>846.0</ele>
        <time>2015-05-23T14:45:06Z</time>
      </trkpt>
      <trkpt lat="43.282850" lon="-4.237350">
        <ele>845.0</ele>
        <time>2015-05-23T14:45:07Z</time>
      </trkpt>
      <trkpt lat="43.282850" lon="-4.237483">
        <ele>845.0</ele>
        <time>2015-05-23T14:45:08Z</time>
      </trkpt>
      <trkpt lat="43.282833" lon="-4.237633">
        <ele>844.0</ele>
        <time>2015-05-23T14:45:09Z</time>
      </trkpt>
      <trkpt lat="43.282817" lon="-4.237783">
        <ele>843.0</ele>
        <time>2015-05-23T14:45:10Z</time>
      </trkpt>
      <trkpt lat="43.282800" lon="-4.237950">
        <ele>842.0</ele>
        <time>2015-05-23T14:45:11Z</time>
      </trkpt>
      <trkpt lat="43.282767" lon="-4.238100">
        <ele>841.0</ele>
        <time>2015-05-23T14:45:12Z</time>
      </trkpt>
      <trkpt lat="43.282767" lon="-4.238250">
        <ele>841.0</ele>
        <time>2015-05-23T14:45:13Z</time>
      </trkpt>
      <trkpt lat="43.282750" lon="-4.238383">
        <ele>841.0</ele>
        <time>2015-05-23T14:45:14Z</time>
      </trkpt>
      <trkpt lat="43.282733" lon="-4.238533">
        <ele>840.0</ele>
        <time>2015-05-23T14:45:15Z</time>
      </trkpt>
      <trkpt lat="43.282717" lon="-4.238667">
        <ele>839.0</ele>
        <time>2015-05-23T14:45:16Z</time>
      </trkpt>
      <trkpt lat="43.282700" lon="-4.238817">
        <ele>838.0</ele>
        <time>2015-05-23T14:45:17Z</time>
      </trkpt>
      <trkpt lat="43.282700" lon="-4.238967">
        <ele>836.0</ele>
        <time>2015-05-23T14:45:18Z</time>
      </trkpt>
      <trkpt lat="43.282700" lon="-4.239100">
        <ele>835.0</ele>
        <time>2015-05-23T14:45:19Z</time>
      </trkpt>
      <trkpt lat="43.282700" lon="-4.239233">
        <ele>833.0</ele>
        <time>2015-05-23T14:45:20Z</time>
      </trkpt>
      <trkpt lat="43.282683" lon="-4.239367">
        <ele>831.0</ele>
        <time>2015-05-23T14:45:21Z</time>
      </trkpt>
      <trkpt lat="43.282683" lon="-4.239500">
        <ele>829.0</ele>
        <time>2015-05-23T14:45:22Z</time>
      </trkpt>
      <trkpt lat="43.282683" lon="-4.239633">
        <ele>827.0</ele>
        <time>2015-05-23T14:45:23Z</time>
      </trkpt>
      <trkpt lat="43.282683" lon="-4.239783">
        <ele>825.0</ele>
        <time>2015-05-23T14:45:24Z</time>
      </trkpt>
      <trkpt lat="43.282683" lon="-4.239933">
        <ele>823.0</ele>
        <time>2015-05-23T14:45:25Z</time>
      </trkpt>
      <trkpt lat="43.282667" lon="-4.240083">
        <ele>822.0</ele>
        <time>2015-05-23T14:45:26Z</time>
      </trkpt>
      <trkpt lat="43.282650" lon="-4.240217">
        <ele>820.0</ele>
        <time>2015-05-23T14:45:27Z</time>
      </trkpt>
      <trkpt lat="43.282633" lon="-4.240333">
        <ele>820.0</ele>
        <time>2015-05-23T14:45:28Z</time>
      </trkpt>
      <trkpt lat="43.282650" lon="-4.240483">
        <ele>822.0</ele>
        <time>2015-05-23T14:45:29Z</time>
      </trkpt>
      <trkpt lat="43.282633" lon="-4.240617">
        <ele>820.0</ele>
        <time>2015-05-23T14:45:30Z</time>
      </trkpt>
      <trkpt lat="43.282617" lon="-4.240750">
        <ele>818.0</ele>
        <time>2015-05-23T14:45:31Z</time>
      </trkpt>
      <trkpt lat="43.282583" lon="-4.240883">
        <ele>816.0</ele>
        <time>2015-05-23T14:45:32Z</time>
      </trkpt>
      <trkpt lat="43.282567" lon="-4.241033">
        <ele>813.0</ele>
        <time>2015-05-23T14:45:33Z</time>
      </trkpt>
      <trkpt lat="43.282533" lon="-4.241167">
        <ele>811.0</ele>
        <time>2015-05-23T14:45:34Z</time>
      </trkpt>
      <trkpt lat="43.282517" lon="-4.241283">
        <ele>809.0</ele>
        <time>2015-05-23T14:45:35Z</time>
      </trkpt>
      <trkpt lat="43.282517" lon="-4.241417">
        <ele>808.0</ele>
        <time>2015-05-23T14:45:36Z</time>
      </trkpt>
      <trkpt lat="43.282500" lon="-4.241533">
        <ele>811.0</ele>
        <time>2015-05-23T14:45:37Z</time>
      </trkpt>
      <trkpt lat="43.282500" lon="-4.241667">
        <ele>810.0</ele>
        <time>2015-05-23T14:45:38Z</time>
      </trkpt>
      <trkpt lat="43.282517" lon="-4.241800">
        <ele>809.0</ele>
        <time>2015-05-23T14:45:39Z</time>
      </trkpt>
      <trkpt lat="43.282517" lon="-4.241933">
        <ele>808.0</ele>
        <time>2015-05-23T14:45:40Z</time>
      </trkpt>
      <trkpt lat="43.282533" lon="-4.242083">
        <ele>807.0</ele>
        <time>2015-05-23T14:45:41Z</time>
      </trkpt>
      <trkpt lat="43.282517" lon="-4.242200">
        <ele>806.0</ele>
        <time>2015-05-23T14:45:42Z</time>
      </trkpt>
      <trkpt lat="43.282500" lon="-4.242333">
        <ele>805.0</ele>
        <time>2015-05-23T14:45:43Z</time>
      </trkpt>
      <trkpt lat="43.282483" lon="-4.242450">
        <ele>803.0</ele>
        <time>2015-05-23T14:45:44Z</time>
      </trkpt>
      <trkpt lat="43.282467" lon="-4.242550">
        <ele>800.0</ele>
        <time>2015-05-23T14:45:45Z</time>
      </trkpt>
      <trkpt lat="43.282450" lon="-4.242650">
        <ele>798.0</ele>
        <time>2015-05-23T14:45:46Z</time>
      </trkpt>
      <trkpt lat="43.282433" lon="-4.242750">
        <ele>795.0</ele>
        <time>2015-05-23T14:45:47Z</time>
      </trkpt>
      <trkpt lat="43.282417" lon="-4.242867">
        <ele>792.0</ele>
        <time>2015-05-23T14:45:48Z</time>
      </trkpt>
      <trkpt lat="43.282383" lon="-4.243000">
        <ele>789.0</ele>
        <time>2015-05-23T14:45:49Z</time>
      </trkpt>
      <trkpt lat="43.282350" lon="-4.243117">
        <ele>785.0</ele>
        <time>2015-05-23T14:45:50Z</time>
      </trkpt>
      <trkpt lat="43.282333" lon="-4.243233">
        <ele>781.0</ele>
        <time>2015-05-23T14:45:51Z</time>
      </trkpt>
      <trkpt lat="43.282333" lon="-4.243383">
        <ele>784.0</ele>
        <time>2015-05-23T14:45:52Z</time>
      </trkpt>
      <trkpt lat="43.282317" lon="-4.243517">
        <ele>784.0</ele>
        <time>2015-05-23T14:45:53Z</time>
      </trkpt>
      <trkpt lat="43.282267" lon="-4.243617">
        <ele>782.0</ele>
        <time>2015-05-23T14:45:54Z</time>
      </trkpt>
      <trkpt lat="43.282217" lon="-4.243733">
        <ele>778.0</ele>
        <time>2015-05-23T14:45:55Z</time>
      </trkpt>
      <trkpt lat="43.282200" lon="-4.243833">
        <ele>775.0</ele>
        <time>2015-05-23T14:45:56Z</time>
      </trkpt>
      <trkpt lat="43.282200" lon="-4.243967">
        <ele>776.0</ele>
        <time>2015-05-23T14:45:57Z</time>
      </trkpt>
      <trkpt lat="43.282200" lon="-4.244083">
        <ele>776.0</ele>
        <time>2015-05-23T14:45:58Z</time>
      </trkpt>
      <trkpt lat="43.282167" lon="-4.244200">
        <ele>775.0</ele>
        <time>2015-05-23T14:45:59Z</time>
      </trkpt>
      <trkpt lat="43.282150" lon="-4.244317">
        <ele>774.0</ele>
        <time>2015-05-23T14:46:00Z</time>
      </trkpt>
      <trkpt lat="43.282117" lon="-4.244433">
        <ele>771.0</ele>
        <time>2015-05-23T14:46:01Z</time>
      </trkpt>
      <trkpt lat="43.282117" lon="-4.244533">
        <ele>767.0</ele>
        <time>2015-05-23T14:46:02Z</time>
      </trkpt>
      <trkpt lat="43.282100" lon="-4.244650">
        <ele>767.0</ele>
        <time>2015-05-23T14:46:03Z</time>
      </trkpt>
      <trkpt lat="43.282083" lon="-4.244767">
        <ele>765.0</ele>
        <time>2015-05-23T14:46:04Z</time>
      </trkpt>
      <trkpt lat="43.282067" lon="-4.244900">
        <ele>763.0</ele>
        <time>2015-05-23T14:46:05Z</time>
      </trkpt>
      <trkpt lat="43.282050" lon="-4.245033">
        <ele>761.0</ele>
        <time>2015-05-23T14:46:06Z</time>
      </trkpt>
      <trkpt lat="43.282050" lon="-4.245150">
        <ele>759.0</ele>
        <time>2015-05-23T14:46:07Z</time>
      </trkpt>
      <trkpt lat="43.282050" lon="-4.245267">
        <ele>756.0</ele>
        <time>2015-05-23T14:46:08Z</time>
      </trkpt>
      <trkpt lat="43.282033" lon="-4.245383">
        <ele>753.0</ele>
        <time>2015-05-23T14:46:09Z</time>
      </trkpt>
      <trkpt lat="43.282000" lon="-4.245500">
        <ele>749.0</ele>
        <time>2015-05-23T14:46:10Z</time>
      </trkpt>
      <trkpt lat="43.281983" lon="-4.245633">
        <ele>746.0</ele>
        <time>2015-05-23T14:46:11Z</time>
      </trkpt>
      <trkpt lat="43.281933" lon="-4.245750">
        <ele>743.0</ele>
        <time>2015-05-23T14:46:12Z</time>
      </trkpt>
      <trkpt lat="43.281900" lon="-4.245867">
        <ele>740.0</ele>
        <time>2015-05-23T14:46:13Z</time>
      </trkpt>
      <trkpt lat="43.281900" lon="-4.246017">
        <ele>744.0</ele>
        <time>2015-05-23T14:46:14Z</time>
      </trkpt>
      <trkpt lat="43.281867" lon="-4.246133">
        <ele>742.0</ele>
        <time>2015-05-23T14:46:15Z</time>
      </trkpt>
      <trkpt lat="43.281833" lon="-4.246267">
        <ele>740.0</ele>
        <time>2015-05-23T14:46:16Z</time>
      </trkpt>
      <trkpt lat="43.281800" lon="-4.246383">
        <ele>738.0</ele>
        <time>2015-05-23T14:46:17Z</time>
      </trkpt>
      <trkpt lat="43.281750" lon="-4.246500">
        <ele>734.0</ele>
        <time>2015-05-23T14:46:18Z</time>
      </trkpt>
      <trkpt lat="43.281717" lon="-4.246617">
        <ele>730.0</ele>
        <time>2015-05-23T14:46:19Z</time>
      </trkpt>
      <trkpt lat="43.281683" lon="-4.246733">
        <ele>727.0</ele>
        <time>2015-05-23T14:46:20Z</time>
      </trkpt>
      <trkpt lat="43.281667" lon="-4.246850">
        <ele>724.0</ele>
        <time>2015-05-23T14:46:21Z</time>
      </trkpt>
      <trkpt lat="43.281633" lon="-4.246950">
        <ele>721.0</ele>
        <time>2015-05-23T14:46:22Z</time>
      </trkpt>
      <trkpt lat="43.281600" lon="-4.247083">
        <ele>718.0</ele>
        <time>2015-05-23T14:46:23Z</time>
      </trkpt>
      <trkpt lat="43.281567" lon="-4.247200">
        <ele>716.0</ele>
        <time>2015-05-23T14:46:24Z</time>
      </trkpt>
      <trkpt lat="43.281533" lon="-4.247333">
        <ele>714.0</ele>
        <time>2015-05-23T14:46:25Z</time>
      </trkpt>
      <trkpt lat="43.281500" lon="-4.247450">
        <ele>712.0</ele>
        <time>2015-05-23T14:46:26Z</time>
      </trkpt>
      <trkpt lat="43.281467" lon="-4.247533">
        <ele>711.0</ele>
        <time>2015-05-23T14:46:27Z</time>
      </trkpt>
      <trkpt lat="43.281450" lon="-4.247667">
        <ele>716.0</ele>
        <time>2015-05-23T14:46:28Z</time>
      </trkpt>
      <trkpt lat="43.281433" lon="-4.247783">
        <ele>715.0</ele>
        <time>2015-05-23T14:46:29Z</time>
      </trkpt>
      <trkpt lat="43.281400" lon="-4.247900">
        <ele>715.0</ele>
        <time>2015-05-23T14:46:30Z</time>
      </trkpt>
      <trkpt lat="43.281383" lon="-4.248017">
        <ele>714.0</ele>
        <time>2015-05-23T14:46:31Z</time>
      </trkpt>
      <trkpt lat="43.281367" lon="-4.248133">
        <ele>713.0</ele>
        <time>2015-05-23T14:46:32Z</time>
      </trkpt>
      <trkpt lat="43.281350" lon="-4.248233">
        <ele>713.0</ele>
        <time>2015-05-23T14:46:33Z</time>
      </trkpt>
      <trkpt lat="43.281333" lon="-4.248333">
        <ele>712.0</ele>
        <time>2015-05-23T14:46:34Z</time>
      </trkpt>
      <trkpt lat="43.281317" lon="-4.248450">
        <ele>711.0</ele>
        <time>2015-05-23T14:46:35Z</time>
      </trkpt>
      <trkpt lat="43.281317" lon="-4.248567">
        <ele>710.0</ele>
        <time>2015-05-23T14:46:36Z</time>
      </trkpt>
      <trkpt lat="43.281300" lon="-4.248683">
        <ele>710.0</ele>
        <time>2015-05-23T14:46:37Z</time>
      </trkpt>
      <trkpt lat="43.281300" lon="-4.248800">
        <ele>710.0</ele>
        <time>2015-05-23T14:46:38Z</time>
      </trkpt>
      <trkpt lat="43.281300" lon="-4.248883">
        <ele>710.0</ele>
        <time>2015-05-23T14:46:39Z</time>
      </trkpt>
      <trkpt lat="43.281283" lon="-4.248933">
        <ele>710.0</ele>
        <time>2015-05-23T14:46:40Z</time>
      </trkpt>
      <trkpt lat="43.281283" lon="-4.249000">
        <ele>710.0</ele>
        <time>2015-05-23T14:46:41Z</time>
      </trkpt>
      <trkpt lat="43.281283" lon="-4.249050">
        <ele>711.0</ele>
        <time>2015-05-23T14:46:42Z</time>
      </trkpt>
      <trkpt lat="43.281283" lon="-4.249117">
        <ele>712.0</ele>
        <time>2015-05-23T14:46:43Z</time>
      </trkpt>
      <trkpt lat="43.281283" lon="-4.249167">
        <ele>712.0</ele>
        <time>2015-05-23T14:46:44Z</time>
      </trkpt>
      <trkpt lat="43.281267" lon="-4.249217">
        <ele>712.0</ele>
        <time>2015-05-23T14:46:45Z</time>
      </trkpt>
      <trkpt lat="43.281267" lon="-4.249267">
        <ele>713.0</ele>
        <time>2015-05-23T14:46:46Z</time>
      </trkpt>
      <trkpt lat="43.281250" lon="-4.249317">
        <ele>713.0</ele>
        <time>2015-05-23T14:46:47Z</time>
      </trkpt>
      <trkpt lat="43.281250" lon="-4.249383">
        <ele>714.0</ele>
        <time>2015-05-23T14:46:48Z</time>
      </trkpt>
      <trkpt lat="43.281250" lon="-4.249433">
        <ele>716.0</ele>
        <time>2015-05-23T14:46:49Z</time>
      </trkpt>
      <trkpt lat="43.281267" lon="-4.249483">
        <ele>717.0</ele>
        <time>2015-05-23T14:46:50Z</time>
      </trkpt>
      <trkpt lat="43.281267" lon="-4.249533">
        <ele>718.0</ele>
        <time>2015-05-23T14:46:51Z</time>
      </trkpt>
      <trkpt lat="43.281283" lon="-4.249583">
        <ele>719.0</ele>
        <time>2015-05-23T14:46:52Z</time>
      </trkpt>
      <trkpt lat="43.281300" lon="-4.249650">
        <ele>719.0</ele>
        <time>2015-05-23T14:46:53Z</time>
      </trkpt>
      <trkpt lat="43.281300" lon="-4.249717">
        <ele>720.0</ele>
        <time>2015-05-23T14:46:54Z</time>
      </trkpt>
      <trkpt lat="43.281300" lon="-4.249800">
        <ele>720.0</ele>
        <time>2015-05-23T14:46:55Z</time>
      </trkpt>
      <trkpt lat="43.281283" lon="-4.249883">
        <ele>721.0</ele>
        <time>2015-05-23T14:46:56Z</time>
      </trkpt>
      <trkpt lat="43.281250" lon="-4.249967">
        <ele>722.0</ele>
        <time>2015-05-23T14:46:57Z</time>
      </trkpt>
      <trkpt lat="43.281217" lon="-4.250050">
        <ele>723.0</ele>
        <time>2015-05-23T14:46:58Z</time>
      </trkpt>
      <trkpt lat="43.281167" lon="-4.250117">
        <ele>724.0</ele>
        <time>2015-05-23T14:46:59Z</time>
      </trkpt>
      <trkpt lat="43.281100" lon="-4.250200">
        <ele>724.0</ele>
        <time>2015-05-23T14:47:00Z</time>
      </trkpt>
      <trkpt lat="43.281033" lon="-4.250283">
        <ele>725.0</ele>
        <time>2015-05-23T14:47:01Z</time>
      </trkpt>
      <trkpt lat="43.280983" lon="-4.250350">
        <ele>726.0</ele>
        <time>2015-05-23T14:47:02Z</time>
      </trkpt>
      <trkpt lat="43.280917" lon="-4.250417">
        <ele>727.0</ele>
        <time>2015-05-23T14:47:03Z</time>
      </trkpt>
      <trkpt lat="43.280833" lon="-4.250467">
        <ele>729.0</ele>
        <time>2015-05-23T14:47:04Z</time>
      </trkpt>
      <trkpt lat="43.280767" lon="-4.250550">
        <ele>731.0</ele>
        <time>2015-05-23T14:47:05Z</time>
      </trkpt>
      <trkpt lat="43.280683" lon="-4.250617">
        <ele>733.0</ele>
        <time>2015-05-23T14:47:06Z</time>
      </trkpt>
      <trkpt lat="43.280617" lon="-4.250700">
        <ele>735.0</ele>
        <time>2015-05-23T14:47:07Z</time>
      </trkpt>
      <trkpt lat="43.280533" lon="-4.250767">
        <ele>737.0</ele>
        <time>2015-05-23T14:47:08Z</time>
      </trkpt>
      <trkpt lat="43.280483" lon="-4.250850">
        <ele>740.0</ele>
        <time>2015-05-23T14:47:09Z</time>
      </trkpt>
      <trkpt lat="43.280400" lon="-4.250917">
        <ele>743.0</ele>
        <time>2015-05-23T14:47:10Z</time>
      </trkpt>
      <trkpt lat="43.280333" lon="-4.251000">
        <ele>746.0</ele>
        <time>2015-05-23T14:47:11Z</time>
      </trkpt>
      <trkpt lat="43.280250" lon="-4.251083">
        <ele>750.0</ele>
        <time>2015-05-23T14:47:12Z</time>
      </trkpt>
      <trkpt lat="43.280183" lon="-4.251150">
        <ele>753.0</ele>
        <time>2015-05-23T14:47:13Z</time>
      </trkpt>
      <trkpt lat="43.280133" lon="-4.251233">
        <ele>758.0</ele>
        <time>2015-05-23T14:47:14Z</time>
      </trkpt>
      <trkpt lat="43.280083" lon="-4.251300">
        <ele>761.0</ele>
        <time>2015-05-23T14:47:15Z</time>
      </trkpt>
      <trkpt lat="43.280050" lon="-4.251367">
        <ele>764.0</ele>
        <time>2015-05-23T14:47:16Z</time>
      </trkpt>
      <trkpt lat="43.280033" lon="-4.251417">
        <ele>767.0</ele>
        <time>2015-05-23T14:47:17Z</time>
      </trkpt>
      <trkpt lat="43.280033" lon="-4.251500">
        <ele>769.0</ele>
        <time>2015-05-23T14:47:18Z</time>
      </trkpt>
      <trkpt lat="43.280067" lon="-4.251567">
        <ele>770.0</ele>
        <time>2015-05-23T14:47:19Z</time>
      </trkpt>
      <trkpt lat="43.280100" lon="-4.251600">
        <ele>773.0</ele>
        <time>2015-05-23T14:47:20Z</time>
      </trkpt>
      <trkpt lat="43.280167" lon="-4.251600">
        <ele>774.0</ele>
        <time>2015-05-23T14:47:21Z</time>
      </trkpt>
      <trkpt lat="43.280217" lon="-4.251550">
        <ele>772.0</ele>
        <time>2015-05-23T14:47:22Z</time>
      </trkpt>
      <trkpt lat="43.280233" lon="-4.251433">
        <ele>774.0</ele>
        <time>2015-05-23T14:47:23Z</time>
      </trkpt>
      <trkpt lat="43.280217" lon="-4.251333">
        <ele>776.0</ele>
        <time>2015-05-23T14:47:24Z</time>
      </trkpt>
      <trkpt lat="43.280167" lon="-4.251233">
        <ele>779.0</ele>
        <time>2015-05-23T14:47:25Z</time>
      </trkpt>
      <trkpt lat="43.280067" lon="-4.251167">
        <ele>781.0</ele>
        <time>2015-05-23T14:47:26Z</time>
      </trkpt>
      <trkpt lat="43.279967" lon="-4.251117">
        <ele>784.0</ele>
        <time>2015-05-23T14:47:27Z</time>
      </trkpt>
      <trkpt lat="43.279867" lon="-4.251100">
        <ele>789.0</ele>
        <time>2015-05-23T14:47:28Z</time>
      </trkpt>
      <trkpt lat="43.279783" lon="-4.251100">
        <ele>795.0</ele>
        <time>2015-05-23T14:47:29Z</time>
      </trkpt>
      <trkpt lat="43.279717" lon="-4.251133">
        <ele>798.0</ele>
        <time>2015-05-23T14:47:30Z</time>
      </trkpt>
      <trkpt lat="43.279650" lon="-4.251183">
        <ele>800.0</ele>
        <time>2015-05-23T14:47:31Z</time>
      </trkpt>
      <trkpt lat="43.279567" lon="-4.251250">
        <ele>802.0</ele>
        <time>2015-05-23T14:47:32Z</time>
      </trkpt>
      <trkpt lat="43.279517" lon="-4.251333">
        <ele>805.0</ele>
        <time>2015-05-23T14:47:33Z</time>
      </trkpt>
      <trkpt lat="43.279500" lon="-4.251400">
        <ele>808.0</ele>
        <time>2015-05-23T14:47:34Z</time>
      </trkpt>
      <trkpt lat="43.279533" lon="-4.251450">
        <ele>809.0</ele>
        <time>2015-05-23T14:47:35Z</time>
      </trkpt>
      <trkpt lat="43.279583" lon="-4.251467">
        <ele>810.0</ele>
        <time>2015-05-23T14:47:36Z</time>
      </trkpt>
      <trkpt lat="43.279650" lon="-4.251433">
        <ele>814.0</ele>
        <time>2015-05-23T14:47:37Z</time>
      </trkpt>
      <trkpt lat="43.279683" lon="-4.251383">
        <ele>817.0</ele>
        <time>2015-05-23T14:47:38Z</time>
      </trkpt>
      <trkpt lat="43.279717" lon="-4.251317">
        <ele>821.0</ele>
        <time>2015-05-23T14:47:39Z</time>
      </trkpt>
      <trkpt lat="43.279733" lon="-4.251233">
        <ele>825.0</ele>
        <time>2015-05-23T14:47:40Z</time>
      </trkpt>
      <trkpt lat="43.279733" lon="-4.251150">
        <ele>828.0</ele>
        <time>2015-05-23T14:47:41Z</time>
      </trkpt>
      <trkpt lat="43.279733" lon="-4.251050">
        <ele>831.0</ele>
        <time>2015-05-23T14:47:42Z</time>
      </trkpt>
      <trkpt lat="43.279717" lon="-4.250917">
        <ele>834.0</ele>
        <time>2015-05-23T14:47:43Z</time>
      </trkpt>
      <trkpt lat="43.279667" lon="-4.250800">
        <ele>836.0</ele>
        <time>2015-05-23T14:47:44Z</time>
      </trkpt>
      <trkpt lat="43.279583" lon="-4.250700">
        <ele>839.0</ele>
        <time>2015-05-23T14:47:45Z</time>
      </trkpt>
      <trkpt lat="43.279483" lon="-4.250650">
        <ele>841.0</ele>
        <time>2015-05-23T14:47:46Z</time>
      </trkpt>
      <trkpt lat="43.279367" lon="-4.250667">
        <ele>843.0</ele>
        <time>2015-05-23T14:47:47Z</time>
      </trkpt>
      <trkpt lat="43.279300" lon="-4.250717">
        <ele>845.0</ele>
        <time>2015-05-23T14:47:48Z</time>
      </trkpt>
      <trkpt lat="43.279250" lon="-4.250767">
        <ele>848.0</ele>
        <time>2015-05-23T14:47:49Z</time>
      </trkpt>
      <trkpt lat="43.279250" lon="-4.250817">
        <ele>849.0</ele>
        <time>2015-05-23T14:47:50Z</time>
      </trkpt>
      <trkpt lat="43.279267" lon="-4.250867">
        <ele>849.0</ele>
        <time>2015-05-23T14:47:51Z</time>
      </trkpt>
      <trkpt lat="43.279283" lon="-4.250900">
        <ele>851.0</ele>
        <time>2015-05-23T14:47:52Z</time>
      </trkpt>
      <trkpt lat="43.279317" lon="-4.250933">
        <ele>853.0</ele>
        <time>2015-05-23T14:47:53Z</time>
      </trkpt>
      <trkpt lat="43.279350" lon="-4.250933">
        <ele>856.0</ele>
        <time>2015-05-23T14:47:54Z</time>
      </trkpt>
      <trkpt lat="43.279400" lon="-4.250933">
        <ele>858.0</ele>
        <time>2015-05-23T14:47:55Z</time>
      </trkpt>
      <trkpt lat="43.279433" lon="-4.250917">
        <ele>860.0</ele>
        <time>2015-05-23T14:47:56Z</time>
      </trkpt>
      <trkpt lat="43.279483" lon="-4.250883">
        <ele>863.0</ele>
        <time>2015-05-23T14:47:57Z</time>
      </trkpt>
      <trkpt lat="43.279517" lon="-4.250833">
        <ele>867.0</ele>
        <time>2015-05-23T14:47:58Z</time>
      </trkpt>
      <trkpt lat="43.279533" lon="-4.250783">
        <ele>871.0</ele>
        <time>2015-05-23T14:47:59Z</time>
      </trkpt>
      <trkpt lat="43.279533" lon="-4.250717">
        <ele>874.0</ele>
        <time>2015-05-23T14:48:00Z</time>
      </trkpt>
      <trkpt lat="43.279533" lon="-4.250633">
        <ele>876.0</ele>
        <time>2015-05-23T14:48:01Z</time>
      </trkpt>
      <trkpt lat="43.279533" lon="-4.250533">
        <ele>878.0</ele>
        <time>2015-05-23T14:48:02Z</time>
      </trkpt>
      <trkpt lat="43.279533" lon="-4.250400">
        <ele>879.0</ele>
        <time>2015-05-23T14:48:03Z</time>
      </trkpt>
      <trkpt lat="43.279483" lon="-4.250283">
        <ele>881.0</ele>
        <time>2015-05-23T14:48:04Z</time>
      </trkpt>
      <trkpt lat="43.279400" lon="-4.250167">
        <ele>883.0</ele>
        <time>2015-05-23T14:48:05Z</time>
      </trkpt>
      <trkpt lat="43.279283" lon="-4.250100">
        <ele>884.0</ele>
        <time>2015-05-23T14:48:06Z</time>
      </trkpt>
      <trkpt lat="43.279150" lon="-4.250083">
        <ele>886.0</ele>
        <time>2015-05-23T14:48:07Z</time>
      </trkpt>
      <trkpt lat="43.279033" lon="-4.250100">
        <ele>889.0</ele>
        <time>2015-05-23T14:48:08Z</time>
      </trkpt>
      <trkpt lat="43.278950" lon="-4.250133">
        <ele>891.0</ele>
        <time>2015-05-23T14:48:09Z</time>
      </trkpt>
      <trkpt lat="43.278883" lon="-4.250183">
        <ele>893.0</ele>
        <time>2015-05-23T14:48:10Z</time>
      </trkpt>
      <trkpt lat="43.278850" lon="-4.250250">
        <ele>894.0</ele>
        <time>2015-05-23T14:48:11Z</time>
      </trkpt>
      <trkpt lat="43.278833" lon="-4.250300">
        <ele>895.0</ele>
        <time>2015-05-23T14:48:12Z</time>
      </trkpt>
      <trkpt lat="43.278817" lon="-4.250350">
        <ele>897.0</ele>
        <time>2015-05-23T14:48:13Z</time>
      </trkpt>
      <trkpt lat="43.278817" lon="-4.250400">
        <ele>898.0</ele>
        <time>2015-05-23T14:48:14Z</time>
      </trkpt>
      <trkpt lat="43.278817" lon="-4.250450">
        <ele>899.0</ele>
        <time>2015-05-23T14:48:15Z</time>
      </trkpt>
      <trkpt lat="43.278800" lon="-4.250483">
        <ele>900.0</ele>
        <time>2015-05-23T14:48:16Z</time>
      </trkpt>
      <trkpt lat="43.278800" lon="-4.250517">
        <ele>901.0</ele>
        <time>2015-05-23T14:48:17Z</time>
      </trkpt>
      <trkpt lat="43.278817" lon="-4.250550">
        <ele>902.0</ele>
        <time>2015-05-23T14:48:18Z</time>
      </trkpt>
      <trkpt lat="43.278850" lon="-4.250533">
        <ele>903.0</ele>
        <time>2015-05-23T14:48:19Z</time>
      </trkpt>
      <trkpt lat="43.278900" lon="-4.250517">
        <ele>904.0</ele>
        <time>2015-05-23T14:48:20Z</time>
      </trkpt>
      <trkpt lat="43.278933" lon="-4.250467">
        <ele>906.0</ele>
        <time>2015-05-23T14:48:21Z</time>
      </trkpt>
      <trkpt lat="43.278950" lon="-4.250400">
        <ele>908.0</ele>
        <time>2015-05-23T14:48:22Z</time>
      </trkpt>
      <trkpt lat="43.278950" lon="-4.250300">
        <ele>910.0</ele>
        <time>2015-05-23T14:48:23Z</time>
      </trkpt>
      <trkpt lat="43.278933" lon="-4.250183">
        <ele>911.0</ele>
        <time>2015-05-23T14:48:24Z</time>
      </trkpt>
      <trkpt lat="43.278900" lon="-4.250050">
        <ele>913.0</ele>
        <time>2015-05-23T14:48:25Z</time>
      </trkpt>
      <trkpt lat="43.278833" lon="-4.249900">
        <ele>915.0</ele>
        <time>2015-05-23T14:48:26Z</time>
      </trkpt>
      <trkpt lat="43.278750" lon="-4.249800">
        <ele>917.0</ele>
        <time>2015-05-23T14:48:27Z</time>
      </trkpt>
      <trkpt lat="43.278650" lon="-4.249700">
        <ele>919.0</ele>
        <time>2015-05-23T14:48:28Z</time>
      </trkpt>
      <trkpt lat="43.278533" lon="-4.249667">
        <ele>920.0</ele>
        <time>2015-05-23T14:48:29Z</time>
      </trkpt>
      <trkpt lat="43.278417" lon="-4.249650">
        <ele>921.0</ele>
        <time>2015-05-23T14:48:30Z</time>
      </trkpt>
      <trkpt lat="43.278317" lon="-4.249683">
        <ele>922.0</ele>
        <time>2015-05-23T14:48:31Z</time>
      </trkpt>
      <trkpt lat="43.278233" lon="-4.249733">
        <ele>924.0</ele>
        <time>2015-05-23T14:48:32Z</time>
      </trkpt>
      <trkpt lat="43.278167" lon="-4.249767">
        <ele>925.0</ele>
        <time>2015-05-23T14:48:33Z</time>
      </trkpt>
      <trkpt lat="43.278117" lon="-4.249817">
        <ele>924.0</ele>
        <time>2015-05-23T14:48:34Z</time>
      </trkpt>
      <trkpt lat="43.278067" lon="-4.249867">
        <ele>924.0</ele>
        <time>2015-05-23T14:48:35Z</time>
      </trkpt>
      <trkpt lat="43.278033" lon="-4.249917">
        <ele>924.0</ele>
        <time>2015-05-23T14:48:36Z</time>
      </trkpt>
      <trkpt lat="43.278000" lon="-4.250000">
        <ele>923.0</ele>
        <time>2015-05-23T14:48:37Z</time>
      </trkpt>
      <trkpt lat="43.277967" lon="-4.250100">
        <ele>923.0</ele>
        <time>2015-05-23T14:48:38Z</time>
      </trkpt>
      <trkpt lat="43.277950" lon="-4.250183">
        <ele>921.0</ele>
        <time>2015-05-23T14:48:39Z</time>
      </trkpt>
      <trkpt lat="43.277950" lon="-4.250250">
        <ele>921.0</ele>
        <time>2015-05-23T14:48:40Z</time>
      </trkpt>
      <trkpt lat="43.277950" lon="-4.250333">
        <ele>922.0</ele>
        <time>2015-05-23T14:48:41Z</time>
      </trkpt>
      <trkpt lat="43.277967" lon="-4.250383">
        <ele>924.0</ele>
        <time>2015-05-23T14:48:42Z</time>
      </trkpt>
      <trkpt lat="43.277983" lon="-4.250433">
        <ele>926.0</ele>
        <time>2015-05-23T14:48:43Z</time>
      </trkpt>
      <trkpt lat="43.277983" lon="-4.250483">
        <ele>928.0</ele>
        <time>2015-05-23T14:48:44Z</time>
      </trkpt>
      <trkpt lat="43.277983" lon="-4.250500">
        <ele>930.0</ele>
        <time>2015-05-23T14:48:45Z</time>
      </trkpt>
      <trkpt lat="43.277983" lon="-4.250517">
        <ele>930.0</ele>
        <time>2015-05-23T14:48:46Z</time>
      </trkpt>
      <trkpt lat="43.277983" lon="-4.250533">
        <ele>930.0</ele>
        <time>2015-05-23T14:48:47Z</time>
      </trkpt>
      <trkpt lat="43.278000" lon="-4.250567">
        <ele>931.0</ele>
        <time>2015-05-23T14:48:48Z</time>
      </trkpt>
      <trkpt lat="43.278017" lon="-4.250583">
        <ele>931.0</ele>
        <time>2015-05-23T14:48:49Z</time>
      </trkpt>
      <trkpt lat="43.278050" lon="-4.250617">
        <ele>934.0</ele>
        <time>2015-05-23T14:48:50Z</time>
      </trkpt>
      <trkpt lat="43.278067" lon="-4.250667">
        <ele>936.0</ele>
        <time>2015-05-23T14:48:51Z</time>
      </trkpt>
      <trkpt lat="43.278067" lon="-4.250717">
        <ele>939.0</ele>
        <time>2015-05-23T14:48:52Z</time>
      </trkpt>
      <trkpt lat="43.278067" lon="-4.250733">
        <ele>941.0</ele>
        <time>2015-05-23T14:48:53Z</time>
      </trkpt>
      <trkpt lat="43.278067" lon="-4.250733">
        <ele>943.0</ele>
        <time>2015-05-23T14:48:54Z</time>
      </trkpt>
      <trkpt lat="43.278083" lon="-4.250733">
        <ele>944.0</ele>
        <time>2015-05-23T14:48:55Z</time>
      </trkpt>
      <trkpt lat="43.278100" lon="-4.250717">
        <ele>945.0</ele>
        <time>2015-05-23T14:48:56Z</time>
      </trkpt>
      <trkpt lat="43.278117" lon="-4.250717">
        <ele>948.0</ele>
        <time>2015-05-23T14:48:57Z</time>
      </trkpt>
      <trkpt lat="43.278117" lon="-4.250733">
        <ele>950.0</ele>
        <time>2015-05-23T14:48:58Z</time>
      </trkpt>
      <trkpt lat="43.278117" lon="-4.250733">
        <ele>952.0</ele>
        <time>2015-05-23T14:48:59Z</time>
      </trkpt>
      <trkpt lat="43.278117" lon="-4.250733">
        <ele>951.0</ele>
        <time>2015-05-23T14:49:00Z</time>
      </trkpt>
      <trkpt lat="43.278133" lon="-4.250750">
        <ele>952.0</ele>
        <time>2015-05-23T14:49:01Z</time>
      </trkpt>
      <trkpt lat="43.278117" lon="-4.250767">
        <ele>953.0</ele>
        <time>2015-05-23T14:49:02Z</time>
      </trkpt>
      <trkpt lat="43.278117" lon="-4.250800">
        <ele>954.0</ele>
        <time>2015-05-23T14:49:03Z</time>
      </trkpt>
      <trkpt lat="43.278100" lon="-4.250850">
        <ele>954.0</ele>
        <time>2015-05-23T14:49:04Z</time>
      </trkpt>
      <trkpt lat="43.278083" lon="-4.250900">
        <ele>955.0</ele>
        <time>2015-05-23T14:49:05Z</time>
      </trkpt>
      <trkpt lat="43.278067" lon="-4.250950">
        <ele>956.0</ele>
        <time>2015-05-23T14:49:06Z</time>
      </trkpt>
      <trkpt lat="43.278050" lon="-4.251000">
        <ele>958.0</ele>
        <time>2015-05-23T14:49:07Z</time>
      </trkpt>
      <trkpt lat="43.278017" lon="-4.251050">
        <ele>959.0</ele>
        <time>2015-05-23T14:49:08Z</time>
      </trkpt>
      <trkpt lat="43.278000" lon="-4.251100">
        <ele>961.0</ele>
        <time>2015-05-23T14:49:09Z</time>
      </trkpt>
      <trkpt lat="43.277983" lon="-4.251150">
        <ele>963.0</ele>
        <time>2015-05-23T14:49:10Z</time>
      </trkpt>
      <trkpt lat="43.277983" lon="-4.251217">
        <ele>965.0</ele>
        <time>2015-05-23T14:49:11Z</time>
      </trkpt>
      <trkpt lat="43.277983" lon="-4.251250">
        <ele>968.0</ele>
        <time>2015-05-23T14:49:12Z</time>
      </trkpt>
      <trkpt lat="43.277983" lon="-4.251283">
        <ele>971.0</ele>
        <time>2015-05-23T14:49:13Z</time>
      </trkpt>
      <trkpt lat="43.278000" lon="-4.251300">
        <ele>973.0</ele>
        <time>2015-05-23T14:49:14Z</time>
      </trkpt>
      <trkpt lat="43.278017" lon="-4.251300">
        <ele>975.0</ele>
        <time>2015-05-23T14:49:15Z</time>
      </trkpt>
      <trkpt lat="43.278050" lon="-4.251317">
        <ele>977.0</ele>
        <time>2015-05-23T14:49:16Z</time>
      </trkpt>
      <trkpt lat="43.278083" lon="-4.251317">
        <ele>980.0</ele>
        <time>2015-05-23T14:49:17Z</time>
      </trkpt>
      <trkpt lat="43.278117" lon="-4.251267">
        <ele>983.0</ele>
        <time>2015-05-23T14:49:18Z</time>
      </trkpt>
      <trkpt lat="43.278133" lon="-4.251200">
        <ele>986.0</ele>
        <time>2015-05-23T14:49:19Z</time>
      </trkpt>
      <trkpt lat="43.278133" lon="-4.251100">
        <ele>989.0</ele>
        <time>2015-05-23T14:49:20Z</time>
      </trkpt>
      <trkpt lat="43.278117" lon="-4.250983">
        <ele>992.0</ele>
        <time>2015-05-23T14:49:21Z</time>
      </trkpt>
      <trkpt lat="43.278083" lon="-4.250867">
        <ele>994.0</ele>
        <time>2015-05-23T14:49:22Z</time>
      </trkpt>
      <trkpt lat="43.278033" lon="-4.250733">
        <ele>997.0</ele>
        <time>2015-05-23T14:49:23Z</time>
      </trkpt>
      <trkpt lat="43.277967" lon="-4.250617">
        <ele>999.0</ele>
        <time>2015-05-23T14:49:24Z</time>
      </trkpt>
      <trkpt lat="43.277867" lon="-4.250517">
        <ele>1000.0</ele>
        <time>2015-05-23T14:49:25Z</time>
      </trkpt>
      <trkpt lat="43.277767" lon="-4.250450">
        <ele>1002.0</ele>
        <time>2015-05-23T14:49:26Z</time>
      </trkpt>
      <trkpt lat="43.277650" lon="-4.250417">
        <ele>1004.0</ele>
        <time>2015-05-23T14:49:27Z</time>
      </trkpt>
      <trkpt lat="43.277533" lon="-4.250417">
        <ele>1005.0</ele>
        <time>2015-05-23T14:49:28Z</time>
      </trkpt>
      <trkpt lat="43.277417" lon="-4.250450">
        <ele>1007.0</ele>
        <time>2015-05-23T14:49:29Z</time>
      </trkpt>
      <trkpt lat="43.277333" lon="-4.250500">
        <ele>1008.0</ele>
        <time>2015-05-23T14:49:30Z</time>
      </trkpt>
      <trkpt lat="43.277267" lon="-4.250533">
        <ele>1010.0</ele>
        <time>2015-05-23T14:49:31Z</time>
      </trkpt>
      <trkpt lat="43.277217" lon="-4.250600">
        <ele>1011.0</ele>
        <time>2015-05-23T14:49:32Z</time>
      </trkpt>
      <trkpt lat="43.277200" lon="-4.250650">
        <ele>1011.0</ele>
        <time>2015-05-23T14:49:33Z</time>
      </trkpt>
      <trkpt lat="43.277200" lon="-4.250717">
        <ele>1013.0</ele>
        <time>2015-05-23T14:49:34Z</time>
      </trkpt>
      <trkpt lat="43.277200" lon="-4.250767">
        <ele>1015.0</ele>
        <time>2015-05-23T14:49:35Z</time>
      </trkpt>
      <trkpt lat="43.277183" lon="-4.250800">
        <ele>1016.0</ele>
        <time>2015-05-23T14:49:36Z</time>
      </trkpt>
      <trkpt lat="43.277183" lon="-4.250850">
        <ele>1018.0</ele>
        <time>2015-05-23T14:49:37Z</time>
      </trkpt>
      <trkpt lat="43.277167" lon="-4.250900">
        <ele>1020.0</ele>
        <time>2015-05-23T14:49:38Z</time>
      </trkpt>
      <trkpt lat="43.277167" lon="-4.250967">
        <ele>1021.0</ele>
        <time>2015-05-23T14:49:39Z</time>
      </trkpt>
      <trkpt lat="43.277167" lon="-4.251017">
        <ele>1023.0</ele>
        <time>2015-05-23T14:49:40Z</time>
      </trkpt>
      <trkpt lat="43.277183" lon="-4.251083">
        <ele>1025.0</ele>
        <time>2015-05-23T14:49:41Z</time>
      </trkpt>
      <trkpt lat="43.277183" lon="-4.251133">
        <ele>1027.0</ele>
        <time>2015-05-23T14:49:42Z</time>
      </trkpt>
      <trkpt lat="43.277200" lon="-4.251167">
        <ele>1029.0</ele>
        <time>2015-05-23T14:49:43Z</time>
      </trkpt>
      <trkpt lat="43.277233" lon="-4.251200">
        <ele>1031.0</ele>
        <time>2015-05-23T14:49:44Z</time>
      </trkpt>
      <trkpt lat="43.277267" lon="-4.251217">
        <ele>1033.0</ele>
        <time>2015-05-23T14:49:45Z</time>
      </trkpt>
      <trkpt lat="43.277300" lon="-4.251217">
        <ele>1035.0</ele>
        <time>2015-05-23T14:49:46Z</time>
      </trkpt>
      <trkpt lat="43.277350" lon="-4.251233">
        <ele>1038.0</ele>
        <time>2015-05-23T14:49:47Z</time>
      </trkpt>
      <trkpt lat="43.277383" lon="-4.251217">
        <ele>1041.0</ele>
        <time>2015-05-23T14:49:48Z</time>
      </trkpt>
      <trkpt lat="43.277400" lon="-4.251200">
        <ele>1045.0</ele>
        <time>2015-05-23T14:49:49Z</time>
      </trkpt>
      <trkpt lat="43.277417" lon="-4.251200">
        <ele>1048.0</ele>
        <time>2015-05-23T14:49:50Z</time>
      </trkpt>
      <trkpt lat="43.277433" lon="-4.251183">
        <ele>1046.0</ele>
        <time>2015-05-23T14:49:51Z</time>
      </trkpt>
      <trkpt lat="43.277450" lon="-4.251183">
        <ele>1047.0</ele>
        <time>2015-05-23T14:49:52Z</time>
      </trkpt>
      <trkpt lat="43.277500" lon="-4.251200">
        <ele>1047.0</ele>
        <time>2015-05-23T14:49:53Z</time>
      </trkpt>
      <trkpt lat="43.277533" lon="-4.251217">
        <ele>1049.0</ele>
        <time>2015-05-23T14:49:54Z</time>
      </trkpt>
      <trkpt lat="43.277583" lon="-4.251217">
        <ele>1053.0</ele>
        <time>2015-05-23T14:49:55Z</time>
      </trkpt>
      <trkpt lat="43.277617" lon="-4.251200">
        <ele>1056.0</ele>
        <time>2015-05-23T14:49:56Z</time>
      </trkpt>
      <trkpt lat="43.277650" lon="-4.251200">
        <ele>1060.0</ele>
        <time>2015-05-23T14:49:57Z</time>
      </trkpt>
      <trkpt lat="43.277667" lon="-4.251217">
        <ele>1063.0</ele>
        <time>2015-05-23T14:49:58Z</time>
      </trkpt>
      <trkpt lat="43.277667" lon="-4.251217">
        <ele>1066.0</ele>
        <time>2015-05-23T14:49:59Z</time>
      </trkpt>
      <trkpt lat="43.277683" lon="-4.251200">
        <ele>1068.0</ele>
        <time>2015-05-23T14:50:00Z</time>
      </trkpt>
      <trkpt lat="43.277700" lon="-4.251167">
        <ele>1069.0</ele>
        <time>2015-05-23T14:50:01Z</time>
      </trkpt>
      <trkpt lat="43.277733" lon="-4.251100">
        <ele>1070.0</ele>
        <time>2015-05-23T14:50:02Z</time>
      </trkpt>
      <trkpt lat="43.277750" lon="-4.251017">
        <ele>1071.0</ele>
        <time>2015-05-23T14:50:03Z</time>
      </trkpt>
      <trkpt lat="43.277783" lon="-4.250933">
        <ele>1073.0</ele>
        <time>2015-05-23T14:50:04Z</time>
      </trkpt>
      <trkpt lat="43.277800" lon="-4.250850">
        <ele>1074.0</ele>
        <time>2015-05-23T14:50:05Z</time>
      </trkpt>
      <trkpt lat="43.277800" lon="-4.250750">
        <ele>1076.0</ele>
        <time>2015-05-23T14:50:06Z</time>
      </trkpt>
      <trkpt lat="43.277800" lon="-4.250650">
        <ele>1078.0</ele>
        <time>2015-05-23T14:50:07Z</time>
      </trkpt>
      <trkpt lat="43.277783" lon="-4.250517">
        <ele>1080.0</ele>
        <time>2015-05-23T14:50:08Z</time>
      </trkpt>
      <trkpt lat="43.277750" lon="-4.250383">
        <ele>1082.0</ele>
        <time>2015-05-23T14:50:09Z</time>
      </trkpt>
      <trkpt lat="43.277700" lon="-4.250250">
        <ele>1083.0</ele>
        <time>2015-05-23T14:50:10Z</time>
      </trkpt>
      <trkpt lat="43.277617" lon="-4.250133">
        <ele>1084.0</ele>
        <time>2015-05-23T14:50:11Z</time>
      </trkpt>
      <trkpt lat="43.277517" lon="-4.250050">
        <ele>1084.0</ele>
        <time>2015-05-23T14:50:12Z</time>
      </trkpt>
      <trkpt lat="43.277400" lon="-4.249967">
        <ele>1082.0</ele>
        <time>2015-05-23T14:50:13Z</time>
      </trkpt>
      <trkpt lat="43.277267" lon="-4.249933">
        <ele>1081.0</ele>
        <time>2015-05-23T14:50:14Z</time>
      </trkpt>
      <trkpt lat="43.277150" lon="-4.249950">
        <ele>1081.0</ele>
        <time>2015-05-23T14:50:15Z</time>
      </trkpt>
      <trkpt lat="43.277067" lon="-4.249983">
        <ele>1081.0</ele>
        <time>2015-05-23T14:50:16Z</time>
      </trkpt>
      <trkpt lat="43.276983" lon="-4.250033">
        <ele>1081.0</ele>
        <time>2015-05-23T14:50:17Z</time>
      </trkpt>
      <trkpt lat="43.276917" lon="-4.250100">
        <ele>1081.0</ele>
        <time>2015-05-23T14:50:18Z</time>
      </trkpt>
      <trkpt lat="43.276867" lon="-4.250167">
        <ele>1081.0</ele>
        <time>2015-05-23T14:50:19Z</time>
      </trkpt>
      <trkpt lat="43.276833" lon="-4.250250">
        <ele>1084.0</ele>
        <time>2015-05-23T14:50:20Z</time>
      </trkpt>
      <trkpt lat="43.276817" lon="-4.250333">
        <ele>1086.0</ele>
        <time>2015-05-23T14:50:21Z</time>
      </trkpt>
      <trkpt lat="43.276833" lon="-4.250417">
        <ele>1088.0</ele>
        <time>2015-05-23T14:50:22Z</time>
      </trkpt>
      <trkpt lat="43.276850" lon="-4.250467">
        <ele>1091.0</ele>
        <time>2015-05-23T14:50:23Z</time>
      </trkpt>
      <trkpt lat="43.276867" lon="-4.250517">
        <ele>1093.0</ele>
        <time>2015-05-23T14:50:24Z</time>
      </trkpt>
      <trkpt lat="43.276883" lon="-4.250533">
        <ele>1096.0</ele>
        <time>2015-05-23T14:50:25Z</time>
      </trkpt>
      <trkpt lat="43.276917" lon="-4.250533">
        <ele>1098.0</ele>
        <time>2015-05-23T14:50:26Z</time>
      </trkpt>
      <trkpt lat="43.276950" lon="-4.250550">
        <ele>1102.0</ele>
        <time>2015-05-23T14:50:27Z</time>
      </trkpt>
      <trkpt lat="43.276967" lon="-4.250550">
        <ele>1107.0</ele>
        <time>2015-05-23T14:50:28Z</time>
      </trkpt>
      <trkpt lat="43.276983" lon="-4.250533">
        <ele>1110.0</ele>
        <time>2015-05-23T14:50:29Z</time>
      </trkpt>
      <trkpt lat="43.277017" lon="-4.250517">
        <ele>1113.0</ele>
        <time>2015-05-23T14:50:30Z</time>
      </trkpt>
      <trkpt lat="43.277033" lon="-4.250500">
        <ele>1115.0</ele>
        <time>2015-05-23T14:50:31Z</time>
      </trkpt>
      <trkpt lat="43.277067" lon="-4.250500">
        <ele>1117.0</ele>
        <time>2015-05-23T14:50:32Z</time>
      </trkpt>
      <trkpt lat="43.277083" lon="-4.250500">
        <ele>1118.0</ele>
        <time>2015-05-23T14:50:33Z</time>
      </trkpt>
      <trkpt lat="43.277117" lon="-4.250517">
        <ele>1119.0</ele>
        <time>2015-05-23T14:50:34Z</time>
      </trkpt>
      <trkpt lat="43.277150" lon="-4.250550">
        <ele>1120.0</ele>
        <time>2015-05-23T14:50:35Z</time>
      </trkpt>
      <trkpt lat="43.277167" lon="-4.250583">
        <ele>1121.0</ele>
        <time>2015-05-23T14:50:36Z</time>
      </trkpt>
      <trkpt lat="43.277183" lon="-4.250633">
        <ele>1122.0</ele>
        <time>2015-05-23T14:50:37Z</time>
      </trkpt>
      <trkpt lat="43.277200" lon="-4.250683">
        <ele>1122.0</ele>
        <time>2015-05-23T14:50:38Z</time>
      </trkpt>
      <trkpt lat="43.277200" lon="-4.250733">
        <ele>1122.0</ele>
        <time>2015-05-23T14:50:39Z</time>
      </trkpt>
      <trkpt lat="43.277200" lon="-4.250767">
        <ele>1122.0</ele>
        <time>2015-05-23T14:50:40Z</time>
      </trkpt>
      <trkpt lat="43.277200" lon="-4.250817">
        <ele>1123.0</ele>
        <time>2015-05-23T14:50:41Z</time>
      </trkpt>
      <trkpt lat="43.277183" lon="-4.250850">
        <ele>1123.0</ele>
        <time>2015-05-23T14:50:42Z</time>
      </trkpt>
      <trkpt lat="43.277183" lon="-4.250883">
        <ele>1123.0</ele>
        <time>2015-05-23T14:50:43Z</time>
      </trkpt>
      <trkpt lat="43.277183" lon="-4.250917">
        <ele>1122.0</ele>
        <time>2015-05-23T14:50:44Z</time>
      </trkpt>
      <trkpt lat="43.277200" lon="-4.250950">
        <ele>1121.0</ele>
        <time>2015-05-23T14:50:45Z</time>
      </trkpt>
      <trkpt lat="43.277217" lon="-4.250983">
        <ele>1121.0</ele>
        <time>2015-05-23T14:50:46Z</time>
      </trkpt>
      <trkpt lat="43.277233" lon="-4.251033">
        <ele>1120.0</ele>
        <time>2015-05-23T14:50:47Z</time>
      </trkpt>
      <trkpt lat="43.277250" lon="-4.251100">
        <ele>1120.0</ele>
        <time>2015-05-23T14:50:48Z</time>
      </trkpt>
      <trkpt lat="43.277250" lon="-4.251150">
        <ele>1120.0</ele>
        <time>2015-05-23T14:50:49Z</time>
      </trkpt>
      <trkpt lat="43.277267" lon="-4.251183">
        <ele>1121.0</ele>
        <time>2015-05-23T14:50:50Z</time>
      </trkpt>
      <trkpt lat="43.277250" lon="-4.251217">
        <ele>1121.0</ele>
        <time>2015-05-23T14:50:51Z</time>
      </trkpt>
      <trkpt lat="43.277250" lon="-4.251267">
        <ele>1120.0</ele>
        <time>2015-05-23T14:50:52Z</time>
      </trkpt>
      <trkpt lat="43.277267" lon="-4.251317">
        <ele>1119.0</ele>
        <time>2015-05-23T14:50:53Z</time>
      </trkpt>
      <trkpt lat="43.277267" lon="-4.251367">
        <ele>1120.0</ele>
        <time>2015-05-23T14:50:54Z</time>
      </trkpt>
      <trkpt lat="43.277250" lon="-4.251417">
        <ele>1120.0</ele>
        <time>2015-05-23T14:50:55Z</time>
      </trkpt>
      <trkpt lat="43.277250" lon="-4.251450">
        <ele>1121.0</ele>
        <time>2015-05-23T14:50:56Z</time>
      </trkpt>
      <trkpt lat="43.277233" lon="-4.251500">
        <ele>1120.0</ele>
        <time>2015-05-23T14:50:57Z</time>
      </trkpt>
      <trkpt lat="43.277217" lon="-4.251583">
        <ele>1120.0</ele>
        <time>2015-05-23T14:50:58Z</time>
      </trkpt>
      <trkpt lat="43.277233" lon="-4.251667">
        <ele>1119.0</ele>
        <time>2015-05-23T14:50:59Z</time>
      </trkpt>
      <trkpt lat="43.277233" lon="-4.251767">
        <ele>1118.0</ele>
        <time>2015-05-23T14:51:00Z</time>
      </trkpt>
      <trkpt lat="43.277233" lon="-4.251833">
        <ele>1119.0</ele>
        <time>2015-05-23T14:51:01Z</time>
      </trkpt>
      <trkpt lat="43.277217" lon="-4.251883">
        <ele>1119.0</ele>
        <time>2015-05-23T14:51:02Z</time>
      </trkpt>
      <trkpt lat="43.277217" lon="-4.251917">
        <ele>1118.0</ele>
        <time>2015-05-23T14:51:03Z</time>
      </trkpt>
      <trkpt lat="43.277217" lon="-4.251967">
        <ele>1115.0</ele>
        <time>2015-05-23T14:51:04Z</time>
      </trkpt>
      <trkpt lat="43.277217" lon="-4.252017">
        <ele>1113.0</ele>
        <time>2015-05-23T14:51:05Z</time>
      </trkpt>
      <trkpt lat="43.277217" lon="-4.252100">
        <ele>1111.0</ele>
        <time>2015-05-23T14:51:06Z</time>
      </trkpt>
      <trkpt lat="43.277233" lon="-4.252183">
        <ele>1109.0</ele>
        <time>2015-05-23T14:51:07Z</time>
      </trkpt>
      <trkpt lat="43.277233" lon="-4.252267">
        <ele>1107.0</ele>
        <time>2015-05-23T14:51:08Z</time>
      </trkpt>
      <trkpt lat="43.277250" lon="-4.252350">
        <ele>1105.0</ele>
        <time>2015-05-23T14:51:09Z</time>
      </trkpt>
      <trkpt lat="43.277250" lon="-4.252433">
        <ele>1103.0</ele>
        <time>2015-05-23T14:51:10Z</time>
      </trkpt>
      <trkpt lat="43.277250" lon="-4.252517">
        <ele>1101.0</ele>
        <time>2015-05-23T14:51:11Z</time>
      </trkpt>
      <trkpt lat="43.277250" lon="-4.252600">
        <ele>1100.0</ele>
        <time>2015-05-23T14:51:12Z</time>
      </trkpt>
      <trkpt lat="43.277267" lon="-4.252683">
        <ele>1100.0</ele>
        <time>2015-05-23T14:51:13Z</time>
      </trkpt>
      <trkpt lat="43.277267" lon="-4.252767">
        <ele>1100.0</ele>
        <time>2015-05-23T14:51:14Z</time>
      </trkpt>
      <trkpt lat="43.277267" lon="-4.252833">
        <ele>1101.0</ele>
        <time>2015-05-23T14:51:15Z</time>
      </trkpt>
      <trkpt lat="43.277283" lon="-4.252917">
        <ele>1100.0</ele>
        <time>2015-05-23T14:51:16Z</time>
      </trkpt>
      <trkpt lat="43.277283" lon="-4.252983">
        <ele>1099.0</ele>
        <time>2015-05-23T14:51:17Z</time>
      </trkpt>
      <trkpt lat="43.277300" lon="-4.253050">
        <ele>1099.0</ele>
        <time>2015-05-23T14:51:18Z</time>
      </trkpt>
      <trkpt lat="43.277300" lon="-4.253133">
        <ele>1099.0</ele>
        <time>2015-05-23T14:51:19Z</time>
      </trkpt>
      <trkpt lat="43.277317" lon="-4.253217">
        <ele>1099.0</ele>
        <time>2015-05-23T14:51:20Z</time>
      </trkpt>
      <trkpt lat="43.277333" lon="-4.253283">
        <ele>1098.0</ele>
        <time>2015-05-23T14:51:21Z</time>
      </trkpt>
      <trkpt lat="43.277333" lon="-4.253367">
        <ele>1096.0</ele>
        <time>2015-05-23T14:51:22Z</time>
      </trkpt>
      <trkpt lat="43.277350" lon="-4.253433">
        <ele>1094.0</ele>
        <time>2015-05-23T14:51:23Z</time>
      </trkpt>
      <trkpt lat="43.277367" lon="-4.253517">
        <ele>1093.0</ele>
        <time>2015-05-23T14:51:24Z</time>
      </trkpt>
      <trkpt lat="43.277383" lon="-4.253600">
        <ele>1092.0</ele>
        <time>2015-05-23T14:51:25Z</time>
      </trkpt>
      <trkpt lat="43.277383" lon="-4.253683">
        <ele>1090.0</ele>
        <time>2015-05-23T14:51:26Z</time>
      </trkpt>
      <trkpt lat="43.277400" lon="-4.253767">
        <ele>1090.0</ele>
        <time>2015-05-23T14:51:27Z</time>
      </trkpt>
      <trkpt lat="43.277400" lon="-4.253833">
        <ele>1090.0</ele>
        <time>2015-05-23T14:51:28Z</time>
      </trkpt>
      <trkpt lat="43.277417" lon="-4.253900">
        <ele>1089.0</ele>
        <time>2015-05-23T14:51:29Z</time>
      </trkpt>
      <trkpt lat="43.277417" lon="-4.253983">
        <ele>1090.0</ele>
        <time>2015-05-23T14:51:30Z</time>
      </trkpt>
      <trkpt lat="43.277417" lon="-4.254067">
        <ele>1090.0</ele>
        <time>2015-05-23T14:51:31Z</time>
      </trkpt>
      <trkpt lat="43.277417" lon="-4.254183">
        <ele>1092.0</ele>
        <time>2015-05-23T14:51:32Z</time>
      </trkpt>
      <trkpt lat="43.277433" lon="-4.254283">
        <ele>1092.0</ele>
        <time>2015-05-23T14:51:33Z</time>
      </trkpt>
      <trkpt lat="43.277433" lon="-4.254383">
        <ele>1093.0</ele>
        <time>2015-05-23T14:51:34Z</time>
      </trkpt>
      <trkpt lat="43.277433" lon="-4.254483">
        <ele>1093.0</ele>
        <time>2015-05-23T14:51:35Z</time>
      </trkpt>
      <trkpt lat="43.277433" lon="-4.254567">
        <ele>1093.0</ele>
        <time>2015-05-23T14:51:36Z</time>
      </trkpt>
      <trkpt lat="43.277450" lon="-4.254667">
        <ele>1093.0</ele>
        <time>2015-05-23T14:51:37Z</time>
      </trkpt>
      <trkpt lat="43.277467" lon="-4.254783">
        <ele>1091.0</ele>
        <time>2015-05-23T14:51:38Z</time>
      </trkpt>
      <trkpt lat="43.277483" lon="-4.254900">
        <ele>1090.0</ele>
        <time>2015-05-23T14:51:39Z</time>
      </trkpt>
      <trkpt lat="43.277500" lon="-4.255017">
        <ele>1089.0</ele>
        <time>2015-05-23T14:51:40Z</time>
      </trkpt>
      <trkpt lat="43.277500" lon="-4.255133">
        <ele>1089.0</ele>
        <time>2015-05-23T14:51:41Z</time>
      </trkpt>
      <trkpt lat="43.277517" lon="-4.255250">
        <ele>1090.0</ele>
        <time>2015-05-23T14:51:42Z</time>
      </trkpt>
      <trkpt lat="43.277533" lon="-4.255350">
        <ele>1089.0</ele>
        <time>2015-05-23T14:51:43Z</time>
      </trkpt>
      <trkpt lat="43.277550" lon="-4.255467">
        <ele>1088.0</ele>
        <time>2015-05-23T14:51:44Z</time>
      </trkpt>
      <trkpt lat="43.277567" lon="-4.255583">
        <ele>1086.0</ele>
        <time>2015-05-23T14:51:45Z</time>
      </trkpt>
      <trkpt lat="43.277583" lon="-4.255700">
        <ele>1085.0</ele>
        <time>2015-05-23T14:51:46Z</time>
      </trkpt>
      <trkpt lat="43.277600" lon="-4.255817">
        <ele>1084.0</ele>
        <time>2015-05-23T14:51:47Z</time>
      </trkpt>
      <trkpt lat="43.277633" lon="-4.255933">
        <ele>1083.0</ele>
        <time>2015-05-23T14:51:48Z</time>
      </trkpt>
      <trkpt lat="43.277650" lon="-4.256017">
        <ele>1082.0</ele>
        <time>2015-05-23T14:51:49Z</time>
      </trkpt>
      <trkpt lat="43.277667" lon="-4.256117">
        <ele>1080.0</ele>
        <time>2015-05-23T14:51:50Z</time>
      </trkpt>
      <trkpt lat="43.277683" lon="-4.256217">
        <ele>1078.0</ele>
        <time>2015-05-23T14:51:51Z</time>
      </trkpt>
      <trkpt lat="43.277700" lon="-4.256333">
        <ele>1075.0</ele>
        <time>2015-05-23T14:51:52Z</time>
      </trkpt>
      <trkpt lat="43.277717" lon="-4.256467">
        <ele>1074.0</ele>
        <time>2015-05-23T14:51:53Z</time>
      </trkpt>
      <trkpt lat="43.277733" lon="-4.256567">
        <ele>1072.0</ele>
        <time>2015-05-23T14:51:54Z</time>
      </trkpt>
      <trkpt lat="43.277733" lon="-4.256683">
        <ele>1071.0</ele>
        <time>2015-05-23T14:51:55Z</time>
      </trkpt>
      <trkpt lat="43.277750" lon="-4.256817">
        <ele>1073.0</ele>
        <time>2015-05-23T14:51:56Z</time>
      </trkpt>
      <trkpt lat="43.277750" lon="-4.256933">
        <ele>1072.0</ele>
        <time>2015-05-23T14:51:57Z</time>
      </trkpt>
      <trkpt lat="43.277750" lon="-4.257067">
        <ele>1071.0</ele>
        <time>2015-05-23T14:51:58Z</time>
      </trkpt>
      <trkpt lat="43.277750" lon="-4.257200">
        <ele>1069.0</ele>
        <time>2015-05-23T14:51:59Z</time>
      </trkpt>
      <trkpt lat="43.277750" lon="-4.257333">
        <ele>1068.0</ele>
        <time>2015-05-23T14:52:00Z</time>
      </trkpt>
      <trkpt lat="43.277767" lon="-4.257433">
        <ele>1067.0</ele>
        <time>2015-05-23T14:52:01Z</time>
      </trkpt>
      <trkpt lat="43.277783" lon="-4.257550">
        <ele>1065.0</ele>
        <time>2015-05-23T14:52:02Z</time>
      </trkpt>
      <trkpt lat="43.277783" lon="-4.257667">
        <ele>1064.0</ele>
        <time>2015-05-23T14:52:03Z</time>
      </trkpt>
      <trkpt lat="43.277783" lon="-4.257800">
        <ele>1062.0</ele>
        <time>2015-05-23T14:52:04Z</time>
      </trkpt>
      <trkpt lat="43.277800" lon="-4.257900">
        <ele>1060.0</ele>
        <time>2015-05-23T14:52:05Z</time>
      </trkpt>
      <trkpt lat="43.277817" lon="-4.258000">
        <ele>1060.0</ele>
        <time>2015-05-23T14:52:06Z</time>
      </trkpt>
      <trkpt lat="43.277850" lon="-4.258100">
        <ele>1060.0</ele>
        <time>2015-05-23T14:52:07Z</time>
      </trkpt>
      <trkpt lat="43.277867" lon="-4.258200">
        <ele>1060.0</ele>
        <time>2015-05-23T14:52:08Z</time>
      </trkpt>
      <trkpt lat="43.277867" lon="-4.258300">
        <ele>1058.0</ele>
        <time>2015-05-23T14:52:09Z</time>
      </trkpt>
      <trkpt lat="43.277883" lon="-4.258417">
        <ele>1057.0</ele>
        <time>2015-05-23T14:52:10Z</time>
      </trkpt>
      <trkpt lat="43.277900" lon="-4.258533">
        <ele>1057.0</ele>
        <time>2015-05-23T14:52:11Z</time>
      </trkpt>
      <trkpt lat="43.277917" lon="-4.258650">
        <ele>1056.0</ele>
        <time>2015-05-23T14:52:12Z</time>
      </trkpt>
      <trkpt lat="43.277933" lon="-4.258750">
        <ele>1055.0</ele>
        <time>2015-05-23T14:52:13Z</time>
      </trkpt>
      <trkpt lat="43.277933" lon="-4.258850">
        <ele>1054.0</ele>
        <time>2015-05-23T14:52:14Z</time>
      </trkpt>
      <trkpt lat="43.277950" lon="-4.258950">
        <ele>1053.0</ele>
        <time>2015-05-23T14:52:15Z</time>
      </trkpt>
      <trkpt lat="43.277967" lon="-4.259067">
        <ele>1052.0</ele>
        <time>2015-05-23T14:52:16Z</time>
      </trkpt>
      <trkpt lat="43.277983" lon="-4.259183">
        <ele>1050.0</ele>
        <time>2015-05-23T14:52:17Z</time>
      </trkpt>
      <trkpt lat="43.277983" lon="-4.259300">
        <ele>1049.0</ele>
        <time>2015-05-23T14:52:18Z</time>
      </trkpt>
      <trkpt lat="43.277983" lon="-4.259417">
        <ele>1048.0</ele>
        <time>2015-05-23T14:52:19Z</time>
      </trkpt>
      <trkpt lat="43.277983" lon="-4.259533">
        <ele>1047.0</ele>
        <time>2015-05-23T14:52:20Z</time>
      </trkpt>
      <trkpt lat="43.278000" lon="-4.259633">
        <ele>1046.0</ele>
        <time>2015-05-23T14:52:21Z</time>
      </trkpt>
      <trkpt lat="43.278000" lon="-4.259733">
        <ele>1045.0</ele>
        <time>2015-05-23T14:52:22Z</time>
      </trkpt>
      <trkpt lat="43.278000" lon="-4.259850">
        <ele>1043.0</ele>
        <time>2015-05-23T14:52:23Z</time>
      </trkpt>
      <trkpt lat="43.278017" lon="-4.259983">
        <ele>1041.0</ele>
        <time>2015-05-23T14:52:24Z</time>
      </trkpt>
      <trkpt lat="43.278017" lon="-4.260117">
        <ele>1040.0</ele>
        <time>2015-05-23T14:52:25Z</time>
      </trkpt>
      <trkpt lat="43.278017" lon="-4.260217">
        <ele>1043.0</ele>
        <time>2015-05-23T14:52:26Z</time>
      </trkpt>
      <trkpt lat="43.278017" lon="-4.260267">
        <ele>1044.0</ele>
        <time>2015-05-23T14:52:27Z</time>
      </trkpt>
      <trkpt lat="43.278017" lon="-4.260317">
        <ele>1045.0</ele>
        <time>2015-05-23T14:52:28Z</time>
      </trkpt>
      <trkpt lat="43.278033" lon="-4.260383">
        <ele>1046.0</ele>
        <time>2015-05-23T14:52:29Z</time>
      </trkpt>
      <trkpt lat="43.278033" lon="-4.260450">
        <ele>1046.0</ele>
        <time>2015-05-23T14:52:30Z</time>
      </trkpt>
      <trkpt lat="43.278050" lon="-4.260517">
        <ele>1047.0</ele>
        <time>2015-05-23T14:52:31Z</time>
      </trkpt>
      <trkpt lat="43.278050" lon="-4.260567">
        <ele>1048.0</ele>
        <time>2015-05-23T14:52:32Z</time>
      </trkpt>
      <trkpt lat="43.278067" lon="-4.260633">
        <ele>1049.0</ele>
        <time>2015-05-23T14:52:33Z</time>
      </trkpt>
      <trkpt lat="43.278083" lon="-4.260683">
        <ele>1050.0</ele>
        <time>2015-05-23T14:52:34Z</time>
      </trkpt>
      <trkpt lat="43.278100" lon="-4.260750">
        <ele>1051.0</ele>
        <time>2015-05-23T14:52:35Z</time>
      </trkpt>
      <trkpt lat="43.278117" lon="-4.260817">
        <ele>1052.0</ele>
        <time>2015-05-23T14:52:36Z</time>
      </trkpt>
      <trkpt lat="43.278117" lon="-4.260883">
        <ele>1052.0</ele>
        <time>2015-05-23T14:52:37Z</time>
      </trkpt>
      <trkpt lat="43.278117" lon="-4.260967">
        <ele>1053.0</ele>
        <time>2015-05-23T14:52:38Z</time>
      </trkpt>
      <trkpt lat="43.278100" lon="-4.261050">
        <ele>1053.0</ele>
        <time>2015-05-23T14:52:39Z</time>
      </trkpt>
      <trkpt lat="43.278100" lon="-4.261133">
        <ele>1054.0</ele>
        <time>2015-05-23T14:52:40Z</time>
      </trkpt>
      <trkpt lat="43.278100" lon="-4.261217">
        <ele>1054.0</ele>
        <time>2015-05-23T14:52:41Z</time>
      </trkpt>
      <trkpt lat="43.278100" lon="-4.261317">
        <ele>1054.0</ele>
        <time>2015-05-23T14:52:42Z</time>
      </trkpt>
      <trkpt lat="43.278117" lon="-4.261417">
        <ele>1054.0</ele>
        <time>2015-05-23T14:52:43Z</time>
      </trkpt>
      <trkpt lat="43.278133" lon="-4.261533">
        <ele>1054.0</ele>
        <time>2015-05-23T14:52:44Z</time>
      </trkpt>
      <trkpt lat="43.278133" lon="-4.261633">
        <ele>1053.0</ele>
        <time>2015-05-23T14:52:45Z</time>
      </trkpt>
      <trkpt lat="43.278150" lon="-4.261733">
        <ele>1054.0</ele>
        <time>2015-05-23T14:52:46Z</time>
      </trkpt>
      <trkpt lat="43.278150" lon="-4.261833">
        <ele>1053.0</ele>
        <time>2015-05-23T14:52:47Z</time>
      </trkpt>
      <trkpt lat="43.278150" lon="-4.261933">
        <ele>1052.0</ele>
        <time>2015-05-23T14:52:48Z</time>
      </trkpt>
      <trkpt lat="43.278150" lon="-4.262050">
        <ele>1050.0</ele>
        <time>2015-05-23T14:52:49Z</time>
      </trkpt>
      <trkpt lat="43.278150" lon="-4.262167">
        <ele>1048.0</ele>
        <time>2015-05-23T14:52:50Z</time>
      </trkpt>
      <trkpt lat="43.278150" lon="-4.262300">
        <ele>1049.0</ele>
        <time>2015-05-23T14:52:51Z</time>
      </trkpt>
      <trkpt lat="43.278150" lon="-4.262417">
        <ele>1049.0</ele>
        <time>2015-05-23T14:52:52Z</time>
      </trkpt>
      <trkpt lat="43.278167" lon="-4.262517">
        <ele>1049.0</ele>
        <time>2015-05-23T14:52:53Z</time>
      </trkpt>
      <trkpt lat="43.278167" lon="-4.262617">
        <ele>1049.0</ele>
        <time>2015-05-23T14:52:54Z</time>
      </trkpt>
      <trkpt lat="43.278167" lon="-4.262717">
        <ele>1049.0</ele>
        <time>2015-05-23T14:52:55Z</time>
      </trkpt>
      <trkpt lat="43.278167" lon="-4.262783">
        <ele>1049.0</ele>
        <time>2015-05-23T14:52:56Z</time>
      </trkpt>
      <trkpt lat="43.278183" lon="-4.262867">
        <ele>1050.0</ele>
        <time>2015-05-23T14:52:57Z</time>
      </trkpt>
      <trkpt lat="43.278200" lon="-4.262933">
        <ele>1050.0</ele>
        <time>2015-05-23T14:52:58Z</time>
      </trkpt>
      <trkpt lat="43.278233" lon="-4.263000">
        <ele>1050.0</ele>
        <time>2015-05-23T14:52:59Z</time>
      </trkpt>
      <trkpt lat="43.278267" lon="-4.263083">
        <ele>1051.0</ele>
        <time>2015-05-23T14:53:00Z</time>
      </trkpt>
      <trkpt lat="43.278317" lon="-4.263167">
        <ele>1051.0</ele>
        <time>2015-05-23T14:53:01Z</time>
      </trkpt>
      <trkpt lat="43.278350" lon="-4.263233">
        <ele>1052.0</ele>
        <time>2015-05-23T14:53:02Z</time>
      </trkpt>
      <trkpt lat="43.278383" lon="-4.263317">
        <ele>1053.0</ele>
        <time>2015-05-23T14:53:03Z</time>
      </trkpt>
      <trkpt lat="43.278400" lon="-4.263383">
        <ele>1053.0</ele>
        <time>2015-05-23T14:53:04Z</time>
      </trkpt>
      <trkpt lat="43.278417" lon="-4.263467">
        <ele>1053.0</ele>
        <time>2015-05-23T14:53:05Z</time>
      </trkpt>
      <trkpt lat="43.278450" lon="-4.263550">
        <ele>1054.0</ele>
        <time>2015-05-23T14:53:06Z</time>
      </trkpt>
      <trkpt lat="43.278467" lon="-4.263650">
        <ele>1053.0</ele>
        <time>2015-05-23T14:53:07Z</time>
      </trkpt>
      <trkpt lat="43.278483" lon="-4.263750">
        <ele>1054.0</ele>
        <time>2015-05-23T14:53:08Z</time>
      </trkpt>
      <trkpt lat="43.278500" lon="-4.263850">
        <ele>1054.0</ele>
        <time>2015-05-23T14:53:09Z</time>
      </trkpt>
      <trkpt lat="43.278500" lon="-4.263950">
        <ele>1054.0</ele>
        <time>2015-05-23T14:53:10Z</time>
      </trkpt>
      <trkpt lat="43.278517" lon="-4.264033">
        <ele>1054.0</ele>
        <time>2015-05-23T14:53:11Z</time>
      </trkpt>
      <trkpt lat="43.278533" lon="-4.264133">
        <ele>1055.0</ele>
        <time>2015-05-23T14:53:12Z</time>
      </trkpt>
      <trkpt lat="43.278550" lon="-4.264233">
        <ele>1056.0</ele>
        <time>2015-05-23T14:53:13Z</time>
      </trkpt>
      <trkpt lat="43.278550" lon="-4.264350">
        <ele>1056.0</ele>
        <time>2015-05-23T14:53:14Z</time>
      </trkpt>
      <trkpt lat="43.278567" lon="-4.264467">
        <ele>1056.0</ele>
        <time>2015-05-23T14:53:15Z</time>
      </trkpt>
      <trkpt lat="43.278567" lon="-4.264600">
        <ele>1056.0</ele>
        <time>2015-05-23T14:53:16Z</time>
      </trkpt>
      <trkpt lat="43.278567" lon="-4.264717">
        <ele>1057.0</ele>
        <time>2015-05-23T14:53:17Z</time>
      </trkpt>
      <trkpt lat="43.278567" lon="-4.264833">
        <ele>1057.0</ele>
        <time>2015-05-23T14:53:18Z</time>
      </trkpt>
      <trkpt lat="43.278567" lon="-4.264950">
        <ele>1058.0</ele>
        <time>2015-05-23T14:53:19Z</time>
      </trkpt>
      <trkpt lat="43.278567" lon="-4.265067">
        <ele>1058.0</ele>
        <time>2015-05-23T14:53:20Z</time>
      </trkpt>
      <trkpt lat="43.278567" lon="-4.265200">
        <ele>1058.0</ele>
        <time>2015-05-23T14:53:21Z</time>
      </trkpt>
      <trkpt lat="43.278567" lon="-4.265350">
        <ele>1058.0</ele>
        <time>2015-05-23T14:53:22Z</time>
      </trkpt>
      <trkpt lat="43.278550" lon="-4.265500">
        <ele>1057.0</ele>
        <time>2015-05-23T14:53:23Z</time>
      </trkpt>
      <trkpt lat="43.278550" lon="-4.265633">
        <ele>1057.0</ele>
        <time>2015-05-23T14:53:24Z</time>
      </trkpt>
      <trkpt lat="43.278533" lon="-4.265767">
        <ele>1057.0</ele>
        <time>2015-05-23T14:53:25Z</time>
      </trkpt>
      <trkpt lat="43.278517" lon="-4.265900">
        <ele>1057.0</ele>
        <time>2015-05-23T14:53:26Z</time>
      </trkpt>
      <trkpt lat="43.278483" lon="-4.266017">
        <ele>1056.0</ele>
        <time>2015-05-23T14:53:27Z</time>
      </trkpt>
      <trkpt lat="43.278467" lon="-4.266133">
        <ele>1056.0</ele>
        <time>2015-05-23T14:53:28Z</time>
      </trkpt>
      <trkpt lat="43.278450" lon="-4.266267">
        <ele>1055.0</ele>
        <time>2015-05-23T14:53:29Z</time>
      </trkpt>
      <trkpt lat="43.278417" lon="-4.266383">
        <ele>1055.0</ele>
        <time>2015-05-23T14:53:30Z</time>
      </trkpt>
      <trkpt lat="43.278350" lon="-4.266483">
        <ele>1056.0</ele>
        <time>2015-05-23T14:53:31Z</time>
      </trkpt>
      <trkpt lat="43.278317" lon="-4.266583">
        <ele>1056.0</ele>
        <time>2015-05-23T14:53:32Z</time>
      </trkpt>
      <trkpt lat="43.278283" lon="-4.266683">
        <ele>1056.0</ele>
        <time>2015-05-23T14:53:33Z</time>
      </trkpt>
      <trkpt lat="43.278267" lon="-4.266800">
        <ele>1057.0</ele>
        <time>2015-05-23T14:53:34Z</time>
      </trkpt>
      <trkpt lat="43.278250" lon="-4.266917">
        <ele>1056.0</ele>
        <time>2015-05-23T14:53:35Z</time>
      </trkpt>
      <trkpt lat="43.278250" lon="-4.267017">
        <ele>1056.0</ele>
        <time>2015-05-23T14:53:36Z</time>
      </trkpt>
      <trkpt lat="43.278250" lon="-4.267150">
        <ele>1056.0</ele>
        <time>2015-05-23T14:53:37Z</time>
      </trkpt>
      <trkpt lat="43.278250" lon="-4.267250">
        <ele>1055.0</ele>
        <time>2015-05-23T14:53:38Z</time>
      </trkpt>
      <trkpt lat="43.278250" lon="-4.267367">
        <ele>1055.0</ele>
        <time>2015-05-23T14:53:39Z</time>
      </trkpt>
      <trkpt lat="43.278267" lon="-4.267467">
        <ele>1055.0</ele>
        <time>2015-05-23T14:53:40Z</time>
      </trkpt>
      <trkpt lat="43.278283" lon="-4.267583">
        <ele>1055.0</ele>
        <time>2015-05-23T14:53:41Z</time>
      </trkpt>
      <trkpt lat="43.278283" lon="-4.267683">
        <ele>1054.0</ele>
        <time>2015-05-23T14:53:42Z</time>
      </trkpt>
      <trkpt lat="43.278283" lon="-4.267767">
        <ele>1054.0</ele>
        <time>2015-05-23T14:53:43Z</time>
      </trkpt>
      <trkpt lat="43.278283" lon="-4.267867">
        <ele>1054.0</ele>
        <time>2015-05-23T14:53:44Z</time>
      </trkpt>
      <trkpt lat="43.278283" lon="-4.267967">
        <ele>1054.0</ele>
        <time>2015-05-23T14:53:45Z</time>
      </trkpt>
      <trkpt lat="43.278267" lon="-4.268083">
        <ele>1054.0</ele>
        <time>2015-05-23T14:53:46Z</time>
      </trkpt>
      <trkpt lat="43.278267" lon="-4.268183">
        <ele>1053.0</ele>
        <time>2015-05-23T14:53:47Z</time>
      </trkpt>
      <trkpt lat="43.278283" lon="-4.268283">
        <ele>1053.0</ele>
        <time>2015-05-23T14:53:48Z</time>
      </trkpt>
      <trkpt lat="43.278283" lon="-4.268383">
        <ele>1053.0</ele>
        <time>2015-05-23T14:53:49Z</time>
      </trkpt>
      <trkpt lat="43.278283" lon="-4.268467">
        <ele>1053.0</ele>
        <time>2015-05-23T14:53:50Z</time>
      </trkpt>
      <trkpt lat="43.278300" lon="-4.268567">
        <ele>1053.0</ele>
        <time>2015-05-23T14:53:51Z</time>
      </trkpt>
      <trkpt lat="43.278283" lon="-4.268650">
        <ele>1052.0</ele>
        <time>2015-05-23T14:53:52Z</time>
      </trkpt>
      <trkpt lat="43.278283" lon="-4.268733">
        <ele>1052.0</ele>
        <time>2015-05-23T14:53:53Z</time>
      </trkpt>
      <trkpt lat="43.278283" lon="-4.268833">
        <ele>1052.0</ele>
        <time>2015-05-23T14:53:54Z</time>
      </trkpt>
      <trkpt lat="43.278283" lon="-4.268933">
        <ele>1051.0</ele>
        <time>2015-05-23T14:53:55Z</time>
      </trkpt>
      <trkpt lat="43.278267" lon="-4.269050">
        <ele>1051.0</ele>
        <time>2015-05-23T14:53:56Z</time>
      </trkpt>
      <trkpt lat="43.278267" lon="-4.269167">
        <ele>1051.0</ele>
        <time>2015-05-23T14:53:57Z</time>
      </trkpt>
      <trkpt lat="43.278233" lon="-4.269267">
        <ele>1051.0</ele>
        <time>2015-05-23T14:53:58Z</time>
      </trkpt>
      <trkpt lat="43.278217" lon="-4.269367">
        <ele>1050.0</ele>
        <time>2015-05-23T14:53:59Z</time>
      </trkpt>
      <trkpt lat="43.278200" lon="-4.269433">
        <ele>1050.0</ele>
        <time>2015-05-23T14:54:00Z</time>
      </trkpt>
      <trkpt lat="43.278150" lon="-4.269483">
        <ele>1050.0</ele>
        <time>2015-05-23T14:54:01Z</time>
      </trkpt>
      <trkpt lat="43.278117" lon="-4.269550">
        <ele>1049.0</ele>
        <time>2015-05-23T14:54:02Z</time>
      </trkpt>
      <trkpt lat="43.278083" lon="-4.269617">
        <ele>1049.0</ele>
        <time>2015-05-23T14:54:03Z</time>
      </trkpt>
      <trkpt lat="43.278050" lon="-4.269717">
        <ele>1049.0</ele>
        <time>2015-05-23T14:54:04Z</time>
      </trkpt>
      <trkpt lat="43.278017" lon="-4.269800">
        <ele>1048.0</ele>
        <time>2015-05-23T14:54:05Z</time>
      </trkpt>
      <trkpt lat="43.278017" lon="-4.269883">
        <ele>1048.0</ele>
        <time>2015-05-23T14:54:06Z</time>
      </trkpt>
      <trkpt lat="43.278000" lon="-4.269967">
        <ele>1047.0</ele>
        <time>2015-05-23T14:54:07Z</time>
      </trkpt>
      <trkpt lat="43.278000" lon="-4.270067">
        <ele>1047.0</ele>
        <time>2015-05-23T14:54:08Z</time>
      </trkpt>
      <trkpt lat="43.278017" lon="-4.270167">
        <ele>1046.0</ele>
        <time>2015-05-23T14:54:09Z</time>
      </trkpt>
      <trkpt lat="43.278033" lon="-4.270283">
        <ele>1046.0</ele>
        <time>2015-05-23T14:54:10Z</time>
      </trkpt>
      <trkpt lat="43.278050" lon="-4.270383">
        <ele>1046.0</ele>
        <time>2015-05-23T14:54:11Z</time>
      </trkpt>
      <trkpt lat="43.278050" lon="-4.270467">
        <ele>1045.0</ele>
        <time>2015-05-23T14:54:12Z</time>
      </trkpt>
      <trkpt lat="43.278067" lon="-4.270567">
        <ele>1045.0</ele>
        <time>2015-05-23T14:54:13Z</time>
      </trkpt>
      <trkpt lat="43.278067" lon="-4.270650">
        <ele>1044.0</ele>
        <time>2015-05-23T14:54:14Z</time>
      </trkpt>
      <trkpt lat="43.278067" lon="-4.270750">
        <ele>1044.0</ele>
        <time>2015-05-23T14:54:15Z</time>
      </trkpt>
      <trkpt lat="43.278067" lon="-4.270833">
        <ele>1043.0</ele>
        <time>2015-05-23T14:54:16Z</time>
      </trkpt>
      <trkpt lat="43.278083" lon="-4.270917">
        <ele>1043.0</ele>
        <time>2015-05-23T14:54:17Z</time>
      </trkpt>
      <trkpt lat="43.278100" lon="-4.271017">
        <ele>1043.0</ele>
        <time>2015-05-23T14:54:18Z</time>
      </trkpt>
      <trkpt lat="43.278100" lon="-4.271100">
        <ele>1042.0</ele>
        <time>2015-05-23T14:54:19Z</time>
      </trkpt>
      <trkpt lat="43.278117" lon="-4.271200">
        <ele>1042.0</ele>
        <time>2015-05-23T14:54:20Z</time>
      </trkpt>
      <trkpt lat="43.278133" lon="-4.271300">
        <ele>1041.0</ele>
        <time>2015-05-23T14:54:21Z</time>
      </trkpt>
      <trkpt lat="43.278133" lon="-4.271400">
        <ele>1041.0</ele>
        <time>2015-05-23T14:54:22Z</time>
      </trkpt>
      <trkpt lat="43.278150" lon="-4.271500">
        <ele>1040.0</ele>
        <time>2015-05-23T14:54:23Z</time>
      </trkpt>
      <trkpt lat="43.278133" lon="-4.271617">
        <ele>1040.0</ele>
        <time>2015-05-23T14:54:24Z</time>
      </trkpt>
      <trkpt lat="43.278150" lon="-4.271750">
        <ele>1040.0</ele>
        <time>2015-05-23T14:54:25Z</time>
      </trkpt>
      <trkpt lat="43.278150" lon="-4.271883">
        <ele>1039.0</ele>
        <time>2015-05-23T14:54:26Z</time>
      </trkpt>
      <trkpt lat="43.278167" lon="-4.272000">
        <ele>1039.0</ele>
        <time>2015-05-23T14:54:27Z</time>
      </trkpt>
      <trkpt lat="43.278167" lon="-4.272117">
        <ele>1038.0</ele>
        <time>2015-05-23T14:54:28Z</time>
      </trkpt>
      <trkpt lat="43.278167" lon="-4.272233">
        <ele>1038.0</ele>
        <time>2015-05-23T14:54:29Z</time>
      </trkpt>
      <trkpt lat="43.278167" lon="-4.272350">
        <ele>1037.0</ele>
        <time>2015-05-23T14:54:30Z</time>
      </trkpt>
      <trkpt lat="43.278150" lon="-4.272450">
        <ele>1037.0</ele>
        <time>2015-05-23T14:54:31Z</time>
      </trkpt>
      <trkpt lat="43.278150" lon="-4.272550">
        <ele>1037.0</ele>
        <time>2015-05-23T14:54:32Z</time>
      </trkpt>
      <trkpt lat="43.278150" lon="-4.272667">
        <ele>1037.0</ele>
        <time>2015-05-23T14:54:33Z</time>
      </trkpt>
      <trkpt lat="43.278150" lon="-4.272783">
        <ele>1036.0</ele>
        <time>2015-05-23T14:54:34Z</time>
      </trkpt>
      <trkpt lat="43.278133" lon="-4.272900">
        <ele>1036.0</ele>
        <time>2015-05-23T14:54:35Z</time>
      </trkpt>
      <trkpt lat="43.278133" lon="-4.273033">
        <ele>1035.0</ele>
        <time>2015-05-23T14:54:36Z</time>
      </trkpt>
      <trkpt lat="43.278133" lon="-4.273150">
        <ele>1035.0</ele>
        <time>2015-05-23T14:54:37Z</time>
      </trkpt>
      <trkpt lat="43.278117" lon="-4.273283">
        <ele>1034.0</ele>
        <time>2015-05-23T14:54:38Z</time>
      </trkpt>
      <trkpt lat="43.278117" lon="-4.273400">
        <ele>1034.0</ele>
        <time>2015-05-23T14:54:39Z</time>
      </trkpt>
      <trkpt lat="43.278100" lon="-4.273533">
        <ele>1033.0</ele>
        <time>2015-05-23T14:54:40Z</time>
      </trkpt>
      <trkpt lat="43.278083" lon="-4.273650">
        <ele>1032.0</ele>
        <time>2015-05-23T14:54:41Z</time>
      </trkpt>
      <trkpt lat="43.278067" lon="-4.273767">
        <ele>1031.0</ele>
        <time>2015-05-23T14:54:42Z</time>
      </trkpt>
      <trkpt lat="43.278050" lon="-4.273883">
        <ele>1030.0</ele>
        <time>2015-05-23T14:54:43Z</time>
      </trkpt>
      <trkpt lat="43.278033" lon="-4.274000">
        <ele>1030.0</ele>
        <time>2015-05-23T14:54:44Z</time>
      </trkpt>
      <trkpt lat="43.278033" lon="-4.274133">
        <ele>1030.0</ele>
        <time>2015-05-23T14:54:45Z</time>
      </trkpt>
      <trkpt lat="43.278033" lon="-4.274250">
        <ele>1030.0</ele>
        <time>2015-05-23T14:54:46Z</time>
      </trkpt>
      <trkpt lat="43.278017" lon="-4.274367">
        <ele>1029.0</ele>
        <time>2015-05-23T14:54:47Z</time>
      </trkpt>
      <trkpt lat="43.278017" lon="-4.274500">
        <ele>1029.0</ele>
        <time>2015-05-23T14:54:48Z</time>
      </trkpt>
      <trkpt lat="43.278017" lon="-4.274617">
        <ele>1028.0</ele>
        <time>2015-05-23T14:54:49Z</time>
      </trkpt>
      <trkpt lat="43.278000" lon="-4.274733">
        <ele>1027.0</ele>
        <time>2015-05-23T14:54:50Z</time>
      </trkpt>
      <trkpt lat="43.277967" lon="-4.274833">
        <ele>1026.0</ele>
        <time>2015-05-23T14:54:51Z</time>
      </trkpt>
      <trkpt lat="43.277950" lon="-4.274950">
        <ele>1025.0</ele>
        <time>2015-05-23T14:54:52Z</time>
      </trkpt>
      <trkpt lat="43.277933" lon="-4.275067">
        <ele>1024.0</ele>
        <time>2015-05-23T14:54:53Z</time>
      </trkpt>
      <trkpt lat="43.277933" lon="-4.275183">
        <ele>1024.0</ele>
        <time>2015-05-23T14:54:54Z</time>
      </trkpt>
      <trkpt lat="43.277917" lon="-4.275317">
        <ele>1023.0</ele>
        <time>2015-05-23T14:54:55Z</time>
      </trkpt>
      <trkpt lat="43.277917" lon="-4.275450">
        <ele>1022.0</ele>
        <time>2015-05-23T14:54:56Z</time>
      </trkpt>
      <trkpt lat="43.277900" lon="-4.275567">
        <ele>1021.0</ele>
        <time>2015-05-23T14:54:57Z</time>
      </trkpt>
      <trkpt lat="43.277883" lon="-4.275683">
        <ele>1020.0</ele>
        <time>2015-05-23T14:54:58Z</time>
      </trkpt>
      <trkpt lat="43.277867" lon="-4.275783">
        <ele>1019.0</ele>
        <time>2015-05-23T14:54:59Z</time>
      </trkpt>
      <trkpt lat="43.277850" lon="-4.275900">
        <ele>1018.0</ele>
        <time>2015-05-23T14:55:00Z</time>
      </trkpt>
      <trkpt lat="43.277833" lon="-4.276033">
        <ele>1017.0</ele>
        <time>2015-05-23T14:55:01Z</time>
      </trkpt>
      <trkpt lat="43.277817" lon="-4.276167">
        <ele>1016.0</ele>
        <time>2015-05-23T14:55:02Z</time>
      </trkpt>
      <trkpt lat="43.277800" lon="-4.276300">
        <ele>1014.0</ele>
        <time>2015-05-23T14:55:03Z</time>
      </trkpt>
      <trkpt lat="43.277783" lon="-4.276417">
        <ele>1012.0</ele>
        <time>2015-05-23T14:55:04Z</time>
      </trkpt>
      <trkpt lat="43.277767" lon="-4.276550">
        <ele>1011.0</ele>
        <time>2015-05-23T14:55:05Z</time>
      </trkpt>
      <trkpt lat="43.277767" lon="-4.276683">
        <ele>1011.0</ele>
        <time>2015-05-23T14:55:06Z</time>
      </trkpt>
      <trkpt lat="43.277750" lon="-4.276800">
        <ele>1011.0</ele>
        <time>2015-05-23T14:55:07Z</time>
      </trkpt>
      <trkpt lat="43.277717" lon="-4.276900">
        <ele>1010.0</ele>
        <time>2015-05-23T14:55:08Z</time>
      </trkpt>
      <trkpt lat="43.277683" lon="-4.277000">
        <ele>1009.0</ele>
        <time>2015-05-23T14:55:09Z</time>
      </trkpt>
      <trkpt lat="43.277667" lon="-4.277100">
        <ele>1008.0</ele>
        <time>2015-05-23T14:55:10Z</time>
      </trkpt>
      <trkpt lat="43.277650" lon="-4.277200">
        <ele>1007.0</ele>
        <time>2015-05-23T14:55:11Z</time>
      </trkpt>
      <trkpt lat="43.277633" lon="-4.277300">
        <ele>1006.0</ele>
        <time>2015-05-23T14:55:12Z</time>
      </trkpt>
      <trkpt lat="43.277617" lon="-4.277400">
        <ele>1004.0</ele>
        <time>2015-05-23T14:55:13Z</time>
      </trkpt>
      <trkpt lat="43.277600" lon="-4.277500">
        <ele>1004.0</ele>
        <time>2015-05-23T14:55:14Z</time>
      </trkpt>
      <trkpt lat="43.277583" lon="-4.277600">
        <ele>1003.0</ele>
        <time>2015-05-23T14:55:15Z</time>
      </trkpt>
      <trkpt lat="43.277550" lon="-4.277717">
        <ele>1002.0</ele>
        <time>2015-05-23T14:55:16Z</time>
      </trkpt>
      <trkpt lat="43.277517" lon="-4.277850">
        <ele>1001.0</ele>
        <time>2015-05-23T14:55:17Z</time>
      </trkpt>
      <trkpt lat="43.277500" lon="-4.277967">
        <ele>1001.0</ele>
        <time>2015-05-23T14:55:18Z</time>
      </trkpt>
      <trkpt lat="43.277467" lon="-4.278083">
        <ele>1000.0</ele>
        <time>2015-05-23T14:55:19Z</time>
      </trkpt>
      <trkpt lat="43.277433" lon="-4.278183">
        <ele>1000.0</ele>
        <time>2015-05-23T14:55:20Z</time>
      </trkpt>
      <trkpt lat="43.277400" lon="-4.278283">
        <ele>999.0</ele>
        <time>2015-05-23T14:55:21Z</time>
      </trkpt>
      <trkpt lat="43.277367" lon="-4.278383">
        <ele>999.0</ele>
        <time>2015-05-23T14:55:22Z</time>
      </trkpt>
      <trkpt lat="43.277333" lon="-4.278500">
        <ele>997.0</ele>
        <time>2015-05-23T14:55:23Z</time>
      </trkpt>
      <trkpt lat="43.277300" lon="-4.278617">
        <ele>996.0</ele>
        <time>2015-05-23T14:55:24Z</time>
      </trkpt>
      <trkpt lat="43.277267" lon="-4.278733">
        <ele>995.0</ele>
        <time>2015-05-23T14:55:25Z</time>
      </trkpt>
      <trkpt lat="43.277233" lon="-4.278850">
        <ele>994.0</ele>
        <time>2015-05-23T14:55:26Z</time>
      </trkpt>
      <trkpt lat="43.277200" lon="-4.278950">
        <ele>993.0</ele>
        <time>2015-05-23T14:55:27Z</time>
      </trkpt>
      <trkpt lat="43.277183" lon="-4.279067">
        <ele>993.0</ele>
        <time>2015-05-23T14:55:28Z</time>
      </trkpt>
      <trkpt lat="43.277150" lon="-4.279183">
        <ele>991.0</ele>
        <time>2015-05-23T14:55:29Z</time>
      </trkpt>
      <trkpt lat="43.277117" lon="-4.279317">
        <ele>989.0</ele>
        <time>2015-05-23T14:55:30Z</time>
      </trkpt>
      <trkpt lat="43.277083" lon="-4.279450">
        <ele>988.0</ele>
        <time>2015-05-23T14:55:31Z</time>
      </trkpt>
      <trkpt lat="43.277067" lon="-4.279567">
        <ele>986.0</ele>
        <time>2015-05-23T14:55:32Z</time>
      </trkpt>
      <trkpt lat="43.277033" lon="-4.279683">
        <ele>986.0</ele>
        <time>2015-05-23T14:55:33Z</time>
      </trkpt>
      <trkpt lat="43.277000" lon="-4.279783">
        <ele>986.0</ele>
        <time>2015-05-23T14:55:34Z</time>
      </trkpt>
      <trkpt lat="43.276983" lon="-4.279883">
        <ele>985.0</ele>
        <time>2015-05-23T14:55:35Z</time>
      </trkpt>
      <trkpt lat="43.276950" lon="-4.280000">
        <ele>984.0</ele>
        <time>2015-05-23T14:55:36Z</time>
      </trkpt>
      <trkpt lat="43.276917" lon="-4.280117">
        <ele>983.0</ele>
        <time>2015-05-23T14:55:37Z</time>
      </trkpt>
      <trkpt lat="43.276883" lon="-4.280233">
        <ele>983.0</ele>
        <time>2015-05-23T14:55:38Z</time>
      </trkpt>
      <trkpt lat="43.276867" lon="-4.280333">
        <ele>982.0</ele>
        <time>2015-05-23T14:55:39Z</time>
      </trkpt>
      <trkpt lat="43.276850" lon="-4.280450">
        <ele>982.0</ele>
        <time>2015-05-23T14:55:40Z</time>
      </trkpt>
      <trkpt lat="43.276850" lon="-4.280567">
        <ele>982.0</ele>
        <time>2015-05-23T14:55:41Z</time>
      </trkpt>
      <trkpt lat="43.276850" lon="-4.280683">
        <ele>981.0</ele>
        <time>2015-05-23T14:55:42Z</time>
      </trkpt>
      <trkpt lat="43.276850" lon="-4.280800">
        <ele>980.0</ele>
        <time>2015-05-23T14:55:43Z</time>
      </trkpt>
      <trkpt lat="43.276850" lon="-4.280900">
        <ele>980.0</ele>
        <time>2015-05-23T14:55:44Z</time>
      </trkpt>
      <trkpt lat="43.276850" lon="-4.280983">
        <ele>980.0</ele>
        <time>2015-05-23T14:55:45Z</time>
      </trkpt>
      <trkpt lat="43.276850" lon="-4.281067">
        <ele>980.0</ele>
        <time>2015-05-23T14:55:46Z</time>
      </trkpt>
      <trkpt lat="43.276850" lon="-4.281150">
        <ele>980.0</ele>
        <time>2015-05-23T14:55:47Z</time>
      </trkpt>
      <trkpt lat="43.276883" lon="-4.281250">
        <ele>979.0</ele>
        <time>2015-05-23T14:55:48Z</time>
      </trkpt>
      <trkpt lat="43.276883" lon="-4.281333">
        <ele>979.0</ele>
        <time>2015-05-23T14:55:49Z</time>
      </trkpt>
      <trkpt lat="43.276883" lon="-4.281417">
        <ele>979.0</ele>
        <time>2015-05-23T14:55:50Z</time>
      </trkpt>
      <trkpt lat="43.276883" lon="-4.281500">
        <ele>980.0</ele>
        <time>2015-05-23T14:55:51Z</time>
      </trkpt>
      <trkpt lat="43.276900" lon="-4.281567">
        <ele>980.0</ele>
        <time>2015-05-23T14:55:52Z</time>
      </trkpt>
      <trkpt lat="43.276900" lon="-4.281633">
        <ele>980.0</ele>
        <time>2015-05-23T14:55:53Z</time>
      </trkpt>
      <trkpt lat="43.276933" lon="-4.281717">
        <ele>979.0</ele>
        <time>2015-05-23T14:55:54Z</time>
      </trkpt>
      <trkpt lat="43.276950" lon="-4.281800">
        <ele>979.0</ele>
        <time>2015-05-23T14:55:55Z</time>
      </trkpt>
      <trkpt lat="43.276983" lon="-4.281900">
        <ele>980.0</ele>
        <time>2015-05-23T14:55:56Z</time>
      </trkpt>
      <trkpt lat="43.277000" lon="-4.281983">
        <ele>980.0</ele>
        <time>2015-05-23T14:55:57Z</time>
      </trkpt>
      <trkpt lat="43.277017" lon="-4.282067">
        <ele>980.0</ele>
        <time>2015-05-23T14:55:58Z</time>
      </trkpt>
      <trkpt lat="43.277017" lon="-4.282150">
        <ele>981.0</ele>
        <time>2015-05-23T14:55:59Z</time>
      </trkpt>
      <trkpt lat="43.277033" lon="-4.282250">
        <ele>981.0</ele>
        <time>2015-05-23T14:56:00Z</time>
      </trkpt>
      <trkpt lat="43.277033" lon="-4.282317">
        <ele>981.0</ele>
        <time>2015-05-23T14:56:01Z</time>
      </trkpt>
      <trkpt lat="43.277067" lon="-4.282400">
        <ele>981.0</ele>
        <time>2015-05-23T14:56:02Z</time>
      </trkpt>
      <trkpt lat="43.277050" lon="-4.282450">
        <ele>981.0</ele>
        <time>2015-05-23T14:56:03Z</time>
      </trkpt>
      <trkpt lat="43.277050" lon="-4.282517">
        <ele>981.0</ele>
        <time>2015-05-23T14:56:04Z</time>
      </trkpt>
      <trkpt lat="43.277050" lon="-4.282600">
        <ele>982.0</ele>
        <time>2015-05-23T14:56:05Z</time>
      </trkpt>
      <trkpt lat="43.277067" lon="-4.282667">
        <ele>982.0</ele>
        <time>2015-05-23T14:56:06Z</time>
      </trkpt>
      <trkpt lat="43.277083" lon="-4.282733">
        <ele>983.0</ele>
        <time>2015-05-23T14:56:07Z</time>
      </trkpt>
      <trkpt lat="43.277100" lon="-4.282800">
        <ele>984.0</ele>
        <time>2015-05-23T14:56:08Z</time>
      </trkpt>
      <trkpt lat="43.277100" lon="-4.282867">
        <ele>986.0</ele>
        <time>2015-05-23T14:56:09Z</time>
      </trkpt>
      <trkpt lat="43.277117" lon="-4.282933">
        <ele>988.0</ele>
        <time>2015-05-23T14:56:10Z</time>
      </trkpt>
      <trkpt lat="43.277117" lon="-4.282983">
        <ele>991.0</ele>
        <time>2015-05-23T14:56:11Z</time>
      </trkpt>
      <trkpt lat="43.277117" lon="-4.283033">
        <ele>995.0</ele>
        <time>2015-05-23T14:56:12Z</time>
      </trkpt>
      <trkpt lat="43.277133" lon="-4.283100">
        <ele>998.0</ele>
        <time>2015-05-23T14:56:13Z</time>
      </trkpt>
      <trkpt lat="43.277150" lon="-4.283150">
        <ele>1000.0</ele>
        <time>2015-05-23T14:56:14Z</time>
      </trkpt>
      <trkpt lat="43.277167" lon="-4.283200">
        <ele>1003.0</ele>
        <time>2015-05-23T14:56:15Z</time>
      </trkpt>
      <trkpt lat="43.277183" lon="-4.283233">
        <ele>1006.0</ele>
        <time>2015-05-23T14:56:16Z</time>
      </trkpt>
      <trkpt lat="43.277200" lon="-4.283283">
        <ele>1009.0</ele>
        <time>2015-05-23T14:56:17Z</time>
      </trkpt>
      <trkpt lat="43.277217" lon="-4.283333">
        <ele>1011.0</ele>
        <time>2015-05-23T14:56:18Z</time>
      </trkpt>
      <trkpt lat="43.277217" lon="-4.283417">
        <ele>1014.0</ele>
        <time>2015-05-23T14:56:19Z</time>
      </trkpt>
      <trkpt lat="43.277200" lon="-4.283500">
        <ele>1016.0</ele>
        <time>2015-05-23T14:56:20Z</time>
      </trkpt>
      <trkpt lat="43.277167" lon="-4.283600">
        <ele>1019.0</ele>
        <time>2015-05-23T14:56:21Z</time>
      </trkpt>
      <trkpt lat="43.277133" lon="-4.283683">
        <ele>1022.0</ele>
        <time>2015-05-23T14:56:22Z</time>
      </trkpt>
      <trkpt lat="43.277067" lon="-4.283767">
        <ele>1021.0</ele>
        <time>2015-05-23T14:56:23Z</time>
      </trkpt>
      <trkpt lat="43.276983" lon="-4.283817">
        <ele>1024.0</ele>
        <time>2015-05-23T14:56:24Z</time>
      </trkpt>
      <trkpt lat="43.276883" lon="-4.283867">
        <ele>1026.0</ele>
        <time>2015-05-23T14:56:25Z</time>
      </trkpt>
      <trkpt lat="43.276783" lon="-4.283883">
        <ele>1029.0</ele>
        <time>2015-05-23T14:56:26Z</time>
      </trkpt>
      <trkpt lat="43.276700" lon="-4.283867">
        <ele>1031.0</ele>
        <time>2015-05-23T14:56:27Z</time>
      </trkpt>
      <trkpt lat="43.276600" lon="-4.283850">
        <ele>1034.0</ele>
        <time>2015-05-23T14:56:28Z</time>
      </trkpt>
      <trkpt lat="43.276500" lon="-4.283800">
        <ele>1035.0</ele>
        <time>2015-05-23T14:56:29Z</time>
      </trkpt>
      <trkpt lat="43.276417" lon="-4.283733">
        <ele>1037.0</ele>
        <time>2015-05-23T14:56:30Z</time>
      </trkpt>
      <trkpt lat="43.276333" lon="-4.283633">
        <ele>1038.0</ele>
        <time>2015-05-23T14:56:31Z</time>
      </trkpt>
      <trkpt lat="43.276267" lon="-4.283533">
        <ele>1040.0</ele>
        <time>2015-05-23T14:56:32Z</time>
      </trkpt>
      <trkpt lat="43.276233" lon="-4.283417">
        <ele>1042.0</ele>
        <time>2015-05-23T14:56:33Z</time>
      </trkpt>
      <trkpt lat="43.276200" lon="-4.283317">
        <ele>1044.0</ele>
        <time>2015-05-23T14:56:34Z</time>
      </trkpt>
      <trkpt lat="43.276200" lon="-4.283217">
        <ele>1046.0</ele>
        <time>2015-05-23T14:56:35Z</time>
      </trkpt>
      <trkpt lat="43.276200" lon="-4.283133">
        <ele>1049.0</ele>
        <time>2015-05-23T14:56:36Z</time>
      </trkpt>
      <trkpt lat="43.276200" lon="-4.283050">
        <ele>1051.0</ele>
        <time>2015-05-23T14:56:37Z</time>
      </trkpt>
      <trkpt lat="43.276217" lon="-4.282983">
        <ele>1052.0</ele>
        <time>2015-05-23T14:56:38Z</time>
      </trkpt>
      <trkpt lat="43.276233" lon="-4.282900">
        <ele>1054.0</ele>
        <time>2015-05-23T14:56:39Z</time>
      </trkpt>
      <trkpt lat="43.276267" lon="-4.282817">
        <ele>1055.0</ele>
        <time>2015-05-23T14:56:40Z</time>
      </trkpt>
      <trkpt lat="43.276300" lon="-4.282750">
        <ele>1057.0</ele>
        <time>2015-05-23T14:56:41Z</time>
      </trkpt>
      <trkpt lat="43.276333" lon="-4.282700">
        <ele>1060.0</ele>
        <time>2015-05-23T14:56:42Z</time>
      </trkpt>
      <trkpt lat="43.276367" lon="-4.282667">
        <ele>1062.0</ele>
        <time>2015-05-23T14:56:43Z</time>
      </trkpt>
      <trkpt lat="43.276400" lon="-4.282633">
        <ele>1064.0</ele>
        <time>2015-05-23T14:56:44Z</time>
      </trkpt>
      <trkpt lat="43.276433" lon="-4.282617">
        <ele>1063.0</ele>
        <time>2015-05-23T14:56:45Z</time>
      </trkpt>
      <trkpt lat="43.276467" lon="-4.282600">
        <ele>1065.0</ele>
        <time>2015-05-23T14:56:46Z</time>
      </trkpt>
      <trkpt lat="43.276483" lon="-4.282583">
        <ele>1066.0</ele>
        <time>2015-05-23T14:56:47Z</time>
      </trkpt>
      <trkpt lat="43.276517" lon="-4.282567">
        <ele>1069.0</ele>
        <time>2015-05-23T14:56:48Z</time>
      </trkpt>
      <trkpt lat="43.276550" lon="-4.282533">
        <ele>1071.0</ele>
        <time>2015-05-23T14:56:49Z</time>
      </trkpt>
      <trkpt lat="43.276583" lon="-4.282533">
        <ele>1073.0</ele>
        <time>2015-05-23T14:56:50Z</time>
      </trkpt>
      <trkpt lat="43.276617" lon="-4.282533">
        <ele>1075.0</ele>
        <time>2015-05-23T14:56:51Z</time>
      </trkpt>
      <trkpt lat="43.276633" lon="-4.282533">
        <ele>1077.0</ele>
        <time>2015-05-23T14:56:52Z</time>
      </trkpt>
      <trkpt lat="43.276667" lon="-4.282550">
        <ele>1079.0</ele>
        <time>2015-05-23T14:56:53Z</time>
      </trkpt>
      <trkpt lat="43.276700" lon="-4.282550">
        <ele>1081.0</ele>
        <time>2015-05-23T14:56:54Z</time>
      </trkpt>
      <trkpt lat="43.276733" lon="-4.282550">
        <ele>1083.0</ele>
        <time>2015-05-23T14:56:55Z</time>
      </trkpt>
      <trkpt lat="43.276767" lon="-4.282550">
        <ele>1084.0</ele>
        <time>2015-05-23T14:56:56Z</time>
      </trkpt>
      <trkpt lat="43.276817" lon="-4.282567">
        <ele>1086.0</ele>
        <time>2015-05-23T14:56:57Z</time>
      </trkpt>
      <trkpt lat="43.276867" lon="-4.282583">
        <ele>1088.0</ele>
        <time>2015-05-23T14:56:58Z</time>
      </trkpt>
      <trkpt lat="43.276917" lon="-4.282600">
        <ele>1090.0</ele>
        <time>2015-05-23T14:56:59Z</time>
      </trkpt>
      <trkpt lat="43.276967" lon="-4.282617">
        <ele>1092.0</ele>
        <time>2015-05-23T14:57:00Z</time>
      </trkpt>
      <trkpt lat="43.277000" lon="-4.282633">
        <ele>1095.0</ele>
        <time>2015-05-23T14:57:01Z</time>
      </trkpt>
      <trkpt lat="43.277050" lon="-4.282650">
        <ele>1097.0</ele>
        <time>2015-05-23T14:57:02Z</time>
      </trkpt>
      <trkpt lat="43.277100" lon="-4.282667">
        <ele>1100.0</ele>
        <time>2015-05-23T14:57:03Z</time>
      </trkpt>
      <trkpt lat="43.277150" lon="-4.282700">
        <ele>1102.0</ele>
        <time>2015-05-23T14:57:04Z</time>
      </trkpt>
      <trkpt lat="43.277183" lon="-4.282717">
        <ele>1105.0</ele>
        <time>2015-05-23T14:57:05Z</time>
      </trkpt>
      <trkpt lat="43.277233" lon="-4.282750">
        <ele>1106.0</ele>
        <time>2015-05-23T14:57:06Z</time>
      </trkpt>
      <trkpt lat="43.277267" lon="-4.282767">
        <ele>1106.0</ele>
        <time>2015-05-23T14:57:07Z</time>
      </trkpt>
      <trkpt lat="43.277317" lon="-4.282800">
        <ele>1107.0</ele>
        <time>2015-05-23T14:57:08Z</time>
      </trkpt>
      <trkpt lat="43.277383" lon="-4.282850">
        <ele>1107.0</ele>
        <time>2015-05-23T14:57:09Z</time>
      </trkpt>
      <trkpt lat="43.277433" lon="-4.282900">
        <ele>1108.0</ele>
        <time>2015-05-23T14:57:10Z</time>
      </trkpt>
      <trkpt lat="43.277517" lon="-4.282950">
        <ele>1109.0</ele>
        <time>2015-05-23T14:57:11Z</time>
      </trkpt>
      <trkpt lat="43.277583" lon="-4.283000">
        <ele>1109.0</ele>
        <time>2015-05-23T14:57:12Z</time>
      </trkpt>
      <trkpt lat="43.277633" lon="-4.283033">
        <ele>1110.0</ele>
        <time>2015-05-23T14:57:13Z</time>
      </trkpt>
      <trkpt lat="43.277683" lon="-4.283083">
        <ele>1111.0</ele>
        <time>2015-05-23T14:57:14Z</time>
      </trkpt>
      <trkpt lat="43.277733" lon="-4.283133">
        <ele>1111.0</ele>
        <time>2015-05-23T14:57:15Z</time>
      </trkpt>
      <trkpt lat="43.277767" lon="-4.283200">
        <ele>1111.0</ele>
        <time>2015-05-23T14:57:16Z</time>
      </trkpt>
      <trkpt lat="43.277800" lon="-4.283267">
        <ele>1111.0</ele>
        <time>2015-05-23T14:57:17Z</time>
      </trkpt>
      <trkpt lat="43.277850" lon="-4.283333">
        <ele>1111.0</ele>
        <time>2015-05-23T14:57:18Z</time>
      </trkpt>
      <trkpt lat="43.277883" lon="-4.283400">
        <ele>1111.0</ele>
        <time>2015-05-23T14:57:19Z</time>
      </trkpt>
      <trkpt lat="43.277917" lon="-4.283483">
        <ele>1110.0</ele>
        <time>2015-05-23T14:57:20Z</time>
      </trkpt>
      <trkpt lat="43.277933" lon="-4.283583">
        <ele>1110.0</ele>
        <time>2015-05-23T14:57:21Z</time>
      </trkpt>
      <trkpt lat="43.277967" lon="-4.283683">
        <ele>1110.0</ele>
        <time>2015-05-23T14:57:22Z</time>
      </trkpt>
      <trkpt lat="43.277983" lon="-4.283800">
        <ele>1111.0</ele>
        <time>2015-05-23T14:57:23Z</time>
      </trkpt>
      <trkpt lat="43.278017" lon="-4.283900">
        <ele>1112.0</ele>
        <time>2015-05-23T14:57:24Z</time>
      </trkpt>
      <trkpt lat="43.278033" lon="-4.284017">
        <ele>1113.0</ele>
        <time>2015-05-23T14:57:25Z</time>
      </trkpt>
      <trkpt lat="43.278067" lon="-4.284133">
        <ele>1114.0</ele>
        <time>2015-05-23T14:57:26Z</time>
      </trkpt>
      <trkpt lat="43.278100" lon="-4.284233">
        <ele>1114.0</ele>
        <time>2015-05-23T14:57:27Z</time>
      </trkpt>
      <trkpt lat="43.278117" lon="-4.284350">
        <ele>1115.0</ele>
        <time>2015-05-23T14:57:28Z</time>
      </trkpt>
      <trkpt lat="43.278133" lon="-4.284467">
        <ele>1116.0</ele>
        <time>2015-05-23T14:57:29Z</time>
      </trkpt>
      <trkpt lat="43.278150" lon="-4.284567">
        <ele>1117.0</ele>
        <time>2015-05-23T14:57:30Z</time>
      </trkpt>
      <trkpt lat="43.278167" lon="-4.284700">
        <ele>1119.0</ele>
        <time>2015-05-23T14:57:31Z</time>
      </trkpt>
      <trkpt lat="43.278167" lon="-4.284817">
        <ele>1122.0</ele>
        <time>2015-05-23T14:57:32Z</time>
      </trkpt>
      <trkpt lat="43.278167" lon="-4.284933">
        <ele>1120.0</ele>
        <time>2015-05-23T14:57:33Z</time>
      </trkpt>
      <trkpt lat="43.278167" lon="-4.285050">
        <ele>1122.0</ele>
        <time>2015-05-23T14:57:34Z</time>
      </trkpt>
      <trkpt lat="43.278183" lon="-4.285167">
        <ele>1124.0</ele>
        <time>2015-05-23T14:57:35Z</time>
      </trkpt>
      <trkpt lat="43.278200" lon="-4.285267">
        <ele>1124.0</ele>
        <time>2015-05-23T14:57:36Z</time>
      </trkpt>
      <trkpt lat="43.278233" lon="-4.285383">
        <ele>1124.0</ele>
        <time>2015-05-23T14:57:37Z</time>
      </trkpt>
      <trkpt lat="43.278250" lon="-4.285500">
        <ele>1125.0</ele>
        <time>2015-05-23T14:57:38Z</time>
      </trkpt>
      <trkpt lat="43.278283" lon="-4.285600">
        <ele>1125.0</ele>
        <time>2015-05-23T14:57:39Z</time>
      </trkpt>
      <trkpt lat="43.278300" lon="-4.285717">
        <ele>1125.0</ele>
        <time>2015-05-23T14:57:40Z</time>
      </trkpt>
      <trkpt lat="43.278317" lon="-4.285817">
        <ele>1126.0</ele>
        <time>2015-05-23T14:57:41Z</time>
      </trkpt>
      <trkpt lat="43.278350" lon="-4.285917">
        <ele>1127.0</ele>
        <time>2015-05-23T14:57:42Z</time>
      </trkpt>
      <trkpt lat="43.278367" lon="-4.286017">
        <ele>1127.0</ele>
        <time>2015-05-23T14:57:43Z</time>
      </trkpt>
      <trkpt lat="43.278400" lon="-4.286117">
        <ele>1129.0</ele>
        <time>2015-05-23T14:57:44Z</time>
      </trkpt>
      <trkpt lat="43.278450" lon="-4.286200">
        <ele>1130.0</ele>
        <time>2015-05-23T14:57:45Z</time>
      </trkpt>
      <trkpt lat="43.278483" lon="-4.286283">
        <ele>1131.0</ele>
        <time>2015-05-23T14:57:46Z</time>
      </trkpt>
      <trkpt lat="43.278517" lon="-4.286367">
        <ele>1133.0</ele>
        <time>2015-05-23T14:57:47Z</time>
      </trkpt>
      <trkpt lat="43.278550" lon="-4.286467">
        <ele>1135.0</ele>
        <time>2015-05-23T14:57:48Z</time>
      </trkpt>
      <trkpt lat="43.278567" lon="-4.286567">
        <ele>1137.0</ele>
        <time>2015-05-23T14:57:49Z</time>
      </trkpt>
      <trkpt lat="43.278583" lon="-4.286667">
        <ele>1140.0</ele>
        <time>2015-05-23T14:57:50Z</time>
      </trkpt>
      <trkpt lat="43.278600" lon="-4.286767">
        <ele>1141.0</ele>
        <time>2015-05-23T14:57:51Z</time>
      </trkpt>
      <trkpt lat="43.278633" lon="-4.286850">
        <ele>1142.0</ele>
        <time>2015-05-23T14:57:52Z</time>
      </trkpt>
      <trkpt lat="43.278683" lon="-4.286917">
        <ele>1142.0</ele>
        <time>2015-05-23T14:57:53Z</time>
      </trkpt>
      <trkpt lat="43.278717" lon="-4.286983">
        <ele>1143.0</ele>
        <time>2015-05-23T14:57:54Z</time>
      </trkpt>
      <trkpt lat="43.278750" lon="-4.287033">
        <ele>1143.0</ele>
        <time>2015-05-23T14:57:55Z</time>
      </trkpt>
      <trkpt lat="43.278750" lon="-4.287083">
        <ele>1144.0</ele>
        <time>2015-05-23T14:57:56Z</time>
      </trkpt>
      <trkpt lat="43.278750" lon="-4.287133">
        <ele>1146.0</ele>
        <time>2015-05-23T14:57:57Z</time>
      </trkpt>
      <trkpt lat="43.278767" lon="-4.287183">
        <ele>1147.0</ele>
        <time>2015-05-23T14:57:58Z</time>
      </trkpt>
      <trkpt lat="43.278783" lon="-4.287217">
        <ele>1148.0</ele>
        <time>2015-05-23T14:57:59Z</time>
      </trkpt>
      <trkpt lat="43.278800" lon="-4.287283">
        <ele>1148.0</ele>
        <time>2015-05-23T14:58:00Z</time>
      </trkpt>
      <trkpt lat="43.278833" lon="-4.287350">
        <ele>1149.0</ele>
        <time>2015-05-23T14:58:01Z</time>
      </trkpt>
      <trkpt lat="43.278867" lon="-4.287383">
        <ele>1150.0</ele>
        <time>2015-05-23T14:58:02Z</time>
      </trkpt>
      <trkpt lat="43.278900" lon="-4.287433">
        <ele>1151.0</ele>
        <time>2015-05-23T14:58:03Z</time>
      </trkpt>
      <trkpt lat="43.278933" lon="-4.287467">
        <ele>1151.0</ele>
        <time>2015-05-23T14:58:04Z</time>
      </trkpt>
      <trkpt lat="43.278967" lon="-4.287467">
        <ele>1152.0</ele>
        <time>2015-05-23T14:58:05Z</time>
      </trkpt>
      <trkpt lat="43.279000" lon="-4.287483">
        <ele>1153.0</ele>
        <time>2015-05-23T14:58:06Z</time>
      </trkpt>
      <trkpt lat="43.279050" lon="-4.287500">
        <ele>1154.0</ele>
        <time>2015-05-23T14:58:07Z</time>
      </trkpt>
      <trkpt lat="43.279083" lon="-4.287533">
        <ele>1154.0</ele>
        <time>2015-05-23T14:58:08Z</time>
      </trkpt>
      <trkpt lat="43.279133" lon="-4.287567">
        <ele>1155.0</ele>
        <time>2015-05-23T14:58:09Z</time>
      </trkpt>
      <trkpt lat="43.279183" lon="-4.287617">
        <ele>1155.0</ele>
        <time>2015-05-23T14:58:10Z</time>
      </trkpt>
      <trkpt lat="43.279233" lon="-4.287650">
        <ele>1155.0</ele>
        <time>2015-05-23T14:58:11Z</time>
      </trkpt>
      <trkpt lat="43.279283" lon="-4.287700">
        <ele>1155.0</ele>
        <time>2015-05-23T14:58:12Z</time>
      </trkpt>
      <trkpt lat="43.279333" lon="-4.287733">
        <ele>1155.0</ele>
        <time>2015-05-23T14:58:13Z</time>
      </trkpt>
      <trkpt lat="43.279383" lon="-4.287783">
        <ele>1156.0</ele>
        <time>2015-05-23T14:58:14Z</time>
      </trkpt>
      <trkpt lat="43.279433" lon="-4.287833">
        <ele>1156.0</ele>
        <time>2015-05-23T14:58:15Z</time>
      </trkpt>
      <trkpt lat="43.279467" lon="-4.287900">
        <ele>1157.0</ele>
        <time>2015-05-23T14:58:16Z</time>
      </trkpt>
      <trkpt lat="43.279500" lon="-4.287950">
        <ele>1159.0</ele>
        <time>2015-05-23T14:58:17Z</time>
      </trkpt>
      <trkpt lat="43.279533" lon="-4.287983">
        <ele>1161.0</ele>
        <time>2015-05-23T14:58:18Z</time>
      </trkpt>
      <trkpt lat="43.279567" lon="-4.288000">
        <ele>1162.0</ele>
        <time>2015-05-23T14:58:19Z</time>
      </trkpt>
      <trkpt lat="43.279617" lon="-4.288033">
        <ele>1162.0</ele>
        <time>2015-05-23T14:58:20Z</time>
      </trkpt>
      <trkpt lat="43.279650" lon="-4.288067">
        <ele>1163.0</ele>
        <time>2015-05-23T14:58:21Z</time>
      </trkpt>
      <trkpt lat="43.279683" lon="-4.288117">
        <ele>1163.0</ele>
        <time>2015-05-23T14:58:22Z</time>
      </trkpt>
      <trkpt lat="43.279700" lon="-4.288167">
        <ele>1164.0</ele>
        <time>2015-05-23T14:58:23Z</time>
      </trkpt>
      <trkpt lat="43.279733" lon="-4.288200">
        <ele>1165.0</ele>
        <time>2015-05-23T14:58:24Z</time>
      </trkpt>
      <trkpt lat="43.279767" lon="-4.288233">
        <ele>1164.0</ele>
        <time>2015-05-23T14:58:25Z</time>
      </trkpt>
      <trkpt lat="43.279833" lon="-4.288233">
        <ele>1165.0</ele>
        <time>2015-05-23T14:58:26Z</time>
      </trkpt>
      <trkpt lat="43.279883" lon="-4.288233">
        <ele>1165.0</ele>
        <time>2015-05-23T14:58:27Z</time>
      </trkpt>
      <trkpt lat="43.279950" lon="-4.288233">
        <ele>1165.0</ele>
        <time>2015-05-23T14:58:28Z</time>
      </trkpt>
      <trkpt lat="43.280017" lon="-4.288233">
        <ele>1165.0</ele>
        <time>2015-05-23T14:58:29Z</time>
      </trkpt>
      <trkpt lat="43.280067" lon="-4.288267">
        <ele>1167.0</ele>
        <time>2015-05-23T14:58:30Z</time>
      </trkpt>
      <trkpt lat="43.280117" lon="-4.288300">
        <ele>1170.0</ele>
        <time>2015-05-23T14:58:31Z</time>
      </trkpt>
      <trkpt lat="43.280167" lon="-4.288350">
        <ele>1172.0</ele>
        <time>2015-05-23T14:58:32Z</time>
      </trkpt>
      <trkpt lat="43.280217" lon="-4.288417">
        <ele>1174.0</ele>
        <time>2015-05-23T14:58:33Z</time>
      </trkpt>
      <trkpt lat="43.280250" lon="-4.288450">
        <ele>1174.0</ele>
        <time>2015-05-23T14:58:34Z</time>
      </trkpt>
      <trkpt lat="43.280283" lon="-4.288500">
        <ele>1175.0</ele>
        <time>2015-05-23T14:58:35Z</time>
      </trkpt>
      <trkpt lat="43.280317" lon="-4.288550">
        <ele>1177.0</ele>
        <time>2015-05-23T14:58:36Z</time>
      </trkpt>
      <trkpt lat="43.280350" lon="-4.288600">
        <ele>1178.0</ele>
        <time>2015-05-23T14:58:37Z</time>
      </trkpt>
      <trkpt lat="43.280383" lon="-4.288683">
        <ele>1179.0</ele>
        <time>2015-05-23T14:58:38Z</time>
      </trkpt>
      <trkpt lat="43.280417" lon="-4.288750">
        <ele>1179.0</ele>
        <time>2015-05-23T14:58:39Z</time>
      </trkpt>
      <trkpt lat="43.280467" lon="-4.288833">
        <ele>1179.0</ele>
        <time>2015-05-23T14:58:40Z</time>
      </trkpt>
      <trkpt lat="43.280517" lon="-4.288933">
        <ele>1180.0</ele>
        <time>2015-05-23T14:58:41Z</time>
      </trkpt>
      <trkpt lat="43.280567" lon="-4.289017">
        <ele>1182.0</ele>
        <time>2015-05-23T14:58:42Z</time>
      </trkpt>
      <trkpt lat="43.280617" lon="-4.289117">
        <ele>1185.0</ele>
        <time>2015-05-23T14:58:43Z</time>
      </trkpt>
      <trkpt lat="43.280650" lon="-4.289200">
        <ele>1187.0</ele>
        <time>2015-05-23T14:58:44Z</time>
      </trkpt>
      <trkpt lat="43.280700" lon="-4.289300">
        <ele>1188.0</ele>
        <time>2015-05-23T14:58:45Z</time>
      </trkpt>
      <trkpt lat="43.280733" lon="-4.289383">
        <ele>1190.0</ele>
        <time>2015-05-23T14:58:46Z</time>
      </trkpt>
      <trkpt lat="43.280783" lon="-4.289467">
        <ele>1192.0</ele>
        <time>2015-05-23T14:58:47Z</time>
      </trkpt>
      <trkpt lat="43.280833" lon="-4.289533">
        <ele>1193.0</ele>
        <time>2015-05-23T14:58:48Z</time>
      </trkpt>
      <trkpt lat="43.280883" lon="-4.289617">
        <ele>1193.0</ele>
        <time>2015-05-23T14:58:49Z</time>
      </trkpt>
      <trkpt lat="43.280917" lon="-4.289700">
        <ele>1194.0</ele>
        <time>2015-05-23T14:58:50Z</time>
      </trkpt>
      <trkpt lat="43.280933" lon="-4.289783">
        <ele>1195.0</ele>
        <time>2015-05-23T14:58:51Z</time>
      </trkpt>
      <trkpt lat="43.280967" lon="-4.289850">
        <ele>1196.0</ele>
        <time>2015-05-23T14:58:52Z</time>
      </trkpt>
      <trkpt lat="43.281000" lon="-4.289933">
        <ele>1196.0</ele>
        <time>2015-05-23T14:58:53Z</time>
      </trkpt>
      <trkpt lat="43.281050" lon="-4.290000">
        <ele>1196.0</ele>
        <time>2015-05-23T14:58:54Z</time>
      </trkpt>
      <trkpt lat="43.281100" lon="-4.290100">
        <ele>1196.0</ele>
        <time>2015-05-23T14:58:55Z</time>
      </trkpt>
      <trkpt lat="43.281133" lon="-4.290183">
        <ele>1197.0</ele>
        <time>2015-05-23T14:58:56Z</time>
      </trkpt>
      <trkpt lat="43.281150" lon="-4.290250">
        <ele>1198.0</ele>
        <time>2015-05-23T14:58:57Z</time>
      </trkpt>
      <trkpt lat="43.281183" lon="-4.290317">
        <ele>1199.0</ele>
        <time>2015-05-23T14:58:58Z</time>
      </trkpt>
      <trkpt lat="43.281200" lon="-4.290367">
        <ele>1199.0</ele>
        <time>2015-05-23T14:58:59Z</time>
      </trkpt>
      <trkpt lat="43.281233" lon="-4.290433">
        <ele>1198.0</ele>
        <time>2015-05-23T14:59:00Z</time>
      </trkpt>
      <trkpt lat="43.281267" lon="-4.290500">
        <ele>1197.0</ele>
        <time>2015-05-23T14:59:01Z</time>
      </trkpt>
      <trkpt lat="43.281300" lon="-4.290583">
        <ele>1196.0</ele>
        <time>2015-05-23T14:59:02Z</time>
      </trkpt>
      <trkpt lat="43.281350" lon="-4.290650">
        <ele>1196.0</ele>
        <time>2015-05-23T14:59:03Z</time>
      </trkpt>
      <trkpt lat="43.281400" lon="-4.290700">
        <ele>1195.0</ele>
        <time>2015-05-23T14:59:04Z</time>
      </trkpt>
      <trkpt lat="43.281450" lon="-4.290767">
        <ele>1195.0</ele>
        <time>2015-05-23T14:59:05Z</time>
      </trkpt>
      <trkpt lat="43.281483" lon="-4.290833">
        <ele>1195.0</ele>
        <time>2015-05-23T14:59:06Z</time>
      </trkpt>
      <trkpt lat="43.281517" lon="-4.290917">
        <ele>1194.0</ele>
        <time>2015-05-23T14:59:07Z</time>
      </trkpt>
      <trkpt lat="43.281567" lon="-4.290983">
        <ele>1194.0</ele>
        <time>2015-05-23T14:59:08Z</time>
      </trkpt>
      <trkpt lat="43.281600" lon="-4.291050">
        <ele>1193.0</ele>
        <time>2015-05-23T14:59:09Z</time>
      </trkpt>
      <trkpt lat="43.281617" lon="-4.291117">
        <ele>1193.0</ele>
        <time>2015-05-23T14:59:10Z</time>
      </trkpt>
      <trkpt lat="43.281650" lon="-4.291150">
        <ele>1192.0</ele>
        <time>2015-05-23T14:59:11Z</time>
      </trkpt>
      <trkpt lat="43.281700" lon="-4.291183">
        <ele>1190.0</ele>
        <time>2015-05-23T14:59:12Z</time>
      </trkpt>
      <trkpt lat="43.281750" lon="-4.291200">
        <ele>1187.0</ele>
        <time>2015-05-23T14:59:13Z</time>
      </trkpt>
      <trkpt lat="43.281800" lon="-4.291217">
        <ele>1186.0</ele>
        <time>2015-05-23T14:59:14Z</time>
      </trkpt>
      <trkpt lat="43.281850" lon="-4.291250">
        <ele>1184.0</ele>
        <time>2015-05-23T14:59:15Z</time>
      </trkpt>
      <trkpt lat="43.281883" lon="-4.291317">
        <ele>1182.0</ele>
        <time>2015-05-23T14:59:16Z</time>
      </trkpt>
      <trkpt lat="43.281900" lon="-4.291417">
        <ele>1180.0</ele>
        <time>2015-05-23T14:59:17Z</time>
      </trkpt>
      <trkpt lat="43.281917" lon="-4.291517">
        <ele>1177.0</ele>
        <time>2015-05-23T14:59:18Z</time>
      </trkpt>
      <trkpt lat="43.281950" lon="-4.291633">
        <ele>1175.0</ele>
        <time>2015-05-23T14:59:19Z</time>
      </trkpt>
      <trkpt lat="43.281983" lon="-4.291750">
        <ele>1173.0</ele>
        <time>2015-05-23T14:59:20Z</time>
      </trkpt>
      <trkpt lat="43.282017" lon="-4.291883">
        <ele>1174.0</ele>
        <time>2015-05-23T14:59:21Z</time>
      </trkpt>
      <trkpt lat="43.282050" lon="-4.292000">
        <ele>1172.0</ele>
        <time>2015-05-23T14:59:22Z</time>
      </trkpt>
      <trkpt lat="43.282067" lon="-4.292133">
        <ele>1171.0</ele>
        <time>2015-05-23T14:59:23Z</time>
      </trkpt>
      <trkpt lat="43.282067" lon="-4.292250">
        <ele>1170.0</ele>
        <time>2015-05-23T14:59:24Z</time>
      </trkpt>
      <trkpt lat="43.282083" lon="-4.292367">
        <ele>1169.0</ele>
        <time>2015-05-23T14:59:25Z</time>
      </trkpt>
      <trkpt lat="43.282067" lon="-4.292500">
        <ele>1168.0</ele>
        <time>2015-05-23T14:59:26Z</time>
      </trkpt>
      <trkpt lat="43.282083" lon="-4.292617">
        <ele>1166.0</ele>
        <time>2015-05-23T14:59:27Z</time>
      </trkpt>
      <trkpt lat="43.282100" lon="-4.292750">
        <ele>1164.0</ele>
        <time>2015-05-23T14:59:28Z</time>
      </trkpt>
      <trkpt lat="43.282100" lon="-4.292867">
        <ele>1162.0</ele>
        <time>2015-05-23T14:59:29Z</time>
      </trkpt>
      <trkpt lat="43.282117" lon="-4.292983">
        <ele>1164.0</ele>
        <time>2015-05-23T14:59:30Z</time>
      </trkpt>
      <trkpt lat="43.282117" lon="-4.293100">
        <ele>1164.0</ele>
        <time>2015-05-23T14:59:31Z</time>
      </trkpt>
      <trkpt lat="43.282150" lon="-4.293200">
        <ele>1163.0</ele>
        <time>2015-05-23T14:59:32Z</time>
      </trkpt>
      <trkpt lat="43.282167" lon="-4.293317">
        <ele>1163.0</ele>
        <time>2015-05-23T14:59:33Z</time>
      </trkpt>
      <trkpt lat="43.282217" lon="-4.293433">
        <ele>1163.0</ele>
        <time>2015-05-23T14:59:34Z</time>
      </trkpt>
      <trkpt lat="43.282233" lon="-4.293550">
        <ele>1163.0</ele>
        <time>2015-05-23T14:59:35Z</time>
      </trkpt>
      <trkpt lat="43.282250" lon="-4.293667">
        <ele>1162.0</ele>
        <time>2015-05-23T14:59:36Z</time>
      </trkpt>
      <trkpt lat="43.282283" lon="-4.293767">
        <ele>1162.0</ele>
        <time>2015-05-23T14:59:37Z</time>
      </trkpt>
      <trkpt lat="43.282317" lon="-4.293850">
        <ele>1161.0</ele>
        <time>2015-05-23T14:59:38Z</time>
      </trkpt>
      <trkpt lat="43.282333" lon="-4.293950">
        <ele>1160.0</ele>
        <time>2015-05-23T14:59:39Z</time>
      </trkpt>
      <trkpt lat="43.282350" lon="-4.294067">
        <ele>1160.0</ele>
        <time>2015-05-23T14:59:40Z</time>
      </trkpt>
      <trkpt lat="43.282350" lon="-4.294200">
        <ele>1160.0</ele>
        <time>2015-05-23T14:59:41Z</time>
      </trkpt>
      <trkpt lat="43.282350" lon="-4.294333">
        <ele>1159.0</ele>
        <time>2015-05-23T14:59:42Z</time>
      </trkpt>
      <trkpt lat="43.282333" lon="-4.294467">
        <ele>1159.0</ele>
        <time>2015-05-23T14:59:43Z</time>
      </trkpt>
      <trkpt lat="43.282333" lon="-4.294583">
        <ele>1158.0</ele>
        <time>2015-05-23T14:59:44Z</time>
      </trkpt>
      <trkpt lat="43.282317" lon="-4.294700">
        <ele>1157.0</ele>
        <time>2015-05-23T14:59:45Z</time>
      </trkpt>
      <trkpt lat="43.282300" lon="-4.294833">
        <ele>1155.0</ele>
        <time>2015-05-23T14:59:46Z</time>
      </trkpt>
      <trkpt lat="43.282283" lon="-4.294967">
        <ele>1153.0</ele>
        <time>2015-05-23T14:59:47Z</time>
      </trkpt>
      <trkpt lat="43.282267" lon="-4.295100">
        <ele>1151.0</ele>
        <time>2015-05-23T14:59:48Z</time>
      </trkpt>
      <trkpt lat="43.282267" lon="-4.295217">
        <ele>1150.0</ele>
        <time>2015-05-23T14:59:49Z</time>
      </trkpt>
      <trkpt lat="43.282267" lon="-4.295350">
        <ele>1148.0</ele>
        <time>2015-05-23T14:59:50Z</time>
      </trkpt>
      <trkpt lat="43.282267" lon="-4.295450">
        <ele>1148.0</ele>
        <time>2015-05-23T14:59:51Z</time>
      </trkpt>
      <trkpt lat="43.282250" lon="-4.295567">
        <ele>1147.0</ele>
        <time>2015-05-23T14:59:52Z</time>
      </trkpt>
      <trkpt lat="43.282233" lon="-4.295700">
        <ele>1145.0</ele>
        <time>2015-05-23T14:59:53Z</time>
      </trkpt>
      <trkpt lat="43.282217" lon="-4.295833">
        <ele>1144.0</ele>
        <time>2015-05-23T14:59:54Z</time>
      </trkpt>
      <trkpt lat="43.282200" lon="-4.295950">
        <ele>1143.0</ele>
        <time>2015-05-23T14:59:55Z</time>
      </trkpt>
      <trkpt lat="43.282217" lon="-4.296067">
        <ele>1144.0</ele>
        <time>2015-05-23T14:59:56Z</time>
      </trkpt>
      <trkpt lat="43.282217" lon="-4.296167">
        <ele>1143.0</ele>
        <time>2015-05-23T14:59:57Z</time>
      </trkpt>
      <trkpt lat="43.282233" lon="-4.296283">
        <ele>1142.0</ele>
        <time>2015-05-23T14:59:58Z</time>
      </trkpt>
      <trkpt lat="43.282233" lon="-4.296417">
        <ele>1141.0</ele>
        <time>2015-05-23T14:59:59Z</time>
      </trkpt>
      <trkpt lat="43.282233" lon="-4.296550">
        <ele>1140.0</ele>
        <time>2015-05-23T15:00:00Z</time>
      </trkpt>
      <trkpt lat="43.282233" lon="-4.296683">
        <ele>1139.0</ele>
        <time>2015-05-23T15:00:01Z</time>
      </trkpt>
      <trkpt lat="43.282267" lon="-4.296800">
        <ele>1138.0</ele>
        <time>2015-05-23T15:00:02Z</time>
      </trkpt>
      <trkpt lat="43.282283" lon="-4.296917">
        <ele>1137.0</ele>
        <time>2015-05-23T15:00:03Z</time>
      </trkpt>
      <trkpt lat="43.282283" lon="-4.297017">
        <ele>1136.0</ele>
        <time>2015-05-23T15:00:04Z</time>
      </trkpt>
      <trkpt lat="43.282283" lon="-4.297150">
        <ele>1135.0</ele>
        <time>2015-05-23T15:00:05Z</time>
      </trkpt>
      <trkpt lat="43.282317" lon="-4.297267">
        <ele>1134.0</ele>
        <time>2015-05-23T15:00:06Z</time>
      </trkpt>
      <trkpt lat="43.282317" lon="-4.297400">
        <ele>1133.0</ele>
        <time>2015-05-23T15:00:07Z</time>
      </trkpt>
      <trkpt lat="43.282333" lon="-4.297533">
        <ele>1131.0</ele>
        <time>2015-05-23T15:00:08Z</time>
      </trkpt>
      <trkpt lat="43.282333" lon="-4.297667">
        <ele>1130.0</ele>
        <time>2015-05-23T15:00:09Z</time>
      </trkpt>
      <trkpt lat="43.282350" lon="-4.297800">
        <ele>1129.0</ele>
        <time>2015-05-23T15:00:10Z</time>
      </trkpt>
      <trkpt lat="43.282350" lon="-4.297933">
        <ele>1127.0</ele>
        <time>2015-05-23T15:00:11Z</time>
      </trkpt>
      <trkpt lat="43.282367" lon="-4.298050">
        <ele>1126.0</ele>
        <time>2015-05-23T15:00:12Z</time>
      </trkpt>
      <trkpt lat="43.282367" lon="-4.298183">
        <ele>1124.0</ele>
        <time>2015-05-23T15:00:13Z</time>
      </trkpt>
      <trkpt lat="43.282367" lon="-4.298317">
        <ele>1122.0</ele>
        <time>2015-05-23T15:00:14Z</time>
      </trkpt>
      <trkpt lat="43.282367" lon="-4.298467">
        <ele>1121.0</ele>
        <time>2015-05-23T15:00:15Z</time>
      </trkpt>
      <trkpt lat="43.282350" lon="-4.298600">
        <ele>1119.0</ele>
        <time>2015-05-23T15:00:16Z</time>
      </trkpt>
      <trkpt lat="43.282350" lon="-4.298733">
        <ele>1117.0</ele>
        <time>2015-05-23T15:00:17Z</time>
      </trkpt>
      <trkpt lat="43.282333" lon="-4.298867">
        <ele>1116.0</ele>
        <time>2015-05-23T15:00:18Z</time>
      </trkpt>
      <trkpt lat="43.282317" lon="-4.299000">
        <ele>1113.0</ele>
        <time>2015-05-23T15:00:19Z</time>
      </trkpt>
      <trkpt lat="43.282300" lon="-4.299133">
        <ele>1111.0</ele>
        <time>2015-05-23T15:00:20Z</time>
      </trkpt>
      <trkpt lat="43.282283" lon="-4.299283">
        <ele>1108.0</ele>
        <time>2015-05-23T15:00:21Z</time>
      </trkpt>
      <trkpt lat="43.282267" lon="-4.299417">
        <ele>1106.0</ele>
        <time>2015-05-23T15:00:22Z</time>
      </trkpt>
      <trkpt lat="43.282233" lon="-4.299567">
        <ele>1104.0</ele>
        <time>2015-05-23T15:00:23Z</time>
      </trkpt>
      <trkpt lat="43.282200" lon="-4.299717">
        <ele>1103.0</ele>
        <time>2015-05-23T15:00:24Z</time>
      </trkpt>
      <trkpt lat="43.282167" lon="-4.299850">
        <ele>1101.0</ele>
        <time>2015-05-23T15:00:25Z</time>
      </trkpt>
      <trkpt lat="43.282133" lon="-4.300000">
        <ele>1100.0</ele>
        <time>2015-05-23T15:00:26Z</time>
      </trkpt>
      <trkpt lat="43.282100" lon="-4.300150">
        <ele>1098.0</ele>
        <time>2015-05-23T15:00:27Z</time>
      </trkpt>
      <trkpt lat="43.282083" lon="-4.300300">
        <ele>1098.0</ele>
        <time>2015-05-23T15:00:28Z</time>
      </trkpt>
      <trkpt lat="43.282083" lon="-4.300450">
        <ele>1101.0</ele>
        <time>2015-05-23T15:00:29Z</time>
      </trkpt>
      <trkpt lat="43.282067" lon="-4.300567">
        <ele>1102.0</ele>
        <time>2015-05-23T15:00:30Z</time>
      </trkpt>
      <trkpt lat="43.282067" lon="-4.300667">
        <ele>1102.0</ele>
        <time>2015-05-23T15:00:31Z</time>
      </trkpt>
      <trkpt lat="43.282050" lon="-4.300800">
        <ele>1101.0</ele>
        <time>2015-05-23T15:00:32Z</time>
      </trkpt>
      <trkpt lat="43.282050" lon="-4.300917">
        <ele>1100.0</ele>
        <time>2015-05-23T15:00:33Z</time>
      </trkpt>
      <trkpt lat="43.282067" lon="-4.301050">
        <ele>1099.0</ele>
        <time>2015-05-23T15:00:34Z</time>
      </trkpt>
      <trkpt lat="43.282083" lon="-4.301183">
        <ele>1098.0</ele>
        <time>2015-05-23T15:00:35Z</time>
      </trkpt>
      <trkpt lat="43.282100" lon="-4.301317">
        <ele>1097.0</ele>
        <time>2015-05-23T15:00:36Z</time>
      </trkpt>
      <trkpt lat="43.282117" lon="-4.301450">
        <ele>1097.0</ele>
        <time>2015-05-23T15:00:37Z</time>
      </trkpt>
      <trkpt lat="43.282117" lon="-4.301583">
        <ele>1096.0</ele>
        <time>2015-05-23T15:00:38Z</time>
      </trkpt>
      <trkpt lat="43.282117" lon="-4.301733">
        <ele>1095.0</ele>
        <time>2015-05-23T15:00:39Z</time>
      </trkpt>
      <trkpt lat="43.282117" lon="-4.301900">
        <ele>1094.0</ele>
        <time>2015-05-23T15:00:40Z</time>
      </trkpt>
      <trkpt lat="43.282100" lon="-4.302033">
        <ele>1095.0</ele>
        <time>2015-05-23T15:00:41Z</time>
      </trkpt>
      <trkpt lat="43.282083" lon="-4.302183">
        <ele>1095.0</ele>
        <time>2015-05-23T15:00:42Z</time>
      </trkpt>
      <trkpt lat="43.282050" lon="-4.302317">
        <ele>1095.0</ele>
        <time>2015-05-23T15:00:43Z</time>
      </trkpt>
      <trkpt lat="43.282033" lon="-4.302467">
        <ele>1093.0</ele>
        <time>2015-05-23T15:00:44Z</time>
      </trkpt>
      <trkpt lat="43.282017" lon="-4.302617">
        <ele>1092.0</ele>
        <time>2015-05-23T15:00:45Z</time>
      </trkpt>
      <trkpt lat="43.282000" lon="-4.302800">
        <ele>1091.0</ele>
        <time>2015-05-23T15:00:46Z</time>
      </trkpt>
      <trkpt lat="43.281983" lon="-4.302967">
        <ele>1090.0</ele>
        <time>2015-05-23T15:00:47Z</time>
      </trkpt>
      <trkpt lat="43.281967" lon="-4.303133">
        <ele>1090.0</ele>
        <time>2015-05-23T15:00:48Z</time>
      </trkpt>
      <trkpt lat="43.281933" lon="-4.303267">
        <ele>1091.0</ele>
        <time>2015-05-23T15:00:49Z</time>
      </trkpt>
      <trkpt lat="43.281917" lon="-4.303417">
        <ele>1091.0</ele>
        <time>2015-05-23T15:00:50Z</time>
      </trkpt>
      <trkpt lat="43.281917" lon="-4.303550">
        <ele>1092.0</ele>
        <time>2015-05-23T15:00:51Z</time>
      </trkpt>
      <trkpt lat="43.281900" lon="-4.303683">
        <ele>1092.0</ele>
        <time>2015-05-23T15:00:52Z</time>
      </trkpt>
      <trkpt lat="43.281883" lon="-4.303817">
        <ele>1093.0</ele>
        <time>2015-05-23T15:00:53Z</time>
      </trkpt>
      <trkpt lat="43.281867" lon="-4.303950">
        <ele>1093.0</ele>
        <time>2015-05-23T15:00:54Z</time>
      </trkpt>
      <trkpt lat="43.281850" lon="-4.304067">
        <ele>1093.0</ele>
        <time>2015-05-23T15:00:55Z</time>
      </trkpt>
      <trkpt lat="43.281833" lon="-4.304200">
        <ele>1093.0</ele>
        <time>2015-05-23T15:00:56Z</time>
      </trkpt>
      <trkpt lat="43.281817" lon="-4.304333">
        <ele>1092.0</ele>
        <time>2015-05-23T15:00:57Z</time>
      </trkpt>
      <trkpt lat="43.281800" lon="-4.304483">
        <ele>1092.0</ele>
        <time>2015-05-23T15:00:58Z</time>
      </trkpt>
      <trkpt lat="43.281783" lon="-4.304633">
        <ele>1092.0</ele>
        <time>2015-05-23T15:00:59Z</time>
      </trkpt>
      <trkpt lat="43.281767" lon="-4.304750">
        <ele>1092.0</ele>
        <time>2015-05-23T15:01:00Z</time>
      </trkpt>
      <trkpt lat="43.281733" lon="-4.304883">
        <ele>1092.0</ele>
        <time>2015-05-23T15:01:01Z</time>
      </trkpt>
      <trkpt lat="43.281700" lon="-4.305000">
        <ele>1090.0</ele>
        <time>2015-05-23T15:01:02Z</time>
      </trkpt>
      <trkpt lat="43.281667" lon="-4.305133">
        <ele>1089.0</ele>
        <time>2015-05-23T15:01:03Z</time>
      </trkpt>
      <trkpt lat="43.281617" lon="-4.305283">
        <ele>1088.0</ele>
        <time>2015-05-23T15:01:04Z</time>
      </trkpt>
      <trkpt lat="43.281600" lon="-4.305433">
        <ele>1088.0</ele>
        <time>2015-05-23T15:01:05Z</time>
      </trkpt>
      <trkpt lat="43.281567" lon="-4.305567">
        <ele>1089.0</ele>
        <time>2015-05-23T15:01:06Z</time>
      </trkpt>
      <trkpt lat="43.281533" lon="-4.305683">
        <ele>1089.0</ele>
        <time>2015-05-23T15:01:07Z</time>
      </trkpt>
      <trkpt lat="43.281517" lon="-4.305783">
        <ele>1088.0</ele>
        <time>2015-05-23T15:01:08Z</time>
      </trkpt>
      <trkpt lat="43.281483" lon="-4.305900">
        <ele>1087.0</ele>
        <time>2015-05-23T15:01:09Z</time>
      </trkpt>
      <trkpt lat="43.281483" lon="-4.306033">
        <ele>1085.0</ele>
        <time>2015-05-23T15:01:10Z</time>
      </trkpt>
      <trkpt lat="43.281467" lon="-4.306150">
        <ele>1086.0</ele>
        <time>2015-05-23T15:01:11Z</time>
      </trkpt>
      <trkpt lat="43.281450" lon="-4.306283">
        <ele>1086.0</ele>
        <time>2015-05-23T15:01:12Z</time>
      </trkpt>
      <trkpt lat="43.281417" lon="-4.306400">
        <ele>1084.0</ele>
        <time>2015-05-23T15:01:13Z</time>
      </trkpt>
      <trkpt lat="43.281383" lon="-4.306533">
        <ele>1083.0</ele>
        <time>2015-05-23T15:01:14Z</time>
      </trkpt>
      <trkpt lat="43.281350" lon="-4.306650">
        <ele>1082.0</ele>
        <time>2015-05-23T15:01:15Z</time>
      </trkpt>
      <trkpt lat="43.281317" lon="-4.306767">
        <ele>1081.0</ele>
        <time>2015-05-23T15:01:16Z</time>
      </trkpt>
      <trkpt lat="43.281300" lon="-4.306883">
        <ele>1079.0</ele>
        <time>2015-05-23T15:01:17Z</time>
      </trkpt>
      <trkpt lat="43.281267" lon="-4.307017">
        <ele>1077.0</ele>
        <time>2015-05-23T15:01:18Z</time>
      </trkpt>
      <trkpt lat="43.281233" lon="-4.307150">
        <ele>1076.0</ele>
        <time>2015-05-23T15:01:19Z</time>
      </trkpt>
      <trkpt lat="43.281200" lon="-4.307267">
        <ele>1074.0</ele>
        <time>2015-05-23T15:01:20Z</time>
      </trkpt>
      <trkpt lat="43.281167" lon="-4.307400">
        <ele>1073.0</ele>
        <time>2015-05-23T15:01:21Z</time>
      </trkpt>
      <trkpt lat="43.281150" lon="-4.307517">
        <ele>1071.0</ele>
        <time>2015-05-23T15:01:22Z</time>
      </trkpt>
      <trkpt lat="43.281133" lon="-4.307650">
        <ele>1069.0</ele>
        <time>2015-05-23T15:01:23Z</time>
      </trkpt>
      <trkpt lat="43.281117" lon="-4.307767">
        <ele>1067.0</ele>
        <time>2015-05-23T15:01:24Z</time>
      </trkpt>
      <trkpt lat="43.281100" lon="-4.307883">
        <ele>1066.0</ele>
        <time>2015-05-23T15:01:25Z</time>
      </trkpt>
      <trkpt lat="43.281100" lon="-4.308017">
        <ele>1064.0</ele>
        <time>2015-05-23T15:01:26Z</time>
      </trkpt>
      <trkpt lat="43.281083" lon="-4.308150">
        <ele>1067.0</ele>
        <time>2015-05-23T15:01:27Z</time>
      </trkpt>
      <trkpt lat="43.281083" lon="-4.308250">
        <ele>1068.0</ele>
        <time>2015-05-23T15:01:28Z</time>
      </trkpt>
      <trkpt lat="43.281083" lon="-4.308350">
        <ele>1067.0</ele>
        <time>2015-05-23T15:01:29Z</time>
      </trkpt>
      <trkpt lat="43.281083" lon="-4.308467">
        <ele>1066.0</ele>
        <time>2015-05-23T15:01:30Z</time>
      </trkpt>
      <trkpt lat="43.281083" lon="-4.308567">
        <ele>1065.0</ele>
        <time>2015-05-23T15:01:31Z</time>
      </trkpt>
      <trkpt lat="43.281083" lon="-4.308683">
        <ele>1064.0</ele>
        <time>2015-05-23T15:01:32Z</time>
      </trkpt>
      <trkpt lat="43.281083" lon="-4.308800">
        <ele>1064.0</ele>
        <time>2015-05-23T15:01:33Z</time>
      </trkpt>
      <trkpt lat="43.281067" lon="-4.308933">
        <ele>1063.0</ele>
        <time>2015-05-23T15:01:34Z</time>
      </trkpt>
      <trkpt lat="43.281050" lon="-4.309050">
        <ele>1063.0</ele>
        <time>2015-05-23T15:01:35Z</time>
      </trkpt>
      <trkpt lat="43.281017" lon="-4.309183">
        <ele>1062.0</ele>
        <time>2015-05-23T15:01:36Z</time>
      </trkpt>
      <trkpt lat="43.281000" lon="-4.309317">
        <ele>1062.0</ele>
        <time>2015-05-23T15:01:37Z</time>
      </trkpt>
      <trkpt lat="43.280967" lon="-4.309433">
        <ele>1061.0</ele>
        <time>2015-05-23T15:01:38Z</time>
      </trkpt>
      <trkpt lat="43.280950" lon="-4.309550">
        <ele>1060.0</ele>
        <time>2015-05-23T15:01:39Z</time>
      </trkpt>
      <trkpt lat="43.280917" lon="-4.309667">
        <ele>1058.0</ele>
        <time>2015-05-23T15:01:40Z</time>
      </trkpt>
      <trkpt lat="43.280883" lon="-4.309800">
        <ele>1056.0</ele>
        <time>2015-05-23T15:01:41Z</time>
      </trkpt>
      <trkpt lat="43.280850" lon="-4.309933">
        <ele>1055.0</ele>
        <time>2015-05-23T15:01:42Z</time>
      </trkpt>
      <trkpt lat="43.280817" lon="-4.310050">
        <ele>1053.0</ele>
        <time>2015-05-23T15:01:43Z</time>
      </trkpt>
      <trkpt lat="43.280767" lon="-4.310167">
        <ele>1052.0</ele>
        <time>2015-05-23T15:01:44Z</time>
      </trkpt>
      <trkpt lat="43.280733" lon="-4.310283">
        <ele>1051.0</ele>
        <time>2015-05-23T15:01:45Z</time>
      </trkpt>
      <trkpt lat="43.280700" lon="-4.310400">
        <ele>1049.0</ele>
        <time>2015-05-23T15:01:46Z</time>
      </trkpt>
      <trkpt lat="43.280650" lon="-4.310533">
        <ele>1048.0</ele>
        <time>2015-05-23T15:01:47Z</time>
      </trkpt>
      <trkpt lat="43.280617" lon="-4.310650">
        <ele>1046.0</ele>
        <time>2015-05-23T15:01:48Z</time>
      </trkpt>
      <trkpt lat="43.280583" lon="-4.310783">
        <ele>1045.0</ele>
        <time>2015-05-23T15:01:49Z</time>
      </trkpt>
      <trkpt lat="43.280533" lon="-4.310900">
        <ele>1044.0</ele>
        <time>2015-05-23T15:01:50Z</time>
      </trkpt>
      <trkpt lat="43.280483" lon="-4.311000">
        <ele>1044.0</ele>
        <time>2015-05-23T15:01:51Z</time>
      </trkpt>
      <trkpt lat="43.280450" lon="-4.311100">
        <ele>1042.0</ele>
        <time>2015-05-23T15:01:52Z</time>
      </trkpt>
      <trkpt lat="43.280417" lon="-4.311200">
        <ele>1041.0</ele>
        <time>2015-05-23T15:01:53Z</time>
      </trkpt>
      <trkpt lat="43.280367" lon="-4.311317">
        <ele>1038.0</ele>
        <time>2015-05-23T15:01:54Z</time>
      </trkpt>
      <trkpt lat="43.280333" lon="-4.311450">
        <ele>1036.0</ele>
        <time>2015-05-23T15:01:55Z</time>
      </trkpt>
      <trkpt lat="43.280283" lon="-4.311567">
        <ele>1034.0</ele>
        <time>2015-05-23T15:01:56Z</time>
      </trkpt>
      <trkpt lat="43.280233" lon="-4.311683">
        <ele>1034.0</ele>
        <time>2015-05-23T15:01:57Z</time>
      </trkpt>
      <trkpt lat="43.280183" lon="-4.311783">
        <ele>1033.0</ele>
        <time>2015-05-23T15:01:58Z</time>
      </trkpt>
      <trkpt lat="43.280117" lon="-4.311883">
        <ele>1031.0</ele>
        <time>2015-05-23T15:01:59Z</time>
      </trkpt>
      <trkpt lat="43.280067" lon="-4.311983">
        <ele>1030.0</ele>
        <time>2015-05-23T15:02:00Z</time>
      </trkpt>
      <trkpt lat="43.280000" lon="-4.312100">
        <ele>1028.0</ele>
        <time>2015-05-23T15:02:01Z</time>
      </trkpt>
      <trkpt lat="43.279933" lon="-4.312217">
        <ele>1027.0</ele>
        <time>2015-05-23T15:02:02Z</time>
      </trkpt>
      <trkpt lat="43.279883" lon="-4.312317">
        <ele>1026.0</ele>
        <time>2015-05-23T15:02:03Z</time>
      </trkpt>
      <trkpt lat="43.279817" lon="-4.312433">
        <ele>1025.0</ele>
        <time>2015-05-23T15:02:04Z</time>
      </trkpt>
      <trkpt lat="43.279767" lon="-4.312550">
        <ele>1025.0</ele>
        <time>2015-05-23T15:02:05Z</time>
      </trkpt>
      <trkpt lat="43.279700" lon="-4.312650">
        <ele>1024.0</ele>
        <time>2015-05-23T15:02:06Z</time>
      </trkpt>
      <trkpt lat="43.279633" lon="-4.312750">
        <ele>1024.0</ele>
        <time>2015-05-23T15:02:07Z</time>
      </trkpt>
      <trkpt lat="43.279567" lon="-4.312850">
        <ele>1024.0</ele>
        <time>2015-05-23T15:02:08Z</time>
      </trkpt>
      <trkpt lat="43.279517" lon="-4.312950">
        <ele>1024.0</ele>
        <time>2015-05-23T15:02:09Z</time>
      </trkpt>
      <trkpt lat="43.279467" lon="-4.313067">
        <ele>1024.0</ele>
        <time>2015-05-23T15:02:10Z</time>
      </trkpt>
      <trkpt lat="43.279417" lon="-4.313167">
        <ele>1024.0</ele>
        <time>2015-05-23T15:02:11Z</time>
      </trkpt>
      <trkpt lat="43.279367" lon="-4.313283">
        <ele>1025.0</ele>
        <time>2015-05-23T15:02:12Z</time>
      </trkpt>
      <trkpt lat="43.279300" lon="-4.313383">
        <ele>1025.0</ele>
        <time>2015-05-23T15:02:13Z</time>
      </trkpt>
      <trkpt lat="43.279250" lon="-4.313483">
        <ele>1025.0</ele>
        <time>2015-05-23T15:02:14Z</time>
      </trkpt>
      <trkpt lat="43.279200" lon="-4.313600">
        <ele>1025.0</ele>
        <time>2015-05-23T15:02:15Z</time>
      </trkpt>
      <trkpt lat="43.279167" lon="-4.313683">
        <ele>1025.0</ele>
        <time>2015-05-23T15:02:16Z</time>
      </trkpt>
      <trkpt lat="43.279117" lon="-4.313767">
        <ele>1025.0</ele>
        <time>2015-05-23T15:02:17Z</time>
      </trkpt>
      <trkpt lat="43.279083" lon="-4.313850">
        <ele>1026.0</ele>
        <time>2015-05-23T15:02:18Z</time>
      </trkpt>
      <trkpt lat="43.279033" lon="-4.313933">
        <ele>1026.0</ele>
        <time>2015-05-23T15:02:19Z</time>
      </trkpt>
      <trkpt lat="43.279000" lon="-4.314017">
        <ele>1026.0</ele>
        <time>2015-05-23T15:02:20Z</time>
      </trkpt>
      <trkpt lat="43.278983" lon="-4.314117">
        <ele>1027.0</ele>
        <time>2015-05-23T15:02:21Z</time>
      </trkpt>
      <trkpt lat="43.278967" lon="-4.314217">
        <ele>1028.0</ele>
        <time>2015-05-23T15:02:22Z</time>
      </trkpt>
      <trkpt lat="43.278950" lon="-4.314317">
        <ele>1029.0</ele>
        <time>2015-05-23T15:02:23Z</time>
      </trkpt>
      <trkpt lat="43.278950" lon="-4.314400">
        <ele>1030.0</ele>
        <time>2015-05-23T15:02:24Z</time>
      </trkpt>
      <trkpt lat="43.278950" lon="-4.314483">
        <ele>1032.0</ele>
        <time>2015-05-23T15:02:25Z</time>
      </trkpt>
      <trkpt lat="43.278933" lon="-4.314550">
        <ele>1034.0</ele>
        <time>2015-05-23T15:02:26Z</time>
      </trkpt>
      <trkpt lat="43.278933" lon="-4.314633">
        <ele>1034.0</ele>
        <time>2015-05-23T15:02:27Z</time>
      </trkpt>
      <trkpt lat="43.278933" lon="-4.314717">
        <ele>1035.0</ele>
        <time>2015-05-23T15:02:28Z</time>
      </trkpt>
      <trkpt lat="43.278917" lon="-4.314800">
        <ele>1035.0</ele>
        <time>2015-05-23T15:02:29Z</time>
      </trkpt>
      <trkpt lat="43.278917" lon="-4.314883">
        <ele>1036.0</ele>
        <time>2015-05-23T15:02:30Z</time>
      </trkpt>
      <trkpt lat="43.278917" lon="-4.314950">
        <ele>1037.0</ele>
        <time>2015-05-23T15:02:31Z</time>
      </trkpt>
      <trkpt lat="43.278917" lon="-4.315000">
        <ele>1038.0</ele>
        <time>2015-05-23T15:02:32Z</time>
      </trkpt>
      <trkpt lat="43.278950" lon="-4.315050">
        <ele>1039.0</ele>
        <time>2015-05-23T15:02:33Z</time>
      </trkpt>
      <trkpt lat="43.278983" lon="-4.315117">
        <ele>1040.0</ele>
        <time>2015-05-23T15:02:34Z</time>
      </trkpt>
      <trkpt lat="43.279017" lon="-4.315150">
        <ele>1042.0</ele>
        <time>2015-05-23T15:02:35Z</time>
      </trkpt>
      <trkpt lat="43.279033" lon="-4.315150">
        <ele>1043.0</ele>
        <time>2015-05-23T15:02:36Z</time>
      </trkpt>
      <trkpt lat="43.279050" lon="-4.315117">
        <ele>1044.0</ele>
        <time>2015-05-23T15:02:37Z</time>
      </trkpt>
      <trkpt lat="43.279083" lon="-4.315083">
        <ele>1045.0</ele>
        <time>2015-05-23T15:02:38Z</time>
      </trkpt>
      <trkpt lat="43.279100" lon="-4.315050">
        <ele>1046.0</ele>
        <time>2015-05-23T15:02:39Z</time>
      </trkpt>
      <trkpt lat="43.279133" lon="-4.314983">
        <ele>1048.0</ele>
        <time>2015-05-23T15:02:40Z</time>
      </trkpt>
      <trkpt lat="43.279133" lon="-4.314900">
        <ele>1050.0</ele>
        <time>2015-05-23T15:02:41Z</time>
      </trkpt>
      <trkpt lat="43.279117" lon="-4.314800">
        <ele>1052.0</ele>
        <time>2015-05-23T15:02:42Z</time>
      </trkpt>
      <trkpt lat="43.279100" lon="-4.314700">
        <ele>1053.0</ele>
        <time>2015-05-23T15:02:43Z</time>
      </trkpt>
      <trkpt lat="43.279050" lon="-4.314600">
        <ele>1055.0</ele>
        <time>2015-05-23T15:02:44Z</time>
      </trkpt>
      <trkpt lat="43.279017" lon="-4.314500">
        <ele>1057.0</ele>
        <time>2015-05-23T15:02:45Z</time>
      </trkpt>
      <trkpt lat="43.278967" lon="-4.314400">
        <ele>1059.0</ele>
        <time>2015-05-23T15:02:46Z</time>
      </trkpt>
      <trkpt lat="43.278900" lon="-4.314317">
        <ele>1062.0</ele>
        <time>2015-05-23T15:02:47Z</time>
      </trkpt>
      <trkpt lat="43.278833" lon="-4.314233">
        <ele>1065.0</ele>
        <time>2015-05-23T15:02:48Z</time>
      </trkpt>
      <trkpt lat="43.278750" lon="-4.314167">
        <ele>1067.0</ele>
        <time>2015-05-23T15:02:49Z</time>
      </trkpt>
      <trkpt lat="43.278683" lon="-4.314100">
        <ele>1069.0</ele>
        <time>2015-05-23T15:02:50Z</time>
      </trkpt>
      <trkpt lat="43.278600" lon="-4.314050">
        <ele>1070.0</ele>
        <time>2015-05-23T15:02:51Z</time>
      </trkpt>
      <trkpt lat="43.278500" lon="-4.314000">
        <ele>1072.0</ele>
        <time>2015-05-23T15:02:52Z</time>
      </trkpt>
      <trkpt lat="43.278400" lon="-4.313983">
        <ele>1073.0</ele>
        <time>2015-05-23T15:02:53Z</time>
      </trkpt>
      <trkpt lat="43.278300" lon="-4.314000">
        <ele>1074.0</ele>
        <time>2015-05-23T15:02:54Z</time>
      </trkpt>
      <trkpt lat="43.278217" lon="-4.314050">
        <ele>1076.0</ele>
        <time>2015-05-23T15:02:55Z</time>
      </trkpt>
      <trkpt lat="43.278150" lon="-4.314117">
        <ele>1077.0</ele>
        <time>2015-05-23T15:02:56Z</time>
      </trkpt>
      <trkpt lat="43.278100" lon="-4.314200">
        <ele>1078.0</ele>
        <time>2015-05-23T15:02:57Z</time>
      </trkpt>
      <trkpt lat="43.278067" lon="-4.314283">
        <ele>1080.0</ele>
        <time>2015-05-23T15:02:58Z</time>
      </trkpt>
      <trkpt lat="43.278050" lon="-4.314367">
        <ele>1082.0</ele>
        <time>2015-05-23T15:02:59Z</time>
      </trkpt>
      <trkpt lat="43.278033" lon="-4.314417">
        <ele>1084.0</ele>
        <time>2015-05-23T15:03:00Z</time>
      </trkpt>
      <trkpt lat="43.278050" lon="-4.314483">
        <ele>1085.0</ele>
        <time>2015-05-23T15:03:01Z</time>
      </trkpt>
      <trkpt lat="43.278050" lon="-4.314533">
        <ele>1085.0</ele>
        <time>2015-05-23T15:03:02Z</time>
      </trkpt>
      <trkpt lat="43.278083" lon="-4.314567">
        <ele>1087.0</ele>
        <time>2015-05-23T15:03:03Z</time>
      </trkpt>
      <trkpt lat="43.278117" lon="-4.314617">
        <ele>1088.0</ele>
        <time>2015-05-23T15:03:04Z</time>
      </trkpt>
      <trkpt lat="43.278133" lon="-4.314650">
        <ele>1089.0</ele>
        <time>2015-05-23T15:03:05Z</time>
      </trkpt>
      <trkpt lat="43.278167" lon="-4.314667">
        <ele>1090.0</ele>
        <time>2015-05-23T15:03:06Z</time>
      </trkpt>
      <trkpt lat="43.278200" lon="-4.314683">
        <ele>1091.0</ele>
        <time>2015-05-23T15:03:07Z</time>
      </trkpt>
      <trkpt lat="43.278233" lon="-4.314683">
        <ele>1092.0</ele>
        <time>2015-05-23T15:03:08Z</time>
      </trkpt>
      <trkpt lat="43.278267" lon="-4.314667">
        <ele>1093.0</ele>
        <time>2015-05-23T15:03:09Z</time>
      </trkpt>
      <trkpt lat="43.278300" lon="-4.314650">
        <ele>1094.0</ele>
        <time>2015-05-23T15:03:10Z</time>
      </trkpt>
      <trkpt lat="43.278333" lon="-4.314617">
        <ele>1095.0</ele>
        <time>2015-05-23T15:03:11Z</time>
      </trkpt>
      <trkpt lat="43.278367" lon="-4.314550">
        <ele>1096.0</ele>
        <time>2015-05-23T15:03:12Z</time>
      </trkpt>
      <trkpt lat="43.278367" lon="-4.314483">
        <ele>1097.0</ele>
        <time>2015-05-23T15:03:13Z</time>
      </trkpt>
      <trkpt lat="43.278383" lon="-4.314400">
        <ele>1099.0</ele>
        <time>2015-05-23T15:03:14Z</time>
      </trkpt>
      <trkpt lat="43.278383" lon="-4.314300">
        <ele>1100.0</ele>
        <time>2015-05-23T15:03:15Z</time>
      </trkpt>
      <trkpt lat="43.278383" lon="-4.314217">
        <ele>1102.0</ele>
        <time>2015-05-23T15:03:16Z</time>
      </trkpt>
      <trkpt lat="43.278400" lon="-4.314133">
        <ele>1103.0</ele>
        <time>2015-05-23T15:03:17Z</time>
      </trkpt>
      <trkpt lat="43.278383" lon="-4.314033">
        <ele>1104.0</ele>
        <time>2015-05-23T15:03:18Z</time>
      </trkpt>
      <trkpt lat="43.278367" lon="-4.313917">
        <ele>1106.0</ele>
        <time>2015-05-23T15:03:19Z</time>
      </trkpt>
      <trkpt lat="43.278333" lon="-4.313800">
        <ele>1106.0</ele>
        <time>2015-05-23T15:03:20Z</time>
      </trkpt>
      <trkpt lat="43.278283" lon="-4.313683">
        <ele>1107.0</ele>
        <time>2015-05-23T15:03:21Z</time>
      </trkpt>
      <trkpt lat="43.278233" lon="-4.313583">
        <ele>1109.0</ele>
        <time>2015-05-23T15:03:22Z</time>
      </trkpt>
      <trkpt lat="43.278150" lon="-4.313483">
        <ele>1110.0</ele>
        <time>2015-05-23T15:03:23Z</time>
      </trkpt>
      <trkpt lat="43.278067" lon="-4.313400">
        <ele>1110.0</ele>
        <time>2015-05-23T15:03:24Z</time>
      </trkpt>
      <trkpt lat="43.277967" lon="-4.313350">
        <ele>1111.0</ele>
        <time>2015-05-23T15:03:25Z</time>
      </trkpt>
      <trkpt lat="43.277867" lon="-4.313300">
        <ele>1112.0</ele>
        <time>2015-05-23T15:03:26Z</time>
      </trkpt>
      <trkpt lat="43.277750" lon="-4.313300">
        <ele>1114.0</ele>
        <time>2015-05-23T15:03:27Z</time>
      </trkpt>
      <trkpt lat="43.277667" lon="-4.313333">
        <ele>1116.0</ele>
        <time>2015-05-23T15:03:28Z</time>
      </trkpt>
      <trkpt lat="43.277600" lon="-4.313383">
        <ele>1117.0</ele>
        <time>2015-05-23T15:03:29Z</time>
      </trkpt>
      <trkpt lat="43.277533" lon="-4.313450">
        <ele>1118.0</ele>
        <time>2015-05-23T15:03:30Z</time>
      </trkpt>
      <trkpt lat="43.277500" lon="-4.313517">
        <ele>1120.0</ele>
        <time>2015-05-23T15:03:31Z</time>
      </trkpt>
      <trkpt lat="43.277467" lon="-4.313583">
        <ele>1121.0</ele>
        <time>2015-05-23T15:03:32Z</time>
      </trkpt>
      <trkpt lat="43.277450" lon="-4.313650">
        <ele>1123.0</ele>
        <time>2015-05-23T15:03:33Z</time>
      </trkpt>
      <trkpt lat="43.277433" lon="-4.313700">
        <ele>1123.0</ele>
        <time>2015-05-23T15:03:34Z</time>
      </trkpt>
      <trkpt lat="43.277450" lon="-4.313750">
        <ele>1123.0</ele>
        <time>2015-05-23T15:03:35Z</time>
      </trkpt>
      <trkpt lat="43.277450" lon="-4.313800">
        <ele>1123.0</ele>
        <time>2015-05-23T15:03:36Z</time>
      </trkpt>
      <trkpt lat="43.277467" lon="-4.313867">
        <ele>1123.0</ele>
        <time>2015-05-23T15:03:37Z</time>
      </trkpt>
      <trkpt lat="43.277483" lon="-4.313917">
        <ele>1123.0</ele>
        <time>2015-05-23T15:03:38Z</time>
      </trkpt>
      <trkpt lat="43.277517" lon="-4.313983">
        <ele>1124.0</ele>
        <time>2015-05-23T15:03:39Z</time>
      </trkpt>
      <trkpt lat="43.277550" lon="-4.314017">
        <ele>1124.0</ele>
        <time>2015-05-23T15:03:40Z</time>
      </trkpt>
      <trkpt lat="43.277600" lon="-4.314067">
        <ele>1125.0</ele>
        <time>2015-05-23T15:03:41Z</time>
      </trkpt>
      <trkpt lat="43.277633" lon="-4.314100">
        <ele>1127.0</ele>
        <time>2015-05-23T15:03:42Z</time>
      </trkpt>
      <trkpt lat="43.277667" lon="-4.314150">
        <ele>1129.0</ele>
        <time>2015-05-23T15:03:43Z</time>
      </trkpt>
      <trkpt lat="43.277700" lon="-4.314183">
        <ele>1130.0</ele>
        <time>2015-05-23T15:03:44Z</time>
      </trkpt>
      <trkpt lat="43.277733" lon="-4.314233">
        <ele>1131.0</ele>
        <time>2015-05-23T15:03:45Z</time>
      </trkpt>
      <trkpt lat="43.277767" lon="-4.314267">
        <ele>1132.0</ele>
        <time>2015-05-23T15:03:46Z</time>
      </trkpt>
      <trkpt lat="43.277817" lon="-4.314317">
        <ele>1133.0</ele>
        <time>2015-05-23T15:03:47Z</time>
      </trkpt>
      <trkpt lat="43.277850" lon="-4.314367">
        <ele>1134.0</ele>
        <time>2015-05-23T15:03:48Z</time>
      </trkpt>
      <trkpt lat="43.277883" lon="-4.314417">
        <ele>1135.0</ele>
        <time>2015-05-23T15:03:49Z</time>
      </trkpt>
      <trkpt lat="43.277900" lon="-4.314467">
        <ele>1136.0</ele>
        <time>2015-05-23T15:03:50Z</time>
      </trkpt>
      <trkpt lat="43.277917" lon="-4.314517">
        <ele>1136.0</ele>
        <time>2015-05-23T15:03:51Z</time>
      </trkpt>
      <trkpt lat="43.277933" lon="-4.314567">
        <ele>1136.0</ele>
        <time>2015-05-23T15:03:52Z</time>
      </trkpt>
      <trkpt lat="43.277967" lon="-4.314617">
        <ele>1136.0</ele>
        <time>2015-05-23T15:03:53Z</time>
      </trkpt>
      <trkpt lat="43.278000" lon="-4.314667">
        <ele>1137.0</ele>
        <time>2015-05-23T15:03:54Z</time>
      </trkpt>
      <trkpt lat="43.278033" lon="-4.314717">
        <ele>1138.0</ele>
        <time>2015-05-23T15:03:55Z</time>
      </trkpt>
      <trkpt lat="43.278050" lon="-4.314783">
        <ele>1139.0</ele>
        <time>2015-05-23T15:03:56Z</time>
      </trkpt>
      <trkpt lat="43.278067" lon="-4.314850">
        <ele>1140.0</ele>
        <time>2015-05-23T15:03:57Z</time>
      </trkpt>
      <trkpt lat="43.278067" lon="-4.314917">
        <ele>1141.0</ele>
        <time>2015-05-23T15:03:58Z</time>
      </trkpt>
      <trkpt lat="43.278067" lon="-4.314950">
        <ele>1142.0</ele>
        <time>2015-05-23T15:03:59Z</time>
      </trkpt>
      <trkpt lat="43.278067" lon="-4.315017">
        <ele>1142.0</ele>
        <time>2015-05-23T15:04:00Z</time>
      </trkpt>
      <trkpt lat="43.278067" lon="-4.315083">
        <ele>1141.0</ele>
        <time>2015-05-23T15:04:01Z</time>
      </trkpt>
      <trkpt lat="43.278083" lon="-4.315167">
        <ele>1141.0</ele>
        <time>2015-05-23T15:04:02Z</time>
      </trkpt>
      <trkpt lat="43.278117" lon="-4.315250">
        <ele>1141.0</ele>
        <time>2015-05-23T15:04:03Z</time>
      </trkpt>
      <trkpt lat="43.278150" lon="-4.315317">
        <ele>1141.0</ele>
        <time>2015-05-23T15:04:04Z</time>
      </trkpt>
      <trkpt lat="43.278167" lon="-4.315383">
        <ele>1142.0</ele>
        <time>2015-05-23T15:04:05Z</time>
      </trkpt>
      <trkpt lat="43.278183" lon="-4.315450">
        <ele>1144.0</ele>
        <time>2015-05-23T15:04:06Z</time>
      </trkpt>
      <trkpt lat="43.278200" lon="-4.315517">
        <ele>1144.0</ele>
        <time>2015-05-23T15:04:07Z</time>
      </trkpt>
      <trkpt lat="43.278233" lon="-4.315600">
        <ele>1143.0</ele>
        <time>2015-05-23T15:04:08Z</time>
      </trkpt>
      <trkpt lat="43.278267" lon="-4.315700">
        <ele>1143.0</ele>
        <time>2015-05-23T15:04:09Z</time>
      </trkpt>
      <trkpt lat="43.278300" lon="-4.315783">
        <ele>1144.0</ele>
        <time>2015-05-23T15:04:10Z</time>
      </trkpt>
      <trkpt lat="43.278333" lon="-4.315867">
        <ele>1147.0</ele>
        <time>2015-05-23T15:04:11Z</time>
      </trkpt>
      <trkpt lat="43.278350" lon="-4.315933">
        <ele>1150.0</ele>
        <time>2015-05-23T15:04:12Z</time>
      </trkpt>
      <trkpt lat="43.278350" lon="-4.315983">
        <ele>1152.0</ele>
        <time>2015-05-23T15:04:13Z</time>
      </trkpt>
      <trkpt lat="43.278367" lon="-4.316050">
        <ele>1154.0</ele>
        <time>2015-05-23T15:04:14Z</time>
      </trkpt>
      <trkpt lat="43.278383" lon="-4.316100">
        <ele>1153.0</ele>
        <time>2015-05-23T15:04:15Z</time>
      </trkpt>
      <trkpt lat="43.278400" lon="-4.316167">
        <ele>1153.0</ele>
        <time>2015-05-23T15:04:16Z</time>
      </trkpt>
      <trkpt lat="43.278433" lon="-4.316250">
        <ele>1152.0</ele>
        <time>2015-05-23T15:04:17Z</time>
      </trkpt>
      <trkpt lat="43.278450" lon="-4.316350">
        <ele>1152.0</ele>
        <time>2015-05-23T15:04:18Z</time>
      </trkpt>
      <trkpt lat="43.278467" lon="-4.316450">
        <ele>1153.0</ele>
        <time>2015-05-23T15:04:19Z</time>
      </trkpt>
      <trkpt lat="43.278483" lon="-4.316567">
        <ele>1154.0</ele>
        <time>2015-05-23T15:04:20Z</time>
      </trkpt>
      <trkpt lat="43.278483" lon="-4.316667">
        <ele>1156.0</ele>
        <time>2015-05-23T15:04:21Z</time>
      </trkpt>
      <trkpt lat="43.278500" lon="-4.316767">
        <ele>1158.0</ele>
        <time>2015-05-23T15:04:22Z</time>
      </trkpt>
      <trkpt lat="43.278500" lon="-4.316883">
        <ele>1159.0</ele>
        <time>2015-05-23T15:04:23Z</time>
      </trkpt>
      <trkpt lat="43.278500" lon="-4.316983">
        <ele>1161.0</ele>
        <time>2015-05-23T15:04:24Z</time>
      </trkpt>
      <trkpt lat="43.278517" lon="-4.317100">
        <ele>1162.0</ele>
        <time>2015-05-23T15:04:25Z</time>
      </trkpt>
      <trkpt lat="43.278517" lon="-4.317200">
        <ele>1164.0</ele>
        <time>2015-05-23T15:04:26Z</time>
      </trkpt>
      <trkpt lat="43.278533" lon="-4.317317">
        <ele>1165.0</ele>
        <time>2015-05-23T15:04:27Z</time>
      </trkpt>
      <trkpt lat="43.278550" lon="-4.317433">
        <ele>1167.0</ele>
        <time>2015-05-23T15:04:28Z</time>
      </trkpt>
      <trkpt lat="43.278567" lon="-4.317550">
        <ele>1169.0</ele>
        <time>2015-05-23T15:04:29Z</time>
      </trkpt>
      <trkpt lat="43.278583" lon="-4.317650">
        <ele>1171.0</ele>
        <time>2015-05-23T15:04:30Z</time>
      </trkpt>
      <trkpt lat="43.278583" lon="-4.317767">
        <ele>1170.0</ele>
        <time>2015-05-23T15:04:31Z</time>
      </trkpt>
      <trkpt lat="43.278600" lon="-4.317867">
        <ele>1171.0</ele>
        <time>2015-05-23T15:04:32Z</time>
      </trkpt>
      <trkpt lat="43.278617" lon="-4.317983">
        <ele>1172.0</ele>
        <time>2015-05-23T15:04:33Z</time>
      </trkpt>
      <trkpt lat="43.278633" lon="-4.318083">
        <ele>1173.0</ele>
        <time>2015-05-23T15:04:34Z</time>
      </trkpt>
      <trkpt lat="43.278650" lon="-4.318183">
        <ele>1173.0</ele>
        <time>2015-05-23T15:04:35Z</time>
      </trkpt>
      <trkpt lat="43.278667" lon="-4.318283">
        <ele>1173.0</ele>
        <time>2015-05-23T15:04:36Z</time>
      </trkpt>
      <trkpt lat="43.278683" lon="-4.318400">
        <ele>1173.0</ele>
        <time>2015-05-23T15:04:37Z</time>
      </trkpt>
      <trkpt lat="43.278700" lon="-4.318500">
        <ele>1173.0</ele>
        <time>2015-05-23T15:04:38Z</time>
      </trkpt>
      <trkpt lat="43.278733" lon="-4.318600">
        <ele>1174.0</ele>
        <time>2015-05-23T15:04:39Z</time>
      </trkpt>
      <trkpt lat="43.278750" lon="-4.318717">
        <ele>1174.0</ele>
        <time>2015-05-23T15:04:40Z</time>
      </trkpt>
      <trkpt lat="43.278767" lon="-4.318817">
        <ele>1175.0</ele>
        <time>2015-05-23T15:04:41Z</time>
      </trkpt>
      <trkpt lat="43.278783" lon="-4.318917">
        <ele>1175.0</ele>
        <time>2015-05-23T15:04:42Z</time>
      </trkpt>
      <trkpt lat="43.278817" lon="-4.319017">
        <ele>1175.0</ele>
        <time>2015-05-23T15:04:43Z</time>
      </trkpt>
      <trkpt lat="43.278850" lon="-4.319133">
        <ele>1175.0</ele>
        <time>2015-05-23T15:04:44Z</time>
      </trkpt>
      <trkpt lat="43.278883" lon="-4.319233">
        <ele>1175.0</ele>
        <time>2015-05-23T15:04:45Z</time>
      </trkpt>
      <trkpt lat="43.278917" lon="-4.319333">
        <ele>1175.0</ele>
        <time>2015-05-23T15:04:46Z</time>
      </trkpt>
      <trkpt lat="43.278950" lon="-4.319400">
        <ele>1176.0</ele>
        <time>2015-05-23T15:04:47Z</time>
      </trkpt>
      <trkpt lat="43.279000" lon="-4.319483">
        <ele>1176.0</ele>
        <time>2015-05-23T15:04:48Z</time>
      </trkpt>
      <trkpt lat="43.279050" lon="-4.319583">
        <ele>1176.0</ele>
        <time>2015-05-23T15:04:49Z</time>
      </trkpt>
      <trkpt lat="43.279083" lon="-4.319667">
        <ele>1176.0</ele>
        <time>2015-05-23T15:04:50Z</time>
      </trkpt>
      <trkpt lat="43.279133" lon="-4.319767">
        <ele>1177.0</ele>
        <time>2015-05-23T15:04:51Z</time>
      </trkpt>
      <trkpt lat="43.279183" lon="-4.319867">
        <ele>1178.0</ele>
        <time>2015-05-23T15:04:52Z</time>
      </trkpt>
      <trkpt lat="43.279217" lon="-4.319950">
        <ele>1178.0</ele>
        <time>2015-05-23T15:04:53Z</time>
      </trkpt>
      <trkpt lat="43.279250" lon="-4.320033">
        <ele>1178.0</ele>
        <time>2015-05-23T15:04:54Z</time>
      </trkpt>
      <trkpt lat="43.279283" lon="-4.320133">
        <ele>1178.0</ele>
        <time>2015-05-23T15:04:55Z</time>
      </trkpt>
      <trkpt lat="43.279300" lon="-4.320233">
        <ele>1177.0</ele>
        <time>2015-05-23T15:04:56Z</time>
      </trkpt>
      <trkpt lat="43.279317" lon="-4.320333">
        <ele>1177.0</ele>
        <time>2015-05-23T15:04:57Z</time>
      </trkpt>
      <trkpt lat="43.279333" lon="-4.320433">
        <ele>1176.0</ele>
        <time>2015-05-23T15:04:58Z</time>
      </trkpt>
      <trkpt lat="43.279333" lon="-4.320533">
        <ele>1176.0</ele>
        <time>2015-05-23T15:04:59Z</time>
      </trkpt>
      <trkpt lat="43.279333" lon="-4.320650">
        <ele>1175.0</ele>
        <time>2015-05-23T15:05:00Z</time>
      </trkpt>
      <trkpt lat="43.279333" lon="-4.320750">
        <ele>1173.0</ele>
        <time>2015-05-23T15:05:01Z</time>
      </trkpt>
      <trkpt lat="43.279333" lon="-4.320867">
        <ele>1171.0</ele>
        <time>2015-05-23T15:05:02Z</time>
      </trkpt>
      <trkpt lat="43.279333" lon="-4.320983">
        <ele>1169.0</ele>
        <time>2015-05-23T15:05:03Z</time>
      </trkpt>
      <trkpt lat="43.279333" lon="-4.321117">
        <ele>1167.0</ele>
        <time>2015-05-23T15:05:04Z</time>
      </trkpt>
      <trkpt lat="43.279333" lon="-4.321250">
        <ele>1166.0</ele>
        <time>2015-05-23T15:05:05Z</time>
      </trkpt>
      <trkpt lat="43.279333" lon="-4.321367">
        <ele>1165.0</ele>
        <time>2015-05-23T15:05:06Z</time>
      </trkpt>
      <trkpt lat="43.279317" lon="-4.321500">
        <ele>1166.0</ele>
        <time>2015-05-23T15:05:07Z</time>
      </trkpt>
      <trkpt lat="43.279300" lon="-4.321633">
        <ele>1165.0</ele>
        <time>2015-05-23T15:05:08Z</time>
      </trkpt>
      <trkpt lat="43.279283" lon="-4.321750">
        <ele>1163.0</ele>
        <time>2015-05-23T15:05:09Z</time>
      </trkpt>
      <trkpt lat="43.279267" lon="-4.321883">
        <ele>1162.0</ele>
        <time>2015-05-23T15:05:10Z</time>
      </trkpt>
      <trkpt lat="43.279267" lon="-4.322000">
        <ele>1160.0</ele>
        <time>2015-05-23T15:05:11Z</time>
      </trkpt>
      <trkpt lat="43.279250" lon="-4.322133">
        <ele>1158.0</ele>
        <time>2015-05-23T15:05:12Z</time>
      </trkpt>
      <trkpt lat="43.279233" lon="-4.322250">
        <ele>1157.0</ele>
        <time>2015-05-23T15:05:13Z</time>
      </trkpt>
      <trkpt lat="43.279217" lon="-4.322383">
        <ele>1155.0</ele>
        <time>2015-05-23T15:05:14Z</time>
      </trkpt>
      <trkpt lat="43.279200" lon="-4.322517">
        <ele>1154.0</ele>
        <time>2015-05-23T15:05:15Z</time>
      </trkpt>
      <trkpt lat="43.279183" lon="-4.322650">
        <ele>1153.0</ele>
        <time>2015-05-23T15:05:16Z</time>
      </trkpt>
      <trkpt lat="43.279183" lon="-4.322783">
        <ele>1151.0</ele>
        <time>2015-05-23T15:05:17Z</time>
      </trkpt>
      <trkpt lat="43.279150" lon="-4.322917">
        <ele>1150.0</ele>
        <time>2015-05-23T15:05:18Z</time>
      </trkpt>
      <trkpt lat="43.279133" lon="-4.323050">
        <ele>1148.0</ele>
        <time>2015-05-23T15:05:19Z</time>
      </trkpt>
      <trkpt lat="43.279117" lon="-4.323183">
        <ele>1147.0</ele>
        <time>2015-05-23T15:05:20Z</time>
      </trkpt>
      <trkpt lat="43.279083" lon="-4.323317">
        <ele>1146.0</ele>
        <time>2015-05-23T15:05:21Z</time>
      </trkpt>
      <trkpt lat="43.279050" lon="-4.323433">
        <ele>1145.0</ele>
        <time>2015-05-23T15:05:22Z</time>
      </trkpt>
      <trkpt lat="43.279017" lon="-4.323567">
        <ele>1143.0</ele>
        <time>2015-05-23T15:05:23Z</time>
      </trkpt>
      <trkpt lat="43.278983" lon="-4.323700">
        <ele>1142.0</ele>
        <time>2015-05-23T15:05:24Z</time>
      </trkpt>
      <trkpt lat="43.278967" lon="-4.323817">
        <ele>1142.0</ele>
        <time>2015-05-23T15:05:25Z</time>
      </trkpt>
      <trkpt lat="43.278933" lon="-4.323933">
        <ele>1142.0</ele>
        <time>2015-05-23T15:05:26Z</time>
      </trkpt>
      <trkpt lat="43.278917" lon="-4.324050">
        <ele>1141.0</ele>
        <time>2015-05-23T15:05:27Z</time>
      </trkpt>
      <trkpt lat="43.278883" lon="-4.324167">
        <ele>1141.0</ele>
        <time>2015-05-23T15:05:28Z</time>
      </trkpt>
      <trkpt lat="43.278867" lon="-4.324300">
        <ele>1141.0</ele>
        <time>2015-05-23T15:05:29Z</time>
      </trkpt>
      <trkpt lat="43.278833" lon="-4.324417">
        <ele>1141.0</ele>
        <time>2015-05-23T15:05:30Z</time>
      </trkpt>
      <trkpt lat="43.278800" lon="-4.324533">
        <ele>1141.0</ele>
        <time>2015-05-23T15:05:31Z</time>
      </trkpt>
      <trkpt lat="43.278783" lon="-4.324667">
        <ele>1141.0</ele>
        <time>2015-05-23T15:05:32Z</time>
      </trkpt>
      <trkpt lat="43.278750" lon="-4.324800">
        <ele>1140.0</ele>
        <time>2015-05-23T15:05:33Z</time>
      </trkpt>
      <trkpt lat="43.278750" lon="-4.324933">
        <ele>1140.0</ele>
        <time>2015-05-23T15:05:34Z</time>
      </trkpt>
      <trkpt lat="43.278717" lon="-4.325067">
        <ele>1140.0</ele>
        <time>2015-05-23T15:05:35Z</time>
      </trkpt>
      <trkpt lat="43.278683" lon="-4.325217">
        <ele>1141.0</ele>
        <time>2015-05-23T15:05:36Z</time>
      </trkpt>
      <trkpt lat="43.278633" lon="-4.325333">
        <ele>1143.0</ele>
        <time>2015-05-23T15:05:37Z</time>
      </trkpt>
      <trkpt lat="43.278617" lon="-4.325450">
        <ele>1144.0</ele>
        <time>2015-05-23T15:05:38Z</time>
      </trkpt>
      <trkpt lat="43.278600" lon="-4.325567">
        <ele>1145.0</ele>
        <time>2015-05-23T15:05:39Z</time>
      </trkpt>
      <trkpt lat="43.278600" lon="-4.325667">
        <ele>1145.0</ele>
        <time>2015-05-23T15:05:40Z</time>
      </trkpt>
      <trkpt lat="43.278600" lon="-4.325767">
        <ele>1144.0</ele>
        <time>2015-05-23T15:05:41Z</time>
      </trkpt>
      <trkpt lat="43.278583" lon="-4.325850">
        <ele>1144.0</ele>
        <time>2015-05-23T15:05:42Z</time>
      </trkpt>
      <trkpt lat="43.278583" lon="-4.325933">
        <ele>1145.0</ele>
        <time>2015-05-23T15:05:43Z</time>
      </trkpt>
      <trkpt lat="43.278583" lon="-4.326017">
        <ele>1145.0</ele>
        <time>2015-05-23T15:05:44Z</time>
      </trkpt>
      <trkpt lat="43.278583" lon="-4.326100">
        <ele>1145.0</ele>
        <time>2015-05-23T15:05:45Z</time>
      </trkpt>
      <trkpt lat="43.278583" lon="-4.326217">
        <ele>1145.0</ele>
        <time>2015-05-23T15:05:46Z</time>
      </trkpt>
      <trkpt lat="43.278583" lon="-4.326333">
        <ele>1145.0</ele>
        <time>2015-05-23T15:05:47Z</time>
      </trkpt>
      <trkpt lat="43.278583" lon="-4.326467">
        <ele>1144.0</ele>
        <time>2015-05-23T15:05:48Z</time>
      </trkpt>
      <trkpt lat="43.278583" lon="-4.326600">
        <ele>1144.0</ele>
        <time>2015-05-23T15:05:49Z</time>
      </trkpt>
      <trkpt lat="43.278583" lon="-4.326733">
        <ele>1144.0</ele>
        <time>2015-05-23T15:05:50Z</time>
      </trkpt>
      <trkpt lat="43.278567" lon="-4.326850">
        <ele>1143.0</ele>
        <time>2015-05-23T15:05:51Z</time>
      </trkpt>
      <trkpt lat="43.278583" lon="-4.326983">
        <ele>1142.0</ele>
        <time>2015-05-23T15:05:52Z</time>
      </trkpt>
      <trkpt lat="43.278600" lon="-4.327117">
        <ele>1140.0</ele>
        <time>2015-05-23T15:05:53Z</time>
      </trkpt>
      <trkpt lat="43.278617" lon="-4.327250">
        <ele>1139.0</ele>
        <time>2015-05-23T15:05:54Z</time>
      </trkpt>
      <trkpt lat="43.278633" lon="-4.327367">
        <ele>1138.0</ele>
        <time>2015-05-23T15:05:55Z</time>
      </trkpt>
      <trkpt lat="43.278633" lon="-4.327483">
        <ele>1136.0</ele>
        <time>2015-05-23T15:05:56Z</time>
      </trkpt>
      <trkpt lat="43.278633" lon="-4.327617">
        <ele>1135.0</ele>
        <time>2015-05-23T15:05:57Z</time>
      </trkpt>
      <trkpt lat="43.278650" lon="-4.327733">
        <ele>1133.0</ele>
        <time>2015-05-23T15:05:58Z</time>
      </trkpt>
      <trkpt lat="43.278667" lon="-4.327867">
        <ele>1132.0</ele>
        <time>2015-05-23T15:05:59Z</time>
      </trkpt>
      <trkpt lat="43.278683" lon="-4.328000">
        <ele>1130.0</ele>
        <time>2015-05-23T15:06:00Z</time>
      </trkpt>
      <trkpt lat="43.278700" lon="-4.328117">
        <ele>1129.0</ele>
        <time>2015-05-23T15:06:01Z</time>
      </trkpt>
      <trkpt lat="43.278717" lon="-4.328233">
        <ele>1128.0</ele>
        <time>2015-05-23T15:06:02Z</time>
      </trkpt>
      <trkpt lat="43.278717" lon="-4.328367">
        <ele>1130.0</ele>
        <time>2015-05-23T15:06:03Z</time>
      </trkpt>
      <trkpt lat="43.278717" lon="-4.328483">
        <ele>1129.0</ele>
        <time>2015-05-23T15:06:04Z</time>
      </trkpt>
      <trkpt lat="43.278717" lon="-4.328600">
        <ele>1129.0</ele>
        <time>2015-05-23T15:06:05Z</time>
      </trkpt>
      <trkpt lat="43.278717" lon="-4.328733">
        <ele>1128.0</ele>
        <time>2015-05-23T15:06:06Z</time>
      </trkpt>
      <trkpt lat="43.278733" lon="-4.328850">
        <ele>1126.0</ele>
        <time>2015-05-23T15:06:07Z</time>
      </trkpt>
      <trkpt lat="43.278733" lon="-4.328983">
        <ele>1125.0</ele>
        <time>2015-05-23T15:06:08Z</time>
      </trkpt>
      <trkpt lat="43.278767" lon="-4.329083">
        <ele>1126.0</ele>
        <time>2015-05-23T15:06:09Z</time>
      </trkpt>
      <trkpt lat="43.278783" lon="-4.329183">
        <ele>1126.0</ele>
        <time>2015-05-23T15:06:10Z</time>
      </trkpt>
      <trkpt lat="43.278800" lon="-4.329300">
        <ele>1125.0</ele>
        <time>2015-05-23T15:06:11Z</time>
      </trkpt>
      <trkpt lat="43.278833" lon="-4.329417">
        <ele>1125.0</ele>
        <time>2015-05-23T15:06:12Z</time>
      </trkpt>
      <trkpt lat="43.278867" lon="-4.329517">
        <ele>1124.0</ele>
        <time>2015-05-23T15:06:13Z</time>
      </trkpt>
      <trkpt lat="43.278917" lon="-4.329617">
        <ele>1122.0</ele>
        <time>2015-05-23T15:06:14Z</time>
      </trkpt>
      <trkpt lat="43.278967" lon="-4.329700">
        <ele>1122.0</ele>
        <time>2015-05-23T15:06:15Z</time>
      </trkpt>
      <trkpt lat="43.279017" lon="-4.329767">
        <ele>1121.0</ele>
        <time>2015-05-23T15:06:16Z</time>
      </trkpt>
      <trkpt lat="43.279083" lon="-4.329833">
        <ele>1120.0</ele>
        <time>2015-05-23T15:06:17Z</time>
      </trkpt>
      <trkpt lat="43.279150" lon="-4.329883">
        <ele>1119.0</ele>
        <time>2015-05-23T15:06:18Z</time>
      </trkpt>
      <trkpt lat="43.279200" lon="-4.329950">
        <ele>1117.0</ele>
        <time>2015-05-23T15:06:19Z</time>
      </trkpt>
      <trkpt lat="43.279283" lon="-4.329983">
        <ele>1116.0</ele>
        <time>2015-05-23T15:06:20Z</time>
      </trkpt>
      <trkpt lat="43.279367" lon="-4.330000">
        <ele>1116.0</ele>
        <time>2015-05-23T15:06:21Z</time>
      </trkpt>
      <trkpt lat="43.279433" lon="-4.330033">
        <ele>1115.0</ele>
        <time>2015-05-23T15:06:22Z</time>
      </trkpt>
      <trkpt lat="43.279467" lon="-4.330067">
        <ele>1114.0</ele>
        <time>2015-05-23T15:06:23Z</time>
      </trkpt>
      <trkpt lat="43.279500" lon="-4.330150">
        <ele>1112.0</ele>
        <time>2015-05-23T15:06:24Z</time>
      </trkpt>
      <trkpt lat="43.279500" lon="-4.330233">
        <ele>1110.0</ele>
        <time>2015-05-23T15:06:25Z</time>
      </trkpt>
      <trkpt lat="43.279500" lon="-4.330350">
        <ele>1108.0</ele>
        <time>2015-05-23T15:06:26Z</time>
      </trkpt>
      <trkpt lat="43.279500" lon="-4.330467">
        <ele>1106.0</ele>
        <time>2015-05-23T15:06:27Z</time>
      </trkpt>
      <trkpt lat="43.279483" lon="-4.330583">
        <ele>1106.0</ele>
        <time>2015-05-23T15:06:28Z</time>
      </trkpt>
      <trkpt lat="43.279450" lon="-4.330683">
        <ele>1104.0</ele>
        <time>2015-05-23T15:06:29Z</time>
      </trkpt>
      <trkpt lat="43.279417" lon="-4.330800">
        <ele>1104.0</ele>
        <time>2015-05-23T15:06:30Z</time>
      </trkpt>
      <trkpt lat="43.279383" lon="-4.330900">
        <ele>1102.0</ele>
        <time>2015-05-23T15:06:31Z</time>
      </trkpt>
      <trkpt lat="43.279350" lon="-4.331000">
        <ele>1101.0</ele>
        <time>2015-05-23T15:06:32Z</time>
      </trkpt>
      <trkpt lat="43.279300" lon="-4.331117">
        <ele>1099.0</ele>
        <time>2015-05-23T15:06:33Z</time>
      </trkpt>
      <trkpt lat="43.279233" lon="-4.331250">
        <ele>1096.0</ele>
        <time>2015-05-23T15:06:34Z</time>
      </trkpt>
      <trkpt lat="43.279183" lon="-4.331367">
        <ele>1094.0</ele>
        <time>2015-05-23T15:06:35Z</time>
      </trkpt>
      <trkpt lat="43.279133" lon="-4.331500">
        <ele>1091.0</ele>
        <time>2015-05-23T15:06:36Z</time>
      </trkpt>
      <trkpt lat="43.279083" lon="-4.331617">
        <ele>1089.0</ele>
        <time>2015-05-23T15:06:37Z</time>
      </trkpt>
      <trkpt lat="43.279050" lon="-4.331733">
        <ele>1085.0</ele>
        <time>2015-05-23T15:06:38Z</time>
      </trkpt>
      <trkpt lat="43.279017" lon="-4.331850">
        <ele>1082.0</ele>
        <time>2015-05-23T15:06:39Z</time>
      </trkpt>
      <trkpt lat="43.278983" lon="-4.331983">
        <ele>1079.0</ele>
        <time>2015-05-23T15:06:40Z</time>
      </trkpt>
      <trkpt lat="43.278933" lon="-4.332100">
        <ele>1076.0</ele>
        <time>2015-05-23T15:06:41Z</time>
      </trkpt>
      <trkpt lat="43.278883" lon="-4.332217">
        <ele>1074.0</ele>
        <time>2015-05-23T15:06:42Z</time>
      </trkpt>
      <trkpt lat="43.278850" lon="-4.332333">
        <ele>1072.0</ele>
        <time>2015-05-23T15:06:43Z</time>
      </trkpt>
      <trkpt lat="43.278800" lon="-4.332450">
        <ele>1075.0</ele>
        <time>2015-05-23T15:06:44Z</time>
      </trkpt>
      <trkpt lat="43.278750" lon="-4.332583">
        <ele>1073.0</ele>
        <time>2015-05-23T15:06:45Z</time>
      </trkpt>
      <trkpt lat="43.278700" lon="-4.332700">
        <ele>1070.0</ele>
        <time>2015-05-23T15:06:46Z</time>
      </trkpt>
      <trkpt lat="43.278650" lon="-4.332833">
        <ele>1068.0</ele>
        <time>2015-05-23T15:06:47Z</time>
      </trkpt>
      <trkpt lat="43.278600" lon="-4.332950">
        <ele>1066.0</ele>
        <time>2015-05-23T15:06:48Z</time>
      </trkpt>
      <trkpt lat="43.278550" lon="-4.333067">
        <ele>1064.0</ele>
        <time>2015-05-23T15:06:49Z</time>
      </trkpt>
      <trkpt lat="43.278517" lon="-4.333183">
        <ele>1062.0</ele>
        <time>2015-05-23T15:06:50Z</time>
      </trkpt>
      <trkpt lat="43.278467" lon="-4.333317">
        <ele>1061.0</ele>
        <time>2015-05-23T15:06:51Z</time>
      </trkpt>
      <trkpt lat="43.278433" lon="-4.333450">
        <ele>1059.0</ele>
        <time>2015-05-23T15:06:52Z</time>
      </trkpt>
      <trkpt lat="43.278400" lon="-4.333583">
        <ele>1057.0</ele>
        <time>2015-05-23T15:06:53Z</time>
      </trkpt>
      <trkpt lat="43.278350" lon="-4.333717">
        <ele>1056.0</ele>
        <time>2015-05-23T15:06:54Z</time>
      </trkpt>
      <trkpt lat="43.278317" lon="-4.333850">
        <ele>1056.0</ele>
        <time>2015-05-23T15:06:55Z</time>
      </trkpt>
      <trkpt lat="43.278283" lon="-4.333967">
        <ele>1055.0</ele>
        <time>2015-05-23T15:06:56Z</time>
      </trkpt>
      <trkpt lat="43.278250" lon="-4.334100">
        <ele>1053.0</ele>
        <time>2015-05-23T15:06:57Z</time>
      </trkpt>
      <trkpt lat="43.278200" lon="-4.334217">
        <ele>1052.0</ele>
        <time>2015-05-23T15:06:58Z</time>
      </trkpt>
      <trkpt lat="43.278150" lon="-4.334350">
        <ele>1051.0</ele>
        <time>2015-05-23T15:06:59Z</time>
      </trkpt>
      <trkpt lat="43.278100" lon="-4.334450">
        <ele>1051.0</ele>
        <time>2015-05-23T15:07:00Z</time>
      </trkpt>
      <trkpt lat="43.278067" lon="-4.334567">
        <ele>1053.0</ele>
        <time>2015-05-23T15:07:01Z</time>
      </trkpt>
      <trkpt lat="43.278033" lon="-4.334683">
        <ele>1053.0</ele>
        <time>2015-05-23T15:07:02Z</time>
      </trkpt>
      <trkpt lat="43.277983" lon="-4.334800">
        <ele>1053.0</ele>
        <time>2015-05-23T15:07:03Z</time>
      </trkpt>
      <trkpt lat="43.277933" lon="-4.334933">
        <ele>1052.0</ele>
        <time>2015-05-23T15:07:04Z</time>
      </trkpt>
      <trkpt lat="43.277883" lon="-4.335050">
        <ele>1052.0</ele>
        <time>2015-05-23T15:07:05Z</time>
      </trkpt>
      <trkpt lat="43.277833" lon="-4.335167">
        <ele>1051.0</ele>
        <time>2015-05-23T15:07:06Z</time>
      </trkpt>
      <trkpt lat="43.277800" lon="-4.335283">
        <ele>1051.0</ele>
        <time>2015-05-23T15:07:07Z</time>
      </trkpt>
      <trkpt lat="43.277750" lon="-4.335383">
        <ele>1050.0</ele>
        <time>2015-05-23T15:07:08Z</time>
      </trkpt>
      <trkpt lat="43.277700" lon="-4.335483">
        <ele>1049.0</ele>
        <time>2015-05-23T15:07:09Z</time>
      </trkpt>
      <trkpt lat="43.277633" lon="-4.335600">
        <ele>1047.0</ele>
        <time>2015-05-23T15:07:10Z</time>
      </trkpt>
      <trkpt lat="43.277567" lon="-4.335733">
        <ele>1046.0</ele>
        <time>2015-05-23T15:07:11Z</time>
      </trkpt>
      <trkpt lat="43.277517" lon="-4.335850">
        <ele>1045.0</ele>
        <time>2015-05-23T15:07:12Z</time>
      </trkpt>
      <trkpt lat="43.277467" lon="-4.335950">
        <ele>1044.0</ele>
        <time>2015-05-23T15:07:13Z</time>
      </trkpt>
      <trkpt lat="43.277417" lon="-4.336067">
        <ele>1043.0</ele>
        <time>2015-05-23T15:07:14Z</time>
      </trkpt>
      <trkpt lat="43.277367" lon="-4.336183">
        <ele>1041.0</ele>
        <time>2015-05-23T15:07:15Z</time>
      </trkpt>
      <trkpt lat="43.277300" lon="-4.336300">
        <ele>1040.0</ele>
        <time>2015-05-23T15:07:16Z</time>
      </trkpt>
      <trkpt lat="43.277250" lon="-4.336433">
        <ele>1038.0</ele>
        <time>2015-05-23T15:07:17Z</time>
      </trkpt>
      <trkpt lat="43.277200" lon="-4.336550">
        <ele>1037.0</ele>
        <time>2015-05-23T15:07:18Z</time>
      </trkpt>
      <trkpt lat="43.277150" lon="-4.336650">
        <ele>1035.0</ele>
        <time>2015-05-23T15:07:19Z</time>
      </trkpt>
      <trkpt lat="43.277100" lon="-4.336767">
        <ele>1034.0</ele>
        <time>2015-05-23T15:07:20Z</time>
      </trkpt>
      <trkpt lat="43.277050" lon="-4.336883">
        <ele>1032.0</ele>
        <time>2015-05-23T15:07:21Z</time>
      </trkpt>
      <trkpt lat="43.277000" lon="-4.337017">
        <ele>1030.0</ele>
        <time>2015-05-23T15:07:22Z</time>
      </trkpt>
      <trkpt lat="43.276950" lon="-4.337133">
        <ele>1030.0</ele>
        <time>2015-05-23T15:07:23Z</time>
      </trkpt>
      <trkpt lat="43.276900" lon="-4.337233">
        <ele>1030.0</ele>
        <time>2015-05-23T15:07:24Z</time>
      </trkpt>
      <trkpt lat="43.276867" lon="-4.337333">
        <ele>1032.0</ele>
        <time>2015-05-23T15:07:25Z</time>
      </trkpt>
      <trkpt lat="43.276817" lon="-4.337450">
        <ele>1032.0</ele>
        <time>2015-05-23T15:07:26Z</time>
      </trkpt>
      <trkpt lat="43.276767" lon="-4.337567">
        <ele>1031.0</ele>
        <time>2015-05-23T15:07:27Z</time>
      </trkpt>
      <trkpt lat="43.276717" lon="-4.337683">
        <ele>1031.0</ele>
        <time>2015-05-23T15:07:28Z</time>
      </trkpt>
      <trkpt lat="43.276667" lon="-4.337817">
        <ele>1030.0</ele>
        <time>2015-05-23T15:07:29Z</time>
      </trkpt>
      <trkpt lat="43.276617" lon="-4.337933">
        <ele>1029.0</ele>
        <time>2015-05-23T15:07:30Z</time>
      </trkpt>
      <trkpt lat="43.276550" lon="-4.338050">
        <ele>1028.0</ele>
        <time>2015-05-23T15:07:31Z</time>
      </trkpt>
      <trkpt lat="43.276500" lon="-4.338167">
        <ele>1026.0</ele>
        <time>2015-05-23T15:07:32Z</time>
      </trkpt>
      <trkpt lat="43.276450" lon="-4.338283">
        <ele>1024.0</ele>
        <time>2015-05-23T15:07:33Z</time>
      </trkpt>
      <trkpt lat="43.276417" lon="-4.338417">
        <ele>1022.0</ele>
        <time>2015-05-23T15:07:34Z</time>
      </trkpt>
      <trkpt lat="43.276367" lon="-4.338533">
        <ele>1020.0</ele>
        <time>2015-05-23T15:07:35Z</time>
      </trkpt>
      <trkpt lat="43.276350" lon="-4.338633">
        <ele>1018.0</ele>
        <time>2015-05-23T15:07:36Z</time>
      </trkpt>
      <trkpt lat="43.276317" lon="-4.338767">
        <ele>1020.0</ele>
        <time>2015-05-23T15:07:37Z</time>
      </trkpt>
      <trkpt lat="43.276317" lon="-4.338867">
        <ele>1019.0</ele>
        <time>2015-05-23T15:07:38Z</time>
      </trkpt>
      <trkpt lat="43.276300" lon="-4.338983">
        <ele>1019.0</ele>
        <time>2015-05-23T15:07:39Z</time>
      </trkpt>
      <trkpt lat="43.276317" lon="-4.339117">
        <ele>1018.0</ele>
        <time>2015-05-23T15:07:40Z</time>
      </trkpt>
      <trkpt lat="43.276350" lon="-4.339217">
        <ele>1017.0</ele>
        <time>2015-05-23T15:07:41Z</time>
      </trkpt>
      <trkpt lat="43.276383" lon="-4.339317">
        <ele>1015.0</ele>
        <time>2015-05-23T15:07:42Z</time>
      </trkpt>
      <trkpt lat="43.276417" lon="-4.339400">
        <ele>1014.0</ele>
        <time>2015-05-23T15:07:43Z</time>
      </trkpt>
      <trkpt lat="43.276450" lon="-4.339483">
        <ele>1012.0</ele>
        <time>2015-05-23T15:07:44Z</time>
      </trkpt>
      <trkpt lat="43.276500" lon="-4.339600">
        <ele>1010.0</ele>
        <time>2015-05-23T15:07:45Z</time>
      </trkpt>
      <trkpt lat="43.276533" lon="-4.339700">
        <ele>1010.0</ele>
        <time>2015-05-23T15:07:46Z</time>
      </trkpt>
      <trkpt lat="43.276583" lon="-4.339817">
        <ele>1009.0</ele>
        <time>2015-05-23T15:07:47Z</time>
      </trkpt>
      <trkpt lat="43.276600" lon="-4.339917">
        <ele>1008.0</ele>
        <time>2015-05-23T15:07:48Z</time>
      </trkpt>
      <trkpt lat="43.276600" lon="-4.340000">
        <ele>1007.0</ele>
        <time>2015-05-23T15:07:49Z</time>
      </trkpt>
      <trkpt lat="43.276600" lon="-4.340100">
        <ele>1006.0</ele>
        <time>2015-05-23T15:07:50Z</time>
      </trkpt>
      <trkpt lat="43.276567" lon="-4.340200">
        <ele>1005.0</ele>
        <time>2015-05-23T15:07:51Z</time>
      </trkpt>
      <trkpt lat="43.276533" lon="-4.340317">
        <ele>1003.0</ele>
        <time>2015-05-23T15:07:52Z</time>
      </trkpt>
      <trkpt lat="43.276500" lon="-4.340433">
        <ele>1002.0</ele>
        <time>2015-05-23T15:07:53Z</time>
      </trkpt>
      <trkpt lat="43.276450" lon="-4.340567">
        <ele>1000.0</ele>
        <time>2015-05-23T15:07:54Z</time>
      </trkpt>
      <trkpt lat="43.276417" lon="-4.340683">
        <ele>997.0</ele>
        <time>2015-05-23T15:07:55Z</time>
      </trkpt>
      <trkpt lat="43.276367" lon="-4.340817">
        <ele>995.0</ele>
        <time>2015-05-23T15:07:56Z</time>
      </trkpt>
      <trkpt lat="43.276333" lon="-4.340933">
        <ele>994.0</ele>
        <time>2015-05-23T15:07:57Z</time>
      </trkpt>
      <trkpt lat="43.276300" lon="-4.341067">
        <ele>991.0</ele>
        <time>2015-05-23T15:07:58Z</time>
      </trkpt>
      <trkpt lat="43.276267" lon="-4.341183">
        <ele>989.0</ele>
        <time>2015-05-23T15:07:59Z</time>
      </trkpt>
      <trkpt lat="43.276233" lon="-4.341317">
        <ele>986.0</ele>
        <time>2015-05-23T15:08:00Z</time>
      </trkpt>
      <trkpt lat="43.276183" lon="-4.341433">
        <ele>983.0</ele>
        <time>2015-05-23T15:08:01Z</time>
      </trkpt>
      <trkpt lat="43.276133" lon="-4.341550">
        <ele>979.0</ele>
        <time>2015-05-23T15:08:02Z</time>
      </trkpt>
      <trkpt lat="43.276100" lon="-4.341667">
        <ele>976.0</ele>
        <time>2015-05-23T15:08:03Z</time>
      </trkpt>
      <trkpt lat="43.276050" lon="-4.341783">
        <ele>973.0</ele>
        <time>2015-05-23T15:08:04Z</time>
      </trkpt>
      <trkpt lat="43.276017" lon="-4.341900">
        <ele>970.0</ele>
        <time>2015-05-23T15:08:05Z</time>
      </trkpt>
      <trkpt lat="43.275983" lon="-4.342017">
        <ele>968.0</ele>
        <time>2015-05-23T15:08:06Z</time>
      </trkpt>
      <trkpt lat="43.275933" lon="-4.342133">
        <ele>965.0</ele>
        <time>2015-05-23T15:08:07Z</time>
      </trkpt>
      <trkpt lat="43.275900" lon="-4.342250">
        <ele>962.0</ele>
        <time>2015-05-23T15:08:08Z</time>
      </trkpt>
      <trkpt lat="43.275867" lon="-4.342367">
        <ele>960.0</ele>
        <time>2015-05-23T15:08:09Z</time>
      </trkpt>
      <trkpt lat="43.275833" lon="-4.342483">
        <ele>957.0</ele>
        <time>2015-05-23T15:08:10Z</time>
      </trkpt>
      <trkpt lat="43.275783" lon="-4.342617">
        <ele>955.0</ele>
        <time>2015-05-23T15:08:11Z</time>
      </trkpt>
      <trkpt lat="43.275717" lon="-4.342767">
        <ele>954.0</ele>
        <time>2015-05-23T15:08:12Z</time>
      </trkpt>
      <trkpt lat="43.275667" lon="-4.342917">
        <ele>955.0</ele>
        <time>2015-05-23T15:08:13Z</time>
      </trkpt>
      <trkpt lat="43.275617" lon="-4.343050">
        <ele>954.0</ele>
        <time>2015-05-23T15:08:14Z</time>
      </trkpt>
      <trkpt lat="43.275567" lon="-4.343183">
        <ele>953.0</ele>
        <time>2015-05-23T15:08:15Z</time>
      </trkpt>
      <trkpt lat="43.275517" lon="-4.343317">
        <ele>952.0</ele>
        <time>2015-05-23T15:08:16Z</time>
      </trkpt>
      <trkpt lat="43.275467" lon="-4.343450">
        <ele>951.0</ele>
        <time>2015-05-23T15:08:17Z</time>
      </trkpt>
      <trkpt lat="43.275417" lon="-4.343567">
        <ele>950.0</ele>
        <time>2015-05-23T15:08:18Z</time>
      </trkpt>
      <trkpt lat="43.275367" lon="-4.343700">
        <ele>950.0</ele>
        <time>2015-05-23T15:08:19Z</time>
      </trkpt>
      <trkpt lat="43.275317" lon="-4.343833">
        <ele>950.0</ele>
        <time>2015-05-23T15:08:20Z</time>
      </trkpt>
      <trkpt lat="43.275267" lon="-4.343967">
        <ele>949.0</ele>
        <time>2015-05-23T15:08:21Z</time>
      </trkpt>
      <trkpt lat="43.275217" lon="-4.344100">
        <ele>948.0</ele>
        <time>2015-05-23T15:08:22Z</time>
      </trkpt>
      <trkpt lat="43.275167" lon="-4.344233">
        <ele>947.0</ele>
        <time>2015-05-23T15:08:23Z</time>
      </trkpt>
      <trkpt lat="43.275117" lon="-4.344367">
        <ele>946.0</ele>
        <time>2015-05-23T15:08:24Z</time>
      </trkpt>
      <trkpt lat="43.275067" lon="-4.344517">
        <ele>945.0</ele>
        <time>2015-05-23T15:08:25Z</time>
      </trkpt>
      <trkpt lat="43.275017" lon="-4.344650">
        <ele>945.0</ele>
        <time>2015-05-23T15:08:26Z</time>
      </trkpt>
      <trkpt lat="43.274967" lon="-4.344783">
        <ele>946.0</ele>
        <time>2015-05-23T15:08:27Z</time>
      </trkpt>
      <trkpt lat="43.274917" lon="-4.344917">
        <ele>947.0</ele>
        <time>2015-05-23T15:08:28Z</time>
      </trkpt>
      <trkpt lat="43.274867" lon="-4.345050">
        <ele>947.0</ele>
        <time>2015-05-23T15:08:29Z</time>
      </trkpt>
      <trkpt lat="43.274817" lon="-4.345183">
        <ele>947.0</ele>
        <time>2015-05-23T15:08:30Z</time>
      </trkpt>
      <trkpt lat="43.274767" lon="-4.345333">
        <ele>946.0</ele>
        <time>2015-05-23T15:08:31Z</time>
      </trkpt>
      <trkpt lat="43.274733" lon="-4.345467">
        <ele>946.0</ele>
        <time>2015-05-23T15:08:32Z</time>
      </trkpt>
      <trkpt lat="43.274700" lon="-4.345617">
        <ele>945.0</ele>
        <time>2015-05-23T15:08:33Z</time>
      </trkpt>
      <trkpt lat="43.274667" lon="-4.345767">
        <ele>945.0</ele>
        <time>2015-05-23T15:08:34Z</time>
      </trkpt>
      <trkpt lat="43.274633" lon="-4.345917">
        <ele>945.0</ele>
        <time>2015-05-23T15:08:35Z</time>
      </trkpt>
      <trkpt lat="43.274600" lon="-4.346050">
        <ele>944.0</ele>
        <time>2015-05-23T15:08:36Z</time>
      </trkpt>
      <trkpt lat="43.274567" lon="-4.346200">
        <ele>944.0</ele>
        <time>2015-05-23T15:08:37Z</time>
      </trkpt>
      <trkpt lat="43.274533" lon="-4.346350">
        <ele>943.0</ele>
        <time>2015-05-23T15:08:38Z</time>
      </trkpt>
      <trkpt lat="43.274500" lon="-4.346517">
        <ele>944.0</ele>
        <time>2015-05-23T15:08:39Z</time>
      </trkpt>
      <trkpt lat="43.274467" lon="-4.346650">
        <ele>946.0</ele>
        <time>2015-05-23T15:08:40Z</time>
      </trkpt>
      <trkpt lat="43.274433" lon="-4.346783">
        <ele>948.0</ele>
        <time>2015-05-23T15:08:41Z</time>
      </trkpt>
      <trkpt lat="43.274417" lon="-4.346900">
        <ele>948.0</ele>
        <time>2015-05-23T15:08:42Z</time>
      </trkpt>
      <trkpt lat="43.274383" lon="-4.347000">
        <ele>947.0</ele>
        <time>2015-05-23T15:08:43Z</time>
      </trkpt>
      <trkpt lat="43.274350" lon="-4.347133">
        <ele>947.0</ele>
        <time>2015-05-23T15:08:44Z</time>
      </trkpt>
      <trkpt lat="43.274317" lon="-4.347267">
        <ele>947.0</ele>
        <time>2015-05-23T15:08:45Z</time>
      </trkpt>
      <trkpt lat="43.274283" lon="-4.347383">
        <ele>948.0</ele>
        <time>2015-05-23T15:08:46Z</time>
      </trkpt>
      <trkpt lat="43.274267" lon="-4.347500">
        <ele>949.0</ele>
        <time>2015-05-23T15:08:47Z</time>
      </trkpt>
      <trkpt lat="43.274233" lon="-4.347617">
        <ele>949.0</ele>
        <time>2015-05-23T15:08:48Z</time>
      </trkpt>
      <trkpt lat="43.274217" lon="-4.347717">
        <ele>949.0</ele>
        <time>2015-05-23T15:08:49Z</time>
      </trkpt>
      <trkpt lat="43.274167" lon="-4.347800">
        <ele>950.0</ele>
        <time>2015-05-23T15:08:50Z</time>
      </trkpt>
      <trkpt lat="43.274133" lon="-4.347900">
        <ele>951.0</ele>
        <time>2015-05-23T15:08:51Z</time>
      </trkpt>
      <trkpt lat="43.274117" lon="-4.348000">
        <ele>952.0</ele>
        <time>2015-05-23T15:08:52Z</time>
      </trkpt>
      <trkpt lat="43.274100" lon="-4.348117">
        <ele>953.0</ele>
        <time>2015-05-23T15:08:53Z</time>
      </trkpt>
      <trkpt lat="43.274083" lon="-4.348233">
        <ele>954.0</ele>
        <time>2015-05-23T15:08:54Z</time>
      </trkpt>
      <trkpt lat="43.274067" lon="-4.348333">
        <ele>956.0</ele>
        <time>2015-05-23T15:08:55Z</time>
      </trkpt>
      <trkpt lat="43.274067" lon="-4.348417">
        <ele>958.0</ele>
        <time>2015-05-23T15:08:56Z</time>
      </trkpt>
      <trkpt lat="43.274067" lon="-4.348517">
        <ele>958.0</ele>
        <time>2015-05-23T15:08:57Z</time>
      </trkpt>
      <trkpt lat="43.274050" lon="-4.348617">
        <ele>959.0</ele>
        <time>2015-05-23T15:08:58Z</time>
      </trkpt>
      <trkpt lat="43.274067" lon="-4.348717">
        <ele>960.0</ele>
        <time>2015-05-23T15:08:59Z</time>
      </trkpt>
      <trkpt lat="43.274067" lon="-4.348817">
        <ele>961.0</ele>
        <time>2015-05-23T15:09:00Z</time>
      </trkpt>
      <trkpt lat="43.274067" lon="-4.348883">
        <ele>963.0</ele>
        <time>2015-05-23T15:09:01Z</time>
      </trkpt>
      <trkpt lat="43.274083" lon="-4.348950">
        <ele>964.0</ele>
        <time>2015-05-23T15:09:02Z</time>
      </trkpt>
      <trkpt lat="43.274100" lon="-4.349017">
        <ele>965.0</ele>
        <time>2015-05-23T15:09:03Z</time>
      </trkpt>
      <trkpt lat="43.274100" lon="-4.349050">
        <ele>966.0</ele>
        <time>2015-05-23T15:09:04Z</time>
      </trkpt>
      <trkpt lat="43.274133" lon="-4.349067">
        <ele>966.0</ele>
        <time>2015-05-23T15:09:05Z</time>
      </trkpt>
      <trkpt lat="43.274150" lon="-4.349050">
        <ele>965.0</ele>
        <time>2015-05-23T15:09:06Z</time>
      </trkpt>
      <trkpt lat="43.274167" lon="-4.349000">
        <ele>966.0</ele>
        <time>2015-05-23T15:09:07Z</time>
      </trkpt>
      <trkpt lat="43.274150" lon="-4.348917">
        <ele>967.0</ele>
        <time>2015-05-23T15:09:08Z</time>
      </trkpt>
      <trkpt lat="43.274117" lon="-4.348833">
        <ele>967.0</ele>
        <time>2015-05-23T15:09:09Z</time>
      </trkpt>
      <trkpt lat="43.274050" lon="-4.348767">
        <ele>966.0</ele>
        <time>2015-05-23T15:09:10Z</time>
      </trkpt>
      <trkpt lat="43.273967" lon="-4.348700">
        <ele>967.0</ele>
        <time>2015-05-23T15:09:11Z</time>
      </trkpt>
      <trkpt lat="43.273867" lon="-4.348667">
        <ele>967.0</ele>
        <time>2015-05-23T15:09:12Z</time>
      </trkpt>
      <trkpt lat="43.273750" lon="-4.348650">
        <ele>967.0</ele>
        <time>2015-05-23T15:09:13Z</time>
      </trkpt>
      <trkpt lat="43.273633" lon="-4.348667">
        <ele>968.0</ele>
        <time>2015-05-23T15:09:14Z</time>
      </trkpt>
      <trkpt lat="43.273517" lon="-4.348717">
        <ele>968.0</ele>
        <time>2015-05-23T15:09:15Z</time>
      </trkpt>
      <trkpt lat="43.273417" lon="-4.348817">
        <ele>969.0</ele>
        <time>2015-05-23T15:09:16Z</time>
      </trkpt>
      <trkpt lat="43.273333" lon="-4.348917">
        <ele>970.0</ele>
        <time>2015-05-23T15:09:17Z</time>
      </trkpt>
      <trkpt lat="43.273283" lon="-4.349033">
        <ele>970.0</ele>
        <time>2015-05-23T15:09:18Z</time>
      </trkpt>
      <trkpt lat="43.273250" lon="-4.349150">
        <ele>971.0</ele>
        <time>2015-05-23T15:09:19Z</time>
      </trkpt>
      <trkpt lat="43.273217" lon="-4.349250">
        <ele>971.0</ele>
        <time>2015-05-23T15:09:20Z</time>
      </trkpt>
      <trkpt lat="43.273217" lon="-4.349333">
        <ele>971.0</ele>
        <time>2015-05-23T15:09:21Z</time>
      </trkpt>
      <trkpt lat="43.273217" lon="-4.349417">
        <ele>972.0</ele>
        <time>2015-05-23T15:09:22Z</time>
      </trkpt>
      <trkpt lat="43.273233" lon="-4.349483">
        <ele>972.0</ele>
        <time>2015-05-23T15:09:23Z</time>
      </trkpt>
      <trkpt lat="43.273250" lon="-4.349533">
        <ele>973.0</ele>
        <time>2015-05-23T15:09:24Z</time>
      </trkpt>
      <trkpt lat="43.273267" lon="-4.349550">
        <ele>973.0</ele>
        <time>2015-05-23T15:09:25Z</time>
      </trkpt>
      <trkpt lat="43.273283" lon="-4.349550">
        <ele>973.0</ele>
        <time>2015-05-23T15:09:26Z</time>
      </trkpt>
      <trkpt lat="43.273317" lon="-4.349533">
        <ele>972.0</ele>
        <time>2015-05-23T15:09:27Z</time>
      </trkpt>
      <trkpt lat="43.273350" lon="-4.349483">
        <ele>972.0</ele>
        <time>2015-05-23T15:09:28Z</time>
      </trkpt>
      <trkpt lat="43.273367" lon="-4.349417">
        <ele>971.0</ele>
        <time>2015-05-23T15:09:29Z</time>
      </trkpt>
      <trkpt lat="43.273400" lon="-4.349350">
        <ele>971.0</ele>
        <time>2015-05-23T15:09:30Z</time>
      </trkpt>
      <trkpt lat="43.273417" lon="-4.349267">
        <ele>972.0</ele>
        <time>2015-05-23T15:09:31Z</time>
      </trkpt>
      <trkpt lat="43.273433" lon="-4.349200">
        <ele>973.0</ele>
        <time>2015-05-23T15:09:32Z</time>
      </trkpt>
      <trkpt lat="43.273433" lon="-4.349150">
        <ele>975.0</ele>
        <time>2015-05-23T15:09:33Z</time>
      </trkpt>
      <trkpt lat="43.273450" lon="-4.349083">
        <ele>976.0</ele>
        <time>2015-05-23T15:09:34Z</time>
      </trkpt>
      <trkpt lat="43.273450" lon="-4.349033">
        <ele>977.0</ele>
        <time>2015-05-23T15:09:35Z</time>
      </trkpt>
      <trkpt lat="43.273450" lon="-4.348983">
        <ele>977.0</ele>
        <time>2015-05-23T15:09:36Z</time>
      </trkpt>
      <trkpt lat="43.273450" lon="-4.348933">
        <ele>976.0</ele>
        <time>2015-05-23T15:09:37Z</time>
      </trkpt>
      <trkpt lat="43.273450" lon="-4.348883">
        <ele>977.0</ele>
        <time>2015-05-23T15:09:38Z</time>
      </trkpt>
      <trkpt lat="43.273467" lon="-4.348800">
        <ele>976.0</ele>
        <time>2015-05-23T15:09:39Z</time>
      </trkpt>
      <trkpt lat="43.273483" lon="-4.348717">
        <ele>976.0</ele>
        <time>2015-05-23T15:09:40Z</time>
      </trkpt>
      <trkpt lat="43.273500" lon="-4.348600">
        <ele>976.0</ele>
        <time>2015-05-23T15:09:41Z</time>
      </trkpt>
      <trkpt lat="43.273500" lon="-4.348517">
        <ele>976.0</ele>
        <time>2015-05-23T15:09:42Z</time>
      </trkpt>
      <trkpt lat="43.273517" lon="-4.348417">
        <ele>976.0</ele>
        <time>2015-05-23T15:09:43Z</time>
      </trkpt>
      <trkpt lat="43.273517" lon="-4.348333">
        <ele>976.0</ele>
        <time>2015-05-23T15:09:44Z</time>
      </trkpt>
      <trkpt lat="43.273533" lon="-4.348250">
        <ele>976.0</ele>
        <time>2015-05-23T15:09:45Z</time>
      </trkpt>
      <trkpt lat="43.273533" lon="-4.348167">
        <ele>975.0</ele>
        <time>2015-05-23T15:09:46Z</time>
      </trkpt>
      <trkpt lat="43.273550" lon="-4.348083">
        <ele>976.0</ele>
        <time>2015-05-23T15:09:47Z</time>
      </trkpt>
      <trkpt lat="43.273567" lon="-4.348000">
        <ele>976.0</ele>
        <time>2015-05-23T15:09:48Z</time>
      </trkpt>
      <trkpt lat="43.273583" lon="-4.347917">
        <ele>976.0</ele>
        <time>2015-05-23T15:09:49Z</time>
      </trkpt>
      <trkpt lat="43.273600" lon="-4.347833">
        <ele>976.0</ele>
        <time>2015-05-23T15:09:50Z</time>
      </trkpt>
      <trkpt lat="43.273617" lon="-4.347767">
        <ele>977.0</ele>
        <time>2015-05-23T15:09:51Z</time>
      </trkpt>
      <trkpt lat="43.273650" lon="-4.347700">
        <ele>977.0</ele>
        <time>2015-05-23T15:09:52Z</time>
      </trkpt>
      <trkpt lat="43.273683" lon="-4.347650">
        <ele>977.0</ele>
        <time>2015-05-23T15:09:53Z</time>
      </trkpt>
      <trkpt lat="43.273700" lon="-4.347600">
        <ele>977.0</ele>
        <time>2015-05-23T15:09:54Z</time>
      </trkpt>
      <trkpt lat="43.273733" lon="-4.347550">
        <ele>977.0</ele>
        <time>2015-05-23T15:09:55Z</time>
      </trkpt>
      <trkpt lat="43.273767" lon="-4.347500">
        <ele>977.0</ele>
        <time>2015-05-23T15:09:56Z</time>
      </trkpt>
      <trkpt lat="43.273783" lon="-4.347467">
        <ele>977.0</ele>
        <time>2015-05-23T15:09:57Z</time>
      </trkpt>
      <trkpt lat="43.273800" lon="-4.347417">
        <ele>977.0</ele>
        <time>2015-05-23T15:09:58Z</time>
      </trkpt>
      <trkpt lat="43.273833" lon="-4.347367">
        <ele>977.0</ele>
        <time>2015-05-23T15:09:59Z</time>
      </trkpt>
      <trkpt lat="43.273850" lon="-4.347317">
        <ele>977.0</ele>
        <time>2015-05-23T15:10:00Z</time>
      </trkpt>
      <trkpt lat="43.273883" lon="-4.347267">
        <ele>977.0</ele>
        <time>2015-05-23T15:10:01Z</time>
      </trkpt>
      <trkpt lat="43.273917" lon="-4.347217">
        <ele>977.0</ele>
        <time>2015-05-23T15:10:02Z</time>
      </trkpt>
      <trkpt lat="43.273950" lon="-4.347150">
        <ele>977.0</ele>
        <time>2015-05-23T15:10:03Z</time>
      </trkpt>
      <trkpt lat="43.273967" lon="-4.347083">
        <ele>977.0</ele>
        <time>2015-05-23T15:10:04Z</time>
      </trkpt>
      <trkpt lat="43.273983" lon="-4.347017">
        <ele>977.0</ele>
        <time>2015-05-23T15:10:05Z</time>
      </trkpt>
      <trkpt lat="43.274000" lon="-4.346967">
        <ele>977.0</ele>
        <time>2015-05-23T15:10:06Z</time>
      </trkpt>
      <trkpt lat="43.274017" lon="-4.346900">
        <ele>977.0</ele>
        <time>2015-05-23T15:10:07Z</time>
      </trkpt>
      <trkpt lat="43.274033" lon="-4.346833">
        <ele>977.0</ele>
        <time>2015-05-23T15:10:08Z</time>
      </trkpt>
      <trkpt lat="43.274050" lon="-4.346767">
        <ele>977.0</ele>
        <time>2015-05-23T15:10:09Z</time>
      </trkpt>
      <trkpt lat="43.274067" lon="-4.346700">
        <ele>978.0</ele>
        <time>2015-05-23T15:10:10Z</time>
      </trkpt>
      <trkpt lat="43.274100" lon="-4.346650">
        <ele>978.0</ele>
        <time>2015-05-23T15:10:11Z</time>
      </trkpt>
      <trkpt lat="43.274117" lon="-4.346583">
        <ele>978.0</ele>
        <time>2015-05-23T15:10:12Z</time>
      </trkpt>
      <trkpt lat="43.274133" lon="-4.346517">
        <ele>978.0</ele>
        <time>2015-05-23T15:10:13Z</time>
      </trkpt>
      <trkpt lat="43.274150" lon="-4.346467">
        <ele>978.0</ele>
        <time>2015-05-23T15:10:14Z</time>
      </trkpt>
      <trkpt lat="43.274167" lon="-4.346400">
        <ele>978.0</ele>
        <time>2015-05-23T15:10:15Z</time>
      </trkpt>
      <trkpt lat="43.274183" lon="-4.346333">
        <ele>978.0</ele>
        <time>2015-05-23T15:10:16Z</time>
      </trkpt>
      <trkpt lat="43.274200" lon="-4.346267">
        <ele>978.0</ele>
        <time>2015-05-23T15:10:17Z</time>
      </trkpt>
      <trkpt lat="43.274200" lon="-4.346183">
        <ele>978.0</ele>
        <time>2015-05-23T15:10:18Z</time>
      </trkpt>
      <trkpt lat="43.274200" lon="-4.346117">
        <ele>978.0</ele>
        <time>2015-05-23T15:10:19Z</time>
      </trkpt>
      <trkpt lat="43.274217" lon="-4.346033">
        <ele>978.0</ele>
        <time>2015-05-23T15:10:20Z</time>
      </trkpt>
      <trkpt lat="43.274233" lon="-4.345950">
        <ele>978.0</ele>
        <time>2015-05-23T15:10:21Z</time>
      </trkpt>
      <trkpt lat="43.274267" lon="-4.345867">
        <ele>978.0</ele>
        <time>2015-05-23T15:10:22Z</time>
      </trkpt>
      <trkpt lat="43.274283" lon="-4.345783">
        <ele>978.0</ele>
        <time>2015-05-23T15:10:23Z</time>
      </trkpt>
      <trkpt lat="43.274300" lon="-4.345700">
        <ele>978.0</ele>
        <time>2015-05-23T15:10:24Z</time>
      </trkpt>
      <trkpt lat="43.274333" lon="-4.345600">
        <ele>978.0</ele>
        <time>2015-05-23T15:10:25Z</time>
      </trkpt>
      <trkpt lat="43.274350" lon="-4.345533">
        <ele>978.0</ele>
        <time>2015-05-23T15:10:26Z</time>
      </trkpt>
      <trkpt lat="43.274383" lon="-4.345467">
        <ele>978.0</ele>
        <time>2015-05-23T15:10:27Z</time>
      </trkpt>
      <trkpt lat="43.274400" lon="-4.345383">
        <ele>978.0</ele>
        <time>2015-05-23T15:10:28Z</time>
      </trkpt>
      <trkpt lat="43.274433" lon="-4.345317">
        <ele>978.0</ele>
        <time>2015-05-23T15:10:29Z</time>
      </trkpt>
      <trkpt lat="43.274483" lon="-4.345250">
        <ele>977.0</ele>
        <time>2015-05-23T15:10:30Z</time>
      </trkpt>
      <trkpt lat="43.274533" lon="-4.345167">
        <ele>978.0</ele>
        <time>2015-05-23T15:10:31Z</time>
      </trkpt>
      <trkpt lat="43.274550" lon="-4.345083">
        <ele>978.0</ele>
        <time>2015-05-23T15:10:32Z</time>
      </trkpt>
      <trkpt lat="43.274583" lon="-4.345000">
        <ele>977.0</ele>
        <time>2015-05-23T15:10:33Z</time>
      </trkpt>
      <trkpt lat="43.274600" lon="-4.344900">
        <ele>977.0</ele>
        <time>2015-05-23T15:10:34Z</time>
      </trkpt>
      <trkpt lat="43.274617" lon="-4.344817">
        <ele>977.0</ele>
        <time>2015-05-23T15:10:35Z</time>
      </trkpt>
      <trkpt lat="43.274633" lon="-4.344733">
        <ele>977.0</ele>
        <time>2015-05-23T15:10:36Z</time>
      </trkpt>
      <trkpt lat="43.274650" lon="-4.344650">
        <ele>977.0</ele>
        <time>2015-05-23T15:10:37Z</time>
      </trkpt>
      <trkpt lat="43.274667" lon="-4.344550">
        <ele>977.0</ele>
        <time>2015-05-23T15:10:38Z</time>
      </trkpt>
      <trkpt lat="43.274683" lon="-4.344450">
        <ele>977.0</ele>
        <time>2015-05-23T15:10:39Z</time>
      </trkpt>
      <trkpt lat="43.274700" lon="-4.344350">
        <ele>977.0</ele>
        <time>2015-05-23T15:10:40Z</time>
      </trkpt>
      <trkpt lat="43.274717" lon="-4.344250">
        <ele>977.0</ele>
        <time>2015-05-23T15:10:41Z</time>
      </trkpt>
      <trkpt lat="43.274750" lon="-4.344167">
        <ele>977.0</ele>
        <time>2015-05-23T15:10:42Z</time>
      </trkpt>
      <trkpt lat="43.274767" lon="-4.344083">
        <ele>976.0</ele>
        <time>2015-05-23T15:10:43Z</time>
      </trkpt>
      <trkpt lat="43.274800" lon="-4.343983">
        <ele>976.0</ele>
        <time>2015-05-23T15:10:44Z</time>
      </trkpt>
      <trkpt lat="43.274817" lon="-4.343900">
        <ele>976.0</ele>
        <time>2015-05-23T15:10:45Z</time>
      </trkpt>
      <trkpt lat="43.274850" lon="-4.343817">
        <ele>976.0</ele>
        <time>2015-05-23T15:10:46Z</time>
      </trkpt>
      <trkpt lat="43.274867" lon="-4.343717">
        <ele>976.0</ele>
        <time>2015-05-23T15:10:47Z</time>
      </trkpt>
      <trkpt lat="43.274900" lon="-4.343633">
        <ele>976.0</ele>
        <time>2015-05-23T15:10:48Z</time>
      </trkpt>
      <trkpt lat="43.274950" lon="-4.343550">
        <ele>976.0</ele>
        <time>2015-05-23T15:10:49Z</time>
      </trkpt>
      <trkpt lat="43.274983" lon="-4.343467">
        <ele>975.0</ele>
        <time>2015-05-23T15:10:50Z</time>
      </trkpt>
      <trkpt lat="43.275000" lon="-4.343400">
        <ele>975.0</ele>
        <time>2015-05-23T15:10:51Z</time>
      </trkpt>
      <trkpt lat="43.275033" lon="-4.343317">
        <ele>975.0</ele>
        <time>2015-05-23T15:10:52Z</time>
      </trkpt>
      <trkpt lat="43.275067" lon="-4.343233">
        <ele>975.0</ele>
        <time>2015-05-23T15:10:53Z</time>
      </trkpt>
      <trkpt lat="43.275100" lon="-4.343133">
        <ele>974.0</ele>
        <time>2015-05-23T15:10:54Z</time>
      </trkpt>
      <trkpt lat="43.275133" lon="-4.343017">
        <ele>974.0</ele>
        <time>2015-05-23T15:10:55Z</time>
      </trkpt>
      <trkpt lat="43.275167" lon="-4.342917">
        <ele>974.0</ele>
        <time>2015-05-23T15:10:56Z</time>
      </trkpt>
      <trkpt lat="43.275167" lon="-4.342800">
        <ele>973.0</ele>
        <time>2015-05-23T15:10:57Z</time>
      </trkpt>
      <trkpt lat="43.275183" lon="-4.342683">
        <ele>973.0</ele>
        <time>2015-05-23T15:10:58Z</time>
      </trkpt>
      <trkpt lat="43.275183" lon="-4.342567">
        <ele>972.0</ele>
        <time>2015-05-23T15:10:59Z</time>
      </trkpt>
      <trkpt lat="43.275200" lon="-4.342433">
        <ele>971.0</ele>
        <time>2015-05-23T15:11:00Z</time>
      </trkpt>
      <trkpt lat="43.275200" lon="-4.342317">
        <ele>971.0</ele>
        <time>2015-05-23T15:11:01Z</time>
      </trkpt>
      <trkpt lat="43.275200" lon="-4.342183">
        <ele>970.0</ele>
        <time>2015-05-23T15:11:02Z</time>
      </trkpt>
      <trkpt lat="43.275200" lon="-4.342050">
        <ele>970.0</ele>
        <time>2015-05-23T15:11:03Z</time>
      </trkpt>
      <trkpt lat="43.275217" lon="-4.341933">
        <ele>969.0</ele>
        <time>2015-05-23T15:11:04Z</time>
      </trkpt>
      <trkpt lat="43.275217" lon="-4.341817">
        <ele>968.0</ele>
        <time>2015-05-23T15:11:05Z</time>
      </trkpt>
      <trkpt lat="43.275233" lon="-4.341700">
        <ele>968.0</ele>
        <time>2015-05-23T15:11:06Z</time>
      </trkpt>
      <trkpt lat="43.275233" lon="-4.341567">
        <ele>968.0</ele>
        <time>2015-05-23T15:11:07Z</time>
      </trkpt>
      <trkpt lat="43.275217" lon="-4.341450">
        <ele>967.0</ele>
        <time>2015-05-23T15:11:08Z</time>
      </trkpt>
      <trkpt lat="43.275217" lon="-4.341317">
        <ele>967.0</ele>
        <time>2015-05-23T15:11:09Z</time>
      </trkpt>
      <trkpt lat="43.275217" lon="-4.341200">
        <ele>967.0</ele>
        <time>2015-05-23T15:11:10Z</time>
      </trkpt>
      <trkpt lat="43.275233" lon="-4.341100">
        <ele>967.0</ele>
        <time>2015-05-23T15:11:11Z</time>
      </trkpt>
      <trkpt lat="43.275250" lon="-4.341000">
        <ele>966.0</ele>
        <time>2015-05-23T15:11:12Z</time>
      </trkpt>
      <trkpt lat="43.275250" lon="-4.340883">
        <ele>966.0</ele>
        <time>2015-05-23T15:11:13Z</time>
      </trkpt>
      <trkpt lat="43.275267" lon="-4.340783">
        <ele>966.0</ele>
        <time>2015-05-23T15:11:14Z</time>
      </trkpt>
      <trkpt lat="43.275267" lon="-4.340650">
        <ele>966.0</ele>
        <time>2015-05-23T15:11:15Z</time>
      </trkpt>
      <trkpt lat="43.275283" lon="-4.340533">
        <ele>965.0</ele>
        <time>2015-05-23T15:11:16Z</time>
      </trkpt>
      <trkpt lat="43.275300" lon="-4.340467">
        <ele>965.0</ele>
        <time>2015-05-23T15:11:17Z</time>
      </trkpt>
      <trkpt lat="43.275317" lon="-4.340383">
        <ele>965.0</ele>
        <time>2015-05-23T15:11:18Z</time>
      </trkpt>
      <trkpt lat="43.275333" lon="-4.340300">
        <ele>965.0</ele>
        <time>2015-05-23T15:11:19Z</time>
      </trkpt>
      <trkpt lat="43.275350" lon="-4.340200">
        <ele>964.0</ele>
        <time>2015-05-23T15:11:20Z</time>
      </trkpt>
      <trkpt lat="43.275383" lon="-4.340100">
        <ele>964.0</ele>
        <time>2015-05-23T15:11:21Z</time>
      </trkpt>
      <trkpt lat="43.275417" lon="-4.339983">
        <ele>964.0</ele>
        <time>2015-05-23T15:11:22Z</time>
      </trkpt>
      <trkpt lat="43.275467" lon="-4.339900">
        <ele>963.0</ele>
        <time>2015-05-23T15:11:23Z</time>
      </trkpt>
      <trkpt lat="43.275500" lon="-4.339817">
        <ele>963.0</ele>
        <time>2015-05-23T15:11:24Z</time>
      </trkpt>
      <trkpt lat="43.275533" lon="-4.339733">
        <ele>963.0</ele>
        <time>2015-05-23T15:11:25Z</time>
      </trkpt>
      <trkpt lat="43.275583" lon="-4.339667">
        <ele>962.0</ele>
        <time>2015-05-23T15:11:26Z</time>
      </trkpt>
      <trkpt lat="43.275617" lon="-4.339583">
        <ele>962.0</ele>
        <time>2015-05-23T15:11:27Z</time>
      </trkpt>
      <trkpt lat="43.275650" lon="-4.339517">
        <ele>961.0</ele>
        <time>2015-05-23T15:11:28Z</time>
      </trkpt>
      <trkpt lat="43.275683" lon="-4.339433">
        <ele>961.0</ele>
        <time>2015-05-23T15:11:29Z</time>
      </trkpt>
      <trkpt lat="43.275733" lon="-4.339350">
        <ele>960.0</ele>
        <time>2015-05-23T15:11:30Z</time>
      </trkpt>
      <trkpt lat="43.275767" lon="-4.339267">
        <ele>960.0</ele>
        <time>2015-05-23T15:11:31Z</time>
      </trkpt>
      <trkpt lat="43.275833" lon="-4.339183">
        <ele>959.0</ele>
        <time>2015-05-23T15:11:32Z</time>
      </trkpt>
      <trkpt lat="43.275883" lon="-4.339100">
        <ele>958.0</ele>
        <time>2015-05-23T15:11:33Z</time>
      </trkpt>
      <trkpt lat="43.275917" lon="-4.339017">
        <ele>957.0</ele>
        <time>2015-05-23T15:11:34Z</time>
      </trkpt>
      <trkpt lat="43.275967" lon="-4.338950">
        <ele>955.0</ele>
        <time>2015-05-23T15:11:35Z</time>
      </trkpt>
      <trkpt lat="43.276000" lon="-4.338867">
        <ele>954.0</ele>
        <time>2015-05-23T15:11:36Z</time>
      </trkpt>
      <trkpt lat="43.276017" lon="-4.338783">
        <ele>953.0</ele>
        <time>2015-05-23T15:11:37Z</time>
      </trkpt>
      <trkpt lat="43.276033" lon="-4.338683">
        <ele>953.0</ele>
        <time>2015-05-23T15:11:38Z</time>
      </trkpt>
      <trkpt lat="43.276083" lon="-4.338583">
        <ele>953.0</ele>
        <time>2015-05-23T15:11:39Z</time>
      </trkpt>
      <trkpt lat="43.276117" lon="-4.338500">
        <ele>952.0</ele>
        <time>2015-05-23T15:11:40Z</time>
      </trkpt>
      <trkpt lat="43.276150" lon="-4.338417">
        <ele>951.0</ele>
        <time>2015-05-23T15:11:41Z</time>
      </trkpt>
      <trkpt lat="43.276167" lon="-4.338317">
        <ele>951.0</ele>
        <time>2015-05-23T15:11:42Z</time>
      </trkpt>
      <trkpt lat="43.276217" lon="-4.338217">
        <ele>950.0</ele>
        <time>2015-05-23T15:11:43Z</time>
      </trkpt>
      <trkpt lat="43.276250" lon="-4.338117">
        <ele>950.0</ele>
        <time>2015-05-23T15:11:44Z</time>
      </trkpt>
      <trkpt lat="43.276317" lon="-4.338033">
        <ele>949.0</ele>
        <time>2015-05-23T15:11:45Z</time>
      </trkpt>
      <trkpt lat="43.276367" lon="-4.337950">
        <ele>948.0</ele>
        <time>2015-05-23T15:11:46Z</time>
      </trkpt>
      <trkpt lat="43.276417" lon="-4.337850">
        <ele>947.0</ele>
        <time>2015-05-23T15:11:47Z</time>
      </trkpt>
      <trkpt lat="43.276450" lon="-4.337767">
        <ele>947.0</ele>
        <time>2015-05-23T15:11:48Z</time>
      </trkpt>
      <trkpt lat="43.276483" lon="-4.337667">
        <ele>946.0</ele>
        <time>2015-05-23T15:11:49Z</time>
      </trkpt>
      <trkpt lat="43.276533" lon="-4.337567">
        <ele>945.0</ele>
        <time>2015-05-23T15:11:50Z</time>
      </trkpt>
      <trkpt lat="43.276567" lon="-4.337467">
        <ele>945.0</ele>
        <time>2015-05-23T15:11:51Z</time>
      </trkpt>
      <trkpt lat="43.276600" lon="-4.337367">
        <ele>944.0</ele>
        <time>2015-05-23T15:11:52Z</time>
      </trkpt>
      <trkpt lat="43.276633" lon="-4.337267">
        <ele>943.0</ele>
        <time>2015-05-23T15:11:53Z</time>
      </trkpt>
      <trkpt lat="43.276650" lon="-4.337183">
        <ele>942.0</ele>
        <time>2015-05-23T15:11:54Z</time>
      </trkpt>
      <trkpt lat="43.276667" lon="-4.337083">
        <ele>941.0</ele>
        <time>2015-05-23T15:11:55Z</time>
      </trkpt>
      <trkpt lat="43.276683" lon="-4.336967">
        <ele>940.0</ele>
        <time>2015-05-23T15:11:56Z</time>
      </trkpt>
      <trkpt lat="43.276717" lon="-4.336850">
        <ele>940.0</ele>
        <time>2015-05-23T15:11:57Z</time>
      </trkpt>
      <trkpt lat="43.276750" lon="-4.336717">
        <ele>939.0</ele>
        <time>2015-05-23T15:11:58Z</time>
      </trkpt>
      <trkpt lat="43.276783" lon="-4.336583">
        <ele>938.0</ele>
        <time>2015-05-23T15:11:59Z</time>
      </trkpt>
      <trkpt lat="43.276800" lon="-4.336450">
        <ele>938.0</ele>
        <time>2015-05-23T15:12:00Z</time>
      </trkpt>
      <trkpt lat="43.276817" lon="-4.336350">
        <ele>937.0</ele>
        <time>2015-05-23T15:12:01Z</time>
      </trkpt>
      <trkpt lat="43.276833" lon="-4.336250">
        <ele>936.0</ele>
        <time>2015-05-23T15:12:02Z</time>
      </trkpt>
      <trkpt lat="43.276833" lon="-4.336183">
        <ele>933.0</ele>
        <time>2015-05-23T15:12:03Z</time>
      </trkpt>
      <trkpt lat="43.276833" lon="-4.336100">
        <ele>932.0</ele>
        <time>2015-05-23T15:12:04Z</time>
      </trkpt>
      <trkpt lat="43.276850" lon="-4.336017">
        <ele>930.0</ele>
        <time>2015-05-23T15:12:05Z</time>
      </trkpt>
      <trkpt lat="43.276867" lon="-4.335900">
        <ele>930.0</ele>
        <time>2015-05-23T15:12:06Z</time>
      </trkpt>
      <trkpt lat="43.276867" lon="-4.335783">
        <ele>930.0</ele>
        <time>2015-05-23T15:12:07Z</time>
      </trkpt>
      <trkpt lat="43.276867" lon="-4.335633">
        <ele>929.0</ele>
        <time>2015-05-23T15:12:08Z</time>
      </trkpt>
      <trkpt lat="43.276867" lon="-4.335517">
        <ele>928.0</ele>
        <time>2015-05-23T15:12:09Z</time>
      </trkpt>
      <trkpt lat="43.276883" lon="-4.335400">
        <ele>927.0</ele>
        <time>2015-05-23T15:12:10Z</time>
      </trkpt>
      <trkpt lat="43.276883" lon="-4.335283">
        <ele>926.0</ele>
        <time>2015-05-23T15:12:11Z</time>
      </trkpt>
      <trkpt lat="43.276900" lon="-4.335167">
        <ele>926.0</ele>
        <time>2015-05-23T15:12:12Z</time>
      </trkpt>
      <trkpt lat="43.276900" lon="-4.335050">
        <ele>925.0</ele>
        <time>2015-05-23T15:12:13Z</time>
      </trkpt>
      <trkpt lat="43.276900" lon="-4.334933">
        <ele>925.0</ele>
        <time>2015-05-23T15:12:14Z</time>
      </trkpt>
      <trkpt lat="43.276900" lon="-4.334800">
        <ele>924.0</ele>
        <time>2015-05-23T15:12:15Z</time>
      </trkpt>
      <trkpt lat="43.276900" lon="-4.334683">
        <ele>924.0</ele>
        <time>2015-05-23T15:12:16Z</time>
      </trkpt>
      <trkpt lat="43.276917" lon="-4.334550">
        <ele>923.0</ele>
        <time>2015-05-23T15:12:17Z</time>
      </trkpt>
      <trkpt lat="43.276933" lon="-4.334433">
        <ele>923.0</ele>
        <time>2015-05-23T15:12:18Z</time>
      </trkpt>
      <trkpt lat="43.276933" lon="-4.334317">
        <ele>922.0</ele>
        <time>2015-05-23T15:12:19Z</time>
      </trkpt>
      <trkpt lat="43.276933" lon="-4.334200">
        <ele>922.0</ele>
        <time>2015-05-23T15:12:20Z</time>
      </trkpt>
      <trkpt lat="43.276933" lon="-4.334083">
        <ele>921.0</ele>
        <time>2015-05-23T15:12:21Z</time>
      </trkpt>
      <trkpt lat="43.276950" lon="-4.333967">
        <ele>921.0</ele>
        <time>2015-05-23T15:12:22Z</time>
      </trkpt>
      <trkpt lat="43.276950" lon="-4.333850">
        <ele>920.0</ele>
        <time>2015-05-23T15:12:23Z</time>
      </trkpt>
      <trkpt lat="43.276950" lon="-4.333750">
        <ele>920.0</ele>
        <time>2015-05-23T15:12:24Z</time>
      </trkpt>
      <trkpt lat="43.276967" lon="-4.333633">
        <ele>919.0</ele>
        <time>2015-05-23T15:12:25Z</time>
      </trkpt>
      <trkpt lat="43.276967" lon="-4.333517">
        <ele>919.0</ele>
        <time>2015-05-23T15:12:26Z</time>
      </trkpt>
      <trkpt lat="43.276967" lon="-4.333417">
        <ele>919.0</ele>
        <time>2015-05-23T15:12:27Z</time>
      </trkpt>
      <trkpt lat="43.276950" lon="-4.333333">
        <ele>919.0</ele>
        <time>2015-05-23T15:12:28Z</time>
      </trkpt>
      <trkpt lat="43.276917" lon="-4.333250">
        <ele>919.0</ele>
        <time>2015-05-23T15:12:29Z</time>
      </trkpt>
      <trkpt lat="43.276900" lon="-4.333150">
        <ele>919.0</ele>
        <time>2015-05-23T15:12:30Z</time>
      </trkpt>
      <trkpt lat="43.276883" lon="-4.333050">
        <ele>919.0</ele>
        <time>2015-05-23T15:12:31Z</time>
      </trkpt>
      <trkpt lat="43.276917" lon="-4.332967">
        <ele>919.0</ele>
        <time>2015-05-23T15:12:32Z</time>
      </trkpt>
      <trkpt lat="43.276950" lon="-4.332917">
        <ele>920.0</ele>
        <time>2015-05-23T15:12:33Z</time>
      </trkpt>
      <trkpt lat="43.276967" lon="-4.332883">
        <ele>921.0</ele>
        <time>2015-05-23T15:12:34Z</time>
      </trkpt>
      <trkpt lat="43.277000" lon="-4.332850">
        <ele>921.0</ele>
        <time>2015-05-23T15:12:35Z</time>
      </trkpt>
      <trkpt lat="43.277017" lon="-4.332817">
        <ele>922.0</ele>
        <time>2015-05-23T15:12:36Z</time>
      </trkpt>
      <trkpt lat="43.277033" lon="-4.332800">
        <ele>920.0</ele>
        <time>2015-05-23T15:12:37Z</time>
      </trkpt>
      <trkpt lat="43.277083" lon="-4.332800">
        <ele>919.0</ele>
        <time>2015-05-23T15:12:38Z</time>
      </trkpt>
      <trkpt lat="43.277133" lon="-4.332833">
        <ele>920.0</ele>
        <time>2015-05-23T15:12:39Z</time>
      </trkpt>
      <trkpt lat="43.277150" lon="-4.332883">
        <ele>921.0</ele>
        <time>2015-05-23T15:12:40Z</time>
      </trkpt>
      <trkpt lat="43.277133" lon="-4.332950">
        <ele>922.0</ele>
        <time>2015-05-23T15:12:41Z</time>
      </trkpt>
      <trkpt lat="43.277083" lon="-4.333017">
        <ele>923.0</ele>
        <time>2015-05-23T15:12:42Z</time>
      </trkpt>
      <trkpt lat="43.277017" lon="-4.333083">
        <ele>924.0</ele>
        <time>2015-05-23T15:12:43Z</time>
      </trkpt>
      <trkpt lat="43.276967" lon="-4.333150">
        <ele>927.0</ele>
        <time>2015-05-23T15:12:44Z</time>
      </trkpt>
      <trkpt lat="43.276900" lon="-4.333183">
        <ele>929.0</ele>
        <time>2015-05-23T15:12:45Z</time>
      </trkpt>
      <trkpt lat="43.276817" lon="-4.333217">
        <ele>931.0</ele>
        <time>2015-05-23T15:12:46Z</time>
      </trkpt>
      <trkpt lat="43.276717" lon="-4.333217">
        <ele>931.0</ele>
        <time>2015-05-23T15:12:47Z</time>
      </trkpt>
      <trkpt lat="43.276617" lon="-4.333183">
        <ele>933.0</ele>
        <time>2015-05-23T15:12:48Z</time>
      </trkpt>
      <trkpt lat="43.276517" lon="-4.333117">
        <ele>935.0</ele>
        <time>2015-05-23T15:12:49Z</time>
      </trkpt>
      <trkpt lat="43.276433" lon="-4.333033">
        <ele>938.0</ele>
        <time>2015-05-23T15:12:50Z</time>
      </trkpt>
      <trkpt lat="43.276383" lon="-4.332950">
        <ele>941.0</ele>
        <time>2015-05-23T15:12:51Z</time>
      </trkpt>
      <trkpt lat="43.276350" lon="-4.332833">
        <ele>943.0</ele>
        <time>2015-05-23T15:12:52Z</time>
      </trkpt>
      <trkpt lat="43.276317" lon="-4.332733">
        <ele>945.0</ele>
        <time>2015-05-23T15:12:53Z</time>
      </trkpt>
      <trkpt lat="43.276317" lon="-4.332617">
        <ele>946.0</ele>
        <time>2015-05-23T15:12:54Z</time>
      </trkpt>
      <trkpt lat="43.276317" lon="-4.332517">
        <ele>948.0</ele>
        <time>2015-05-23T15:12:55Z</time>
      </trkpt>
      <trkpt lat="43.276350" lon="-4.332467">
        <ele>948.0</ele>
        <time>2015-05-23T15:12:56Z</time>
      </trkpt>
      <trkpt lat="43.276383" lon="-4.332433">
        <ele>948.0</ele>
        <time>2015-05-23T15:12:57Z</time>
      </trkpt>
      <trkpt lat="43.276417" lon="-4.332433">
        <ele>948.0</ele>
        <time>2015-05-23T15:12:58Z</time>
      </trkpt>
      <trkpt lat="43.276450" lon="-4.332450">
        <ele>948.0</ele>
        <time>2015-05-23T15:12:59Z</time>
      </trkpt>
      <trkpt lat="43.276467" lon="-4.332483">
        <ele>948.0</ele>
        <time>2015-05-23T15:13:00Z</time>
      </trkpt>
      <trkpt lat="43.276483" lon="-4.332533">
        <ele>949.0</ele>
        <time>2015-05-23T15:13:01Z</time>
      </trkpt>
      <trkpt lat="43.276483" lon="-4.332600">
        <ele>950.0</ele>
        <time>2015-05-23T15:13:02Z</time>
      </trkpt>
      <trkpt lat="43.276450" lon="-4.332683">
        <ele>951.0</ele>
        <time>2015-05-23T15:13:03Z</time>
      </trkpt>
      <trkpt lat="43.276417" lon="-4.332767">
        <ele>952.0</ele>
        <time>2015-05-23T15:13:04Z</time>
      </trkpt>
      <trkpt lat="43.276350" lon="-4.332850">
        <ele>952.0</ele>
        <time>2015-05-23T15:13:05Z</time>
      </trkpt>
      <trkpt lat="43.276250" lon="-4.332917">
        <ele>952.0</ele>
        <time>2015-05-23T15:13:06Z</time>
      </trkpt>
      <trkpt lat="43.276133" lon="-4.332933">
        <ele>953.0</ele>
        <time>2015-05-23T15:13:07Z</time>
      </trkpt>
      <trkpt lat="43.276033" lon="-4.332883">
        <ele>955.0</ele>
        <time>2015-05-23T15:13:08Z</time>
      </trkpt>
      <trkpt lat="43.275933" lon="-4.332817">
        <ele>957.0</ele>
        <time>2015-05-23T15:13:09Z</time>
      </trkpt>
      <trkpt lat="43.275867" lon="-4.332750">
        <ele>960.0</ele>
        <time>2015-05-23T15:13:10Z</time>
      </trkpt>
      <trkpt lat="43.275800" lon="-4.332667">
        <ele>962.0</ele>
        <time>2015-05-23T15:13:11Z</time>
      </trkpt>
      <trkpt lat="43.275750" lon="-4.332567">
        <ele>965.0</ele>
        <time>2015-05-23T15:13:12Z</time>
      </trkpt>
      <trkpt lat="43.275700" lon="-4.332483">
        <ele>966.0</ele>
        <time>2015-05-23T15:13:13Z</time>
      </trkpt>
      <trkpt lat="43.275667" lon="-4.332383">
        <ele>967.0</ele>
        <time>2015-05-23T15:13:14Z</time>
      </trkpt>
      <trkpt lat="43.275650" lon="-4.332283">
        <ele>967.0</ele>
        <time>2015-05-23T15:13:15Z</time>
      </trkpt>
      <trkpt lat="43.275633" lon="-4.332183">
        <ele>967.0</ele>
        <time>2015-05-23T15:13:16Z</time>
      </trkpt>
      <trkpt lat="43.275617" lon="-4.332100">
        <ele>967.0</ele>
        <time>2015-05-23T15:13:17Z</time>
      </trkpt>
      <trkpt lat="43.275600" lon="-4.332017">
        <ele>966.0</ele>
        <time>2015-05-23T15:13:18Z</time>
      </trkpt>
      <trkpt lat="43.275600" lon="-4.331933">
        <ele>964.0</ele>
        <time>2015-05-23T15:13:19Z</time>
      </trkpt>
      <trkpt lat="43.275583" lon="-4.331850">
        <ele>963.0</ele>
        <time>2015-05-23T15:13:20Z</time>
      </trkpt>
      <trkpt lat="43.275567" lon="-4.331733">
        <ele>961.0</ele>
        <time>2015-05-23T15:13:21Z</time>
      </trkpt>
      <trkpt lat="43.275533" lon="-4.331633">
        <ele>960.0</ele>
        <time>2015-05-23T15:13:22Z</time>
      </trkpt>
      <trkpt lat="43.275517" lon="-4.331517">
        <ele>959.0</ele>
        <time>2015-05-23T15:13:23Z</time>
      </trkpt>
      <trkpt lat="43.275500" lon="-4.331400">
        <ele>958.0</ele>
        <time>2015-05-23T15:13:24Z</time>
      </trkpt>
      <trkpt lat="43.275500" lon="-4.331283">
        <ele>958.0</ele>
        <time>2015-05-23T15:13:25Z</time>
      </trkpt>
      <trkpt lat="43.275500" lon="-4.331167">
        <ele>958.0</ele>
        <time>2015-05-23T15:13:26Z</time>
      </trkpt>
      <trkpt lat="43.275483" lon="-4.331033">
        <ele>958.0</ele>
        <time>2015-05-23T15:13:27Z</time>
      </trkpt>
      <trkpt lat="43.275467" lon="-4.330900">
        <ele>959.0</ele>
        <time>2015-05-23T15:13:28Z</time>
      </trkpt>
      <trkpt lat="43.275433" lon="-4.330783">
        <ele>960.0</ele>
        <time>2015-05-23T15:13:29Z</time>
      </trkpt>
      <trkpt lat="43.275417" lon="-4.330667">
        <ele>961.0</ele>
        <time>2015-05-23T15:13:30Z</time>
      </trkpt>
      <trkpt lat="43.275400" lon="-4.330567">
        <ele>962.0</ele>
        <time>2015-05-23T15:13:31Z</time>
      </trkpt>
      <trkpt lat="43.275400" lon="-4.330450">
        <ele>963.0</ele>
        <time>2015-05-23T15:13:32Z</time>
      </trkpt>
      <trkpt lat="43.275400" lon="-4.330333">
        <ele>964.0</ele>
        <time>2015-05-23T15:13:33Z</time>
      </trkpt>
      <trkpt lat="43.275383" lon="-4.330217">
        <ele>965.0</ele>
        <time>2015-05-23T15:13:34Z</time>
      </trkpt>
      <trkpt lat="43.275367" lon="-4.330117">
        <ele>967.0</ele>
        <time>2015-05-23T15:13:35Z</time>
      </trkpt>
      <trkpt lat="43.275350" lon="-4.330017">
        <ele>968.0</ele>
        <time>2015-05-23T15:13:36Z</time>
      </trkpt>
      <trkpt lat="43.275333" lon="-4.329933">
        <ele>968.0</ele>
        <time>2015-05-23T15:13:37Z</time>
      </trkpt>
      <trkpt lat="43.275317" lon="-4.329850">
        <ele>968.0</ele>
        <time>2015-05-23T15:13:38Z</time>
      </trkpt>
      <trkpt lat="43.275300" lon="-4.329767">
        <ele>967.0</ele>
        <time>2015-05-23T15:13:39Z</time>
      </trkpt>
      <trkpt lat="43.275300" lon="-4.329683">
        <ele>967.0</ele>
        <time>2015-05-23T15:13:40Z</time>
      </trkpt>
      <trkpt lat="43.275283" lon="-4.329583">
        <ele>965.0</ele>
        <time>2015-05-23T15:13:41Z</time>
      </trkpt>
      <trkpt lat="43.275267" lon="-4.329483">
        <ele>964.0</ele>
        <time>2015-05-23T15:13:42Z</time>
      </trkpt>
      <trkpt lat="43.275250" lon="-4.329383">
        <ele>963.0</ele>
        <time>2015-05-23T15:13:43Z</time>
      </trkpt>
      <trkpt lat="43.275233" lon="-4.329267">
        <ele>963.0</ele>
        <time>2015-05-23T15:13:44Z</time>
      </trkpt>
      <trkpt lat="43.275233" lon="-4.329167">
        <ele>963.0</ele>
        <time>2015-05-23T15:13:45Z</time>
      </trkpt>
      <trkpt lat="43.275217" lon="-4.329083">
        <ele>962.0</ele>
        <time>2015-05-23T15:13:46Z</time>
      </trkpt>
      <trkpt lat="43.275217" lon="-4.329000">
        <ele>962.0</ele>
        <time>2015-05-23T15:13:47Z</time>
      </trkpt>
      <trkpt lat="43.275200" lon="-4.328917">
        <ele>961.0</ele>
        <time>2015-05-23T15:13:48Z</time>
      </trkpt>
      <trkpt lat="43.275183" lon="-4.328833">
        <ele>960.0</ele>
        <time>2015-05-23T15:13:49Z</time>
      </trkpt>
      <trkpt lat="43.275183" lon="-4.328717">
        <ele>958.0</ele>
        <time>2015-05-23T15:13:50Z</time>
      </trkpt>
      <trkpt lat="43.275183" lon="-4.328600">
        <ele>957.0</ele>
        <time>2015-05-23T15:13:51Z</time>
      </trkpt>
      <trkpt lat="43.275183" lon="-4.328500">
        <ele>959.0</ele>
        <time>2015-05-23T15:13:52Z</time>
      </trkpt>
      <trkpt lat="43.275167" lon="-4.328400">
        <ele>958.0</ele>
        <time>2015-05-23T15:13:53Z</time>
      </trkpt>
      <trkpt lat="43.275167" lon="-4.328300">
        <ele>957.0</ele>
        <time>2015-05-23T15:13:54Z</time>
      </trkpt>
      <trkpt lat="43.275167" lon="-4.328200">
        <ele>956.0</ele>
        <time>2015-05-23T15:13:55Z</time>
      </trkpt>
      <trkpt lat="43.275167" lon="-4.328083">
        <ele>956.0</ele>
        <time>2015-05-23T15:13:56Z</time>
      </trkpt>
      <trkpt lat="43.275183" lon="-4.327983">
        <ele>955.0</ele>
        <time>2015-05-23T15:13:57Z</time>
      </trkpt>
      <trkpt lat="43.275183" lon="-4.327883">
        <ele>955.0</ele>
        <time>2015-05-23T15:13:58Z</time>
      </trkpt>
      <trkpt lat="43.275183" lon="-4.327783">
        <ele>954.0</ele>
        <time>2015-05-23T15:13:59Z</time>
      </trkpt>
      <trkpt lat="43.275183" lon="-4.327683">
        <ele>953.0</ele>
        <time>2015-05-23T15:14:00Z</time>
      </trkpt>
      <trkpt lat="43.275200" lon="-4.327583">
        <ele>953.0</ele>
        <time>2015-05-23T15:14:01Z</time>
      </trkpt>
      <trkpt lat="43.275200" lon="-4.327483">
        <ele>952.0</ele>
        <time>2015-05-23T15:14:02Z</time>
      </trkpt>
      <trkpt lat="43.275200" lon="-4.327383">
        <ele>951.0</ele>
        <time>2015-05-23T15:14:03Z</time>
      </trkpt>
      <trkpt lat="43.275217" lon="-4.327300">
        <ele>951.0</ele>
        <time>2015-05-23T15:14:04Z</time>
      </trkpt>
      <trkpt lat="43.275233" lon="-4.327217">
        <ele>950.0</ele>
        <time>2015-05-23T15:14:05Z</time>
      </trkpt>
      <trkpt lat="43.275250" lon="-4.327117">
        <ele>950.0</ele>
        <time>2015-05-23T15:14:06Z</time>
      </trkpt>
      <trkpt lat="43.275267" lon="-4.327033">
        <ele>949.0</ele>
        <time>2015-05-23T15:14:07Z</time>
      </trkpt>
      <trkpt lat="43.275300" lon="-4.326933">
        <ele>948.0</ele>
        <time>2015-05-23T15:14:08Z</time>
      </trkpt>
      <trkpt lat="43.275333" lon="-4.326850">
        <ele>948.0</ele>
        <time>2015-05-23T15:14:09Z</time>
      </trkpt>
      <trkpt lat="43.275367" lon="-4.326750">
        <ele>947.0</ele>
        <time>2015-05-23T15:14:10Z</time>
      </trkpt>
      <trkpt lat="43.275400" lon="-4.326667">
        <ele>947.0</ele>
        <time>2015-05-23T15:14:11Z</time>
      </trkpt>
      <trkpt lat="43.275417" lon="-4.326583">
        <ele>946.0</ele>
        <time>2015-05-23T15:14:12Z</time>
      </trkpt>
      <trkpt lat="43.275450" lon="-4.326483">
        <ele>945.0</ele>
        <time>2015-05-23T15:14:13Z</time>
      </trkpt>
      <trkpt lat="43.275467" lon="-4.326400">
        <ele>943.0</ele>
        <time>2015-05-23T15:14:14Z</time>
      </trkpt>
      <trkpt lat="43.275500" lon="-4.326283">
        <ele>943.0</ele>
        <time>2015-05-23T15:14:15Z</time>
      </trkpt>
      <trkpt lat="43.275500" lon="-4.326150">
        <ele>943.0</ele>
        <time>2015-05-23T15:14:16Z</time>
      </trkpt>
      <trkpt lat="43.275500" lon="-4.326017">
        <ele>942.0</ele>
        <time>2015-05-23T15:14:17Z</time>
      </trkpt>
      <trkpt lat="43.275483" lon="-4.325883">
        <ele>942.0</ele>
        <time>2015-05-23T15:14:18Z</time>
      </trkpt>
      <trkpt lat="43.275467" lon="-4.325783">
        <ele>941.0</ele>
        <time>2015-05-23T15:14:19Z</time>
      </trkpt>
      <trkpt lat="43.275450" lon="-4.325683">
        <ele>940.0</ele>
        <time>2015-05-23T15:14:20Z</time>
      </trkpt>
      <trkpt lat="43.275450" lon="-4.325600">
        <ele>939.0</ele>
        <time>2015-05-23T15:14:21Z</time>
      </trkpt>
      <trkpt lat="43.275433" lon="-4.325483">
        <ele>936.0</ele>
        <time>2015-05-23T15:14:22Z</time>
      </trkpt>
      <trkpt lat="43.275433" lon="-4.325383">
        <ele>936.0</ele>
        <time>2015-05-23T15:14:23Z</time>
      </trkpt>
      <trkpt lat="43.275433" lon="-4.325267">
        <ele>936.0</ele>
        <time>2015-05-23T15:14:24Z</time>
      </trkpt>
      <trkpt lat="43.275433" lon="-4.325150">
        <ele>936.0</ele>
        <time>2015-05-23T15:14:25Z</time>
      </trkpt>
      <trkpt lat="43.275433" lon="-4.325050">
        <ele>935.0</ele>
        <time>2015-05-23T15:14:26Z</time>
      </trkpt>
      <trkpt lat="43.275417" lon="-4.324967">
        <ele>935.0</ele>
        <time>2015-05-23T15:14:27Z</time>
      </trkpt>
      <trkpt lat="43.275417" lon="-4.324850">
        <ele>934.0</ele>
        <time>2015-05-23T15:14:28Z</time>
      </trkpt>
      <trkpt lat="43.275417" lon="-4.324750">
        <ele>934.0</ele>
        <time>2015-05-23T15:14:29Z</time>
      </trkpt>
      <trkpt lat="43.275417" lon="-4.324633">
        <ele>933.0</ele>
        <time>2015-05-23T15:14:30Z</time>
      </trkpt>
      <trkpt lat="43.275417" lon="-4.324517">
        <ele>933.0</ele>
        <time>2015-05-23T15:14:31Z</time>
      </trkpt>
      <trkpt lat="43.275400" lon="-4.324417">
        <ele>933.0</ele>
        <time>2015-05-23T15:14:32Z</time>
      </trkpt>
      <trkpt lat="43.275400" lon="-4.324333">
        <ele>932.0</ele>
        <time>2015-05-23T15:14:33Z</time>
      </trkpt>
      <trkpt lat="43.275383" lon="-4.324233">
        <ele>932.0</ele>
        <time>2015-05-23T15:14:34Z</time>
      </trkpt>
      <trkpt lat="43.275383" lon="-4.324117">
        <ele>930.0</ele>
        <time>2015-05-23T15:14:35Z</time>
      </trkpt>
      <trkpt lat="43.275383" lon="-4.323983">
        <ele>931.0</ele>
        <time>2015-05-23T15:14:36Z</time>
      </trkpt>
      <trkpt lat="43.275383" lon="-4.323833">
        <ele>930.0</ele>
        <time>2015-05-23T15:14:37Z</time>
      </trkpt>
      <trkpt lat="43.275383" lon="-4.323717">
        <ele>930.0</ele>
        <time>2015-05-23T15:14:38Z</time>
      </trkpt>
      <trkpt lat="43.275383" lon="-4.323617">
        <ele>930.0</ele>
        <time>2015-05-23T15:14:39Z</time>
      </trkpt>
      <trkpt lat="43.275367" lon="-4.323533">
        <ele>929.0</ele>
        <time>2015-05-23T15:14:40Z</time>
      </trkpt>
      <trkpt lat="43.275367" lon="-4.323417">
        <ele>927.0</ele>
        <time>2015-05-23T15:14:41Z</time>
      </trkpt>
      <trkpt lat="43.275367" lon="-4.323300">
        <ele>925.0</ele>
        <time>2015-05-23T15:14:42Z</time>
      </trkpt>
      <trkpt lat="43.275367" lon="-4.323183">
        <ele>923.0</ele>
        <time>2015-05-23T15:14:43Z</time>
      </trkpt>
      <trkpt lat="43.275367" lon="-4.323050">
        <ele>922.0</ele>
        <time>2015-05-23T15:14:44Z</time>
      </trkpt>
      <trkpt lat="43.275350" lon="-4.322917">
        <ele>921.0</ele>
        <time>2015-05-23T15:14:45Z</time>
      </trkpt>
      <trkpt lat="43.275333" lon="-4.322800">
        <ele>919.0</ele>
        <time>2015-05-23T15:14:46Z</time>
      </trkpt>
      <trkpt lat="43.275333" lon="-4.322667">
        <ele>917.0</ele>
        <time>2015-05-23T15:14:47Z</time>
      </trkpt>
      <trkpt lat="43.275317" lon="-4.322550">
        <ele>915.0</ele>
        <time>2015-05-23T15:14:48Z</time>
      </trkpt>
      <trkpt lat="43.275300" lon="-4.322400">
        <ele>913.0</ele>
        <time>2015-05-23T15:14:49Z</time>
      </trkpt>
      <trkpt lat="43.275283" lon="-4.322283">
        <ele>912.0</ele>
        <time>2015-05-23T15:14:50Z</time>
      </trkpt>
      <trkpt lat="43.275267" lon="-4.322150">
        <ele>910.0</ele>
        <time>2015-05-23T15:14:51Z</time>
      </trkpt>
      <trkpt lat="43.275267" lon="-4.322033">
        <ele>908.0</ele>
        <time>2015-05-23T15:14:52Z</time>
      </trkpt>
      <trkpt lat="43.275267" lon="-4.321900">
        <ele>907.0</ele>
        <time>2015-05-23T15:14:53Z</time>
      </trkpt>
      <trkpt lat="43.275250" lon="-4.321783">
        <ele>905.0</ele>
        <time>2015-05-23T15:14:54Z</time>
      </trkpt>
      <trkpt lat="43.275233" lon="-4.321650">
        <ele>903.0</ele>
        <time>2015-05-23T15:14:55Z</time>
      </trkpt>
      <trkpt lat="43.275217" lon="-4.321517">
        <ele>901.0</ele>
        <time>2015-05-23T15:14:56Z</time>
      </trkpt>
      <trkpt lat="43.275217" lon="-4.321383">
        <ele>899.0</ele>
        <time>2015-05-23T15:14:57Z</time>
      </trkpt>
      <trkpt lat="43.275200" lon="-4.321250">
        <ele>897.0</ele>
        <time>2015-05-23T15:14:58Z</time>
      </trkpt>
      <trkpt lat="43.275200" lon="-4.321117">
        <ele>896.0</ele>
        <time>2015-05-23T15:14:59Z</time>
      </trkpt>
      <trkpt lat="43.275200" lon="-4.321000">
        <ele>895.0</ele>
        <time>2015-05-23T15:15:00Z</time>
      </trkpt>
      <trkpt lat="43.275217" lon="-4.320867">
        <ele>899.0</ele>
        <time>2015-05-23T15:15:01Z</time>
      </trkpt>
      <trkpt lat="43.275233" lon="-4.320750">
        <ele>898.0</ele>
        <time>2015-05-23T15:15:02Z</time>
      </trkpt>
      <trkpt lat="43.275233" lon="-4.320617">
        <ele>897.0</ele>
        <time>2015-05-23T15:15:03Z</time>
      </trkpt>
      <trkpt lat="43.275233" lon="-4.320483">
        <ele>896.0</ele>
        <time>2015-05-23T15:15:04Z</time>
      </trkpt>
      <trkpt lat="43.275233" lon="-4.320333">
        <ele>895.0</ele>
        <time>2015-05-23T15:15:05Z</time>
      </trkpt>
      <trkpt lat="43.275217" lon="-4.320200">
        <ele>894.0</ele>
        <time>2015-05-23T15:15:06Z</time>
      </trkpt>
      <trkpt lat="43.275217" lon="-4.320083">
        <ele>894.0</ele>
        <time>2015-05-23T15:15:07Z</time>
      </trkpt>
      <trkpt lat="43.275217" lon="-4.319967">
        <ele>893.0</ele>
        <time>2015-05-23T15:15:08Z</time>
      </trkpt>
      <trkpt lat="43.275200" lon="-4.319850">
        <ele>893.0</ele>
        <time>2015-05-23T15:15:09Z</time>
      </trkpt>
      <trkpt lat="43.275200" lon="-4.319700">
        <ele>893.0</ele>
        <time>2015-05-23T15:15:10Z</time>
      </trkpt>
      <trkpt lat="43.275200" lon="-4.319567">
        <ele>892.0</ele>
        <time>2015-05-23T15:15:11Z</time>
      </trkpt>
      <trkpt lat="43.275200" lon="-4.319417">
        <ele>892.0</ele>
        <time>2015-05-23T15:15:12Z</time>
      </trkpt>
      <trkpt lat="43.275183" lon="-4.319283">
        <ele>892.0</ele>
        <time>2015-05-23T15:15:13Z</time>
      </trkpt>
      <trkpt lat="43.275183" lon="-4.319167">
        <ele>891.0</ele>
        <time>2015-05-23T15:15:14Z</time>
      </trkpt>
      <trkpt lat="43.275167" lon="-4.319050">
        <ele>889.0</ele>
        <time>2015-05-23T15:15:15Z</time>
      </trkpt>
      <trkpt lat="43.275150" lon="-4.318917">
        <ele>888.0</ele>
        <time>2015-05-23T15:15:16Z</time>
      </trkpt>
      <trkpt lat="43.275133" lon="-4.318783">
        <ele>886.0</ele>
        <time>2015-05-23T15:15:17Z</time>
      </trkpt>
      <trkpt lat="43.275117" lon="-4.318650">
        <ele>885.0</ele>
        <time>2015-05-23T15:15:18Z</time>
      </trkpt>
      <trkpt lat="43.275100" lon="-4.318500">
        <ele>883.0</ele>
        <time>2015-05-23T15:15:19Z</time>
      </trkpt>
      <trkpt lat="43.275083" lon="-4.318367">
        <ele>881.0</ele>
        <time>2015-05-23T15:15:20Z</time>
      </trkpt>
      <trkpt lat="43.275050" lon="-4.318250">
        <ele>879.0</ele>
        <time>2015-05-23T15:15:21Z</time>
      </trkpt>
      <trkpt lat="43.275033" lon="-4.318117">
        <ele>878.0</ele>
        <time>2015-05-23T15:15:22Z</time>
      </trkpt>
      <trkpt lat="43.275017" lon="-4.317983">
        <ele>877.0</ele>
        <time>2015-05-23T15:15:23Z</time>
      </trkpt>
      <trkpt lat="43.274983" lon="-4.317867">
        <ele>876.0</ele>
        <time>2015-05-23T15:15:24Z</time>
      </trkpt>
      <trkpt lat="43.274967" lon="-4.317750">
        <ele>875.0</ele>
        <time>2015-05-23T15:15:25Z</time>
      </trkpt>
      <trkpt lat="43.274950" lon="-4.317633">
        <ele>874.0</ele>
        <time>2015-05-23T15:15:26Z</time>
      </trkpt>
      <trkpt lat="43.274950" lon="-4.317500">
        <ele>874.0</ele>
        <time>2015-05-23T15:15:27Z</time>
      </trkpt>
      <trkpt lat="43.274950" lon="-4.317383">
        <ele>873.0</ele>
        <time>2015-05-23T15:15:28Z</time>
      </trkpt>
      <trkpt lat="43.274933" lon="-4.317250">
        <ele>872.0</ele>
        <time>2015-05-23T15:15:29Z</time>
      </trkpt>
      <trkpt lat="43.274933" lon="-4.317150">
        <ele>871.0</ele>
        <time>2015-05-23T15:15:30Z</time>
      </trkpt>
      <trkpt lat="43.274933" lon="-4.317033">
        <ele>871.0</ele>
        <time>2015-05-23T15:15:31Z</time>
      </trkpt>
      <trkpt lat="43.274933" lon="-4.316917">
        <ele>870.0</ele>
        <time>2015-05-23T15:15:32Z</time>
      </trkpt>
      <trkpt lat="43.274933" lon="-4.316800">
        <ele>871.0</ele>
        <time>2015-05-23T15:15:33Z</time>
      </trkpt>
      <trkpt lat="43.274950" lon="-4.316683">
        <ele>871.0</ele>
        <time>2015-05-23T15:15:34Z</time>
      </trkpt>
      <trkpt lat="43.274950" lon="-4.316567">
        <ele>871.0</ele>
        <time>2015-05-23T15:15:35Z</time>
      </trkpt>
      <trkpt lat="43.274967" lon="-4.316467">
        <ele>871.0</ele>
        <time>2015-05-23T15:15:36Z</time>
      </trkpt>
      <trkpt lat="43.274983" lon="-4.316367">
        <ele>870.0</ele>
        <time>2015-05-23T15:15:37Z</time>
      </trkpt>
      <trkpt lat="43.274983" lon="-4.316267">
        <ele>871.0</ele>
        <time>2015-05-23T15:15:38Z</time>
      </trkpt>
      <trkpt lat="43.274983" lon="-4.316183">
        <ele>871.0</ele>
        <time>2015-05-23T15:15:39Z</time>
      </trkpt>
      <trkpt lat="43.274950" lon="-4.316100">
        <ele>872.0</ele>
        <time>2015-05-23T15:15:40Z</time>
      </trkpt>
      <trkpt lat="43.274917" lon="-4.316017">
        <ele>872.0</ele>
        <time>2015-05-23T15:15:41Z</time>
      </trkpt>
      <trkpt lat="43.274883" lon="-4.315917">
        <ele>872.0</ele>
        <time>2015-05-23T15:15:42Z</time>
      </trkpt>
      <trkpt lat="43.274850" lon="-4.315817">
        <ele>872.0</ele>
        <time>2015-05-23T15:15:43Z</time>
      </trkpt>
      <trkpt lat="43.274817" lon="-4.315700">
        <ele>873.0</ele>
        <time>2015-05-23T15:15:44Z</time>
      </trkpt>
      <trkpt lat="43.274783" lon="-4.315600">
        <ele>875.0</ele>
        <time>2015-05-23T15:15:45Z</time>
      </trkpt>
      <trkpt lat="43.274750" lon="-4.315517">
        <ele>876.0</ele>
        <time>2015-05-23T15:15:46Z</time>
      </trkpt>
      <trkpt lat="43.274717" lon="-4.315417">
        <ele>877.0</ele>
        <time>2015-05-23T15:15:47Z</time>
      </trkpt>
      <trkpt lat="43.274700" lon="-4.315317">
        <ele>877.0</ele>
        <time>2015-05-23T15:15:48Z</time>
      </trkpt>
      <trkpt lat="43.274683" lon="-4.315217">
        <ele>878.0</ele>
        <time>2015-05-23T15:15:49Z</time>
      </trkpt>
      <trkpt lat="43.274667" lon="-4.315117">
        <ele>879.0</ele>
        <time>2015-05-23T15:15:50Z</time>
      </trkpt>
      <trkpt lat="43.274650" lon="-4.315017">
        <ele>878.0</ele>
        <time>2015-05-23T15:15:51Z</time>
      </trkpt>
      <trkpt lat="43.274633" lon="-4.314933">
        <ele>879.0</ele>
        <time>2015-05-23T15:15:52Z</time>
      </trkpt>
      <trkpt lat="43.274617" lon="-4.314850">
        <ele>879.0</ele>
        <time>2015-05-23T15:15:53Z</time>
      </trkpt>
      <trkpt lat="43.274600" lon="-4.314750">
        <ele>880.0</ele>
        <time>2015-05-23T15:15:54Z</time>
      </trkpt>
      <trkpt lat="43.274583" lon="-4.314650">
        <ele>880.0</ele>
        <time>2015-05-23T15:15:55Z</time>
      </trkpt>
      <trkpt lat="43.274567" lon="-4.314567">
        <ele>881.0</ele>
        <time>2015-05-23T15:15:56Z</time>
      </trkpt>
      <trkpt lat="43.274567" lon="-4.314483">
        <ele>880.0</ele>
        <time>2015-05-23T15:15:57Z</time>
      </trkpt>
      <trkpt lat="43.274567" lon="-4.314417">
        <ele>879.0</ele>
        <time>2015-05-23T15:15:58Z</time>
      </trkpt>
      <trkpt lat="43.274600" lon="-4.314367">
        <ele>878.0</ele>
        <time>2015-05-23T15:15:59Z</time>
      </trkpt>
      <trkpt lat="43.274633" lon="-4.314333">
        <ele>878.0</ele>
        <time>2015-05-23T15:16:00Z</time>
      </trkpt>
      <trkpt lat="43.274650" lon="-4.314333">
        <ele>876.0</ele>
        <time>2015-05-23T15:16:01Z</time>
      </trkpt>
      <trkpt lat="43.274667" lon="-4.314383">
        <ele>876.0</ele>
        <time>2015-05-23T15:16:02Z</time>
      </trkpt>
      <trkpt lat="43.274683" lon="-4.314433">
        <ele>876.0</ele>
        <time>2015-05-23T15:16:03Z</time>
      </trkpt>
      <trkpt lat="43.274683" lon="-4.314500">
        <ele>876.0</ele>
        <time>2015-05-23T15:16:04Z</time>
      </trkpt>
      <trkpt lat="43.274667" lon="-4.314583">
        <ele>876.0</ele>
        <time>2015-05-23T15:16:05Z</time>
      </trkpt>
      <trkpt lat="43.274650" lon="-4.314650">
        <ele>876.0</ele>
        <time>2015-05-23T15:16:06Z</time>
      </trkpt>
      <trkpt lat="43.274600" lon="-4.314717">
        <ele>876.0</ele>
        <time>2015-05-23T15:16:07Z</time>
      </trkpt>
      <trkpt lat="43.274583" lon="-4.314783">
        <ele>875.0</ele>
        <time>2015-05-23T15:16:08Z</time>
      </trkpt>
      <trkpt lat="43.274550" lon="-4.314883">
        <ele>874.0</ele>
        <time>2015-05-23T15:16:09Z</time>
      </trkpt>
      <trkpt lat="43.274533" lon="-4.314983">
        <ele>874.0</ele>
        <time>2015-05-23T15:16:10Z</time>
      </trkpt>
      <trkpt lat="43.274517" lon="-4.315083">
        <ele>874.0</ele>
        <time>2015-05-23T15:16:11Z</time>
      </trkpt>
      <trkpt lat="43.274517" lon="-4.315183">
        <ele>875.0</ele>
        <time>2015-05-23T15:16:12Z</time>
      </trkpt>
      <trkpt lat="43.274517" lon="-4.315267">
        <ele>877.0</ele>
        <time>2015-05-23T15:16:13Z</time>
      </trkpt>
      <trkpt lat="43.274517" lon="-4.315350">
        <ele>879.0</ele>
        <time>2015-05-23T15:16:14Z</time>
      </trkpt>
      <trkpt lat="43.274517" lon="-4.315400">
        <ele>880.0</ele>
        <time>2015-05-23T15:16:15Z</time>
      </trkpt>
      <trkpt lat="43.274500" lon="-4.315467">
        <ele>881.0</ele>
        <time>2015-05-23T15:16:16Z</time>
      </trkpt>
      <trkpt lat="43.274500" lon="-4.315517">
        <ele>882.0</ele>
        <time>2015-05-23T15:16:17Z</time>
      </trkpt>
      <trkpt lat="43.274500" lon="-4.315583">
        <ele>882.0</ele>
        <time>2015-05-23T15:16:18Z</time>
      </trkpt>
      <trkpt lat="43.274517" lon="-4.315650">
        <ele>884.0</ele>
        <time>2015-05-23T15:16:19Z</time>
      </trkpt>
      <trkpt lat="43.274533" lon="-4.315700">
        <ele>886.0</ele>
        <time>2015-05-23T15:16:20Z</time>
      </trkpt>
      <trkpt lat="43.274533" lon="-4.315750">
        <ele>888.0</ele>
        <time>2015-05-23T15:16:21Z</time>
      </trkpt>
      <trkpt lat="43.274533" lon="-4.315783">
        <ele>890.0</ele>
        <time>2015-05-23T15:16:22Z</time>
      </trkpt>
      <trkpt lat="43.274533" lon="-4.315833">
        <ele>891.0</ele>
        <time>2015-05-23T15:16:23Z</time>
      </trkpt>
      <trkpt lat="43.274533" lon="-4.315883">
        <ele>893.0</ele>
        <time>2015-05-23T15:16:24Z</time>
      </trkpt>
      <trkpt lat="43.274550" lon="-4.315933">
        <ele>894.0</ele>
        <time>2015-05-23T15:16:25Z</time>
      </trkpt>
      <trkpt lat="43.274550" lon="-4.315983">
        <ele>895.0</ele>
        <time>2015-05-23T15:16:26Z</time>
      </trkpt>
      <trkpt lat="43.274583" lon="-4.316033">
        <ele>896.0</ele>
        <time>2015-05-23T15:16:27Z</time>
      </trkpt>
      <trkpt lat="43.274600" lon="-4.316050">
        <ele>899.0</ele>
        <time>2015-05-23T15:16:28Z</time>
      </trkpt>
      <trkpt lat="43.274650" lon="-4.316050">
        <ele>901.0</ele>
        <time>2015-05-23T15:16:29Z</time>
      </trkpt>
      <trkpt lat="43.274683" lon="-4.316033">
        <ele>902.0</ele>
        <time>2015-05-23T15:16:30Z</time>
      </trkpt>
      <trkpt lat="43.274733" lon="-4.316017">
        <ele>904.0</ele>
        <time>2015-05-23T15:16:31Z</time>
      </trkpt>
      <trkpt lat="43.274767" lon="-4.315983">
        <ele>906.0</ele>
        <time>2015-05-23T15:16:32Z</time>
      </trkpt>
      <trkpt lat="43.274767" lon="-4.315933">
        <ele>907.0</ele>
        <time>2015-05-23T15:16:33Z</time>
      </trkpt>
      <trkpt lat="43.274767" lon="-4.315867">
        <ele>908.0</ele>
        <time>2015-05-23T15:16:34Z</time>
      </trkpt>
      <trkpt lat="43.274767" lon="-4.315767">
        <ele>907.0</ele>
        <time>2015-05-23T15:16:35Z</time>
      </trkpt>
      <trkpt lat="43.274733" lon="-4.315633">
        <ele>906.0</ele>
        <time>2015-05-23T15:16:36Z</time>
      </trkpt>
      <trkpt lat="43.274700" lon="-4.315517">
        <ele>905.0</ele>
        <time>2015-05-23T15:16:37Z</time>
      </trkpt>
      <trkpt lat="43.274617" lon="-4.315400">
        <ele>905.0</ele>
        <time>2015-05-23T15:16:38Z</time>
      </trkpt>
      <trkpt lat="43.274517" lon="-4.315350">
        <ele>906.0</ele>
        <time>2015-05-23T15:16:39Z</time>
      </trkpt>
      <trkpt lat="43.274400" lon="-4.315350">
        <ele>905.0</ele>
        <time>2015-05-23T15:16:40Z</time>
      </trkpt>
      <trkpt lat="43.274300" lon="-4.315400">
        <ele>906.0</ele>
        <time>2015-05-23T15:16:41Z</time>
      </trkpt>
      <trkpt lat="43.274217" lon="-4.315483">
        <ele>907.0</ele>
        <time>2015-05-23T15:16:42Z</time>
      </trkpt>
      <trkpt lat="43.274167" lon="-4.315567">
        <ele>908.0</ele>
        <time>2015-05-23T15:16:43Z</time>
      </trkpt>
      <trkpt lat="43.274117" lon="-4.315650">
        <ele>909.0</ele>
        <time>2015-05-23T15:16:44Z</time>
      </trkpt>
      <trkpt lat="43.274100" lon="-4.315717">
        <ele>909.0</ele>
        <time>2015-05-23T15:16:45Z</time>
      </trkpt>
      <trkpt lat="43.274083" lon="-4.315817">
        <ele>909.0</ele>
        <time>2015-05-23T15:16:46Z</time>
      </trkpt>
      <trkpt lat="43.274083" lon="-4.315900">
        <ele>912.0</ele>
        <time>2015-05-23T15:16:47Z</time>
      </trkpt>
      <trkpt lat="43.274083" lon="-4.315967">
        <ele>914.0</ele>
        <time>2015-05-23T15:16:48Z</time>
      </trkpt>
      <trkpt lat="43.274100" lon="-4.316017">
        <ele>915.0</ele>
        <time>2015-05-23T15:16:49Z</time>
      </trkpt>
      <trkpt lat="43.274117" lon="-4.316050">
        <ele>915.0</ele>
        <time>2015-05-23T15:16:50Z</time>
      </trkpt>
      <trkpt lat="43.274117" lon="-4.316083">
        <ele>915.0</ele>
        <time>2015-05-23T15:16:51Z</time>
      </trkpt>
      <trkpt lat="43.274133" lon="-4.316100">
        <ele>915.0</ele>
        <time>2015-05-23T15:16:52Z</time>
      </trkpt>
      <trkpt lat="43.274167" lon="-4.316117">
        <ele>914.0</ele>
        <time>2015-05-23T15:16:53Z</time>
      </trkpt>
      <trkpt lat="43.274200" lon="-4.316100">
        <ele>913.0</ele>
        <time>2015-05-23T15:16:54Z</time>
      </trkpt>
      <trkpt lat="43.274250" lon="-4.316050">
        <ele>913.0</ele>
        <time>2015-05-23T15:16:55Z</time>
      </trkpt>
      <trkpt lat="43.274283" lon="-4.315983">
        <ele>914.0</ele>
        <time>2015-05-23T15:16:56Z</time>
      </trkpt>
      <trkpt lat="43.274300" lon="-4.315883">
        <ele>914.0</ele>
        <time>2015-05-23T15:16:57Z</time>
      </trkpt>
      <trkpt lat="43.274317" lon="-4.315783">
        <ele>914.0</ele>
        <time>2015-05-23T15:16:58Z</time>
      </trkpt>
      <trkpt lat="43.274333" lon="-4.315667">
        <ele>915.0</ele>
        <time>2015-05-23T15:16:59Z</time>
      </trkpt>
      <trkpt lat="43.274350" lon="-4.315567">
        <ele>915.0</ele>
        <time>2015-05-23T15:17:00Z</time>
      </trkpt>
      <trkpt lat="43.274367" lon="-4.315450">
        <ele>916.0</ele>
        <time>2015-05-23T15:17:01Z</time>
      </trkpt>
      <trkpt lat="43.274383" lon="-4.315350">
        <ele>917.0</ele>
        <time>2015-05-23T15:17:02Z</time>
      </trkpt>
      <trkpt lat="43.274383" lon="-4.315233">
        <ele>918.0</ele>
        <time>2015-05-23T15:17:03Z</time>
      </trkpt>
      <trkpt lat="43.274367" lon="-4.315133">
        <ele>919.0</ele>
        <time>2015-05-23T15:17:04Z</time>
      </trkpt>
      <trkpt lat="43.274350" lon="-4.315017">
        <ele>919.0</ele>
        <time>2015-05-23T15:17:05Z</time>
      </trkpt>
      <trkpt lat="43.274367" lon="-4.314900">
        <ele>920.0</ele>
        <time>2015-05-23T15:17:06Z</time>
      </trkpt>
      <trkpt lat="43.274367" lon="-4.314783">
        <ele>921.0</ele>
        <time>2015-05-23T15:17:07Z</time>
      </trkpt>
      <trkpt lat="43.274383" lon="-4.314683">
        <ele>920.0</ele>
        <time>2015-05-23T15:17:08Z</time>
      </trkpt>
      <trkpt lat="43.274383" lon="-4.314567">
        <ele>920.0</ele>
        <time>2015-05-23T15:17:09Z</time>
      </trkpt>
      <trkpt lat="43.274417" lon="-4.314450">
        <ele>919.0</ele>
        <time>2015-05-23T15:17:10Z</time>
      </trkpt>
      <trkpt lat="43.274433" lon="-4.314317">
        <ele>919.0</ele>
        <time>2015-05-23T15:17:11Z</time>
      </trkpt>
      <trkpt lat="43.274467" lon="-4.314200">
        <ele>918.0</ele>
        <time>2015-05-23T15:17:12Z</time>
      </trkpt>
      <trkpt lat="43.274483" lon="-4.314067">
        <ele>918.0</ele>
        <time>2015-05-23T15:17:13Z</time>
      </trkpt>
      <trkpt lat="43.274483" lon="-4.313950">
        <ele>918.0</ele>
        <time>2015-05-23T15:17:14Z</time>
      </trkpt>
      <trkpt lat="43.274500" lon="-4.313833">
        <ele>917.0</ele>
        <time>2015-05-23T15:17:15Z</time>
      </trkpt>
      <trkpt lat="43.274500" lon="-4.313700">
        <ele>916.0</ele>
        <time>2015-05-23T15:17:16Z</time>
      </trkpt>
      <trkpt lat="43.274517" lon="-4.313583">
        <ele>916.0</ele>
        <time>2015-05-23T15:17:17Z</time>
      </trkpt>
      <trkpt lat="43.274517" lon="-4.313450">
        <ele>916.0</ele>
        <time>2015-05-23T15:17:18Z</time>
      </trkpt>
      <trkpt lat="43.274517" lon="-4.313317">
        <ele>916.0</ele>
        <time>2015-05-23T15:17:19Z</time>
      </trkpt>
      <trkpt lat="43.274517" lon="-4.313200">
        <ele>917.0</ele>
        <time>2015-05-23T15:17:20Z</time>
      </trkpt>
      <trkpt lat="43.274517" lon="-4.313083">
        <ele>917.0</ele>
        <time>2015-05-23T15:17:21Z</time>
      </trkpt>
      <trkpt lat="43.274517" lon="-4.312967">
        <ele>918.0</ele>
        <time>2015-05-23T15:17:22Z</time>
      </trkpt>
      <trkpt lat="43.274517" lon="-4.312850">
        <ele>918.0</ele>
        <time>2015-05-23T15:17:23Z</time>
      </trkpt>
      <trkpt lat="43.274517" lon="-4.312733">
        <ele>918.0</ele>
        <time>2015-05-23T15:17:24Z</time>
      </trkpt>
      <trkpt lat="43.274517" lon="-4.312617">
        <ele>918.0</ele>
        <time>2015-05-23T15:17:25Z</time>
      </trkpt>
      <trkpt lat="43.274500" lon="-4.312517">
        <ele>919.0</ele>
        <time>2015-05-23T15:17:26Z</time>
      </trkpt>
      <trkpt lat="43.274500" lon="-4.312400">
        <ele>919.0</ele>
        <time>2015-05-23T15:17:27Z</time>
      </trkpt>
      <trkpt lat="43.274500" lon="-4.312300">
        <ele>920.0</ele>
        <time>2015-05-23T15:17:28Z</time>
      </trkpt>
      <trkpt lat="43.274517" lon="-4.312200">
        <ele>919.0</ele>
        <time>2015-05-23T15:17:29Z</time>
      </trkpt>
      <trkpt lat="43.274533" lon="-4.312083">
        <ele>919.0</ele>
        <time>2015-05-23T15:17:30Z</time>
      </trkpt>
      <trkpt lat="43.274550" lon="-4.312000">
        <ele>920.0</ele>
        <time>2015-05-23T15:17:31Z</time>
      </trkpt>
      <trkpt lat="43.274567" lon="-4.311917">
        <ele>920.0</ele>
        <time>2015-05-23T15:17:32Z</time>
      </trkpt>
      <trkpt lat="43.274600" lon="-4.311833">
        <ele>920.0</ele>
        <time>2015-05-23T15:17:33Z</time>
      </trkpt>
      <trkpt lat="43.274617" lon="-4.311733">
        <ele>921.0</ele>
        <time>2015-05-23T15:17:34Z</time>
      </trkpt>
      <trkpt lat="43.274633" lon="-4.311633">
        <ele>921.0</ele>
        <time>2015-05-23T15:17:35Z</time>
      </trkpt>
      <trkpt lat="43.274667" lon="-4.311533">
        <ele>921.0</ele>
        <time>2015-05-23T15:17:36Z</time>
      </trkpt>
      <trkpt lat="43.274683" lon="-4.311417">
        <ele>921.0</ele>
        <time>2015-05-23T15:17:37Z</time>
      </trkpt>
      <trkpt lat="43.274700" lon="-4.311317">
        <ele>921.0</ele>
        <time>2015-05-23T15:17:38Z</time>
      </trkpt>
      <trkpt lat="43.274700" lon="-4.311200">
        <ele>921.0</ele>
        <time>2015-05-23T15:17:39Z</time>
      </trkpt>
      <trkpt lat="43.274700" lon="-4.311100">
        <ele>922.0</ele>
        <time>2015-05-23T15:17:40Z</time>
      </trkpt>
      <trkpt lat="43.274717" lon="-4.310983">
        <ele>921.0</ele>
        <time>2015-05-23T15:17:41Z</time>
      </trkpt>
      <trkpt lat="43.274717" lon="-4.310867">
        <ele>920.0</ele>
        <time>2015-05-23T15:17:42Z</time>
      </trkpt>
      <trkpt lat="43.274733" lon="-4.310750">
        <ele>920.0</ele>
        <time>2015-05-23T15:17:43Z</time>
      </trkpt>
      <trkpt lat="43.274733" lon="-4.310633">
        <ele>921.0</ele>
        <time>2015-05-23T15:17:44Z</time>
      </trkpt>
      <trkpt lat="43.274733" lon="-4.310517">
        <ele>921.0</ele>
        <time>2015-05-23T15:17:45Z</time>
      </trkpt>
      <trkpt lat="43.274717" lon="-4.310400">
        <ele>921.0</ele>
        <time>2015-05-23T15:17:46Z</time>
      </trkpt>
      <trkpt lat="43.274717" lon="-4.310300">
        <ele>921.0</ele>
        <time>2015-05-23T15:17:47Z</time>
      </trkpt>
      <trkpt lat="43.274733" lon="-4.310217">
        <ele>921.0</ele>
        <time>2015-05-23T15:17:48Z</time>
      </trkpt>
      <trkpt lat="43.274733" lon="-4.310133">
        <ele>922.0</ele>
        <time>2015-05-23T15:17:49Z</time>
      </trkpt>
      <trkpt lat="43.274750" lon="-4.310033">
        <ele>922.0</ele>
        <time>2015-05-23T15:17:50Z</time>
      </trkpt>
      <trkpt lat="43.274750" lon="-4.309933">
        <ele>923.0</ele>
        <time>2015-05-23T15:17:51Z</time>
      </trkpt>
      <trkpt lat="43.274733" lon="-4.309833">
        <ele>925.0</ele>
        <time>2015-05-23T15:17:52Z</time>
      </trkpt>
      <trkpt lat="43.274733" lon="-4.309733">
        <ele>926.0</ele>
        <time>2015-05-23T15:17:53Z</time>
      </trkpt>
      <trkpt lat="43.274733" lon="-4.309650">
        <ele>927.0</ele>
        <time>2015-05-23T15:17:54Z</time>
      </trkpt>
      <trkpt lat="43.274733" lon="-4.309567">
        <ele>927.0</ele>
        <time>2015-05-23T15:17:55Z</time>
      </trkpt>
      <trkpt lat="43.274733" lon="-4.309483">
        <ele>927.0</ele>
        <time>2015-05-23T15:17:56Z</time>
      </trkpt>
      <trkpt lat="43.274733" lon="-4.309400">
        <ele>927.0</ele>
        <time>2015-05-23T15:17:57Z</time>
      </trkpt>
      <trkpt lat="43.274717" lon="-4.309300">
        <ele>926.0</ele>
        <time>2015-05-23T15:17:58Z</time>
      </trkpt>
      <trkpt lat="43.274717" lon="-4.309200">
        <ele>925.0</ele>
        <time>2015-05-23T15:17:59Z</time>
      </trkpt>
      <trkpt lat="43.274717" lon="-4.309083">
        <ele>926.0</ele>
        <time>2015-05-23T15:18:00Z</time>
      </trkpt>
      <trkpt lat="43.274717" lon="-4.308967">
        <ele>926.0</ele>
        <time>2015-05-23T15:18:01Z</time>
      </trkpt>
      <trkpt lat="43.274733" lon="-4.308883">
        <ele>926.0</ele>
        <time>2015-05-23T15:18:02Z</time>
      </trkpt>
      <trkpt lat="43.274733" lon="-4.308783">
        <ele>926.0</ele>
        <time>2015-05-23T15:18:03Z</time>
      </trkpt>
      <trkpt lat="43.274733" lon="-4.308717">
        <ele>926.0</ele>
        <time>2015-05-23T15:18:04Z</time>
      </trkpt>
      <trkpt lat="43.274750" lon="-4.308633">
        <ele>926.0</ele>
        <time>2015-05-23T15:18:05Z</time>
      </trkpt>
      <trkpt lat="43.274767" lon="-4.308533">
        <ele>924.0</ele>
        <time>2015-05-23T15:18:06Z</time>
      </trkpt>
      <trkpt lat="43.274783" lon="-4.308433">
        <ele>924.0</ele>
        <time>2015-05-23T15:18:07Z</time>
      </trkpt>
      <trkpt lat="43.274800" lon="-4.308317">
        <ele>924.0</ele>
        <time>2015-05-23T15:18:08Z</time>
      </trkpt>
      <trkpt lat="43.274800" lon="-4.308217">
        <ele>924.0</ele>
        <time>2015-05-23T15:18:09Z</time>
      </trkpt>
      <trkpt lat="43.274800" lon="-4.308117">
        <ele>924.0</ele>
        <time>2015-05-23T15:18:10Z</time>
      </trkpt>
      <trkpt lat="43.274800" lon="-4.308033">
        <ele>924.0</ele>
        <time>2015-05-23T15:18:11Z</time>
      </trkpt>
      <trkpt lat="43.274800" lon="-4.307950">
        <ele>924.0</ele>
        <time>2015-05-23T15:18:12Z</time>
      </trkpt>
      <trkpt lat="43.274800" lon="-4.307850">
        <ele>924.0</ele>
        <time>2015-05-23T15:18:13Z</time>
      </trkpt>
      <trkpt lat="43.274800" lon="-4.307750">
        <ele>924.0</ele>
        <time>2015-05-23T15:18:14Z</time>
      </trkpt>
      <trkpt lat="43.274800" lon="-4.307633">
        <ele>924.0</ele>
        <time>2015-05-23T15:18:15Z</time>
      </trkpt>
      <trkpt lat="43.274783" lon="-4.307533">
        <ele>924.0</ele>
        <time>2015-05-23T15:18:16Z</time>
      </trkpt>
      <trkpt lat="43.274783" lon="-4.307450">
        <ele>924.0</ele>
        <time>2015-05-23T15:18:17Z</time>
      </trkpt>
      <trkpt lat="43.274783" lon="-4.307367">
        <ele>924.0</ele>
        <time>2015-05-23T15:18:18Z</time>
      </trkpt>
      <trkpt lat="43.274783" lon="-4.307283">
        <ele>923.0</ele>
        <time>2015-05-23T15:18:19Z</time>
      </trkpt>
      <trkpt lat="43.274800" lon="-4.307167">
        <ele>923.0</ele>
        <time>2015-05-23T15:18:20Z</time>
      </trkpt>
      <trkpt lat="43.274800" lon="-4.307033">
        <ele>923.0</ele>
        <time>2015-05-23T15:18:21Z</time>
      </trkpt>
      <trkpt lat="43.274817" lon="-4.306917">
        <ele>923.0</ele>
        <time>2015-05-23T15:18:22Z</time>
      </trkpt>
      <trkpt lat="43.274800" lon="-4.306817">
        <ele>923.0</ele>
        <time>2015-05-23T15:18:23Z</time>
      </trkpt>
      <trkpt lat="43.274783" lon="-4.306717">
        <ele>922.0</ele>
        <time>2015-05-23T15:18:24Z</time>
      </trkpt>
      <trkpt lat="43.274783" lon="-4.306617">
        <ele>922.0</ele>
        <time>2015-05-23T15:18:25Z</time>
      </trkpt>
      <trkpt lat="43.274783" lon="-4.306517">
        <ele>922.0</ele>
        <time>2015-05-23T15:18:26Z</time>
      </trkpt>
      <trkpt lat="43.274783" lon="-4.306417">
        <ele>922.0</ele>
        <time>2015-05-23T15:18:27Z</time>
      </trkpt>
      <trkpt lat="43.274800" lon="-4.306300">
        <ele>922.0</ele>
        <time>2015-05-23T15:18:28Z</time>
      </trkpt>
      <trkpt lat="43.274817" lon="-4.306183">
        <ele>922.0</ele>
        <time>2015-05-23T15:18:29Z</time>
      </trkpt>
      <trkpt lat="43.274833" lon="-4.306083">
        <ele>921.0</ele>
        <time>2015-05-23T15:18:30Z</time>
      </trkpt>
      <trkpt lat="43.274850" lon="-4.305983">
        <ele>921.0</ele>
        <time>2015-05-23T15:18:31Z</time>
      </trkpt>
      <trkpt lat="43.274867" lon="-4.305883">
        <ele>921.0</ele>
        <time>2015-05-23T15:18:32Z</time>
      </trkpt>
      <trkpt lat="43.274883" lon="-4.305783">
        <ele>921.0</ele>
        <time>2015-05-23T15:18:33Z</time>
      </trkpt>
      <trkpt lat="43.274900" lon="-4.305667">
        <ele>921.0</ele>
        <time>2015-05-23T15:18:34Z</time>
      </trkpt>
      <trkpt lat="43.274917" lon="-4.305550">
        <ele>921.0</ele>
        <time>2015-05-23T15:18:35Z</time>
      </trkpt>
      <trkpt lat="43.274950" lon="-4.305400">
        <ele>921.0</ele>
        <time>2015-05-23T15:18:36Z</time>
      </trkpt>
      <trkpt lat="43.274967" lon="-4.305283">
        <ele>920.0</ele>
        <time>2015-05-23T15:18:37Z</time>
      </trkpt>
      <trkpt lat="43.274950" lon="-4.305167">
        <ele>920.0</ele>
        <time>2015-05-23T15:18:38Z</time>
      </trkpt>
      <trkpt lat="43.274950" lon="-4.305067">
        <ele>920.0</ele>
        <time>2015-05-23T15:18:39Z</time>
      </trkpt>
      <trkpt lat="43.274933" lon="-4.304967">
        <ele>920.0</ele>
        <time>2015-05-23T15:18:40Z</time>
      </trkpt>
      <trkpt lat="43.274933" lon="-4.304850">
        <ele>919.0</ele>
        <time>2015-05-23T15:18:41Z</time>
      </trkpt>
      <trkpt lat="43.274917" lon="-4.304733">
        <ele>919.0</ele>
        <time>2015-05-23T15:18:42Z</time>
      </trkpt>
      <trkpt lat="43.274917" lon="-4.304600">
        <ele>919.0</ele>
        <time>2015-05-23T15:18:43Z</time>
      </trkpt>
      <trkpt lat="43.274900" lon="-4.304483">
        <ele>919.0</ele>
        <time>2015-05-23T15:18:44Z</time>
      </trkpt>
      <trkpt lat="43.274900" lon="-4.304367">
        <ele>918.0</ele>
        <time>2015-05-23T15:18:45Z</time>
      </trkpt>
      <trkpt lat="43.274900" lon="-4.304233">
        <ele>918.0</ele>
        <time>2015-05-23T15:18:46Z</time>
      </trkpt>
      <trkpt lat="43.274883" lon="-4.304100">
        <ele>917.0</ele>
        <time>2015-05-23T15:18:47Z</time>
      </trkpt>
      <trkpt lat="43.274883" lon="-4.303983">
        <ele>917.0</ele>
        <time>2015-05-23T15:18:48Z</time>
      </trkpt>
      <trkpt lat="43.274883" lon="-4.303867">
        <ele>916.0</ele>
        <time>2015-05-23T15:18:49Z</time>
      </trkpt>
      <trkpt lat="43.274883" lon="-4.303750">
        <ele>915.0</ele>
        <time>2015-05-23T15:18:50Z</time>
      </trkpt>
      <trkpt lat="43.274900" lon="-4.303633">
        <ele>915.0</ele>
        <time>2015-05-23T15:18:51Z</time>
      </trkpt>
      <trkpt lat="43.274900" lon="-4.303500">
        <ele>914.0</ele>
        <time>2015-05-23T15:18:52Z</time>
      </trkpt>
      <trkpt lat="43.274917" lon="-4.303383">
        <ele>914.0</ele>
        <time>2015-05-23T15:18:53Z</time>
      </trkpt>
      <trkpt lat="43.274933" lon="-4.303283">
        <ele>913.0</ele>
        <time>2015-05-23T15:18:54Z</time>
      </trkpt>
      <trkpt lat="43.274950" lon="-4.303167">
        <ele>913.0</ele>
        <time>2015-05-23T15:18:55Z</time>
      </trkpt>
      <trkpt lat="43.274950" lon="-4.303050">
        <ele>912.0</ele>
        <time>2015-05-23T15:18:56Z</time>
      </trkpt>
      <trkpt lat="43.274950" lon="-4.302933">
        <ele>912.0</ele>
        <time>2015-05-23T15:18:57Z</time>
      </trkpt>
      <trkpt lat="43.274967" lon="-4.302800">
        <ele>911.0</ele>
        <time>2015-05-23T15:18:58Z</time>
      </trkpt>
      <trkpt lat="43.274983" lon="-4.302683">
        <ele>911.0</ele>
        <time>2015-05-23T15:18:59Z</time>
      </trkpt>
      <trkpt lat="43.275000" lon="-4.302567">
        <ele>911.0</ele>
        <time>2015-05-23T15:19:00Z</time>
      </trkpt>
      <trkpt lat="43.275017" lon="-4.302467">
        <ele>910.0</ele>
        <time>2015-05-23T15:19:01Z</time>
      </trkpt>
      <trkpt lat="43.275033" lon="-4.302367">
        <ele>909.0</ele>
        <time>2015-05-23T15:19:02Z</time>
      </trkpt>
      <trkpt lat="43.275050" lon="-4.302250">
        <ele>906.0</ele>
        <time>2015-05-23T15:19:03Z</time>
      </trkpt>
      <trkpt lat="43.275067" lon="-4.302133">
        <ele>907.0</ele>
        <time>2015-05-23T15:19:04Z</time>
      </trkpt>
      <trkpt lat="43.275083" lon="-4.302017">
        <ele>906.0</ele>
        <time>2015-05-23T15:19:05Z</time>
      </trkpt>
      <trkpt lat="43.275083" lon="-4.301883">
        <ele>905.0</ele>
        <time>2015-05-23T15:19:06Z</time>
      </trkpt>
      <trkpt lat="43.275100" lon="-4.301767">
        <ele>904.0</ele>
        <time>2015-05-23T15:19:07Z</time>
      </trkpt>
      <trkpt lat="43.275117" lon="-4.301650">
        <ele>904.0</ele>
        <time>2015-05-23T15:19:08Z</time>
      </trkpt>
      <trkpt lat="43.275117" lon="-4.301550">
        <ele>903.0</ele>
        <time>2015-05-23T15:19:09Z</time>
      </trkpt>
      <trkpt lat="43.275100" lon="-4.301433">
        <ele>902.0</ele>
        <time>2015-05-23T15:19:10Z</time>
      </trkpt>
      <trkpt lat="43.275117" lon="-4.301333">
        <ele>901.0</ele>
        <time>2015-05-23T15:19:11Z</time>
      </trkpt>
      <trkpt lat="43.275133" lon="-4.301217">
        <ele>900.0</ele>
        <time>2015-05-23T15:19:12Z</time>
      </trkpt>
      <trkpt lat="43.275133" lon="-4.301117">
        <ele>899.0</ele>
        <time>2015-05-23T15:19:13Z</time>
      </trkpt>
      <trkpt lat="43.275133" lon="-4.301017">
        <ele>898.0</ele>
        <time>2015-05-23T15:19:14Z</time>
      </trkpt>
      <trkpt lat="43.275150" lon="-4.300900">
        <ele>897.0</ele>
        <time>2015-05-23T15:19:15Z</time>
      </trkpt>
      <trkpt lat="43.275150" lon="-4.300783">
        <ele>896.0</ele>
        <time>2015-05-23T15:19:16Z</time>
      </trkpt>
      <trkpt lat="43.275167" lon="-4.300667">
        <ele>895.0</ele>
        <time>2015-05-23T15:19:17Z</time>
      </trkpt>
      <trkpt lat="43.275167" lon="-4.300533">
        <ele>894.0</ele>
        <time>2015-05-23T15:19:18Z</time>
      </trkpt>
      <trkpt lat="43.275183" lon="-4.300417">
        <ele>893.0</ele>
        <time>2015-05-23T15:19:19Z</time>
      </trkpt>
      <trkpt lat="43.275183" lon="-4.300283">
        <ele>892.0</ele>
        <time>2015-05-23T15:19:20Z</time>
      </trkpt>
      <trkpt lat="43.275183" lon="-4.300150">
        <ele>890.0</ele>
        <time>2015-05-23T15:19:21Z</time>
      </trkpt>
      <trkpt lat="43.275183" lon="-4.300017">
        <ele>889.0</ele>
        <time>2015-05-23T15:19:22Z</time>
      </trkpt>
      <trkpt lat="43.275183" lon="-4.299900">
        <ele>887.0</ele>
        <time>2015-05-23T15:19:23Z</time>
      </trkpt>
      <trkpt lat="43.275183" lon="-4.299767">
        <ele>885.0</ele>
        <time>2015-05-23T15:19:24Z</time>
      </trkpt>
      <trkpt lat="43.275183" lon="-4.299633">
        <ele>883.0</ele>
        <time>2015-05-23T15:19:25Z</time>
      </trkpt>
      <trkpt lat="43.275183" lon="-4.299500">
        <ele>881.0</ele>
        <time>2015-05-23T15:19:26Z</time>
      </trkpt>
      <trkpt lat="43.275200" lon="-4.299367">
        <ele>879.0</ele>
        <time>2015-05-23T15:19:27Z</time>
      </trkpt>
      <trkpt lat="43.275200" lon="-4.299233">
        <ele>878.0</ele>
        <time>2015-05-23T15:19:28Z</time>
      </trkpt>
      <trkpt lat="43.275200" lon="-4.299117">
        <ele>876.0</ele>
        <time>2015-05-23T15:19:29Z</time>
      </trkpt>
      <trkpt lat="43.275217" lon="-4.298983">
        <ele>878.0</ele>
        <time>2015-05-23T15:19:30Z</time>
      </trkpt>
      <trkpt lat="43.275233" lon="-4.298867">
        <ele>878.0</ele>
        <time>2015-05-23T15:19:31Z</time>
      </trkpt>
      <trkpt lat="43.275233" lon="-4.298733">
        <ele>877.0</ele>
        <time>2015-05-23T15:19:32Z</time>
      </trkpt>
      <trkpt lat="43.275250" lon="-4.298617">
        <ele>876.0</ele>
        <time>2015-05-23T15:19:33Z</time>
      </trkpt>
      <trkpt lat="43.275283" lon="-4.298483">
        <ele>875.0</ele>
        <time>2015-05-23T15:19:34Z</time>
      </trkpt>
      <trkpt lat="43.275317" lon="-4.298367">
        <ele>874.0</ele>
        <time>2015-05-23T15:19:35Z</time>
      </trkpt>
      <trkpt lat="43.275333" lon="-4.298250">
        <ele>874.0</ele>
        <time>2015-05-23T15:19:36Z</time>
      </trkpt>
      <trkpt lat="43.275367" lon="-4.298133">
        <ele>874.0</ele>
        <time>2015-05-23T15:19:37Z</time>
      </trkpt>
      <trkpt lat="43.275383" lon="-4.298000">
        <ele>873.0</ele>
        <time>2015-05-23T15:19:38Z</time>
      </trkpt>
      <trkpt lat="43.275417" lon="-4.297867">
        <ele>872.0</ele>
        <time>2015-05-23T15:19:39Z</time>
      </trkpt>
      <trkpt lat="43.275433" lon="-4.297750">
        <ele>872.0</ele>
        <time>2015-05-23T15:19:40Z</time>
      </trkpt>
      <trkpt lat="43.275467" lon="-4.297617">
        <ele>871.0</ele>
        <time>2015-05-23T15:19:41Z</time>
      </trkpt>
      <trkpt lat="43.275483" lon="-4.297500">
        <ele>870.0</ele>
        <time>2015-05-23T15:19:42Z</time>
      </trkpt>
      <trkpt lat="43.275500" lon="-4.297383">
        <ele>867.0</ele>
        <time>2015-05-23T15:19:43Z</time>
      </trkpt>
      <trkpt lat="43.275500" lon="-4.297250">
        <ele>865.0</ele>
        <time>2015-05-23T15:19:44Z</time>
      </trkpt>
      <trkpt lat="43.275517" lon="-4.297117">
        <ele>863.0</ele>
        <time>2015-05-23T15:19:45Z</time>
      </trkpt>
      <trkpt lat="43.275533" lon="-4.296967">
        <ele>861.0</ele>
        <time>2015-05-23T15:19:46Z</time>
      </trkpt>
      <trkpt lat="43.275550" lon="-4.296833">
        <ele>859.0</ele>
        <time>2015-05-23T15:19:47Z</time>
      </trkpt>
      <trkpt lat="43.275567" lon="-4.296717">
        <ele>857.0</ele>
        <time>2015-05-23T15:19:48Z</time>
      </trkpt>
      <trkpt lat="43.275583" lon="-4.296583">
        <ele>855.0</ele>
        <time>2015-05-23T15:19:49Z</time>
      </trkpt>
      <trkpt lat="43.275583" lon="-4.296450">
        <ele>853.0</ele>
        <time>2015-05-23T15:19:50Z</time>
      </trkpt>
      <trkpt lat="43.275583" lon="-4.296333">
        <ele>851.0</ele>
        <time>2015-05-23T15:19:51Z</time>
      </trkpt>
      <trkpt lat="43.275583" lon="-4.296183">
        <ele>849.0</ele>
        <time>2015-05-23T15:19:52Z</time>
      </trkpt>
      <trkpt lat="43.275583" lon="-4.296050">
        <ele>848.0</ele>
        <time>2015-05-23T15:19:53Z</time>
      </trkpt>
      <trkpt lat="43.275567" lon="-4.295917">
        <ele>846.0</ele>
        <time>2015-05-23T15:19:54Z</time>
      </trkpt>
      <trkpt lat="43.275567" lon="-4.295767">
        <ele>845.0</ele>
        <time>2015-05-23T15:19:55Z</time>
      </trkpt>
      <trkpt lat="43.275583" lon="-4.295633">
        <ele>844.0</ele>
        <time>2015-05-23T15:19:56Z</time>
      </trkpt>
      <trkpt lat="43.275583" lon="-4.295500">
        <ele>843.0</ele>
        <time>2015-05-23T15:19:57Z</time>
      </trkpt>
      <trkpt lat="43.275567" lon="-4.295367">
        <ele>843.0</ele>
        <time>2015-05-23T15:19:58Z</time>
      </trkpt>
      <trkpt lat="43.275550" lon="-4.295250">
        <ele>843.0</ele>
        <time>2015-05-23T15:19:59Z</time>
      </trkpt>
      <trkpt lat="43.275550" lon="-4.295117">
        <ele>845.0</ele>
        <time>2015-05-23T15:20:00Z</time>
      </trkpt>
      <trkpt lat="43.275550" lon="-4.295000">
        <ele>845.0</ele>
        <time>2015-05-23T15:20:01Z</time>
      </trkpt>
      <trkpt lat="43.275567" lon="-4.294883">
        <ele>845.0</ele>
        <time>2015-05-23T15:20:02Z</time>
      </trkpt>
      <trkpt lat="43.275567" lon="-4.294750">
        <ele>845.0</ele>
        <time>2015-05-23T15:20:03Z</time>
      </trkpt>
      <trkpt lat="43.275583" lon="-4.294633">
        <ele>845.0</ele>
        <time>2015-05-23T15:20:04Z</time>
      </trkpt>
      <trkpt lat="43.275600" lon="-4.294500">
        <ele>845.0</ele>
        <time>2015-05-23T15:20:05Z</time>
      </trkpt>
      <trkpt lat="43.275600" lon="-4.294400">
        <ele>845.0</ele>
        <time>2015-05-23T15:20:06Z</time>
      </trkpt>
      <trkpt lat="43.275617" lon="-4.294283">
        <ele>844.0</ele>
        <time>2015-05-23T15:20:07Z</time>
      </trkpt>
      <trkpt lat="43.275633" lon="-4.294150">
        <ele>844.0</ele>
        <time>2015-05-23T15:20:08Z</time>
      </trkpt>
      <trkpt lat="43.275650" lon="-4.294033">
        <ele>844.0</ele>
        <time>2015-05-23T15:20:09Z</time>
      </trkpt>
      <trkpt lat="43.275650" lon="-4.293900">
        <ele>844.0</ele>
        <time>2015-05-23T15:20:10Z</time>
      </trkpt>
      <trkpt lat="43.275650" lon="-4.293783">
        <ele>844.0</ele>
        <time>2015-05-23T15:20:11Z</time>
      </trkpt>
      <trkpt lat="43.275650" lon="-4.293650">
        <ele>844.0</ele>
        <time>2015-05-23T15:20:12Z</time>
      </trkpt>
      <trkpt lat="43.275650" lon="-4.293533">
        <ele>843.0</ele>
        <time>2015-05-23T15:20:13Z</time>
      </trkpt>
      <trkpt lat="43.275667" lon="-4.293417">
        <ele>843.0</ele>
        <time>2015-05-23T15:20:14Z</time>
      </trkpt>
      <trkpt lat="43.275667" lon="-4.293300">
        <ele>843.0</ele>
        <time>2015-05-23T15:20:15Z</time>
      </trkpt>
      <trkpt lat="43.275667" lon="-4.293183">
        <ele>842.0</ele>
        <time>2015-05-23T15:20:16Z</time>
      </trkpt>
      <trkpt lat="43.275683" lon="-4.293067">
        <ele>842.0</ele>
        <time>2015-05-23T15:20:17Z</time>
      </trkpt>
      <trkpt lat="43.275700" lon="-4.292933">
        <ele>842.0</ele>
        <time>2015-05-23T15:20:18Z</time>
      </trkpt>
      <trkpt lat="43.275700" lon="-4.292817">
        <ele>842.0</ele>
        <time>2015-05-23T15:20:19Z</time>
      </trkpt>
      <trkpt lat="43.275717" lon="-4.292700">
        <ele>842.0</ele>
        <time>2015-05-23T15:20:20Z</time>
      </trkpt>
      <trkpt lat="43.275717" lon="-4.292583">
        <ele>841.0</ele>
        <time>2015-05-23T15:20:21Z</time>
      </trkpt>
      <trkpt lat="43.275733" lon="-4.292467">
        <ele>841.0</ele>
        <time>2015-05-23T15:20:22Z</time>
      </trkpt>
      <trkpt lat="43.275750" lon="-4.292350">
        <ele>841.0</ele>
        <time>2015-05-23T15:20:23Z</time>
      </trkpt>
      <trkpt lat="43.275767" lon="-4.292233">
        <ele>840.0</ele>
        <time>2015-05-23T15:20:24Z</time>
      </trkpt>
      <trkpt lat="43.275783" lon="-4.292117">
        <ele>840.0</ele>
        <time>2015-05-23T15:20:25Z</time>
      </trkpt>
      <trkpt lat="43.275783" lon="-4.292000">
        <ele>839.0</ele>
        <time>2015-05-23T15:20:26Z</time>
      </trkpt>
      <trkpt lat="43.275800" lon="-4.291867">
        <ele>839.0</ele>
        <time>2015-05-23T15:20:27Z</time>
      </trkpt>
      <trkpt lat="43.275800" lon="-4.291733">
        <ele>838.0</ele>
        <time>2015-05-23T15:20:28Z</time>
      </trkpt>
      <trkpt lat="43.275817" lon="-4.291600">
        <ele>838.0</ele>
        <time>2015-05-23T15:20:29Z</time>
      </trkpt>
      <trkpt lat="43.275817" lon="-4.291450">
        <ele>837.0</ele>
        <time>2015-05-23T15:20:30Z</time>
      </trkpt>
      <trkpt lat="43.275833" lon="-4.291333">
        <ele>837.0</ele>
        <time>2015-05-23T15:20:31Z</time>
      </trkpt>
      <trkpt lat="43.275850" lon="-4.291200">
        <ele>837.0</ele>
        <time>2015-05-23T15:20:32Z</time>
      </trkpt>
      <trkpt lat="43.275850" lon="-4.291083">
        <ele>836.0</ele>
        <time>2015-05-23T15:20:33Z</time>
      </trkpt>
      <trkpt lat="43.275867" lon="-4.290950">
        <ele>835.0</ele>
        <time>2015-05-23T15:20:34Z</time>
      </trkpt>
      <trkpt lat="43.275883" lon="-4.290833">
        <ele>835.0</ele>
        <time>2015-05-23T15:20:35Z</time>
      </trkpt>
      <trkpt lat="43.275883" lon="-4.290717">
        <ele>835.0</ele>
        <time>2015-05-23T15:20:36Z</time>
      </trkpt>
      <trkpt lat="43.275900" lon="-4.290600">
        <ele>835.0</ele>
        <time>2015-05-23T15:20:37Z</time>
      </trkpt>
      <trkpt lat="43.275917" lon="-4.290500">
        <ele>835.0</ele>
        <time>2015-05-23T15:20:38Z</time>
      </trkpt>
      <trkpt lat="43.275933" lon="-4.290417">
        <ele>834.0</ele>
        <time>2015-05-23T15:20:39Z</time>
      </trkpt>
      <trkpt lat="43.275933" lon="-4.290333">
        <ele>834.0</ele>
        <time>2015-05-23T15:20:40Z</time>
      </trkpt>
      <trkpt lat="43.275933" lon="-4.290267">
        <ele>834.0</ele>
        <time>2015-05-23T15:20:41Z</time>
      </trkpt>
      <trkpt lat="43.275967" lon="-4.290200">
        <ele>833.0</ele>
        <time>2015-05-23T15:20:42Z</time>
      </trkpt>
      <trkpt lat="43.276000" lon="-4.290183">
        <ele>833.0</ele>
        <time>2015-05-23T15:20:43Z</time>
      </trkpt>
      <trkpt lat="43.276033" lon="-4.290200">
        <ele>833.0</ele>
        <time>2015-05-23T15:20:44Z</time>
      </trkpt>
      <trkpt lat="43.276067" lon="-4.290233">
        <ele>833.0</ele>
        <time>2015-05-23T15:20:45Z</time>
      </trkpt>
      <trkpt lat="43.276067" lon="-4.290267">
        <ele>835.0</ele>
        <time>2015-05-23T15:20:46Z</time>
      </trkpt>
      <trkpt lat="43.276067" lon="-4.290283">
        <ele>837.0</ele>
        <time>2015-05-23T15:20:47Z</time>
      </trkpt>
      <trkpt lat="43.276083" lon="-4.290317">
        <ele>838.0</ele>
        <time>2015-05-23T15:20:48Z</time>
      </trkpt>
      <trkpt lat="43.276083" lon="-4.290350">
        <ele>837.0</ele>
        <time>2015-05-23T15:20:49Z</time>
      </trkpt>
      <trkpt lat="43.276100" lon="-4.290400">
        <ele>837.0</ele>
        <time>2015-05-23T15:20:50Z</time>
      </trkpt>
      <trkpt lat="43.276100" lon="-4.290450">
        <ele>838.0</ele>
        <time>2015-05-23T15:20:51Z</time>
      </trkpt>
      <trkpt lat="43.276100" lon="-4.290483">
        <ele>839.0</ele>
        <time>2015-05-23T15:20:52Z</time>
      </trkpt>
      <trkpt lat="43.276100" lon="-4.290517">
        <ele>839.0</ele>
        <time>2015-05-23T15:20:53Z</time>
      </trkpt>
      <trkpt lat="43.276100" lon="-4.290550">
        <ele>839.0</ele>
        <time>2015-05-23T15:20:54Z</time>
      </trkpt>
      <trkpt lat="43.276100" lon="-4.290600">
        <ele>838.0</ele>
        <time>2015-05-23T15:20:55Z</time>
      </trkpt>
      <trkpt lat="43.276100" lon="-4.290650">
        <ele>837.0</ele>
        <time>2015-05-23T15:20:56Z</time>
      </trkpt>
      <trkpt lat="43.276083" lon="-4.290733">
        <ele>837.0</ele>
        <time>2015-05-23T15:20:57Z</time>
      </trkpt>
      <trkpt lat="43.276050" lon="-4.290817">
        <ele>838.0</ele>
        <time>2015-05-23T15:20:58Z</time>
      </trkpt>
      <trkpt lat="43.276000" lon="-4.290883">
        <ele>839.0</ele>
        <time>2015-05-23T15:20:59Z</time>
      </trkpt>
      <trkpt lat="43.275933" lon="-4.290950">
        <ele>840.0</ele>
        <time>2015-05-23T15:21:00Z</time>
      </trkpt>
      <trkpt lat="43.275850" lon="-4.291000">
        <ele>840.0</ele>
        <time>2015-05-23T15:21:01Z</time>
      </trkpt>
      <trkpt lat="43.275767" lon="-4.291017">
        <ele>841.0</ele>
        <time>2015-05-23T15:21:02Z</time>
      </trkpt>
      <trkpt lat="43.275667" lon="-4.291033">
        <ele>840.0</ele>
        <time>2015-05-23T15:21:03Z</time>
      </trkpt>
      <trkpt lat="43.275550" lon="-4.291000">
        <ele>839.0</ele>
        <time>2015-05-23T15:21:04Z</time>
      </trkpt>
      <trkpt lat="43.275433" lon="-4.290950">
        <ele>838.0</ele>
        <time>2015-05-23T15:21:05Z</time>
      </trkpt>
      <trkpt lat="43.275333" lon="-4.290900">
        <ele>838.0</ele>
        <time>2015-05-23T15:21:06Z</time>
      </trkpt>
      <trkpt lat="43.275233" lon="-4.290817">
        <ele>838.0</ele>
        <time>2015-05-23T15:21:07Z</time>
      </trkpt>
      <trkpt lat="43.275150" lon="-4.290717">
        <ele>838.0</ele>
        <time>2015-05-23T15:21:08Z</time>
      </trkpt>
      <trkpt lat="43.275067" lon="-4.290600">
        <ele>838.0</ele>
        <time>2015-05-23T15:21:09Z</time>
      </trkpt>
      <trkpt lat="43.275000" lon="-4.290483">
        <ele>838.0</ele>
        <time>2015-05-23T15:21:10Z</time>
      </trkpt>
      <trkpt lat="43.274967" lon="-4.290367">
        <ele>838.0</ele>
        <time>2015-05-23T15:21:11Z</time>
      </trkpt>
      <trkpt lat="43.274933" lon="-4.290250">
        <ele>838.0</ele>
        <time>2015-05-23T15:21:12Z</time>
      </trkpt>
      <trkpt lat="43.274917" lon="-4.290133">
        <ele>838.0</ele>
        <time>2015-05-23T15:21:13Z</time>
      </trkpt>
      <trkpt lat="43.274900" lon="-4.290017">
        <ele>838.0</ele>
        <time>2015-05-23T15:21:14Z</time>
      </trkpt>
      <trkpt lat="43.274883" lon="-4.289917">
        <ele>838.0</ele>
        <time>2015-05-23T15:21:15Z</time>
      </trkpt>
      <trkpt lat="43.274883" lon="-4.289800">
        <ele>838.0</ele>
        <time>2015-05-23T15:21:16Z</time>
      </trkpt>
      <trkpt lat="43.274883" lon="-4.289683">
        <ele>838.0</ele>
        <time>2015-05-23T15:21:17Z</time>
      </trkpt>
      <trkpt lat="43.274883" lon="-4.289550">
        <ele>838.0</ele>
        <time>2015-05-23T15:21:18Z</time>
      </trkpt>
      <trkpt lat="43.274883" lon="-4.289433">
        <ele>839.0</ele>
        <time>2015-05-23T15:21:19Z</time>
      </trkpt>
      <trkpt lat="43.274883" lon="-4.289300">
        <ele>839.0</ele>
        <time>2015-05-23T15:21:20Z</time>
      </trkpt>
      <trkpt lat="43.274900" lon="-4.289183">
        <ele>841.0</ele>
        <time>2015-05-23T15:21:21Z</time>
      </trkpt>
      <trkpt lat="43.274900" lon="-4.289083">
        <ele>842.0</ele>
        <time>2015-05-23T15:21:22Z</time>
      </trkpt>
      <trkpt lat="43.274900" lon="-4.288967">
        <ele>842.0</ele>
        <time>2015-05-23T15:21:23Z</time>
      </trkpt>
      <trkpt lat="43.274900" lon="-4.288850">
        <ele>843.0</ele>
        <time>2015-05-23T15:21:24Z</time>
      </trkpt>
      <trkpt lat="43.274917" lon="-4.288717">
        <ele>843.0</ele>
        <time>2015-05-23T15:21:25Z</time>
      </trkpt>
      <trkpt lat="43.274917" lon="-4.288600">
        <ele>843.0</ele>
        <time>2015-05-23T15:21:26Z</time>
      </trkpt>
      <trkpt lat="43.274917" lon="-4.288483">
        <ele>844.0</ele>
        <time>2015-05-23T15:21:27Z</time>
      </trkpt>
      <trkpt lat="43.274917" lon="-4.288367">
        <ele>845.0</ele>
        <time>2015-05-23T15:21:28Z</time>
      </trkpt>
      <trkpt lat="43.274917" lon="-4.288250">
        <ele>845.0</ele>
        <time>2015-05-23T15:21:29Z</time>
      </trkpt>
      <trkpt lat="43.274917" lon="-4.288150">
        <ele>847.0</ele>
        <time>2015-05-23T15:21:30Z</time>
      </trkpt>
      <trkpt lat="43.274917" lon="-4.288050">
        <ele>848.0</ele>
        <time>2015-05-23T15:21:31Z</time>
      </trkpt>
      <trkpt lat="43.274917" lon="-4.287967">
        <ele>851.0</ele>
        <time>2015-05-23T15:21:32Z</time>
      </trkpt>
      <trkpt lat="43.274917" lon="-4.287900">
        <ele>853.0</ele>
        <time>2015-05-23T15:21:33Z</time>
      </trkpt>
      <trkpt lat="43.274933" lon="-4.287833">
        <ele>855.0</ele>
        <time>2015-05-23T15:21:34Z</time>
      </trkpt>
      <trkpt lat="43.274933" lon="-4.287767">
        <ele>857.0</ele>
        <time>2015-05-23T15:21:35Z</time>
      </trkpt>
      <trkpt lat="43.274967" lon="-4.287700">
        <ele>857.0</ele>
        <time>2015-05-23T15:21:36Z</time>
      </trkpt>
      <trkpt lat="43.275000" lon="-4.287650">
        <ele>860.0</ele>
        <time>2015-05-23T15:21:37Z</time>
      </trkpt>
      <trkpt lat="43.275033" lon="-4.287617">
        <ele>863.0</ele>
        <time>2015-05-23T15:21:38Z</time>
      </trkpt>
      <trkpt lat="43.275067" lon="-4.287633">
        <ele>867.0</ele>
        <time>2015-05-23T15:21:39Z</time>
      </trkpt>
      <trkpt lat="43.275083" lon="-4.287650">
        <ele>869.0</ele>
        <time>2015-05-23T15:21:40Z</time>
      </trkpt>
      <trkpt lat="43.275100" lon="-4.287667">
        <ele>872.0</ele>
        <time>2015-05-23T15:21:41Z</time>
      </trkpt>
      <trkpt lat="43.275117" lon="-4.287700">
        <ele>874.0</ele>
        <time>2015-05-23T15:21:42Z</time>
      </trkpt>
      <trkpt lat="43.275150" lon="-4.287750">
        <ele>876.0</ele>
        <time>2015-05-23T15:21:43Z</time>
      </trkpt>
      <trkpt lat="43.275167" lon="-4.287817">
        <ele>878.0</ele>
        <time>2015-05-23T15:21:44Z</time>
      </trkpt>
      <trkpt lat="43.275150" lon="-4.287900">
        <ele>881.0</ele>
        <time>2015-05-23T15:21:45Z</time>
      </trkpt>
      <trkpt lat="43.275100" lon="-4.287983">
        <ele>882.0</ele>
        <time>2015-05-23T15:21:46Z</time>
      </trkpt>
      <trkpt lat="43.275017" lon="-4.288033">
        <ele>883.0</ele>
        <time>2015-05-23T15:21:47Z</time>
      </trkpt>
      <trkpt lat="43.274917" lon="-4.288083">
        <ele>884.0</ele>
        <time>2015-05-23T15:21:48Z</time>
      </trkpt>
      <trkpt lat="43.274817" lon="-4.288083">
        <ele>884.0</ele>
        <time>2015-05-23T15:21:49Z</time>
      </trkpt>
      <trkpt lat="43.274700" lon="-4.288050">
        <ele>884.0</ele>
        <time>2015-05-23T15:21:50Z</time>
      </trkpt>
      <trkpt lat="43.274617" lon="-4.287983">
        <ele>885.0</ele>
        <time>2015-05-23T15:21:51Z</time>
      </trkpt>
      <trkpt lat="43.274533" lon="-4.287883">
        <ele>886.0</ele>
        <time>2015-05-23T15:21:52Z</time>
      </trkpt>
      <trkpt lat="43.274483" lon="-4.287750">
        <ele>887.0</ele>
        <time>2015-05-23T15:21:53Z</time>
      </trkpt>
      <trkpt lat="43.274450" lon="-4.287633">
        <ele>889.0</ele>
        <time>2015-05-23T15:21:54Z</time>
      </trkpt>
      <trkpt lat="43.274433" lon="-4.287517">
        <ele>892.0</ele>
        <time>2015-05-23T15:21:55Z</time>
      </trkpt>
      <trkpt lat="43.274417" lon="-4.287417">
        <ele>895.0</ele>
        <time>2015-05-23T15:21:56Z</time>
      </trkpt>
      <trkpt lat="43.274400" lon="-4.287317">
        <ele>898.0</ele>
        <time>2015-05-23T15:21:57Z</time>
      </trkpt>
      <trkpt lat="43.274400" lon="-4.287233">
        <ele>898.0</ele>
        <time>2015-05-23T15:21:58Z</time>
      </trkpt>
      <trkpt lat="43.274400" lon="-4.287167">
        <ele>900.0</ele>
        <time>2015-05-23T15:21:59Z</time>
      </trkpt>
      <trkpt lat="43.274417" lon="-4.287100">
        <ele>903.0</ele>
        <time>2015-05-23T15:22:00Z</time>
      </trkpt>
      <trkpt lat="43.274433" lon="-4.287050">
        <ele>906.0</ele>
        <time>2015-05-23T15:22:01Z</time>
      </trkpt>
      <trkpt lat="43.274433" lon="-4.287033">
        <ele>905.0</ele>
        <time>2015-05-23T15:22:02Z</time>
      </trkpt>
      <trkpt lat="43.274433" lon="-4.287000">
        <ele>907.0</ele>
        <time>2015-05-23T15:22:03Z</time>
      </trkpt>
      <trkpt lat="43.274433" lon="-4.286967">
        <ele>909.0</ele>
        <time>2015-05-23T15:22:04Z</time>
      </trkpt>
      <trkpt lat="43.274450" lon="-4.286933">
        <ele>910.0</ele>
        <time>2015-05-23T15:22:05Z</time>
      </trkpt>
      <trkpt lat="43.274483" lon="-4.286933">
        <ele>912.0</ele>
        <time>2015-05-23T15:22:06Z</time>
      </trkpt>
      <trkpt lat="43.274517" lon="-4.286950">
        <ele>914.0</ele>
        <time>2015-05-23T15:22:07Z</time>
      </trkpt>
      <trkpt lat="43.274517" lon="-4.287000">
        <ele>916.0</ele>
        <time>2015-05-23T15:22:08Z</time>
      </trkpt>
      <trkpt lat="43.274517" lon="-4.287067">
        <ele>917.0</ele>
        <time>2015-05-23T15:22:09Z</time>
      </trkpt>
      <trkpt lat="43.274483" lon="-4.287133">
        <ele>919.0</ele>
        <time>2015-05-23T15:22:10Z</time>
      </trkpt>
      <trkpt lat="43.274433" lon="-4.287200">
        <ele>920.0</ele>
        <time>2015-05-23T15:22:11Z</time>
      </trkpt>
      <trkpt lat="43.274350" lon="-4.287267">
        <ele>921.0</ele>
        <time>2015-05-23T15:22:12Z</time>
      </trkpt>
      <trkpt lat="43.274267" lon="-4.287317">
        <ele>922.0</ele>
        <time>2015-05-23T15:22:13Z</time>
      </trkpt>
      <trkpt lat="43.274150" lon="-4.287333">
        <ele>922.0</ele>
        <time>2015-05-23T15:22:14Z</time>
      </trkpt>
      <trkpt lat="43.274033" lon="-4.287317">
        <ele>923.0</ele>
        <time>2015-05-23T15:22:15Z</time>
      </trkpt>
      <trkpt lat="43.273917" lon="-4.287267">
        <ele>924.0</ele>
        <time>2015-05-23T15:22:16Z</time>
      </trkpt>
      <trkpt lat="43.273800" lon="-4.287167">
        <ele>925.0</ele>
        <time>2015-05-23T15:22:17Z</time>
      </trkpt>
      <trkpt lat="43.273717" lon="-4.287050">
        <ele>927.0</ele>
        <time>2015-05-23T15:22:18Z</time>
      </trkpt>
      <trkpt lat="43.273667" lon="-4.286917">
        <ele>929.0</ele>
        <time>2015-05-23T15:22:19Z</time>
      </trkpt>
      <trkpt lat="43.273633" lon="-4.286783">
        <ele>932.0</ele>
        <time>2015-05-23T15:22:20Z</time>
      </trkpt>
      <trkpt lat="43.273600" lon="-4.286683">
        <ele>936.0</ele>
        <time>2015-05-23T15:22:21Z</time>
      </trkpt>
      <trkpt lat="43.273583" lon="-4.286600">
        <ele>939.0</ele>
        <time>2015-05-23T15:22:22Z</time>
      </trkpt>
      <trkpt lat="43.273567" lon="-4.286500">
        <ele>941.0</ele>
        <time>2015-05-23T15:22:23Z</time>
      </trkpt>
      <trkpt lat="43.273567" lon="-4.286417">
        <ele>943.0</ele>
        <time>2015-05-23T15:22:24Z</time>
      </trkpt>
      <trkpt lat="43.273550" lon="-4.286317">
        <ele>945.0</ele>
        <time>2015-05-23T15:22:25Z</time>
      </trkpt>
      <trkpt lat="43.273567" lon="-4.286233">
        <ele>946.0</ele>
        <time>2015-05-23T15:22:26Z</time>
      </trkpt>
      <trkpt lat="43.273550" lon="-4.286183">
        <ele>946.0</ele>
        <time>2015-05-23T15:22:27Z</time>
      </trkpt>
      <trkpt lat="43.273550" lon="-4.286117">
        <ele>946.0</ele>
        <time>2015-05-23T15:22:28Z</time>
      </trkpt>
      <trkpt lat="43.273567" lon="-4.286050">
        <ele>948.0</ele>
        <time>2015-05-23T15:22:29Z</time>
      </trkpt>
      <trkpt lat="43.273567" lon="-4.285983">
        <ele>949.0</ele>
        <time>2015-05-23T15:22:30Z</time>
      </trkpt>
      <trkpt lat="43.273600" lon="-4.285917">
        <ele>950.0</ele>
        <time>2015-05-23T15:22:31Z</time>
      </trkpt>
      <trkpt lat="43.273600" lon="-4.285850">
        <ele>950.0</ele>
        <time>2015-05-23T15:22:32Z</time>
      </trkpt>
      <trkpt lat="43.273617" lon="-4.285783">
        <ele>951.0</ele>
        <time>2015-05-23T15:22:33Z</time>
      </trkpt>
      <trkpt lat="43.273633" lon="-4.285717">
        <ele>952.0</ele>
        <time>2015-05-23T15:22:34Z</time>
      </trkpt>
      <trkpt lat="43.273650" lon="-4.285650">
        <ele>952.0</ele>
        <time>2015-05-23T15:22:35Z</time>
      </trkpt>
      <trkpt lat="43.273667" lon="-4.285583">
        <ele>952.0</ele>
        <time>2015-05-23T15:22:36Z</time>
      </trkpt>
      <trkpt lat="43.273700" lon="-4.285500">
        <ele>952.0</ele>
        <time>2015-05-23T15:22:37Z</time>
      </trkpt>
      <trkpt lat="43.273733" lon="-4.285417">
        <ele>951.0</ele>
        <time>2015-05-23T15:22:38Z</time>
      </trkpt>
      <trkpt lat="43.273767" lon="-4.285317">
        <ele>951.0</ele>
        <time>2015-05-23T15:22:39Z</time>
      </trkpt>
      <trkpt lat="43.273800" lon="-4.285233">
        <ele>951.0</ele>
        <time>2015-05-23T15:22:40Z</time>
      </trkpt>
      <trkpt lat="43.273833" lon="-4.285150">
        <ele>951.0</ele>
        <time>2015-05-23T15:22:41Z</time>
      </trkpt>
      <trkpt lat="43.273867" lon="-4.285083">
        <ele>951.0</ele>
        <time>2015-05-23T15:22:42Z</time>
      </trkpt>
      <trkpt lat="43.273867" lon="-4.285000">
        <ele>951.0</ele>
        <time>2015-05-23T15:22:43Z</time>
      </trkpt>
      <trkpt lat="43.273883" lon="-4.284917">
        <ele>951.0</ele>
        <time>2015-05-23T15:22:44Z</time>
      </trkpt>
      <trkpt lat="43.273883" lon="-4.284800">
        <ele>951.0</ele>
        <time>2015-05-23T15:22:45Z</time>
      </trkpt>
      <trkpt lat="43.273900" lon="-4.284700">
        <ele>951.0</ele>
        <time>2015-05-23T15:22:46Z</time>
      </trkpt>
      <trkpt lat="43.273933" lon="-4.284583">
        <ele>951.0</ele>
        <time>2015-05-23T15:22:47Z</time>
      </trkpt>
      <trkpt lat="43.273967" lon="-4.284500">
        <ele>950.0</ele>
        <time>2015-05-23T15:22:48Z</time>
      </trkpt>
      <trkpt lat="43.274017" lon="-4.284400">
        <ele>949.0</ele>
        <time>2015-05-23T15:22:49Z</time>
      </trkpt>
      <trkpt lat="43.274067" lon="-4.284300">
        <ele>948.0</ele>
        <time>2015-05-23T15:22:50Z</time>
      </trkpt>
      <trkpt lat="43.274100" lon="-4.284217">
        <ele>946.0</ele>
        <time>2015-05-23T15:22:51Z</time>
      </trkpt>
      <trkpt lat="43.274150" lon="-4.284117">
        <ele>943.0</ele>
        <time>2015-05-23T15:22:52Z</time>
      </trkpt>
      <trkpt lat="43.274183" lon="-4.284017">
        <ele>943.0</ele>
        <time>2015-05-23T15:22:53Z</time>
      </trkpt>
      <trkpt lat="43.274217" lon="-4.283933">
        <ele>942.0</ele>
        <time>2015-05-23T15:22:54Z</time>
      </trkpt>
      <trkpt lat="43.274250" lon="-4.283850">
        <ele>942.0</ele>
        <time>2015-05-23T15:22:55Z</time>
      </trkpt>
      <trkpt lat="43.274283" lon="-4.283767">
        <ele>940.0</ele>
        <time>2015-05-23T15:22:56Z</time>
      </trkpt>
      <trkpt lat="43.274300" lon="-4.283700">
        <ele>938.0</ele>
        <time>2015-05-23T15:22:57Z</time>
      </trkpt>
      <trkpt lat="43.274333" lon="-4.283617">
        <ele>938.0</ele>
        <time>2015-05-23T15:22:58Z</time>
      </trkpt>
      <trkpt lat="43.274383" lon="-4.283533">
        <ele>937.0</ele>
        <time>2015-05-23T15:22:59Z</time>
      </trkpt>
      <trkpt lat="43.274417" lon="-4.283467">
        <ele>935.0</ele>
        <time>2015-05-23T15:23:00Z</time>
      </trkpt>
      <trkpt lat="43.274450" lon="-4.283400">
        <ele>932.0</ele>
        <time>2015-05-23T15:23:01Z</time>
      </trkpt>
      <trkpt lat="43.274500" lon="-4.283333">
        <ele>930.0</ele>
        <time>2015-05-23T15:23:02Z</time>
      </trkpt>
      <trkpt lat="43.274567" lon="-4.283233">
        <ele>928.0</ele>
        <time>2015-05-23T15:23:03Z</time>
      </trkpt>
      <trkpt lat="43.274617" lon="-4.283133">
        <ele>928.0</ele>
        <time>2015-05-23T15:23:04Z</time>
      </trkpt>
      <trkpt lat="43.274683" lon="-4.283050">
        <ele>927.0</ele>
        <time>2015-05-23T15:23:05Z</time>
      </trkpt>
      <trkpt lat="43.274733" lon="-4.282950">
        <ele>927.0</ele>
        <time>2015-05-23T15:23:06Z</time>
      </trkpt>
      <trkpt lat="43.274767" lon="-4.282867">
        <ele>927.0</ele>
        <time>2015-05-23T15:23:07Z</time>
      </trkpt>
      <trkpt lat="43.274817" lon="-4.282783">
        <ele>926.0</ele>
        <time>2015-05-23T15:23:08Z</time>
      </trkpt>
      <trkpt lat="43.274850" lon="-4.282700">
        <ele>926.0</ele>
        <time>2015-05-23T15:23:09Z</time>
      </trkpt>
      <trkpt lat="43.274867" lon="-4.282600">
        <ele>925.0</ele>
        <time>2015-05-23T15:23:10Z</time>
      </trkpt>
      <trkpt lat="43.274900" lon="-4.282517">
        <ele>925.0</ele>
        <time>2015-05-23T15:23:11Z</time>
      </trkpt>
      <trkpt lat="43.274933" lon="-4.282417">
        <ele>925.0</ele>
        <time>2015-05-23T15:23:12Z</time>
      </trkpt>
      <trkpt lat="43.274967" lon="-4.282317">
        <ele>925.0</ele>
        <time>2015-05-23T15:23:13Z</time>
      </trkpt>
      <trkpt lat="43.275000" lon="-4.282217">
        <ele>924.0</ele>
        <time>2015-05-23T15:23:14Z</time>
      </trkpt>
      <trkpt lat="43.275017" lon="-4.282117">
        <ele>923.0</ele>
        <time>2015-05-23T15:23:15Z</time>
      </trkpt>
      <trkpt lat="43.275067" lon="-4.282033">
        <ele>922.0</ele>
        <time>2015-05-23T15:23:16Z</time>
      </trkpt>
      <trkpt lat="43.275117" lon="-4.281950">
        <ele>921.0</ele>
        <time>2015-05-23T15:23:17Z</time>
      </trkpt>
      <trkpt lat="43.275150" lon="-4.281850">
        <ele>921.0</ele>
        <time>2015-05-23T15:23:18Z</time>
      </trkpt>
      <trkpt lat="43.275183" lon="-4.281750">
        <ele>920.0</ele>
        <time>2015-05-23T15:23:19Z</time>
      </trkpt>
      <trkpt lat="43.275233" lon="-4.281650">
        <ele>920.0</ele>
        <time>2015-05-23T15:23:20Z</time>
      </trkpt>
      <trkpt lat="43.275283" lon="-4.281533">
        <ele>920.0</ele>
        <time>2015-05-23T15:23:21Z</time>
      </trkpt>
      <trkpt lat="43.275333" lon="-4.281433">
        <ele>919.0</ele>
        <time>2015-05-23T15:23:22Z</time>
      </trkpt>
      <trkpt lat="43.275383" lon="-4.281317">
        <ele>918.0</ele>
        <time>2015-05-23T15:23:23Z</time>
      </trkpt>
      <trkpt lat="43.275417" lon="-4.281200">
        <ele>918.0</ele>
        <time>2015-05-23T15:23:24Z</time>
      </trkpt>
      <trkpt lat="43.275450" lon="-4.281100">
        <ele>917.0</ele>
        <time>2015-05-23T15:23:25Z</time>
      </trkpt>
      <trkpt lat="43.275483" lon="-4.280983">
        <ele>915.0</ele>
        <time>2015-05-23T15:23:26Z</time>
      </trkpt>
      <trkpt lat="43.275533" lon="-4.280883">
        <ele>915.0</ele>
        <time>2015-05-23T15:23:27Z</time>
      </trkpt>
      <trkpt lat="43.275583" lon="-4.280783">
        <ele>914.0</ele>
        <time>2015-05-23T15:23:28Z</time>
      </trkpt>
      <trkpt lat="43.275583" lon="-4.280667">
        <ele>912.0</ele>
        <time>2015-05-23T15:23:29Z</time>
      </trkpt>
      <trkpt lat="43.275583" lon="-4.280567">
        <ele>910.0</ele>
        <time>2015-05-23T15:23:30Z</time>
      </trkpt>
      <trkpt lat="43.275617" lon="-4.280467">
        <ele>909.0</ele>
        <time>2015-05-23T15:23:31Z</time>
      </trkpt>
      <trkpt lat="43.275650" lon="-4.280350">
        <ele>905.0</ele>
        <time>2015-05-23T15:23:32Z</time>
      </trkpt>
      <trkpt lat="43.275683" lon="-4.280250">
        <ele>903.0</ele>
        <time>2015-05-23T15:23:33Z</time>
      </trkpt>
      <trkpt lat="43.275717" lon="-4.280167">
        <ele>902.0</ele>
        <time>2015-05-23T15:23:34Z</time>
      </trkpt>
      <trkpt lat="43.275717" lon="-4.280067">
        <ele>900.0</ele>
        <time>2015-05-23T15:23:35Z</time>
      </trkpt>
      <trkpt lat="43.275750" lon="-4.279983">
        <ele>899.0</ele>
        <time>2015-05-23T15:23:36Z</time>
      </trkpt>
      <trkpt lat="43.275783" lon="-4.279883">
        <ele>897.0</ele>
        <time>2015-05-23T15:23:37Z</time>
      </trkpt>
      <trkpt lat="43.275817" lon="-4.279800">
        <ele>895.0</ele>
        <time>2015-05-23T15:23:38Z</time>
      </trkpt>
      <trkpt lat="43.275850" lon="-4.279717">
        <ele>894.0</ele>
        <time>2015-05-23T15:23:39Z</time>
      </trkpt>
      <trkpt lat="43.275867" lon="-4.279633">
        <ele>892.0</ele>
        <time>2015-05-23T15:23:40Z</time>
      </trkpt>
      <trkpt lat="43.275883" lon="-4.279550">
        <ele>891.0</ele>
        <time>2015-05-23T15:23:41Z</time>
      </trkpt>
      <trkpt lat="43.275900" lon="-4.279483">
        <ele>890.0</ele>
        <time>2015-05-23T15:23:42Z</time>
      </trkpt>
      <trkpt lat="43.275917" lon="-4.279400">
        <ele>890.0</ele>
        <time>2015-05-23T15:23:43Z</time>
      </trkpt>
      <trkpt lat="43.275933" lon="-4.279333">
        <ele>889.0</ele>
        <time>2015-05-23T15:23:44Z</time>
      </trkpt>
      <trkpt lat="43.275950" lon="-4.279250">
        <ele>888.0</ele>
        <time>2015-05-23T15:23:45Z</time>
      </trkpt>
      <trkpt lat="43.275967" lon="-4.279167">
        <ele>888.0</ele>
        <time>2015-05-23T15:23:46Z</time>
      </trkpt>
      <trkpt lat="43.275983" lon="-4.279083">
        <ele>888.0</ele>
        <time>2015-05-23T15:23:47Z</time>
      </trkpt>
      <trkpt lat="43.276000" lon="-4.279017">
        <ele>887.0</ele>
        <time>2015-05-23T15:23:48Z</time>
      </trkpt>
      <trkpt lat="43.276000" lon="-4.278933">
        <ele>887.0</ele>
        <time>2015-05-23T15:23:49Z</time>
      </trkpt>
      <trkpt lat="43.276017" lon="-4.278850">
        <ele>886.0</ele>
        <time>2015-05-23T15:23:50Z</time>
      </trkpt>
      <trkpt lat="43.276033" lon="-4.278767">
        <ele>886.0</ele>
        <time>2015-05-23T15:23:51Z</time>
      </trkpt>
      <trkpt lat="43.276050" lon="-4.278700">
        <ele>886.0</ele>
        <time>2015-05-23T15:23:52Z</time>
      </trkpt>
      <trkpt lat="43.276067" lon="-4.278633">
        <ele>885.0</ele>
        <time>2015-05-23T15:23:53Z</time>
      </trkpt>
      <trkpt lat="43.276083" lon="-4.278583">
        <ele>885.0</ele>
        <time>2015-05-23T15:23:54Z</time>
      </trkpt>
      <trkpt lat="43.276100" lon="-4.278517">
        <ele>885.0</ele>
        <time>2015-05-23T15:23:55Z</time>
      </trkpt>
      <trkpt lat="43.276150" lon="-4.278433">
        <ele>884.0</ele>
        <time>2015-05-23T15:23:56Z</time>
      </trkpt>
      <trkpt lat="43.276133" lon="-4.278367">
        <ele>884.0</ele>
        <time>2015-05-23T15:23:57Z</time>
      </trkpt>
      <trkpt lat="43.276150" lon="-4.278283">
        <ele>884.0</ele>
        <time>2015-05-23T15:23:58Z</time>
      </trkpt>
      <trkpt lat="43.276150" lon="-4.278233">
        <ele>884.0</ele>
        <time>2015-05-23T15:23:59Z</time>
      </trkpt>
      <trkpt lat="43.276167" lon="-4.278167">
        <ele>884.0</ele>
        <time>2015-05-23T15:24:00Z</time>
      </trkpt>
      <trkpt lat="43.276183" lon="-4.278083">
        <ele>883.0</ele>
        <time>2015-05-23T15:24:01Z</time>
      </trkpt>
      <trkpt lat="43.276200" lon="-4.278017">
        <ele>884.0</ele>
        <time>2015-05-23T15:24:02Z</time>
      </trkpt>
      <trkpt lat="43.276200" lon="-4.277933">
        <ele>884.0</ele>
        <time>2015-05-23T15:24:03Z</time>
      </trkpt>
      <trkpt lat="43.276200" lon="-4.277867">
        <ele>884.0</ele>
        <time>2015-05-23T15:24:04Z</time>
      </trkpt>
      <trkpt lat="43.276200" lon="-4.277800">
        <ele>884.0</ele>
        <time>2015-05-23T15:24:05Z</time>
      </trkpt>
      <trkpt lat="43.276217" lon="-4.277717">
        <ele>884.0</ele>
        <time>2015-05-23T15:24:06Z</time>
      </trkpt>
      <trkpt lat="43.276250" lon="-4.277617">
        <ele>884.0</ele>
        <time>2015-05-23T15:24:07Z</time>
      </trkpt>
      <trkpt lat="43.276283" lon="-4.277550">
        <ele>884.0</ele>
        <time>2015-05-23T15:24:08Z</time>
      </trkpt>
      <trkpt lat="43.276317" lon="-4.277467">
        <ele>885.0</ele>
        <time>2015-05-23T15:24:09Z</time>
      </trkpt>
      <trkpt lat="43.276333" lon="-4.277400">
        <ele>884.0</ele>
        <time>2015-05-23T15:24:10Z</time>
      </trkpt>
      <trkpt lat="43.276350" lon="-4.277333">
        <ele>885.0</ele>
        <time>2015-05-23T15:24:11Z</time>
      </trkpt>
      <trkpt lat="43.276383" lon="-4.277283">
        <ele>885.0</ele>
        <time>2015-05-23T15:24:12Z</time>
      </trkpt>
      <trkpt lat="43.276433" lon="-4.277233">
        <ele>885.0</ele>
        <time>2015-05-23T15:24:13Z</time>
      </trkpt>
      <trkpt lat="43.276467" lon="-4.277200">
        <ele>885.0</ele>
        <time>2015-05-23T15:24:14Z</time>
      </trkpt>
      <trkpt lat="43.276483" lon="-4.277183">
        <ele>885.0</ele>
        <time>2015-05-23T15:24:15Z</time>
      </trkpt>
      <trkpt lat="43.276517" lon="-4.277150">
        <ele>885.0</ele>
        <time>2015-05-23T15:24:16Z</time>
      </trkpt>
      <trkpt lat="43.276567" lon="-4.277150">
        <ele>886.0</ele>
        <time>2015-05-23T15:24:17Z</time>
      </trkpt>
      <trkpt lat="43.276617" lon="-4.277150">
        <ele>886.0</ele>
        <time>2015-05-23T15:24:18Z</time>
      </trkpt>
      <trkpt lat="43.276667" lon="-4.277117">
        <ele>887.0</ele>
        <time>2015-05-23T15:24:19Z</time>
      </trkpt>
      <trkpt lat="43.276717" lon="-4.277083">
        <ele>888.0</ele>
        <time>2015-05-23T15:24:20Z</time>
      </trkpt>
      <trkpt lat="43.276767" lon="-4.277033">
        <ele>889.0</ele>
        <time>2015-05-23T15:24:21Z</time>
      </trkpt>
      <trkpt lat="43.276783" lon="-4.276983">
        <ele>890.0</ele>
        <time>2015-05-23T15:24:22Z</time>
      </trkpt>
      <trkpt lat="43.276817" lon="-4.276950">
        <ele>890.0</ele>
        <time>2015-05-23T15:24:23Z</time>
      </trkpt>
      <trkpt lat="43.276833" lon="-4.276917">
        <ele>890.0</ele>
        <time>2015-05-23T15:24:24Z</time>
      </trkpt>
      <trkpt lat="43.276867" lon="-4.276867">
        <ele>890.0</ele>
        <time>2015-05-23T15:24:25Z</time>
      </trkpt>
      <trkpt lat="43.276900" lon="-4.276783">
        <ele>890.0</ele>
        <time>2015-05-23T15:24:26Z</time>
      </trkpt>
      <trkpt lat="43.276933" lon="-4.276700">
        <ele>890.0</ele>
        <time>2015-05-23T15:24:27Z</time>
      </trkpt>
      <trkpt lat="43.276967" lon="-4.276600">
        <ele>889.0</ele>
        <time>2015-05-23T15:24:28Z</time>
      </trkpt>
      <trkpt lat="43.276983" lon="-4.276500">
        <ele>889.0</ele>
        <time>2015-05-23T15:24:29Z</time>
      </trkpt>
      <trkpt lat="43.277017" lon="-4.276400">
        <ele>889.0</ele>
        <time>2015-05-23T15:24:30Z</time>
      </trkpt>
      <trkpt lat="43.277050" lon="-4.276300">
        <ele>889.0</ele>
        <time>2015-05-23T15:24:31Z</time>
      </trkpt>
      <trkpt lat="43.277067" lon="-4.276200">
        <ele>888.0</ele>
        <time>2015-05-23T15:24:32Z</time>
      </trkpt>
      <trkpt lat="43.277067" lon="-4.276083">
        <ele>887.0</ele>
        <time>2015-05-23T15:24:33Z</time>
      </trkpt>
      <trkpt lat="43.277067" lon="-4.275967">
        <ele>885.0</ele>
        <time>2015-05-23T15:24:34Z</time>
      </trkpt>
      <trkpt lat="43.277050" lon="-4.275850">
        <ele>882.0</ele>
        <time>2015-05-23T15:24:35Z</time>
      </trkpt>
      <trkpt lat="43.277067" lon="-4.275733">
        <ele>881.0</ele>
        <time>2015-05-23T15:24:36Z</time>
      </trkpt>
      <trkpt lat="43.277083" lon="-4.275633">
        <ele>880.0</ele>
        <time>2015-05-23T15:24:37Z</time>
      </trkpt>
      <trkpt lat="43.277100" lon="-4.275517">
        <ele>881.0</ele>
        <time>2015-05-23T15:24:38Z</time>
      </trkpt>
      <trkpt lat="43.277117" lon="-4.275400">
        <ele>880.0</ele>
        <time>2015-05-23T15:24:39Z</time>
      </trkpt>
      <trkpt lat="43.277117" lon="-4.275300">
        <ele>880.0</ele>
        <time>2015-05-23T15:24:40Z</time>
      </trkpt>
      <trkpt lat="43.277133" lon="-4.275183">
        <ele>880.0</ele>
        <time>2015-05-23T15:24:41Z</time>
      </trkpt>
      <trkpt lat="43.277133" lon="-4.275067">
        <ele>880.0</ele>
        <time>2015-05-23T15:24:42Z</time>
      </trkpt>
      <trkpt lat="43.277150" lon="-4.274950">
        <ele>879.0</ele>
        <time>2015-05-23T15:24:43Z</time>
      </trkpt>
      <trkpt lat="43.277150" lon="-4.274833">
        <ele>879.0</ele>
        <time>2015-05-23T15:24:44Z</time>
      </trkpt>
      <trkpt lat="43.277167" lon="-4.274717">
        <ele>878.0</ele>
        <time>2015-05-23T15:24:45Z</time>
      </trkpt>
      <trkpt lat="43.277183" lon="-4.274600">
        <ele>877.0</ele>
        <time>2015-05-23T15:24:46Z</time>
      </trkpt>
      <trkpt lat="43.277200" lon="-4.274483">
        <ele>877.0</ele>
        <time>2015-05-23T15:24:47Z</time>
      </trkpt>
      <trkpt lat="43.277217" lon="-4.274367">
        <ele>876.0</ele>
        <time>2015-05-23T15:24:48Z</time>
      </trkpt>
      <trkpt lat="43.277250" lon="-4.274267">
        <ele>876.0</ele>
        <time>2015-05-23T15:24:49Z</time>
      </trkpt>
      <trkpt lat="43.277267" lon="-4.274150">
        <ele>875.0</ele>
        <time>2015-05-23T15:24:50Z</time>
      </trkpt>
      <trkpt lat="43.277283" lon="-4.274033">
        <ele>874.0</ele>
        <time>2015-05-23T15:24:51Z</time>
      </trkpt>
      <trkpt lat="43.277300" lon="-4.273900">
        <ele>873.0</ele>
        <time>2015-05-23T15:24:52Z</time>
      </trkpt>
      <trkpt lat="43.277333" lon="-4.273783">
        <ele>872.0</ele>
        <time>2015-05-23T15:24:53Z</time>
      </trkpt>
      <trkpt lat="43.277350" lon="-4.273650">
        <ele>871.0</ele>
        <time>2015-05-23T15:24:54Z</time>
      </trkpt>
      <trkpt lat="43.277367" lon="-4.273533">
        <ele>870.0</ele>
        <time>2015-05-23T15:24:55Z</time>
      </trkpt>
      <trkpt lat="43.277383" lon="-4.273417">
        <ele>869.0</ele>
        <time>2015-05-23T15:24:56Z</time>
      </trkpt>
      <trkpt lat="43.277400" lon="-4.273300">
        <ele>867.0</ele>
        <time>2015-05-23T15:24:57Z</time>
      </trkpt>
      <trkpt lat="43.277433" lon="-4.273183">
        <ele>866.0</ele>
        <time>2015-05-23T15:24:58Z</time>
      </trkpt>
      <trkpt lat="43.277450" lon="-4.273067">
        <ele>867.0</ele>
        <time>2015-05-23T15:24:59Z</time>
      </trkpt>
      <trkpt lat="43.277483" lon="-4.272950">
        <ele>866.0</ele>
        <time>2015-05-23T15:25:00Z</time>
      </trkpt>
      <trkpt lat="43.277500" lon="-4.272850">
        <ele>866.0</ele>
        <time>2015-05-23T15:25:01Z</time>
      </trkpt>
      <trkpt lat="43.277533" lon="-4.272733">
        <ele>865.0</ele>
        <time>2015-05-23T15:25:02Z</time>
      </trkpt>
      <trkpt lat="43.277567" lon="-4.272633">
        <ele>865.0</ele>
        <time>2015-05-23T15:25:03Z</time>
      </trkpt>
      <trkpt lat="43.277583" lon="-4.272533">
        <ele>865.0</ele>
        <time>2015-05-23T15:25:04Z</time>
      </trkpt>
      <trkpt lat="43.277617" lon="-4.272433">
        <ele>864.0</ele>
        <time>2015-05-23T15:25:05Z</time>
      </trkpt>
      <trkpt lat="43.277650" lon="-4.272317">
        <ele>863.0</ele>
        <time>2015-05-23T15:25:06Z</time>
      </trkpt>
      <trkpt lat="43.277667" lon="-4.272217">
        <ele>863.0</ele>
        <time>2015-05-23T15:25:07Z</time>
      </trkpt>
      <trkpt lat="43.277700" lon="-4.272117">
        <ele>862.0</ele>
        <time>2015-05-23T15:25:08Z</time>
      </trkpt>
      <trkpt lat="43.277750" lon="-4.272017">
        <ele>862.0</ele>
        <time>2015-05-23T15:25:09Z</time>
      </trkpt>
      <trkpt lat="43.277783" lon="-4.271917">
        <ele>862.0</ele>
        <time>2015-05-23T15:25:10Z</time>
      </trkpt>
      <trkpt lat="43.277833" lon="-4.271800">
        <ele>861.0</ele>
        <time>2015-05-23T15:25:11Z</time>
      </trkpt>
      <trkpt lat="43.277883" lon="-4.271700">
        <ele>860.0</ele>
        <time>2015-05-23T15:25:12Z</time>
      </trkpt>
      <trkpt lat="43.277917" lon="-4.271600">
        <ele>860.0</ele>
        <time>2015-05-23T15:25:13Z</time>
      </trkpt>
      <trkpt lat="43.277967" lon="-4.271500">
        <ele>860.0</ele>
        <time>2015-05-23T15:25:14Z</time>
      </trkpt>
      <trkpt lat="43.278000" lon="-4.271400">
        <ele>859.0</ele>
        <time>2015-05-23T15:25:15Z</time>
      </trkpt>
      <trkpt lat="43.278033" lon="-4.271300">
        <ele>859.0</ele>
        <time>2015-05-23T15:25:16Z</time>
      </trkpt>
      <trkpt lat="43.278050" lon="-4.271200">
        <ele>858.0</ele>
        <time>2015-05-23T15:25:17Z</time>
      </trkpt>
      <trkpt lat="43.278067" lon="-4.271100">
        <ele>858.0</ele>
        <time>2015-05-23T15:25:18Z</time>
      </trkpt>
      <trkpt lat="43.278100" lon="-4.271000">
        <ele>857.0</ele>
        <time>2015-05-23T15:25:19Z</time>
      </trkpt>
      <trkpt lat="43.278117" lon="-4.270900">
        <ele>857.0</ele>
        <time>2015-05-23T15:25:20Z</time>
      </trkpt>
      <trkpt lat="43.278133" lon="-4.270800">
        <ele>857.0</ele>
        <time>2015-05-23T15:25:21Z</time>
      </trkpt>
      <trkpt lat="43.278167" lon="-4.270700">
        <ele>856.0</ele>
        <time>2015-05-23T15:25:22Z</time>
      </trkpt>
      <trkpt lat="43.278200" lon="-4.270600">
        <ele>856.0</ele>
        <time>2015-05-23T15:25:23Z</time>
      </trkpt>
      <trkpt lat="43.278233" lon="-4.270483">
        <ele>855.0</ele>
        <time>2015-05-23T15:25:24Z</time>
      </trkpt>
      <trkpt lat="43.278267" lon="-4.270400">
        <ele>855.0</ele>
        <time>2015-05-23T15:25:25Z</time>
      </trkpt>
      <trkpt lat="43.278300" lon="-4.270300">
        <ele>854.0</ele>
        <time>2015-05-23T15:25:26Z</time>
      </trkpt>
      <trkpt lat="43.278333" lon="-4.270200">
        <ele>854.0</ele>
        <time>2015-05-23T15:25:27Z</time>
      </trkpt>
      <trkpt lat="43.278350" lon="-4.270100">
        <ele>853.0</ele>
        <time>2015-05-23T15:25:28Z</time>
      </trkpt>
      <trkpt lat="43.278367" lon="-4.270000">
        <ele>853.0</ele>
        <time>2015-05-23T15:25:29Z</time>
      </trkpt>
      <trkpt lat="43.278383" lon="-4.269883">
        <ele>852.0</ele>
        <time>2015-05-23T15:25:30Z</time>
      </trkpt>
      <trkpt lat="43.278417" lon="-4.269783">
        <ele>852.0</ele>
        <time>2015-05-23T15:25:31Z</time>
      </trkpt>
      <trkpt lat="43.278450" lon="-4.269683">
        <ele>852.0</ele>
        <time>2015-05-23T15:25:32Z</time>
      </trkpt>
      <trkpt lat="43.278483" lon="-4.269583">
        <ele>851.0</ele>
        <time>2015-05-23T15:25:33Z</time>
      </trkpt>
      <trkpt lat="43.278500" lon="-4.269483">
        <ele>851.0</ele>
        <time>2015-05-23T15:25:34Z</time>
      </trkpt>
      <trkpt lat="43.278533" lon="-4.269400">
        <ele>850.0</ele>
        <time>2015-05-23T15:25:35Z</time>
      </trkpt>
      <trkpt lat="43.278550" lon="-4.269300">
        <ele>850.0</ele>
        <time>2015-05-23T15:25:36Z</time>
      </trkpt>
      <trkpt lat="43.278567" lon="-4.269183">
        <ele>849.0</ele>
        <time>2015-05-23T15:25:37Z</time>
      </trkpt>
      <trkpt lat="43.278600" lon="-4.269083">
        <ele>849.0</ele>
        <time>2015-05-23T15:25:38Z</time>
      </trkpt>
      <trkpt lat="43.278650" lon="-4.268967">
        <ele>849.0</ele>
        <time>2015-05-23T15:25:39Z</time>
      </trkpt>
      <trkpt lat="43.278667" lon="-4.268883">
        <ele>848.0</ele>
        <time>2015-05-23T15:25:40Z</time>
      </trkpt>
      <trkpt lat="43.278717" lon="-4.268800">
        <ele>848.0</ele>
        <time>2015-05-23T15:25:41Z</time>
      </trkpt>
      <trkpt lat="43.278750" lon="-4.268717">
        <ele>848.0</ele>
        <time>2015-05-23T15:25:42Z</time>
      </trkpt>
      <trkpt lat="43.278783" lon="-4.268617">
        <ele>847.0</ele>
        <time>2015-05-23T15:25:43Z</time>
      </trkpt>
      <trkpt lat="43.278833" lon="-4.268517">
        <ele>847.0</ele>
        <time>2015-05-23T15:25:44Z</time>
      </trkpt>
      <trkpt lat="43.278867" lon="-4.268433">
        <ele>847.0</ele>
        <time>2015-05-23T15:25:45Z</time>
      </trkpt>
      <trkpt lat="43.278900" lon="-4.268350">
        <ele>847.0</ele>
        <time>2015-05-23T15:25:46Z</time>
      </trkpt>
      <trkpt lat="43.278933" lon="-4.268283">
        <ele>846.0</ele>
        <time>2015-05-23T15:25:47Z</time>
      </trkpt>
      <trkpt lat="43.278983" lon="-4.268200">
        <ele>845.0</ele>
        <time>2015-05-23T15:25:48Z</time>
      </trkpt>
      <trkpt lat="43.279033" lon="-4.268117">
        <ele>845.0</ele>
        <time>2015-05-23T15:25:49Z</time>
      </trkpt>
      <trkpt lat="43.279083" lon="-4.268033">
        <ele>845.0</ele>
        <time>2015-05-23T15:25:50Z</time>
      </trkpt>
      <trkpt lat="43.279100" lon="-4.267950">
        <ele>845.0</ele>
        <time>2015-05-23T15:25:51Z</time>
      </trkpt>
      <trkpt lat="43.279133" lon="-4.267867">
        <ele>844.0</ele>
        <time>2015-05-23T15:25:52Z</time>
      </trkpt>
      <trkpt lat="43.279150" lon="-4.267783">
        <ele>844.0</ele>
        <time>2015-05-23T15:25:53Z</time>
      </trkpt>
      <trkpt lat="43.279167" lon="-4.267717">
        <ele>843.0</ele>
        <time>2015-05-23T15:25:54Z</time>
      </trkpt>
      <trkpt lat="43.279183" lon="-4.267633">
        <ele>842.0</ele>
        <time>2015-05-23T15:25:55Z</time>
      </trkpt>
      <trkpt lat="43.279233" lon="-4.267533">
        <ele>841.0</ele>
        <time>2015-05-23T15:25:56Z</time>
      </trkpt>
      <trkpt lat="43.279283" lon="-4.267450">
        <ele>840.0</ele>
        <time>2015-05-23T15:25:57Z</time>
      </trkpt>
      <trkpt lat="43.279317" lon="-4.267350">
        <ele>840.0</ele>
        <time>2015-05-23T15:25:58Z</time>
      </trkpt>
      <trkpt lat="43.279333" lon="-4.267267">
        <ele>840.0</ele>
        <time>2015-05-23T15:25:59Z</time>
      </trkpt>
      <trkpt lat="43.279317" lon="-4.267183">
        <ele>840.0</ele>
        <time>2015-05-23T15:26:00Z</time>
      </trkpt>
      <trkpt lat="43.279317" lon="-4.267100">
        <ele>839.0</ele>
        <time>2015-05-23T15:26:01Z</time>
      </trkpt>
      <trkpt lat="43.279317" lon="-4.267017">
        <ele>838.0</ele>
        <time>2015-05-23T15:26:02Z</time>
      </trkpt>
      <trkpt lat="43.279333" lon="-4.266950">
        <ele>837.0</ele>
        <time>2015-05-23T15:26:03Z</time>
      </trkpt>
      <trkpt lat="43.279367" lon="-4.266850">
        <ele>837.0</ele>
        <time>2015-05-23T15:26:04Z</time>
      </trkpt>
      <trkpt lat="43.279400" lon="-4.266767">
        <ele>836.0</ele>
        <time>2015-05-23T15:26:05Z</time>
      </trkpt>
      <trkpt lat="43.279417" lon="-4.266683">
        <ele>835.0</ele>
        <time>2015-05-23T15:26:06Z</time>
      </trkpt>
      <trkpt lat="43.279433" lon="-4.266617">
        <ele>835.0</ele>
        <time>2015-05-23T15:26:07Z</time>
      </trkpt>
      <trkpt lat="43.279450" lon="-4.266533">
        <ele>834.0</ele>
        <time>2015-05-23T15:26:08Z</time>
      </trkpt>
      <trkpt lat="43.279467" lon="-4.266467">
        <ele>833.0</ele>
        <time>2015-05-23T15:26:09Z</time>
      </trkpt>
      <trkpt lat="43.279467" lon="-4.266417">
        <ele>833.0</ele>
        <time>2015-05-23T15:26:10Z</time>
      </trkpt>
      <trkpt lat="43.279483" lon="-4.266350">
        <ele>832.0</ele>
        <time>2015-05-23T15:26:11Z</time>
      </trkpt>
      <trkpt lat="43.279500" lon="-4.266283">
        <ele>832.0</ele>
        <time>2015-05-23T15:26:12Z</time>
      </trkpt>
      <trkpt lat="43.279500" lon="-4.266200">
        <ele>831.0</ele>
        <time>2015-05-23T15:26:13Z</time>
      </trkpt>
      <trkpt lat="43.279500" lon="-4.266117">
        <ele>830.0</ele>
        <time>2015-05-23T15:26:14Z</time>
      </trkpt>
      <trkpt lat="43.279517" lon="-4.266050">
        <ele>829.0</ele>
        <time>2015-05-23T15:26:15Z</time>
      </trkpt>
      <trkpt lat="43.279517" lon="-4.265950">
        <ele>827.0</ele>
        <time>2015-05-23T15:26:16Z</time>
      </trkpt>
      <trkpt lat="43.279517" lon="-4.265850">
        <ele>825.0</ele>
        <time>2015-05-23T15:26:17Z</time>
      </trkpt>
      <trkpt lat="43.279500" lon="-4.265750">
        <ele>824.0</ele>
        <time>2015-05-23T15:26:18Z</time>
      </trkpt>
      <trkpt lat="43.279500" lon="-4.265650">
        <ele>824.0</ele>
        <time>2015-05-23T15:26:19Z</time>
      </trkpt>
      <trkpt lat="43.279500" lon="-4.265533">
        <ele>822.0</ele>
        <time>2015-05-23T15:26:20Z</time>
      </trkpt>
      <trkpt lat="43.279500" lon="-4.265433">
        <ele>821.0</ele>
        <time>2015-05-23T15:26:21Z</time>
      </trkpt>
      <trkpt lat="43.279500" lon="-4.265317">
        <ele>821.0</ele>
        <time>2015-05-23T15:26:22Z</time>
      </trkpt>
      <trkpt lat="43.279517" lon="-4.265233">
        <ele>820.0</ele>
        <time>2015-05-23T15:26:23Z</time>
      </trkpt>
      <trkpt lat="43.279517" lon="-4.265150">
        <ele>817.0</ele>
        <time>2015-05-23T15:26:24Z</time>
      </trkpt>
      <trkpt lat="43.279517" lon="-4.265067">
        <ele>815.0</ele>
        <time>2015-05-23T15:26:25Z</time>
      </trkpt>
      <trkpt lat="43.279517" lon="-4.264983">
        <ele>816.0</ele>
        <time>2015-05-23T15:26:26Z</time>
      </trkpt>
      <trkpt lat="43.279517" lon="-4.264883">
        <ele>816.0</ele>
        <time>2015-05-23T15:26:27Z</time>
      </trkpt>
      <trkpt lat="43.279517" lon="-4.264783">
        <ele>815.0</ele>
        <time>2015-05-23T15:26:28Z</time>
      </trkpt>
      <trkpt lat="43.279517" lon="-4.264683">
        <ele>813.0</ele>
        <time>2015-05-23T15:26:29Z</time>
      </trkpt>
      <trkpt lat="43.279500" lon="-4.264583">
        <ele>810.0</ele>
        <time>2015-05-23T15:26:30Z</time>
      </trkpt>
      <trkpt lat="43.279483" lon="-4.264483">
        <ele>806.0</ele>
        <time>2015-05-23T15:26:31Z</time>
      </trkpt>
      <trkpt lat="43.279483" lon="-4.264350">
        <ele>803.0</ele>
        <time>2015-05-23T15:26:32Z</time>
      </trkpt>
      <trkpt lat="43.279500" lon="-4.264217">
        <ele>800.0</ele>
        <time>2015-05-23T15:26:33Z</time>
      </trkpt>
      <trkpt lat="43.279517" lon="-4.264083">
        <ele>799.0</ele>
        <time>2015-05-23T15:26:34Z</time>
      </trkpt>
      <trkpt lat="43.279517" lon="-4.263983">
        <ele>799.0</ele>
        <time>2015-05-23T15:26:35Z</time>
      </trkpt>
      <trkpt lat="43.279533" lon="-4.263900">
        <ele>800.0</ele>
        <time>2015-05-23T15:26:36Z</time>
      </trkpt>
      <trkpt lat="43.279567" lon="-4.263800">
        <ele>799.0</ele>
        <time>2015-05-23T15:26:37Z</time>
      </trkpt>
      <trkpt lat="43.279583" lon="-4.263700">
        <ele>798.0</ele>
        <time>2015-05-23T15:26:38Z</time>
      </trkpt>
      <trkpt lat="43.279600" lon="-4.263617">
        <ele>798.0</ele>
        <time>2015-05-23T15:26:39Z</time>
      </trkpt>
      <trkpt lat="43.279617" lon="-4.263533">
        <ele>796.0</ele>
        <time>2015-05-23T15:26:40Z</time>
      </trkpt>
      <trkpt lat="43.279600" lon="-4.263450">
        <ele>795.0</ele>
        <time>2015-05-23T15:26:41Z</time>
      </trkpt>
      <trkpt lat="43.279600" lon="-4.263350">
        <ele>794.0</ele>
        <time>2015-05-23T15:26:42Z</time>
      </trkpt>
      <trkpt lat="43.279583" lon="-4.263250">
        <ele>792.0</ele>
        <time>2015-05-23T15:26:43Z</time>
      </trkpt>
      <trkpt lat="43.279583" lon="-4.263117">
        <ele>790.0</ele>
        <time>2015-05-23T15:26:44Z</time>
      </trkpt>
      <trkpt lat="43.279600" lon="-4.262983">
        <ele>788.0</ele>
        <time>2015-05-23T15:26:45Z</time>
      </trkpt>
      <trkpt lat="43.279617" lon="-4.262850">
        <ele>786.0</ele>
        <time>2015-05-23T15:26:46Z</time>
      </trkpt>
      <trkpt lat="43.279633" lon="-4.262750">
        <ele>784.0</ele>
        <time>2015-05-23T15:26:47Z</time>
      </trkpt>
      <trkpt lat="43.279633" lon="-4.262650">
        <ele>783.0</ele>
        <time>2015-05-23T15:26:48Z</time>
      </trkpt>
      <trkpt lat="43.279633" lon="-4.262583">
        <ele>783.0</ele>
        <time>2015-05-23T15:26:49Z</time>
      </trkpt>
      <trkpt lat="43.279650" lon="-4.262483">
        <ele>782.0</ele>
        <time>2015-05-23T15:26:50Z</time>
      </trkpt>
      <trkpt lat="43.279667" lon="-4.262350">
        <ele>781.0</ele>
        <time>2015-05-23T15:26:51Z</time>
      </trkpt>
      <trkpt lat="43.279700" lon="-4.262233">
        <ele>780.0</ele>
        <time>2015-05-23T15:26:52Z</time>
      </trkpt>
      <trkpt lat="43.279717" lon="-4.262100">
        <ele>780.0</ele>
        <time>2015-05-23T15:26:53Z</time>
      </trkpt>
      <trkpt lat="43.279733" lon="-4.262000">
        <ele>779.0</ele>
        <time>2015-05-23T15:26:54Z</time>
      </trkpt>
      <trkpt lat="43.279733" lon="-4.261883">
        <ele>779.0</ele>
        <time>2015-05-23T15:26:55Z</time>
      </trkpt>
      <trkpt lat="43.279733" lon="-4.261783">
        <ele>779.0</ele>
        <time>2015-05-23T15:26:56Z</time>
      </trkpt>
      <trkpt lat="43.279733" lon="-4.261683">
        <ele>779.0</ele>
        <time>2015-05-23T15:26:57Z</time>
      </trkpt>
      <trkpt lat="43.279750" lon="-4.261583">
        <ele>779.0</ele>
        <time>2015-05-23T15:26:58Z</time>
      </trkpt>
      <trkpt lat="43.279767" lon="-4.261500">
        <ele>779.0</ele>
        <time>2015-05-23T15:26:59Z</time>
      </trkpt>
      <trkpt lat="43.279783" lon="-4.261433">
        <ele>779.0</ele>
        <time>2015-05-23T15:27:00Z</time>
      </trkpt>
      <trkpt lat="43.279800" lon="-4.261350">
        <ele>778.0</ele>
        <time>2015-05-23T15:27:01Z</time>
      </trkpt>
      <trkpt lat="43.279817" lon="-4.261267">
        <ele>777.0</ele>
        <time>2015-05-23T15:27:02Z</time>
      </trkpt>
      <trkpt lat="43.279833" lon="-4.261183">
        <ele>777.0</ele>
        <time>2015-05-23T15:27:03Z</time>
      </trkpt>
      <trkpt lat="43.279833" lon="-4.261100">
        <ele>777.0</ele>
        <time>2015-05-23T15:27:04Z</time>
      </trkpt>
      <trkpt lat="43.279850" lon="-4.261017">
        <ele>778.0</ele>
        <time>2015-05-23T15:27:05Z</time>
      </trkpt>
      <trkpt lat="43.279850" lon="-4.260950">
        <ele>779.0</ele>
        <time>2015-05-23T15:27:06Z</time>
      </trkpt>
      <trkpt lat="43.279867" lon="-4.260867">
        <ele>779.0</ele>
        <time>2015-05-23T15:27:07Z</time>
      </trkpt>
      <trkpt lat="43.279867" lon="-4.260767">
        <ele>780.0</ele>
        <time>2015-05-23T15:27:08Z</time>
      </trkpt>
      <trkpt lat="43.279883" lon="-4.260667">
        <ele>782.0</ele>
        <time>2015-05-23T15:27:09Z</time>
      </trkpt>
      <trkpt lat="43.279900" lon="-4.260583">
        <ele>784.0</ele>
        <time>2015-05-23T15:27:10Z</time>
      </trkpt>
      <trkpt lat="43.279933" lon="-4.260500">
        <ele>784.0</ele>
        <time>2015-05-23T15:27:11Z</time>
      </trkpt>
      <trkpt lat="43.279983" lon="-4.260417">
        <ele>785.0</ele>
        <time>2015-05-23T15:27:12Z</time>
      </trkpt>
      <trkpt lat="43.280033" lon="-4.260333">
        <ele>787.0</ele>
        <time>2015-05-23T15:27:13Z</time>
      </trkpt>
      <trkpt lat="43.280067" lon="-4.260267">
        <ele>788.0</ele>
        <time>2015-05-23T15:27:14Z</time>
      </trkpt>
      <trkpt lat="43.280100" lon="-4.260217">
        <ele>790.0</ele>
        <time>2015-05-23T15:27:15Z</time>
      </trkpt>
      <trkpt lat="43.280117" lon="-4.260200">
        <ele>793.0</ele>
        <time>2015-05-23T15:27:16Z</time>
      </trkpt>
      <trkpt lat="43.280117" lon="-4.260183">
        <ele>794.0</ele>
        <time>2015-05-23T15:27:17Z</time>
      </trkpt>
      <trkpt lat="43.280117" lon="-4.260183">
        <ele>796.0</ele>
        <time>2015-05-23T15:27:18Z</time>
      </trkpt>
      <trkpt lat="43.280150" lon="-4.260183">
        <ele>798.0</ele>
        <time>2015-05-23T15:27:19Z</time>
      </trkpt>
      <trkpt lat="43.280183" lon="-4.260200">
        <ele>802.0</ele>
        <time>2015-05-23T15:27:20Z</time>
      </trkpt>
      <trkpt lat="43.280183" lon="-4.260267">
        <ele>803.0</ele>
        <time>2015-05-23T15:27:21Z</time>
      </trkpt>
      <trkpt lat="43.280183" lon="-4.260333">
        <ele>804.0</ele>
        <time>2015-05-23T15:27:22Z</time>
      </trkpt>
      <trkpt lat="43.280200" lon="-4.260417">
        <ele>805.0</ele>
        <time>2015-05-23T15:27:23Z</time>
      </trkpt>
      <trkpt lat="43.280250" lon="-4.260483">
        <ele>809.0</ele>
        <time>2015-05-23T15:27:24Z</time>
      </trkpt>
      <trkpt lat="43.280250" lon="-4.260550">
        <ele>809.0</ele>
        <time>2015-05-23T15:27:25Z</time>
      </trkpt>
      <trkpt lat="43.280233" lon="-4.260633">
        <ele>811.0</ele>
        <time>2015-05-23T15:27:26Z</time>
      </trkpt>
      <trkpt lat="43.280233" lon="-4.260683">
        <ele>814.0</ele>
        <time>2015-05-23T15:27:27Z</time>
      </trkpt>
      <trkpt lat="43.280200" lon="-4.260750">
        <ele>815.0</ele>
        <time>2015-05-23T15:27:28Z</time>
      </trkpt>
      <trkpt lat="43.280167" lon="-4.260767">
        <ele>818.0</ele>
        <time>2015-05-23T15:27:29Z</time>
      </trkpt>
      <trkpt lat="43.280133" lon="-4.260817">
        <ele>820.0</ele>
        <time>2015-05-23T15:27:30Z</time>
      </trkpt>
      <trkpt lat="43.280083" lon="-4.260867">
        <ele>822.0</ele>
        <time>2015-05-23T15:27:31Z</time>
      </trkpt>
      <trkpt lat="43.280017" lon="-4.260883">
        <ele>825.0</ele>
        <time>2015-05-23T15:27:32Z</time>
      </trkpt>
      <trkpt lat="43.279950" lon="-4.260900">
        <ele>829.0</ele>
        <time>2015-05-23T15:27:33Z</time>
      </trkpt>
      <trkpt lat="43.279850" lon="-4.260883">
        <ele>833.0</ele>
        <time>2015-05-23T15:27:34Z</time>
      </trkpt>
      <trkpt lat="43.279767" lon="-4.260867">
        <ele>837.0</ele>
        <time>2015-05-23T15:27:35Z</time>
      </trkpt>
      <trkpt lat="43.279683" lon="-4.260833">
        <ele>840.0</ele>
        <time>2015-05-23T15:27:36Z</time>
      </trkpt>
      <trkpt lat="43.279617" lon="-4.260783">
        <ele>844.0</ele>
        <time>2015-05-23T15:27:37Z</time>
      </trkpt>
      <trkpt lat="43.279533" lon="-4.260700">
        <ele>847.0</ele>
        <time>2015-05-23T15:27:38Z</time>
      </trkpt>
      <trkpt lat="43.279467" lon="-4.260617">
        <ele>852.0</ele>
        <time>2015-05-23T15:27:39Z</time>
      </trkpt>
      <trkpt lat="43.279400" lon="-4.260500">
        <ele>856.0</ele>
        <time>2015-05-23T15:27:40Z</time>
      </trkpt>
      <trkpt lat="43.279350" lon="-4.260400">
        <ele>861.0</ele>
        <time>2015-05-23T15:27:41Z</time>
      </trkpt>
      <trkpt lat="43.279317" lon="-4.260283">
        <ele>866.0</ele>
        <time>2015-05-23T15:27:42Z</time>
      </trkpt>
      <trkpt lat="43.279267" lon="-4.260183">
        <ele>870.0</ele>
        <time>2015-05-23T15:27:43Z</time>
      </trkpt>
      <trkpt lat="43.279233" lon="-4.260083">
        <ele>874.0</ele>
        <time>2015-05-23T15:27:44Z</time>
      </trkpt>
      <trkpt lat="43.279183" lon="-4.260000">
        <ele>878.0</ele>
        <time>2015-05-23T15:27:45Z</time>
      </trkpt>
      <trkpt lat="43.279150" lon="-4.259900">
        <ele>881.0</ele>
        <time>2015-05-23T15:27:46Z</time>
      </trkpt>
      <trkpt lat="43.279117" lon="-4.259800">
        <ele>884.0</ele>
        <time>2015-05-23T15:27:47Z</time>
      </trkpt>
      <trkpt lat="43.279100" lon="-4.259683">
        <ele>887.0</ele>
        <time>2015-05-23T15:27:48Z</time>
      </trkpt>
      <trkpt lat="43.279083" lon="-4.259583">
        <ele>890.0</ele>
        <time>2015-05-23T15:27:49Z</time>
      </trkpt>
      <trkpt lat="43.279067" lon="-4.259483">
        <ele>893.0</ele>
        <time>2015-05-23T15:27:50Z</time>
      </trkpt>
      <trkpt lat="43.279067" lon="-4.259417">
        <ele>894.0</ele>
        <time>2015-05-23T15:27:51Z</time>
      </trkpt>
      <trkpt lat="43.279050" lon="-4.259333">
        <ele>896.0</ele>
        <time>2015-05-23T15:27:52Z</time>
      </trkpt>
      <trkpt lat="43.279050" lon="-4.259250">
        <ele>897.0</ele>
        <time>2015-05-23T15:27:53Z</time>
      </trkpt>
      <trkpt lat="43.279067" lon="-4.259150">
        <ele>898.0</ele>
        <time>2015-05-23T15:27:54Z</time>
      </trkpt>
      <trkpt lat="43.279083" lon="-4.259067">
        <ele>899.0</ele>
        <time>2015-05-23T15:27:55Z</time>
      </trkpt>
      <trkpt lat="43.279117" lon="-4.259017">
        <ele>900.0</ele>
        <time>2015-05-23T15:27:56Z</time>
      </trkpt>
      <trkpt lat="43.279133" lon="-4.258950">
        <ele>900.0</ele>
        <time>2015-05-23T15:27:57Z</time>
      </trkpt>
      <trkpt lat="43.279150" lon="-4.258900">
        <ele>900.0</ele>
        <time>2015-05-23T15:27:58Z</time>
      </trkpt>
      <trkpt lat="43.279183" lon="-4.258833">
        <ele>900.0</ele>
        <time>2015-05-23T15:27:59Z</time>
      </trkpt>
      <trkpt lat="43.279200" lon="-4.258767">
        <ele>901.0</ele>
        <time>2015-05-23T15:28:00Z</time>
      </trkpt>
      <trkpt lat="43.279233" lon="-4.258717">
        <ele>901.0</ele>
        <time>2015-05-23T15:28:01Z</time>
      </trkpt>
      <trkpt lat="43.279250" lon="-4.258667">
        <ele>901.0</ele>
        <time>2015-05-23T15:28:02Z</time>
      </trkpt>
      <trkpt lat="43.279267" lon="-4.258617">
        <ele>902.0</ele>
        <time>2015-05-23T15:28:03Z</time>
      </trkpt>
      <trkpt lat="43.279300" lon="-4.258567">
        <ele>902.0</ele>
        <time>2015-05-23T15:28:04Z</time>
      </trkpt>
      <trkpt lat="43.279333" lon="-4.258517">
        <ele>903.0</ele>
        <time>2015-05-23T15:28:05Z</time>
      </trkpt>
      <trkpt lat="43.279367" lon="-4.258483">
        <ele>904.0</ele>
        <time>2015-05-23T15:28:06Z</time>
      </trkpt>
      <trkpt lat="43.279383" lon="-4.258467">
        <ele>905.0</ele>
        <time>2015-05-23T15:28:07Z</time>
      </trkpt>
      <trkpt lat="43.279433" lon="-4.258450">
        <ele>904.0</ele>
        <time>2015-05-23T15:28:08Z</time>
      </trkpt>
      <trkpt lat="43.279450" lon="-4.258433">
        <ele>905.0</ele>
        <time>2015-05-23T15:28:09Z</time>
      </trkpt>
      <trkpt lat="43.279483" lon="-4.258417">
        <ele>905.0</ele>
        <time>2015-05-23T15:28:10Z</time>
      </trkpt>
      <trkpt lat="43.279517" lon="-4.258417">
        <ele>906.0</ele>
        <time>2015-05-23T15:28:11Z</time>
      </trkpt>
      <trkpt lat="43.279550" lon="-4.258433">
        <ele>906.0</ele>
        <time>2015-05-23T15:28:12Z</time>
      </trkpt>
      <trkpt lat="43.279583" lon="-4.258450">
        <ele>906.0</ele>
        <time>2015-05-23T15:28:13Z</time>
      </trkpt>
      <trkpt lat="43.279617" lon="-4.258500">
        <ele>907.0</ele>
        <time>2015-05-23T15:28:14Z</time>
      </trkpt>
      <trkpt lat="43.279633" lon="-4.258567">
        <ele>908.0</ele>
        <time>2015-05-23T15:28:15Z</time>
      </trkpt>
      <trkpt lat="43.279633" lon="-4.258633">
        <ele>908.0</ele>
        <time>2015-05-23T15:28:16Z</time>
      </trkpt>
      <trkpt lat="43.279617" lon="-4.258700">
        <ele>909.0</ele>
        <time>2015-05-23T15:28:17Z</time>
      </trkpt>
      <trkpt lat="43.279600" lon="-4.258783">
        <ele>909.0</ele>
        <time>2015-05-23T15:28:18Z</time>
      </trkpt>
      <trkpt lat="43.279567" lon="-4.258867">
        <ele>909.0</ele>
        <time>2015-05-23T15:28:19Z</time>
      </trkpt>
      <trkpt lat="43.279500" lon="-4.258967">
        <ele>908.0</ele>
        <time>2015-05-23T15:28:20Z</time>
      </trkpt>
      <trkpt lat="43.279433" lon="-4.259050">
        <ele>908.0</ele>
        <time>2015-05-23T15:28:21Z</time>
      </trkpt>
      <trkpt lat="43.279350" lon="-4.259100">
        <ele>908.0</ele>
        <time>2015-05-23T15:28:22Z</time>
      </trkpt>
      <trkpt lat="43.279267" lon="-4.259150">
        <ele>909.0</ele>
        <time>2015-05-23T15:28:23Z</time>
      </trkpt>
      <trkpt lat="43.279200" lon="-4.259183">
        <ele>910.0</ele>
        <time>2015-05-23T15:28:24Z</time>
      </trkpt>
      <trkpt lat="43.279133" lon="-4.259233">
        <ele>909.0</ele>
        <time>2015-05-23T15:28:25Z</time>
      </trkpt>
      <trkpt lat="43.279050" lon="-4.259267">
        <ele>909.0</ele>
        <time>2015-05-23T15:28:26Z</time>
      </trkpt>
      <trkpt lat="43.278950" lon="-4.259267">
        <ele>909.0</ele>
        <time>2015-05-23T15:28:27Z</time>
      </trkpt>
      <trkpt lat="43.278850" lon="-4.259250">
        <ele>909.0</ele>
        <time>2015-05-23T15:28:28Z</time>
      </trkpt>
      <trkpt lat="43.278750" lon="-4.259217">
        <ele>910.0</ele>
        <time>2015-05-23T15:28:29Z</time>
      </trkpt>
      <trkpt lat="43.278650" lon="-4.259183">
        <ele>911.0</ele>
        <time>2015-05-23T15:28:30Z</time>
      </trkpt>
      <trkpt lat="43.278567" lon="-4.259150">
        <ele>913.0</ele>
        <time>2015-05-23T15:28:31Z</time>
      </trkpt>
      <trkpt lat="43.278483" lon="-4.259117">
        <ele>914.0</ele>
        <time>2015-05-23T15:28:32Z</time>
      </trkpt>
      <trkpt lat="43.278400" lon="-4.259067">
        <ele>914.0</ele>
        <time>2015-05-23T15:28:33Z</time>
      </trkpt>
      <trkpt lat="43.278317" lon="-4.259017">
        <ele>913.0</ele>
        <time>2015-05-23T15:28:34Z</time>
      </trkpt>
      <trkpt lat="43.278233" lon="-4.258950">
        <ele>914.0</ele>
        <time>2015-05-23T15:28:35Z</time>
      </trkpt>
      <trkpt lat="43.278150" lon="-4.258883">
        <ele>914.0</ele>
        <time>2015-05-23T15:28:36Z</time>
      </trkpt>
      <trkpt lat="43.278083" lon="-4.258817">
        <ele>915.0</ele>
        <time>2015-05-23T15:28:37Z</time>
      </trkpt>
      <trkpt lat="43.278017" lon="-4.258733">
        <ele>915.0</ele>
        <time>2015-05-23T15:28:38Z</time>
      </trkpt>
      <trkpt lat="43.277950" lon="-4.258650">
        <ele>916.0</ele>
        <time>2015-05-23T15:28:39Z</time>
      </trkpt>
      <trkpt lat="43.277883" lon="-4.258550">
        <ele>917.0</ele>
        <time>2015-05-23T15:28:40Z</time>
      </trkpt>
      <trkpt lat="43.277833" lon="-4.258450">
        <ele>918.0</ele>
        <time>2015-05-23T15:28:41Z</time>
      </trkpt>
      <trkpt lat="43.277783" lon="-4.258350">
        <ele>919.0</ele>
        <time>2015-05-23T15:28:42Z</time>
      </trkpt>
      <trkpt lat="43.277733" lon="-4.258250">
        <ele>920.0</ele>
        <time>2015-05-23T15:28:43Z</time>
      </trkpt>
      <trkpt lat="43.277700" lon="-4.258167">
        <ele>920.0</ele>
        <time>2015-05-23T15:28:44Z</time>
      </trkpt>
      <trkpt lat="43.277667" lon="-4.258083">
        <ele>920.0</ele>
        <time>2015-05-23T15:28:45Z</time>
      </trkpt>
      <trkpt lat="43.277633" lon="-4.257983">
        <ele>920.0</ele>
        <time>2015-05-23T15:28:46Z</time>
      </trkpt>
      <trkpt lat="43.277600" lon="-4.257900">
        <ele>921.0</ele>
        <time>2015-05-23T15:28:47Z</time>
      </trkpt>
      <trkpt lat="43.277583" lon="-4.257800">
        <ele>922.0</ele>
        <time>2015-05-23T15:28:48Z</time>
      </trkpt>
      <trkpt lat="43.277550" lon="-4.257717">
        <ele>922.0</ele>
        <time>2015-05-23T15:28:49Z</time>
      </trkpt>
      <trkpt lat="43.277533" lon="-4.257633">
        <ele>922.0</ele>
        <time>2015-05-23T15:28:50Z</time>
      </trkpt>
      <trkpt lat="43.277517" lon="-4.257533">
        <ele>923.0</ele>
        <time>2015-05-23T15:28:51Z</time>
      </trkpt>
      <trkpt lat="43.277517" lon="-4.257433">
        <ele>923.0</ele>
        <time>2015-05-23T15:28:52Z</time>
      </trkpt>
      <trkpt lat="43.277517" lon="-4.257350">
        <ele>924.0</ele>
        <time>2015-05-23T15:28:53Z</time>
      </trkpt>
      <trkpt lat="43.277517" lon="-4.257267">
        <ele>925.0</ele>
        <time>2015-05-23T15:28:54Z</time>
      </trkpt>
      <trkpt lat="43.277500" lon="-4.257167">
        <ele>925.0</ele>
        <time>2015-05-23T15:28:55Z</time>
      </trkpt>
      <trkpt lat="43.277500" lon="-4.257083">
        <ele>926.0</ele>
        <time>2015-05-23T15:28:56Z</time>
      </trkpt>
      <trkpt lat="43.277483" lon="-4.257000">
        <ele>925.0</ele>
        <time>2015-05-23T15:28:57Z</time>
      </trkpt>
      <trkpt lat="43.277483" lon="-4.256917">
        <ele>925.0</ele>
        <time>2015-05-23T15:28:58Z</time>
      </trkpt>
      <trkpt lat="43.277483" lon="-4.256833">
        <ele>924.0</ele>
        <time>2015-05-23T15:28:59Z</time>
      </trkpt>
      <trkpt lat="43.277483" lon="-4.256767">
        <ele>922.0</ele>
        <time>2015-05-23T15:29:00Z</time>
      </trkpt>
      <trkpt lat="43.277500" lon="-4.256700">
        <ele>920.0</ele>
        <time>2015-05-23T15:29:01Z</time>
      </trkpt>
      <trkpt lat="43.277517" lon="-4.256617">
        <ele>918.0</ele>
        <time>2015-05-23T15:29:02Z</time>
      </trkpt>
      <trkpt lat="43.277533" lon="-4.256550">
        <ele>915.0</ele>
        <time>2015-05-23T15:29:03Z</time>
      </trkpt>
      <trkpt lat="43.277567" lon="-4.256450">
        <ele>914.0</ele>
        <time>2015-05-23T15:29:04Z</time>
      </trkpt>
      <trkpt lat="43.277583" lon="-4.256367">
        <ele>914.0</ele>
        <time>2015-05-23T15:29:05Z</time>
      </trkpt>
      <trkpt lat="43.277600" lon="-4.256283">
        <ele>914.0</ele>
        <time>2015-05-23T15:29:06Z</time>
      </trkpt>
      <trkpt lat="43.277617" lon="-4.256200">
        <ele>914.0</ele>
        <time>2015-05-23T15:29:07Z</time>
      </trkpt>
      <trkpt lat="43.277617" lon="-4.256117">
        <ele>914.0</ele>
        <time>2015-05-23T15:29:08Z</time>
      </trkpt>
      <trkpt lat="43.277633" lon="-4.256050">
        <ele>914.0</ele>
        <time>2015-05-23T15:29:09Z</time>
      </trkpt>
      <trkpt lat="43.277650" lon="-4.255967">
        <ele>914.0</ele>
        <time>2015-05-23T15:29:10Z</time>
      </trkpt>
      <trkpt lat="43.277650" lon="-4.255883">
        <ele>914.0</ele>
        <time>2015-05-23T15:29:11Z</time>
      </trkpt>
      <trkpt lat="43.277650" lon="-4.255783">
        <ele>913.0</ele>
        <time>2015-05-23T15:29:12Z</time>
      </trkpt>
      <trkpt lat="43.277667" lon="-4.255683">
        <ele>913.0</ele>
        <time>2015-05-23T15:29:13Z</time>
      </trkpt>
      <trkpt lat="43.277683" lon="-4.255583">
        <ele>914.0</ele>
        <time>2015-05-23T15:29:14Z</time>
      </trkpt>
      <trkpt lat="43.277700" lon="-4.255483">
        <ele>914.0</ele>
        <time>2015-05-23T15:29:15Z</time>
      </trkpt>
      <trkpt lat="43.277717" lon="-4.255400">
        <ele>915.0</ele>
        <time>2015-05-23T15:29:16Z</time>
      </trkpt>
      <trkpt lat="43.277733" lon="-4.255317">
        <ele>915.0</ele>
        <time>2015-05-23T15:29:17Z</time>
      </trkpt>
      <trkpt lat="43.277767" lon="-4.255217">
        <ele>915.0</ele>
        <time>2015-05-23T15:29:18Z</time>
      </trkpt>
      <trkpt lat="43.277783" lon="-4.255117">
        <ele>915.0</ele>
        <time>2015-05-23T15:29:19Z</time>
      </trkpt>
      <trkpt lat="43.277817" lon="-4.255017">
        <ele>915.0</ele>
        <time>2015-05-23T15:29:20Z</time>
      </trkpt>
      <trkpt lat="43.277833" lon="-4.254917">
        <ele>915.0</ele>
        <time>2015-05-23T15:29:21Z</time>
      </trkpt>
      <trkpt lat="43.277850" lon="-4.254850">
        <ele>915.0</ele>
        <time>2015-05-23T15:29:22Z</time>
      </trkpt>
      <trkpt lat="43.277867" lon="-4.254783">
        <ele>914.0</ele>
        <time>2015-05-23T15:29:23Z</time>
      </trkpt>
      <trkpt lat="43.277917" lon="-4.254700">
        <ele>914.0</ele>
        <time>2015-05-23T15:29:24Z</time>
      </trkpt>
      <trkpt lat="43.277950" lon="-4.254617">
        <ele>913.0</ele>
        <time>2015-05-23T15:29:25Z</time>
      </trkpt>
      <trkpt lat="43.278000" lon="-4.254533">
        <ele>912.0</ele>
        <time>2015-05-23T15:29:26Z</time>
      </trkpt>
      <trkpt lat="43.278017" lon="-4.254433">
        <ele>911.0</ele>
        <time>2015-05-23T15:29:27Z</time>
      </trkpt>
      <trkpt lat="43.278050" lon="-4.254333">
        <ele>911.0</ele>
        <time>2015-05-23T15:29:28Z</time>
      </trkpt>
      <trkpt lat="43.278083" lon="-4.254233">
        <ele>910.0</ele>
        <time>2015-05-23T15:29:29Z</time>
      </trkpt>
      <trkpt lat="43.278117" lon="-4.254133">
        <ele>909.0</ele>
        <time>2015-05-23T15:29:30Z</time>
      </trkpt>
      <trkpt lat="43.278133" lon="-4.254050">
        <ele>908.0</ele>
        <time>2015-05-23T15:29:31Z</time>
      </trkpt>
      <trkpt lat="43.278183" lon="-4.253967">
        <ele>907.0</ele>
        <time>2015-05-23T15:29:32Z</time>
      </trkpt>
      <trkpt lat="43.278217" lon="-4.253867">
        <ele>907.0</ele>
        <time>2015-05-23T15:29:33Z</time>
      </trkpt>
      <trkpt lat="43.278250" lon="-4.253750">
        <ele>906.0</ele>
        <time>2015-05-23T15:29:34Z</time>
      </trkpt>
      <trkpt lat="43.278250" lon="-4.253667">
        <ele>906.0</ele>
        <time>2015-05-23T15:29:35Z</time>
      </trkpt>
      <trkpt lat="43.278250" lon="-4.253583">
        <ele>905.0</ele>
        <time>2015-05-23T15:29:36Z</time>
      </trkpt>
      <trkpt lat="43.278267" lon="-4.253500">
        <ele>903.0</ele>
        <time>2015-05-23T15:29:37Z</time>
      </trkpt>
      <trkpt lat="43.278283" lon="-4.253417">
        <ele>901.0</ele>
        <time>2015-05-23T15:29:38Z</time>
      </trkpt>
      <trkpt lat="43.278283" lon="-4.253300">
        <ele>901.0</ele>
        <time>2015-05-23T15:29:39Z</time>
      </trkpt>
      <trkpt lat="43.278300" lon="-4.253200">
        <ele>901.0</ele>
        <time>2015-05-23T15:29:40Z</time>
      </trkpt>
      <trkpt lat="43.278350" lon="-4.253083">
        <ele>900.0</ele>
        <time>2015-05-23T15:29:41Z</time>
      </trkpt>
      <trkpt lat="43.278383" lon="-4.252967">
        <ele>900.0</ele>
        <time>2015-05-23T15:29:42Z</time>
      </trkpt>
      <trkpt lat="43.278400" lon="-4.252867">
        <ele>899.0</ele>
        <time>2015-05-23T15:29:43Z</time>
      </trkpt>
      <trkpt lat="43.278433" lon="-4.252767">
        <ele>899.0</ele>
        <time>2015-05-23T15:29:44Z</time>
      </trkpt>
      <trkpt lat="43.278467" lon="-4.252683">
        <ele>899.0</ele>
        <time>2015-05-23T15:29:45Z</time>
      </trkpt>
      <trkpt lat="43.278483" lon="-4.252600">
        <ele>898.0</ele>
        <time>2015-05-23T15:29:46Z</time>
      </trkpt>
      <trkpt lat="43.278517" lon="-4.252517">
        <ele>898.0</ele>
        <time>2015-05-23T15:29:47Z</time>
      </trkpt>
      <trkpt lat="43.278550" lon="-4.252433">
        <ele>897.0</ele>
        <time>2015-05-23T15:29:48Z</time>
      </trkpt>
      <trkpt lat="43.278600" lon="-4.252317">
        <ele>896.0</ele>
        <time>2015-05-23T15:29:49Z</time>
      </trkpt>
      <trkpt lat="43.278633" lon="-4.252217">
        <ele>895.0</ele>
        <time>2015-05-23T15:29:50Z</time>
      </trkpt>
      <trkpt lat="43.278667" lon="-4.252100">
        <ele>895.0</ele>
        <time>2015-05-23T15:29:51Z</time>
      </trkpt>
      <trkpt lat="43.278700" lon="-4.252017">
        <ele>895.0</ele>
        <time>2015-05-23T15:29:52Z</time>
      </trkpt>
      <trkpt lat="43.278717" lon="-4.251933">
        <ele>896.0</ele>
        <time>2015-05-23T15:29:53Z</time>
      </trkpt>
      <trkpt lat="43.278733" lon="-4.251867">
        <ele>896.0</ele>
        <time>2015-05-23T15:29:54Z</time>
      </trkpt>
      <trkpt lat="43.278733" lon="-4.251800">
        <ele>896.0</ele>
        <time>2015-05-23T15:29:55Z</time>
      </trkpt>
      <trkpt lat="43.278733" lon="-4.251733">
        <ele>896.0</ele>
        <time>2015-05-23T15:29:56Z</time>
      </trkpt>
      <trkpt lat="43.278717" lon="-4.251650">
        <ele>896.0</ele>
        <time>2015-05-23T15:29:57Z</time>
      </trkpt>
      <trkpt lat="43.278717" lon="-4.251567">
        <ele>896.0</ele>
        <time>2015-05-23T15:29:58Z</time>
      </trkpt>
      <trkpt lat="43.278767" lon="-4.251483">
        <ele>896.0</ele>
        <time>2015-05-23T15:29:59Z</time>
      </trkpt>
      <trkpt lat="43.278800" lon="-4.251417">
        <ele>897.0</ele>
        <time>2015-05-23T15:30:00Z</time>
      </trkpt>
      <trkpt lat="43.278833" lon="-4.251367">
        <ele>897.0</ele>
        <time>2015-05-23T15:30:01Z</time>
      </trkpt>
      <trkpt lat="43.278850" lon="-4.251333">
        <ele>897.0</ele>
        <time>2015-05-23T15:30:02Z</time>
      </trkpt>
      <trkpt lat="43.278850" lon="-4.251283">
        <ele>897.0</ele>
        <time>2015-05-23T15:30:03Z</time>
      </trkpt>
      <trkpt lat="43.278850" lon="-4.251233">
        <ele>897.0</ele>
        <time>2015-05-23T15:30:04Z</time>
      </trkpt>
      <trkpt lat="43.278867" lon="-4.251183">
        <ele>897.0</ele>
        <time>2015-05-23T15:30:05Z</time>
      </trkpt>
      <trkpt lat="43.278883" lon="-4.251150">
        <ele>897.0</ele>
        <time>2015-05-23T15:30:06Z</time>
      </trkpt>
      <trkpt lat="43.278917" lon="-4.251133">
        <ele>897.0</ele>
        <time>2015-05-23T15:30:07Z</time>
      </trkpt>
      <trkpt lat="43.278950" lon="-4.251167">
        <ele>897.0</ele>
        <time>2015-05-23T15:30:08Z</time>
      </trkpt>
      <trkpt lat="43.278967" lon="-4.251183">
        <ele>897.0</ele>
        <time>2015-05-23T15:30:09Z</time>
      </trkpt>
      <trkpt lat="43.279017" lon="-4.251167">
        <ele>896.0</ele>
        <time>2015-05-23T15:30:10Z</time>
      </trkpt>
      <trkpt lat="43.279050" lon="-4.251117">
        <ele>896.0</ele>
        <time>2015-05-23T15:30:11Z</time>
      </trkpt>
      <trkpt lat="43.279083" lon="-4.251050">
        <ele>895.0</ele>
        <time>2015-05-23T15:30:12Z</time>
      </trkpt>
      <trkpt lat="43.279117" lon="-4.250967">
        <ele>895.0</ele>
        <time>2015-05-23T15:30:13Z</time>
      </trkpt>
      <trkpt lat="43.279150" lon="-4.250883">
        <ele>895.0</ele>
        <time>2015-05-23T15:30:14Z</time>
      </trkpt>
      <trkpt lat="43.279183" lon="-4.250800">
        <ele>895.0</ele>
        <time>2015-05-23T15:30:15Z</time>
      </trkpt>
      <trkpt lat="43.279200" lon="-4.250717">
        <ele>895.0</ele>
        <time>2015-05-23T15:30:16Z</time>
      </trkpt>
      <trkpt lat="43.279217" lon="-4.250617">
        <ele>894.0</ele>
        <time>2015-05-23T15:30:17Z</time>
      </trkpt>
      <trkpt lat="43.279233" lon="-4.250517">
        <ele>894.0</ele>
        <time>2015-05-23T15:30:18Z</time>
      </trkpt>
      <trkpt lat="43.279233" lon="-4.250400">
        <ele>893.0</ele>
        <time>2015-05-23T15:30:19Z</time>
      </trkpt>
      <trkpt lat="43.279233" lon="-4.250283">
        <ele>892.0</ele>
        <time>2015-05-23T15:30:20Z</time>
      </trkpt>
      <trkpt lat="43.279250" lon="-4.250183">
        <ele>892.0</ele>
        <time>2015-05-23T15:30:21Z</time>
      </trkpt>
      <trkpt lat="43.279250" lon="-4.250067">
        <ele>892.0</ele>
        <time>2015-05-23T15:30:22Z</time>
      </trkpt>
      <trkpt lat="43.279267" lon="-4.249967">
        <ele>892.0</ele>
        <time>2015-05-23T15:30:23Z</time>
      </trkpt>
      <trkpt lat="43.279300" lon="-4.249867">
        <ele>891.0</ele>
        <time>2015-05-23T15:30:24Z</time>
      </trkpt>
      <trkpt lat="43.279333" lon="-4.249750">
        <ele>891.0</ele>
        <time>2015-05-23T15:30:25Z</time>
      </trkpt>
      <trkpt lat="43.279350" lon="-4.249617">
        <ele>890.0</ele>
        <time>2015-05-23T15:30:26Z</time>
      </trkpt>
      <trkpt lat="43.279367" lon="-4.249500">
        <ele>890.0</ele>
        <time>2015-05-23T15:30:27Z</time>
      </trkpt>
      <trkpt lat="43.279400" lon="-4.249367">
        <ele>889.0</ele>
        <time>2015-05-23T15:30:28Z</time>
      </trkpt>
      <trkpt lat="43.279417" lon="-4.249233">
        <ele>888.0</ele>
        <time>2015-05-23T15:30:29Z</time>
      </trkpt>
      <trkpt lat="43.279417" lon="-4.249117">
        <ele>887.0</ele>
        <time>2015-05-23T15:30:30Z</time>
      </trkpt>
      <trkpt lat="43.279433" lon="-4.248983">
        <ele>886.0</ele>
        <time>2015-05-23T15:30:31Z</time>
      </trkpt>
      <trkpt lat="43.279433" lon="-4.248867">
        <ele>886.0</ele>
        <time>2015-05-23T15:30:32Z</time>
      </trkpt>
      <trkpt lat="43.279450" lon="-4.248733">
        <ele>885.0</ele>
        <time>2015-05-23T15:30:33Z</time>
      </trkpt>
      <trkpt lat="43.279450" lon="-4.248617">
        <ele>884.0</ele>
        <time>2015-05-23T15:30:34Z</time>
      </trkpt>
      <trkpt lat="43.279467" lon="-4.248500">
        <ele>884.0</ele>
        <time>2015-05-23T15:30:35Z</time>
      </trkpt>
      <trkpt lat="43.279467" lon="-4.248383">
        <ele>884.0</ele>
        <time>2015-05-23T15:30:36Z</time>
      </trkpt>
      <trkpt lat="43.279467" lon="-4.248283">
        <ele>883.0</ele>
        <time>2015-05-23T15:30:37Z</time>
      </trkpt>
      <trkpt lat="43.279450" lon="-4.248183">
        <ele>882.0</ele>
        <time>2015-05-23T15:30:38Z</time>
      </trkpt>
      <trkpt lat="43.279450" lon="-4.248100">
        <ele>882.0</ele>
        <time>2015-05-23T15:30:39Z</time>
      </trkpt>
      <trkpt lat="43.279467" lon="-4.248000">
        <ele>881.0</ele>
        <time>2015-05-23T15:30:40Z</time>
      </trkpt>
      <trkpt lat="43.279500" lon="-4.247900">
        <ele>880.0</ele>
        <time>2015-05-23T15:30:41Z</time>
      </trkpt>
      <trkpt lat="43.279517" lon="-4.247800">
        <ele>879.0</ele>
        <time>2015-05-23T15:30:42Z</time>
      </trkpt>
      <trkpt lat="43.279533" lon="-4.247700">
        <ele>878.0</ele>
        <time>2015-05-23T15:30:43Z</time>
      </trkpt>
      <trkpt lat="43.279567" lon="-4.247617">
        <ele>877.0</ele>
        <time>2015-05-23T15:30:44Z</time>
      </trkpt>
      <trkpt lat="43.279583" lon="-4.247517">
        <ele>877.0</ele>
        <time>2015-05-23T15:30:45Z</time>
      </trkpt>
      <trkpt lat="43.279600" lon="-4.247400">
        <ele>876.0</ele>
        <time>2015-05-23T15:30:46Z</time>
      </trkpt>
      <trkpt lat="43.279600" lon="-4.247283">
        <ele>876.0</ele>
        <time>2015-05-23T15:30:47Z</time>
      </trkpt>
      <trkpt lat="43.279633" lon="-4.247167">
        <ele>875.0</ele>
        <time>2015-05-23T15:30:48Z</time>
      </trkpt>
      <trkpt lat="43.279650" lon="-4.247067">
        <ele>874.0</ele>
        <time>2015-05-23T15:30:49Z</time>
      </trkpt>
      <trkpt lat="43.279667" lon="-4.246967">
        <ele>874.0</ele>
        <time>2015-05-23T15:30:50Z</time>
      </trkpt>
      <trkpt lat="43.279667" lon="-4.246867">
        <ele>873.0</ele>
        <time>2015-05-23T15:30:51Z</time>
      </trkpt>
      <trkpt lat="43.279683" lon="-4.246783">
        <ele>873.0</ele>
        <time>2015-05-23T15:30:52Z</time>
      </trkpt>
      <trkpt lat="43.279717" lon="-4.246667">
        <ele>873.0</ele>
        <time>2015-05-23T15:30:53Z</time>
      </trkpt>
      <trkpt lat="43.279750" lon="-4.246567">
        <ele>872.0</ele>
        <time>2015-05-23T15:30:54Z</time>
      </trkpt>
      <trkpt lat="43.279783" lon="-4.246483">
        <ele>871.0</ele>
        <time>2015-05-23T15:30:55Z</time>
      </trkpt>
      <trkpt lat="43.279833" lon="-4.246400">
        <ele>869.0</ele>
        <time>2015-05-23T15:30:56Z</time>
      </trkpt>
      <trkpt lat="43.279867" lon="-4.246300">
        <ele>868.0</ele>
        <time>2015-05-23T15:30:57Z</time>
      </trkpt>
      <trkpt lat="43.279900" lon="-4.246217">
        <ele>867.0</ele>
        <time>2015-05-23T15:30:58Z</time>
      </trkpt>
      <trkpt lat="43.279933" lon="-4.246100">
        <ele>866.0</ele>
        <time>2015-05-23T15:30:59Z</time>
      </trkpt>
      <trkpt lat="43.279967" lon="-4.245983">
        <ele>865.0</ele>
        <time>2015-05-23T15:31:00Z</time>
      </trkpt>
      <trkpt lat="43.280000" lon="-4.245867">
        <ele>864.0</ele>
        <time>2015-05-23T15:31:01Z</time>
      </trkpt>
      <trkpt lat="43.280017" lon="-4.245767">
        <ele>862.0</ele>
        <time>2015-05-23T15:31:02Z</time>
      </trkpt>
      <trkpt lat="43.280033" lon="-4.245650">
        <ele>859.0</ele>
        <time>2015-05-23T15:31:03Z</time>
      </trkpt>
      <trkpt lat="43.280067" lon="-4.245533">
        <ele>857.0</ele>
        <time>2015-05-23T15:31:04Z</time>
      </trkpt>
      <trkpt lat="43.280083" lon="-4.245433">
        <ele>856.0</ele>
        <time>2015-05-23T15:31:05Z</time>
      </trkpt>
      <trkpt lat="43.280100" lon="-4.245333">
        <ele>855.0</ele>
        <time>2015-05-23T15:31:06Z</time>
      </trkpt>
      <trkpt lat="43.280117" lon="-4.245217">
        <ele>854.0</ele>
        <time>2015-05-23T15:31:07Z</time>
      </trkpt>
      <trkpt lat="43.280167" lon="-4.245100">
        <ele>853.0</ele>
        <time>2015-05-23T15:31:08Z</time>
      </trkpt>
      <trkpt lat="43.280183" lon="-4.244983">
        <ele>851.0</ele>
        <time>2015-05-23T15:31:09Z</time>
      </trkpt>
      <trkpt lat="43.280217" lon="-4.244850">
        <ele>849.0</ele>
        <time>2015-05-23T15:31:10Z</time>
      </trkpt>
      <trkpt lat="43.280250" lon="-4.244733">
        <ele>848.0</ele>
        <time>2015-05-23T15:31:11Z</time>
      </trkpt>
      <trkpt lat="43.280283" lon="-4.244617">
        <ele>847.0</ele>
        <time>2015-05-23T15:31:12Z</time>
      </trkpt>
      <trkpt lat="43.280300" lon="-4.244500">
        <ele>847.0</ele>
        <time>2015-05-23T15:31:13Z</time>
      </trkpt>
      <trkpt lat="43.280300" lon="-4.244383">
        <ele>845.0</ele>
        <time>2015-05-23T15:31:14Z</time>
      </trkpt>
      <trkpt lat="43.280333" lon="-4.244283">
        <ele>845.0</ele>
        <time>2015-05-23T15:31:15Z</time>
      </trkpt>
      <trkpt lat="43.280367" lon="-4.244167">
        <ele>842.0</ele>
        <time>2015-05-23T15:31:16Z</time>
      </trkpt>
      <trkpt lat="43.280400" lon="-4.244067">
        <ele>840.0</ele>
        <time>2015-05-23T15:31:17Z</time>
      </trkpt>
      <trkpt lat="43.280417" lon="-4.243967">
        <ele>838.0</ele>
        <time>2015-05-23T15:31:18Z</time>
      </trkpt>
      <trkpt lat="43.280433" lon="-4.243867">
        <ele>835.0</ele>
        <time>2015-05-23T15:31:19Z</time>
      </trkpt>
      <trkpt lat="43.280450" lon="-4.243767">
        <ele>835.0</ele>
        <time>2015-05-23T15:31:20Z</time>
      </trkpt>
      <trkpt lat="43.280483" lon="-4.243650">
        <ele>834.0</ele>
        <time>2015-05-23T15:31:21Z</time>
      </trkpt>
      <trkpt lat="43.280500" lon="-4.243550">
        <ele>832.0</ele>
        <time>2015-05-23T15:31:22Z</time>
      </trkpt>
      <trkpt lat="43.280533" lon="-4.243433">
        <ele>831.0</ele>
        <time>2015-05-23T15:31:23Z</time>
      </trkpt>
      <trkpt lat="43.280550" lon="-4.243333">
        <ele>830.0</ele>
        <time>2015-05-23T15:31:24Z</time>
      </trkpt>
      <trkpt lat="43.280567" lon="-4.243233">
        <ele>829.0</ele>
        <time>2015-05-23T15:31:25Z</time>
      </trkpt>
      <trkpt lat="43.280583" lon="-4.243117">
        <ele>828.0</ele>
        <time>2015-05-23T15:31:26Z</time>
      </trkpt>
      <trkpt lat="43.280600" lon="-4.243000">
        <ele>827.0</ele>
        <time>2015-05-23T15:31:27Z</time>
      </trkpt>
      <trkpt lat="43.280633" lon="-4.242867">
        <ele>825.0</ele>
        <time>2015-05-23T15:31:28Z</time>
      </trkpt>
      <trkpt lat="43.280650" lon="-4.242750">
        <ele>823.0</ele>
        <time>2015-05-23T15:31:29Z</time>
      </trkpt>
      <trkpt lat="43.280667" lon="-4.242650">
        <ele>822.0</ele>
        <time>2015-05-23T15:31:30Z</time>
      </trkpt>
      <trkpt lat="43.280667" lon="-4.242567">
        <ele>821.0</ele>
        <time>2015-05-23T15:31:31Z</time>
      </trkpt>
      <trkpt lat="43.280650" lon="-4.242483">
        <ele>820.0</ele>
        <time>2015-05-23T15:31:32Z</time>
      </trkpt>
      <trkpt lat="43.280667" lon="-4.242383">
        <ele>819.0</ele>
        <time>2015-05-23T15:31:33Z</time>
      </trkpt>
      <trkpt lat="43.280667" lon="-4.242267">
        <ele>818.0</ele>
        <time>2015-05-23T15:31:34Z</time>
      </trkpt>
      <trkpt lat="43.280683" lon="-4.242150">
        <ele>817.0</ele>
        <time>2015-05-23T15:31:35Z</time>
      </trkpt>
      <trkpt lat="43.280683" lon="-4.242050">
        <ele>817.0</ele>
        <time>2015-05-23T15:31:36Z</time>
      </trkpt>
      <trkpt lat="43.280700" lon="-4.241967">
        <ele>816.0</ele>
        <time>2015-05-23T15:31:37Z</time>
      </trkpt>
      <trkpt lat="43.280717" lon="-4.241867">
        <ele>816.0</ele>
        <time>2015-05-23T15:31:38Z</time>
      </trkpt>
      <trkpt lat="43.280717" lon="-4.241767">
        <ele>815.0</ele>
        <time>2015-05-23T15:31:39Z</time>
      </trkpt>
      <trkpt lat="43.280733" lon="-4.241667">
        <ele>815.0</ele>
        <time>2015-05-23T15:31:40Z</time>
      </trkpt>
      <trkpt lat="43.280767" lon="-4.241567">
        <ele>814.0</ele>
        <time>2015-05-23T15:31:41Z</time>
      </trkpt>
      <trkpt lat="43.280783" lon="-4.241450">
        <ele>813.0</ele>
        <time>2015-05-23T15:31:42Z</time>
      </trkpt>
      <trkpt lat="43.280817" lon="-4.241350">
        <ele>812.0</ele>
        <time>2015-05-23T15:31:43Z</time>
      </trkpt>
      <trkpt lat="43.280833" lon="-4.241233">
        <ele>811.0</ele>
        <time>2015-05-23T15:31:44Z</time>
      </trkpt>
      <trkpt lat="43.280850" lon="-4.241133">
        <ele>810.0</ele>
        <time>2015-05-23T15:31:45Z</time>
      </trkpt>
      <trkpt lat="43.280867" lon="-4.241017">
        <ele>808.0</ele>
        <time>2015-05-23T15:31:46Z</time>
      </trkpt>
      <trkpt lat="43.280883" lon="-4.240900">
        <ele>807.0</ele>
        <time>2015-05-23T15:31:47Z</time>
      </trkpt>
      <trkpt lat="43.280917" lon="-4.240800">
        <ele>806.0</ele>
        <time>2015-05-23T15:31:48Z</time>
      </trkpt>
      <trkpt lat="43.280950" lon="-4.240717">
        <ele>804.0</ele>
        <time>2015-05-23T15:31:49Z</time>
      </trkpt>
      <trkpt lat="43.280967" lon="-4.240633">
        <ele>802.0</ele>
        <time>2015-05-23T15:31:50Z</time>
      </trkpt>
      <trkpt lat="43.280983" lon="-4.240550">
        <ele>800.0</ele>
        <time>2015-05-23T15:31:51Z</time>
      </trkpt>
      <trkpt lat="43.281017" lon="-4.240450">
        <ele>798.0</ele>
        <time>2015-05-23T15:31:52Z</time>
      </trkpt>
      <trkpt lat="43.281033" lon="-4.240350">
        <ele>795.0</ele>
        <time>2015-05-23T15:31:53Z</time>
      </trkpt>
      <trkpt lat="43.281050" lon="-4.240250">
        <ele>794.0</ele>
        <time>2015-05-23T15:31:54Z</time>
      </trkpt>
      <trkpt lat="43.281067" lon="-4.240150">
        <ele>792.0</ele>
        <time>2015-05-23T15:31:55Z</time>
      </trkpt>
      <trkpt lat="43.281083" lon="-4.240067">
        <ele>789.0</ele>
        <time>2015-05-23T15:31:56Z</time>
      </trkpt>
      <trkpt lat="43.281083" lon="-4.240000">
        <ele>787.0</ele>
        <time>2015-05-23T15:31:57Z</time>
      </trkpt>
      <trkpt lat="43.281100" lon="-4.239900">
        <ele>784.0</ele>
        <time>2015-05-23T15:31:58Z</time>
      </trkpt>
      <trkpt lat="43.281117" lon="-4.239817">
        <ele>782.0</ele>
        <time>2015-05-23T15:31:59Z</time>
      </trkpt>
      <trkpt lat="43.281133" lon="-4.239733">
        <ele>780.0</ele>
        <time>2015-05-23T15:32:00Z</time>
      </trkpt>
      <trkpt lat="43.281133" lon="-4.239617">
        <ele>778.0</ele>
        <time>2015-05-23T15:32:01Z</time>
      </trkpt>
      <trkpt lat="43.281150" lon="-4.239517">
        <ele>775.0</ele>
        <time>2015-05-23T15:32:02Z</time>
      </trkpt>
      <trkpt lat="43.281167" lon="-4.239433">
        <ele>773.0</ele>
        <time>2015-05-23T15:32:03Z</time>
      </trkpt>
      <trkpt lat="43.281183" lon="-4.239333">
        <ele>770.0</ele>
        <time>2015-05-23T15:32:04Z</time>
      </trkpt>
      <trkpt lat="43.281200" lon="-4.239233">
        <ele>768.0</ele>
        <time>2015-05-23T15:32:05Z</time>
      </trkpt>
      <trkpt lat="43.281217" lon="-4.239133">
        <ele>765.0</ele>
        <time>2015-05-23T15:32:06Z</time>
      </trkpt>
      <trkpt lat="43.281217" lon="-4.239050">
        <ele>761.0</ele>
        <time>2015-05-23T15:32:07Z</time>
      </trkpt>
      <trkpt lat="43.281233" lon="-4.238950">
        <ele>758.0</ele>
        <time>2015-05-23T15:32:08Z</time>
      </trkpt>
      <trkpt lat="43.281233" lon="-4.238867">
        <ele>755.0</ele>
        <time>2015-05-23T15:32:09Z</time>
      </trkpt>
      <trkpt lat="43.281233" lon="-4.238767">
        <ele>752.0</ele>
        <time>2015-05-23T15:32:10Z</time>
      </trkpt>
      <trkpt lat="43.281233" lon="-4.238683">
        <ele>749.0</ele>
        <time>2015-05-23T15:32:11Z</time>
      </trkpt>
      <trkpt lat="43.281233" lon="-4.238583">
        <ele>746.0</ele>
        <time>2015-05-23T15:32:12Z</time>
      </trkpt>
      <trkpt lat="43.281250" lon="-4.238500">
        <ele>743.0</ele>
        <time>2015-05-23T15:32:13Z</time>
      </trkpt>
      <trkpt lat="43.281250" lon="-4.238417">
        <ele>740.0</ele>
        <time>2015-05-23T15:32:14Z</time>
      </trkpt>
      <trkpt lat="43.281250" lon="-4.238333">
        <ele>736.0</ele>
        <time>2015-05-23T15:32:15Z</time>
      </trkpt>
      <trkpt lat="43.281233" lon="-4.238250">
        <ele>731.0</ele>
        <time>2015-05-23T15:32:16Z</time>
      </trkpt>
      <trkpt lat="43.281250" lon="-4.238167">
        <ele>727.0</ele>
        <time>2015-05-23T15:32:17Z</time>
      </trkpt>
      <trkpt lat="43.281250" lon="-4.238083">
        <ele>724.0</ele>
        <time>2015-05-23T15:32:18Z</time>
      </trkpt>
      <trkpt lat="43.281250" lon="-4.238000">
        <ele>721.0</ele>
        <time>2015-05-23T15:32:19Z</time>
      </trkpt>
      <trkpt lat="43.281267" lon="-4.237900">
        <ele>718.0</ele>
        <time>2015-05-23T15:32:20Z</time>
      </trkpt>
      <trkpt lat="43.281283" lon="-4.237850">
        <ele>714.0</ele>
        <time>2015-05-23T15:32:21Z</time>
      </trkpt>
      <trkpt lat="43.281300" lon="-4.237767">
        <ele>711.0</ele>
        <time>2015-05-23T15:32:22Z</time>
      </trkpt>
      <trkpt lat="43.281300" lon="-4.237700">
        <ele>708.0</ele>
        <time>2015-05-23T15:32:23Z</time>
      </trkpt>
      <trkpt lat="43.281317" lon="-4.237633">
        <ele>705.0</ele>
        <time>2015-05-23T15:32:24Z</time>
      </trkpt>
      <trkpt lat="43.281333" lon="-4.237567">
        <ele>701.0</ele>
        <time>2015-05-23T15:32:25Z</time>
      </trkpt>
      <trkpt lat="43.281367" lon="-4.237500">
        <ele>698.0</ele>
        <time>2015-05-23T15:32:26Z</time>
      </trkpt>
      <trkpt lat="43.281383" lon="-4.237417">
        <ele>695.0</ele>
        <time>2015-05-23T15:32:27Z</time>
      </trkpt>
      <trkpt lat="43.281417" lon="-4.237333">
        <ele>692.0</ele>
        <time>2015-05-23T15:32:28Z</time>
      </trkpt>
      <trkpt lat="43.281433" lon="-4.237250">
        <ele>690.0</ele>
        <time>2015-05-23T15:32:29Z</time>
      </trkpt>
      <trkpt lat="43.281467" lon="-4.237167">
        <ele>688.0</ele>
        <time>2015-05-23T15:32:30Z</time>
      </trkpt>
      <trkpt lat="43.281500" lon="-4.237083">
        <ele>685.0</ele>
        <time>2015-05-23T15:32:31Z</time>
      </trkpt>
      <trkpt lat="43.281517" lon="-4.237017">
        <ele>681.0</ele>
        <time>2015-05-23T15:32:32Z</time>
      </trkpt>
      <trkpt lat="43.281550" lon="-4.236950">
        <ele>678.0</ele>
        <time>2015-05-23T15:32:33Z</time>
      </trkpt>
      <trkpt lat="43.281583" lon="-4.236867">
        <ele>675.0</ele>
        <time>2015-05-23T15:32:34Z</time>
      </trkpt>
      <trkpt lat="43.281600" lon="-4.236767">
        <ele>672.0</ele>
        <time>2015-05-23T15:32:35Z</time>
      </trkpt>
      <trkpt lat="43.281617" lon="-4.236667">
        <ele>670.0</ele>
        <time>2015-05-23T15:32:36Z</time>
      </trkpt>
      <trkpt lat="43.281617" lon="-4.236567">
        <ele>667.0</ele>
        <time>2015-05-23T15:32:37Z</time>
      </trkpt>
      <trkpt lat="43.281600" lon="-4.236467">
        <ele>664.0</ele>
        <time>2015-05-23T15:32:38Z</time>
      </trkpt>
      <trkpt lat="43.281600" lon="-4.236367">
        <ele>661.0</ele>
        <time>2015-05-23T15:32:39Z</time>
      </trkpt>
      <trkpt lat="43.281600" lon="-4.236267">
        <ele>658.0</ele>
        <time>2015-05-23T15:32:40Z</time>
      </trkpt>
      <trkpt lat="43.281617" lon="-4.236150">
        <ele>656.0</ele>
        <time>2015-05-23T15:32:41Z</time>
      </trkpt>
      <trkpt lat="43.281633" lon="-4.236050">
        <ele>653.0</ele>
        <time>2015-05-23T15:32:42Z</time>
      </trkpt>
      <trkpt lat="43.281650" lon="-4.235933">
        <ele>650.0</ele>
        <time>2015-05-23T15:32:43Z</time>
      </trkpt>
      <trkpt lat="43.281667" lon="-4.235833">
        <ele>647.0</ele>
        <time>2015-05-23T15:32:44Z</time>
      </trkpt>
      <trkpt lat="43.281700" lon="-4.235767">
        <ele>644.0</ele>
        <time>2015-05-23T15:32:45Z</time>
      </trkpt>
      <trkpt lat="43.281733" lon="-4.235683">
        <ele>641.0</ele>
        <time>2015-05-23T15:32:46Z</time>
      </trkpt>
      <trkpt lat="43.281767" lon="-4.235600">
        <ele>638.0</ele>
        <time>2015-05-23T15:32:47Z</time>
      </trkpt>
      <trkpt lat="43.281800" lon="-4.235517">
        <ele>635.0</ele>
        <time>2015-05-23T15:32:48Z</time>
      </trkpt>
      <trkpt lat="43.281833" lon="-4.235417">
        <ele>632.0</ele>
        <time>2015-05-23T15:32:49Z</time>
      </trkpt>
      <trkpt lat="43.281883" lon="-4.235317">
        <ele>629.0</ele>
        <time>2015-05-23T15:32:50Z</time>
      </trkpt>
      <trkpt lat="43.281933" lon="-4.235217">
        <ele>627.0</ele>
        <time>2015-05-23T15:32:51Z</time>
      </trkpt>
      <trkpt lat="43.281967" lon="-4.235117">
        <ele>624.0</ele>
        <time>2015-05-23T15:32:52Z</time>
      </trkpt>
      <trkpt lat="43.281983" lon="-4.235033">
        <ele>622.0</ele>
        <time>2015-05-23T15:32:53Z</time>
      </trkpt>
      <trkpt lat="43.282033" lon="-4.234933">
        <ele>620.0</ele>
        <time>2015-05-23T15:32:54Z</time>
      </trkpt>
      <trkpt lat="43.282067" lon="-4.234833">
        <ele>618.0</ele>
        <time>2015-05-23T15:32:55Z</time>
      </trkpt>
      <trkpt lat="43.282083" lon="-4.234733">
        <ele>617.0</ele>
        <time>2015-05-23T15:32:56Z</time>
      </trkpt>
      <trkpt lat="43.282100" lon="-4.234633">
        <ele>615.0</ele>
        <time>2015-05-23T15:32:57Z</time>
      </trkpt>
      <trkpt lat="43.282133" lon="-4.234533">
        <ele>613.0</ele>
        <time>2015-05-23T15:32:58Z</time>
      </trkpt>
      <trkpt lat="43.282150" lon="-4.234450">
        <ele>611.0</ele>
        <time>2015-05-23T15:32:59Z</time>
      </trkpt>
      <trkpt lat="43.282167" lon="-4.234367">
        <ele>608.0</ele>
        <time>2015-05-23T15:33:00Z</time>
      </trkpt>
      <trkpt lat="43.282200" lon="-4.234267">
        <ele>606.0</ele>
        <time>2015-05-23T15:33:01Z</time>
      </trkpt>
      <trkpt lat="43.282217" lon="-4.234167">
        <ele>604.0</ele>
        <time>2015-05-23T15:33:02Z</time>
      </trkpt>
      <trkpt lat="43.282250" lon="-4.234083">
        <ele>602.0</ele>
        <time>2015-05-23T15:33:03Z</time>
      </trkpt>
      <trkpt lat="43.282283" lon="-4.234000">
        <ele>600.0</ele>
        <time>2015-05-23T15:33:04Z</time>
      </trkpt>
      <trkpt lat="43.282317" lon="-4.233917">
        <ele>599.0</ele>
        <time>2015-05-23T15:33:05Z</time>
      </trkpt>
      <trkpt lat="43.282333" lon="-4.233817">
        <ele>597.0</ele>
        <time>2015-05-23T15:33:06Z</time>
      </trkpt>
      <trkpt lat="43.282350" lon="-4.233733">
        <ele>596.0</ele>
        <time>2015-05-23T15:33:07Z</time>
      </trkpt>
      <trkpt lat="43.282367" lon="-4.233650">
        <ele>594.0</ele>
        <time>2015-05-23T15:33:08Z</time>
      </trkpt>
      <trkpt lat="43.282383" lon="-4.233550">
        <ele>592.0</ele>
        <time>2015-05-23T15:33:09Z</time>
      </trkpt>
      <trkpt lat="43.282400" lon="-4.233450">
        <ele>590.0</ele>
        <time>2015-05-23T15:33:10Z</time>
      </trkpt>
      <trkpt lat="43.282433" lon="-4.233350">
        <ele>588.0</ele>
        <time>2015-05-23T15:33:11Z</time>
      </trkpt>
      <trkpt lat="43.282450" lon="-4.233250">
        <ele>586.0</ele>
        <time>2015-05-23T15:33:12Z</time>
      </trkpt>
      <trkpt lat="43.282483" lon="-4.233150">
        <ele>584.0</ele>
        <time>2015-05-23T15:33:13Z</time>
      </trkpt>
      <trkpt lat="43.282500" lon="-4.233067">
        <ele>583.0</ele>
        <time>2015-05-23T15:33:14Z</time>
      </trkpt>
      <trkpt lat="43.282517" lon="-4.232967">
        <ele>581.0</ele>
        <time>2015-05-23T15:33:15Z</time>
      </trkpt>
      <trkpt lat="43.282533" lon="-4.232883">
        <ele>580.0</ele>
        <time>2015-05-23T15:33:16Z</time>
      </trkpt>
      <trkpt lat="43.282567" lon="-4.232800">
        <ele>578.0</ele>
        <time>2015-05-23T15:33:17Z</time>
      </trkpt>
      <trkpt lat="43.282583" lon="-4.232700">
        <ele>576.0</ele>
        <time>2015-05-23T15:33:18Z</time>
      </trkpt>
      <trkpt lat="43.282617" lon="-4.232617">
        <ele>575.0</ele>
        <time>2015-05-23T15:33:19Z</time>
      </trkpt>
      <trkpt lat="43.282650" lon="-4.232533">
        <ele>574.0</ele>
        <time>2015-05-23T15:33:20Z</time>
      </trkpt>
      <trkpt lat="43.282683" lon="-4.232450">
        <ele>572.0</ele>
        <time>2015-05-23T15:33:21Z</time>
      </trkpt>
      <trkpt lat="43.282700" lon="-4.232350">
        <ele>571.0</ele>
        <time>2015-05-23T15:33:22Z</time>
      </trkpt>
      <trkpt lat="43.282733" lon="-4.232250">
        <ele>570.0</ele>
        <time>2015-05-23T15:33:23Z</time>
      </trkpt>
      <trkpt lat="43.282767" lon="-4.232133">
        <ele>569.0</ele>
        <time>2015-05-23T15:33:24Z</time>
      </trkpt>
      <trkpt lat="43.282767" lon="-4.232017">
        <ele>569.0</ele>
        <time>2015-05-23T15:33:25Z</time>
      </trkpt>
      <trkpt lat="43.282783" lon="-4.231883">
        <ele>571.0</ele>
        <time>2015-05-23T15:33:26Z</time>
      </trkpt>
      <trkpt lat="43.282800" lon="-4.231783">
        <ele>572.0</ele>
        <time>2015-05-23T15:33:27Z</time>
      </trkpt>
      <trkpt lat="43.282817" lon="-4.231667">
        <ele>572.0</ele>
        <time>2015-05-23T15:33:28Z</time>
      </trkpt>
      <trkpt lat="43.282817" lon="-4.231567">
        <ele>572.0</ele>
        <time>2015-05-23T15:33:29Z</time>
      </trkpt>
      <trkpt lat="43.282833" lon="-4.231450">
        <ele>572.0</ele>
        <time>2015-05-23T15:33:30Z</time>
      </trkpt>
      <trkpt lat="43.282833" lon="-4.231350">
        <ele>572.0</ele>
        <time>2015-05-23T15:33:31Z</time>
      </trkpt>
      <trkpt lat="43.282850" lon="-4.231267">
        <ele>572.0</ele>
        <time>2015-05-23T15:33:32Z</time>
      </trkpt>
      <trkpt lat="43.282867" lon="-4.231167">
        <ele>571.0</ele>
        <time>2015-05-23T15:33:33Z</time>
      </trkpt>
      <trkpt lat="43.282883" lon="-4.231067">
        <ele>571.0</ele>
        <time>2015-05-23T15:33:34Z</time>
      </trkpt>
      <trkpt lat="43.282900" lon="-4.230967">
        <ele>571.0</ele>
        <time>2015-05-23T15:33:35Z</time>
      </trkpt>
      <trkpt lat="43.282917" lon="-4.230883">
        <ele>571.0</ele>
        <time>2015-05-23T15:33:36Z</time>
      </trkpt>
      <trkpt lat="43.282950" lon="-4.230800">
        <ele>571.0</ele>
        <time>2015-05-23T15:33:37Z</time>
      </trkpt>
      <trkpt lat="43.282967" lon="-4.230717">
        <ele>571.0</ele>
        <time>2015-05-23T15:33:38Z</time>
      </trkpt>
      <trkpt lat="43.283000" lon="-4.230633">
        <ele>570.0</ele>
        <time>2015-05-23T15:33:39Z</time>
      </trkpt>
      <trkpt lat="43.283017" lon="-4.230550">
        <ele>570.0</ele>
        <time>2015-05-23T15:33:40Z</time>
      </trkpt>
      <trkpt lat="43.283050" lon="-4.230467">
        <ele>570.0</ele>
        <time>2015-05-23T15:33:41Z</time>
      </trkpt>
      <trkpt lat="43.283083" lon="-4.230383">
        <ele>570.0</ele>
        <time>2015-05-23T15:33:42Z</time>
      </trkpt>
      <trkpt lat="43.283117" lon="-4.230317">
        <ele>570.0</ele>
        <time>2015-05-23T15:33:43Z</time>
      </trkpt>
      <trkpt lat="43.283167" lon="-4.230233">
        <ele>570.0</ele>
        <time>2015-05-23T15:33:44Z</time>
      </trkpt>
      <trkpt lat="43.283200" lon="-4.230167">
        <ele>570.0</ele>
        <time>2015-05-23T15:33:45Z</time>
      </trkpt>
      <trkpt lat="43.283217" lon="-4.230083">
        <ele>570.0</ele>
        <time>2015-05-23T15:33:46Z</time>
      </trkpt>
      <trkpt lat="43.283233" lon="-4.230000">
        <ele>569.0</ele>
        <time>2015-05-23T15:33:47Z</time>
      </trkpt>
      <trkpt lat="43.283283" lon="-4.229900">
        <ele>569.0</ele>
        <time>2015-05-23T15:33:48Z</time>
      </trkpt>
      <trkpt lat="43.283317" lon="-4.229817">
        <ele>569.0</ele>
        <time>2015-05-23T15:33:49Z</time>
      </trkpt>
      <trkpt lat="43.283317" lon="-4.229733">
        <ele>568.0</ele>
        <time>2015-05-23T15:33:50Z</time>
      </trkpt>
      <trkpt lat="43.283333" lon="-4.229667">
        <ele>568.0</ele>
        <time>2015-05-23T15:33:51Z</time>
      </trkpt>
      <trkpt lat="43.283333" lon="-4.229583">
        <ele>568.0</ele>
        <time>2015-05-23T15:33:52Z</time>
      </trkpt>
      <trkpt lat="43.283350" lon="-4.229500">
        <ele>567.0</ele>
        <time>2015-05-23T15:33:53Z</time>
      </trkpt>
      <trkpt lat="43.283367" lon="-4.229417">
        <ele>567.0</ele>
        <time>2015-05-23T15:33:54Z</time>
      </trkpt>
      <trkpt lat="43.283400" lon="-4.229350">
        <ele>567.0</ele>
        <time>2015-05-23T15:33:55Z</time>
      </trkpt>
      <trkpt lat="43.283433" lon="-4.229300">
        <ele>566.0</ele>
        <time>2015-05-23T15:33:56Z</time>
      </trkpt>
      <trkpt lat="43.283450" lon="-4.229250">
        <ele>566.0</ele>
        <time>2015-05-23T15:33:57Z</time>
      </trkpt>
      <trkpt lat="43.283483" lon="-4.229183">
        <ele>565.0</ele>
        <time>2015-05-23T15:33:58Z</time>
      </trkpt>
      <trkpt lat="43.283517" lon="-4.229117">
        <ele>565.0</ele>
        <time>2015-05-23T15:33:59Z</time>
      </trkpt>
      <trkpt lat="43.283533" lon="-4.229067">
        <ele>565.0</ele>
        <time>2015-05-23T15:34:00Z</time>
      </trkpt>
      <trkpt lat="43.283583" lon="-4.229000">
        <ele>564.0</ele>
        <time>2015-05-23T15:34:01Z</time>
      </trkpt>
      <trkpt lat="43.283617" lon="-4.228950">
        <ele>564.0</ele>
        <time>2015-05-23T15:34:02Z</time>
      </trkpt>
      <trkpt lat="43.283633" lon="-4.228900">
        <ele>563.0</ele>
        <time>2015-05-23T15:34:03Z</time>
      </trkpt>
      <trkpt lat="43.283650" lon="-4.228850">
        <ele>563.0</ele>
        <time>2015-05-23T15:34:04Z</time>
      </trkpt>
      <trkpt lat="43.283683" lon="-4.228817">
        <ele>563.0</ele>
        <time>2015-05-23T15:34:05Z</time>
      </trkpt>
      <trkpt lat="43.283700" lon="-4.228783">
        <ele>562.0</ele>
        <time>2015-05-23T15:34:06Z</time>
      </trkpt>
      <trkpt lat="43.283733" lon="-4.228733">
        <ele>562.0</ele>
        <time>2015-05-23T15:34:07Z</time>
      </trkpt>
      <trkpt lat="43.283767" lon="-4.228700">
        <ele>561.0</ele>
        <time>2015-05-23T15:34:08Z</time>
      </trkpt>
      <trkpt lat="43.283800" lon="-4.228650">
        <ele>561.0</ele>
        <time>2015-05-23T15:34:09Z</time>
      </trkpt>
      <trkpt lat="43.283833" lon="-4.228617">
        <ele>561.0</ele>
        <time>2015-05-23T15:34:10Z</time>
      </trkpt>
      <trkpt lat="43.283850" lon="-4.228567">
        <ele>560.0</ele>
        <time>2015-05-23T15:34:11Z</time>
      </trkpt>
      <trkpt lat="43.283867" lon="-4.228533">
        <ele>560.0</ele>
        <time>2015-05-23T15:34:12Z</time>
      </trkpt>
      <trkpt lat="43.283867" lon="-4.228483">
        <ele>560.0</ele>
        <time>2015-05-23T15:34:13Z</time>
      </trkpt>
      <trkpt lat="43.283900" lon="-4.228433">
        <ele>559.0</ele>
        <time>2015-05-23T15:34:14Z</time>
      </trkpt>
      <trkpt lat="43.283933" lon="-4.228383">
        <ele>559.0</ele>
        <time>2015-05-23T15:34:15Z</time>
      </trkpt>
      <trkpt lat="43.283983" lon="-4.228350">
        <ele>558.0</ele>
        <time>2015-05-23T15:34:16Z</time>
      </trkpt>
      <trkpt lat="43.284017" lon="-4.228317">
        <ele>558.0</ele>
        <time>2015-05-23T15:34:17Z</time>
      </trkpt>
      <trkpt lat="43.284050" lon="-4.228283">
        <ele>557.0</ele>
        <time>2015-05-23T15:34:18Z</time>
      </trkpt>
      <trkpt lat="43.284083" lon="-4.228250">
        <ele>556.0</ele>
        <time>2015-05-23T15:34:19Z</time>
      </trkpt>
      <trkpt lat="43.284133" lon="-4.228217">
        <ele>556.0</ele>
        <time>2015-05-23T15:34:20Z</time>
      </trkpt>
      <trkpt lat="43.284167" lon="-4.228167">
        <ele>555.0</ele>
        <time>2015-05-23T15:34:21Z</time>
      </trkpt>
      <trkpt lat="43.284200" lon="-4.228133">
        <ele>555.0</ele>
        <time>2015-05-23T15:34:22Z</time>
      </trkpt>
      <trkpt lat="43.284233" lon="-4.228100">
        <ele>554.0</ele>
        <time>2015-05-23T15:34:23Z</time>
      </trkpt>
      <trkpt lat="43.284267" lon="-4.228067">
        <ele>554.0</ele>
        <time>2015-05-23T15:34:24Z</time>
      </trkpt>
      <trkpt lat="43.284283" lon="-4.228017">
        <ele>553.0</ele>
        <time>2015-05-23T15:34:25Z</time>
      </trkpt>
      <trkpt lat="43.284317" lon="-4.227967">
        <ele>553.0</ele>
        <time>2015-05-23T15:34:26Z</time>
      </trkpt>
      <trkpt lat="43.284350" lon="-4.227917">
        <ele>553.0</ele>
        <time>2015-05-23T15:34:27Z</time>
      </trkpt>
      <trkpt lat="43.284400" lon="-4.227867">
        <ele>552.0</ele>
        <time>2015-05-23T15:34:28Z</time>
      </trkpt>
      <trkpt lat="43.284467" lon="-4.227817">
        <ele>551.0</ele>
        <time>2015-05-23T15:34:29Z</time>
      </trkpt>
      <trkpt lat="43.284500" lon="-4.227750">
        <ele>551.0</ele>
        <time>2015-05-23T15:34:30Z</time>
      </trkpt>
      <trkpt lat="43.284533" lon="-4.227683">
        <ele>550.0</ele>
        <time>2015-05-23T15:34:31Z</time>
      </trkpt>
      <trkpt lat="43.284567" lon="-4.227617">
        <ele>549.0</ele>
        <time>2015-05-23T15:34:32Z</time>
      </trkpt>
      <trkpt lat="43.284600" lon="-4.227550">
        <ele>549.0</ele>
        <time>2015-05-23T15:34:33Z</time>
      </trkpt>
      <trkpt lat="43.284650" lon="-4.227483">
        <ele>548.0</ele>
        <time>2015-05-23T15:34:34Z</time>
      </trkpt>
      <trkpt lat="43.284667" lon="-4.227400">
        <ele>547.0</ele>
        <time>2015-05-23T15:34:35Z</time>
      </trkpt>
      <trkpt lat="43.284700" lon="-4.227333">
        <ele>547.0</ele>
        <time>2015-05-23T15:34:36Z</time>
      </trkpt>
      <trkpt lat="43.284733" lon="-4.227250">
        <ele>546.0</ele>
        <time>2015-05-23T15:34:37Z</time>
      </trkpt>
      <trkpt lat="43.284750" lon="-4.227183">
        <ele>545.0</ele>
        <time>2015-05-23T15:34:38Z</time>
      </trkpt>
      <trkpt lat="43.284783" lon="-4.227117">
        <ele>545.0</ele>
        <time>2015-05-23T15:34:39Z</time>
      </trkpt>
      <trkpt lat="43.284817" lon="-4.227067">
        <ele>544.0</ele>
        <time>2015-05-23T15:34:40Z</time>
      </trkpt>
      <trkpt lat="43.284850" lon="-4.227017">
        <ele>543.0</ele>
        <time>2015-05-23T15:34:41Z</time>
      </trkpt>
      <trkpt lat="43.284883" lon="-4.226967">
        <ele>543.0</ele>
        <time>2015-05-23T15:34:42Z</time>
      </trkpt>
      <trkpt lat="43.284917" lon="-4.226900">
        <ele>542.0</ele>
        <time>2015-05-23T15:34:43Z</time>
      </trkpt>
      <trkpt lat="43.284950" lon="-4.226833">
        <ele>542.0</ele>
        <time>2015-05-23T15:34:44Z</time>
      </trkpt>
      <trkpt lat="43.284917" lon="-4.226783">
        <ele>541.0</ele>
        <time>2015-05-23T15:34:45Z</time>
      </trkpt>
      <trkpt lat="43.284883" lon="-4.226733">
        <ele>540.0</ele>
        <time>2015-05-23T15:34:46Z</time>
      </trkpt>
      <trkpt lat="43.284800" lon="-4.226650">
        <ele>538.0</ele>
        <time>2015-05-23T15:34:47Z</time>
      </trkpt>
      <trkpt lat="43.284733" lon="-4.226567">
        <ele>537.0</ele>
        <time>2015-05-23T15:34:48Z</time>
      </trkpt>
      <trkpt lat="43.284667" lon="-4.226450">
        <ele>535.0</ele>
        <time>2015-05-23T15:34:49Z</time>
      </trkpt>
      <trkpt lat="43.284617" lon="-4.226350">
        <ele>533.0</ele>
        <time>2015-05-23T15:34:50Z</time>
      </trkpt>
      <trkpt lat="43.284600" lon="-4.226250">
        <ele>531.0</ele>
        <time>2015-05-23T15:34:51Z</time>
      </trkpt>
      <trkpt lat="43.284550" lon="-4.226167">
        <ele>529.0</ele>
        <time>2015-05-23T15:34:52Z</time>
      </trkpt>
      <trkpt lat="43.284517" lon="-4.226067">
        <ele>526.0</ele>
        <time>2015-05-23T15:34:53Z</time>
      </trkpt>
      <trkpt lat="43.284467" lon="-4.225983">
        <ele>523.0</ele>
        <time>2015-05-23T15:34:54Z</time>
      </trkpt>
      <trkpt lat="43.284417" lon="-4.225883">
        <ele>520.0</ele>
        <time>2015-05-23T15:34:55Z</time>
      </trkpt>
      <trkpt lat="43.284367" lon="-4.225767">
        <ele>518.0</ele>
        <time>2015-05-23T15:34:56Z</time>
      </trkpt>
      <trkpt lat="43.284300" lon="-4.225633">
        <ele>518.0</ele>
        <time>2015-05-23T15:34:57Z</time>
      </trkpt>
      <trkpt lat="43.284250" lon="-4.225533">
        <ele>518.0</ele>
        <time>2015-05-23T15:34:58Z</time>
      </trkpt>
      <trkpt lat="43.284200" lon="-4.225450">
        <ele>519.0</ele>
        <time>2015-05-23T15:34:59Z</time>
      </trkpt>
      <trkpt lat="43.284133" lon="-4.225383">
        <ele>519.0</ele>
        <time>2015-05-23T15:35:00Z</time>
      </trkpt>
      <trkpt lat="43.284067" lon="-4.225333">
        <ele>518.0</ele>
        <time>2015-05-23T15:35:01Z</time>
      </trkpt>
      <trkpt lat="43.284017" lon="-4.225267">
        <ele>517.0</ele>
        <time>2015-05-23T15:35:02Z</time>
      </trkpt>
      <trkpt lat="43.283950" lon="-4.225200">
        <ele>516.0</ele>
        <time>2015-05-23T15:35:03Z</time>
      </trkpt>
      <trkpt lat="43.283883" lon="-4.225117">
        <ele>515.0</ele>
        <time>2015-05-23T15:35:04Z</time>
      </trkpt>
      <trkpt lat="43.283833" lon="-4.225050">
        <ele>515.0</ele>
        <time>2015-05-23T15:35:05Z</time>
      </trkpt>
      <trkpt lat="43.283783" lon="-4.224983">
        <ele>515.0</ele>
        <time>2015-05-23T15:35:06Z</time>
      </trkpt>
      <trkpt lat="43.283717" lon="-4.224917">
        <ele>514.0</ele>
        <time>2015-05-23T15:35:07Z</time>
      </trkpt>
      <trkpt lat="43.283667" lon="-4.224833">
        <ele>514.0</ele>
        <time>2015-05-23T15:35:08Z</time>
      </trkpt>
      <trkpt lat="43.283633" lon="-4.224767">
        <ele>514.0</ele>
        <time>2015-05-23T15:35:09Z</time>
      </trkpt>
      <trkpt lat="43.283600" lon="-4.224717">
        <ele>515.0</ele>
        <time>2015-05-23T15:35:10Z</time>
      </trkpt>
      <trkpt lat="43.283550" lon="-4.224650">
        <ele>515.0</ele>
        <time>2015-05-23T15:35:11Z</time>
      </trkpt>
      <trkpt lat="43.283517" lon="-4.224567">
        <ele>515.0</ele>
        <time>2015-05-23T15:35:12Z</time>
      </trkpt>
      <trkpt lat="43.283483" lon="-4.224467">
        <ele>516.0</ele>
        <time>2015-05-23T15:35:13Z</time>
      </trkpt>
      <trkpt lat="43.283450" lon="-4.224367">
        <ele>517.0</ele>
        <time>2015-05-23T15:35:14Z</time>
      </trkpt>
      <trkpt lat="43.283417" lon="-4.224267">
        <ele>518.0</ele>
        <time>2015-05-23T15:35:15Z</time>
      </trkpt>
      <trkpt lat="43.283383" lon="-4.224183">
        <ele>519.0</ele>
        <time>2015-05-23T15:35:16Z</time>
      </trkpt>
      <trkpt lat="43.283367" lon="-4.224100">
        <ele>520.0</ele>
        <time>2015-05-23T15:35:17Z</time>
      </trkpt>
      <trkpt lat="43.283333" lon="-4.224017">
        <ele>521.0</ele>
        <time>2015-05-23T15:35:18Z</time>
      </trkpt>
      <trkpt lat="43.283317" lon="-4.223917">
        <ele>520.0</ele>
        <time>2015-05-23T15:35:19Z</time>
      </trkpt>
      <trkpt lat="43.283300" lon="-4.223817">
        <ele>520.0</ele>
        <time>2015-05-23T15:35:20Z</time>
      </trkpt>
      <trkpt lat="43.283283" lon="-4.223717">
        <ele>519.0</ele>
        <time>2015-05-23T15:35:21Z</time>
      </trkpt>
      <trkpt lat="43.283233" lon="-4.223633">
        <ele>520.0</ele>
        <time>2015-05-23T15:35:22Z</time>
      </trkpt>
      <trkpt lat="43.283183" lon="-4.223567">
        <ele>520.0</ele>
        <time>2015-05-23T15:35:23Z</time>
      </trkpt>
      <trkpt lat="43.283117" lon="-4.223500">
        <ele>520.0</ele>
        <time>2015-05-23T15:35:24Z</time>
      </trkpt>
      <trkpt lat="43.283067" lon="-4.223433">
        <ele>520.0</ele>
        <time>2015-05-23T15:35:25Z</time>
      </trkpt>
      <trkpt lat="43.283017" lon="-4.223350">
        <ele>520.0</ele>
        <time>2015-05-23T15:35:26Z</time>
      </trkpt>
      <trkpt lat="43.282950" lon="-4.223267">
        <ele>520.0</ele>
        <time>2015-05-23T15:35:27Z</time>
      </trkpt>
      <trkpt lat="43.282883" lon="-4.223183">
        <ele>520.0</ele>
        <time>2015-05-23T15:35:28Z</time>
      </trkpt>
      <trkpt lat="43.282817" lon="-4.223100">
        <ele>520.0</ele>
        <time>2015-05-23T15:35:29Z</time>
      </trkpt>
      <trkpt lat="43.282767" lon="-4.223017">
        <ele>520.0</ele>
        <time>2015-05-23T15:35:30Z</time>
      </trkpt>
      <trkpt lat="43.282700" lon="-4.222933">
        <ele>520.0</ele>
        <time>2015-05-23T15:35:31Z</time>
      </trkpt>
      <trkpt lat="43.282650" lon="-4.222867">
        <ele>520.0</ele>
        <time>2015-05-23T15:35:32Z</time>
      </trkpt>
      <trkpt lat="43.282583" lon="-4.222783">
        <ele>520.0</ele>
        <time>2015-05-23T15:35:33Z</time>
      </trkpt>
      <trkpt lat="43.282517" lon="-4.222700">
        <ele>520.0</ele>
        <time>2015-05-23T15:35:34Z</time>
      </trkpt>
      <trkpt lat="43.282450" lon="-4.222600">
        <ele>520.0</ele>
        <time>2015-05-23T15:35:35Z</time>
      </trkpt>
      <trkpt lat="43.282367" lon="-4.222517">
        <ele>520.0</ele>
        <time>2015-05-23T15:35:36Z</time>
      </trkpt>
      <trkpt lat="43.282300" lon="-4.222417">
        <ele>520.0</ele>
        <time>2015-05-23T15:35:37Z</time>
      </trkpt>
      <trkpt lat="43.282233" lon="-4.222300">
        <ele>519.0</ele>
        <time>2015-05-23T15:35:38Z</time>
      </trkpt>
      <trkpt lat="43.282183" lon="-4.222167">
        <ele>518.0</ele>
        <time>2015-05-23T15:35:39Z</time>
      </trkpt>
      <trkpt lat="43.282100" lon="-4.222033">
        <ele>518.0</ele>
        <time>2015-05-23T15:35:40Z</time>
      </trkpt>
      <trkpt lat="43.282033" lon="-4.221917">
        <ele>517.0</ele>
        <time>2015-05-23T15:35:41Z</time>
      </trkpt>
      <trkpt lat="43.281950" lon="-4.221783">
        <ele>517.0</ele>
        <time>2015-05-23T15:35:42Z</time>
      </trkpt>
      <trkpt lat="43.281883" lon="-4.221650">
        <ele>517.0</ele>
        <time>2015-05-23T15:35:43Z</time>
      </trkpt>
      <trkpt lat="43.281817" lon="-4.221533">
        <ele>516.0</ele>
        <time>2015-05-23T15:35:44Z</time>
      </trkpt>
      <trkpt lat="43.281750" lon="-4.221400">
        <ele>516.0</ele>
        <time>2015-05-23T15:35:45Z</time>
      </trkpt>
      <trkpt lat="43.281683" lon="-4.221300">
        <ele>517.0</ele>
        <time>2015-05-23T15:35:46Z</time>
      </trkpt>
      <trkpt lat="43.281617" lon="-4.221200">
        <ele>517.0</ele>
        <time>2015-05-23T15:35:47Z</time>
      </trkpt>
      <trkpt lat="43.281517" lon="-4.221083">
        <ele>517.0</ele>
        <time>2015-05-23T15:35:48Z</time>
      </trkpt>
      <trkpt lat="43.281417" lon="-4.220983">
        <ele>518.0</ele>
        <time>2015-05-23T15:35:49Z</time>
      </trkpt>
      <trkpt lat="43.281317" lon="-4.220883">
        <ele>519.0</ele>
        <time>2015-05-23T15:35:50Z</time>
      </trkpt>
      <trkpt lat="43.281217" lon="-4.220800">
        <ele>520.0</ele>
        <time>2015-05-23T15:35:51Z</time>
      </trkpt>
      <trkpt lat="43.281133" lon="-4.220717">
        <ele>524.0</ele>
        <time>2015-05-23T15:35:52Z</time>
      </trkpt>
      <trkpt lat="43.281067" lon="-4.220617">
        <ele>526.0</ele>
        <time>2015-05-23T15:35:53Z</time>
      </trkpt>
      <trkpt lat="43.281033" lon="-4.220500">
        <ele>528.0</ele>
        <time>2015-05-23T15:35:54Z</time>
      </trkpt>
      <trkpt lat="43.281017" lon="-4.220367">
        <ele>528.0</ele>
        <time>2015-05-23T15:35:55Z</time>
      </trkpt>
      <trkpt lat="43.281000" lon="-4.220233">
        <ele>529.0</ele>
        <time>2015-05-23T15:35:56Z</time>
      </trkpt>
      <trkpt lat="43.280983" lon="-4.220117">
        <ele>530.0</ele>
        <time>2015-05-23T15:35:57Z</time>
      </trkpt>
      <trkpt lat="43.280983" lon="-4.220000">
        <ele>531.0</ele>
        <time>2015-05-23T15:35:58Z</time>
      </trkpt>
      <trkpt lat="43.280983" lon="-4.219917">
        <ele>532.0</ele>
        <time>2015-05-23T15:35:59Z</time>
      </trkpt>
      <trkpt lat="43.281017" lon="-4.219867">
        <ele>530.0</ele>
        <time>2015-05-23T15:36:00Z</time>
      </trkpt>
      <trkpt lat="43.281050" lon="-4.219833">
        <ele>531.0</ele>
        <time>2015-05-23T15:36:01Z</time>
      </trkpt>
      <trkpt lat="43.281067" lon="-4.219850">
        <ele>531.0</ele>
        <time>2015-05-23T15:36:02Z</time>
      </trkpt>
      <trkpt lat="43.281100" lon="-4.219883">
        <ele>531.0</ele>
        <time>2015-05-23T15:36:03Z</time>
      </trkpt>
      <trkpt lat="43.281117" lon="-4.219950">
        <ele>531.0</ele>
        <time>2015-05-23T15:36:04Z</time>
      </trkpt>
      <trkpt lat="43.281133" lon="-4.220000">
        <ele>531.0</ele>
        <time>2015-05-23T15:36:05Z</time>
      </trkpt>
      <trkpt lat="43.281133" lon="-4.220067">
        <ele>532.0</ele>
        <time>2015-05-23T15:36:06Z</time>
      </trkpt>
      <trkpt lat="43.281150" lon="-4.220117">
        <ele>533.0</ele>
        <time>2015-05-23T15:36:07Z</time>
      </trkpt>
      <trkpt lat="43.281150" lon="-4.220183">
        <ele>533.0</ele>
        <time>2015-05-23T15:36:08Z</time>
      </trkpt>
      <trkpt lat="43.281150" lon="-4.220233">
        <ele>534.0</ele>
        <time>2015-05-23T15:36:09Z</time>
      </trkpt>
      <trkpt lat="43.281150" lon="-4.220283">
        <ele>536.0</ele>
        <time>2015-05-23T15:36:10Z</time>
      </trkpt>
      <trkpt lat="43.281150" lon="-4.220317">
        <ele>538.0</ele>
        <time>2015-05-23T15:36:11Z</time>
      </trkpt>
      <trkpt lat="43.281150" lon="-4.220350">
        <ele>540.0</ele>
        <time>2015-05-23T15:36:12Z</time>
      </trkpt>
      <trkpt lat="43.281150" lon="-4.220383">
        <ele>542.0</ele>
        <time>2015-05-23T15:36:13Z</time>
      </trkpt>
      <trkpt lat="43.281150" lon="-4.220433">
        <ele>544.0</ele>
        <time>2015-05-23T15:36:14Z</time>
      </trkpt>
      <trkpt lat="43.281133" lon="-4.220500">
        <ele>546.0</ele>
        <time>2015-05-23T15:36:15Z</time>
      </trkpt>
      <trkpt lat="43.281067" lon="-4.220567">
        <ele>547.0</ele>
        <time>2015-05-23T15:36:16Z</time>
      </trkpt>
      <trkpt lat="43.280983" lon="-4.220617">
        <ele>549.0</ele>
        <time>2015-05-23T15:36:17Z</time>
      </trkpt>
      <trkpt lat="43.280883" lon="-4.220617">
        <ele>550.0</ele>
        <time>2015-05-23T15:36:18Z</time>
      </trkpt>
      <trkpt lat="43.280750" lon="-4.220583">
        <ele>552.0</ele>
        <time>2015-05-23T15:36:19Z</time>
      </trkpt>
      <trkpt lat="43.280667" lon="-4.220500">
        <ele>554.0</ele>
        <time>2015-05-23T15:36:20Z</time>
      </trkpt>
      <trkpt lat="43.280600" lon="-4.220383">
        <ele>556.0</ele>
        <time>2015-05-23T15:36:21Z</time>
      </trkpt>
      <trkpt lat="43.280550" lon="-4.220250">
        <ele>558.0</ele>
        <time>2015-05-23T15:36:22Z</time>
      </trkpt>
      <trkpt lat="43.280533" lon="-4.220117">
        <ele>559.0</ele>
        <time>2015-05-23T15:36:23Z</time>
      </trkpt>
      <trkpt lat="43.280517" lon="-4.220000">
        <ele>562.0</ele>
        <time>2015-05-23T15:36:24Z</time>
      </trkpt>
      <trkpt lat="43.280533" lon="-4.219900">
        <ele>563.0</ele>
        <time>2015-05-23T15:36:25Z</time>
      </trkpt>
      <trkpt lat="43.280550" lon="-4.219833">
        <ele>561.0</ele>
        <time>2015-05-23T15:36:26Z</time>
      </trkpt>
      <trkpt lat="43.280583" lon="-4.219800">
        <ele>563.0</ele>
        <time>2015-05-23T15:36:27Z</time>
      </trkpt>
      <trkpt lat="43.280617" lon="-4.219783">
        <ele>566.0</ele>
        <time>2015-05-23T15:36:28Z</time>
      </trkpt>
      <trkpt lat="43.280633" lon="-4.219800">
        <ele>568.0</ele>
        <time>2015-05-23T15:36:29Z</time>
      </trkpt>
      <trkpt lat="43.280633" lon="-4.219850">
        <ele>571.0</ele>
        <time>2015-05-23T15:36:30Z</time>
      </trkpt>
      <trkpt lat="43.280617" lon="-4.219900">
        <ele>573.0</ele>
        <time>2015-05-23T15:36:31Z</time>
      </trkpt>
      <trkpt lat="43.280600" lon="-4.219950">
        <ele>575.0</ele>
        <time>2015-05-23T15:36:32Z</time>
      </trkpt>
      <trkpt lat="43.280583" lon="-4.220033">
        <ele>576.0</ele>
        <time>2015-05-23T15:36:33Z</time>
      </trkpt>
      <trkpt lat="43.280567" lon="-4.220117">
        <ele>578.0</ele>
        <time>2015-05-23T15:36:34Z</time>
      </trkpt>
      <trkpt lat="43.280533" lon="-4.220200">
        <ele>575.0</ele>
        <time>2015-05-23T15:36:35Z</time>
      </trkpt>
      <trkpt lat="43.280517" lon="-4.220300">
        <ele>575.0</ele>
        <time>2015-05-23T15:36:36Z</time>
      </trkpt>
      <trkpt lat="43.280483" lon="-4.220400">
        <ele>575.0</ele>
        <time>2015-05-23T15:36:37Z</time>
      </trkpt>
      <trkpt lat="43.280467" lon="-4.220517">
        <ele>575.0</ele>
        <time>2015-05-23T15:36:38Z</time>
      </trkpt>
      <trkpt lat="43.280450" lon="-4.220617">
        <ele>576.0</ele>
        <time>2015-05-23T15:36:39Z</time>
      </trkpt>
      <trkpt lat="43.280417" lon="-4.220700">
        <ele>576.0</ele>
        <time>2015-05-23T15:36:40Z</time>
      </trkpt>
      <trkpt lat="43.280383" lon="-4.220767">
        <ele>577.0</ele>
        <time>2015-05-23T15:36:41Z</time>
      </trkpt>
      <trkpt lat="43.280350" lon="-4.220850">
        <ele>577.0</ele>
        <time>2015-05-23T15:36:42Z</time>
      </trkpt>
      <trkpt lat="43.280317" lon="-4.220933">
        <ele>577.0</ele>
        <time>2015-05-23T15:36:43Z</time>
      </trkpt>
      <trkpt lat="43.280283" lon="-4.221000">
        <ele>578.0</ele>
        <time>2015-05-23T15:36:44Z</time>
      </trkpt>
      <trkpt lat="43.280250" lon="-4.221067">
        <ele>578.0</ele>
        <time>2015-05-23T15:36:45Z</time>
      </trkpt>
      <trkpt lat="43.280250" lon="-4.221117">
        <ele>578.0</ele>
        <time>2015-05-23T15:36:46Z</time>
      </trkpt>
      <trkpt lat="43.280267" lon="-4.221150">
        <ele>577.0</ele>
        <time>2015-05-23T15:36:47Z</time>
      </trkpt>
      <trkpt lat="43.280300" lon="-4.221133">
        <ele>577.0</ele>
        <time>2015-05-23T15:36:48Z</time>
      </trkpt>
      <trkpt lat="43.280317" lon="-4.221083">
        <ele>576.0</ele>
        <time>2015-05-23T15:36:49Z</time>
      </trkpt>
      <trkpt lat="43.280333" lon="-4.220983">
        <ele>576.0</ele>
        <time>2015-05-23T15:36:50Z</time>
      </trkpt>
      <trkpt lat="43.280350" lon="-4.220867">
        <ele>576.0</ele>
        <time>2015-05-23T15:36:51Z</time>
      </trkpt>
      <trkpt lat="43.280350" lon="-4.220767">
        <ele>576.0</ele>
        <time>2015-05-23T15:36:52Z</time>
      </trkpt>
      <trkpt lat="43.280383" lon="-4.220683">
        <ele>577.0</ele>
        <time>2015-05-23T15:36:53Z</time>
      </trkpt>
      <trkpt lat="43.280383" lon="-4.220617">
        <ele>577.0</ele>
        <time>2015-05-23T15:36:54Z</time>
      </trkpt>
      <trkpt lat="43.280383" lon="-4.220533">
        <ele>577.0</ele>
        <time>2015-05-23T15:36:55Z</time>
      </trkpt>
      <trkpt lat="43.280367" lon="-4.220417">
        <ele>577.0</ele>
        <time>2015-05-23T15:36:56Z</time>
      </trkpt>
      <trkpt lat="43.280333" lon="-4.220300">
        <ele>578.0</ele>
        <time>2015-05-23T15:36:57Z</time>
      </trkpt>
      <trkpt lat="43.280317" lon="-4.220183">
        <ele>578.0</ele>
        <time>2015-05-23T15:36:58Z</time>
      </trkpt>
      <trkpt lat="43.280300" lon="-4.220083">
        <ele>579.0</ele>
        <time>2015-05-23T15:36:59Z</time>
      </trkpt>
      <trkpt lat="43.280300" lon="-4.219967">
        <ele>579.0</ele>
        <time>2015-05-23T15:37:00Z</time>
      </trkpt>
      <trkpt lat="43.280300" lon="-4.219850">
        <ele>579.0</ele>
        <time>2015-05-23T15:37:01Z</time>
      </trkpt>
      <trkpt lat="43.280300" lon="-4.219717">
        <ele>579.0</ele>
        <time>2015-05-23T15:37:02Z</time>
      </trkpt>
      <trkpt lat="43.280283" lon="-4.219600">
        <ele>580.0</ele>
        <time>2015-05-23T15:37:03Z</time>
      </trkpt>
      <trkpt lat="43.280267" lon="-4.219500">
        <ele>580.0</ele>
        <time>2015-05-23T15:37:04Z</time>
      </trkpt>
      <trkpt lat="43.280250" lon="-4.219400">
        <ele>582.0</ele>
        <time>2015-05-23T15:37:05Z</time>
      </trkpt>
      <trkpt lat="43.280250" lon="-4.219317">
        <ele>583.0</ele>
        <time>2015-05-23T15:37:06Z</time>
      </trkpt>
      <trkpt lat="43.280250" lon="-4.219217">
        <ele>585.0</ele>
        <time>2015-05-23T15:37:07Z</time>
      </trkpt>
      <trkpt lat="43.280267" lon="-4.219133">
        <ele>587.0</ele>
        <time>2015-05-23T15:37:08Z</time>
      </trkpt>
      <trkpt lat="43.280300" lon="-4.219067">
        <ele>587.0</ele>
        <time>2015-05-23T15:37:09Z</time>
      </trkpt>
      <trkpt lat="43.280317" lon="-4.218983">
        <ele>588.0</ele>
        <time>2015-05-23T15:37:10Z</time>
      </trkpt>
      <trkpt lat="43.280350" lon="-4.218883">
        <ele>588.0</ele>
        <time>2015-05-23T15:37:11Z</time>
      </trkpt>
      <trkpt lat="43.280383" lon="-4.218783">
        <ele>590.0</ele>
        <time>2015-05-23T15:37:12Z</time>
      </trkpt>
      <trkpt lat="43.280433" lon="-4.218700">
        <ele>592.0</ele>
        <time>2015-05-23T15:37:13Z</time>
      </trkpt>
      <trkpt lat="43.280467" lon="-4.218633">
        <ele>594.0</ele>
        <time>2015-05-23T15:37:14Z</time>
      </trkpt>
      <trkpt lat="43.280500" lon="-4.218583">
        <ele>597.0</ele>
        <time>2015-05-23T15:37:15Z</time>
      </trkpt>
      <trkpt lat="43.280550" lon="-4.218550">
        <ele>595.0</ele>
        <time>2015-05-23T15:37:16Z</time>
      </trkpt>
      <trkpt lat="43.280583" lon="-4.218483">
        <ele>598.0</ele>
        <time>2015-05-23T15:37:17Z</time>
      </trkpt>
      <trkpt lat="43.280600" lon="-4.218433">
        <ele>601.0</ele>
        <time>2015-05-23T15:37:18Z</time>
      </trkpt>
      <trkpt lat="43.280617" lon="-4.218383">
        <ele>602.0</ele>
        <time>2015-05-23T15:37:19Z</time>
      </trkpt>
      <trkpt lat="43.280650" lon="-4.218333">
        <ele>603.0</ele>
        <time>2015-05-23T15:37:20Z</time>
      </trkpt>
      <trkpt lat="43.280667" lon="-4.218283">
        <ele>605.0</ele>
        <time>2015-05-23T15:37:21Z</time>
      </trkpt>
      <trkpt lat="43.280700" lon="-4.218217">
        <ele>607.0</ele>
        <time>2015-05-23T15:37:22Z</time>
      </trkpt>
      <trkpt lat="43.280733" lon="-4.218150">
        <ele>608.0</ele>
        <time>2015-05-23T15:37:23Z</time>
      </trkpt>
      <trkpt lat="43.280783" lon="-4.218100">
        <ele>608.0</ele>
        <time>2015-05-23T15:37:24Z</time>
      </trkpt>
      <trkpt lat="43.280833" lon="-4.218033">
        <ele>608.0</ele>
        <time>2015-05-23T15:37:25Z</time>
      </trkpt>
      <trkpt lat="43.280883" lon="-4.218000">
        <ele>608.0</ele>
        <time>2015-05-23T15:37:26Z</time>
      </trkpt>
      <trkpt lat="43.280933" lon="-4.217967">
        <ele>609.0</ele>
        <time>2015-05-23T15:37:27Z</time>
      </trkpt>
      <trkpt lat="43.280950" lon="-4.217933">
        <ele>609.0</ele>
        <time>2015-05-23T15:37:28Z</time>
      </trkpt>
      <trkpt lat="43.280983" lon="-4.217883">
        <ele>610.0</ele>
        <time>2015-05-23T15:37:29Z</time>
      </trkpt>
      <trkpt lat="43.281033" lon="-4.217867">
        <ele>610.0</ele>
        <time>2015-05-23T15:37:30Z</time>
      </trkpt>
      <trkpt lat="43.281083" lon="-4.217833">
        <ele>612.0</ele>
        <time>2015-05-23T15:37:31Z</time>
      </trkpt>
      <trkpt lat="43.281117" lon="-4.217817">
        <ele>613.0</ele>
        <time>2015-05-23T15:37:32Z</time>
      </trkpt>
      <trkpt lat="43.281117" lon="-4.217833">
        <ele>615.0</ele>
        <time>2015-05-23T15:37:33Z</time>
      </trkpt>
      <trkpt lat="43.281133" lon="-4.217883">
        <ele>616.0</ele>
        <time>2015-05-23T15:37:34Z</time>
      </trkpt>
      <trkpt lat="43.281167" lon="-4.217933">
        <ele>616.0</ele>
        <time>2015-05-23T15:37:35Z</time>
      </trkpt>
      <trkpt lat="43.281200" lon="-4.217967">
        <ele>617.0</ele>
        <time>2015-05-23T15:37:36Z</time>
      </trkpt>
      <trkpt lat="43.281233" lon="-4.218017">
        <ele>618.0</ele>
        <time>2015-05-23T15:37:37Z</time>
      </trkpt>
      <trkpt lat="43.281233" lon="-4.218067">
        <ele>619.0</ele>
        <time>2015-05-23T15:37:38Z</time>
      </trkpt>
      <trkpt lat="43.281200" lon="-4.218150">
        <ele>620.0</ele>
        <time>2015-05-23T15:37:39Z</time>
      </trkpt>
      <trkpt lat="43.281083" lon="-4.218200">
        <ele>620.0</ele>
        <time>2015-05-23T15:37:40Z</time>
      </trkpt>
      <trkpt lat="43.280950" lon="-4.218183">
        <ele>619.0</ele>
        <time>2015-05-23T15:37:41Z</time>
      </trkpt>
      <trkpt lat="43.280850" lon="-4.218067">
        <ele>618.0</ele>
        <time>2015-05-23T15:37:42Z</time>
      </trkpt>
      <trkpt lat="43.280817" lon="-4.217917">
        <ele>617.0</ele>
        <time>2015-05-23T15:37:43Z</time>
      </trkpt>
      <trkpt lat="43.280850" lon="-4.217883">
        <ele>618.0</ele>
        <time>2015-05-23T15:37:44Z</time>
      </trkpt>
      <trkpt lat="43.280833" lon="-4.218000">
        <ele>618.0</ele>
        <time>2015-05-23T15:37:45Z</time>
      </trkpt>
      <trkpt lat="43.280733" lon="-4.217967">
        <ele>618.0</ele>
        <time>2015-05-23T15:37:47Z</time>
      </trkpt>
      <trkpt lat="43.280750" lon="-4.217833">
        <ele>618.0</ele>
        <time>2015-05-23T15:37:48Z</time>
      </trkpt>
      <trkpt lat="43.280800" lon="-4.217933">
        <ele>618.0</ele>
        <time>2015-05-23T15:37:49Z</time>
      </trkpt>
      <trkpt lat="43.280633" lon="-4.218100">
        <ele>618.0</ele>
        <time>2015-05-23T15:37:50Z</time>
      </trkpt>
      <trkpt lat="43.280533" lon="-4.218100">
        <ele>618.0</ele>
        <time>2015-05-23T15:37:51Z</time>
      </trkpt>
      <trkpt lat="43.280433" lon="-4.218000">
        <ele>617.0</ele>
        <time>2015-05-23T15:37:52Z</time>
      </trkpt>
      <trkpt lat="43.280467" lon="-4.217900">
        <ele>617.0</ele>
        <time>2015-05-23T15:37:53Z</time>
      </trkpt>
      <trkpt lat="43.280500" lon="-4.217867">
        <ele>616.0</ele>
        <time>2015-05-23T15:37:54Z</time>
      </trkpt>
      <trkpt lat="43.280450" lon="-4.217867">
        <ele>616.0</ele>
        <time>2015-05-23T15:37:55Z</time>
      </trkpt>
      <trkpt lat="43.280417" lon="-4.217883">
        <ele>615.0</ele>
        <time>2015-05-23T15:37:56Z</time>
      </trkpt>
      <trkpt lat="43.280367" lon="-4.217850">
        <ele>615.0</ele>
        <time>2015-05-23T15:37:57Z</time>
      </trkpt>
      <trkpt lat="43.280350" lon="-4.217833">
        <ele>614.0</ele>
        <time>2015-05-23T15:37:58Z</time>
      </trkpt>
      <trkpt lat="43.280383" lon="-4.217850">
        <ele>613.0</ele>
        <time>2015-05-23T15:37:59Z</time>
      </trkpt>
      <trkpt lat="43.280383" lon="-4.217917">
        <ele>612.0</ele>
        <time>2015-05-23T15:38:00Z</time>
      </trkpt>
      <trkpt lat="43.280283" lon="-4.218067">
        <ele>612.0</ele>
        <time>2015-05-23T15:38:01Z</time>
      </trkpt>
      <trkpt lat="43.280167" lon="-4.218167">
        <ele>611.0</ele>
        <time>2015-05-23T15:38:02Z</time>
      </trkpt>
      <trkpt lat="43.280033" lon="-4.218150">
        <ele>610.0</ele>
        <time>2015-05-23T15:38:03Z</time>
      </trkpt>
      <trkpt lat="43.279950" lon="-4.218000">
        <ele>609.0</ele>
        <time>2015-05-23T15:38:04Z</time>
      </trkpt>
      <trkpt lat="43.279967" lon="-4.217933">
        <ele>608.0</ele>
        <time>2015-05-23T15:38:05Z</time>
      </trkpt>
      <trkpt lat="43.279967" lon="-4.217967">
        <ele>608.0</ele>
        <time>2015-05-23T15:38:06Z</time>
      </trkpt>
      <trkpt lat="43.279933" lon="-4.218050">
        <ele>608.0</ele>
        <time>2015-05-23T15:38:07Z</time>
      </trkpt>
      <trkpt lat="43.279867" lon="-4.218017">
        <ele>608.0</ele>
        <time>2015-05-23T15:38:08Z</time>
      </trkpt>
      <trkpt lat="43.279850" lon="-4.217867">
        <ele>608.0</ele>
        <time>2015-05-23T15:38:09Z</time>
      </trkpt>
      <trkpt lat="43.279867" lon="-4.217717">
        <ele>607.0</ele>
        <time>2015-05-23T15:38:10Z</time>
      </trkpt>
      <trkpt lat="43.279950" lon="-4.217700">
        <ele>607.0</ele>
        <time>2015-05-23T15:38:11Z</time>
      </trkpt>
      <trkpt lat="43.279933" lon="-4.217700">
        <ele>606.0</ele>
        <time>2015-05-23T15:38:12Z</time>
      </trkpt>
      <trkpt lat="43.279917" lon="-4.217683">
        <ele>605.0</ele>
        <time>2015-05-23T15:38:13Z</time>
      </trkpt>
      <trkpt lat="43.279900" lon="-4.217667">
        <ele>604.0</ele>
        <time>2015-05-23T15:38:14Z</time>
      </trkpt>
      <trkpt lat="43.279917" lon="-4.217650">
        <ele>603.0</ele>
        <time>2015-05-23T15:38:15Z</time>
      </trkpt>
      <trkpt lat="43.279967" lon="-4.217667">
        <ele>602.0</ele>
        <time>2015-05-23T15:38:16Z</time>
      </trkpt>
      <trkpt lat="43.280033" lon="-4.217717">
        <ele>600.0</ele>
        <time>2015-05-23T15:38:17Z</time>
      </trkpt>
      <trkpt lat="43.280100" lon="-4.217733">
        <ele>599.0</ele>
        <time>2015-05-23T15:38:18Z</time>
      </trkpt>
      <trkpt lat="43.280117" lon="-4.217700">
        <ele>598.0</ele>
        <time>2015-05-23T15:38:19Z</time>
      </trkpt>
      <trkpt lat="43.280100" lon="-4.217617">
        <ele>597.0</ele>
        <time>2015-05-23T15:38:20Z</time>
      </trkpt>
      <trkpt lat="43.280017" lon="-4.217517">
        <ele>595.0</ele>
        <time>2015-05-23T15:38:21Z</time>
      </trkpt>
      <trkpt lat="43.279967" lon="-4.217417">
        <ele>592.0</ele>
        <time>2015-05-23T15:38:22Z</time>
      </trkpt>
      <trkpt lat="43.279967" lon="-4.217367">
        <ele>590.0</ele>
        <time>2015-05-23T15:38:23Z</time>
      </trkpt>
      <trkpt lat="43.280000" lon="-4.217350">
        <ele>589.0</ele>
        <time>2015-05-23T15:38:24Z</time>
      </trkpt>
      <trkpt lat="43.280050" lon="-4.217400">
        <ele>588.0</ele>
        <time>2015-05-23T15:38:25Z</time>
      </trkpt>
      <trkpt lat="43.280067" lon="-4.217500">
        <ele>587.0</ele>
        <time>2015-05-23T15:38:26Z</time>
      </trkpt>
      <trkpt lat="43.280033" lon="-4.217617">
        <ele>587.0</ele>
        <time>2015-05-23T15:38:27Z</time>
      </trkpt>
      <trkpt lat="43.279967" lon="-4.217733">
        <ele>586.0</ele>
        <time>2015-05-23T15:38:28Z</time>
      </trkpt>
      <trkpt lat="43.279883" lon="-4.217833">
        <ele>585.0</ele>
        <time>2015-05-23T15:38:29Z</time>
      </trkpt>
      <trkpt lat="43.279800" lon="-4.217967">
        <ele>585.0</ele>
        <time>2015-05-23T15:38:30Z</time>
      </trkpt>
      <trkpt lat="43.279800" lon="-4.218083">
        <ele>584.0</ele>
        <time>2015-05-23T15:38:31Z</time>
      </trkpt>
      <trkpt lat="43.279783" lon="-4.218150">
        <ele>581.0</ele>
        <time>2015-05-23T15:38:32Z</time>
      </trkpt>
      <trkpt lat="43.279783" lon="-4.218100">
        <ele>581.0</ele>
        <time>2015-05-23T15:38:33Z</time>
      </trkpt>
      <trkpt lat="43.279733" lon="-4.217967">
        <ele>581.0</ele>
        <time>2015-05-23T15:38:34Z</time>
      </trkpt>
      <trkpt lat="43.279550" lon="-4.217867">
        <ele>581.0</ele>
        <time>2015-05-23T15:38:35Z</time>
      </trkpt>
      <trkpt lat="43.279417" lon="-4.217867">
        <ele>580.0</ele>
        <time>2015-05-23T15:38:36Z</time>
      </trkpt>
      <trkpt lat="43.279317" lon="-4.218000">
        <ele>580.0</ele>
        <time>2015-05-23T15:38:37Z</time>
      </trkpt>
      <trkpt lat="43.279283" lon="-4.218167">
        <ele>579.0</ele>
        <time>2015-05-23T15:38:38Z</time>
      </trkpt>
      <trkpt lat="43.279233" lon="-4.218267">
        <ele>578.0</ele>
        <time>2015-05-23T15:38:39Z</time>
      </trkpt>
      <trkpt lat="43.279250" lon="-4.218300">
        <ele>577.0</ele>
        <time>2015-05-23T15:38:40Z</time>
      </trkpt>
      <trkpt lat="43.279333" lon="-4.218333">
        <ele>577.0</ele>
        <time>2015-05-23T15:38:41Z</time>
      </trkpt>
      <trkpt lat="43.279433" lon="-4.218367">
        <ele>576.0</ele>
        <time>2015-05-23T15:38:42Z</time>
      </trkpt>
      <trkpt lat="43.279483" lon="-4.218433">
        <ele>574.0</ele>
        <time>2015-05-23T15:38:43Z</time>
      </trkpt>
      <trkpt lat="43.279567" lon="-4.218483">
        <ele>572.0</ele>
        <time>2015-05-23T15:38:44Z</time>
      </trkpt>
      <trkpt lat="43.279633" lon="-4.218517">
        <ele>571.0</ele>
        <time>2015-05-23T15:38:45Z</time>
      </trkpt>
      <trkpt lat="43.279700" lon="-4.218533">
        <ele>570.0</ele>
        <time>2015-05-23T15:38:46Z</time>
      </trkpt>
      <trkpt lat="43.279767" lon="-4.218567">
        <ele>569.0</ele>
        <time>2015-05-23T15:38:47Z</time>
      </trkpt>
      <trkpt lat="43.279783" lon="-4.218583">
        <ele>568.0</ele>
        <time>2015-05-23T15:38:48Z</time>
      </trkpt>
      <trkpt lat="43.279800" lon="-4.218633">
        <ele>567.0</ele>
        <time>2015-05-23T15:38:49Z</time>
      </trkpt>
      <trkpt lat="43.279867" lon="-4.218667">
        <ele>566.0</ele>
        <time>2015-05-23T15:38:50Z</time>
      </trkpt>
      <trkpt lat="43.279917" lon="-4.218700">
        <ele>564.0</ele>
        <time>2015-05-23T15:38:51Z</time>
      </trkpt>
      <trkpt lat="43.279933" lon="-4.218750">
        <ele>563.0</ele>
        <time>2015-05-23T15:38:52Z</time>
      </trkpt>
      <trkpt lat="43.279917" lon="-4.218817">
        <ele>562.0</ele>
        <time>2015-05-23T15:38:53Z</time>
      </trkpt>
      <trkpt lat="43.279867" lon="-4.218933">
        <ele>561.0</ele>
        <time>2015-05-23T15:38:54Z</time>
      </trkpt>
      <trkpt lat="43.279800" lon="-4.219050">
        <ele>560.0</ele>
        <time>2015-05-23T15:38:55Z</time>
      </trkpt>
      <trkpt lat="43.279717" lon="-4.219150">
        <ele>559.0</ele>
        <time>2015-05-23T15:38:56Z</time>
      </trkpt>
      <trkpt lat="43.279633" lon="-4.219233">
        <ele>559.0</ele>
        <time>2015-05-23T15:38:57Z</time>
      </trkpt>
      <trkpt lat="43.279550" lon="-4.219333">
        <ele>559.0</ele>
        <time>2015-05-23T15:38:58Z</time>
      </trkpt>
      <trkpt lat="43.279483" lon="-4.219450">
        <ele>559.0</ele>
        <time>2015-05-23T15:38:59Z</time>
      </trkpt>
      <trkpt lat="43.279483" lon="-4.219567">
        <ele>559.0</ele>
        <time>2015-05-23T15:39:00Z</time>
      </trkpt>
      <trkpt lat="43.279500" lon="-4.219667">
        <ele>557.0</ele>
        <time>2015-05-23T15:39:01Z</time>
      </trkpt>
      <trkpt lat="43.279533" lon="-4.219733">
        <ele>555.0</ele>
        <time>2015-05-23T15:39:02Z</time>
      </trkpt>
      <trkpt lat="43.279583" lon="-4.219750">
        <ele>552.0</ele>
        <time>2015-05-23T15:39:03Z</time>
      </trkpt>
      <trkpt lat="43.279600" lon="-4.219700">
        <ele>551.0</ele>
        <time>2015-05-23T15:39:04Z</time>
      </trkpt>
      <trkpt lat="43.279583" lon="-4.219600">
        <ele>551.0</ele>
        <time>2015-05-23T15:39:05Z</time>
      </trkpt>
      <trkpt lat="43.279567" lon="-4.219517">
        <ele>550.0</ele>
        <time>2015-05-23T15:39:06Z</time>
      </trkpt>
      <trkpt lat="43.279550" lon="-4.219450">
        <ele>552.0</ele>
        <time>2015-05-23T15:39:07Z</time>
      </trkpt>
      <trkpt lat="43.279550" lon="-4.219400">
        <ele>553.0</ele>
        <time>2015-05-23T15:39:08Z</time>
      </trkpt>
      <trkpt lat="43.279567" lon="-4.219383">
        <ele>553.0</ele>
        <time>2015-05-23T15:39:09Z</time>
      </trkpt>
      <trkpt lat="43.279600" lon="-4.219367">
        <ele>552.0</ele>
        <time>2015-05-23T15:39:10Z</time>
      </trkpt>
      <trkpt lat="43.279633" lon="-4.219350">
        <ele>551.0</ele>
        <time>2015-05-23T15:39:11Z</time>
      </trkpt>
      <trkpt lat="43.279667" lon="-4.219333">
        <ele>551.0</ele>
        <time>2015-05-23T15:39:12Z</time>
      </trkpt>
      <trkpt lat="43.279700" lon="-4.219300">
        <ele>551.0</ele>
        <time>2015-05-23T15:39:13Z</time>
      </trkpt>
      <trkpt lat="43.279750" lon="-4.219267">
        <ele>551.0</ele>
        <time>2015-05-23T15:39:14Z</time>
      </trkpt>
      <trkpt lat="43.279817" lon="-4.219250">
        <ele>551.0</ele>
        <time>2015-05-23T15:39:15Z</time>
      </trkpt>
      <trkpt lat="43.279883" lon="-4.219217">
        <ele>551.0</ele>
        <time>2015-05-23T15:39:16Z</time>
      </trkpt>
      <trkpt lat="43.279933" lon="-4.219183">
        <ele>551.0</ele>
        <time>2015-05-23T15:39:17Z</time>
      </trkpt>
      <trkpt lat="43.279967" lon="-4.219150">
        <ele>551.0</ele>
        <time>2015-05-23T15:39:18Z</time>
      </trkpt>
      <trkpt lat="43.280017" lon="-4.219117">
        <ele>551.0</ele>
        <time>2015-05-23T15:39:19Z</time>
      </trkpt>
      <trkpt lat="43.280083" lon="-4.219083">
        <ele>551.0</ele>
        <time>2015-05-23T15:39:20Z</time>
      </trkpt>
      <trkpt lat="43.280150" lon="-4.219050">
        <ele>551.0</ele>
        <time>2015-05-23T15:39:21Z</time>
      </trkpt>
      <trkpt lat="43.280217" lon="-4.219017">
        <ele>551.0</ele>
        <time>2015-05-23T15:39:22Z</time>
      </trkpt>
      <trkpt lat="43.280283" lon="-4.219000">
        <ele>551.0</ele>
        <time>2015-05-23T15:39:23Z</time>
      </trkpt>
      <trkpt lat="43.280317" lon="-4.218967">
        <ele>551.0</ele>
        <time>2015-05-23T15:39:24Z</time>
      </trkpt>
      <trkpt lat="43.280367" lon="-4.218933">
        <ele>552.0</ele>
        <time>2015-05-23T15:39:25Z</time>
      </trkpt>
      <trkpt lat="43.280433" lon="-4.218900">
        <ele>553.0</ele>
        <time>2015-05-23T15:39:26Z</time>
      </trkpt>
      <trkpt lat="43.280500" lon="-4.218867">
        <ele>554.0</ele>
        <time>2015-05-23T15:39:27Z</time>
      </trkpt>
      <trkpt lat="43.280550" lon="-4.218817">
        <ele>556.0</ele>
        <time>2015-05-23T15:39:28Z</time>
      </trkpt>
      <trkpt lat="43.280600" lon="-4.218767">
        <ele>559.0</ele>
        <time>2015-05-23T15:39:29Z</time>
      </trkpt>
      <trkpt lat="43.280633" lon="-4.218700">
        <ele>562.0</ele>
        <time>2015-05-23T15:39:30Z</time>
      </trkpt>
      <trkpt lat="43.280667" lon="-4.218633">
        <ele>565.0</ele>
        <time>2015-05-23T15:39:31Z</time>
      </trkpt>
      <trkpt lat="43.280700" lon="-4.218600">
        <ele>568.0</ele>
        <time>2015-05-23T15:39:32Z</time>
      </trkpt>
      <trkpt lat="43.280717" lon="-4.218583">
        <ele>572.0</ele>
        <time>2015-05-23T15:39:33Z</time>
      </trkpt>
      <trkpt lat="43.280733" lon="-4.218567">
        <ele>575.0</ele>
        <time>2015-05-23T15:39:34Z</time>
      </trkpt>
      <trkpt lat="43.280733" lon="-4.218550">
        <ele>577.0</ele>
        <time>2015-05-23T15:39:35Z</time>
      </trkpt>
      <trkpt lat="43.280767" lon="-4.218533">
        <ele>578.0</ele>
        <time>2015-05-23T15:39:36Z</time>
      </trkpt>
      <trkpt lat="43.280783" lon="-4.218533">
        <ele>578.0</ele>
        <time>2015-05-23T15:39:37Z</time>
      </trkpt>
      <trkpt lat="43.280817" lon="-4.218550">
        <ele>578.0</ele>
        <time>2015-05-23T15:39:38Z</time>
      </trkpt>
      <trkpt lat="43.280833" lon="-4.218600">
        <ele>579.0</ele>
        <time>2015-05-23T15:39:39Z</time>
      </trkpt>
      <trkpt lat="43.280833" lon="-4.218683">
        <ele>580.0</ele>
        <time>2015-05-23T15:39:40Z</time>
      </trkpt>
      <trkpt lat="43.280817" lon="-4.218750">
        <ele>581.0</ele>
        <time>2015-05-23T15:39:41Z</time>
      </trkpt>
      <trkpt lat="43.280800" lon="-4.218833">
        <ele>581.0</ele>
        <time>2015-05-23T15:39:42Z</time>
      </trkpt>
      <trkpt lat="43.280800" lon="-4.218933">
        <ele>581.0</ele>
        <time>2015-05-23T15:39:43Z</time>
      </trkpt>
      <trkpt lat="43.280817" lon="-4.219017">
        <ele>581.0</ele>
        <time>2015-05-23T15:39:44Z</time>
      </trkpt>
      <trkpt lat="43.280833" lon="-4.219117">
        <ele>581.0</ele>
        <time>2015-05-23T15:39:45Z</time>
      </trkpt>
      <trkpt lat="43.280833" lon="-4.219183">
        <ele>581.0</ele>
        <time>2015-05-23T15:39:46Z</time>
      </trkpt>
      <trkpt lat="43.280833" lon="-4.219267">
        <ele>581.0</ele>
        <time>2015-05-23T15:39:47Z</time>
      </trkpt>
      <trkpt lat="43.280833" lon="-4.219333">
        <ele>581.0</ele>
        <time>2015-05-23T15:39:48Z</time>
      </trkpt>
      <trkpt lat="43.280850" lon="-4.219417">
        <ele>581.0</ele>
        <time>2015-05-23T15:39:49Z</time>
      </trkpt>
      <trkpt lat="43.280850" lon="-4.219500">
        <ele>580.0</ele>
        <time>2015-05-23T15:39:50Z</time>
      </trkpt>
      <trkpt lat="43.280867" lon="-4.219600">
        <ele>579.0</ele>
        <time>2015-05-23T15:39:51Z</time>
      </trkpt>
      <trkpt lat="43.280867" lon="-4.219717">
        <ele>578.0</ele>
        <time>2015-05-23T15:39:52Z</time>
      </trkpt>
      <trkpt lat="43.280850" lon="-4.219817">
        <ele>579.0</ele>
        <time>2015-05-23T15:39:53Z</time>
      </trkpt>
      <trkpt lat="43.280850" lon="-4.219900">
        <ele>579.0</ele>
        <time>2015-05-23T15:39:54Z</time>
      </trkpt>
      <trkpt lat="43.280850" lon="-4.219983">
        <ele>579.0</ele>
        <time>2015-05-23T15:39:55Z</time>
      </trkpt>
      <trkpt lat="43.280850" lon="-4.220067">
        <ele>578.0</ele>
        <time>2015-05-23T15:39:56Z</time>
      </trkpt>
      <trkpt lat="43.280850" lon="-4.220167">
        <ele>578.0</ele>
        <time>2015-05-23T15:39:57Z</time>
      </trkpt>
      <trkpt lat="43.280867" lon="-4.220283">
        <ele>577.0</ele>
        <time>2015-05-23T15:39:58Z</time>
      </trkpt>
      <trkpt lat="43.280850" lon="-4.220383">
        <ele>577.0</ele>
        <time>2015-05-23T15:39:59Z</time>
      </trkpt>
      <trkpt lat="43.280850" lon="-4.220467">
        <ele>578.0</ele>
        <time>2015-05-23T15:40:00Z</time>
      </trkpt>
      <trkpt lat="43.280833" lon="-4.220550">
        <ele>578.0</ele>
        <time>2015-05-23T15:40:01Z</time>
      </trkpt>
      <trkpt lat="43.280817" lon="-4.220633">
        <ele>578.0</ele>
        <time>2015-05-23T15:40:02Z</time>
      </trkpt>
      <trkpt lat="43.280817" lon="-4.220733">
        <ele>577.0</ele>
        <time>2015-05-23T15:40:03Z</time>
      </trkpt>
      <trkpt lat="43.280817" lon="-4.220850">
        <ele>577.0</ele>
        <time>2015-05-23T15:40:04Z</time>
      </trkpt>
      <trkpt lat="43.280817" lon="-4.220950">
        <ele>577.0</ele>
        <time>2015-05-23T15:40:05Z</time>
      </trkpt>
      <trkpt lat="43.280800" lon="-4.221033">
        <ele>578.0</ele>
        <time>2015-05-23T15:40:06Z</time>
      </trkpt>
      <trkpt lat="43.280783" lon="-4.221133">
        <ele>579.0</ele>
        <time>2015-05-23T15:40:07Z</time>
      </trkpt>
      <trkpt lat="43.280783" lon="-4.221217">
        <ele>579.0</ele>
        <time>2015-05-23T15:40:08Z</time>
      </trkpt>
      <trkpt lat="43.280783" lon="-4.221300">
        <ele>580.0</ele>
        <time>2015-05-23T15:40:09Z</time>
      </trkpt>
      <trkpt lat="43.280783" lon="-4.221383">
        <ele>581.0</ele>
        <time>2015-05-23T15:40:10Z</time>
      </trkpt>
      <trkpt lat="43.280800" lon="-4.221483">
        <ele>582.0</ele>
        <time>2015-05-23T15:40:11Z</time>
      </trkpt>
      <trkpt lat="43.280800" lon="-4.221567">
        <ele>582.0</ele>
        <time>2015-05-23T15:40:12Z</time>
      </trkpt>
      <trkpt lat="43.280800" lon="-4.221650">
        <ele>583.0</ele>
        <time>2015-05-23T15:40:13Z</time>
      </trkpt>
      <trkpt lat="43.280800" lon="-4.221750">
        <ele>583.0</ele>
        <time>2015-05-23T15:40:14Z</time>
      </trkpt>
      <trkpt lat="43.280800" lon="-4.221867">
        <ele>584.0</ele>
        <time>2015-05-23T15:40:15Z</time>
      </trkpt>
      <trkpt lat="43.280800" lon="-4.221967">
        <ele>584.0</ele>
        <time>2015-05-23T15:40:16Z</time>
      </trkpt>
      <trkpt lat="43.280783" lon="-4.222067">
        <ele>584.0</ele>
        <time>2015-05-23T15:40:17Z</time>
      </trkpt>
      <trkpt lat="43.280783" lon="-4.222167">
        <ele>584.0</ele>
        <time>2015-05-23T15:40:18Z</time>
      </trkpt>
      <trkpt lat="43.280767" lon="-4.222267">
        <ele>585.0</ele>
        <time>2015-05-23T15:40:19Z</time>
      </trkpt>
      <trkpt lat="43.280750" lon="-4.222383">
        <ele>586.0</ele>
        <time>2015-05-23T15:40:20Z</time>
      </trkpt>
      <trkpt lat="43.280733" lon="-4.222500">
        <ele>586.0</ele>
        <time>2015-05-23T15:40:21Z</time>
      </trkpt>
      <trkpt lat="43.280717" lon="-4.222617">
        <ele>587.0</ele>
        <time>2015-05-23T15:40:22Z</time>
      </trkpt>
      <trkpt lat="43.280700" lon="-4.222750">
        <ele>587.0</ele>
        <time>2015-05-23T15:40:23Z</time>
      </trkpt>
      <trkpt lat="43.280683" lon="-4.222867">
        <ele>589.0</ele>
        <time>2015-05-23T15:40:24Z</time>
      </trkpt>
      <trkpt lat="43.280683" lon="-4.223000">
        <ele>589.0</ele>
        <time>2015-05-23T15:40:25Z</time>
      </trkpt>
      <trkpt lat="43.280667" lon="-4.223117">
        <ele>591.0</ele>
        <time>2015-05-23T15:40:26Z</time>
      </trkpt>
      <trkpt lat="43.280683" lon="-4.223217">
        <ele>592.0</ele>
        <time>2015-05-23T15:40:27Z</time>
      </trkpt>
      <trkpt lat="43.280683" lon="-4.223283">
        <ele>591.0</ele>
        <time>2015-05-23T15:40:28Z</time>
      </trkpt>
      <trkpt lat="43.280667" lon="-4.223367">
        <ele>592.0</ele>
        <time>2015-05-23T15:40:29Z</time>
      </trkpt>
      <trkpt lat="43.280650" lon="-4.223450">
        <ele>594.0</ele>
        <time>2015-05-23T15:40:30Z</time>
      </trkpt>
      <trkpt lat="43.280650" lon="-4.223517">
        <ele>597.0</ele>
        <time>2015-05-23T15:40:31Z</time>
      </trkpt>
      <trkpt lat="43.280667" lon="-4.223567">
        <ele>599.0</ele>
        <time>2015-05-23T15:40:32Z</time>
      </trkpt>
      <trkpt lat="43.280700" lon="-4.223600">
        <ele>601.0</ele>
        <time>2015-05-23T15:40:33Z</time>
      </trkpt>
      <trkpt lat="43.280750" lon="-4.223583">
        <ele>602.0</ele>
        <time>2015-05-23T15:40:34Z</time>
      </trkpt>
      <trkpt lat="43.280783" lon="-4.223533">
        <ele>603.0</ele>
        <time>2015-05-23T15:40:35Z</time>
      </trkpt>
      <trkpt lat="43.280783" lon="-4.223417">
        <ele>604.0</ele>
        <time>2015-05-23T15:40:36Z</time>
      </trkpt>
      <trkpt lat="43.280750" lon="-4.223300">
        <ele>605.0</ele>
        <time>2015-05-23T15:40:37Z</time>
      </trkpt>
      <trkpt lat="43.280667" lon="-4.223217">
        <ele>605.0</ele>
        <time>2015-05-23T15:40:38Z</time>
      </trkpt>
      <trkpt lat="43.280567" lon="-4.223167">
        <ele>607.0</ele>
        <time>2015-05-23T15:40:39Z</time>
      </trkpt>
      <trkpt lat="43.280467" lon="-4.223167">
        <ele>607.0</ele>
        <time>2015-05-23T15:40:40Z</time>
      </trkpt>
      <trkpt lat="43.280350" lon="-4.223200">
        <ele>609.0</ele>
        <time>2015-05-23T15:40:41Z</time>
      </trkpt>
      <trkpt lat="43.280267" lon="-4.223233">
        <ele>613.0</ele>
        <time>2015-05-23T15:40:42Z</time>
      </trkpt>
      <trkpt lat="43.280200" lon="-4.223250">
        <ele>615.0</ele>
        <time>2015-05-23T15:40:43Z</time>
      </trkpt>
      <trkpt lat="43.280117" lon="-4.223300">
        <ele>612.0</ele>
        <time>2015-05-23T15:40:44Z</time>
      </trkpt>
      <trkpt lat="43.280033" lon="-4.223383">
        <ele>613.0</ele>
        <time>2015-05-23T15:40:45Z</time>
      </trkpt>
      <trkpt lat="43.279967" lon="-4.223467">
        <ele>614.0</ele>
        <time>2015-05-23T15:40:46Z</time>
      </trkpt>
      <trkpt lat="43.279933" lon="-4.223583">
        <ele>615.0</ele>
        <time>2015-05-23T15:40:47Z</time>
      </trkpt>
      <trkpt lat="43.279900" lon="-4.223667">
        <ele>617.0</ele>
        <time>2015-05-23T15:40:48Z</time>
      </trkpt>
      <trkpt lat="43.279900" lon="-4.223733">
        <ele>619.0</ele>
        <time>2015-05-23T15:40:49Z</time>
      </trkpt>
      <trkpt lat="43.279900" lon="-4.223783">
        <ele>620.0</ele>
        <time>2015-05-23T15:40:50Z</time>
      </trkpt>
      <trkpt lat="43.279917" lon="-4.223817">
        <ele>622.0</ele>
        <time>2015-05-23T15:40:51Z</time>
      </trkpt>
      <trkpt lat="43.279933" lon="-4.223833">
        <ele>622.0</ele>
        <time>2015-05-23T15:40:52Z</time>
      </trkpt>
      <trkpt lat="43.279967" lon="-4.223833">
        <ele>623.0</ele>
        <time>2015-05-23T15:40:53Z</time>
      </trkpt>
      <trkpt lat="43.280000" lon="-4.223800">
        <ele>623.0</ele>
        <time>2015-05-23T15:40:54Z</time>
      </trkpt>
      <trkpt lat="43.280033" lon="-4.223750">
        <ele>623.0</ele>
        <time>2015-05-23T15:40:55Z</time>
      </trkpt>
      <trkpt lat="43.280100" lon="-4.223717">
        <ele>622.0</ele>
        <time>2015-05-23T15:40:56Z</time>
      </trkpt>
      <trkpt lat="43.280167" lon="-4.223683">
        <ele>621.0</ele>
        <time>2015-05-23T15:40:57Z</time>
      </trkpt>
      <trkpt lat="43.280233" lon="-4.223633">
        <ele>621.0</ele>
        <time>2015-05-23T15:40:58Z</time>
      </trkpt>
      <trkpt lat="43.280283" lon="-4.223567">
        <ele>623.0</ele>
        <time>2015-05-23T15:40:59Z</time>
      </trkpt>
      <trkpt lat="43.280350" lon="-4.223500">
        <ele>623.0</ele>
        <time>2015-05-23T15:41:00Z</time>
      </trkpt>
      <trkpt lat="43.280400" lon="-4.223450">
        <ele>624.0</ele>
        <time>2015-05-23T15:41:01Z</time>
      </trkpt>
      <trkpt lat="43.280433" lon="-4.223400">
        <ele>624.0</ele>
        <time>2015-05-23T15:41:02Z</time>
      </trkpt>
      <trkpt lat="43.280433" lon="-4.223350">
        <ele>624.0</ele>
        <time>2015-05-23T15:41:03Z</time>
      </trkpt>
      <trkpt lat="43.280450" lon="-4.223300">
        <ele>626.0</ele>
        <time>2015-05-23T15:41:04Z</time>
      </trkpt>
      <trkpt lat="43.280450" lon="-4.223250">
        <ele>627.0</ele>
        <time>2015-05-23T15:41:05Z</time>
      </trkpt>
      <trkpt lat="43.280467" lon="-4.223183">
        <ele>628.0</ele>
        <time>2015-05-23T15:41:06Z</time>
      </trkpt>
      <trkpt lat="43.280483" lon="-4.223133">
        <ele>629.0</ele>
        <time>2015-05-23T15:41:07Z</time>
      </trkpt>
      <trkpt lat="43.280517" lon="-4.223067">
        <ele>630.0</ele>
        <time>2015-05-23T15:41:08Z</time>
      </trkpt>
      <trkpt lat="43.280517" lon="-4.223000">
        <ele>632.0</ele>
        <time>2015-05-23T15:41:09Z</time>
      </trkpt>
      <trkpt lat="43.280533" lon="-4.222950">
        <ele>635.0</ele>
        <time>2015-05-23T15:41:10Z</time>
      </trkpt>
      <trkpt lat="43.280533" lon="-4.222883">
        <ele>638.0</ele>
        <time>2015-05-23T15:41:11Z</time>
      </trkpt>
      <trkpt lat="43.280550" lon="-4.222817">
        <ele>640.0</ele>
        <time>2015-05-23T15:41:12Z</time>
      </trkpt>
      <trkpt lat="43.280567" lon="-4.222767">
        <ele>642.0</ele>
        <time>2015-05-23T15:41:13Z</time>
      </trkpt>
      <trkpt lat="43.280600" lon="-4.222733">
        <ele>644.0</ele>
        <time>2015-05-23T15:41:14Z</time>
      </trkpt>
      <trkpt lat="43.280633" lon="-4.222700">
        <ele>646.0</ele>
        <time>2015-05-23T15:41:15Z</time>
      </trkpt>
      <trkpt lat="43.280650" lon="-4.222683">
        <ele>648.0</ele>
        <time>2015-05-23T15:41:16Z</time>
      </trkpt>
      <trkpt lat="43.280683" lon="-4.222683">
        <ele>650.0</ele>
        <time>2015-05-23T15:41:17Z</time>
      </trkpt>
      <trkpt lat="43.280683" lon="-4.222700">
        <ele>649.0</ele>
        <time>2015-05-23T15:41:18Z</time>
      </trkpt>
      <trkpt lat="43.280700" lon="-4.222733">
        <ele>650.0</ele>
        <time>2015-05-23T15:41:19Z</time>
      </trkpt>
      <trkpt lat="43.280717" lon="-4.222783">
        <ele>651.0</ele>
        <time>2015-05-23T15:41:20Z</time>
      </trkpt>
      <trkpt lat="43.280700" lon="-4.222850">
        <ele>653.0</ele>
        <time>2015-05-23T15:41:21Z</time>
      </trkpt>
      <trkpt lat="43.280683" lon="-4.222933">
        <ele>653.0</ele>
        <time>2015-05-23T15:41:22Z</time>
      </trkpt>
      <trkpt lat="43.280633" lon="-4.223033">
        <ele>654.0</ele>
        <time>2015-05-23T15:41:23Z</time>
      </trkpt>
      <trkpt lat="43.280583" lon="-4.223117">
        <ele>655.0</ele>
        <time>2015-05-23T15:41:24Z</time>
      </trkpt>
      <trkpt lat="43.280500" lon="-4.223183">
        <ele>655.0</ele>
        <time>2015-05-23T15:41:25Z</time>
      </trkpt>
      <trkpt lat="43.280417" lon="-4.223217">
        <ele>656.0</ele>
        <time>2015-05-23T15:41:26Z</time>
      </trkpt>
      <trkpt lat="43.280317" lon="-4.223250">
        <ele>656.0</ele>
        <time>2015-05-23T15:41:27Z</time>
      </trkpt>
      <trkpt lat="43.280233" lon="-4.223300">
        <ele>657.0</ele>
        <time>2015-05-23T15:41:28Z</time>
      </trkpt>
      <trkpt lat="43.280133" lon="-4.223333">
        <ele>657.0</ele>
        <time>2015-05-23T15:41:29Z</time>
      </trkpt>
      <trkpt lat="43.280033" lon="-4.223367">
        <ele>656.0</ele>
        <time>2015-05-23T15:41:30Z</time>
      </trkpt>
      <trkpt lat="43.279933" lon="-4.223383">
        <ele>654.0</ele>
        <time>2015-05-23T15:41:31Z</time>
      </trkpt>
      <trkpt lat="43.279817" lon="-4.223417">
        <ele>652.0</ele>
        <time>2015-05-23T15:41:32Z</time>
      </trkpt>
      <trkpt lat="43.279700" lon="-4.223467">
        <ele>650.0</ele>
        <time>2015-05-23T15:41:33Z</time>
      </trkpt>
      <trkpt lat="43.279600" lon="-4.223533">
        <ele>649.0</ele>
        <time>2015-05-23T15:41:34Z</time>
      </trkpt>
      <trkpt lat="43.279517" lon="-4.223600">
        <ele>649.0</ele>
        <time>2015-05-23T15:41:35Z</time>
      </trkpt>
      <trkpt lat="43.279433" lon="-4.223700">
        <ele>648.0</ele>
        <time>2015-05-23T15:41:36Z</time>
      </trkpt>
      <trkpt lat="43.279383" lon="-4.223800">
        <ele>648.0</ele>
        <time>2015-05-23T15:41:37Z</time>
      </trkpt>
      <trkpt lat="43.279350" lon="-4.223900">
        <ele>647.0</ele>
        <time>2015-05-23T15:41:38Z</time>
      </trkpt>
      <trkpt lat="43.279333" lon="-4.224000">
        <ele>646.0</ele>
        <time>2015-05-23T15:41:39Z</time>
      </trkpt>
      <trkpt lat="43.279333" lon="-4.224083">
        <ele>646.0</ele>
        <time>2015-05-23T15:41:40Z</time>
      </trkpt>
      <trkpt lat="43.279350" lon="-4.224133">
        <ele>645.0</ele>
        <time>2015-05-23T15:41:41Z</time>
      </trkpt>
      <trkpt lat="43.279367" lon="-4.224183">
        <ele>643.0</ele>
        <time>2015-05-23T15:41:42Z</time>
      </trkpt>
      <trkpt lat="43.279383" lon="-4.224233">
        <ele>641.0</ele>
        <time>2015-05-23T15:41:43Z</time>
      </trkpt>
      <trkpt lat="43.279417" lon="-4.224283">
        <ele>638.0</ele>
        <time>2015-05-23T15:41:44Z</time>
      </trkpt>
      <trkpt lat="43.279483" lon="-4.224317">
        <ele>636.0</ele>
        <time>2015-05-23T15:41:45Z</time>
      </trkpt>
      <trkpt lat="43.279533" lon="-4.224317">
        <ele>633.0</ele>
        <time>2015-05-23T15:41:46Z</time>
      </trkpt>
      <trkpt lat="43.279583" lon="-4.224317">
        <ele>632.0</ele>
        <time>2015-05-23T15:41:47Z</time>
      </trkpt>
      <trkpt lat="43.279617" lon="-4.224283">
        <ele>630.0</ele>
        <time>2015-05-23T15:41:48Z</time>
      </trkpt>
      <trkpt lat="43.279650" lon="-4.224267">
        <ele>629.0</ele>
        <time>2015-05-23T15:41:49Z</time>
      </trkpt>
      <trkpt lat="43.279700" lon="-4.224250">
        <ele>628.0</ele>
        <time>2015-05-23T15:41:50Z</time>
      </trkpt>
      <trkpt lat="43.279733" lon="-4.224217">
        <ele>626.0</ele>
        <time>2015-05-23T15:41:51Z</time>
      </trkpt>
      <trkpt lat="43.279767" lon="-4.224167">
        <ele>624.0</ele>
        <time>2015-05-23T15:41:52Z</time>
      </trkpt>
      <trkpt lat="43.279800" lon="-4.224100">
        <ele>623.0</ele>
        <time>2015-05-23T15:41:53Z</time>
      </trkpt>
      <trkpt lat="43.279850" lon="-4.224033">
        <ele>621.0</ele>
        <time>2015-05-23T15:41:54Z</time>
      </trkpt>
      <trkpt lat="43.279883" lon="-4.223967">
        <ele>624.0</ele>
        <time>2015-05-23T15:41:55Z</time>
      </trkpt>
      <trkpt lat="43.279917" lon="-4.223900">
        <ele>624.0</ele>
        <time>2015-05-23T15:41:56Z</time>
      </trkpt>
      <trkpt lat="43.279933" lon="-4.223833">
        <ele>624.0</ele>
        <time>2015-05-23T15:41:57Z</time>
      </trkpt>
      <trkpt lat="43.279967" lon="-4.223767">
        <ele>623.0</ele>
        <time>2015-05-23T15:41:58Z</time>
      </trkpt>
      <trkpt lat="43.280000" lon="-4.223683">
        <ele>621.0</ele>
        <time>2015-05-23T15:41:59Z</time>
      </trkpt>
      <trkpt lat="43.280050" lon="-4.223617">
        <ele>618.0</ele>
        <time>2015-05-23T15:42:00Z</time>
      </trkpt>
      <trkpt lat="43.280100" lon="-4.223533">
        <ele>616.0</ele>
        <time>2015-05-23T15:42:01Z</time>
      </trkpt>
      <trkpt lat="43.280133" lon="-4.223450">
        <ele>615.0</ele>
        <time>2015-05-23T15:42:02Z</time>
      </trkpt>
      <trkpt lat="43.280167" lon="-4.223383">
        <ele>616.0</ele>
        <time>2015-05-23T15:42:03Z</time>
      </trkpt>
      <trkpt lat="43.280183" lon="-4.223300">
        <ele>615.0</ele>
        <time>2015-05-23T15:42:04Z</time>
      </trkpt>
      <trkpt lat="43.280183" lon="-4.223233">
        <ele>615.0</ele>
        <time>2015-05-23T15:42:05Z</time>
      </trkpt>
      <trkpt lat="43.280217" lon="-4.223133">
        <ele>614.0</ele>
        <time>2015-05-23T15:42:06Z</time>
      </trkpt>
      <trkpt lat="43.280233" lon="-4.223033">
        <ele>614.0</ele>
        <time>2015-05-23T15:42:07Z</time>
      </trkpt>
      <trkpt lat="43.280283" lon="-4.222933">
        <ele>613.0</ele>
        <time>2015-05-23T15:42:08Z</time>
      </trkpt>
      <trkpt lat="43.280333" lon="-4.222867">
        <ele>613.0</ele>
        <time>2015-05-23T15:42:09Z</time>
      </trkpt>
      <trkpt lat="43.280367" lon="-4.222800">
        <ele>613.0</ele>
        <time>2015-05-23T15:42:10Z</time>
      </trkpt>
      <trkpt lat="43.280383" lon="-4.222750">
        <ele>614.0</ele>
        <time>2015-05-23T15:42:11Z</time>
      </trkpt>
      <trkpt lat="43.280417" lon="-4.222683">
        <ele>614.0</ele>
        <time>2015-05-23T15:42:12Z</time>
      </trkpt>
      <trkpt lat="43.280450" lon="-4.222633">
        <ele>614.0</ele>
        <time>2015-05-23T15:42:13Z</time>
      </trkpt>
      <trkpt lat="43.280500" lon="-4.222583">
        <ele>614.0</ele>
        <time>2015-05-23T15:42:14Z</time>
      </trkpt>
      <trkpt lat="43.280550" lon="-4.222550">
        <ele>614.0</ele>
        <time>2015-05-23T15:42:15Z</time>
      </trkpt>
      <trkpt lat="43.280600" lon="-4.222533">
        <ele>614.0</ele>
        <time>2015-05-23T15:42:16Z</time>
      </trkpt>
      <trkpt lat="43.280633" lon="-4.222500">
        <ele>614.0</ele>
        <time>2015-05-23T15:42:17Z</time>
      </trkpt>
      <trkpt lat="43.280667" lon="-4.222483">
        <ele>616.0</ele>
        <time>2015-05-23T15:42:18Z</time>
      </trkpt>
      <trkpt lat="43.280700" lon="-4.222450">
        <ele>617.0</ele>
        <time>2015-05-23T15:42:19Z</time>
      </trkpt>
      <trkpt lat="43.280733" lon="-4.222433">
        <ele>617.0</ele>
        <time>2015-05-23T15:42:20Z</time>
      </trkpt>
      <trkpt lat="43.280767" lon="-4.222400">
        <ele>617.0</ele>
        <time>2015-05-23T15:42:21Z</time>
      </trkpt>
      <trkpt lat="43.280817" lon="-4.222383">
        <ele>617.0</ele>
        <time>2015-05-23T15:42:22Z</time>
      </trkpt>
      <trkpt lat="43.280850" lon="-4.222367">
        <ele>618.0</ele>
        <time>2015-05-23T15:42:23Z</time>
      </trkpt>
      <trkpt lat="43.280883" lon="-4.222350">
        <ele>619.0</ele>
        <time>2015-05-23T15:42:24Z</time>
      </trkpt>
      <trkpt lat="43.280917" lon="-4.222350">
        <ele>621.0</ele>
        <time>2015-05-23T15:42:25Z</time>
      </trkpt>
      <trkpt lat="43.280933" lon="-4.222333">
        <ele>620.0</ele>
        <time>2015-05-23T15:42:26Z</time>
      </trkpt>
      <trkpt lat="43.280967" lon="-4.222317">
        <ele>621.0</ele>
        <time>2015-05-23T15:42:27Z</time>
      </trkpt>
      <trkpt lat="43.281017" lon="-4.222300">
        <ele>621.0</ele>
        <time>2015-05-23T15:42:28Z</time>
      </trkpt>
      <trkpt lat="43.281050" lon="-4.222283">
        <ele>622.0</ele>
        <time>2015-05-23T15:42:29Z</time>
      </trkpt>
      <trkpt lat="43.281083" lon="-4.222267">
        <ele>623.0</ele>
        <time>2015-05-23T15:42:30Z</time>
      </trkpt>
      <trkpt lat="43.281100" lon="-4.222250">
        <ele>623.0</ele>
        <time>2015-05-23T15:42:31Z</time>
      </trkpt>
      <trkpt lat="43.281117" lon="-4.222250">
        <ele>623.0</ele>
        <time>2015-05-23T15:42:32Z</time>
      </trkpt>
      <trkpt lat="43.281133" lon="-4.222267">
        <ele>623.0</ele>
        <time>2015-05-23T15:42:33Z</time>
      </trkpt>
      <trkpt lat="43.281167" lon="-4.222283">
        <ele>624.0</ele>
        <time>2015-05-23T15:42:34Z</time>
      </trkpt>
      <trkpt lat="43.281200" lon="-4.222300">
        <ele>624.0</ele>
        <time>2015-05-23T15:42:35Z</time>
      </trkpt>
      <trkpt lat="43.281233" lon="-4.222317">
        <ele>626.0</ele>
        <time>2015-05-23T15:42:36Z</time>
      </trkpt>
      <trkpt lat="43.281250" lon="-4.222350">
        <ele>628.0</ele>
        <time>2015-05-23T15:42:37Z</time>
      </trkpt>
      <trkpt lat="43.281267" lon="-4.222367">
        <ele>630.0</ele>
        <time>2015-05-23T15:42:38Z</time>
      </trkpt>
      <trkpt lat="43.281283" lon="-4.222400">
        <ele>629.0</ele>
        <time>2015-05-23T15:42:39Z</time>
      </trkpt>
      <trkpt lat="43.281317" lon="-4.222433">
        <ele>630.0</ele>
        <time>2015-05-23T15:42:40Z</time>
      </trkpt>
      <trkpt lat="43.281350" lon="-4.222483">
        <ele>631.0</ele>
        <time>2015-05-23T15:42:41Z</time>
      </trkpt>
      <trkpt lat="43.281367" lon="-4.222533">
        <ele>632.0</ele>
        <time>2015-05-23T15:42:42Z</time>
      </trkpt>
      <trkpt lat="43.281383" lon="-4.222600">
        <ele>633.0</ele>
        <time>2015-05-23T15:42:43Z</time>
      </trkpt>
      <trkpt lat="43.281383" lon="-4.222667">
        <ele>634.0</ele>
        <time>2015-05-23T15:42:44Z</time>
      </trkpt>
      <trkpt lat="43.281383" lon="-4.222733">
        <ele>634.0</ele>
        <time>2015-05-23T15:42:45Z</time>
      </trkpt>
      <trkpt lat="43.281367" lon="-4.222800">
        <ele>634.0</ele>
        <time>2015-05-23T15:42:46Z</time>
      </trkpt>
      <trkpt lat="43.281350" lon="-4.222883">
        <ele>635.0</ele>
        <time>2015-05-23T15:42:47Z</time>
      </trkpt>
      <trkpt lat="43.281317" lon="-4.222967">
        <ele>635.0</ele>
        <time>2015-05-23T15:42:48Z</time>
      </trkpt>
      <trkpt lat="43.281250" lon="-4.223033">
        <ele>635.0</ele>
        <time>2015-05-23T15:42:49Z</time>
      </trkpt>
      <trkpt lat="43.281183" lon="-4.223117">
        <ele>635.0</ele>
        <time>2015-05-23T15:42:50Z</time>
      </trkpt>
      <trkpt lat="43.281100" lon="-4.223167">
        <ele>635.0</ele>
        <time>2015-05-23T15:42:51Z</time>
      </trkpt>
      <trkpt lat="43.281017" lon="-4.223200">
        <ele>635.0</ele>
        <time>2015-05-23T15:42:52Z</time>
      </trkpt>
      <trkpt lat="43.280917" lon="-4.223217">
        <ele>635.0</ele>
        <time>2015-05-23T15:42:53Z</time>
      </trkpt>
      <trkpt lat="43.280800" lon="-4.223200">
        <ele>635.0</ele>
        <time>2015-05-23T15:42:54Z</time>
      </trkpt>
      <trkpt lat="43.280700" lon="-4.223150">
        <ele>634.0</ele>
        <time>2015-05-23T15:42:55Z</time>
      </trkpt>
      <trkpt lat="43.280617" lon="-4.223067">
        <ele>634.0</ele>
        <time>2015-05-23T15:42:56Z</time>
      </trkpt>
      <trkpt lat="43.280533" lon="-4.222983">
        <ele>633.0</ele>
        <time>2015-05-23T15:42:57Z</time>
      </trkpt>
      <trkpt lat="43.280467" lon="-4.222883">
        <ele>633.0</ele>
        <time>2015-05-23T15:42:58Z</time>
      </trkpt>
      <trkpt lat="43.280433" lon="-4.222767">
        <ele>633.0</ele>
        <time>2015-05-23T15:42:59Z</time>
      </trkpt>
      <trkpt lat="43.280417" lon="-4.222650">
        <ele>632.0</ele>
        <time>2015-05-23T15:43:00Z</time>
      </trkpt>
      <trkpt lat="43.280417" lon="-4.222550">
        <ele>632.0</ele>
        <time>2015-05-23T15:43:01Z</time>
      </trkpt>
      <trkpt lat="43.280433" lon="-4.222467">
        <ele>632.0</ele>
        <time>2015-05-23T15:43:02Z</time>
      </trkpt>
      <trkpt lat="43.280450" lon="-4.222383">
        <ele>632.0</ele>
        <time>2015-05-23T15:43:03Z</time>
      </trkpt>
      <trkpt lat="43.280483" lon="-4.222317">
        <ele>633.0</ele>
        <time>2015-05-23T15:43:04Z</time>
      </trkpt>
      <trkpt lat="43.280500" lon="-4.222250">
        <ele>633.0</ele>
        <time>2015-05-23T15:43:05Z</time>
      </trkpt>
      <trkpt lat="43.280533" lon="-4.222167">
        <ele>634.0</ele>
        <time>2015-05-23T15:43:06Z</time>
      </trkpt>
      <trkpt lat="43.280550" lon="-4.222100">
        <ele>634.0</ele>
        <time>2015-05-23T15:43:07Z</time>
      </trkpt>
      <trkpt lat="43.280583" lon="-4.222017">
        <ele>634.0</ele>
        <time>2015-05-23T15:43:08Z</time>
      </trkpt>
      <trkpt lat="43.280617" lon="-4.221950">
        <ele>634.0</ele>
        <time>2015-05-23T15:43:09Z</time>
      </trkpt>
      <trkpt lat="43.280650" lon="-4.221867">
        <ele>634.0</ele>
        <time>2015-05-23T15:43:10Z</time>
      </trkpt>
      <trkpt lat="43.280700" lon="-4.221800">
        <ele>633.0</ele>
        <time>2015-05-23T15:43:11Z</time>
      </trkpt>
      <trkpt lat="43.280750" lon="-4.221733">
        <ele>634.0</ele>
        <time>2015-05-23T15:43:12Z</time>
      </trkpt>
      <trkpt lat="43.280800" lon="-4.221667">
        <ele>634.0</ele>
        <time>2015-05-23T15:43:13Z</time>
      </trkpt>
      <trkpt lat="43.280850" lon="-4.221633">
        <ele>635.0</ele>
        <time>2015-05-23T15:43:14Z</time>
      </trkpt>
      <trkpt lat="43.280883" lon="-4.221583">
        <ele>635.0</ele>
        <time>2015-05-23T15:43:15Z</time>
      </trkpt>
      <trkpt lat="43.280933" lon="-4.221533">
        <ele>636.0</ele>
        <time>2015-05-23T15:43:16Z</time>
      </trkpt>
      <trkpt lat="43.280967" lon="-4.221483">
        <ele>635.0</ele>
        <time>2015-05-23T15:43:17Z</time>
      </trkpt>
      <trkpt lat="43.281000" lon="-4.221433">
        <ele>635.0</ele>
        <time>2015-05-23T15:43:18Z</time>
      </trkpt>
      <trkpt lat="43.281050" lon="-4.221400">
        <ele>635.0</ele>
        <time>2015-05-23T15:43:19Z</time>
      </trkpt>
      <trkpt lat="43.281117" lon="-4.221350">
        <ele>634.0</ele>
        <time>2015-05-23T15:43:20Z</time>
      </trkpt>
      <trkpt lat="43.281167" lon="-4.221317">
        <ele>634.0</ele>
        <time>2015-05-23T15:43:21Z</time>
      </trkpt>
      <trkpt lat="43.281233" lon="-4.221283">
        <ele>634.0</ele>
        <time>2015-05-23T15:43:22Z</time>
      </trkpt>
      <trkpt lat="43.281283" lon="-4.221267">
        <ele>634.0</ele>
        <time>2015-05-23T15:43:23Z</time>
      </trkpt>
      <trkpt lat="43.281350" lon="-4.221250">
        <ele>634.0</ele>
        <time>2015-05-23T15:43:24Z</time>
      </trkpt>
      <trkpt lat="43.281400" lon="-4.221233">
        <ele>633.0</ele>
        <time>2015-05-23T15:43:25Z</time>
      </trkpt>
      <trkpt lat="43.281450" lon="-4.221217">
        <ele>633.0</ele>
        <time>2015-05-23T15:43:26Z</time>
      </trkpt>
      <trkpt lat="43.281517" lon="-4.221183">
        <ele>633.0</ele>
        <time>2015-05-23T15:43:27Z</time>
      </trkpt>
      <trkpt lat="43.281583" lon="-4.221183">
        <ele>633.0</ele>
        <time>2015-05-23T15:43:28Z</time>
      </trkpt>
      <trkpt lat="43.281633" lon="-4.221183">
        <ele>633.0</ele>
        <time>2015-05-23T15:43:29Z</time>
      </trkpt>
      <trkpt lat="43.281700" lon="-4.221183">
        <ele>633.0</ele>
        <time>2015-05-23T15:43:30Z</time>
      </trkpt>
      <trkpt lat="43.281767" lon="-4.221183">
        <ele>633.0</ele>
        <time>2015-05-23T15:43:31Z</time>
      </trkpt>
      <trkpt lat="43.281817" lon="-4.221167">
        <ele>633.0</ele>
        <time>2015-05-23T15:43:32Z</time>
      </trkpt>
      <trkpt lat="43.281867" lon="-4.221133">
        <ele>633.0</ele>
        <time>2015-05-23T15:43:33Z</time>
      </trkpt>
      <trkpt lat="43.281917" lon="-4.221117">
        <ele>633.0</ele>
        <time>2015-05-23T15:43:34Z</time>
      </trkpt>
      <trkpt lat="43.281967" lon="-4.221100">
        <ele>633.0</ele>
        <time>2015-05-23T15:43:35Z</time>
      </trkpt>
      <trkpt lat="43.282017" lon="-4.221083">
        <ele>633.0</ele>
        <time>2015-05-23T15:43:36Z</time>
      </trkpt>
      <trkpt lat="43.282083" lon="-4.221067">
        <ele>632.0</ele>
        <time>2015-05-23T15:43:37Z</time>
      </trkpt>
      <trkpt lat="43.282133" lon="-4.221050">
        <ele>632.0</ele>
        <time>2015-05-23T15:43:38Z</time>
      </trkpt>
      <trkpt lat="43.282183" lon="-4.221050">
        <ele>632.0</ele>
        <time>2015-05-23T15:43:39Z</time>
      </trkpt>
      <trkpt lat="43.282233" lon="-4.221050">
        <ele>634.0</ele>
        <time>2015-05-23T15:43:40Z</time>
      </trkpt>
      <trkpt lat="43.282267" lon="-4.221050">
        <ele>634.0</ele>
        <time>2015-05-23T15:43:41Z</time>
      </trkpt>
      <trkpt lat="43.282317" lon="-4.221050">
        <ele>635.0</ele>
        <time>2015-05-23T15:43:42Z</time>
      </trkpt>
      <trkpt lat="43.282367" lon="-4.221033">
        <ele>634.0</ele>
        <time>2015-05-23T15:43:43Z</time>
      </trkpt>
      <trkpt lat="43.282417" lon="-4.221000">
        <ele>634.0</ele>
        <time>2015-05-23T15:43:44Z</time>
      </trkpt>
      <trkpt lat="43.282467" lon="-4.220983">
        <ele>634.0</ele>
        <time>2015-05-23T15:43:45Z</time>
      </trkpt>
      <trkpt lat="43.282500" lon="-4.220967">
        <ele>635.0</ele>
        <time>2015-05-23T15:43:46Z</time>
      </trkpt>
      <trkpt lat="43.282550" lon="-4.220967">
        <ele>636.0</ele>
        <time>2015-05-23T15:43:47Z</time>
      </trkpt>
      <trkpt lat="43.282583" lon="-4.220967">
        <ele>636.0</ele>
        <time>2015-05-23T15:43:48Z</time>
      </trkpt>
      <trkpt lat="43.282650" lon="-4.220950">
        <ele>636.0</ele>
        <time>2015-05-23T15:43:49Z</time>
      </trkpt>
      <trkpt lat="43.282717" lon="-4.220933">
        <ele>635.0</ele>
        <time>2015-05-23T15:43:50Z</time>
      </trkpt>
      <trkpt lat="43.282767" lon="-4.220950">
        <ele>636.0</ele>
        <time>2015-05-23T15:43:51Z</time>
      </trkpt>
      <trkpt lat="43.282817" lon="-4.220983">
        <ele>638.0</ele>
        <time>2015-05-23T15:43:52Z</time>
      </trkpt>
      <trkpt lat="43.282867" lon="-4.220983">
        <ele>639.0</ele>
        <time>2015-05-23T15:43:53Z</time>
      </trkpt>
      <trkpt lat="43.282900" lon="-4.220967">
        <ele>641.0</ele>
        <time>2015-05-23T15:43:54Z</time>
      </trkpt>
      <trkpt lat="43.282933" lon="-4.220950">
        <ele>643.0</ele>
        <time>2015-05-23T15:43:55Z</time>
      </trkpt>
      <trkpt lat="43.282950" lon="-4.220933">
        <ele>644.0</ele>
        <time>2015-05-23T15:43:56Z</time>
      </trkpt>
      <trkpt lat="43.282967" lon="-4.220933">
        <ele>645.0</ele>
        <time>2015-05-23T15:43:57Z</time>
      </trkpt>
      <trkpt lat="43.283000" lon="-4.220967">
        <ele>645.0</ele>
        <time>2015-05-23T15:43:58Z</time>
      </trkpt>
      <trkpt lat="43.283017" lon="-4.221000">
        <ele>645.0</ele>
        <time>2015-05-23T15:43:59Z</time>
      </trkpt>
      <trkpt lat="43.283033" lon="-4.221017">
        <ele>647.0</ele>
        <time>2015-05-23T15:44:00Z</time>
      </trkpt>
      <trkpt lat="43.283050" lon="-4.221033">
        <ele>648.0</ele>
        <time>2015-05-23T15:44:01Z</time>
      </trkpt>
      <trkpt lat="43.283050" lon="-4.221050">
        <ele>649.0</ele>
        <time>2015-05-23T15:44:02Z</time>
      </trkpt>
      <trkpt lat="43.283050" lon="-4.221050">
        <ele>650.0</ele>
        <time>2015-05-23T15:44:03Z</time>
      </trkpt>
      <trkpt lat="43.283067" lon="-4.221083">
        <ele>648.0</ele>
        <time>2015-05-23T15:44:04Z</time>
      </trkpt>
      <trkpt lat="43.283100" lon="-4.221117">
        <ele>648.0</ele>
        <time>2015-05-23T15:44:05Z</time>
      </trkpt>
      <trkpt lat="43.283150" lon="-4.221150">
        <ele>646.0</ele>
        <time>2015-05-23T15:44:06Z</time>
      </trkpt>
      <trkpt lat="43.283183" lon="-4.221167">
        <ele>647.0</ele>
        <time>2015-05-23T15:44:07Z</time>
      </trkpt>
      <trkpt lat="43.283233" lon="-4.221167">
        <ele>648.0</ele>
        <time>2015-05-23T15:44:08Z</time>
      </trkpt>
      <trkpt lat="43.283250" lon="-4.221150">
        <ele>648.0</ele>
        <time>2015-05-23T15:44:09Z</time>
      </trkpt>
      <trkpt lat="43.283283" lon="-4.221117">
        <ele>649.0</ele>
        <time>2015-05-23T15:44:10Z</time>
      </trkpt>
      <trkpt lat="43.283300" lon="-4.221117">
        <ele>649.0</ele>
        <time>2015-05-23T15:44:11Z</time>
      </trkpt>
      <trkpt lat="43.283333" lon="-4.221100">
        <ele>649.0</ele>
        <time>2015-05-23T15:44:12Z</time>
      </trkpt>
      <trkpt lat="43.283367" lon="-4.221067">
        <ele>649.0</ele>
        <time>2015-05-23T15:44:13Z</time>
      </trkpt>
      <trkpt lat="43.283400" lon="-4.221017">
        <ele>649.0</ele>
        <time>2015-05-23T15:44:14Z</time>
      </trkpt>
      <trkpt lat="43.283433" lon="-4.220983">
        <ele>649.0</ele>
        <time>2015-05-23T15:44:15Z</time>
      </trkpt>
      <trkpt lat="43.283467" lon="-4.220950">
        <ele>649.0</ele>
        <time>2015-05-23T15:44:16Z</time>
      </trkpt>
      <trkpt lat="43.283500" lon="-4.220917">
        <ele>649.0</ele>
        <time>2015-05-23T15:44:17Z</time>
      </trkpt>
      <trkpt lat="43.283517" lon="-4.220883">
        <ele>649.0</ele>
        <time>2015-05-23T15:44:18Z</time>
      </trkpt>
      <trkpt lat="43.283517" lon="-4.220833">
        <ele>650.0</ele>
        <time>2015-05-23T15:44:19Z</time>
      </trkpt>
      <trkpt lat="43.283533" lon="-4.220783">
        <ele>651.0</ele>
        <time>2015-05-23T15:44:20Z</time>
      </trkpt>
      <trkpt lat="43.283567" lon="-4.220750">
        <ele>651.0</ele>
        <time>2015-05-23T15:44:21Z</time>
      </trkpt>
      <trkpt lat="43.283583" lon="-4.220733">
        <ele>653.0</ele>
        <time>2015-05-23T15:44:22Z</time>
      </trkpt>
      <trkpt lat="43.283600" lon="-4.220717">
        <ele>654.0</ele>
        <time>2015-05-23T15:44:23Z</time>
      </trkpt>
      <trkpt lat="43.283600" lon="-4.220700">
        <ele>655.0</ele>
        <time>2015-05-23T15:44:24Z</time>
      </trkpt>
      <trkpt lat="43.283633" lon="-4.220700">
        <ele>655.0</ele>
        <time>2015-05-23T15:44:25Z</time>
      </trkpt>
      <trkpt lat="43.283650" lon="-4.220700">
        <ele>656.0</ele>
        <time>2015-05-23T15:44:26Z</time>
      </trkpt>
      <trkpt lat="43.283683" lon="-4.220700">
        <ele>656.0</ele>
        <time>2015-05-23T15:44:27Z</time>
      </trkpt>
      <trkpt lat="43.283717" lon="-4.220733">
        <ele>657.0</ele>
        <time>2015-05-23T15:44:28Z</time>
      </trkpt>
      <trkpt lat="43.283733" lon="-4.220783">
        <ele>658.0</ele>
        <time>2015-05-23T15:44:29Z</time>
      </trkpt>
      <trkpt lat="43.283750" lon="-4.220833">
        <ele>660.0</ele>
        <time>2015-05-23T15:44:30Z</time>
      </trkpt>
      <trkpt lat="43.283767" lon="-4.220883">
        <ele>662.0</ele>
        <time>2015-05-23T15:44:31Z</time>
      </trkpt>
      <trkpt lat="43.283767" lon="-4.220933">
        <ele>664.0</ele>
        <time>2015-05-23T15:44:32Z</time>
      </trkpt>
      <trkpt lat="43.283783" lon="-4.221000">
        <ele>666.0</ele>
        <time>2015-05-23T15:44:33Z</time>
      </trkpt>
      <trkpt lat="43.283783" lon="-4.221050">
        <ele>667.0</ele>
        <time>2015-05-23T15:44:34Z</time>
      </trkpt>
      <trkpt lat="43.283800" lon="-4.221117">
        <ele>667.0</ele>
        <time>2015-05-23T15:44:35Z</time>
      </trkpt>
      <trkpt lat="43.283800" lon="-4.221183">
        <ele>668.0</ele>
        <time>2015-05-23T15:44:36Z</time>
      </trkpt>
      <trkpt lat="43.283800" lon="-4.221250">
        <ele>669.0</ele>
        <time>2015-05-23T15:44:37Z</time>
      </trkpt>
      <trkpt lat="43.283767" lon="-4.221350">
        <ele>670.0</ele>
        <time>2015-05-23T15:44:38Z</time>
      </trkpt>
      <trkpt lat="43.283733" lon="-4.221433">
        <ele>670.0</ele>
        <time>2015-05-23T15:44:39Z</time>
      </trkpt>
      <trkpt lat="43.283700" lon="-4.221517">
        <ele>671.0</ele>
        <time>2015-05-23T15:44:40Z</time>
      </trkpt>
      <trkpt lat="43.283650" lon="-4.221600">
        <ele>672.0</ele>
        <time>2015-05-23T15:44:41Z</time>
      </trkpt>
      <trkpt lat="43.283617" lon="-4.221667">
        <ele>672.0</ele>
        <time>2015-05-23T15:44:42Z</time>
      </trkpt>
      <trkpt lat="43.283567" lon="-4.221750">
        <ele>673.0</ele>
        <time>2015-05-23T15:44:43Z</time>
      </trkpt>
      <trkpt lat="43.283517" lon="-4.221817">
        <ele>673.0</ele>
        <time>2015-05-23T15:44:44Z</time>
      </trkpt>
      <trkpt lat="43.283467" lon="-4.221883">
        <ele>674.0</ele>
        <time>2015-05-23T15:44:45Z</time>
      </trkpt>
      <trkpt lat="43.283383" lon="-4.221933">
        <ele>674.0</ele>
        <time>2015-05-23T15:44:46Z</time>
      </trkpt>
      <trkpt lat="43.283300" lon="-4.221983">
        <ele>675.0</ele>
        <time>2015-05-23T15:44:47Z</time>
      </trkpt>
      <trkpt lat="43.283200" lon="-4.222017">
        <ele>675.0</ele>
        <time>2015-05-23T15:44:48Z</time>
      </trkpt>
      <trkpt lat="43.283100" lon="-4.222017">
        <ele>676.0</ele>
        <time>2015-05-23T15:44:49Z</time>
      </trkpt>
      <trkpt lat="43.283000" lon="-4.222017">
        <ele>677.0</ele>
        <time>2015-05-23T15:44:50Z</time>
      </trkpt>
      <trkpt lat="43.282900" lon="-4.221967">
        <ele>676.0</ele>
        <time>2015-05-23T15:44:51Z</time>
      </trkpt>
      <trkpt lat="43.282800" lon="-4.221933">
        <ele>676.0</ele>
        <time>2015-05-23T15:44:52Z</time>
      </trkpt>
      <trkpt lat="43.282700" lon="-4.221867">
        <ele>675.0</ele>
        <time>2015-05-23T15:44:53Z</time>
      </trkpt>
      <trkpt lat="43.282617" lon="-4.221767">
        <ele>674.0</ele>
        <time>2015-05-23T15:44:54Z</time>
      </trkpt>
      <trkpt lat="43.282567" lon="-4.221650">
        <ele>673.0</ele>
        <time>2015-05-23T15:44:55Z</time>
      </trkpt>
      <trkpt lat="43.282567" lon="-4.221517">
        <ele>672.0</ele>
        <time>2015-05-23T15:44:56Z</time>
      </trkpt>
      <trkpt lat="43.282583" lon="-4.221383">
        <ele>671.0</ele>
        <time>2015-05-23T15:44:57Z</time>
      </trkpt>
      <trkpt lat="43.282600" lon="-4.221283">
        <ele>671.0</ele>
        <time>2015-05-23T15:44:58Z</time>
      </trkpt>
      <trkpt lat="43.282600" lon="-4.221183">
        <ele>672.0</ele>
        <time>2015-05-23T15:44:59Z</time>
      </trkpt>
      <trkpt lat="43.282583" lon="-4.221100">
        <ele>674.0</ele>
        <time>2015-05-23T15:45:00Z</time>
      </trkpt>
      <trkpt lat="43.282567" lon="-4.221000">
        <ele>674.0</ele>
        <time>2015-05-23T15:45:01Z</time>
      </trkpt>
      <trkpt lat="43.282567" lon="-4.220917">
        <ele>675.0</ele>
        <time>2015-05-23T15:45:02Z</time>
      </trkpt>
      <trkpt lat="43.282567" lon="-4.220833">
        <ele>674.0</ele>
        <time>2015-05-23T15:45:03Z</time>
      </trkpt>
      <trkpt lat="43.282583" lon="-4.220733">
        <ele>674.0</ele>
        <time>2015-05-23T15:45:04Z</time>
      </trkpt>
      <trkpt lat="43.282583" lon="-4.220633">
        <ele>674.0</ele>
        <time>2015-05-23T15:45:05Z</time>
      </trkpt>
      <trkpt lat="43.282600" lon="-4.220517">
        <ele>674.0</ele>
        <time>2015-05-23T15:45:06Z</time>
      </trkpt>
      <trkpt lat="43.282617" lon="-4.220400">
        <ele>674.0</ele>
        <time>2015-05-23T15:45:07Z</time>
      </trkpt>
      <trkpt lat="43.282633" lon="-4.220300">
        <ele>674.0</ele>
        <time>2015-05-23T15:45:08Z</time>
      </trkpt>
      <trkpt lat="43.282667" lon="-4.220200">
        <ele>674.0</ele>
        <time>2015-05-23T15:45:09Z</time>
      </trkpt>
      <trkpt lat="43.282717" lon="-4.220117">
        <ele>675.0</ele>
        <time>2015-05-23T15:45:10Z</time>
      </trkpt>
      <trkpt lat="43.282750" lon="-4.220033">
        <ele>676.0</ele>
        <time>2015-05-23T15:45:11Z</time>
      </trkpt>
      <trkpt lat="43.282800" lon="-4.219950">
        <ele>677.0</ele>
        <time>2015-05-23T15:45:12Z</time>
      </trkpt>
      <trkpt lat="43.282867" lon="-4.219867">
        <ele>677.0</ele>
        <time>2015-05-23T15:45:13Z</time>
      </trkpt>
      <trkpt lat="43.282900" lon="-4.219800">
        <ele>677.0</ele>
        <time>2015-05-23T15:45:14Z</time>
      </trkpt>
      <trkpt lat="43.282950" lon="-4.219733">
        <ele>678.0</ele>
        <time>2015-05-23T15:45:15Z</time>
      </trkpt>
      <trkpt lat="43.283000" lon="-4.219667">
        <ele>679.0</ele>
        <time>2015-05-23T15:45:16Z</time>
      </trkpt>
      <trkpt lat="43.283067" lon="-4.219600">
        <ele>679.0</ele>
        <time>2015-05-23T15:45:17Z</time>
      </trkpt>
      <trkpt lat="43.283100" lon="-4.219533">
        <ele>680.0</ele>
        <time>2015-05-23T15:45:18Z</time>
      </trkpt>
      <trkpt lat="43.283150" lon="-4.219483">
        <ele>682.0</ele>
        <time>2015-05-23T15:45:19Z</time>
      </trkpt>
      <trkpt lat="43.283150" lon="-4.219417">
        <ele>682.0</ele>
        <time>2015-05-23T15:45:20Z</time>
      </trkpt>
      <trkpt lat="43.283167" lon="-4.219367">
        <ele>684.0</ele>
        <time>2015-05-23T15:45:21Z</time>
      </trkpt>
      <trkpt lat="43.283200" lon="-4.219317">
        <ele>686.0</ele>
        <time>2015-05-23T15:45:22Z</time>
      </trkpt>
      <trkpt lat="43.283233" lon="-4.219267">
        <ele>687.0</ele>
        <time>2015-05-23T15:45:23Z</time>
      </trkpt>
      <trkpt lat="43.283267" lon="-4.219217">
        <ele>688.0</ele>
        <time>2015-05-23T15:45:24Z</time>
      </trkpt>
      <trkpt lat="43.283300" lon="-4.219200">
        <ele>690.0</ele>
        <time>2015-05-23T15:45:25Z</time>
      </trkpt>
      <trkpt lat="43.283333" lon="-4.219183">
        <ele>693.0</ele>
        <time>2015-05-23T15:45:26Z</time>
      </trkpt>
      <trkpt lat="43.283367" lon="-4.219167">
        <ele>694.0</ele>
        <time>2015-05-23T15:45:27Z</time>
      </trkpt>
      <trkpt lat="43.283383" lon="-4.219150">
        <ele>697.0</ele>
        <time>2015-05-23T15:45:28Z</time>
      </trkpt>
      <trkpt lat="43.283400" lon="-4.219133">
        <ele>700.0</ele>
        <time>2015-05-23T15:45:29Z</time>
      </trkpt>
      <trkpt lat="43.283417" lon="-4.219117">
        <ele>702.0</ele>
        <time>2015-05-23T15:45:30Z</time>
      </trkpt>
      <trkpt lat="43.283450" lon="-4.219117">
        <ele>705.0</ele>
        <time>2015-05-23T15:45:31Z</time>
      </trkpt>
      <trkpt lat="43.283483" lon="-4.219133">
        <ele>708.0</ele>
        <time>2015-05-23T15:45:32Z</time>
      </trkpt>
      <trkpt lat="43.283500" lon="-4.219167">
        <ele>710.0</ele>
        <time>2015-05-23T15:45:33Z</time>
      </trkpt>
      <trkpt lat="43.283500" lon="-4.219250">
        <ele>713.0</ele>
        <time>2015-05-23T15:45:34Z</time>
      </trkpt>
      <trkpt lat="43.283500" lon="-4.219350">
        <ele>712.0</ele>
        <time>2015-05-23T15:45:35Z</time>
      </trkpt>
      <trkpt lat="43.283500" lon="-4.219467">
        <ele>713.0</ele>
        <time>2015-05-23T15:45:36Z</time>
      </trkpt>
      <trkpt lat="43.283467" lon="-4.219583">
        <ele>715.0</ele>
        <time>2015-05-23T15:45:37Z</time>
      </trkpt>
      <trkpt lat="43.283417" lon="-4.219667">
        <ele>719.0</ele>
        <time>2015-05-23T15:45:38Z</time>
      </trkpt>
      <trkpt lat="43.283350" lon="-4.219750">
        <ele>721.0</ele>
        <time>2015-05-23T15:45:39Z</time>
      </trkpt>
      <trkpt lat="43.283267" lon="-4.219800">
        <ele>723.0</ele>
        <time>2015-05-23T15:45:40Z</time>
      </trkpt>
      <trkpt lat="43.283167" lon="-4.219800">
        <ele>725.0</ele>
        <time>2015-05-23T15:45:41Z</time>
      </trkpt>
      <trkpt lat="43.283067" lon="-4.219783">
        <ele>728.0</ele>
        <time>2015-05-23T15:45:42Z</time>
      </trkpt>
      <trkpt lat="43.282967" lon="-4.219717">
        <ele>730.0</ele>
        <time>2015-05-23T15:45:43Z</time>
      </trkpt>
      <trkpt lat="43.282900" lon="-4.219633">
        <ele>732.0</ele>
        <time>2015-05-23T15:45:44Z</time>
      </trkpt>
      <trkpt lat="43.282850" lon="-4.219517">
        <ele>734.0</ele>
        <time>2015-05-23T15:45:45Z</time>
      </trkpt>
      <trkpt lat="43.282817" lon="-4.219417">
        <ele>736.0</ele>
        <time>2015-05-23T15:45:46Z</time>
      </trkpt>
      <trkpt lat="43.282817" lon="-4.219333">
        <ele>739.0</ele>
        <time>2015-05-23T15:45:47Z</time>
      </trkpt>
      <trkpt lat="43.282850" lon="-4.219250">
        <ele>741.0</ele>
        <time>2015-05-23T15:45:48Z</time>
      </trkpt>
      <trkpt lat="43.282867" lon="-4.219183">
        <ele>738.0</ele>
        <time>2015-05-23T15:45:49Z</time>
      </trkpt>
      <trkpt lat="43.282883" lon="-4.219133">
        <ele>741.0</ele>
        <time>2015-05-23T15:45:50Z</time>
      </trkpt>
      <trkpt lat="43.282900" lon="-4.219100">
        <ele>744.0</ele>
        <time>2015-05-23T15:45:51Z</time>
      </trkpt>
      <trkpt lat="43.282917" lon="-4.219067">
        <ele>746.0</ele>
        <time>2015-05-23T15:45:52Z</time>
      </trkpt>
      <trkpt lat="43.282933" lon="-4.219033">
        <ele>749.0</ele>
        <time>2015-05-23T15:45:53Z</time>
      </trkpt>
      <trkpt lat="43.282933" lon="-4.219000">
        <ele>752.0</ele>
        <time>2015-05-23T15:45:54Z</time>
      </trkpt>
      <trkpt lat="43.282933" lon="-4.218967">
        <ele>754.0</ele>
        <time>2015-05-23T15:45:55Z</time>
      </trkpt>
      <trkpt lat="43.282950" lon="-4.218933">
        <ele>756.0</ele>
        <time>2015-05-23T15:45:56Z</time>
      </trkpt>
      <trkpt lat="43.282967" lon="-4.218900">
        <ele>758.0</ele>
        <time>2015-05-23T15:45:57Z</time>
      </trkpt>
      <trkpt lat="43.283000" lon="-4.218900">
        <ele>759.0</ele>
        <time>2015-05-23T15:45:58Z</time>
      </trkpt>
      <trkpt lat="43.283033" lon="-4.218917">
        <ele>760.0</ele>
        <time>2015-05-23T15:45:59Z</time>
      </trkpt>
      <trkpt lat="43.283067" lon="-4.218933">
        <ele>761.0</ele>
        <time>2015-05-23T15:46:00Z</time>
      </trkpt>
      <trkpt lat="43.283100" lon="-4.218967">
        <ele>763.0</ele>
        <time>2015-05-23T15:46:01Z</time>
      </trkpt>
      <trkpt lat="43.283133" lon="-4.219017">
        <ele>764.0</ele>
        <time>2015-05-23T15:46:02Z</time>
      </trkpt>
      <trkpt lat="43.283150" lon="-4.219100">
        <ele>765.0</ele>
        <time>2015-05-23T15:46:03Z</time>
      </trkpt>
      <trkpt lat="43.283150" lon="-4.219183">
        <ele>767.0</ele>
        <time>2015-05-23T15:46:04Z</time>
      </trkpt>
      <trkpt lat="43.283133" lon="-4.219283">
        <ele>769.0</ele>
        <time>2015-05-23T15:46:05Z</time>
      </trkpt>
      <trkpt lat="43.283133" lon="-4.219383">
        <ele>769.0</ele>
        <time>2015-05-23T15:46:06Z</time>
      </trkpt>
      <trkpt lat="43.283117" lon="-4.219500">
        <ele>769.0</ele>
        <time>2015-05-23T15:46:07Z</time>
      </trkpt>
      <trkpt lat="43.283100" lon="-4.219600">
        <ele>770.0</ele>
        <time>2015-05-23T15:46:08Z</time>
      </trkpt>
      <trkpt lat="43.283050" lon="-4.219700">
        <ele>770.0</ele>
        <time>2015-05-23T15:46:09Z</time>
      </trkpt>
      <trkpt lat="43.283000" lon="-4.219800">
        <ele>772.0</ele>
        <time>2015-05-23T15:46:10Z</time>
      </trkpt>
      <trkpt lat="43.282933" lon="-4.219867">
        <ele>773.0</ele>
        <time>2015-05-23T15:46:11Z</time>
      </trkpt>
      <trkpt lat="43.282850" lon="-4.219917">
        <ele>774.0</ele>
        <time>2015-05-23T15:46:12Z</time>
      </trkpt>
      <trkpt lat="43.282750" lon="-4.219950">
        <ele>775.0</ele>
        <time>2015-05-23T15:46:13Z</time>
      </trkpt>
      <trkpt lat="43.282667" lon="-4.219950">
        <ele>776.0</ele>
        <time>2015-05-23T15:46:14Z</time>
      </trkpt>
      <trkpt lat="43.282567" lon="-4.219933">
        <ele>777.0</ele>
        <time>2015-05-23T15:46:15Z</time>
      </trkpt>
      <trkpt lat="43.282467" lon="-4.219900">
        <ele>779.0</ele>
        <time>2015-05-23T15:46:16Z</time>
      </trkpt>
      <trkpt lat="43.282400" lon="-4.219833">
        <ele>781.0</ele>
        <time>2015-05-23T15:46:17Z</time>
      </trkpt>
      <trkpt lat="43.282333" lon="-4.219767">
        <ele>784.0</ele>
        <time>2015-05-23T15:46:18Z</time>
      </trkpt>
      <trkpt lat="43.282267" lon="-4.219700">
        <ele>786.0</ele>
        <time>2015-05-23T15:46:19Z</time>
      </trkpt>
      <trkpt lat="43.282217" lon="-4.219633">
        <ele>788.0</ele>
        <time>2015-05-23T15:46:20Z</time>
      </trkpt>
      <trkpt lat="43.282150" lon="-4.219550">
        <ele>790.0</ele>
        <time>2015-05-23T15:46:21Z</time>
      </trkpt>
      <trkpt lat="43.282083" lon="-4.219450">
        <ele>791.0</ele>
        <time>2015-05-23T15:46:22Z</time>
      </trkpt>
      <trkpt lat="43.282067" lon="-4.219367">
        <ele>793.0</ele>
        <time>2015-05-23T15:46:23Z</time>
      </trkpt>
      <trkpt lat="43.282033" lon="-4.219300">
        <ele>792.0</ele>
        <time>2015-05-23T15:46:24Z</time>
      </trkpt>
      <trkpt lat="43.282017" lon="-4.219217">
        <ele>794.0</ele>
        <time>2015-05-23T15:46:25Z</time>
      </trkpt>
      <trkpt lat="43.281983" lon="-4.219150">
        <ele>797.0</ele>
        <time>2015-05-23T15:46:26Z</time>
      </trkpt>
      <trkpt lat="43.281933" lon="-4.219083">
        <ele>800.0</ele>
        <time>2015-05-23T15:46:27Z</time>
      </trkpt>
      <trkpt lat="43.281917" lon="-4.219017">
        <ele>800.0</ele>
        <time>2015-05-23T15:46:28Z</time>
      </trkpt>
      <trkpt lat="43.281917" lon="-4.218967">
        <ele>802.0</ele>
        <time>2015-05-23T15:46:29Z</time>
      </trkpt>
      <trkpt lat="43.281933" lon="-4.218917">
        <ele>803.0</ele>
        <time>2015-05-23T15:46:30Z</time>
      </trkpt>
      <trkpt lat="43.281967" lon="-4.218900">
        <ele>803.0</ele>
        <time>2015-05-23T15:46:31Z</time>
      </trkpt>
      <trkpt lat="43.281983" lon="-4.218900">
        <ele>804.0</ele>
        <time>2015-05-23T15:46:32Z</time>
      </trkpt>
      <trkpt lat="43.282000" lon="-4.218900">
        <ele>805.0</ele>
        <time>2015-05-23T15:46:33Z</time>
      </trkpt>
      <trkpt lat="43.282033" lon="-4.218900">
        <ele>807.0</ele>
        <time>2015-05-23T15:46:34Z</time>
      </trkpt>
      <trkpt lat="43.282067" lon="-4.218883">
        <ele>808.0</ele>
        <time>2015-05-23T15:46:35Z</time>
      </trkpt>
      <trkpt lat="43.282100" lon="-4.218900">
        <ele>810.0</ele>
        <time>2015-05-23T15:46:36Z</time>
      </trkpt>
      <trkpt lat="43.282133" lon="-4.218933">
        <ele>812.0</ele>
        <time>2015-05-23T15:46:37Z</time>
      </trkpt>
      <trkpt lat="43.282183" lon="-4.218967">
        <ele>815.0</ele>
        <time>2015-05-23T15:46:38Z</time>
      </trkpt>
      <trkpt lat="43.282217" lon="-4.219017">
        <ele>817.0</ele>
        <time>2015-05-23T15:46:39Z</time>
      </trkpt>
      <trkpt lat="43.282250" lon="-4.219067">
        <ele>817.0</ele>
        <time>2015-05-23T15:46:40Z</time>
      </trkpt>
      <trkpt lat="43.282267" lon="-4.219133">
        <ele>817.0</ele>
        <time>2015-05-23T15:46:41Z</time>
      </trkpt>
      <trkpt lat="43.282300" lon="-4.219200">
        <ele>817.0</ele>
        <time>2015-05-23T15:46:42Z</time>
      </trkpt>
      <trkpt lat="43.282317" lon="-4.219283">
        <ele>818.0</ele>
        <time>2015-05-23T15:46:43Z</time>
      </trkpt>
      <trkpt lat="43.282350" lon="-4.219367">
        <ele>819.0</ele>
        <time>2015-05-23T15:46:44Z</time>
      </trkpt>
      <trkpt lat="43.282367" lon="-4.219450">
        <ele>821.0</ele>
        <time>2015-05-23T15:46:45Z</time>
      </trkpt>
      <trkpt lat="43.282367" lon="-4.219550">
        <ele>822.0</ele>
        <time>2015-05-23T15:46:46Z</time>
      </trkpt>
      <trkpt lat="43.282333" lon="-4.219650">
        <ele>824.0</ele>
        <time>2015-05-23T15:46:47Z</time>
      </trkpt>
      <trkpt lat="43.282283" lon="-4.219750">
        <ele>826.0</ele>
        <time>2015-05-23T15:46:48Z</time>
      </trkpt>
      <trkpt lat="43.282233" lon="-4.219850">
        <ele>827.0</ele>
        <time>2015-05-23T15:46:49Z</time>
      </trkpt>
      <trkpt lat="43.282167" lon="-4.219933">
        <ele>828.0</ele>
        <time>2015-05-23T15:46:50Z</time>
      </trkpt>
      <trkpt lat="43.282100" lon="-4.220000">
        <ele>829.0</ele>
        <time>2015-05-23T15:46:51Z</time>
      </trkpt>
      <trkpt lat="43.282000" lon="-4.220067">
        <ele>830.0</ele>
        <time>2015-05-23T15:46:52Z</time>
      </trkpt>
      <trkpt lat="43.281900" lon="-4.220100">
        <ele>830.0</ele>
        <time>2015-05-23T15:46:53Z</time>
      </trkpt>
      <trkpt lat="43.281800" lon="-4.220083">
        <ele>830.0</ele>
        <time>2015-05-23T15:46:54Z</time>
      </trkpt>
      <trkpt lat="43.281717" lon="-4.220033">
        <ele>831.0</ele>
        <time>2015-05-23T15:46:55Z</time>
      </trkpt>
      <trkpt lat="43.281633" lon="-4.219967">
        <ele>832.0</ele>
        <time>2015-05-23T15:46:56Z</time>
      </trkpt>
      <trkpt lat="43.281567" lon="-4.219900">
        <ele>833.0</ele>
        <time>2015-05-23T15:46:57Z</time>
      </trkpt>
      <trkpt lat="43.281517" lon="-4.219833">
        <ele>835.0</ele>
        <time>2015-05-23T15:46:58Z</time>
      </trkpt>
      <trkpt lat="43.281467" lon="-4.219750">
        <ele>836.0</ele>
        <time>2015-05-23T15:46:59Z</time>
      </trkpt>
      <trkpt lat="43.281433" lon="-4.219667">
        <ele>837.0</ele>
        <time>2015-05-23T15:47:00Z</time>
      </trkpt>
      <trkpt lat="43.281400" lon="-4.219583">
        <ele>837.0</ele>
        <time>2015-05-23T15:47:01Z</time>
      </trkpt>
      <trkpt lat="43.281367" lon="-4.219500">
        <ele>837.0</ele>
        <time>2015-05-23T15:47:02Z</time>
      </trkpt>
      <trkpt lat="43.281333" lon="-4.219433">
        <ele>837.0</ele>
        <time>2015-05-23T15:47:03Z</time>
      </trkpt>
      <trkpt lat="43.281300" lon="-4.219367">
        <ele>837.0</ele>
        <time>2015-05-23T15:47:04Z</time>
      </trkpt>
      <trkpt lat="43.281267" lon="-4.219283">
        <ele>838.0</ele>
        <time>2015-05-23T15:47:05Z</time>
      </trkpt>
      <trkpt lat="43.281233" lon="-4.219233">
        <ele>839.0</ele>
        <time>2015-05-23T15:47:06Z</time>
      </trkpt>
      <trkpt lat="43.281183" lon="-4.219167">
        <ele>839.0</ele>
        <time>2015-05-23T15:47:07Z</time>
      </trkpt>
      <trkpt lat="43.281167" lon="-4.219100">
        <ele>840.0</ele>
        <time>2015-05-23T15:47:08Z</time>
      </trkpt>
      <trkpt lat="43.281133" lon="-4.219033">
        <ele>841.0</ele>
        <time>2015-05-23T15:47:09Z</time>
      </trkpt>
      <trkpt lat="43.281083" lon="-4.218950">
        <ele>841.0</ele>
        <time>2015-05-23T15:47:10Z</time>
      </trkpt>
      <trkpt lat="43.281033" lon="-4.218883">
        <ele>843.0</ele>
        <time>2015-05-23T15:47:11Z</time>
      </trkpt>
      <trkpt lat="43.280967" lon="-4.218817">
        <ele>845.0</ele>
        <time>2015-05-23T15:47:12Z</time>
      </trkpt>
      <trkpt lat="43.280917" lon="-4.218733">
        <ele>847.0</ele>
        <time>2015-05-23T15:47:13Z</time>
      </trkpt>
      <trkpt lat="43.280883" lon="-4.218667">
        <ele>849.0</ele>
        <time>2015-05-23T15:47:14Z</time>
      </trkpt>
      <trkpt lat="43.280867" lon="-4.218583">
        <ele>851.0</ele>
        <time>2015-05-23T15:47:15Z</time>
      </trkpt>
      <trkpt lat="43.280850" lon="-4.218500">
        <ele>852.0</ele>
        <time>2015-05-23T15:47:16Z</time>
      </trkpt>
      <trkpt lat="43.280833" lon="-4.218417">
        <ele>854.0</ele>
        <time>2015-05-23T15:47:17Z</time>
      </trkpt>
      <trkpt lat="43.280833" lon="-4.218333">
        <ele>853.0</ele>
        <time>2015-05-23T15:47:18Z</time>
      </trkpt>
      <trkpt lat="43.280833" lon="-4.218267">
        <ele>853.0</ele>
        <time>2015-05-23T15:47:19Z</time>
      </trkpt>
      <trkpt lat="43.280817" lon="-4.218183">
        <ele>853.0</ele>
        <time>2015-05-23T15:47:20Z</time>
      </trkpt>
      <trkpt lat="43.280817" lon="-4.218083">
        <ele>854.0</ele>
        <time>2015-05-23T15:47:21Z</time>
      </trkpt>
      <trkpt lat="43.280783" lon="-4.217983">
        <ele>854.0</ele>
        <time>2015-05-23T15:47:22Z</time>
      </trkpt>
      <trkpt lat="43.280767" lon="-4.217883">
        <ele>855.0</ele>
        <time>2015-05-23T15:47:23Z</time>
      </trkpt>
      <trkpt lat="43.280733" lon="-4.217783">
        <ele>857.0</ele>
        <time>2015-05-23T15:47:24Z</time>
      </trkpt>
      <trkpt lat="43.280717" lon="-4.217683">
        <ele>860.0</ele>
        <time>2015-05-23T15:47:25Z</time>
      </trkpt>
      <trkpt lat="43.280700" lon="-4.217600">
        <ele>863.0</ele>
        <time>2015-05-23T15:47:26Z</time>
      </trkpt>
      <trkpt lat="43.280683" lon="-4.217517">
        <ele>867.0</ele>
        <time>2015-05-23T15:47:27Z</time>
      </trkpt>
      <trkpt lat="43.280667" lon="-4.217450">
        <ele>871.0</ele>
        <time>2015-05-23T15:47:28Z</time>
      </trkpt>
      <trkpt lat="43.280650" lon="-4.217367">
        <ele>870.0</ele>
        <time>2015-05-23T15:47:29Z</time>
      </trkpt>
      <trkpt lat="43.280650" lon="-4.217283">
        <ele>870.0</ele>
        <time>2015-05-23T15:47:30Z</time>
      </trkpt>
      <trkpt lat="43.280650" lon="-4.217200">
        <ele>872.0</ele>
        <time>2015-05-23T15:47:31Z</time>
      </trkpt>
      <trkpt lat="43.280667" lon="-4.217133">
        <ele>872.0</ele>
        <time>2015-05-23T15:47:32Z</time>
      </trkpt>
      <trkpt lat="43.280683" lon="-4.217067">
        <ele>874.0</ele>
        <time>2015-05-23T15:47:33Z</time>
      </trkpt>
      <trkpt lat="43.280683" lon="-4.216983">
        <ele>876.0</ele>
        <time>2015-05-23T15:47:34Z</time>
      </trkpt>
      <trkpt lat="43.280700" lon="-4.216900">
        <ele>877.0</ele>
        <time>2015-05-23T15:47:35Z</time>
      </trkpt>
      <trkpt lat="43.280733" lon="-4.216833">
        <ele>879.0</ele>
        <time>2015-05-23T15:47:36Z</time>
      </trkpt>
      <trkpt lat="43.280767" lon="-4.216767">
        <ele>880.0</ele>
        <time>2015-05-23T15:47:37Z</time>
      </trkpt>
      <trkpt lat="43.280817" lon="-4.216733">
        <ele>881.0</ele>
        <time>2015-05-23T15:47:38Z</time>
      </trkpt>
      <trkpt lat="43.280850" lon="-4.216717">
        <ele>883.0</ele>
        <time>2015-05-23T15:47:39Z</time>
      </trkpt>
      <trkpt lat="43.280900" lon="-4.216667">
        <ele>885.0</ele>
        <time>2015-05-23T15:47:40Z</time>
      </trkpt>
      <trkpt lat="43.280950" lon="-4.216633">
        <ele>887.0</ele>
        <time>2015-05-23T15:47:41Z</time>
      </trkpt>
      <trkpt lat="43.281000" lon="-4.216617">
        <ele>889.0</ele>
        <time>2015-05-23T15:47:42Z</time>
      </trkpt>
      <trkpt lat="43.281050" lon="-4.216650">
        <ele>892.0</ele>
        <time>2015-05-23T15:47:43Z</time>
      </trkpt>
      <trkpt lat="43.281083" lon="-4.216733">
        <ele>895.0</ele>
        <time>2015-05-23T15:47:44Z</time>
      </trkpt>
      <trkpt lat="43.281083" lon="-4.216850">
        <ele>898.0</ele>
        <time>2015-05-23T15:47:45Z</time>
      </trkpt>
      <trkpt lat="43.281067" lon="-4.216950">
        <ele>901.0</ele>
        <time>2015-05-23T15:47:46Z</time>
      </trkpt>
      <trkpt lat="43.281050" lon="-4.217050">
        <ele>904.0</ele>
        <time>2015-05-23T15:47:47Z</time>
      </trkpt>
      <trkpt lat="43.281033" lon="-4.217133">
        <ele>909.0</ele>
        <time>2015-05-23T15:47:48Z</time>
      </trkpt>
      <trkpt lat="43.281000" lon="-4.217233">
        <ele>907.0</ele>
        <time>2015-05-23T15:47:49Z</time>
      </trkpt>
      <trkpt lat="43.280950" lon="-4.217300">
        <ele>909.0</ele>
        <time>2015-05-23T15:47:50Z</time>
      </trkpt>
      <trkpt lat="43.280900" lon="-4.217400">
        <ele>909.0</ele>
        <time>2015-05-23T15:47:51Z</time>
      </trkpt>
      <trkpt lat="43.280833" lon="-4.217467">
        <ele>911.0</ele>
        <time>2015-05-23T15:47:52Z</time>
      </trkpt>
      <trkpt lat="43.280750" lon="-4.217550">
        <ele>912.0</ele>
        <time>2015-05-23T15:47:53Z</time>
      </trkpt>
      <trkpt lat="43.280683" lon="-4.217633">
        <ele>913.0</ele>
        <time>2015-05-23T15:47:54Z</time>
      </trkpt>
      <trkpt lat="43.280600" lon="-4.217700">
        <ele>914.0</ele>
        <time>2015-05-23T15:47:55Z</time>
      </trkpt>
      <trkpt lat="43.280517" lon="-4.217750">
        <ele>916.0</ele>
        <time>2015-05-23T15:47:56Z</time>
      </trkpt>
      <trkpt lat="43.280417" lon="-4.217750">
        <ele>918.0</ele>
        <time>2015-05-23T15:47:57Z</time>
      </trkpt>
      <trkpt lat="43.280333" lon="-4.217733">
        <ele>918.0</ele>
        <time>2015-05-23T15:47:58Z</time>
      </trkpt>
      <trkpt lat="43.280267" lon="-4.217683">
        <ele>921.0</ele>
        <time>2015-05-23T15:47:59Z</time>
      </trkpt>
      <trkpt lat="43.280200" lon="-4.217617">
        <ele>924.0</ele>
        <time>2015-05-23T15:48:00Z</time>
      </trkpt>
      <trkpt lat="43.280150" lon="-4.217567">
        <ele>927.0</ele>
        <time>2015-05-23T15:48:01Z</time>
      </trkpt>
      <trkpt lat="43.280100" lon="-4.217483">
        <ele>927.0</ele>
        <time>2015-05-23T15:48:02Z</time>
      </trkpt>
      <trkpt lat="43.280050" lon="-4.217383">
        <ele>929.0</ele>
        <time>2015-05-23T15:48:03Z</time>
      </trkpt>
      <trkpt lat="43.280033" lon="-4.217283">
        <ele>929.0</ele>
        <time>2015-05-23T15:48:04Z</time>
      </trkpt>
      <trkpt lat="43.280050" lon="-4.217200">
        <ele>929.0</ele>
        <time>2015-05-23T15:48:05Z</time>
      </trkpt>
      <trkpt lat="43.280050" lon="-4.217100">
        <ele>930.0</ele>
        <time>2015-05-23T15:48:06Z</time>
      </trkpt>
      <trkpt lat="43.280067" lon="-4.217017">
        <ele>932.0</ele>
        <time>2015-05-23T15:48:07Z</time>
      </trkpt>
      <trkpt lat="43.280100" lon="-4.216967">
        <ele>934.0</ele>
        <time>2015-05-23T15:48:08Z</time>
      </trkpt>
      <trkpt lat="43.280117" lon="-4.216950">
        <ele>937.0</ele>
        <time>2015-05-23T15:48:09Z</time>
      </trkpt>
      <trkpt lat="43.280150" lon="-4.216950">
        <ele>942.0</ele>
        <time>2015-05-23T15:48:10Z</time>
      </trkpt>
      <trkpt lat="43.280200" lon="-4.216950">
        <ele>946.0</ele>
        <time>2015-05-23T15:48:11Z</time>
      </trkpt>
      <trkpt lat="43.280250" lon="-4.217000">
        <ele>949.0</ele>
        <time>2015-05-23T15:48:12Z</time>
      </trkpt>
      <trkpt lat="43.280283" lon="-4.217083">
        <ele>952.0</ele>
        <time>2015-05-23T15:48:13Z</time>
      </trkpt>
      <trkpt lat="43.280300" lon="-4.217217">
        <ele>951.0</ele>
        <time>2015-05-23T15:48:14Z</time>
      </trkpt>
      <trkpt lat="43.280267" lon="-4.217367">
        <ele>952.0</ele>
        <time>2015-05-23T15:48:15Z</time>
      </trkpt>
      <trkpt lat="43.280217" lon="-4.217467">
        <ele>955.0</ele>
        <time>2015-05-23T15:48:16Z</time>
      </trkpt>
      <trkpt lat="43.280150" lon="-4.217567">
        <ele>958.0</ele>
        <time>2015-05-23T15:48:17Z</time>
      </trkpt>
      <trkpt lat="43.280083" lon="-4.217633">
        <ele>960.0</ele>
        <time>2015-05-23T15:48:18Z</time>
      </trkpt>
      <trkpt lat="43.279983" lon="-4.217683">
        <ele>963.0</ele>
        <time>2015-05-23T15:48:19Z</time>
      </trkpt>
      <trkpt lat="43.279883" lon="-4.217683">
        <ele>967.0</ele>
        <time>2015-05-23T15:48:20Z</time>
      </trkpt>
      <trkpt lat="43.279783" lon="-4.217667">
        <ele>970.0</ele>
        <time>2015-05-23T15:48:21Z</time>
      </trkpt>
      <trkpt lat="43.279700" lon="-4.217600">
        <ele>975.0</ele>
        <time>2015-05-23T15:48:22Z</time>
      </trkpt>
      <trkpt lat="43.279633" lon="-4.217517">
        <ele>978.0</ele>
        <time>2015-05-23T15:48:23Z</time>
      </trkpt>
      <trkpt lat="43.279583" lon="-4.217433">
        <ele>982.0</ele>
        <time>2015-05-23T15:48:24Z</time>
      </trkpt>
      <trkpt lat="43.279533" lon="-4.217350">
        <ele>986.0</ele>
        <time>2015-05-23T15:48:25Z</time>
      </trkpt>
      <trkpt lat="43.279500" lon="-4.217283">
        <ele>987.0</ele>
        <time>2015-05-23T15:48:26Z</time>
      </trkpt>
      <trkpt lat="43.279500" lon="-4.217233">
        <ele>990.0</ele>
        <time>2015-05-23T15:48:27Z</time>
      </trkpt>
      <trkpt lat="43.279500" lon="-4.217183">
        <ele>994.0</ele>
        <time>2015-05-23T15:48:28Z</time>
      </trkpt>
      <trkpt lat="43.279517" lon="-4.217133">
        <ele>993.0</ele>
        <time>2015-05-23T15:48:29Z</time>
      </trkpt>
      <trkpt lat="43.279567" lon="-4.217100">
        <ele>995.0</ele>
        <time>2015-05-23T15:48:30Z</time>
      </trkpt>
      <trkpt lat="43.279617" lon="-4.217083">
        <ele>996.0</ele>
        <time>2015-05-23T15:48:31Z</time>
      </trkpt>
      <trkpt lat="43.279667" lon="-4.217100">
        <ele>999.0</ele>
        <time>2015-05-23T15:48:32Z</time>
      </trkpt>
      <trkpt lat="43.279700" lon="-4.217167">
        <ele>1003.0</ele>
        <time>2015-05-23T15:48:33Z</time>
      </trkpt>
      <trkpt lat="43.279717" lon="-4.217250">
        <ele>1007.0</ele>
        <time>2015-05-23T15:48:34Z</time>
      </trkpt>
      <trkpt lat="43.279717" lon="-4.217367">
        <ele>1010.0</ele>
        <time>2015-05-23T15:48:35Z</time>
      </trkpt>
      <trkpt lat="43.279733" lon="-4.217483">
        <ele>1009.0</ele>
        <time>2015-05-23T15:48:36Z</time>
      </trkpt>
      <trkpt lat="43.279717" lon="-4.217600">
        <ele>1009.0</ele>
        <time>2015-05-23T15:48:37Z</time>
      </trkpt>
      <trkpt lat="43.279683" lon="-4.217717">
        <ele>1011.0</ele>
        <time>2015-05-23T15:48:38Z</time>
      </trkpt>
      <trkpt lat="43.279633" lon="-4.217817">
        <ele>1013.0</ele>
        <time>2015-05-23T15:48:39Z</time>
      </trkpt>
      <trkpt lat="43.279550" lon="-4.217900">
        <ele>1014.0</ele>
        <time>2015-05-23T15:48:40Z</time>
      </trkpt>
      <trkpt lat="43.279467" lon="-4.217950">
        <ele>1015.0</ele>
        <time>2015-05-23T15:48:41Z</time>
      </trkpt>
      <trkpt lat="43.279367" lon="-4.217967">
        <ele>1017.0</ele>
        <time>2015-05-23T15:48:42Z</time>
      </trkpt>
      <trkpt lat="43.279267" lon="-4.217967">
        <ele>1019.0</ele>
        <time>2015-05-23T15:48:43Z</time>
      </trkpt>
      <trkpt lat="43.279183" lon="-4.217917">
        <ele>1021.0</ele>
        <time>2015-05-23T15:48:44Z</time>
      </trkpt>
      <trkpt lat="43.279117" lon="-4.217833">
        <ele>1024.0</ele>
        <time>2015-05-23T15:48:45Z</time>
      </trkpt>
      <trkpt lat="43.279050" lon="-4.217767">
        <ele>1026.0</ele>
        <time>2015-05-23T15:48:46Z</time>
      </trkpt>
      <trkpt lat="43.279000" lon="-4.217700">
        <ele>1025.0</ele>
        <time>2015-05-23T15:48:47Z</time>
      </trkpt>
      <trkpt lat="43.278967" lon="-4.217617">
        <ele>1026.0</ele>
        <time>2015-05-23T15:48:48Z</time>
      </trkpt>
      <trkpt lat="43.278967" lon="-4.217517">
        <ele>1029.0</ele>
        <time>2015-05-23T15:48:49Z</time>
      </trkpt>
      <trkpt lat="43.278983" lon="-4.217433">
        <ele>1030.0</ele>
        <time>2015-05-23T15:48:50Z</time>
      </trkpt>
      <trkpt lat="43.279017" lon="-4.217383">
        <ele>1032.0</ele>
        <time>2015-05-23T15:48:51Z</time>
      </trkpt>
      <trkpt lat="43.279050" lon="-4.217367">
        <ele>1034.0</ele>
        <time>2015-05-23T15:48:52Z</time>
      </trkpt>
      <trkpt lat="43.279100" lon="-4.217383">
        <ele>1036.0</ele>
        <time>2015-05-23T15:48:53Z</time>
      </trkpt>
      <trkpt lat="43.279133" lon="-4.217433">
        <ele>1038.0</ele>
        <time>2015-05-23T15:48:54Z</time>
      </trkpt>
      <trkpt lat="43.279183" lon="-4.217500">
        <ele>1041.0</ele>
        <time>2015-05-23T15:48:55Z</time>
      </trkpt>
      <trkpt lat="43.279250" lon="-4.217533">
        <ele>1041.0</ele>
        <time>2015-05-23T15:48:56Z</time>
      </trkpt>
      <trkpt lat="43.279317" lon="-4.217567">
        <ele>1043.0</ele>
        <time>2015-05-23T15:48:57Z</time>
      </trkpt>
      <trkpt lat="43.279383" lon="-4.217583">
        <ele>1045.0</ele>
        <time>2015-05-23T15:48:58Z</time>
      </trkpt>
      <trkpt lat="43.279450" lon="-4.217617">
        <ele>1045.0</ele>
        <time>2015-05-23T15:48:59Z</time>
      </trkpt>
      <trkpt lat="43.279517" lon="-4.217650">
        <ele>1046.0</ele>
        <time>2015-05-23T15:49:00Z</time>
      </trkpt>
      <trkpt lat="43.279583" lon="-4.217717">
        <ele>1048.0</ele>
        <time>2015-05-23T15:49:01Z</time>
      </trkpt>
      <trkpt lat="43.279633" lon="-4.217783">
        <ele>1048.0</ele>
        <time>2015-05-23T15:49:02Z</time>
      </trkpt>
      <trkpt lat="43.279683" lon="-4.217850">
        <ele>1048.0</ele>
        <time>2015-05-23T15:49:03Z</time>
      </trkpt>
      <trkpt lat="43.279750" lon="-4.217917">
        <ele>1049.0</ele>
        <time>2015-05-23T15:49:04Z</time>
      </trkpt>
      <trkpt lat="43.279817" lon="-4.217967">
        <ele>1049.0</ele>
        <time>2015-05-23T15:49:05Z</time>
      </trkpt>
      <trkpt lat="43.279900" lon="-4.218000">
        <ele>1049.0</ele>
        <time>2015-05-23T15:49:06Z</time>
      </trkpt>
      <trkpt lat="43.279983" lon="-4.218033">
        <ele>1049.0</ele>
        <time>2015-05-23T15:49:07Z</time>
      </trkpt>
      <trkpt lat="43.280050" lon="-4.218033">
        <ele>1049.0</ele>
        <time>2015-05-23T15:49:08Z</time>
      </trkpt>
      <trkpt lat="43.280117" lon="-4.218050">
        <ele>1050.0</ele>
        <time>2015-05-23T15:49:09Z</time>
      </trkpt>
      <trkpt lat="43.280183" lon="-4.218067">
        <ele>1050.0</ele>
        <time>2015-05-23T15:49:10Z</time>
      </trkpt>
      <trkpt lat="43.280250" lon="-4.218067">
        <ele>1050.0</ele>
        <time>2015-05-23T15:49:11Z</time>
      </trkpt>
      <trkpt lat="43.280317" lon="-4.218050">
        <ele>1050.0</ele>
        <time>2015-05-23T15:49:12Z</time>
      </trkpt>
      <trkpt lat="43.280383" lon="-4.218017">
        <ele>1050.0</ele>
        <time>2015-05-23T15:49:13Z</time>
      </trkpt>
      <trkpt lat="43.280450" lon="-4.217983">
        <ele>1049.0</ele>
        <time>2015-05-23T15:49:14Z</time>
      </trkpt>
      <trkpt lat="43.280517" lon="-4.217967">
        <ele>1050.0</ele>
        <time>2015-05-23T15:49:15Z</time>
      </trkpt>
      <trkpt lat="43.280600" lon="-4.217967">
        <ele>1049.0</ele>
        <time>2015-05-23T15:49:16Z</time>
      </trkpt>
      <trkpt lat="43.280667" lon="-4.217983">
        <ele>1050.0</ele>
        <time>2015-05-23T15:49:17Z</time>
      </trkpt>
      <trkpt lat="43.280750" lon="-4.217983">
        <ele>1051.0</ele>
        <time>2015-05-23T15:49:18Z</time>
      </trkpt>
      <trkpt lat="43.280817" lon="-4.217967">
        <ele>1051.0</ele>
        <time>2015-05-23T15:49:19Z</time>
      </trkpt>
      <trkpt lat="43.280900" lon="-4.217967">
        <ele>1050.0</ele>
        <time>2015-05-23T15:49:20Z</time>
      </trkpt>
      <trkpt lat="43.280967" lon="-4.217950">
        <ele>1050.0</ele>
        <time>2015-05-23T15:49:21Z</time>
      </trkpt>
      <trkpt lat="43.281050" lon="-4.217950">
        <ele>1049.0</ele>
        <time>2015-05-23T15:49:22Z</time>
      </trkpt>
      <trkpt lat="43.281133" lon="-4.217933">
        <ele>1048.0</ele>
        <time>2015-05-23T15:49:23Z</time>
      </trkpt>
      <trkpt lat="43.281217" lon="-4.217933">
        <ele>1048.0</ele>
        <time>2015-05-23T15:49:24Z</time>
      </trkpt>
      <trkpt lat="43.281267" lon="-4.217917">
        <ele>1050.0</ele>
        <time>2015-05-23T15:49:25Z</time>
      </trkpt>
      <trkpt lat="43.281317" lon="-4.217917">
        <ele>1051.0</ele>
        <time>2015-05-23T15:49:26Z</time>
      </trkpt>
      <trkpt lat="43.281350" lon="-4.217917">
        <ele>1051.0</ele>
        <time>2015-05-23T15:49:27Z</time>
      </trkpt>
      <trkpt lat="43.281383" lon="-4.217900">
        <ele>1052.0</ele>
        <time>2015-05-23T15:49:28Z</time>
      </trkpt>
      <trkpt lat="43.281433" lon="-4.217883">
        <ele>1051.0</ele>
        <time>2015-05-23T15:49:29Z</time>
      </trkpt>
      <trkpt lat="43.281500" lon="-4.217833">
        <ele>1051.0</ele>
        <time>2015-05-23T15:49:30Z</time>
      </trkpt>
      <trkpt lat="43.281550" lon="-4.217800">
        <ele>1050.0</ele>
        <time>2015-05-23T15:49:31Z</time>
      </trkpt>
      <trkpt lat="43.281617" lon="-4.217783">
        <ele>1050.0</ele>
        <time>2015-05-23T15:49:32Z</time>
      </trkpt>
      <trkpt lat="43.281667" lon="-4.217767">
        <ele>1051.0</ele>
        <time>2015-05-23T15:49:33Z</time>
      </trkpt>
      <trkpt lat="43.281717" lon="-4.217750">
        <ele>1051.0</ele>
        <time>2015-05-23T15:49:34Z</time>
      </trkpt>
      <trkpt lat="43.281783" lon="-4.217717">
        <ele>1051.0</ele>
        <time>2015-05-23T15:49:35Z</time>
      </trkpt>
      <trkpt lat="43.281850" lon="-4.217700">
        <ele>1051.0</ele>
        <time>2015-05-23T15:49:36Z</time>
      </trkpt>
      <trkpt lat="43.281900" lon="-4.217667">
        <ele>1051.0</ele>
        <time>2015-05-23T15:49:37Z</time>
      </trkpt>
      <trkpt lat="43.281967" lon="-4.217650">
        <ele>1051.0</ele>
        <time>2015-05-23T15:49:38Z</time>
      </trkpt>
      <trkpt lat="43.282033" lon="-4.217617">
        <ele>1051.0</ele>
        <time>2015-05-23T15:49:39Z</time>
      </trkpt>
      <trkpt lat="43.282100" lon="-4.217600">
        <ele>1050.0</ele>
        <time>2015-05-23T15:49:40Z</time>
      </trkpt>
      <trkpt lat="43.282183" lon="-4.217567">
        <ele>1050.0</ele>
        <time>2015-05-23T15:49:41Z</time>
      </trkpt>
      <trkpt lat="43.282250" lon="-4.217550">
        <ele>1050.0</ele>
        <time>2015-05-23T15:49:42Z</time>
      </trkpt>
      <trkpt lat="43.282317" lon="-4.217550">
        <ele>1050.0</ele>
        <time>2015-05-23T15:49:43Z</time>
      </trkpt>
      <trkpt lat="43.282383" lon="-4.217533">
        <ele>1050.0</ele>
        <time>2015-05-23T15:49:44Z</time>
      </trkpt>
      <trkpt lat="43.282450" lon="-4.217533">
        <ele>1051.0</ele>
        <time>2015-05-23T15:49:45Z</time>
      </trkpt>
      <trkpt lat="43.282517" lon="-4.217533">
        <ele>1051.0</ele>
        <time>2015-05-23T15:49:46Z</time>
      </trkpt>
      <trkpt lat="43.282600" lon="-4.217533">
        <ele>1051.0</ele>
        <time>2015-05-23T15:49:47Z</time>
      </trkpt>
      <trkpt lat="43.282667" lon="-4.217533">
        <ele>1051.0</ele>
        <time>2015-05-23T15:49:48Z</time>
      </trkpt>
      <trkpt lat="43.282750" lon="-4.217550">
        <ele>1051.0</ele>
        <time>2015-05-23T15:49:49Z</time>
      </trkpt>
      <trkpt lat="43.282817" lon="-4.217550">
        <ele>1051.0</ele>
        <time>2015-05-23T15:49:50Z</time>
      </trkpt>
      <trkpt lat="43.282883" lon="-4.217550">
        <ele>1052.0</ele>
        <time>2015-05-23T15:49:51Z</time>
      </trkpt>
      <trkpt lat="43.282950" lon="-4.217550">
        <ele>1052.0</ele>
        <time>2015-05-23T15:49:52Z</time>
      </trkpt>
      <trkpt lat="43.283033" lon="-4.217550">
        <ele>1052.0</ele>
        <time>2015-05-23T15:49:53Z</time>
      </trkpt>
      <trkpt lat="43.283100" lon="-4.217550">
        <ele>1052.0</ele>
        <time>2015-05-23T15:49:54Z</time>
      </trkpt>
      <trkpt lat="43.283167" lon="-4.217567">
        <ele>1052.0</ele>
        <time>2015-05-23T15:49:55Z</time>
      </trkpt>
      <trkpt lat="43.283233" lon="-4.217567">
        <ele>1052.0</ele>
        <time>2015-05-23T15:49:56Z</time>
      </trkpt>
      <trkpt lat="43.283300" lon="-4.217567">
        <ele>1051.0</ele>
        <time>2015-05-23T15:49:57Z</time>
      </trkpt>
      <trkpt lat="43.283367" lon="-4.217583">
        <ele>1050.0</ele>
        <time>2015-05-23T15:49:58Z</time>
      </trkpt>
      <trkpt lat="43.283450" lon="-4.217583">
        <ele>1049.0</ele>
        <time>2015-05-23T15:49:59Z</time>
      </trkpt>
      <trkpt lat="43.283517" lon="-4.217600">
        <ele>1047.0</ele>
        <time>2015-05-23T15:50:00Z</time>
      </trkpt>
      <trkpt lat="43.283600" lon="-4.217617">
        <ele>1046.0</ele>
        <time>2015-05-23T15:50:01Z</time>
      </trkpt>
      <trkpt lat="43.283683" lon="-4.217633">
        <ele>1046.0</ele>
        <time>2015-05-23T15:50:02Z</time>
      </trkpt>
      <trkpt lat="43.283750" lon="-4.217633">
        <ele>1044.0</ele>
        <time>2015-05-23T15:50:03Z</time>
      </trkpt>
      <trkpt lat="43.283833" lon="-4.217650">
        <ele>1042.0</ele>
        <time>2015-05-23T15:50:04Z</time>
      </trkpt>
      <trkpt lat="43.283917" lon="-4.217683">
        <ele>1042.0</ele>
        <time>2015-05-23T15:50:05Z</time>
      </trkpt>
      <trkpt lat="43.283983" lon="-4.217717">
        <ele>1041.0</ele>
        <time>2015-05-23T15:50:06Z</time>
      </trkpt>
      <trkpt lat="43.284050" lon="-4.217733">
        <ele>1039.0</ele>
        <time>2015-05-23T15:50:07Z</time>
      </trkpt>
      <trkpt lat="43.284117" lon="-4.217733">
        <ele>1038.0</ele>
        <time>2015-05-23T15:50:08Z</time>
      </trkpt>
      <trkpt lat="43.284183" lon="-4.217733">
        <ele>1035.0</ele>
        <time>2015-05-23T15:50:09Z</time>
      </trkpt>
      <trkpt lat="43.284267" lon="-4.217733">
        <ele>1032.0</ele>
        <time>2015-05-23T15:50:10Z</time>
      </trkpt>
      <trkpt lat="43.284350" lon="-4.217767">
        <ele>1029.0</ele>
        <time>2015-05-23T15:50:11Z</time>
      </trkpt>
      <trkpt lat="43.284417" lon="-4.217800">
        <ele>1027.0</ele>
        <time>2015-05-23T15:50:12Z</time>
      </trkpt>
      <trkpt lat="43.284483" lon="-4.217817">
        <ele>1024.0</ele>
        <time>2015-05-23T15:50:13Z</time>
      </trkpt>
      <trkpt lat="43.284583" lon="-4.217817">
        <ele>1022.0</ele>
        <time>2015-05-23T15:50:14Z</time>
      </trkpt>
      <trkpt lat="43.284667" lon="-4.217833">
        <ele>1024.0</ele>
        <time>2015-05-23T15:50:15Z</time>
      </trkpt>
      <trkpt lat="43.284750" lon="-4.217850">
        <ele>1025.0</ele>
        <time>2015-05-23T15:50:16Z</time>
      </trkpt>
      <trkpt lat="43.284833" lon="-4.217867">
        <ele>1024.0</ele>
        <time>2015-05-23T15:50:17Z</time>
      </trkpt>
      <trkpt lat="43.284900" lon="-4.217883">
        <ele>1024.0</ele>
        <time>2015-05-23T15:50:18Z</time>
      </trkpt>
      <trkpt lat="43.284983" lon="-4.217900">
        <ele>1023.0</ele>
        <time>2015-05-23T15:50:19Z</time>
      </trkpt>
      <trkpt lat="43.285067" lon="-4.217917">
        <ele>1023.0</ele>
        <time>2015-05-23T15:50:20Z</time>
      </trkpt>
      <trkpt lat="43.285150" lon="-4.217933">
        <ele>1022.0</ele>
        <time>2015-05-23T15:50:21Z</time>
      </trkpt>
      <trkpt lat="43.285233" lon="-4.217950">
        <ele>1022.0</ele>
        <time>2015-05-23T15:50:22Z</time>
      </trkpt>
      <trkpt lat="43.285300" lon="-4.217950">
        <ele>1021.0</ele>
        <time>2015-05-23T15:50:23Z</time>
      </trkpt>
      <trkpt lat="43.285367" lon="-4.217950">
        <ele>1021.0</ele>
        <time>2015-05-23T15:50:24Z</time>
      </trkpt>
      <trkpt lat="43.285433" lon="-4.217950">
        <ele>1021.0</ele>
        <time>2015-05-23T15:50:25Z</time>
      </trkpt>
      <trkpt lat="43.285517" lon="-4.217950">
        <ele>1021.0</ele>
        <time>2015-05-23T15:50:26Z</time>
      </trkpt>
      <trkpt lat="43.285600" lon="-4.217933">
        <ele>1021.0</ele>
        <time>2015-05-23T15:50:27Z</time>
      </trkpt>
      <trkpt lat="43.285683" lon="-4.217917">
        <ele>1020.0</ele>
        <time>2015-05-23T15:50:28Z</time>
      </trkpt>
      <trkpt lat="43.285767" lon="-4.217917">
        <ele>1020.0</ele>
        <time>2015-05-23T15:50:29Z</time>
      </trkpt>
      <trkpt lat="43.285833" lon="-4.217933">
        <ele>1020.0</ele>
        <time>2015-05-23T15:50:30Z</time>
      </trkpt>
      <trkpt lat="43.285917" lon="-4.217967">
        <ele>1020.0</ele>
        <time>2015-05-23T15:50:31Z</time>
      </trkpt>
      <trkpt lat="43.286000" lon="-4.218000">
        <ele>1019.0</ele>
        <time>2015-05-23T15:50:32Z</time>
      </trkpt>
      <trkpt lat="43.286083" lon="-4.218017">
        <ele>1019.0</ele>
        <time>2015-05-23T15:50:33Z</time>
      </trkpt>
      <trkpt lat="43.286183" lon="-4.218033">
        <ele>1018.0</ele>
        <time>2015-05-23T15:50:34Z</time>
      </trkpt>
      <trkpt lat="43.286267" lon="-4.218067">
        <ele>1018.0</ele>
        <time>2015-05-23T15:50:35Z</time>
      </trkpt>
      <trkpt lat="43.286350" lon="-4.218083">
        <ele>1018.0</ele>
        <time>2015-05-23T15:50:36Z</time>
      </trkpt>
      <trkpt lat="43.286433" lon="-4.218100">
        <ele>1017.0</ele>
        <time>2015-05-23T15:50:37Z</time>
      </trkpt>
      <trkpt lat="43.286517" lon="-4.218100">
        <ele>1017.0</ele>
        <time>2015-05-23T15:50:38Z</time>
      </trkpt>
      <trkpt lat="43.286600" lon="-4.218117">
        <ele>1016.0</ele>
        <time>2015-05-23T15:50:39Z</time>
      </trkpt>
      <trkpt lat="43.286683" lon="-4.218117">
        <ele>1016.0</ele>
        <time>2015-05-23T15:50:40Z</time>
      </trkpt>
      <trkpt lat="43.286767" lon="-4.218150">
        <ele>1015.0</ele>
        <time>2015-05-23T15:50:41Z</time>
      </trkpt>
      <trkpt lat="43.286833" lon="-4.218167">
        <ele>1015.0</ele>
        <time>2015-05-23T15:50:42Z</time>
      </trkpt>
      <trkpt lat="43.286900" lon="-4.218200">
        <ele>1014.0</ele>
        <time>2015-05-23T15:50:43Z</time>
      </trkpt>
      <trkpt lat="43.286983" lon="-4.218217">
        <ele>1014.0</ele>
        <time>2015-05-23T15:50:44Z</time>
      </trkpt>
      <trkpt lat="43.287050" lon="-4.218250">
        <ele>1012.0</ele>
        <time>2015-05-23T15:50:45Z</time>
      </trkpt>
      <trkpt lat="43.287133" lon="-4.218267">
        <ele>1011.0</ele>
        <time>2015-05-23T15:50:46Z</time>
      </trkpt>
      <trkpt lat="43.287217" lon="-4.218300">
        <ele>1010.0</ele>
        <time>2015-05-23T15:50:47Z</time>
      </trkpt>
      <trkpt lat="43.287283" lon="-4.218333">
        <ele>1010.0</ele>
        <time>2015-05-23T15:50:48Z</time>
      </trkpt>
      <trkpt lat="43.287367" lon="-4.218367">
        <ele>1009.0</ele>
        <time>2015-05-23T15:50:49Z</time>
      </trkpt>
      <trkpt lat="43.287450" lon="-4.218400">
        <ele>1008.0</ele>
        <time>2015-05-23T15:50:50Z</time>
      </trkpt>
      <trkpt lat="43.287517" lon="-4.218450">
        <ele>1008.0</ele>
        <time>2015-05-23T15:50:51Z</time>
      </trkpt>
      <trkpt lat="43.287600" lon="-4.218500">
        <ele>1007.0</ele>
        <time>2015-05-23T15:50:52Z</time>
      </trkpt>
      <trkpt lat="43.287700" lon="-4.218583">
        <ele>1007.0</ele>
        <time>2015-05-23T15:50:53Z</time>
      </trkpt>
      <trkpt lat="43.287783" lon="-4.218617">
        <ele>1004.0</ele>
        <time>2015-05-23T15:50:54Z</time>
      </trkpt>
      <trkpt lat="43.287850" lon="-4.218633">
        <ele>1003.0</ele>
        <time>2015-05-23T15:50:55Z</time>
      </trkpt>
      <trkpt lat="43.287933" lon="-4.218667">
        <ele>1003.0</ele>
        <time>2015-05-23T15:50:56Z</time>
      </trkpt>
      <trkpt lat="43.288000" lon="-4.218700">
        <ele>1002.0</ele>
        <time>2015-05-23T15:50:57Z</time>
      </trkpt>
      <trkpt lat="43.288067" lon="-4.218733">
        <ele>1002.0</ele>
        <time>2015-05-23T15:50:58Z</time>
      </trkpt>
      <trkpt lat="43.288150" lon="-4.218767">
        <ele>1001.0</ele>
        <time>2015-05-23T15:50:59Z</time>
      </trkpt>
      <trkpt lat="43.288217" lon="-4.218783">
        <ele>1000.0</ele>
        <time>2015-05-23T15:51:00Z</time>
      </trkpt>
      <trkpt lat="43.288300" lon="-4.218817">
        <ele>999.0</ele>
        <time>2015-05-23T15:51:01Z</time>
      </trkpt>
      <trkpt lat="43.288383" lon="-4.218867">
        <ele>998.0</ele>
        <time>2015-05-23T15:51:02Z</time>
      </trkpt>
      <trkpt lat="43.288483" lon="-4.218917">
        <ele>997.0</ele>
        <time>2015-05-23T15:51:03Z</time>
      </trkpt>
      <trkpt lat="43.288567" lon="-4.218967">
        <ele>996.0</ele>
        <time>2015-05-23T15:51:04Z</time>
      </trkpt>
      <trkpt lat="43.288650" lon="-4.219000">
        <ele>995.0</ele>
        <time>2015-05-23T15:51:05Z</time>
      </trkpt>
      <trkpt lat="43.288717" lon="-4.219033">
        <ele>994.0</ele>
        <time>2015-05-23T15:51:06Z</time>
      </trkpt>
      <trkpt lat="43.288783" lon="-4.219050">
        <ele>993.0</ele>
        <time>2015-05-23T15:51:07Z</time>
      </trkpt>
      <trkpt lat="43.288850" lon="-4.219083">
        <ele>992.0</ele>
        <time>2015-05-23T15:51:08Z</time>
      </trkpt>
      <trkpt lat="43.288917" lon="-4.219117">
        <ele>991.0</ele>
        <time>2015-05-23T15:51:09Z</time>
      </trkpt>
      <trkpt lat="43.289000" lon="-4.219133">
        <ele>990.0</ele>
        <time>2015-05-23T15:51:10Z</time>
      </trkpt>
      <trkpt lat="43.289083" lon="-4.219167">
        <ele>989.0</ele>
        <time>2015-05-23T15:51:11Z</time>
      </trkpt>
      <trkpt lat="43.289150" lon="-4.219183">
        <ele>989.0</ele>
        <time>2015-05-23T15:51:12Z</time>
      </trkpt>
      <trkpt lat="43.289217" lon="-4.219217">
        <ele>988.0</ele>
        <time>2015-05-23T15:51:13Z</time>
      </trkpt>
      <trkpt lat="43.289300" lon="-4.219233">
        <ele>987.0</ele>
        <time>2015-05-23T15:51:14Z</time>
      </trkpt>
      <trkpt lat="43.289383" lon="-4.219267">
        <ele>987.0</ele>
        <time>2015-05-23T15:51:15Z</time>
      </trkpt>
      <trkpt lat="43.289450" lon="-4.219300">
        <ele>986.0</ele>
        <time>2015-05-23T15:51:16Z</time>
      </trkpt>
      <trkpt lat="43.289517" lon="-4.219333">
        <ele>986.0</ele>
        <time>2015-05-23T15:51:17Z</time>
      </trkpt>
      <trkpt lat="43.289583" lon="-4.219367">
        <ele>985.0</ele>
        <time>2015-05-23T15:51:18Z</time>
      </trkpt>
      <trkpt lat="43.289667" lon="-4.219417">
        <ele>984.0</ele>
        <time>2015-05-23T15:51:19Z</time>
      </trkpt>
      <trkpt lat="43.289733" lon="-4.219450">
        <ele>984.0</ele>
        <time>2015-05-23T15:51:20Z</time>
      </trkpt>
      <trkpt lat="43.289800" lon="-4.219483">
        <ele>983.0</ele>
        <time>2015-05-23T15:51:21Z</time>
      </trkpt>
      <trkpt lat="43.289867" lon="-4.219517">
        <ele>982.0</ele>
        <time>2015-05-23T15:51:22Z</time>
      </trkpt>
      <trkpt lat="43.289950" lon="-4.219550">
        <ele>981.0</ele>
        <time>2015-05-23T15:51:23Z</time>
      </trkpt>
      <trkpt lat="43.290033" lon="-4.219600">
        <ele>981.0</ele>
        <time>2015-05-23T15:51:24Z</time>
      </trkpt>
      <trkpt lat="43.290100" lon="-4.219650">
        <ele>979.0</ele>
        <time>2015-05-23T15:51:25Z</time>
      </trkpt>
      <trkpt lat="43.290183" lon="-4.219700">
        <ele>978.0</ele>
        <time>2015-05-23T15:51:26Z</time>
      </trkpt>
      <trkpt lat="43.290250" lon="-4.219733">
        <ele>976.0</ele>
        <time>2015-05-23T15:51:27Z</time>
      </trkpt>
      <trkpt lat="43.290333" lon="-4.219783">
        <ele>975.0</ele>
        <time>2015-05-23T15:51:28Z</time>
      </trkpt>
      <trkpt lat="43.290417" lon="-4.219833">
        <ele>973.0</ele>
        <time>2015-05-23T15:51:29Z</time>
      </trkpt>
      <trkpt lat="43.290483" lon="-4.219883">
        <ele>972.0</ele>
        <time>2015-05-23T15:51:30Z</time>
      </trkpt>
      <trkpt lat="43.290550" lon="-4.219933">
        <ele>971.0</ele>
        <time>2015-05-23T15:51:31Z</time>
      </trkpt>
      <trkpt lat="43.290617" lon="-4.219983">
        <ele>969.0</ele>
        <time>2015-05-23T15:51:32Z</time>
      </trkpt>
      <trkpt lat="43.290700" lon="-4.220017">
        <ele>967.0</ele>
        <time>2015-05-23T15:51:33Z</time>
      </trkpt>
      <trkpt lat="43.290767" lon="-4.220067">
        <ele>965.0</ele>
        <time>2015-05-23T15:51:34Z</time>
      </trkpt>
      <trkpt lat="43.290833" lon="-4.220100">
        <ele>963.0</ele>
        <time>2015-05-23T15:51:35Z</time>
      </trkpt>
      <trkpt lat="43.290917" lon="-4.220150">
        <ele>962.0</ele>
        <time>2015-05-23T15:51:36Z</time>
      </trkpt>
      <trkpt lat="43.290983" lon="-4.220200">
        <ele>960.0</ele>
        <time>2015-05-23T15:51:37Z</time>
      </trkpt>
      <trkpt lat="43.291050" lon="-4.220250">
        <ele>958.0</ele>
        <time>2015-05-23T15:51:38Z</time>
      </trkpt>
      <trkpt lat="43.291100" lon="-4.220283">
        <ele>956.0</ele>
        <time>2015-05-23T15:51:39Z</time>
      </trkpt>
      <trkpt lat="43.291167" lon="-4.220317">
        <ele>954.0</ele>
        <time>2015-05-23T15:51:40Z</time>
      </trkpt>
      <trkpt lat="43.291217" lon="-4.220317">
        <ele>952.0</ele>
        <time>2015-05-23T15:51:41Z</time>
      </trkpt>
      <trkpt lat="43.291267" lon="-4.220333">
        <ele>950.0</ele>
        <time>2015-05-23T15:51:42Z</time>
      </trkpt>
      <trkpt lat="43.291333" lon="-4.220333">
        <ele>948.0</ele>
        <time>2015-05-23T15:51:43Z</time>
      </trkpt>
      <trkpt lat="43.291383" lon="-4.220333">
        <ele>946.0</ele>
        <time>2015-05-23T15:51:44Z</time>
      </trkpt>
      <trkpt lat="43.291433" lon="-4.220333">
        <ele>945.0</ele>
        <time>2015-05-23T15:51:45Z</time>
      </trkpt>
      <trkpt lat="43.291483" lon="-4.220350">
        <ele>943.0</ele>
        <time>2015-05-23T15:51:46Z</time>
      </trkpt>
      <trkpt lat="43.291550" lon="-4.220367">
        <ele>940.0</ele>
        <time>2015-05-23T15:51:47Z</time>
      </trkpt>
      <trkpt lat="43.291600" lon="-4.220383">
        <ele>938.0</ele>
        <time>2015-05-23T15:51:48Z</time>
      </trkpt>
      <trkpt lat="43.291633" lon="-4.220400">
        <ele>936.0</ele>
        <time>2015-05-23T15:51:49Z</time>
      </trkpt>
      <trkpt lat="43.291667" lon="-4.220417">
        <ele>934.0</ele>
        <time>2015-05-23T15:51:50Z</time>
      </trkpt>
      <trkpt lat="43.291717" lon="-4.220433">
        <ele>932.0</ele>
        <time>2015-05-23T15:51:51Z</time>
      </trkpt>
      <trkpt lat="43.291750" lon="-4.220433">
        <ele>930.0</ele>
        <time>2015-05-23T15:51:52Z</time>
      </trkpt>
      <trkpt lat="43.291783" lon="-4.220433">
        <ele>928.0</ele>
        <time>2015-05-23T15:51:53Z</time>
      </trkpt>
      <trkpt lat="43.291817" lon="-4.220417">
        <ele>927.0</ele>
        <time>2015-05-23T15:51:54Z</time>
      </trkpt>
      <trkpt lat="43.291883" lon="-4.220367">
        <ele>924.0</ele>
        <time>2015-05-23T15:51:55Z</time>
      </trkpt>
      <trkpt lat="43.291917" lon="-4.220350">
        <ele>922.0</ele>
        <time>2015-05-23T15:51:56Z</time>
      </trkpt>
      <trkpt lat="43.291967" lon="-4.220333">
        <ele>921.0</ele>
        <time>2015-05-23T15:51:57Z</time>
      </trkpt>
      <trkpt lat="43.292033" lon="-4.220333">
        <ele>919.0</ele>
        <time>2015-05-23T15:51:58Z</time>
      </trkpt>
      <trkpt lat="43.292100" lon="-4.220300">
        <ele>917.0</ele>
        <time>2015-05-23T15:51:59Z</time>
      </trkpt>
      <trkpt lat="43.292167" lon="-4.220300">
        <ele>914.0</ele>
        <time>2015-05-23T15:52:00Z</time>
      </trkpt>
      <trkpt lat="43.292250" lon="-4.220283">
        <ele>912.0</ele>
        <time>2015-05-23T15:52:01Z</time>
      </trkpt>
      <trkpt lat="43.292317" lon="-4.220283">
        <ele>911.0</ele>
        <time>2015-05-23T15:52:02Z</time>
      </trkpt>
      <trkpt lat="43.292383" lon="-4.220300">
        <ele>909.0</ele>
        <time>2015-05-23T15:52:03Z</time>
      </trkpt>
      <trkpt lat="43.292450" lon="-4.220317">
        <ele>908.0</ele>
        <time>2015-05-23T15:52:04Z</time>
      </trkpt>
      <trkpt lat="43.292533" lon="-4.220333">
        <ele>907.0</ele>
        <time>2015-05-23T15:52:05Z</time>
      </trkpt>
      <trkpt lat="43.292600" lon="-4.220350">
        <ele>905.0</ele>
        <time>2015-05-23T15:52:06Z</time>
      </trkpt>
      <trkpt lat="43.292650" lon="-4.220350">
        <ele>904.0</ele>
        <time>2015-05-23T15:52:07Z</time>
      </trkpt>
      <trkpt lat="43.292717" lon="-4.220350">
        <ele>903.0</ele>
        <time>2015-05-23T15:52:08Z</time>
      </trkpt>
      <trkpt lat="43.292783" lon="-4.220350">
        <ele>902.0</ele>
        <time>2015-05-23T15:52:09Z</time>
      </trkpt>
      <trkpt lat="43.292850" lon="-4.220367">
        <ele>900.0</ele>
        <time>2015-05-23T15:52:10Z</time>
      </trkpt>
      <trkpt lat="43.292917" lon="-4.220383">
        <ele>899.0</ele>
        <time>2015-05-23T15:52:11Z</time>
      </trkpt>
      <trkpt lat="43.292967" lon="-4.220400">
        <ele>898.0</ele>
        <time>2015-05-23T15:52:12Z</time>
      </trkpt>
      <trkpt lat="43.293033" lon="-4.220400">
        <ele>897.0</ele>
        <time>2015-05-23T15:52:13Z</time>
      </trkpt>
      <trkpt lat="43.293067" lon="-4.220400">
        <ele>896.0</ele>
        <time>2015-05-23T15:52:14Z</time>
      </trkpt>
      <trkpt lat="43.293100" lon="-4.220417">
        <ele>896.0</ele>
        <time>2015-05-23T15:52:15Z</time>
      </trkpt>
      <trkpt lat="43.293150" lon="-4.220450">
        <ele>896.0</ele>
        <time>2015-05-23T15:52:16Z</time>
      </trkpt>
      <trkpt lat="43.293200" lon="-4.220500">
        <ele>895.0</ele>
        <time>2015-05-23T15:52:17Z</time>
      </trkpt>
      <trkpt lat="43.293250" lon="-4.220567">
        <ele>895.0</ele>
        <time>2015-05-23T15:52:18Z</time>
      </trkpt>
      <trkpt lat="43.293300" lon="-4.220617">
        <ele>895.0</ele>
        <time>2015-05-23T15:52:19Z</time>
      </trkpt>
      <trkpt lat="43.293300" lon="-4.220667">
        <ele>895.0</ele>
        <time>2015-05-23T15:52:20Z</time>
      </trkpt>
      <trkpt lat="43.293333" lon="-4.220733">
        <ele>894.0</ele>
        <time>2015-05-23T15:52:21Z</time>
      </trkpt>
      <trkpt lat="43.293367" lon="-4.220800">
        <ele>893.0</ele>
        <time>2015-05-23T15:52:22Z</time>
      </trkpt>
      <trkpt lat="43.293383" lon="-4.220883">
        <ele>892.0</ele>
        <time>2015-05-23T15:52:23Z</time>
      </trkpt>
      <trkpt lat="43.293417" lon="-4.220950">
        <ele>891.0</ele>
        <time>2015-05-23T15:52:24Z</time>
      </trkpt>
      <trkpt lat="43.293467" lon="-4.221017">
        <ele>890.0</ele>
        <time>2015-05-23T15:52:25Z</time>
      </trkpt>
      <trkpt lat="43.293500" lon="-4.221067">
        <ele>889.0</ele>
        <time>2015-05-23T15:52:26Z</time>
      </trkpt>
      <trkpt lat="43.293550" lon="-4.221100">
        <ele>888.0</ele>
        <time>2015-05-23T15:52:27Z</time>
      </trkpt>
      <trkpt lat="43.293583" lon="-4.221150">
        <ele>887.0</ele>
        <time>2015-05-23T15:52:28Z</time>
      </trkpt>
      <trkpt lat="43.293633" lon="-4.221217">
        <ele>886.0</ele>
        <time>2015-05-23T15:52:29Z</time>
      </trkpt>
      <trkpt lat="43.293683" lon="-4.221283">
        <ele>885.0</ele>
        <time>2015-05-23T15:52:30Z</time>
      </trkpt>
      <trkpt lat="43.293733" lon="-4.221333">
        <ele>884.0</ele>
        <time>2015-05-23T15:52:31Z</time>
      </trkpt>
      <trkpt lat="43.293783" lon="-4.221383">
        <ele>883.0</ele>
        <time>2015-05-23T15:52:32Z</time>
      </trkpt>
      <trkpt lat="43.293850" lon="-4.221433">
        <ele>882.0</ele>
        <time>2015-05-23T15:52:33Z</time>
      </trkpt>
      <trkpt lat="43.293900" lon="-4.221483">
        <ele>881.0</ele>
        <time>2015-05-23T15:52:34Z</time>
      </trkpt>
      <trkpt lat="43.293967" lon="-4.221533">
        <ele>880.0</ele>
        <time>2015-05-23T15:52:35Z</time>
      </trkpt>
      <trkpt lat="43.294033" lon="-4.221583">
        <ele>883.0</ele>
        <time>2015-05-23T15:52:36Z</time>
      </trkpt>
      <trkpt lat="43.294083" lon="-4.221633">
        <ele>884.0</ele>
        <time>2015-05-23T15:52:37Z</time>
      </trkpt>
      <trkpt lat="43.294133" lon="-4.221700">
        <ele>884.0</ele>
        <time>2015-05-23T15:52:38Z</time>
      </trkpt>
      <trkpt lat="43.294217" lon="-4.221750">
        <ele>884.0</ele>
        <time>2015-05-23T15:52:39Z</time>
      </trkpt>
      <trkpt lat="43.294267" lon="-4.221817">
        <ele>884.0</ele>
        <time>2015-05-23T15:52:40Z</time>
      </trkpt>
      <trkpt lat="43.294333" lon="-4.221867">
        <ele>883.0</ele>
        <time>2015-05-23T15:52:41Z</time>
      </trkpt>
      <trkpt lat="43.294383" lon="-4.221900">
        <ele>883.0</ele>
        <time>2015-05-23T15:52:42Z</time>
      </trkpt>
      <trkpt lat="43.294433" lon="-4.221950">
        <ele>883.0</ele>
        <time>2015-05-23T15:52:43Z</time>
      </trkpt>
      <trkpt lat="43.294467" lon="-4.222017">
        <ele>883.0</ele>
        <time>2015-05-23T15:52:44Z</time>
      </trkpt>
      <trkpt lat="43.294517" lon="-4.222083">
        <ele>883.0</ele>
        <time>2015-05-23T15:52:45Z</time>
      </trkpt>
      <trkpt lat="43.294567" lon="-4.222150">
        <ele>882.0</ele>
        <time>2015-05-23T15:52:46Z</time>
      </trkpt>
      <trkpt lat="43.294617" lon="-4.222217">
        <ele>882.0</ele>
        <time>2015-05-23T15:52:47Z</time>
      </trkpt>
      <trkpt lat="43.294650" lon="-4.222283">
        <ele>882.0</ele>
        <time>2015-05-23T15:52:48Z</time>
      </trkpt>
      <trkpt lat="43.294700" lon="-4.222350">
        <ele>881.0</ele>
        <time>2015-05-23T15:52:49Z</time>
      </trkpt>
      <trkpt lat="43.294733" lon="-4.222417">
        <ele>881.0</ele>
        <time>2015-05-23T15:52:50Z</time>
      </trkpt>
      <trkpt lat="43.294767" lon="-4.222500">
        <ele>881.0</ele>
        <time>2015-05-23T15:52:51Z</time>
      </trkpt>
      <trkpt lat="43.294817" lon="-4.222567">
        <ele>880.0</ele>
        <time>2015-05-23T15:52:52Z</time>
      </trkpt>
      <trkpt lat="43.294867" lon="-4.222633">
        <ele>880.0</ele>
        <time>2015-05-23T15:52:53Z</time>
      </trkpt>
      <trkpt lat="43.294917" lon="-4.222683">
        <ele>879.0</ele>
        <time>2015-05-23T15:52:54Z</time>
      </trkpt>
      <trkpt lat="43.294983" lon="-4.222750">
        <ele>879.0</ele>
        <time>2015-05-23T15:52:55Z</time>
      </trkpt>
      <trkpt lat="43.295050" lon="-4.222800">
        <ele>878.0</ele>
        <time>2015-05-23T15:52:56Z</time>
      </trkpt>
      <trkpt lat="43.295133" lon="-4.222850">
        <ele>877.0</ele>
        <time>2015-05-23T15:52:57Z</time>
      </trkpt>
      <trkpt lat="43.295183" lon="-4.222900">
        <ele>876.0</ele>
        <time>2015-05-23T15:52:58Z</time>
      </trkpt>
      <trkpt lat="43.295250" lon="-4.222950">
        <ele>876.0</ele>
        <time>2015-05-23T15:52:59Z</time>
      </trkpt>
      <trkpt lat="43.295300" lon="-4.223000">
        <ele>875.0</ele>
        <time>2015-05-23T15:53:00Z</time>
      </trkpt>
      <trkpt lat="43.295350" lon="-4.223050">
        <ele>875.0</ele>
        <time>2015-05-23T15:53:01Z</time>
      </trkpt>
      <trkpt lat="43.295417" lon="-4.223117">
        <ele>875.0</ele>
        <time>2015-05-23T15:53:02Z</time>
      </trkpt>
      <trkpt lat="43.295467" lon="-4.223183">
        <ele>874.0</ele>
        <time>2015-05-23T15:53:03Z</time>
      </trkpt>
      <trkpt lat="43.295517" lon="-4.223250">
        <ele>874.0</ele>
        <time>2015-05-23T15:53:04Z</time>
      </trkpt>
      <trkpt lat="43.295567" lon="-4.223317">
        <ele>873.0</ele>
        <time>2015-05-23T15:53:05Z</time>
      </trkpt>
      <trkpt lat="43.295617" lon="-4.223383">
        <ele>873.0</ele>
        <time>2015-05-23T15:53:06Z</time>
      </trkpt>
      <trkpt lat="43.295683" lon="-4.223433">
        <ele>872.0</ele>
        <time>2015-05-23T15:53:07Z</time>
      </trkpt>
      <trkpt lat="43.295733" lon="-4.223483">
        <ele>872.0</ele>
        <time>2015-05-23T15:53:08Z</time>
      </trkpt>
      <trkpt lat="43.295783" lon="-4.223550">
        <ele>871.0</ele>
        <time>2015-05-23T15:53:09Z</time>
      </trkpt>
      <trkpt lat="43.295833" lon="-4.223600">
        <ele>870.0</ele>
        <time>2015-05-23T15:53:10Z</time>
      </trkpt>
      <trkpt lat="43.295883" lon="-4.223667">
        <ele>870.0</ele>
        <time>2015-05-23T15:53:11Z</time>
      </trkpt>
      <trkpt lat="43.295933" lon="-4.223700">
        <ele>869.0</ele>
        <time>2015-05-23T15:53:12Z</time>
      </trkpt>
      <trkpt lat="43.295967" lon="-4.223733">
        <ele>869.0</ele>
        <time>2015-05-23T15:53:13Z</time>
      </trkpt>
      <trkpt lat="43.295983" lon="-4.223733">
        <ele>869.0</ele>
        <time>2015-05-23T15:53:14Z</time>
      </trkpt>
      <trkpt lat="43.296000" lon="-4.223733">
        <ele>868.0</ele>
        <time>2015-05-23T15:53:15Z</time>
      </trkpt>
      <trkpt lat="43.296017" lon="-4.223733">
        <ele>868.0</ele>
        <time>2015-05-23T15:53:16Z</time>
      </trkpt>
      <trkpt lat="43.296050" lon="-4.223733">
        <ele>868.0</ele>
        <time>2015-05-23T15:53:17Z</time>
      </trkpt>
      <trkpt lat="43.296083" lon="-4.223700">
        <ele>868.0</ele>
        <time>2015-05-23T15:53:18Z</time>
      </trkpt>
      <trkpt lat="43.296117" lon="-4.223650">
        <ele>867.0</ele>
        <time>2015-05-23T15:53:19Z</time>
      </trkpt>
      <trkpt lat="43.296133" lon="-4.223583">
        <ele>867.0</ele>
        <time>2015-05-23T15:53:20Z</time>
      </trkpt>
      <trkpt lat="43.296150" lon="-4.223517">
        <ele>867.0</ele>
        <time>2015-05-23T15:53:21Z</time>
      </trkpt>
      <trkpt lat="43.296150" lon="-4.223467">
        <ele>867.0</ele>
        <time>2015-05-23T15:53:22Z</time>
      </trkpt>
      <trkpt lat="43.296117" lon="-4.223383">
        <ele>867.0</ele>
        <time>2015-05-23T15:53:23Z</time>
      </trkpt>
      <trkpt lat="43.296083" lon="-4.223300">
        <ele>866.0</ele>
        <time>2015-05-23T15:53:24Z</time>
      </trkpt>
      <trkpt lat="43.296050" lon="-4.223217">
        <ele>866.0</ele>
        <time>2015-05-23T15:53:25Z</time>
      </trkpt>
      <trkpt lat="43.296000" lon="-4.223150">
        <ele>866.0</ele>
        <time>2015-05-23T15:53:26Z</time>
      </trkpt>
      <trkpt lat="43.295917" lon="-4.223100">
        <ele>866.0</ele>
        <time>2015-05-23T15:53:27Z</time>
      </trkpt>
      <trkpt lat="43.295850" lon="-4.223067">
        <ele>865.0</ele>
        <time>2015-05-23T15:53:28Z</time>
      </trkpt>
      <trkpt lat="43.295767" lon="-4.223050">
        <ele>865.0</ele>
        <time>2015-05-23T15:53:29Z</time>
      </trkpt>
      <trkpt lat="43.295683" lon="-4.223050">
        <ele>865.0</ele>
        <time>2015-05-23T15:53:30Z</time>
      </trkpt>
      <trkpt lat="43.295583" lon="-4.223033">
        <ele>864.0</ele>
        <time>2015-05-23T15:53:31Z</time>
      </trkpt>
      <trkpt lat="43.295500" lon="-4.223033">
        <ele>864.0</ele>
        <time>2015-05-23T15:53:32Z</time>
      </trkpt>
      <trkpt lat="43.295417" lon="-4.223017">
        <ele>864.0</ele>
        <time>2015-05-23T15:53:33Z</time>
      </trkpt>
      <trkpt lat="43.295333" lon="-4.223033">
        <ele>864.0</ele>
        <time>2015-05-23T15:53:34Z</time>
      </trkpt>
      <trkpt lat="43.295233" lon="-4.223033">
        <ele>864.0</ele>
        <time>2015-05-23T15:53:35Z</time>
      </trkpt>
      <trkpt lat="43.295150" lon="-4.223067">
        <ele>863.0</ele>
        <time>2015-05-23T15:53:36Z</time>
      </trkpt>
      <trkpt lat="43.295067" lon="-4.223117">
        <ele>863.0</ele>
        <time>2015-05-23T15:53:37Z</time>
      </trkpt>
      <trkpt lat="43.294983" lon="-4.223167">
        <ele>863.0</ele>
        <time>2015-05-23T15:53:38Z</time>
      </trkpt>
      <trkpt lat="43.294900" lon="-4.223217">
        <ele>862.0</ele>
        <time>2015-05-23T15:53:39Z</time>
      </trkpt>
      <trkpt lat="43.294800" lon="-4.223267">
        <ele>862.0</ele>
        <time>2015-05-23T15:53:40Z</time>
      </trkpt>
      <trkpt lat="43.294717" lon="-4.223333">
        <ele>861.0</ele>
        <time>2015-05-23T15:53:41Z</time>
      </trkpt>
      <trkpt lat="43.294633" lon="-4.223383">
        <ele>860.0</ele>
        <time>2015-05-23T15:53:42Z</time>
      </trkpt>
      <trkpt lat="43.294567" lon="-4.223450">
        <ele>860.0</ele>
        <time>2015-05-23T15:53:43Z</time>
      </trkpt>
      <trkpt lat="43.294500" lon="-4.223533">
        <ele>860.0</ele>
        <time>2015-05-23T15:53:44Z</time>
      </trkpt>
      <trkpt lat="43.294417" lon="-4.223617">
        <ele>860.0</ele>
        <time>2015-05-23T15:53:45Z</time>
      </trkpt>
      <trkpt lat="43.294350" lon="-4.223700">
        <ele>859.0</ele>
        <time>2015-05-23T15:53:46Z</time>
      </trkpt>
      <trkpt lat="43.294300" lon="-4.223800">
        <ele>859.0</ele>
        <time>2015-05-23T15:53:47Z</time>
      </trkpt>
      <trkpt lat="43.294233" lon="-4.223883">
        <ele>858.0</ele>
        <time>2015-05-23T15:53:48Z</time>
      </trkpt>
      <trkpt lat="43.294183" lon="-4.223967">
        <ele>857.0</ele>
        <time>2015-05-23T15:53:49Z</time>
      </trkpt>
      <trkpt lat="43.294150" lon="-4.224050">
        <ele>856.0</ele>
        <time>2015-05-23T15:53:50Z</time>
      </trkpt>
      <trkpt lat="43.294100" lon="-4.224150">
        <ele>854.0</ele>
        <time>2015-05-23T15:53:51Z</time>
      </trkpt>
      <trkpt lat="43.294083" lon="-4.224267">
        <ele>852.0</ele>
        <time>2015-05-23T15:53:52Z</time>
      </trkpt>
      <trkpt lat="43.294067" lon="-4.224383">
        <ele>850.0</ele>
        <time>2015-05-23T15:53:53Z</time>
      </trkpt>
      <trkpt lat="43.294067" lon="-4.224500">
        <ele>847.0</ele>
        <time>2015-05-23T15:53:54Z</time>
      </trkpt>
      <trkpt lat="43.294100" lon="-4.224633">
        <ele>843.0</ele>
        <time>2015-05-23T15:53:55Z</time>
      </trkpt>
      <trkpt lat="43.294133" lon="-4.224750">
        <ele>839.0</ele>
        <time>2015-05-23T15:53:56Z</time>
      </trkpt>
      <trkpt lat="43.294183" lon="-4.224867">
        <ele>838.0</ele>
        <time>2015-05-23T15:53:57Z</time>
      </trkpt>
      <trkpt lat="43.294217" lon="-4.224950">
        <ele>836.0</ele>
        <time>2015-05-23T15:53:58Z</time>
      </trkpt>
      <trkpt lat="43.294250" lon="-4.225017">
        <ele>839.0</ele>
        <time>2015-05-23T15:53:59Z</time>
      </trkpt>
      <trkpt lat="43.294300" lon="-4.225083">
        <ele>838.0</ele>
        <time>2015-05-23T15:54:00Z</time>
      </trkpt>
      <trkpt lat="43.294350" lon="-4.225167">
        <ele>837.0</ele>
        <time>2015-05-23T15:54:01Z</time>
      </trkpt>
      <trkpt lat="43.294417" lon="-4.225250">
        <ele>835.0</ele>
        <time>2015-05-23T15:54:02Z</time>
      </trkpt>
      <trkpt lat="43.294467" lon="-4.225317">
        <ele>834.0</ele>
        <time>2015-05-23T15:54:03Z</time>
      </trkpt>
      <trkpt lat="43.294517" lon="-4.225367">
        <ele>833.0</ele>
        <time>2015-05-23T15:54:04Z</time>
      </trkpt>
      <trkpt lat="43.294567" lon="-4.225417">
        <ele>833.0</ele>
        <time>2015-05-23T15:54:05Z</time>
      </trkpt>
      <trkpt lat="43.294600" lon="-4.225450">
        <ele>833.0</ele>
        <time>2015-05-23T15:54:06Z</time>
      </trkpt>
      <trkpt lat="43.294650" lon="-4.225483">
        <ele>833.0</ele>
        <time>2015-05-23T15:54:07Z</time>
      </trkpt>
      <trkpt lat="43.294683" lon="-4.225500">
        <ele>834.0</ele>
        <time>2015-05-23T15:54:08Z</time>
      </trkpt>
      <trkpt lat="43.294717" lon="-4.225517">
        <ele>834.0</ele>
        <time>2015-05-23T15:54:09Z</time>
      </trkpt>
      <trkpt lat="43.294750" lon="-4.225550">
        <ele>834.0</ele>
        <time>2015-05-23T15:54:10Z</time>
      </trkpt>
      <trkpt lat="43.294783" lon="-4.225600">
        <ele>832.0</ele>
        <time>2015-05-23T15:54:11Z</time>
      </trkpt>
      <trkpt lat="43.294817" lon="-4.225633">
        <ele>831.0</ele>
        <time>2015-05-23T15:54:12Z</time>
      </trkpt>
      <trkpt lat="43.294867" lon="-4.225683">
        <ele>831.0</ele>
        <time>2015-05-23T15:54:13Z</time>
      </trkpt>
      <trkpt lat="43.294900" lon="-4.225717">
        <ele>830.0</ele>
        <time>2015-05-23T15:54:14Z</time>
      </trkpt>
      <trkpt lat="43.294933" lon="-4.225733">
        <ele>830.0</ele>
        <time>2015-05-23T15:54:15Z</time>
      </trkpt>
      <trkpt lat="43.294983" lon="-4.225750">
        <ele>829.0</ele>
        <time>2015-05-23T15:54:16Z</time>
      </trkpt>
      <trkpt lat="43.295033" lon="-4.225750">
        <ele>828.0</ele>
        <time>2015-05-23T15:54:17Z</time>
      </trkpt>
      <trkpt lat="43.295100" lon="-4.225767">
        <ele>827.0</ele>
        <time>2015-05-23T15:54:18Z</time>
      </trkpt>
      <trkpt lat="43.295167" lon="-4.225783">
        <ele>826.0</ele>
        <time>2015-05-23T15:54:19Z</time>
      </trkpt>
      <trkpt lat="43.295233" lon="-4.225833">
        <ele>825.0</ele>
        <time>2015-05-23T15:54:20Z</time>
      </trkpt>
      <trkpt lat="43.295300" lon="-4.225867">
        <ele>825.0</ele>
        <time>2015-05-23T15:54:21Z</time>
      </trkpt>
      <trkpt lat="43.295367" lon="-4.225917">
        <ele>827.0</ele>
        <time>2015-05-23T15:54:22Z</time>
      </trkpt>
      <trkpt lat="43.295417" lon="-4.225950">
        <ele>829.0</ele>
        <time>2015-05-23T15:54:23Z</time>
      </trkpt>
      <trkpt lat="43.295433" lon="-4.226000">
        <ele>830.0</ele>
        <time>2015-05-23T15:54:24Z</time>
      </trkpt>
      <trkpt lat="43.295433" lon="-4.226050">
        <ele>832.0</ele>
        <time>2015-05-23T15:54:25Z</time>
      </trkpt>
      <trkpt lat="43.295450" lon="-4.226117">
        <ele>833.0</ele>
        <time>2015-05-23T15:54:26Z</time>
      </trkpt>
      <trkpt lat="43.295450" lon="-4.226217">
        <ele>832.0</ele>
        <time>2015-05-23T15:54:27Z</time>
      </trkpt>
      <trkpt lat="43.295467" lon="-4.226333">
        <ele>831.0</ele>
        <time>2015-05-23T15:54:28Z</time>
      </trkpt>
      <trkpt lat="43.295467" lon="-4.226450">
        <ele>831.0</ele>
        <time>2015-05-23T15:54:29Z</time>
      </trkpt>
      <trkpt lat="43.295450" lon="-4.226567">
        <ele>832.0</ele>
        <time>2015-05-23T15:54:30Z</time>
      </trkpt>
      <trkpt lat="43.295400" lon="-4.226667">
        <ele>832.0</ele>
        <time>2015-05-23T15:54:31Z</time>
      </trkpt>
      <trkpt lat="43.295367" lon="-4.226767">
        <ele>832.0</ele>
        <time>2015-05-23T15:54:32Z</time>
      </trkpt>
      <trkpt lat="43.295333" lon="-4.226867">
        <ele>831.0</ele>
        <time>2015-05-23T15:54:33Z</time>
      </trkpt>
      <trkpt lat="43.295283" lon="-4.227000">
        <ele>831.0</ele>
        <time>2015-05-23T15:54:34Z</time>
      </trkpt>
      <trkpt lat="43.295250" lon="-4.227117">
        <ele>830.0</ele>
        <time>2015-05-23T15:54:35Z</time>
      </trkpt>
      <trkpt lat="43.295217" lon="-4.227250">
        <ele>828.0</ele>
        <time>2015-05-23T15:54:36Z</time>
      </trkpt>
      <trkpt lat="43.295200" lon="-4.227367">
        <ele>828.0</ele>
        <time>2015-05-23T15:54:37Z</time>
      </trkpt>
      <trkpt lat="43.295183" lon="-4.227467">
        <ele>827.0</ele>
        <time>2015-05-23T15:54:38Z</time>
      </trkpt>
      <trkpt lat="43.295183" lon="-4.227583">
        <ele>826.0</ele>
        <time>2015-05-23T15:54:39Z</time>
      </trkpt>
      <trkpt lat="43.295200" lon="-4.227683">
        <ele>825.0</ele>
        <time>2015-05-23T15:54:40Z</time>
      </trkpt>
      <trkpt lat="43.295217" lon="-4.227783">
        <ele>823.0</ele>
        <time>2015-05-23T15:54:41Z</time>
      </trkpt>
      <trkpt lat="43.295250" lon="-4.227883">
        <ele>820.0</ele>
        <time>2015-05-23T15:54:42Z</time>
      </trkpt>
      <trkpt lat="43.295300" lon="-4.227950">
        <ele>817.0</ele>
        <time>2015-05-23T15:54:43Z</time>
      </trkpt>
      <trkpt lat="43.295350" lon="-4.228017">
        <ele>815.0</ele>
        <time>2015-05-23T15:54:44Z</time>
      </trkpt>
      <trkpt lat="43.295417" lon="-4.228050">
        <ele>813.0</ele>
        <time>2015-05-23T15:54:45Z</time>
      </trkpt>
      <trkpt lat="43.295467" lon="-4.228083">
        <ele>812.0</ele>
        <time>2015-05-23T15:54:46Z</time>
      </trkpt>
      <trkpt lat="43.295517" lon="-4.228083">
        <ele>811.0</ele>
        <time>2015-05-23T15:54:47Z</time>
      </trkpt>
      <trkpt lat="43.295567" lon="-4.228100">
        <ele>810.0</ele>
        <time>2015-05-23T15:54:48Z</time>
      </trkpt>
      <trkpt lat="43.295617" lon="-4.228083">
        <ele>809.0</ele>
        <time>2015-05-23T15:54:49Z</time>
      </trkpt>
      <trkpt lat="43.295667" lon="-4.228067">
        <ele>810.0</ele>
        <time>2015-05-23T15:54:50Z</time>
      </trkpt>
      <trkpt lat="43.295733" lon="-4.228050">
        <ele>809.0</ele>
        <time>2015-05-23T15:54:51Z</time>
      </trkpt>
      <trkpt lat="43.295783" lon="-4.228017">
        <ele>808.0</ele>
        <time>2015-05-23T15:54:52Z</time>
      </trkpt>
      <trkpt lat="43.295850" lon="-4.228017">
        <ele>807.0</ele>
        <time>2015-05-23T15:54:53Z</time>
      </trkpt>
      <trkpt lat="43.295900" lon="-4.228000">
        <ele>806.0</ele>
        <time>2015-05-23T15:54:54Z</time>
      </trkpt>
      <trkpt lat="43.295967" lon="-4.228000">
        <ele>806.0</ele>
        <time>2015-05-23T15:54:55Z</time>
      </trkpt>
      <trkpt lat="43.296017" lon="-4.228017">
        <ele>805.0</ele>
        <time>2015-05-23T15:54:56Z</time>
      </trkpt>
      <trkpt lat="43.296083" lon="-4.228000">
        <ele>803.0</ele>
        <time>2015-05-23T15:54:57Z</time>
      </trkpt>
      <trkpt lat="43.296133" lon="-4.228017">
        <ele>802.0</ele>
        <time>2015-05-23T15:54:58Z</time>
      </trkpt>
      <trkpt lat="43.296200" lon="-4.228033">
        <ele>801.0</ele>
        <time>2015-05-23T15:54:59Z</time>
      </trkpt>
      <trkpt lat="43.296250" lon="-4.228050">
        <ele>800.0</ele>
        <time>2015-05-23T15:55:00Z</time>
      </trkpt>
      <trkpt lat="43.296300" lon="-4.228083">
        <ele>799.0</ele>
        <time>2015-05-23T15:55:01Z</time>
      </trkpt>
      <trkpt lat="43.296350" lon="-4.228117">
        <ele>798.0</ele>
        <time>2015-05-23T15:55:02Z</time>
      </trkpt>
      <trkpt lat="43.296400" lon="-4.228133">
        <ele>798.0</ele>
        <time>2015-05-23T15:55:03Z</time>
      </trkpt>
      <trkpt lat="43.296467" lon="-4.228167">
        <ele>797.0</ele>
        <time>2015-05-23T15:55:04Z</time>
      </trkpt>
      <trkpt lat="43.296533" lon="-4.228200">
        <ele>796.0</ele>
        <time>2015-05-23T15:55:05Z</time>
      </trkpt>
      <trkpt lat="43.296600" lon="-4.228250">
        <ele>795.0</ele>
        <time>2015-05-23T15:55:06Z</time>
      </trkpt>
      <trkpt lat="43.296650" lon="-4.228317">
        <ele>794.0</ele>
        <time>2015-05-23T15:55:07Z</time>
      </trkpt>
      <trkpt lat="43.296683" lon="-4.228350">
        <ele>794.0</ele>
        <time>2015-05-23T15:55:08Z</time>
      </trkpt>
      <trkpt lat="43.296733" lon="-4.228400">
        <ele>794.0</ele>
        <time>2015-05-23T15:55:09Z</time>
      </trkpt>
      <trkpt lat="43.296767" lon="-4.228450">
        <ele>794.0</ele>
        <time>2015-05-23T15:55:10Z</time>
      </trkpt>
      <trkpt lat="43.296800" lon="-4.228467">
        <ele>795.0</ele>
        <time>2015-05-23T15:55:11Z</time>
      </trkpt>
      <trkpt lat="43.296817" lon="-4.228483">
        <ele>795.0</ele>
        <time>2015-05-23T15:55:12Z</time>
      </trkpt>
      <trkpt lat="43.296833" lon="-4.228483">
        <ele>795.0</ele>
        <time>2015-05-23T15:55:13Z</time>
      </trkpt>
      <trkpt lat="43.296850" lon="-4.228500">
        <ele>796.0</ele>
        <time>2015-05-23T15:55:14Z</time>
      </trkpt>
      <trkpt lat="43.296867" lon="-4.228517">
        <ele>795.0</ele>
        <time>2015-05-23T15:55:15Z</time>
      </trkpt>
      <trkpt lat="43.296900" lon="-4.228550">
        <ele>794.0</ele>
        <time>2015-05-23T15:55:16Z</time>
      </trkpt>
      <trkpt lat="43.296933" lon="-4.228583">
        <ele>793.0</ele>
        <time>2015-05-23T15:55:17Z</time>
      </trkpt>
      <trkpt lat="43.296967" lon="-4.228633">
        <ele>793.0</ele>
        <time>2015-05-23T15:55:18Z</time>
      </trkpt>
      <trkpt lat="43.297000" lon="-4.228667">
        <ele>793.0</ele>
        <time>2015-05-23T15:55:19Z</time>
      </trkpt>
      <trkpt lat="43.297033" lon="-4.228700">
        <ele>792.0</ele>
        <time>2015-05-23T15:55:20Z</time>
      </trkpt>
      <trkpt lat="43.297067" lon="-4.228733">
        <ele>791.0</ele>
        <time>2015-05-23T15:55:21Z</time>
      </trkpt>
      <trkpt lat="43.297117" lon="-4.228783">
        <ele>790.0</ele>
        <time>2015-05-23T15:55:22Z</time>
      </trkpt>
      <trkpt lat="43.297167" lon="-4.228817">
        <ele>791.0</ele>
        <time>2015-05-23T15:55:23Z</time>
      </trkpt>
      <trkpt lat="43.297217" lon="-4.228867">
        <ele>791.0</ele>
        <time>2015-05-23T15:55:24Z</time>
      </trkpt>
      <trkpt lat="43.297250" lon="-4.228917">
        <ele>791.0</ele>
        <time>2015-05-23T15:55:25Z</time>
      </trkpt>
      <trkpt lat="43.297300" lon="-4.228950">
        <ele>790.0</ele>
        <time>2015-05-23T15:55:26Z</time>
      </trkpt>
      <trkpt lat="43.297333" lon="-4.228983">
        <ele>789.0</ele>
        <time>2015-05-23T15:55:27Z</time>
      </trkpt>
      <trkpt lat="43.297383" lon="-4.229017">
        <ele>788.0</ele>
        <time>2015-05-23T15:55:28Z</time>
      </trkpt>
      <trkpt lat="43.297450" lon="-4.229050">
        <ele>787.0</ele>
        <time>2015-05-23T15:55:29Z</time>
      </trkpt>
      <trkpt lat="43.297500" lon="-4.229117">
        <ele>786.0</ele>
        <time>2015-05-23T15:55:30Z</time>
      </trkpt>
      <trkpt lat="43.297567" lon="-4.229167">
        <ele>785.0</ele>
        <time>2015-05-23T15:55:31Z</time>
      </trkpt>
      <trkpt lat="43.297600" lon="-4.229217">
        <ele>786.0</ele>
        <time>2015-05-23T15:55:32Z</time>
      </trkpt>
      <trkpt lat="43.297650" lon="-4.229250">
        <ele>786.0</ele>
        <time>2015-05-23T15:55:33Z</time>
      </trkpt>
      <trkpt lat="43.297700" lon="-4.229283">
        <ele>785.0</ele>
        <time>2015-05-23T15:55:34Z</time>
      </trkpt>
      <trkpt lat="43.297767" lon="-4.229317">
        <ele>784.0</ele>
        <time>2015-05-23T15:55:35Z</time>
      </trkpt>
      <trkpt lat="43.297833" lon="-4.229367">
        <ele>783.0</ele>
        <time>2015-05-23T15:55:36Z</time>
      </trkpt>
      <trkpt lat="43.297917" lon="-4.229433">
        <ele>783.0</ele>
        <time>2015-05-23T15:55:37Z</time>
      </trkpt>
      <trkpt lat="43.297967" lon="-4.229483">
        <ele>783.0</ele>
        <time>2015-05-23T15:55:38Z</time>
      </trkpt>
      <trkpt lat="43.298017" lon="-4.229533">
        <ele>783.0</ele>
        <time>2015-05-23T15:55:39Z</time>
      </trkpt>
      <trkpt lat="43.298067" lon="-4.229567">
        <ele>783.0</ele>
        <time>2015-05-23T15:55:40Z</time>
      </trkpt>
      <trkpt lat="43.298100" lon="-4.229583">
        <ele>783.0</ele>
        <time>2015-05-23T15:55:41Z</time>
      </trkpt>
      <trkpt lat="43.298150" lon="-4.229617">
        <ele>783.0</ele>
        <time>2015-05-23T15:55:42Z</time>
      </trkpt>
      <trkpt lat="43.298183" lon="-4.229633">
        <ele>783.0</ele>
        <time>2015-05-23T15:55:43Z</time>
      </trkpt>
      <trkpt lat="43.298233" lon="-4.229667">
        <ele>783.0</ele>
        <time>2015-05-23T15:55:44Z</time>
      </trkpt>
      <trkpt lat="43.298283" lon="-4.229683">
        <ele>783.0</ele>
        <time>2015-05-23T15:55:45Z</time>
      </trkpt>
      <trkpt lat="43.298333" lon="-4.229717">
        <ele>782.0</ele>
        <time>2015-05-23T15:55:46Z</time>
      </trkpt>
      <trkpt lat="43.298383" lon="-4.229733">
        <ele>781.0</ele>
        <time>2015-05-23T15:55:47Z</time>
      </trkpt>
      <trkpt lat="43.298450" lon="-4.229750">
        <ele>780.0</ele>
        <time>2015-05-23T15:55:48Z</time>
      </trkpt>
      <trkpt lat="43.298517" lon="-4.229783">
        <ele>777.0</ele>
        <time>2015-05-23T15:55:49Z</time>
      </trkpt>
      <trkpt lat="43.298583" lon="-4.229817">
        <ele>775.0</ele>
        <time>2015-05-23T15:55:50Z</time>
      </trkpt>
      <trkpt lat="43.298650" lon="-4.229867">
        <ele>774.0</ele>
        <time>2015-05-23T15:55:51Z</time>
      </trkpt>
      <trkpt lat="43.298700" lon="-4.229933">
        <ele>773.0</ele>
        <time>2015-05-23T15:55:52Z</time>
      </trkpt>
      <trkpt lat="43.298750" lon="-4.229983">
        <ele>772.0</ele>
        <time>2015-05-23T15:55:53Z</time>
      </trkpt>
      <trkpt lat="43.298800" lon="-4.230033">
        <ele>769.0</ele>
        <time>2015-05-23T15:55:54Z</time>
      </trkpt>
      <trkpt lat="43.298867" lon="-4.230100">
        <ele>767.0</ele>
        <time>2015-05-23T15:55:55Z</time>
      </trkpt>
      <trkpt lat="43.298917" lon="-4.230167">
        <ele>765.0</ele>
        <time>2015-05-23T15:55:56Z</time>
      </trkpt>
      <trkpt lat="43.298967" lon="-4.230233">
        <ele>763.0</ele>
        <time>2015-05-23T15:55:57Z</time>
      </trkpt>
      <trkpt lat="43.299017" lon="-4.230300">
        <ele>765.0</ele>
        <time>2015-05-23T15:55:58Z</time>
      </trkpt>
      <trkpt lat="43.299067" lon="-4.230367">
        <ele>765.0</ele>
        <time>2015-05-23T15:55:59Z</time>
      </trkpt>
      <trkpt lat="43.299133" lon="-4.230450">
        <ele>764.0</ele>
        <time>2015-05-23T15:56:00Z</time>
      </trkpt>
      <trkpt lat="43.299200" lon="-4.230517">
        <ele>764.0</ele>
        <time>2015-05-23T15:56:01Z</time>
      </trkpt>
      <trkpt lat="43.299250" lon="-4.230600">
        <ele>763.0</ele>
        <time>2015-05-23T15:56:02Z</time>
      </trkpt>
      <trkpt lat="43.299317" lon="-4.230683">
        <ele>762.0</ele>
        <time>2015-05-23T15:56:03Z</time>
      </trkpt>
      <trkpt lat="43.299367" lon="-4.230767">
        <ele>761.0</ele>
        <time>2015-05-23T15:56:04Z</time>
      </trkpt>
      <trkpt lat="43.299417" lon="-4.230850">
        <ele>762.0</ele>
        <time>2015-05-23T15:56:05Z</time>
      </trkpt>
      <trkpt lat="43.299467" lon="-4.230917">
        <ele>762.0</ele>
        <time>2015-05-23T15:56:06Z</time>
      </trkpt>
      <trkpt lat="43.299517" lon="-4.230983">
        <ele>761.0</ele>
        <time>2015-05-23T15:56:07Z</time>
      </trkpt>
      <trkpt lat="43.299567" lon="-4.231033">
        <ele>762.0</ele>
        <time>2015-05-23T15:56:08Z</time>
      </trkpt>
      <trkpt lat="43.299583" lon="-4.231083">
        <ele>762.0</ele>
        <time>2015-05-23T15:56:09Z</time>
      </trkpt>
      <trkpt lat="43.299617" lon="-4.231133">
        <ele>761.0</ele>
        <time>2015-05-23T15:56:10Z</time>
      </trkpt>
      <trkpt lat="43.299650" lon="-4.231200">
        <ele>761.0</ele>
        <time>2015-05-23T15:56:11Z</time>
      </trkpt>
      <trkpt lat="43.299683" lon="-4.231267">
        <ele>761.0</ele>
        <time>2015-05-23T15:56:12Z</time>
      </trkpt>
      <trkpt lat="43.299717" lon="-4.231350">
        <ele>761.0</ele>
        <time>2015-05-23T15:56:13Z</time>
      </trkpt>
      <trkpt lat="43.299750" lon="-4.231433">
        <ele>761.0</ele>
        <time>2015-05-23T15:56:14Z</time>
      </trkpt>
      <trkpt lat="43.299783" lon="-4.231517">
        <ele>760.0</ele>
        <time>2015-05-23T15:56:15Z</time>
      </trkpt>
      <trkpt lat="43.299817" lon="-4.231600">
        <ele>760.0</ele>
        <time>2015-05-23T15:56:16Z</time>
      </trkpt>
      <trkpt lat="43.299867" lon="-4.231667">
        <ele>759.0</ele>
        <time>2015-05-23T15:56:17Z</time>
      </trkpt>
      <trkpt lat="43.299917" lon="-4.231733">
        <ele>758.0</ele>
        <time>2015-05-23T15:56:18Z</time>
      </trkpt>
      <trkpt lat="43.299967" lon="-4.231783">
        <ele>759.0</ele>
        <time>2015-05-23T15:56:19Z</time>
      </trkpt>
      <trkpt lat="43.300017" lon="-4.231850">
        <ele>758.0</ele>
        <time>2015-05-23T15:56:20Z</time>
      </trkpt>
      <trkpt lat="43.300050" lon="-4.231883">
        <ele>758.0</ele>
        <time>2015-05-23T15:56:21Z</time>
      </trkpt>
      <trkpt lat="43.300100" lon="-4.231917">
        <ele>757.0</ele>
        <time>2015-05-23T15:56:22Z</time>
      </trkpt>
      <trkpt lat="43.300150" lon="-4.231950">
        <ele>756.0</ele>
        <time>2015-05-23T15:56:23Z</time>
      </trkpt>
      <trkpt lat="43.300217" lon="-4.231983">
        <ele>756.0</ele>
        <time>2015-05-23T15:56:24Z</time>
      </trkpt>
      <trkpt lat="43.300267" lon="-4.232000">
        <ele>755.0</ele>
        <time>2015-05-23T15:56:25Z</time>
      </trkpt>
      <trkpt lat="43.300317" lon="-4.232017">
        <ele>753.0</ele>
        <time>2015-05-23T15:56:26Z</time>
      </trkpt>
      <trkpt lat="43.300383" lon="-4.232033">
        <ele>752.0</ele>
        <time>2015-05-23T15:56:27Z</time>
      </trkpt>
      <trkpt lat="43.300433" lon="-4.232033">
        <ele>752.0</ele>
        <time>2015-05-23T15:56:28Z</time>
      </trkpt>
      <trkpt lat="43.300517" lon="-4.232017">
        <ele>751.0</ele>
        <time>2015-05-23T15:56:29Z</time>
      </trkpt>
      <trkpt lat="43.300583" lon="-4.232017">
        <ele>749.0</ele>
        <time>2015-05-23T15:56:30Z</time>
      </trkpt>
      <trkpt lat="43.300667" lon="-4.232033">
        <ele>748.0</ele>
        <time>2015-05-23T15:56:31Z</time>
      </trkpt>
      <trkpt lat="43.300733" lon="-4.232067">
        <ele>747.0</ele>
        <time>2015-05-23T15:56:32Z</time>
      </trkpt>
      <trkpt lat="43.300800" lon="-4.232100">
        <ele>746.0</ele>
        <time>2015-05-23T15:56:33Z</time>
      </trkpt>
      <trkpt lat="43.300867" lon="-4.232133">
        <ele>746.0</ele>
        <time>2015-05-23T15:56:34Z</time>
      </trkpt>
      <trkpt lat="43.300933" lon="-4.232167">
        <ele>746.0</ele>
        <time>2015-05-23T15:56:35Z</time>
      </trkpt>
      <trkpt lat="43.300983" lon="-4.232200">
        <ele>745.0</ele>
        <time>2015-05-23T15:56:36Z</time>
      </trkpt>
      <trkpt lat="43.301033" lon="-4.232217">
        <ele>745.0</ele>
        <time>2015-05-23T15:56:37Z</time>
      </trkpt>
      <trkpt lat="43.301083" lon="-4.232217">
        <ele>745.0</ele>
        <time>2015-05-23T15:56:38Z</time>
      </trkpt>
      <trkpt lat="43.301133" lon="-4.232217">
        <ele>744.0</ele>
        <time>2015-05-23T15:56:39Z</time>
      </trkpt>
      <trkpt lat="43.301183" lon="-4.232217">
        <ele>743.0</ele>
        <time>2015-05-23T15:56:40Z</time>
      </trkpt>
      <trkpt lat="43.301233" lon="-4.232200">
        <ele>743.0</ele>
        <time>2015-05-23T15:56:41Z</time>
      </trkpt>
      <trkpt lat="43.301283" lon="-4.232200">
        <ele>742.0</ele>
        <time>2015-05-23T15:56:42Z</time>
      </trkpt>
      <trkpt lat="43.301333" lon="-4.232183">
        <ele>741.0</ele>
        <time>2015-05-23T15:56:43Z</time>
      </trkpt>
      <trkpt lat="43.301400" lon="-4.232183">
        <ele>740.0</ele>
        <time>2015-05-23T15:56:44Z</time>
      </trkpt>
      <trkpt lat="43.301467" lon="-4.232150">
        <ele>738.0</ele>
        <time>2015-05-23T15:56:45Z</time>
      </trkpt>
      <trkpt lat="43.301517" lon="-4.232117">
        <ele>738.0</ele>
        <time>2015-05-23T15:56:46Z</time>
      </trkpt>
      <trkpt lat="43.301567" lon="-4.232083">
        <ele>737.0</ele>
        <time>2015-05-23T15:56:47Z</time>
      </trkpt>
      <trkpt lat="43.301617" lon="-4.232033">
        <ele>737.0</ele>
        <time>2015-05-23T15:56:48Z</time>
      </trkpt>
      <trkpt lat="43.301667" lon="-4.232000">
        <ele>736.0</ele>
        <time>2015-05-23T15:56:49Z</time>
      </trkpt>
      <trkpt lat="43.301717" lon="-4.231967">
        <ele>735.0</ele>
        <time>2015-05-23T15:56:50Z</time>
      </trkpt>
      <trkpt lat="43.301750" lon="-4.231933">
        <ele>734.0</ele>
        <time>2015-05-23T15:56:51Z</time>
      </trkpt>
      <trkpt lat="43.301800" lon="-4.231883">
        <ele>734.0</ele>
        <time>2015-05-23T15:56:52Z</time>
      </trkpt>
      <trkpt lat="43.301833" lon="-4.231833">
        <ele>735.0</ele>
        <time>2015-05-23T15:56:53Z</time>
      </trkpt>
      <trkpt lat="43.301883" lon="-4.231800">
        <ele>735.0</ele>
        <time>2015-05-23T15:56:54Z</time>
      </trkpt>
      <trkpt lat="43.301917" lon="-4.231767">
        <ele>735.0</ele>
        <time>2015-05-23T15:56:55Z</time>
      </trkpt>
      <trkpt lat="43.301950" lon="-4.231733">
        <ele>735.0</ele>
        <time>2015-05-23T15:56:56Z</time>
      </trkpt>
      <trkpt lat="43.301983" lon="-4.231683">
        <ele>736.0</ele>
        <time>2015-05-23T15:56:57Z</time>
      </trkpt>
      <trkpt lat="43.302017" lon="-4.231667">
        <ele>736.0</ele>
        <time>2015-05-23T15:56:58Z</time>
      </trkpt>
      <trkpt lat="43.302050" lon="-4.231650">
        <ele>736.0</ele>
        <time>2015-05-23T15:56:59Z</time>
      </trkpt>
      <trkpt lat="43.302083" lon="-4.231650">
        <ele>736.0</ele>
        <time>2015-05-23T15:57:00Z</time>
      </trkpt>
      <trkpt lat="43.302133" lon="-4.231683">
        <ele>736.0</ele>
        <time>2015-05-23T15:57:01Z</time>
      </trkpt>
      <trkpt lat="43.302167" lon="-4.231717">
        <ele>736.0</ele>
        <time>2015-05-23T15:57:02Z</time>
      </trkpt>
      <trkpt lat="43.302217" lon="-4.231767">
        <ele>736.0</ele>
        <time>2015-05-23T15:57:03Z</time>
      </trkpt>
      <trkpt lat="43.302250" lon="-4.231817">
        <ele>736.0</ele>
        <time>2015-05-23T15:57:04Z</time>
      </trkpt>
      <trkpt lat="43.302283" lon="-4.231867">
        <ele>736.0</ele>
        <time>2015-05-23T15:57:05Z</time>
      </trkpt>
      <trkpt lat="43.302317" lon="-4.231917">
        <ele>737.0</ele>
        <time>2015-05-23T15:57:06Z</time>
      </trkpt>
      <trkpt lat="43.302367" lon="-4.231967">
        <ele>736.0</ele>
        <time>2015-05-23T15:57:07Z</time>
      </trkpt>
      <trkpt lat="43.302417" lon="-4.232033">
        <ele>736.0</ele>
        <time>2015-05-23T15:57:08Z</time>
      </trkpt>
      <trkpt lat="43.302450" lon="-4.232083">
        <ele>736.0</ele>
        <time>2015-05-23T15:57:09Z</time>
      </trkpt>
      <trkpt lat="43.302483" lon="-4.232133">
        <ele>737.0</ele>
        <time>2015-05-23T15:57:10Z</time>
      </trkpt>
      <trkpt lat="43.302517" lon="-4.232183">
        <ele>737.0</ele>
        <time>2015-05-23T15:57:11Z</time>
      </trkpt>
      <trkpt lat="43.302567" lon="-4.232267">
        <ele>736.0</ele>
        <time>2015-05-23T15:57:12Z</time>
      </trkpt>
      <trkpt lat="43.302600" lon="-4.232333">
        <ele>736.0</ele>
        <time>2015-05-23T15:57:13Z</time>
      </trkpt>
      <trkpt lat="43.302650" lon="-4.232400">
        <ele>736.0</ele>
        <time>2015-05-23T15:57:14Z</time>
      </trkpt>
      <trkpt lat="43.302717" lon="-4.232467">
        <ele>735.0</ele>
        <time>2015-05-23T15:57:15Z</time>
      </trkpt>
      <trkpt lat="43.302767" lon="-4.232517">
        <ele>735.0</ele>
        <time>2015-05-23T15:57:16Z</time>
      </trkpt>
      <trkpt lat="43.302833" lon="-4.232550">
        <ele>735.0</ele>
        <time>2015-05-23T15:57:17Z</time>
      </trkpt>
      <trkpt lat="43.302917" lon="-4.232600">
        <ele>735.0</ele>
        <time>2015-05-23T15:57:18Z</time>
      </trkpt>
      <trkpt lat="43.303000" lon="-4.232650">
        <ele>734.0</ele>
        <time>2015-05-23T15:57:19Z</time>
      </trkpt>
      <trkpt lat="43.303067" lon="-4.232700">
        <ele>733.0</ele>
        <time>2015-05-23T15:57:20Z</time>
      </trkpt>
      <trkpt lat="43.303150" lon="-4.232750">
        <ele>732.0</ele>
        <time>2015-05-23T15:57:21Z</time>
      </trkpt>
      <trkpt lat="43.303233" lon="-4.232800">
        <ele>732.0</ele>
        <time>2015-05-23T15:57:22Z</time>
      </trkpt>
      <trkpt lat="43.303300" lon="-4.232833">
        <ele>731.0</ele>
        <time>2015-05-23T15:57:23Z</time>
      </trkpt>
      <trkpt lat="43.303367" lon="-4.232850">
        <ele>730.0</ele>
        <time>2015-05-23T15:57:24Z</time>
      </trkpt>
      <trkpt lat="43.303433" lon="-4.232883">
        <ele>729.0</ele>
        <time>2015-05-23T15:57:25Z</time>
      </trkpt>
      <trkpt lat="43.303500" lon="-4.232917">
        <ele>727.0</ele>
        <time>2015-05-23T15:57:26Z</time>
      </trkpt>
      <trkpt lat="43.303583" lon="-4.232950">
        <ele>725.0</ele>
        <time>2015-05-23T15:57:27Z</time>
      </trkpt>
      <trkpt lat="43.303667" lon="-4.232983">
        <ele>723.0</ele>
        <time>2015-05-23T15:57:28Z</time>
      </trkpt>
      <trkpt lat="43.303750" lon="-4.233033">
        <ele>721.0</ele>
        <time>2015-05-23T15:57:29Z</time>
      </trkpt>
      <trkpt lat="43.303817" lon="-4.233083">
        <ele>722.0</ele>
        <time>2015-05-23T15:57:30Z</time>
      </trkpt>
      <trkpt lat="43.303867" lon="-4.233117">
        <ele>721.0</ele>
        <time>2015-05-23T15:57:31Z</time>
      </trkpt>
      <trkpt lat="43.303933" lon="-4.233167">
        <ele>720.0</ele>
        <time>2015-05-23T15:57:32Z</time>
      </trkpt>
      <trkpt lat="43.304017" lon="-4.233200">
        <ele>719.0</ele>
        <time>2015-05-23T15:57:33Z</time>
      </trkpt>
      <trkpt lat="43.304083" lon="-4.233250">
        <ele>719.0</ele>
        <time>2015-05-23T15:57:34Z</time>
      </trkpt>
      <trkpt lat="43.304183" lon="-4.233283">
        <ele>718.0</ele>
        <time>2015-05-23T15:57:35Z</time>
      </trkpt>
      <trkpt lat="43.304267" lon="-4.233300">
        <ele>718.0</ele>
        <time>2015-05-23T15:57:36Z</time>
      </trkpt>
      <trkpt lat="43.304333" lon="-4.233317">
        <ele>718.0</ele>
        <time>2015-05-23T15:57:37Z</time>
      </trkpt>
      <trkpt lat="43.304400" lon="-4.233283">
        <ele>717.0</ele>
        <time>2015-05-23T15:57:38Z</time>
      </trkpt>
      <trkpt lat="43.304433" lon="-4.233233">
        <ele>716.0</ele>
        <time>2015-05-23T15:57:39Z</time>
      </trkpt>
      <trkpt lat="43.304483" lon="-4.233150">
        <ele>714.0</ele>
        <time>2015-05-23T15:57:40Z</time>
      </trkpt>
      <trkpt lat="43.304533" lon="-4.233067">
        <ele>712.0</ele>
        <time>2015-05-23T15:57:41Z</time>
      </trkpt>
      <trkpt lat="43.304550" lon="-4.232967">
        <ele>710.0</ele>
        <time>2015-05-23T15:57:42Z</time>
      </trkpt>
      <trkpt lat="43.304567" lon="-4.232850">
        <ele>708.0</ele>
        <time>2015-05-23T15:57:43Z</time>
      </trkpt>
      <trkpt lat="43.304583" lon="-4.232750">
        <ele>707.0</ele>
        <time>2015-05-23T15:57:44Z</time>
      </trkpt>
      <trkpt lat="43.304600" lon="-4.232650">
        <ele>705.0</ele>
        <time>2015-05-23T15:57:45Z</time>
      </trkpt>
      <trkpt lat="43.304633" lon="-4.232533">
        <ele>703.0</ele>
        <time>2015-05-23T15:57:46Z</time>
      </trkpt>
      <trkpt lat="43.304667" lon="-4.232433">
        <ele>704.0</ele>
        <time>2015-05-23T15:57:47Z</time>
      </trkpt>
      <trkpt lat="43.304700" lon="-4.232317">
        <ele>702.0</ele>
        <time>2015-05-23T15:57:48Z</time>
      </trkpt>
      <trkpt lat="43.304717" lon="-4.232217">
        <ele>700.0</ele>
        <time>2015-05-23T15:57:49Z</time>
      </trkpt>
      <trkpt lat="43.304733" lon="-4.232117">
        <ele>698.0</ele>
        <time>2015-05-23T15:57:50Z</time>
      </trkpt>
      <trkpt lat="43.304750" lon="-4.232017">
        <ele>699.0</ele>
        <time>2015-05-23T15:57:51Z</time>
      </trkpt>
      <trkpt lat="43.304767" lon="-4.231917">
        <ele>699.0</ele>
        <time>2015-05-23T15:57:52Z</time>
      </trkpt>
      <trkpt lat="43.304783" lon="-4.231817">
        <ele>698.0</ele>
        <time>2015-05-23T15:57:53Z</time>
      </trkpt>
      <trkpt lat="43.304783" lon="-4.231700">
        <ele>698.0</ele>
        <time>2015-05-23T15:57:54Z</time>
      </trkpt>
      <trkpt lat="43.304800" lon="-4.231583">
        <ele>697.0</ele>
        <time>2015-05-23T15:57:55Z</time>
      </trkpt>
      <trkpt lat="43.304833" lon="-4.231483">
        <ele>697.0</ele>
        <time>2015-05-23T15:57:56Z</time>
      </trkpt>
      <trkpt lat="43.304850" lon="-4.231383">
        <ele>697.0</ele>
        <time>2015-05-23T15:57:57Z</time>
      </trkpt>
      <trkpt lat="43.304867" lon="-4.231267">
        <ele>696.0</ele>
        <time>2015-05-23T15:57:58Z</time>
      </trkpt>
      <trkpt lat="43.304867" lon="-4.231150">
        <ele>696.0</ele>
        <time>2015-05-23T15:57:59Z</time>
      </trkpt>
      <trkpt lat="43.304883" lon="-4.231050">
        <ele>695.0</ele>
        <time>2015-05-23T15:58:00Z</time>
      </trkpt>
      <trkpt lat="43.304900" lon="-4.230933">
        <ele>695.0</ele>
        <time>2015-05-23T15:58:01Z</time>
      </trkpt>
      <trkpt lat="43.304917" lon="-4.230833">
        <ele>694.0</ele>
        <time>2015-05-23T15:58:02Z</time>
      </trkpt>
      <trkpt lat="43.304933" lon="-4.230733">
        <ele>693.0</ele>
        <time>2015-05-23T15:58:03Z</time>
      </trkpt>
      <trkpt lat="43.304950" lon="-4.230617">
        <ele>693.0</ele>
        <time>2015-05-23T15:58:04Z</time>
      </trkpt>
      <trkpt lat="43.304967" lon="-4.230517">
        <ele>692.0</ele>
        <time>2015-05-23T15:58:05Z</time>
      </trkpt>
      <trkpt lat="43.304983" lon="-4.230400">
        <ele>691.0</ele>
        <time>2015-05-23T15:58:06Z</time>
      </trkpt>
      <trkpt lat="43.305017" lon="-4.230317">
        <ele>690.0</ele>
        <time>2015-05-23T15:58:07Z</time>
      </trkpt>
      <trkpt lat="43.305033" lon="-4.230233">
        <ele>690.0</ele>
        <time>2015-05-23T15:58:08Z</time>
      </trkpt>
      <trkpt lat="43.305067" lon="-4.230133">
        <ele>689.0</ele>
        <time>2015-05-23T15:58:09Z</time>
      </trkpt>
      <trkpt lat="43.305100" lon="-4.230050">
        <ele>687.0</ele>
        <time>2015-05-23T15:58:10Z</time>
      </trkpt>
      <trkpt lat="43.305133" lon="-4.229967">
        <ele>686.0</ele>
        <time>2015-05-23T15:58:11Z</time>
      </trkpt>
      <trkpt lat="43.305183" lon="-4.229900">
        <ele>684.0</ele>
        <time>2015-05-23T15:58:12Z</time>
      </trkpt>
      <trkpt lat="43.305217" lon="-4.229800">
        <ele>681.0</ele>
        <time>2015-05-23T15:58:13Z</time>
      </trkpt>
      <trkpt lat="43.305250" lon="-4.229733">
        <ele>681.0</ele>
        <time>2015-05-23T15:58:14Z</time>
      </trkpt>
      <trkpt lat="43.305300" lon="-4.229650">
        <ele>679.0</ele>
        <time>2015-05-23T15:58:15Z</time>
      </trkpt>
      <trkpt lat="43.305333" lon="-4.229567">
        <ele>676.0</ele>
        <time>2015-05-23T15:58:16Z</time>
      </trkpt>
      <trkpt lat="43.305367" lon="-4.229467">
        <ele>673.0</ele>
        <time>2015-05-23T15:58:17Z</time>
      </trkpt>
      <trkpt lat="43.305417" lon="-4.229383">
        <ele>673.0</ele>
        <time>2015-05-23T15:58:18Z</time>
      </trkpt>
      <trkpt lat="43.305450" lon="-4.229300">
        <ele>671.0</ele>
        <time>2015-05-23T15:58:19Z</time>
      </trkpt>
      <trkpt lat="43.305500" lon="-4.229217">
        <ele>670.0</ele>
        <time>2015-05-23T15:58:20Z</time>
      </trkpt>
      <trkpt lat="43.305533" lon="-4.229133">
        <ele>670.0</ele>
        <time>2015-05-23T15:58:21Z</time>
      </trkpt>
      <trkpt lat="43.305567" lon="-4.229067">
        <ele>670.0</ele>
        <time>2015-05-23T15:58:22Z</time>
      </trkpt>
      <trkpt lat="43.305617" lon="-4.228983">
        <ele>669.0</ele>
        <time>2015-05-23T15:58:23Z</time>
      </trkpt>
      <trkpt lat="43.305650" lon="-4.228900">
        <ele>669.0</ele>
        <time>2015-05-23T15:58:24Z</time>
      </trkpt>
      <trkpt lat="43.305683" lon="-4.228817">
        <ele>669.0</ele>
        <time>2015-05-23T15:58:25Z</time>
      </trkpt>
      <trkpt lat="43.305700" lon="-4.228733">
        <ele>668.0</ele>
        <time>2015-05-23T15:58:26Z</time>
      </trkpt>
      <trkpt lat="43.305733" lon="-4.228650">
        <ele>667.0</ele>
        <time>2015-05-23T15:58:27Z</time>
      </trkpt>
      <trkpt lat="43.305767" lon="-4.228550">
        <ele>666.0</ele>
        <time>2015-05-23T15:58:28Z</time>
      </trkpt>
      <trkpt lat="43.305817" lon="-4.228450">
        <ele>665.0</ele>
        <time>2015-05-23T15:58:29Z</time>
      </trkpt>
      <trkpt lat="43.305850" lon="-4.228350">
        <ele>664.0</ele>
        <time>2015-05-23T15:58:30Z</time>
      </trkpt>
      <trkpt lat="43.305883" lon="-4.228250">
        <ele>664.0</ele>
        <time>2015-05-23T15:58:31Z</time>
      </trkpt>
      <trkpt lat="43.305900" lon="-4.228167">
        <ele>663.0</ele>
        <time>2015-05-23T15:58:32Z</time>
      </trkpt>
      <trkpt lat="43.305917" lon="-4.228100">
        <ele>663.0</ele>
        <time>2015-05-23T15:58:33Z</time>
      </trkpt>
      <trkpt lat="43.305933" lon="-4.228033">
        <ele>662.0</ele>
        <time>2015-05-23T15:58:34Z</time>
      </trkpt>
      <trkpt lat="43.305933" lon="-4.227950">
        <ele>662.0</ele>
        <time>2015-05-23T15:58:35Z</time>
      </trkpt>
      <trkpt lat="43.305917" lon="-4.227850">
        <ele>660.0</ele>
        <time>2015-05-23T15:58:36Z</time>
      </trkpt>
      <trkpt lat="43.305917" lon="-4.227733">
        <ele>660.0</ele>
        <time>2015-05-23T15:58:37Z</time>
      </trkpt>
      <trkpt lat="43.305933" lon="-4.227617">
        <ele>659.0</ele>
        <time>2015-05-23T15:58:38Z</time>
      </trkpt>
      <trkpt lat="43.305950" lon="-4.227533">
        <ele>659.0</ele>
        <time>2015-05-23T15:58:39Z</time>
      </trkpt>
      <trkpt lat="43.305967" lon="-4.227467">
        <ele>658.0</ele>
        <time>2015-05-23T15:58:40Z</time>
      </trkpt>
      <trkpt lat="43.305967" lon="-4.227400">
        <ele>658.0</ele>
        <time>2015-05-23T15:58:41Z</time>
      </trkpt>
      <trkpt lat="43.305950" lon="-4.227317">
        <ele>657.0</ele>
        <time>2015-05-23T15:58:42Z</time>
      </trkpt>
      <trkpt lat="43.305967" lon="-4.227217">
        <ele>657.0</ele>
        <time>2015-05-23T15:58:43Z</time>
      </trkpt>
      <trkpt lat="43.306000" lon="-4.227100">
        <ele>657.0</ele>
        <time>2015-05-23T15:58:44Z</time>
      </trkpt>
      <trkpt lat="43.306050" lon="-4.226983">
        <ele>656.0</ele>
        <time>2015-05-23T15:58:45Z</time>
      </trkpt>
      <trkpt lat="43.306067" lon="-4.226867">
        <ele>656.0</ele>
        <time>2015-05-23T15:58:46Z</time>
      </trkpt>
      <trkpt lat="43.306050" lon="-4.226783">
        <ele>656.0</ele>
        <time>2015-05-23T15:58:47Z</time>
      </trkpt>
      <trkpt lat="43.306050" lon="-4.226700">
        <ele>655.0</ele>
        <time>2015-05-23T15:58:48Z</time>
      </trkpt>
      <trkpt lat="43.306067" lon="-4.226617">
        <ele>655.0</ele>
        <time>2015-05-23T15:58:49Z</time>
      </trkpt>
      <trkpt lat="43.306050" lon="-4.226533">
        <ele>654.0</ele>
        <time>2015-05-23T15:58:50Z</time>
      </trkpt>
      <trkpt lat="43.306050" lon="-4.226450">
        <ele>653.0</ele>
        <time>2015-05-23T15:58:51Z</time>
      </trkpt>
      <trkpt lat="43.306050" lon="-4.226383">
        <ele>653.0</ele>
        <time>2015-05-23T15:58:52Z</time>
      </trkpt>
      <trkpt lat="43.306033" lon="-4.226317">
        <ele>652.0</ele>
        <time>2015-05-23T15:58:53Z</time>
      </trkpt>
      <trkpt lat="43.306050" lon="-4.226300">
        <ele>652.0</ele>
        <time>2015-05-23T15:58:54Z</time>
      </trkpt>
      <trkpt lat="43.306067" lon="-4.226267">
        <ele>651.0</ele>
        <time>2015-05-23T15:58:55Z</time>
      </trkpt>
      <trkpt lat="43.306100" lon="-4.226217">
        <ele>650.0</ele>
        <time>2015-05-23T15:58:56Z</time>
      </trkpt>
      <trkpt lat="43.306150" lon="-4.226200">
        <ele>649.0</ele>
        <time>2015-05-23T15:58:57Z</time>
      </trkpt>
      <trkpt lat="43.306183" lon="-4.226167">
        <ele>648.0</ele>
        <time>2015-05-23T15:58:58Z</time>
      </trkpt>
      <trkpt lat="43.306233" lon="-4.226133">
        <ele>648.0</ele>
        <time>2015-05-23T15:58:59Z</time>
      </trkpt>
      <trkpt lat="43.306250" lon="-4.226100">
        <ele>647.0</ele>
        <time>2015-05-23T15:59:00Z</time>
      </trkpt>
      <trkpt lat="43.306283" lon="-4.226100">
        <ele>644.0</ele>
        <time>2015-05-23T15:59:01Z</time>
      </trkpt>
      <trkpt lat="43.306317" lon="-4.226100">
        <ele>642.0</ele>
        <time>2015-05-23T15:59:02Z</time>
      </trkpt>
      <trkpt lat="43.306367" lon="-4.226117">
        <ele>640.0</ele>
        <time>2015-05-23T15:59:03Z</time>
      </trkpt>
      <trkpt lat="43.306417" lon="-4.226133">
        <ele>637.0</ele>
        <time>2015-05-23T15:59:04Z</time>
      </trkpt>
      <trkpt lat="43.306450" lon="-4.226167">
        <ele>634.0</ele>
        <time>2015-05-23T15:59:05Z</time>
      </trkpt>
      <trkpt lat="43.306483" lon="-4.226200">
        <ele>634.0</ele>
        <time>2015-05-23T15:59:06Z</time>
      </trkpt>
      <trkpt lat="43.306483" lon="-4.226250">
        <ele>632.0</ele>
        <time>2015-05-23T15:59:07Z</time>
      </trkpt>
      <trkpt lat="43.306500" lon="-4.226300">
        <ele>629.0</ele>
        <time>2015-05-23T15:59:08Z</time>
      </trkpt>
      <trkpt lat="43.306517" lon="-4.226367">
        <ele>627.0</ele>
        <time>2015-05-23T15:59:09Z</time>
      </trkpt>
      <trkpt lat="43.306533" lon="-4.226450">
        <ele>626.0</ele>
        <time>2015-05-23T15:59:10Z</time>
      </trkpt>
      <trkpt lat="43.306533" lon="-4.226517">
        <ele>626.0</ele>
        <time>2015-05-23T15:59:11Z</time>
      </trkpt>
      <trkpt lat="43.306533" lon="-4.226567">
        <ele>626.0</ele>
        <time>2015-05-23T15:59:12Z</time>
      </trkpt>
      <trkpt lat="43.306533" lon="-4.226617">
        <ele>625.0</ele>
        <time>2015-05-23T15:59:13Z</time>
      </trkpt>
      <trkpt lat="43.306550" lon="-4.226683">
        <ele>624.0</ele>
        <time>2015-05-23T15:59:14Z</time>
      </trkpt>
      <trkpt lat="43.306567" lon="-4.226750">
        <ele>624.0</ele>
        <time>2015-05-23T15:59:15Z</time>
      </trkpt>
      <trkpt lat="43.306583" lon="-4.226833">
        <ele>623.0</ele>
        <time>2015-05-23T15:59:16Z</time>
      </trkpt>
      <trkpt lat="43.306583" lon="-4.226917">
        <ele>623.0</ele>
        <time>2015-05-23T15:59:17Z</time>
      </trkpt>
      <trkpt lat="43.306583" lon="-4.227000">
        <ele>622.0</ele>
        <time>2015-05-23T15:59:18Z</time>
      </trkpt>
      <trkpt lat="43.306567" lon="-4.227067">
        <ele>622.0</ele>
        <time>2015-05-23T15:59:19Z</time>
      </trkpt>
      <trkpt lat="43.306550" lon="-4.227133">
        <ele>622.0</ele>
        <time>2015-05-23T15:59:20Z</time>
      </trkpt>
      <trkpt lat="43.306533" lon="-4.227200">
        <ele>621.0</ele>
        <time>2015-05-23T15:59:21Z</time>
      </trkpt>
      <trkpt lat="43.306500" lon="-4.227300">
        <ele>621.0</ele>
        <time>2015-05-23T15:59:22Z</time>
      </trkpt>
      <trkpt lat="43.306467" lon="-4.227400">
        <ele>620.0</ele>
        <time>2015-05-23T15:59:23Z</time>
      </trkpt>
      <trkpt lat="43.306433" lon="-4.227500">
        <ele>619.0</ele>
        <time>2015-05-23T15:59:24Z</time>
      </trkpt>
      <trkpt lat="43.306400" lon="-4.227600">
        <ele>619.0</ele>
        <time>2015-05-23T15:59:25Z</time>
      </trkpt>
      <trkpt lat="43.306350" lon="-4.227700">
        <ele>617.0</ele>
        <time>2015-05-23T15:59:26Z</time>
      </trkpt>
      <trkpt lat="43.306283" lon="-4.227767">
        <ele>617.0</ele>
        <time>2015-05-23T15:59:27Z</time>
      </trkpt>
      <trkpt lat="43.306217" lon="-4.227833">
        <ele>615.0</ele>
        <time>2015-05-23T15:59:28Z</time>
      </trkpt>
      <trkpt lat="43.306133" lon="-4.227900">
        <ele>613.0</ele>
        <time>2015-05-23T15:59:29Z</time>
      </trkpt>
      <trkpt lat="43.306033" lon="-4.227983">
        <ele>610.0</ele>
        <time>2015-05-23T15:59:30Z</time>
      </trkpt>
      <trkpt lat="43.305933" lon="-4.228083">
        <ele>607.0</ele>
        <time>2015-05-23T15:59:31Z</time>
      </trkpt>
      <trkpt lat="43.305850" lon="-4.228167">
        <ele>605.0</ele>
        <time>2015-05-23T15:59:32Z</time>
      </trkpt>
      <trkpt lat="43.305767" lon="-4.228233">
        <ele>602.0</ele>
        <time>2015-05-23T15:59:33Z</time>
      </trkpt>
      <trkpt lat="43.305667" lon="-4.228317">
        <ele>599.0</ele>
        <time>2015-05-23T15:59:34Z</time>
      </trkpt>
      <trkpt lat="43.305583" lon="-4.228383">
        <ele>596.0</ele>
        <time>2015-05-23T15:59:35Z</time>
      </trkpt>
      <trkpt lat="43.305483" lon="-4.228467">
        <ele>592.0</ele>
        <time>2015-05-23T15:59:36Z</time>
      </trkpt>
      <trkpt lat="43.305400" lon="-4.228567">
        <ele>588.0</ele>
        <time>2015-05-23T15:59:37Z</time>
      </trkpt>
      <trkpt lat="43.305300" lon="-4.228650">
        <ele>583.0</ele>
        <time>2015-05-23T15:59:38Z</time>
      </trkpt>
      <trkpt lat="43.305217" lon="-4.228733">
        <ele>580.0</ele>
        <time>2015-05-23T15:59:39Z</time>
      </trkpt>
      <trkpt lat="43.305117" lon="-4.228800">
        <ele>578.0</ele>
        <time>2015-05-23T15:59:40Z</time>
      </trkpt>
      <trkpt lat="43.305033" lon="-4.228867">
        <ele>576.0</ele>
        <time>2015-05-23T15:59:41Z</time>
      </trkpt>
      <trkpt lat="43.304950" lon="-4.228933">
        <ele>573.0</ele>
        <time>2015-05-23T15:59:42Z</time>
      </trkpt>
      <trkpt lat="43.304867" lon="-4.229033">
        <ele>571.0</ele>
        <time>2015-05-23T15:59:43Z</time>
      </trkpt>
      <trkpt lat="43.304767" lon="-4.229117">
        <ele>568.0</ele>
        <time>2015-05-23T15:59:44Z</time>
      </trkpt>
      <trkpt lat="43.304667" lon="-4.229183">
        <ele>565.0</ele>
        <time>2015-05-23T15:59:45Z</time>
      </trkpt>
      <trkpt lat="43.304567" lon="-4.229267">
        <ele>562.0</ele>
        <time>2015-05-23T15:59:46Z</time>
      </trkpt>
      <trkpt lat="43.304467" lon="-4.229333">
        <ele>560.0</ele>
        <time>2015-05-23T15:59:47Z</time>
      </trkpt>
      <trkpt lat="43.304367" lon="-4.229400">
        <ele>560.0</ele>
        <time>2015-05-23T15:59:48Z</time>
      </trkpt>
      <trkpt lat="43.304283" lon="-4.229450">
        <ele>559.0</ele>
        <time>2015-05-23T15:59:49Z</time>
      </trkpt>
      <trkpt lat="43.304200" lon="-4.229500">
        <ele>558.0</ele>
        <time>2015-05-23T15:59:50Z</time>
      </trkpt>
      <trkpt lat="43.304117" lon="-4.229567">
        <ele>558.0</ele>
        <time>2015-05-23T15:59:51Z</time>
      </trkpt>
      <trkpt lat="43.304050" lon="-4.229617">
        <ele>559.0</ele>
        <time>2015-05-23T15:59:52Z</time>
      </trkpt>
      <trkpt lat="43.303983" lon="-4.229683">
        <ele>559.0</ele>
        <time>2015-05-23T15:59:53Z</time>
      </trkpt>
      <trkpt lat="43.303900" lon="-4.229733">
        <ele>559.0</ele>
        <time>2015-05-23T15:59:54Z</time>
      </trkpt>
      <trkpt lat="43.303833" lon="-4.229817">
        <ele>559.0</ele>
        <time>2015-05-23T15:59:55Z</time>
      </trkpt>
      <trkpt lat="43.303767" lon="-4.229900">
        <ele>559.0</ele>
        <time>2015-05-23T15:59:56Z</time>
      </trkpt>
      <trkpt lat="43.303700" lon="-4.230000">
        <ele>558.0</ele>
        <time>2015-05-23T15:59:57Z</time>
      </trkpt>
      <trkpt lat="43.303650" lon="-4.230100">
        <ele>558.0</ele>
        <time>2015-05-23T15:59:58Z</time>
      </trkpt>
      <trkpt lat="43.303617" lon="-4.230200">
        <ele>556.0</ele>
        <time>2015-05-23T15:59:59Z</time>
      </trkpt>
      <trkpt lat="43.303600" lon="-4.230300">
        <ele>555.0</ele>
        <time>2015-05-23T16:00:00Z</time>
      </trkpt>
      <trkpt lat="43.303600" lon="-4.230400">
        <ele>554.0</ele>
        <time>2015-05-23T16:00:01Z</time>
      </trkpt>
      <trkpt lat="43.303633" lon="-4.230467">
        <ele>552.0</ele>
        <time>2015-05-23T16:00:02Z</time>
      </trkpt>
      <trkpt lat="43.303683" lon="-4.230500">
        <ele>552.0</ele>
        <time>2015-05-23T16:00:03Z</time>
      </trkpt>
      <trkpt lat="43.303717" lon="-4.230500">
        <ele>553.0</ele>
        <time>2015-05-23T16:00:04Z</time>
      </trkpt>
      <trkpt lat="43.303767" lon="-4.230467">
        <ele>552.0</ele>
        <time>2015-05-23T16:00:05Z</time>
      </trkpt>
      <trkpt lat="43.303817" lon="-4.230433">
        <ele>552.0</ele>
        <time>2015-05-23T16:00:06Z</time>
      </trkpt>
      <trkpt lat="43.303867" lon="-4.230400">
        <ele>552.0</ele>
        <time>2015-05-23T16:00:07Z</time>
      </trkpt>
      <trkpt lat="43.303917" lon="-4.230350">
        <ele>552.0</ele>
        <time>2015-05-23T16:00:08Z</time>
      </trkpt>
      <trkpt lat="43.303950" lon="-4.230317">
        <ele>551.0</ele>
        <time>2015-05-23T16:00:09Z</time>
      </trkpt>
      <trkpt lat="43.303967" lon="-4.230267">
        <ele>551.0</ele>
        <time>2015-05-23T16:00:10Z</time>
      </trkpt>
      <trkpt lat="43.304000" lon="-4.230217">
        <ele>551.0</ele>
        <time>2015-05-23T16:00:11Z</time>
      </trkpt>
      <trkpt lat="43.304000" lon="-4.230183">
        <ele>550.0</ele>
        <time>2015-05-23T16:00:12Z</time>
      </trkpt>
      <trkpt lat="43.304017" lon="-4.230150">
        <ele>550.0</ele>
        <time>2015-05-23T16:00:13Z</time>
      </trkpt>
      <trkpt lat="43.304050" lon="-4.230133">
        <ele>549.0</ele>
        <time>2015-05-23T16:00:14Z</time>
      </trkpt>
      <trkpt lat="43.304083" lon="-4.230100">
        <ele>547.0</ele>
        <time>2015-05-23T16:00:15Z</time>
      </trkpt>
      <trkpt lat="43.304133" lon="-4.230067">
        <ele>545.0</ele>
        <time>2015-05-23T16:00:16Z</time>
      </trkpt>
      <trkpt lat="43.304183" lon="-4.230033">
        <ele>544.0</ele>
        <time>2015-05-23T16:00:17Z</time>
      </trkpt>
      <trkpt lat="43.304233" lon="-4.230017">
        <ele>542.0</ele>
        <time>2015-05-23T16:00:18Z</time>
      </trkpt>
      <trkpt lat="43.304283" lon="-4.230000">
        <ele>541.0</ele>
        <time>2015-05-23T16:00:19Z</time>
      </trkpt>
      <trkpt lat="43.304350" lon="-4.230000">
        <ele>540.0</ele>
        <time>2015-05-23T16:00:20Z</time>
      </trkpt>
      <trkpt lat="43.304400" lon="-4.230017">
        <ele>538.0</ele>
        <time>2015-05-23T16:00:21Z</time>
      </trkpt>
      <trkpt lat="43.304450" lon="-4.230067">
        <ele>536.0</ele>
        <time>2015-05-23T16:00:22Z</time>
      </trkpt>
      <trkpt lat="43.304483" lon="-4.230150">
        <ele>534.0</ele>
        <time>2015-05-23T16:00:23Z</time>
      </trkpt>
      <trkpt lat="43.304483" lon="-4.230267">
        <ele>532.0</ele>
        <time>2015-05-23T16:00:24Z</time>
      </trkpt>
      <trkpt lat="43.304467" lon="-4.230383">
        <ele>529.0</ele>
        <time>2015-05-23T16:00:25Z</time>
      </trkpt>
      <trkpt lat="43.304417" lon="-4.230517">
        <ele>527.0</ele>
        <time>2015-05-23T16:00:26Z</time>
      </trkpt>
      <trkpt lat="43.304350" lon="-4.230617">
        <ele>524.0</ele>
        <time>2015-05-23T16:00:27Z</time>
      </trkpt>
      <trkpt lat="43.304267" lon="-4.230700">
        <ele>522.0</ele>
        <time>2015-05-23T16:00:28Z</time>
      </trkpt>
      <trkpt lat="43.304183" lon="-4.230767">
        <ele>520.0</ele>
        <time>2015-05-23T16:00:29Z</time>
      </trkpt>
      <trkpt lat="43.304100" lon="-4.230867">
        <ele>518.0</ele>
        <time>2015-05-23T16:00:30Z</time>
      </trkpt>
      <trkpt lat="43.304017" lon="-4.230983">
        <ele>515.0</ele>
        <time>2015-05-23T16:00:31Z</time>
      </trkpt>
      <trkpt lat="43.303933" lon="-4.231067">
        <ele>513.0</ele>
        <time>2015-05-23T16:00:32Z</time>
      </trkpt>
      <trkpt lat="43.303833" lon="-4.231150">
        <ele>511.0</ele>
        <time>2015-05-23T16:00:33Z</time>
      </trkpt>
      <trkpt lat="43.303733" lon="-4.231217">
        <ele>508.0</ele>
        <time>2015-05-23T16:00:34Z</time>
      </trkpt>
      <trkpt lat="43.303617" lon="-4.231267">
        <ele>506.0</ele>
        <time>2015-05-23T16:00:35Z</time>
      </trkpt>
      <trkpt lat="43.303517" lon="-4.231267">
        <ele>503.0</ele>
        <time>2015-05-23T16:00:36Z</time>
      </trkpt>
      <trkpt lat="43.303400" lon="-4.231283">
        <ele>501.0</ele>
        <time>2015-05-23T16:00:37Z</time>
      </trkpt>
      <trkpt lat="43.303283" lon="-4.231283">
        <ele>499.0</ele>
        <time>2015-05-23T16:00:38Z</time>
      </trkpt>
      <trkpt lat="43.303183" lon="-4.231283">
        <ele>497.0</ele>
        <time>2015-05-23T16:00:39Z</time>
      </trkpt>
      <trkpt lat="43.303067" lon="-4.231267">
        <ele>494.0</ele>
        <time>2015-05-23T16:00:40Z</time>
      </trkpt>
      <trkpt lat="43.302967" lon="-4.231267">
        <ele>493.0</ele>
        <time>2015-05-23T16:00:41Z</time>
      </trkpt>
      <trkpt lat="43.302850" lon="-4.231250">
        <ele>491.0</ele>
        <time>2015-05-23T16:00:42Z</time>
      </trkpt>
      <trkpt lat="43.302733" lon="-4.231233">
        <ele>490.0</ele>
        <time>2015-05-23T16:00:43Z</time>
      </trkpt>
      <trkpt lat="43.302617" lon="-4.231217">
        <ele>488.0</ele>
        <time>2015-05-23T16:00:44Z</time>
      </trkpt>
      <trkpt lat="43.302517" lon="-4.231217">
        <ele>487.0</ele>
        <time>2015-05-23T16:00:45Z</time>
      </trkpt>
      <trkpt lat="43.302417" lon="-4.231200">
        <ele>486.0</ele>
        <time>2015-05-23T16:00:46Z</time>
      </trkpt>
      <trkpt lat="43.302333" lon="-4.231183">
        <ele>485.0</ele>
        <time>2015-05-23T16:00:47Z</time>
      </trkpt>
      <trkpt lat="43.302217" lon="-4.231183">
        <ele>484.0</ele>
        <time>2015-05-23T16:00:48Z</time>
      </trkpt>
      <trkpt lat="43.302117" lon="-4.231183">
        <ele>482.0</ele>
        <time>2015-05-23T16:00:49Z</time>
      </trkpt>
      <trkpt lat="43.302000" lon="-4.231167">
        <ele>479.0</ele>
        <time>2015-05-23T16:00:50Z</time>
      </trkpt>
      <trkpt lat="43.301883" lon="-4.231167">
        <ele>478.0</ele>
        <time>2015-05-23T16:00:51Z</time>
      </trkpt>
      <trkpt lat="43.301767" lon="-4.231167">
        <ele>477.0</ele>
        <time>2015-05-23T16:00:52Z</time>
      </trkpt>
      <trkpt lat="43.301667" lon="-4.231167">
        <ele>475.0</ele>
        <time>2015-05-23T16:00:53Z</time>
      </trkpt>
      <trkpt lat="43.301567" lon="-4.231167">
        <ele>474.0</ele>
        <time>2015-05-23T16:00:54Z</time>
      </trkpt>
      <trkpt lat="43.301467" lon="-4.231183">
        <ele>472.0</ele>
        <time>2015-05-23T16:00:55Z</time>
      </trkpt>
      <trkpt lat="43.301350" lon="-4.231183">
        <ele>470.0</ele>
        <time>2015-05-23T16:00:56Z</time>
      </trkpt>
      <trkpt lat="43.301233" lon="-4.231200">
        <ele>468.0</ele>
        <time>2015-05-23T16:00:57Z</time>
      </trkpt>
      <trkpt lat="43.301117" lon="-4.231217">
        <ele>467.0</ele>
        <time>2015-05-23T16:00:58Z</time>
      </trkpt>
      <trkpt lat="43.301017" lon="-4.231233">
        <ele>464.0</ele>
        <time>2015-05-23T16:00:59Z</time>
      </trkpt>
      <trkpt lat="43.300900" lon="-4.231233">
        <ele>461.0</ele>
        <time>2015-05-23T16:01:00Z</time>
      </trkpt>
      <trkpt lat="43.300783" lon="-4.231233">
        <ele>459.0</ele>
        <time>2015-05-23T16:01:01Z</time>
      </trkpt>
      <trkpt lat="43.300667" lon="-4.231217">
        <ele>457.0</ele>
        <time>2015-05-23T16:01:02Z</time>
      </trkpt>
      <trkpt lat="43.300567" lon="-4.231183">
        <ele>456.0</ele>
        <time>2015-05-23T16:01:03Z</time>
      </trkpt>
      <trkpt lat="43.300467" lon="-4.231183">
        <ele>455.0</ele>
        <time>2015-05-23T16:01:04Z</time>
      </trkpt>
      <trkpt lat="43.300383" lon="-4.231167">
        <ele>455.0</ele>
        <time>2015-05-23T16:01:05Z</time>
      </trkpt>
      <trkpt lat="43.300283" lon="-4.231133">
        <ele>454.0</ele>
        <time>2015-05-23T16:01:06Z</time>
      </trkpt>
      <trkpt lat="43.300200" lon="-4.231083">
        <ele>452.0</ele>
        <time>2015-05-23T16:01:07Z</time>
      </trkpt>
      <trkpt lat="43.300100" lon="-4.231033">
        <ele>449.0</ele>
        <time>2015-05-23T16:01:08Z</time>
      </trkpt>
      <trkpt lat="43.300000" lon="-4.230967">
        <ele>446.0</ele>
        <time>2015-05-23T16:01:09Z</time>
      </trkpt>
      <trkpt lat="43.299883" lon="-4.230900">
        <ele>444.0</ele>
        <time>2015-05-23T16:01:10Z</time>
      </trkpt>
      <trkpt lat="43.299783" lon="-4.230867">
        <ele>444.0</ele>
        <time>2015-05-23T16:01:11Z</time>
      </trkpt>
      <trkpt lat="43.299683" lon="-4.230833">
        <ele>444.0</ele>
        <time>2015-05-23T16:01:12Z</time>
      </trkpt>
      <trkpt lat="43.299600" lon="-4.230783">
        <ele>444.0</ele>
        <time>2015-05-23T16:01:13Z</time>
      </trkpt>
      <trkpt lat="43.299517" lon="-4.230750">
        <ele>444.0</ele>
        <time>2015-05-23T16:01:14Z</time>
      </trkpt>
      <trkpt lat="43.299417" lon="-4.230700">
        <ele>445.0</ele>
        <time>2015-05-23T16:01:15Z</time>
      </trkpt>
      <trkpt lat="43.299300" lon="-4.230650">
        <ele>444.0</ele>
        <time>2015-05-23T16:01:16Z</time>
      </trkpt>
      <trkpt lat="43.299200" lon="-4.230600">
        <ele>444.0</ele>
        <time>2015-05-23T16:01:17Z</time>
      </trkpt>
      <trkpt lat="43.299083" lon="-4.230550">
        <ele>443.0</ele>
        <time>2015-05-23T16:01:18Z</time>
      </trkpt>
      <trkpt lat="43.298983" lon="-4.230517">
        <ele>443.0</ele>
        <time>2015-05-23T16:01:19Z</time>
      </trkpt>
      <trkpt lat="43.298883" lon="-4.230467">
        <ele>443.0</ele>
        <time>2015-05-23T16:01:20Z</time>
      </trkpt>
      <trkpt lat="43.298783" lon="-4.230417">
        <ele>442.0</ele>
        <time>2015-05-23T16:01:21Z</time>
      </trkpt>
      <trkpt lat="43.298700" lon="-4.230350">
        <ele>441.0</ele>
        <time>2015-05-23T16:01:22Z</time>
      </trkpt>
      <trkpt lat="43.298600" lon="-4.230283">
        <ele>441.0</ele>
        <time>2015-05-23T16:01:23Z</time>
      </trkpt>
      <trkpt lat="43.298500" lon="-4.230217">
        <ele>440.0</ele>
        <time>2015-05-23T16:01:24Z</time>
      </trkpt>
      <trkpt lat="43.298417" lon="-4.230167">
        <ele>440.0</ele>
        <time>2015-05-23T16:01:25Z</time>
      </trkpt>
      <trkpt lat="43.298317" lon="-4.230133">
        <ele>439.0</ele>
        <time>2015-05-23T16:01:26Z</time>
      </trkpt>
      <trkpt lat="43.298233" lon="-4.230083">
        <ele>439.0</ele>
        <time>2015-05-23T16:01:27Z</time>
      </trkpt>
      <trkpt lat="43.298150" lon="-4.230033">
        <ele>438.0</ele>
        <time>2015-05-23T16:01:28Z</time>
      </trkpt>
      <trkpt lat="43.298050" lon="-4.229983">
        <ele>436.0</ele>
        <time>2015-05-23T16:01:29Z</time>
      </trkpt>
      <trkpt lat="43.297950" lon="-4.229900">
        <ele>434.0</ele>
        <time>2015-05-23T16:01:30Z</time>
      </trkpt>
      <trkpt lat="43.297850" lon="-4.229833">
        <ele>433.0</ele>
        <time>2015-05-23T16:01:31Z</time>
      </trkpt>
      <trkpt lat="43.297767" lon="-4.229750">
        <ele>433.0</ele>
        <time>2015-05-23T16:01:32Z</time>
      </trkpt>
      <trkpt lat="43.297683" lon="-4.229683">
        <ele>433.0</ele>
        <time>2015-05-23T16:01:33Z</time>
      </trkpt>
      <trkpt lat="43.297600" lon="-4.229650">
        <ele>434.0</ele>
        <time>2015-05-23T16:01:34Z</time>
      </trkpt>
      <trkpt lat="43.297500" lon="-4.229600">
        <ele>434.0</ele>
        <time>2015-05-23T16:01:35Z</time>
      </trkpt>
      <trkpt lat="43.297417" lon="-4.229567">
        <ele>433.0</ele>
        <time>2015-05-23T16:01:36Z</time>
      </trkpt>
      <trkpt lat="43.297317" lon="-4.229500">
        <ele>432.0</ele>
        <time>2015-05-23T16:01:37Z</time>
      </trkpt>
      <trkpt lat="43.297233" lon="-4.229450">
        <ele>431.0</ele>
        <time>2015-05-23T16:01:38Z</time>
      </trkpt>
      <trkpt lat="43.297150" lon="-4.229383">
        <ele>431.0</ele>
        <time>2015-05-23T16:01:39Z</time>
      </trkpt>
      <trkpt lat="43.297067" lon="-4.229333">
        <ele>430.0</ele>
        <time>2015-05-23T16:01:40Z</time>
      </trkpt>
      <trkpt lat="43.296983" lon="-4.229267">
        <ele>429.0</ele>
        <time>2015-05-23T16:01:41Z</time>
      </trkpt>
      <trkpt lat="43.296900" lon="-4.229183">
        <ele>428.0</ele>
        <time>2015-05-23T16:01:42Z</time>
      </trkpt>
      <trkpt lat="43.296817" lon="-4.229100">
        <ele>428.0</ele>
        <time>2015-05-23T16:01:43Z</time>
      </trkpt>
      <trkpt lat="43.296733" lon="-4.229017">
        <ele>427.0</ele>
        <time>2015-05-23T16:01:44Z</time>
      </trkpt>
      <trkpt lat="43.296650" lon="-4.228950">
        <ele>427.0</ele>
        <time>2015-05-23T16:01:45Z</time>
      </trkpt>
      <trkpt lat="43.296550" lon="-4.228900">
        <ele>425.0</ele>
        <time>2015-05-23T16:01:46Z</time>
      </trkpt>
      <trkpt lat="43.296450" lon="-4.228817">
        <ele>424.0</ele>
        <time>2015-05-23T16:01:47Z</time>
      </trkpt>
      <trkpt lat="43.296367" lon="-4.228750">
        <ele>422.0</ele>
        <time>2015-05-23T16:01:48Z</time>
      </trkpt>
      <trkpt lat="43.296283" lon="-4.228667">
        <ele>420.0</ele>
        <time>2015-05-23T16:01:49Z</time>
      </trkpt>
      <trkpt lat="43.296217" lon="-4.228583">
        <ele>419.0</ele>
        <time>2015-05-23T16:01:50Z</time>
      </trkpt>
      <trkpt lat="43.296133" lon="-4.228483">
        <ele>419.0</ele>
        <time>2015-05-23T16:01:51Z</time>
      </trkpt>
      <trkpt lat="43.296067" lon="-4.228400">
        <ele>418.0</ele>
        <time>2015-05-23T16:01:52Z</time>
      </trkpt>
      <trkpt lat="43.295983" lon="-4.228300">
        <ele>417.0</ele>
        <time>2015-05-23T16:01:53Z</time>
      </trkpt>
      <trkpt lat="43.295917" lon="-4.228200">
        <ele>416.0</ele>
        <time>2015-05-23T16:01:54Z</time>
      </trkpt>
      <trkpt lat="43.295850" lon="-4.228100">
        <ele>415.0</ele>
        <time>2015-05-23T16:01:55Z</time>
      </trkpt>
      <trkpt lat="43.295783" lon="-4.228000">
        <ele>414.0</ele>
        <time>2015-05-23T16:01:56Z</time>
      </trkpt>
      <trkpt lat="43.295700" lon="-4.227900">
        <ele>414.0</ele>
        <time>2015-05-23T16:01:57Z</time>
      </trkpt>
      <trkpt lat="43.295617" lon="-4.227800">
        <ele>413.0</ele>
        <time>2015-05-23T16:01:58Z</time>
      </trkpt>
      <trkpt lat="43.295517" lon="-4.227733">
        <ele>412.0</ele>
        <time>2015-05-23T16:01:59Z</time>
      </trkpt>
      <trkpt lat="43.295433" lon="-4.227650">
        <ele>412.0</ele>
        <time>2015-05-23T16:02:00Z</time>
      </trkpt>
      <trkpt lat="43.295350" lon="-4.227567">
        <ele>412.0</ele>
        <time>2015-05-23T16:02:01Z</time>
      </trkpt>
      <trkpt lat="43.295250" lon="-4.227467">
        <ele>411.0</ele>
        <time>2015-05-23T16:02:02Z</time>
      </trkpt>
      <trkpt lat="43.295150" lon="-4.227383">
        <ele>410.0</ele>
        <time>2015-05-23T16:02:03Z</time>
      </trkpt>
      <trkpt lat="43.295050" lon="-4.227317">
        <ele>410.0</ele>
        <time>2015-05-23T16:02:04Z</time>
      </trkpt>
      <trkpt lat="43.294950" lon="-4.227267">
        <ele>409.0</ele>
        <time>2015-05-23T16:02:05Z</time>
      </trkpt>
      <trkpt lat="43.294867" lon="-4.227200">
        <ele>410.0</ele>
        <time>2015-05-23T16:02:06Z</time>
      </trkpt>
      <trkpt lat="43.294767" lon="-4.227150">
        <ele>411.0</ele>
        <time>2015-05-23T16:02:07Z</time>
      </trkpt>
      <trkpt lat="43.294667" lon="-4.227117">
        <ele>411.0</ele>
        <time>2015-05-23T16:02:08Z</time>
      </trkpt>
      <trkpt lat="43.294567" lon="-4.227100">
        <ele>411.0</ele>
        <time>2015-05-23T16:02:09Z</time>
      </trkpt>
      <trkpt lat="43.294467" lon="-4.227067">
        <ele>411.0</ele>
        <time>2015-05-23T16:02:10Z</time>
      </trkpt>
      <trkpt lat="43.294350" lon="-4.227017">
        <ele>411.0</ele>
        <time>2015-05-23T16:02:11Z</time>
      </trkpt>
      <trkpt lat="43.294250" lon="-4.226983">
        <ele>411.0</ele>
        <time>2015-05-23T16:02:12Z</time>
      </trkpt>
      <trkpt lat="43.294133" lon="-4.226950">
        <ele>412.0</ele>
        <time>2015-05-23T16:02:13Z</time>
      </trkpt>
      <trkpt lat="43.294033" lon="-4.226900">
        <ele>412.0</ele>
        <time>2015-05-23T16:02:14Z</time>
      </trkpt>
      <trkpt lat="43.293967" lon="-4.226833">
        <ele>411.0</ele>
        <time>2015-05-23T16:02:15Z</time>
      </trkpt>
      <trkpt lat="43.293867" lon="-4.226750">
        <ele>409.0</ele>
        <time>2015-05-23T16:02:16Z</time>
      </trkpt>
      <trkpt lat="43.293783" lon="-4.226667">
        <ele>407.0</ele>
        <time>2015-05-23T16:02:17Z</time>
      </trkpt>
      <trkpt lat="43.293683" lon="-4.226600">
        <ele>406.0</ele>
        <time>2015-05-23T16:02:18Z</time>
      </trkpt>
      <trkpt lat="43.293600" lon="-4.226517">
        <ele>404.0</ele>
        <time>2015-05-23T16:02:19Z</time>
      </trkpt>
      <trkpt lat="43.293500" lon="-4.226417">
        <ele>401.0</ele>
        <time>2015-05-23T16:02:20Z</time>
      </trkpt>
      <trkpt lat="43.293417" lon="-4.226333">
        <ele>399.0</ele>
        <time>2015-05-23T16:02:21Z</time>
      </trkpt>
      <trkpt lat="43.293333" lon="-4.226233">
        <ele>398.0</ele>
        <time>2015-05-23T16:02:22Z</time>
      </trkpt>
      <trkpt lat="43.293250" lon="-4.226150">
        <ele>396.0</ele>
        <time>2015-05-23T16:02:23Z</time>
      </trkpt>
      <trkpt lat="43.293167" lon="-4.226067">
        <ele>394.0</ele>
        <time>2015-05-23T16:02:24Z</time>
      </trkpt>
      <trkpt lat="43.293083" lon="-4.225967">
        <ele>392.0</ele>
        <time>2015-05-23T16:02:25Z</time>
      </trkpt>
      <trkpt lat="43.293000" lon="-4.225867">
        <ele>390.0</ele>
        <time>2015-05-23T16:02:26Z</time>
      </trkpt>
      <trkpt lat="43.292933" lon="-4.225750">
        <ele>389.0</ele>
        <time>2015-05-23T16:02:27Z</time>
      </trkpt>
      <trkpt lat="43.292850" lon="-4.225650">
        <ele>387.0</ele>
        <time>2015-05-23T16:02:28Z</time>
      </trkpt>
      <trkpt lat="43.292783" lon="-4.225550">
        <ele>386.0</ele>
        <time>2015-05-23T16:02:29Z</time>
      </trkpt>
      <trkpt lat="43.292700" lon="-4.225450">
        <ele>385.0</ele>
        <time>2015-05-23T16:02:30Z</time>
      </trkpt>
      <trkpt lat="43.292617" lon="-4.225350">
        <ele>382.0</ele>
        <time>2015-05-23T16:02:31Z</time>
      </trkpt>
      <trkpt lat="43.292533" lon="-4.225233">
        <ele>380.0</ele>
        <time>2015-05-23T16:02:32Z</time>
      </trkpt>
      <trkpt lat="43.292450" lon="-4.225117">
        <ele>378.0</ele>
        <time>2015-05-23T16:02:33Z</time>
      </trkpt>
      <trkpt lat="43.292400" lon="-4.225000">
        <ele>377.0</ele>
        <time>2015-05-23T16:02:34Z</time>
      </trkpt>
      <trkpt lat="43.292333" lon="-4.224900">
        <ele>376.0</ele>
        <time>2015-05-23T16:02:35Z</time>
      </trkpt>
      <trkpt lat="43.292267" lon="-4.224783">
        <ele>375.0</ele>
        <time>2015-05-23T16:02:36Z</time>
      </trkpt>
      <trkpt lat="43.292183" lon="-4.224667">
        <ele>374.0</ele>
        <time>2015-05-23T16:02:37Z</time>
      </trkpt>
      <trkpt lat="43.292100" lon="-4.224550">
        <ele>372.0</ele>
        <time>2015-05-23T16:02:38Z</time>
      </trkpt>
      <trkpt lat="43.292017" lon="-4.224433">
        <ele>372.0</ele>
        <time>2015-05-23T16:02:39Z</time>
      </trkpt>
      <trkpt lat="43.291950" lon="-4.224317">
        <ele>372.0</ele>
        <time>2015-05-23T16:02:40Z</time>
      </trkpt>
      <trkpt lat="43.291883" lon="-4.224200">
        <ele>373.0</ele>
        <time>2015-05-23T16:02:41Z</time>
      </trkpt>
      <trkpt lat="43.291833" lon="-4.224083">
        <ele>373.0</ele>
        <time>2015-05-23T16:02:42Z</time>
      </trkpt>
      <trkpt lat="43.291767" lon="-4.223983">
        <ele>374.0</ele>
        <time>2015-05-23T16:02:43Z</time>
      </trkpt>
      <trkpt lat="43.291717" lon="-4.223883">
        <ele>375.0</ele>
        <time>2015-05-23T16:02:44Z</time>
      </trkpt>
      <trkpt lat="43.291650" lon="-4.223783">
        <ele>375.0</ele>
        <time>2015-05-23T16:02:45Z</time>
      </trkpt>
      <trkpt lat="43.291600" lon="-4.223717">
        <ele>375.0</ele>
        <time>2015-05-23T16:02:46Z</time>
      </trkpt>
      <trkpt lat="43.291533" lon="-4.223617">
        <ele>375.0</ele>
        <time>2015-05-23T16:02:47Z</time>
      </trkpt>
      <trkpt lat="43.291483" lon="-4.223533">
        <ele>375.0</ele>
        <time>2015-05-23T16:02:48Z</time>
      </trkpt>
      <trkpt lat="43.291383" lon="-4.223417">
        <ele>376.0</ele>
        <time>2015-05-23T16:02:49Z</time>
      </trkpt>
      <trkpt lat="43.291300" lon="-4.223317">
        <ele>376.0</ele>
        <time>2015-05-23T16:02:50Z</time>
      </trkpt>
      <trkpt lat="43.291233" lon="-4.223233">
        <ele>376.0</ele>
        <time>2015-05-23T16:02:51Z</time>
      </trkpt>
      <trkpt lat="43.291150" lon="-4.223150">
        <ele>377.0</ele>
        <time>2015-05-23T16:02:52Z</time>
      </trkpt>
      <trkpt lat="43.291083" lon="-4.223050">
        <ele>378.0</ele>
        <time>2015-05-23T16:02:53Z</time>
      </trkpt>
      <trkpt lat="43.291017" lon="-4.222950">
        <ele>378.0</ele>
        <time>2015-05-23T16:02:54Z</time>
      </trkpt>
      <trkpt lat="43.290950" lon="-4.222850">
        <ele>379.0</ele>
        <time>2015-05-23T16:02:55Z</time>
      </trkpt>
      <trkpt lat="43.290900" lon="-4.222767">
        <ele>379.0</ele>
        <time>2015-05-23T16:02:56Z</time>
      </trkpt>
      <trkpt lat="43.290850" lon="-4.222667">
        <ele>380.0</ele>
        <time>2015-05-23T16:02:57Z</time>
      </trkpt>
      <trkpt lat="43.290800" lon="-4.222583">
        <ele>379.0</ele>
        <time>2015-05-23T16:02:58Z</time>
      </trkpt>
      <trkpt lat="43.290750" lon="-4.222483">
        <ele>379.0</ele>
        <time>2015-05-23T16:02:59Z</time>
      </trkpt>
      <trkpt lat="43.290700" lon="-4.222450">
        <ele>379.0</ele>
        <time>2015-05-23T16:03:00Z</time>
      </trkpt>
      <trkpt lat="43.290650" lon="-4.222383">
        <ele>380.0</ele>
        <time>2015-05-23T16:03:01Z</time>
      </trkpt>
      <trkpt lat="43.290600" lon="-4.222317">
        <ele>381.0</ele>
        <time>2015-05-23T16:03:02Z</time>
      </trkpt>
      <trkpt lat="43.290550" lon="-4.222250">
        <ele>382.0</ele>
        <time>2015-05-23T16:03:03Z</time>
      </trkpt>
      <trkpt lat="43.290483" lon="-4.222183">
        <ele>382.0</ele>
        <time>2015-05-23T16:03:04Z</time>
      </trkpt>
      <trkpt lat="43.290417" lon="-4.222100">
        <ele>382.0</ele>
        <time>2015-05-23T16:03:05Z</time>
      </trkpt>
      <trkpt lat="43.290333" lon="-4.222033">
        <ele>383.0</ele>
        <time>2015-05-23T16:03:06Z</time>
      </trkpt>
      <trkpt lat="43.290267" lon="-4.221933">
        <ele>384.0</ele>
        <time>2015-05-23T16:03:07Z</time>
      </trkpt>
      <trkpt lat="43.290200" lon="-4.221850">
        <ele>384.0</ele>
        <time>2015-05-23T16:03:08Z</time>
      </trkpt>
      <trkpt lat="43.290133" lon="-4.221733">
        <ele>384.0</ele>
        <time>2015-05-23T16:03:09Z</time>
      </trkpt>
      <trkpt lat="43.290083" lon="-4.221633">
        <ele>385.0</ele>
        <time>2015-05-23T16:03:10Z</time>
      </trkpt>
      <trkpt lat="43.290033" lon="-4.221517">
        <ele>385.0</ele>
        <time>2015-05-23T16:03:11Z</time>
      </trkpt>
      <trkpt lat="43.289983" lon="-4.221383">
        <ele>386.0</ele>
        <time>2015-05-23T16:03:12Z</time>
      </trkpt>
      <trkpt lat="43.289933" lon="-4.221300">
        <ele>387.0</ele>
        <time>2015-05-23T16:03:13Z</time>
      </trkpt>
      <trkpt lat="43.289917" lon="-4.221233">
        <ele>387.0</ele>
        <time>2015-05-23T16:03:14Z</time>
      </trkpt>
      <trkpt lat="43.289917" lon="-4.221167">
        <ele>386.0</ele>
        <time>2015-05-23T16:03:15Z</time>
      </trkpt>
      <trkpt lat="43.289933" lon="-4.221100">
        <ele>386.0</ele>
        <time>2015-05-23T16:03:16Z</time>
      </trkpt>
      <trkpt lat="43.289967" lon="-4.221050">
        <ele>386.0</ele>
        <time>2015-05-23T16:03:17Z</time>
      </trkpt>
      <trkpt lat="43.290017" lon="-4.221000">
        <ele>386.0</ele>
        <time>2015-05-23T16:03:18Z</time>
      </trkpt>
      <trkpt lat="43.290067" lon="-4.220967">
        <ele>387.0</ele>
        <time>2015-05-23T16:03:19Z</time>
      </trkpt>
      <trkpt lat="43.290133" lon="-4.220933">
        <ele>387.0</ele>
        <time>2015-05-23T16:03:20Z</time>
      </trkpt>
      <trkpt lat="43.290200" lon="-4.220917">
        <ele>387.0</ele>
        <time>2015-05-23T16:03:21Z</time>
      </trkpt>
      <trkpt lat="43.290267" lon="-4.220900">
        <ele>386.0</ele>
        <time>2015-05-23T16:03:22Z</time>
      </trkpt>
      <trkpt lat="43.290333" lon="-4.220883">
        <ele>387.0</ele>
        <time>2015-05-23T16:03:23Z</time>
      </trkpt>
      <trkpt lat="43.290400" lon="-4.220883">
        <ele>387.0</ele>
        <time>2015-05-23T16:03:24Z</time>
      </trkpt>
      <trkpt lat="43.290467" lon="-4.220900">
        <ele>387.0</ele>
        <time>2015-05-23T16:03:25Z</time>
      </trkpt>
      <trkpt lat="43.290533" lon="-4.220900">
        <ele>388.0</ele>
        <time>2015-05-23T16:03:26Z</time>
      </trkpt>
      <trkpt lat="43.290617" lon="-4.220900">
        <ele>388.0</ele>
        <time>2015-05-23T16:03:27Z</time>
      </trkpt>
      <trkpt lat="43.290683" lon="-4.220917">
        <ele>388.0</ele>
        <time>2015-05-23T16:03:28Z</time>
      </trkpt>
      <trkpt lat="43.290750" lon="-4.220933">
        <ele>388.0</ele>
        <time>2015-05-23T16:03:29Z</time>
      </trkpt>
      <trkpt lat="43.290817" lon="-4.220967">
        <ele>388.0</ele>
        <time>2015-05-23T16:03:30Z</time>
      </trkpt>
      <trkpt lat="43.290867" lon="-4.221000">
        <ele>389.0</ele>
        <time>2015-05-23T16:03:31Z</time>
      </trkpt>
      <trkpt lat="43.290900" lon="-4.221017">
        <ele>389.0</ele>
        <time>2015-05-23T16:03:32Z</time>
      </trkpt>
      <trkpt lat="43.290917" lon="-4.221033">
        <ele>391.0</ele>
        <time>2015-05-23T16:03:33Z</time>
      </trkpt>
      <trkpt lat="43.290933" lon="-4.221050">
        <ele>393.0</ele>
        <time>2015-05-23T16:03:34Z</time>
      </trkpt>
      <trkpt lat="43.290967" lon="-4.221083">
        <ele>394.0</ele>
        <time>2015-05-23T16:03:35Z</time>
      </trkpt>
      <trkpt lat="43.291000" lon="-4.221117">
        <ele>394.0</ele>
        <time>2015-05-23T16:03:36Z</time>
      </trkpt>
      <trkpt lat="43.291033" lon="-4.221183">
        <ele>394.0</ele>
        <time>2015-05-23T16:03:37Z</time>
      </trkpt>
      <trkpt lat="43.291067" lon="-4.221250">
        <ele>394.0</ele>
        <time>2015-05-23T16:03:38Z</time>
      </trkpt>
      <trkpt lat="43.291083" lon="-4.221333">
        <ele>396.0</ele>
        <time>2015-05-23T16:03:39Z</time>
      </trkpt>
      <trkpt lat="43.291067" lon="-4.221417">
        <ele>396.0</ele>
        <time>2015-05-23T16:03:40Z</time>
      </trkpt>
      <trkpt lat="43.291050" lon="-4.221500">
        <ele>397.0</ele>
        <time>2015-05-23T16:03:41Z</time>
      </trkpt>
      <trkpt lat="43.291033" lon="-4.221600">
        <ele>396.0</ele>
        <time>2015-05-23T16:03:42Z</time>
      </trkpt>
      <trkpt lat="43.291000" lon="-4.221700">
        <ele>396.0</ele>
        <time>2015-05-23T16:03:43Z</time>
      </trkpt>
      <trkpt lat="43.290967" lon="-4.221783">
        <ele>397.0</ele>
        <time>2015-05-23T16:03:44Z</time>
      </trkpt>
      <trkpt lat="43.290933" lon="-4.221900">
        <ele>397.0</ele>
        <time>2015-05-23T16:03:45Z</time>
      </trkpt>
      <trkpt lat="43.290900" lon="-4.222000">
        <ele>397.0</ele>
        <time>2015-05-23T16:03:46Z</time>
      </trkpt>
      <trkpt lat="43.290867" lon="-4.222100">
        <ele>397.0</ele>
        <time>2015-05-23T16:03:47Z</time>
      </trkpt>
      <trkpt lat="43.290850" lon="-4.222217">
        <ele>397.0</ele>
        <time>2015-05-23T16:03:48Z</time>
      </trkpt>
      <trkpt lat="43.290833" lon="-4.222317">
        <ele>397.0</ele>
        <time>2015-05-23T16:03:49Z</time>
      </trkpt>
      <trkpt lat="43.290800" lon="-4.222433">
        <ele>398.0</ele>
        <time>2015-05-23T16:03:50Z</time>
      </trkpt>
      <trkpt lat="43.290783" lon="-4.222533">
        <ele>397.0</ele>
        <time>2015-05-23T16:03:51Z</time>
      </trkpt>
      <trkpt lat="43.290767" lon="-4.222667">
        <ele>397.0</ele>
        <time>2015-05-23T16:03:52Z</time>
      </trkpt>
      <trkpt lat="43.290717" lon="-4.222767">
        <ele>397.0</ele>
        <time>2015-05-23T16:03:53Z</time>
      </trkpt>
      <trkpt lat="43.290667" lon="-4.222833">
        <ele>397.0</ele>
        <time>2015-05-23T16:03:54Z</time>
      </trkpt>
      <trkpt lat="43.290583" lon="-4.222900">
        <ele>397.0</ele>
        <time>2015-05-23T16:03:55Z</time>
      </trkpt>
      <trkpt lat="43.290517" lon="-4.222933">
        <ele>397.0</ele>
        <time>2015-05-23T16:03:56Z</time>
      </trkpt>
      <trkpt lat="43.290433" lon="-4.223000">
        <ele>397.0</ele>
        <time>2015-05-23T16:03:57Z</time>
      </trkpt>
      <trkpt lat="43.290350" lon="-4.223067">
        <ele>397.0</ele>
        <time>2015-05-23T16:03:58Z</time>
      </trkpt>
      <trkpt lat="43.290250" lon="-4.223117">
        <ele>399.0</ele>
        <time>2015-05-23T16:03:59Z</time>
      </trkpt>
      <trkpt lat="43.290150" lon="-4.223150">
        <ele>399.0</ele>
        <time>2015-05-23T16:04:00Z</time>
      </trkpt>
      <trkpt lat="43.290050" lon="-4.223183">
        <ele>399.0</ele>
        <time>2015-05-23T16:04:01Z</time>
      </trkpt>
      <trkpt lat="43.289950" lon="-4.223233">
        <ele>400.0</ele>
        <time>2015-05-23T16:04:02Z</time>
      </trkpt>
      <trkpt lat="43.289867" lon="-4.223283">
        <ele>401.0</ele>
        <time>2015-05-23T16:04:03Z</time>
      </trkpt>
      <trkpt lat="43.289767" lon="-4.223317">
        <ele>402.0</ele>
        <time>2015-05-23T16:04:04Z</time>
      </trkpt>
      <trkpt lat="43.289667" lon="-4.223333">
        <ele>403.0</ele>
        <time>2015-05-23T16:04:05Z</time>
      </trkpt>
      <trkpt lat="43.289567" lon="-4.223350">
        <ele>404.0</ele>
        <time>2015-05-23T16:04:06Z</time>
      </trkpt>
      <trkpt lat="43.289467" lon="-4.223350">
        <ele>405.0</ele>
        <time>2015-05-23T16:04:07Z</time>
      </trkpt>
      <trkpt lat="43.289383" lon="-4.223333">
        <ele>405.0</ele>
        <time>2015-05-23T16:04:08Z</time>
      </trkpt>
      <trkpt lat="43.289283" lon="-4.223300">
        <ele>404.0</ele>
        <time>2015-05-23T16:04:09Z</time>
      </trkpt>
      <trkpt lat="43.289200" lon="-4.223233">
        <ele>404.0</ele>
        <time>2015-05-23T16:04:10Z</time>
      </trkpt>
      <trkpt lat="43.289117" lon="-4.223167">
        <ele>403.0</ele>
        <time>2015-05-23T16:04:11Z</time>
      </trkpt>
      <trkpt lat="43.289050" lon="-4.223100">
        <ele>403.0</ele>
        <time>2015-05-23T16:04:12Z</time>
      </trkpt>
      <trkpt lat="43.289000" lon="-4.223017">
        <ele>403.0</ele>
        <time>2015-05-23T16:04:13Z</time>
      </trkpt>
      <trkpt lat="43.288967" lon="-4.222917">
        <ele>402.0</ele>
        <time>2015-05-23T16:04:14Z</time>
      </trkpt>
      <trkpt lat="43.288967" lon="-4.222833">
        <ele>402.0</ele>
        <time>2015-05-23T16:04:15Z</time>
      </trkpt>
      <trkpt lat="43.288983" lon="-4.222767">
        <ele>402.0</ele>
        <time>2015-05-23T16:04:16Z</time>
      </trkpt>
      <trkpt lat="43.289017" lon="-4.222733">
        <ele>402.0</ele>
        <time>2015-05-23T16:04:17Z</time>
      </trkpt>
      <trkpt lat="43.289067" lon="-4.222717">
        <ele>401.0</ele>
        <time>2015-05-23T16:04:18Z</time>
      </trkpt>
      <trkpt lat="43.289117" lon="-4.222683">
        <ele>401.0</ele>
        <time>2015-05-23T16:04:19Z</time>
      </trkpt>
      <trkpt lat="43.289167" lon="-4.222650">
        <ele>401.0</ele>
        <time>2015-05-23T16:04:20Z</time>
      </trkpt>
      <trkpt lat="43.289217" lon="-4.222633">
        <ele>401.0</ele>
        <time>2015-05-23T16:04:21Z</time>
      </trkpt>
      <trkpt lat="43.289267" lon="-4.222633">
        <ele>402.0</ele>
        <time>2015-05-23T16:04:22Z</time>
      </trkpt>
      <trkpt lat="43.289333" lon="-4.222650">
        <ele>402.0</ele>
        <time>2015-05-23T16:04:23Z</time>
      </trkpt>
      <trkpt lat="43.289383" lon="-4.222667">
        <ele>402.0</ele>
        <time>2015-05-23T16:04:24Z</time>
      </trkpt>
      <trkpt lat="43.289450" lon="-4.222667">
        <ele>402.0</ele>
        <time>2015-05-23T16:04:25Z</time>
      </trkpt>
      <trkpt lat="43.289517" lon="-4.222667">
        <ele>403.0</ele>
        <time>2015-05-23T16:04:26Z</time>
      </trkpt>
      <trkpt lat="43.289567" lon="-4.222667">
        <ele>403.0</ele>
        <time>2015-05-23T16:04:27Z</time>
      </trkpt>
      <trkpt lat="43.289617" lon="-4.222683">
        <ele>403.0</ele>
        <time>2015-05-23T16:04:28Z</time>
      </trkpt>
      <trkpt lat="43.289650" lon="-4.222683">
        <ele>404.0</ele>
        <time>2015-05-23T16:04:29Z</time>
      </trkpt>
      <trkpt lat="43.289683" lon="-4.222683">
        <ele>405.0</ele>
        <time>2015-05-23T16:04:30Z</time>
      </trkpt>
      <trkpt lat="43.289733" lon="-4.222650">
        <ele>406.0</ele>
        <time>2015-05-23T16:04:31Z</time>
      </trkpt>
      <trkpt lat="43.289783" lon="-4.222617">
        <ele>408.0</ele>
        <time>2015-05-23T16:04:32Z</time>
      </trkpt>
      <trkpt lat="43.289833" lon="-4.222567">
        <ele>409.0</ele>
        <time>2015-05-23T16:04:33Z</time>
      </trkpt>
      <trkpt lat="43.289883" lon="-4.222500">
        <ele>409.0</ele>
        <time>2015-05-23T16:04:34Z</time>
      </trkpt>
      <trkpt lat="43.289917" lon="-4.222433">
        <ele>409.0</ele>
        <time>2015-05-23T16:04:35Z</time>
      </trkpt>
      <trkpt lat="43.289933" lon="-4.222333">
        <ele>409.0</ele>
        <time>2015-05-23T16:04:36Z</time>
      </trkpt>
      <trkpt lat="43.289983" lon="-4.222217">
        <ele>406.0</ele>
        <time>2015-05-23T16:04:37Z</time>
      </trkpt>
      <trkpt lat="43.290017" lon="-4.222100">
        <ele>405.0</ele>
        <time>2015-05-23T16:04:38Z</time>
      </trkpt>
      <trkpt lat="43.290067" lon="-4.222000">
        <ele>404.0</ele>
        <time>2015-05-23T16:04:39Z</time>
      </trkpt>
      <trkpt lat="43.290100" lon="-4.221917">
        <ele>403.0</ele>
        <time>2015-05-23T16:04:40Z</time>
      </trkpt>
      <trkpt lat="43.290117" lon="-4.221833">
        <ele>404.0</ele>
        <time>2015-05-23T16:04:41Z</time>
      </trkpt>
      <trkpt lat="43.290150" lon="-4.221750">
        <ele>404.0</ele>
        <time>2015-05-23T16:04:42Z</time>
      </trkpt>
      <trkpt lat="43.290183" lon="-4.221667">
        <ele>402.0</ele>
        <time>2015-05-23T16:04:43Z</time>
      </trkpt>
      <trkpt lat="43.290233" lon="-4.221567">
        <ele>401.0</ele>
        <time>2015-05-23T16:04:44Z</time>
      </trkpt>
      <trkpt lat="43.290283" lon="-4.221483">
        <ele>400.0</ele>
        <time>2015-05-23T16:04:45Z</time>
      </trkpt>
      <trkpt lat="43.290333" lon="-4.221383">
        <ele>399.0</ele>
        <time>2015-05-23T16:04:46Z</time>
      </trkpt>
      <trkpt lat="43.290367" lon="-4.221317">
        <ele>399.0</ele>
        <time>2015-05-23T16:04:47Z</time>
      </trkpt>
      <trkpt lat="43.290417" lon="-4.221250">
        <ele>399.0</ele>
        <time>2015-05-23T16:04:48Z</time>
      </trkpt>
      <trkpt lat="43.290467" lon="-4.221217">
        <ele>398.0</ele>
        <time>2015-05-23T16:04:49Z</time>
      </trkpt>
      <trkpt lat="43.290517" lon="-4.221167">
        <ele>396.0</ele>
        <time>2015-05-23T16:04:50Z</time>
      </trkpt>
      <trkpt lat="43.290583" lon="-4.221133">
        <ele>395.0</ele>
        <time>2015-05-23T16:04:51Z</time>
      </trkpt>
      <trkpt lat="43.290633" lon="-4.221117">
        <ele>395.0</ele>
        <time>2015-05-23T16:04:52Z</time>
      </trkpt>
      <trkpt lat="43.290683" lon="-4.221100">
        <ele>395.0</ele>
        <time>2015-05-23T16:04:53Z</time>
      </trkpt>
      <trkpt lat="43.290700" lon="-4.221133">
        <ele>395.0</ele>
        <time>2015-05-23T16:04:54Z</time>
      </trkpt>
      <trkpt lat="43.290717" lon="-4.221200">
        <ele>394.0</ele>
        <time>2015-05-23T16:04:55Z</time>
      </trkpt>
      <trkpt lat="43.290733" lon="-4.221283">
        <ele>393.0</ele>
        <time>2015-05-23T16:04:56Z</time>
      </trkpt>
      <trkpt lat="43.290750" lon="-4.221383">
        <ele>390.0</ele>
        <time>2015-05-23T16:04:57Z</time>
      </trkpt>
      <trkpt lat="43.290750" lon="-4.221483">
        <ele>391.0</ele>
        <time>2015-05-23T16:04:58Z</time>
      </trkpt>
      <trkpt lat="43.290733" lon="-4.221567">
        <ele>389.0</ele>
        <time>2015-05-23T16:04:59Z</time>
      </trkpt>
      <trkpt lat="43.290750" lon="-4.221650">
        <ele>388.0</ele>
        <time>2015-05-23T16:05:00Z</time>
      </trkpt>
      <trkpt lat="43.290750" lon="-4.221750">
        <ele>387.0</ele>
        <time>2015-05-23T16:05:01Z</time>
      </trkpt>
      <trkpt lat="43.290767" lon="-4.221833">
        <ele>385.0</ele>
        <time>2015-05-23T16:05:02Z</time>
      </trkpt>
      <trkpt lat="43.290800" lon="-4.221933">
        <ele>383.0</ele>
        <time>2015-05-23T16:05:03Z</time>
      </trkpt>
      <trkpt lat="43.290817" lon="-4.222033">
        <ele>385.0</ele>
        <time>2015-05-23T16:05:04Z</time>
      </trkpt>
      <trkpt lat="43.290850" lon="-4.222117">
        <ele>385.0</ele>
        <time>2015-05-23T16:05:05Z</time>
      </trkpt>
      <trkpt lat="43.290867" lon="-4.222233">
        <ele>385.0</ele>
        <time>2015-05-23T16:05:06Z</time>
      </trkpt>
      <trkpt lat="43.290883" lon="-4.222350">
        <ele>384.0</ele>
        <time>2015-05-23T16:05:07Z</time>
      </trkpt>
      <trkpt lat="43.290883" lon="-4.222467">
        <ele>383.0</ele>
        <time>2015-05-23T16:05:08Z</time>
      </trkpt>
      <trkpt lat="43.290883" lon="-4.222583">
        <ele>383.0</ele>
        <time>2015-05-23T16:05:09Z</time>
      </trkpt>
      <trkpt lat="43.290867" lon="-4.222667">
        <ele>383.0</ele>
        <time>2015-05-23T16:05:10Z</time>
      </trkpt>
      <trkpt lat="43.290883" lon="-4.222750">
        <ele>382.0</ele>
        <time>2015-05-23T16:05:11Z</time>
      </trkpt>
      <trkpt lat="43.290917" lon="-4.222800">
        <ele>381.0</ele>
        <time>2015-05-23T16:05:12Z</time>
      </trkpt>
      <trkpt lat="43.290967" lon="-4.222850">
        <ele>379.0</ele>
        <time>2015-05-23T16:05:13Z</time>
      </trkpt>
      <trkpt lat="43.291017" lon="-4.222900">
        <ele>377.0</ele>
        <time>2015-05-23T16:05:14Z</time>
      </trkpt>
      <trkpt lat="43.291050" lon="-4.222917">
        <ele>376.0</ele>
        <time>2015-05-23T16:05:15Z</time>
      </trkpt>
      <trkpt lat="43.291083" lon="-4.222900">
        <ele>374.0</ele>
        <time>2015-05-23T16:05:16Z</time>
      </trkpt>
      <trkpt lat="43.291117" lon="-4.222850">
        <ele>372.0</ele>
        <time>2015-05-23T16:05:17Z</time>
      </trkpt>
      <trkpt lat="43.291133" lon="-4.222800">
        <ele>373.0</ele>
        <time>2015-05-23T16:05:18Z</time>
      </trkpt>
      <trkpt lat="43.291183" lon="-4.222767">
        <ele>372.0</ele>
        <time>2015-05-23T16:05:19Z</time>
      </trkpt>
      <trkpt lat="43.291200" lon="-4.222717">
        <ele>371.0</ele>
        <time>2015-05-23T16:05:20Z</time>
      </trkpt>
      <trkpt lat="43.291233" lon="-4.222683">
        <ele>369.0</ele>
        <time>2015-05-23T16:05:21Z</time>
      </trkpt>
      <trkpt lat="43.291250" lon="-4.222633">
        <ele>366.0</ele>
        <time>2015-05-23T16:05:22Z</time>
      </trkpt>
      <trkpt lat="43.291283" lon="-4.222583">
        <ele>364.0</ele>
        <time>2015-05-23T16:05:23Z</time>
      </trkpt>
      <trkpt lat="43.291300" lon="-4.222517">
        <ele>361.0</ele>
        <time>2015-05-23T16:05:24Z</time>
      </trkpt>
      <trkpt lat="43.291317" lon="-4.222433">
        <ele>359.0</ele>
        <time>2015-05-23T16:05:25Z</time>
      </trkpt>
      <trkpt lat="43.291333" lon="-4.222350">
        <ele>356.0</ele>
        <time>2015-05-23T16:05:26Z</time>
      </trkpt>
      <trkpt lat="43.291350" lon="-4.222267">
        <ele>353.0</ele>
        <time>2015-05-23T16:05:27Z</time>
      </trkpt>
      <trkpt lat="43.291383" lon="-4.222167">
        <ele>350.0</ele>
        <time>2015-05-23T16:05:28Z</time>
      </trkpt>
      <trkpt lat="43.291433" lon="-4.222083">
        <ele>347.0</ele>
        <time>2015-05-23T16:05:29Z</time>
      </trkpt>
      <trkpt lat="43.291483" lon="-4.222017">
        <ele>345.0</ele>
        <time>2015-05-23T16:05:30Z</time>
      </trkpt>
      <trkpt lat="43.291500" lon="-4.221967">
        <ele>343.0</ele>
        <time>2015-05-23T16:05:31Z</time>
      </trkpt>
      <trkpt lat="43.291517" lon="-4.221917">
        <ele>343.0</ele>
        <time>2015-05-23T16:05:32Z</time>
      </trkpt>
      <trkpt lat="43.291517" lon="-4.221883">
        <ele>342.0</ele>
        <time>2015-05-23T16:05:33Z</time>
      </trkpt>
      <trkpt lat="43.291517" lon="-4.221833">
        <ele>340.0</ele>
        <time>2015-05-23T16:05:34Z</time>
      </trkpt>
      <trkpt lat="43.291550" lon="-4.221783">
        <ele>337.0</ele>
        <time>2015-05-23T16:05:35Z</time>
      </trkpt>
      <trkpt lat="43.291583" lon="-4.221750">
        <ele>334.0</ele>
        <time>2015-05-23T16:05:36Z</time>
      </trkpt>
      <trkpt lat="43.291633" lon="-4.221700">
        <ele>331.0</ele>
        <time>2015-05-23T16:05:37Z</time>
      </trkpt>
      <trkpt lat="43.291667" lon="-4.221683">
        <ele>334.0</ele>
        <time>2015-05-23T16:05:38Z</time>
      </trkpt>
      <trkpt lat="43.291700" lon="-4.221683">
        <ele>333.0</ele>
        <time>2015-05-23T16:05:39Z</time>
      </trkpt>
      <trkpt lat="43.291750" lon="-4.221667">
        <ele>331.0</ele>
        <time>2015-05-23T16:05:40Z</time>
      </trkpt>
      <trkpt lat="43.291783" lon="-4.221667">
        <ele>329.0</ele>
        <time>2015-05-23T16:05:41Z</time>
      </trkpt>
      <trkpt lat="43.291817" lon="-4.221700">
        <ele>326.0</ele>
        <time>2015-05-23T16:05:42Z</time>
      </trkpt>
      <trkpt lat="43.291833" lon="-4.221767">
        <ele>324.0</ele>
        <time>2015-05-23T16:05:43Z</time>
      </trkpt>
      <trkpt lat="43.291833" lon="-4.221867">
        <ele>321.0</ele>
        <time>2015-05-23T16:05:44Z</time>
      </trkpt>
      <trkpt lat="43.291783" lon="-4.221983">
        <ele>318.0</ele>
        <time>2015-05-23T16:05:45Z</time>
      </trkpt>
      <trkpt lat="43.291733" lon="-4.222083">
        <ele>316.0</ele>
        <time>2015-05-23T16:05:46Z</time>
      </trkpt>
      <trkpt lat="43.291667" lon="-4.222167">
        <ele>314.0</ele>
        <time>2015-05-23T16:05:47Z</time>
      </trkpt>
      <trkpt lat="43.291617" lon="-4.222250">
        <ele>312.0</ele>
        <time>2015-05-23T16:05:48Z</time>
      </trkpt>
      <trkpt lat="43.291550" lon="-4.222350">
        <ele>310.0</ele>
        <time>2015-05-23T16:05:49Z</time>
      </trkpt>
      <trkpt lat="43.291500" lon="-4.222433">
        <ele>307.0</ele>
        <time>2015-05-23T16:05:50Z</time>
      </trkpt>
      <trkpt lat="43.291433" lon="-4.222500">
        <ele>305.0</ele>
        <time>2015-05-23T16:05:51Z</time>
      </trkpt>
      <trkpt lat="43.291350" lon="-4.222567">
        <ele>306.0</ele>
        <time>2015-05-23T16:05:52Z</time>
      </trkpt>
      <trkpt lat="43.291250" lon="-4.222600">
        <ele>305.0</ele>
        <time>2015-05-23T16:05:53Z</time>
      </trkpt>
      <trkpt lat="43.291150" lon="-4.222633">
        <ele>303.0</ele>
        <time>2015-05-23T16:05:54Z</time>
      </trkpt>
      <trkpt lat="43.291050" lon="-4.222633">
        <ele>302.0</ele>
        <time>2015-05-23T16:05:55Z</time>
      </trkpt>
      <trkpt lat="43.290950" lon="-4.222633">
        <ele>300.0</ele>
        <time>2015-05-23T16:05:56Z</time>
      </trkpt>
      <trkpt lat="43.290867" lon="-4.222617">
        <ele>299.0</ele>
        <time>2015-05-23T16:05:57Z</time>
      </trkpt>
      <trkpt lat="43.290767" lon="-4.222583">
        <ele>298.0</ele>
        <time>2015-05-23T16:05:58Z</time>
      </trkpt>
      <trkpt lat="43.290683" lon="-4.222550">
        <ele>296.0</ele>
        <time>2015-05-23T16:05:59Z</time>
      </trkpt>
      <trkpt lat="43.290600" lon="-4.222517">
        <ele>295.0</ele>
        <time>2015-05-23T16:06:00Z</time>
      </trkpt>
      <trkpt lat="43.290500" lon="-4.222483">
        <ele>294.0</ele>
        <time>2015-05-23T16:06:01Z</time>
      </trkpt>
      <trkpt lat="43.290417" lon="-4.222450">
        <ele>293.0</ele>
        <time>2015-05-23T16:06:02Z</time>
      </trkpt>
      <trkpt lat="43.290317" lon="-4.222400">
        <ele>292.0</ele>
        <time>2015-05-23T16:06:03Z</time>
      </trkpt>
      <trkpt lat="43.290233" lon="-4.222367">
        <ele>290.0</ele>
        <time>2015-05-23T16:06:04Z</time>
      </trkpt>
      <trkpt lat="43.290150" lon="-4.222333">
        <ele>289.0</ele>
        <time>2015-05-23T16:06:05Z</time>
      </trkpt>
      <trkpt lat="43.290067" lon="-4.222333">
        <ele>288.0</ele>
        <time>2015-05-23T16:06:06Z</time>
      </trkpt>
      <trkpt lat="43.289967" lon="-4.222333">
        <ele>286.0</ele>
        <time>2015-05-23T16:06:07Z</time>
      </trkpt>
      <trkpt lat="43.289867" lon="-4.222367">
        <ele>285.0</ele>
        <time>2015-05-23T16:06:08Z</time>
      </trkpt>
      <trkpt lat="43.289767" lon="-4.222400">
        <ele>283.0</ele>
        <time>2015-05-23T16:06:09Z</time>
      </trkpt>
      <trkpt lat="43.289667" lon="-4.222450">
        <ele>282.0</ele>
        <time>2015-05-23T16:06:10Z</time>
      </trkpt>
      <trkpt lat="43.289567" lon="-4.222517">
        <ele>279.0</ele>
        <time>2015-05-23T16:06:11Z</time>
      </trkpt>
      <trkpt lat="43.289483" lon="-4.222583">
        <ele>277.0</ele>
        <time>2015-05-23T16:06:12Z</time>
      </trkpt>
      <trkpt lat="43.289383" lon="-4.222667">
        <ele>274.0</ele>
        <time>2015-05-23T16:06:13Z</time>
      </trkpt>
      <trkpt lat="43.289300" lon="-4.222733">
        <ele>272.0</ele>
        <time>2015-05-23T16:06:14Z</time>
      </trkpt>
      <trkpt lat="43.289200" lon="-4.222750">
        <ele>270.0</ele>
        <time>2015-05-23T16:06:15Z</time>
      </trkpt>
      <trkpt lat="43.289100" lon="-4.222750">
        <ele>267.0</ele>
        <time>2015-05-23T16:06:16Z</time>
      </trkpt>
      <trkpt lat="43.289017" lon="-4.222700">
        <ele>265.0</ele>
        <time>2015-05-23T16:06:17Z</time>
      </trkpt>
      <trkpt lat="43.288933" lon="-4.222617">
        <ele>262.0</ele>
        <time>2015-05-23T16:06:18Z</time>
      </trkpt>
      <trkpt lat="43.288883" lon="-4.222533">
        <ele>260.0</ele>
        <time>2015-05-23T16:06:19Z</time>
      </trkpt>
      <trkpt lat="43.288850" lon="-4.222450">
        <ele>259.0</ele>
        <time>2015-05-23T16:06:20Z</time>
      </trkpt>
      <trkpt lat="43.288867" lon="-4.222367">
        <ele>263.0</ele>
        <time>2015-05-23T16:06:21Z</time>
      </trkpt>
      <trkpt lat="43.288883" lon="-4.222283">
        <ele>262.0</ele>
        <time>2015-05-23T16:06:22Z</time>
      </trkpt>
      <trkpt lat="43.288933" lon="-4.222217">
        <ele>262.0</ele>
        <time>2015-05-23T16:06:23Z</time>
      </trkpt>
      <trkpt lat="43.288967" lon="-4.222150">
        <ele>261.0</ele>
        <time>2015-05-23T16:06:24Z</time>
      </trkpt>
      <trkpt lat="43.289017" lon="-4.222067">
        <ele>261.0</ele>
        <time>2015-05-23T16:06:25Z</time>
      </trkpt>
      <trkpt lat="43.289067" lon="-4.222000">
        <ele>260.0</ele>
        <time>2015-05-23T16:06:26Z</time>
      </trkpt>
      <trkpt lat="43.289133" lon="-4.221933">
        <ele>259.0</ele>
        <time>2015-05-23T16:06:27Z</time>
      </trkpt>
      <trkpt lat="43.289183" lon="-4.221867">
        <ele>259.0</ele>
        <time>2015-05-23T16:06:28Z</time>
      </trkpt>
      <trkpt lat="43.289233" lon="-4.221817">
        <ele>258.0</ele>
        <time>2015-05-23T16:06:29Z</time>
      </trkpt>
      <trkpt lat="43.289283" lon="-4.221750">
        <ele>257.0</ele>
        <time>2015-05-23T16:06:30Z</time>
      </trkpt>
      <trkpt lat="43.289333" lon="-4.221683">
        <ele>257.0</ele>
        <time>2015-05-23T16:06:31Z</time>
      </trkpt>
      <trkpt lat="43.289383" lon="-4.221633">
        <ele>256.0</ele>
        <time>2015-05-23T16:06:32Z</time>
      </trkpt>
      <trkpt lat="43.289433" lon="-4.221567">
        <ele>256.0</ele>
        <time>2015-05-23T16:06:33Z</time>
      </trkpt>
      <trkpt lat="43.289500" lon="-4.221500">
        <ele>256.0</ele>
        <time>2015-05-23T16:06:34Z</time>
      </trkpt>
      <trkpt lat="43.289533" lon="-4.221433">
        <ele>255.0</ele>
        <time>2015-05-23T16:06:35Z</time>
      </trkpt>
      <trkpt lat="43.289567" lon="-4.221367">
        <ele>254.0</ele>
        <time>2015-05-23T16:06:36Z</time>
      </trkpt>
      <trkpt lat="43.289617" lon="-4.221283">
        <ele>254.0</ele>
        <time>2015-05-23T16:06:37Z</time>
      </trkpt>
      <trkpt lat="43.289667" lon="-4.221233">
        <ele>254.0</ele>
        <time>2015-05-23T16:06:38Z</time>
      </trkpt>
      <trkpt lat="43.289717" lon="-4.221167">
        <ele>253.0</ele>
        <time>2015-05-23T16:06:39Z</time>
      </trkpt>
      <trkpt lat="43.289783" lon="-4.221100">
        <ele>253.0</ele>
        <time>2015-05-23T16:06:40Z</time>
      </trkpt>
      <trkpt lat="43.289850" lon="-4.221017">
        <ele>252.0</ele>
        <time>2015-05-23T16:06:41Z</time>
      </trkpt>
      <trkpt lat="43.289917" lon="-4.220950">
        <ele>252.0</ele>
        <time>2015-05-23T16:06:42Z</time>
      </trkpt>
      <trkpt lat="43.289983" lon="-4.220900">
        <ele>252.0</ele>
        <time>2015-05-23T16:06:43Z</time>
      </trkpt>
      <trkpt lat="43.290000" lon="-4.220883">
        <ele>251.0</ele>
        <time>2015-05-23T16:06:44Z</time>
      </trkpt>
      <trkpt lat="43.290050" lon="-4.220833">
        <ele>251.0</ele>
        <time>2015-05-23T16:06:45Z</time>
      </trkpt>
      <trkpt lat="43.290083" lon="-4.220750">
        <ele>250.0</ele>
        <time>2015-05-23T16:06:46Z</time>
      </trkpt>
      <trkpt lat="43.290133" lon="-4.220667">
        <ele>249.0</ele>
        <time>2015-05-23T16:06:47Z</time>
      </trkpt>
      <trkpt lat="43.290183" lon="-4.220633">
        <ele>249.0</ele>
        <time>2015-05-23T16:06:48Z</time>
      </trkpt>
      <trkpt lat="43.290233" lon="-4.220633">
        <ele>248.0</ele>
        <time>2015-05-23T16:06:49Z</time>
      </trkpt>
      <trkpt lat="43.290283" lon="-4.220600">
        <ele>248.0</ele>
        <time>2015-05-23T16:06:50Z</time>
      </trkpt>
      <trkpt lat="43.290317" lon="-4.220567">
        <ele>247.0</ele>
        <time>2015-05-23T16:06:51Z</time>
      </trkpt>
      <trkpt lat="43.290367" lon="-4.220500">
        <ele>247.0</ele>
        <time>2015-05-23T16:06:52Z</time>
      </trkpt>
      <trkpt lat="43.290433" lon="-4.220467">
        <ele>246.0</ele>
        <time>2015-05-23T16:06:53Z</time>
      </trkpt>
      <trkpt lat="43.290517" lon="-4.220450">
        <ele>245.0</ele>
        <time>2015-05-23T16:06:54Z</time>
      </trkpt>
      <trkpt lat="43.290583" lon="-4.220450">
        <ele>244.0</ele>
        <time>2015-05-23T16:06:55Z</time>
      </trkpt>
      <trkpt lat="43.290633" lon="-4.220450">
        <ele>242.0</ele>
        <time>2015-05-23T16:06:56Z</time>
      </trkpt>
      <trkpt lat="43.290667" lon="-4.220450">
        <ele>242.0</ele>
        <time>2015-05-23T16:06:57Z</time>
      </trkpt>
      <trkpt lat="43.290667" lon="-4.220450">
        <ele>241.0</ele>
        <time>2015-05-23T16:06:58Z</time>
      </trkpt>
      <trkpt lat="43.290700" lon="-4.220417">
        <ele>241.0</ele>
        <time>2015-05-23T16:06:59Z</time>
      </trkpt>
      <trkpt lat="43.290717" lon="-4.220383">
        <ele>240.0</ele>
        <time>2015-05-23T16:07:00Z</time>
      </trkpt>
      <trkpt lat="43.290767" lon="-4.220367">
        <ele>239.0</ele>
        <time>2015-05-23T16:07:01Z</time>
      </trkpt>
      <trkpt lat="43.290800" lon="-4.220367">
        <ele>239.0</ele>
        <time>2015-05-23T16:07:02Z</time>
      </trkpt>
      <trkpt lat="43.290850" lon="-4.220367">
        <ele>238.0</ele>
        <time>2015-05-23T16:07:03Z</time>
      </trkpt>
      <trkpt lat="43.290917" lon="-4.220367">
        <ele>237.0</ele>
        <time>2015-05-23T16:07:04Z</time>
      </trkpt>
      <trkpt lat="43.290967" lon="-4.220367">
        <ele>237.0</ele>
        <time>2015-05-23T16:07:05Z</time>
      </trkpt>
      <trkpt lat="43.291017" lon="-4.220383">
        <ele>236.0</ele>
        <time>2015-05-23T16:07:06Z</time>
      </trkpt>
      <trkpt lat="43.291000" lon="-4.220400">
        <ele>235.0</ele>
        <time>2015-05-23T16:07:07Z</time>
      </trkpt>
      <trkpt lat="43.291033" lon="-4.220400">
        <ele>234.0</ele>
        <time>2015-05-23T16:07:08Z</time>
      </trkpt>
      <trkpt lat="43.291050" lon="-4.220400">
        <ele>233.0</ele>
        <time>2015-05-23T16:07:09Z</time>
      </trkpt>
      <trkpt lat="43.291100" lon="-4.220350">
        <ele>233.0</ele>
        <time>2015-05-23T16:07:10Z</time>
      </trkpt>
      <trkpt lat="43.291167" lon="-4.220300">
        <ele>232.0</ele>
        <time>2015-05-23T16:07:11Z</time>
      </trkpt>
      <trkpt lat="43.291233" lon="-4.220250">
        <ele>232.0</ele>
        <time>2015-05-23T16:07:12Z</time>
      </trkpt>
      <trkpt lat="43.291300" lon="-4.220217">
        <ele>231.0</ele>
        <time>2015-05-23T16:07:13Z</time>
      </trkpt>
      <trkpt lat="43.291317" lon="-4.220217">
        <ele>231.0</ele>
        <time>2015-05-23T16:07:14Z</time>
      </trkpt>
      <trkpt lat="43.291350" lon="-4.220200">
        <ele>230.0</ele>
        <time>2015-05-23T16:07:15Z</time>
      </trkpt>
      <trkpt lat="43.291350" lon="-4.220167">
        <ele>229.0</ele>
        <time>2015-05-23T16:07:16Z</time>
      </trkpt>
      <trkpt lat="43.291367" lon="-4.220150">
        <ele>229.0</ele>
        <time>2015-05-23T16:07:17Z</time>
      </trkpt>
      <trkpt lat="43.291383" lon="-4.220133">
        <ele>228.0</ele>
        <time>2015-05-23T16:07:18Z</time>
      </trkpt>
      <trkpt lat="43.291467" lon="-4.220100">
        <ele>228.0</ele>
        <time>2015-05-23T16:07:19Z</time>
      </trkpt>
      <trkpt lat="43.291533" lon="-4.220083">
        <ele>227.0</ele>
        <time>2015-05-23T16:07:20Z</time>
      </trkpt>
      <trkpt lat="43.291600" lon="-4.220083">
        <ele>226.0</ele>
        <time>2015-05-23T16:07:21Z</time>
      </trkpt>
      <trkpt lat="43.291667" lon="-4.220083">
        <ele>224.0</ele>
        <time>2015-05-23T16:07:22Z</time>
      </trkpt>
      <trkpt lat="43.291717" lon="-4.220067">
        <ele>223.0</ele>
        <time>2015-05-23T16:07:23Z</time>
      </trkpt>
      <trkpt lat="43.291733" lon="-4.220067">
        <ele>223.0</ele>
        <time>2015-05-23T16:07:24Z</time>
      </trkpt>
      <trkpt lat="43.291767" lon="-4.220083">
        <ele>222.0</ele>
        <time>2015-05-23T16:07:25Z</time>
      </trkpt>
      <trkpt lat="43.291817" lon="-4.220133">
        <ele>222.0</ele>
        <time>2015-05-23T16:07:26Z</time>
      </trkpt>
      <trkpt lat="43.291867" lon="-4.220167">
        <ele>221.0</ele>
        <time>2015-05-23T16:07:27Z</time>
      </trkpt>
      <trkpt lat="43.291917" lon="-4.220200">
        <ele>221.0</ele>
        <time>2015-05-23T16:07:28Z</time>
      </trkpt>
      <trkpt lat="43.291950" lon="-4.220233">
        <ele>221.0</ele>
        <time>2015-05-23T16:07:29Z</time>
      </trkpt>
      <trkpt lat="43.291967" lon="-4.220267">
        <ele>220.0</ele>
        <time>2015-05-23T16:07:30Z</time>
      </trkpt>
      <trkpt lat="43.291983" lon="-4.220283">
        <ele>219.0</ele>
        <time>2015-05-23T16:07:31Z</time>
      </trkpt>
      <trkpt lat="43.292000" lon="-4.220283">
        <ele>219.0</ele>
        <time>2015-05-23T16:07:32Z</time>
      </trkpt>
      <trkpt lat="43.292000" lon="-4.220283">
        <ele>218.0</ele>
        <time>2015-05-23T16:07:33Z</time>
      </trkpt>
      <trkpt lat="43.292000" lon="-4.220233">
        <ele>218.0</ele>
        <time>2015-05-23T16:07:34Z</time>
      </trkpt>
      <trkpt lat="43.292033" lon="-4.220183">
        <ele>217.0</ele>
        <time>2015-05-23T16:07:35Z</time>
      </trkpt>
      <trkpt lat="43.292067" lon="-4.220167">
        <ele>217.0</ele>
        <time>2015-05-23T16:07:36Z</time>
      </trkpt>
      <trkpt lat="43.292100" lon="-4.220150">
        <ele>216.0</ele>
        <time>2015-05-23T16:07:37Z</time>
      </trkpt>
      <trkpt lat="43.292133" lon="-4.220133">
        <ele>215.0</ele>
        <time>2015-05-23T16:07:38Z</time>
      </trkpt>
      <trkpt lat="43.292150" lon="-4.220133">
        <ele>215.0</ele>
        <time>2015-05-23T16:07:39Z</time>
      </trkpt>
      <trkpt lat="43.292150" lon="-4.220117">
        <ele>214.0</ele>
        <time>2015-05-23T16:07:40Z</time>
      </trkpt>
      <trkpt lat="43.292167" lon="-4.220117">
        <ele>213.0</ele>
        <time>2015-05-23T16:07:41Z</time>
      </trkpt>
      <trkpt lat="43.292167" lon="-4.220117">
        <ele>213.0</ele>
        <time>2015-05-23T16:07:42Z</time>
      </trkpt>
      <trkpt lat="43.292167" lon="-4.220117">
        <ele>212.0</ele>
        <time>2015-05-23T16:07:43Z</time>
      </trkpt>
      <trkpt lat="43.292167" lon="-4.220117">
        <ele>211.0</ele>
        <time>2015-05-23T16:07:44Z</time>
      </trkpt>
      <trkpt lat="43.292167" lon="-4.220117">
        <ele>210.0</ele>
        <time>2015-05-23T16:07:45Z</time>
      </trkpt>
      <trkpt lat="43.292167" lon="-4.220117">
        <ele>209.0</ele>
        <time>2015-05-23T16:07:46Z</time>
      </trkpt>
      <trkpt lat="43.292167" lon="-4.220133">
        <ele>208.0</ele>
        <time>2015-05-23T16:07:47Z</time>
      </trkpt>
      <trkpt lat="43.292150" lon="-4.220133">
        <ele>208.0</ele>
        <time>2015-05-23T16:07:48Z</time>
      </trkpt>
      <trkpt lat="43.292133" lon="-4.220167">
        <ele>207.0</ele>
        <time>2015-05-23T16:07:49Z</time>
      </trkpt>
      <trkpt lat="43.292133" lon="-4.220167">
        <ele>206.0</ele>
        <time>2015-05-23T16:07:50Z</time>
      </trkpt>
      <trkpt lat="43.292133" lon="-4.220183">
        <ele>205.0</ele>
        <time>2015-05-23T16:07:51Z</time>
      </trkpt>
      <trkpt lat="43.292133" lon="-4.220183">
        <ele>203.0</ele>
        <time>2015-05-23T16:07:52Z</time>
      </trkpt>
      <trkpt lat="43.292133" lon="-4.220200">
        <ele>202.0</ele>
        <time>2015-05-23T16:07:53Z</time>
      </trkpt>
      <trkpt lat="43.292117" lon="-4.220200">
        <ele>201.0</ele>
        <time>2015-05-23T16:07:54Z</time>
      </trkpt>
      <trkpt lat="43.292100" lon="-4.220200">
        <ele>200.0</ele>
        <time>2015-05-23T16:07:55Z</time>
      </trkpt>
      <trkpt lat="43.292083" lon="-4.220217">
        <ele>199.0</ele>
        <time>2015-05-23T16:07:56Z</time>
      </trkpt>
      <trkpt lat="43.292067" lon="-4.220217">
        <ele>198.0</ele>
        <time>2015-05-23T16:07:57Z</time>
      </trkpt>
      <trkpt lat="43.292050" lon="-4.220217">
        <ele>196.0</ele>
        <time>2015-05-23T16:07:58Z</time>
      </trkpt>
      <trkpt lat="43.292050" lon="-4.220217">
        <ele>195.0</ele>
        <time>2015-05-23T16:07:59Z</time>
      </trkpt>
      <trkpt lat="43.292050" lon="-4.220217">
        <ele>194.0</ele>
        <time>2015-05-23T16:08:00Z</time>
      </trkpt>
      <trkpt lat="43.292033" lon="-4.220217">
        <ele>193.0</ele>
        <time>2015-05-23T16:08:01Z</time>
      </trkpt>
      <trkpt lat="43.292033" lon="-4.220217">
        <ele>192.0</ele>
        <time>2015-05-23T16:08:02Z</time>
      </trkpt>
      <trkpt lat="43.292017" lon="-4.220217">
        <ele>191.0</ele>
        <time>2015-05-23T16:08:03Z</time>
      </trkpt>
      <trkpt lat="43.292050" lon="-4.220217">
        <ele>189.0</ele>
        <time>2015-05-23T16:08:04Z</time>
      </trkpt>
      <trkpt lat="43.292033" lon="-4.220217">
        <ele>199.0</ele>
        <time>2015-05-23T16:08:05Z</time>
      </trkpt>
      <trkpt lat="43.292033" lon="-4.220217">
        <ele>199.0</ele>
        <time>2015-05-23T16:08:06Z</time>
      </trkpt>
      <trkpt lat="43.292033" lon="-4.220217">
        <ele>198.0</ele>
        <time>2015-05-23T16:08:07Z</time>
      </trkpt>
      <trkpt lat="43.292017" lon="-4.220233">
        <ele>197.0</ele>
        <time>2015-05-23T16:08:08Z</time>
      </trkpt>
      <trkpt lat="43.292000" lon="-4.220250">
        <ele>196.0</ele>
        <time>2015-05-23T16:08:09Z</time>
      </trkpt>
      <trkpt lat="43.292000" lon="-4.220250">
        <ele>196.0</ele>
        <time>2015-05-23T16:08:10Z</time>
      </trkpt>
      <trkpt lat="43.292000" lon="-4.220250">
        <ele>195.0</ele>
        <time>2015-05-23T16:08:11Z</time>
      </trkpt>
      <trkpt lat="43.292017" lon="-4.220267">
        <ele>194.0</ele>
        <time>2015-05-23T16:08:12Z</time>
      </trkpt>
      <trkpt lat="43.292017" lon="-4.220283">
        <ele>198.0</ele>
        <time>2015-05-23T16:08:13Z</time>
      </trkpt>
      <trkpt lat="43.292033" lon="-4.220283">
        <ele>198.0</ele>
        <time>2015-05-23T16:08:14Z</time>
      </trkpt>
      <trkpt lat="43.292033" lon="-4.220300">
        <ele>198.0</ele>
        <time>2015-05-23T16:08:15Z</time>
      </trkpt>
      <trkpt lat="43.292033" lon="-4.220300">
        <ele>198.0</ele>
        <time>2015-05-23T16:08:16Z</time>
      </trkpt>
      <trkpt lat="43.292017" lon="-4.220283">
        <ele>197.0</ele>
        <time>2015-05-23T16:08:17Z</time>
      </trkpt>
      <trkpt lat="43.292017" lon="-4.220283">
        <ele>197.0</ele>
        <time>2015-05-23T16:08:18Z</time>
      </trkpt>
      <trkpt lat="43.292033" lon="-4.220283">
        <ele>197.0</ele>
        <time>2015-05-23T16:08:19Z</time>
      </trkpt>
      <trkpt lat="43.292033" lon="-4.220267">
        <ele>196.0</ele>
        <time>2015-05-23T16:08:20Z</time>
      </trkpt>
      <trkpt lat="43.292050" lon="-4.220267">
        <ele>196.0</ele>
        <time>2015-05-23T16:08:21Z</time>
      </trkpt>
      <trkpt lat="43.292050" lon="-4.220267">
        <ele>196.0</ele>
        <time>2015-05-23T16:08:22Z</time>
      </trkpt>
      <trkpt lat="43.292050" lon="-4.220267">
        <ele>195.0</ele>
        <time>2015-05-23T16:08:23Z</time>
      </trkpt>
      <trkpt lat="43.292033" lon="-4.220267">
        <ele>195.0</ele>
        <time>2015-05-23T16:08:24Z</time>
      </trkpt>
      <trkpt lat="43.292033" lon="-4.220267">
        <ele>195.0</ele>
        <time>2015-05-23T16:08:25Z</time>
      </trkpt>
      <trkpt lat="43.292033" lon="-4.220267">
        <ele>194.0</ele>
        <time>2015-05-23T16:08:26Z</time>
      </trkpt>
      <trkpt lat="43.292017" lon="-4.220267">
        <ele>194.0</ele>
        <time>2015-05-23T16:08:27Z</time>
      </trkpt>
      <trkpt lat="43.292017" lon="-4.220267">
        <ele>194.0</ele>
        <time>2015-05-23T16:08:28Z</time>
      </trkpt>
    </trkseg>
  </trk>
</gpx>
